<?xml version='1.0' encoding='UTF-8'?><gpx version="1.1" creator="JPX - https://github.com/jenetics/jpx" xmlns="http://www.topografix.com/GPX/1/1"><trk><trkseg><trkpt lat="45.4087917" lon="10.53961"><ele>123.50000000000001</ele><time>2026-04-02T07:43:37.207Z</time></trkpt><trkpt lat="45.40883" lon="10.539525"><ele>123.0</ele><time>2026-04-02T07:43:41.206Z</time></trkpt><trkpt lat="45.4087933" lon="10.5393967"><ele>122.5</ele><time>2026-04-02T07:43:45.205Z</time></trkpt><trkpt lat="45.4088667" lon="10.539335"><ele>122.0</ele><time>2026-04-02T07:43:52.207Z</time></trkpt><trkpt lat="45.40892" lon="10.5392733"><ele>121.50000000000001</ele><time>2026-04-02T07:43:54.206Z</time></trkpt><trkpt lat="45.4090067" lon="10.539175"><ele>121.0</ele><time>2026-04-02T07:43:59.208Z</time></trkpt><trkpt lat="45.409035" lon="10.5390917"><ele>122.14285714285714</ele><time>2026-04-02T07:44:03.21Z</time></trkpt><trkpt lat="45.4090567" lon="10.5389983"><ele>123.28571428571428</ele><time>2026-04-02T07:44:11.21Z</time></trkpt><trkpt lat="45.4090367" lon="10.5389"><ele>124.42857142857142</ele><time>2026-04-02T07:44:18.21Z</time></trkpt><trkpt lat="45.4090467" lon="10.5388033"><ele>125.57142857142856</ele><time>2026-04-02T07:44:34.209Z</time></trkpt><trkpt lat="45.4089867" lon="10.5388317"><ele>126.71428571428571</ele><time>2026-04-02T07:44:38.208Z</time></trkpt><trkpt lat="45.4090533" lon="10.5387883"><ele>127.85714285714283</ele><time>2026-04-02T07:44:40.204Z</time></trkpt><trkpt lat="45.4091483" lon="10.5388333"><ele>129.0</ele><time>2026-04-02T07:44:42.206Z</time></trkpt><trkpt lat="45.409205" lon="10.5388767"><ele>129.0</ele><time>2026-04-02T07:44:43.212Z</time></trkpt><trkpt lat="45.4092883" lon="10.5389633"><ele>129.0</ele><time>2026-04-02T07:44:44.207Z</time></trkpt><trkpt lat="45.4093633" lon="10.5389867"><ele>129.0</ele><time>2026-04-02T07:44:45.205Z</time></trkpt><trkpt lat="45.4094483" lon="10.539005"><ele>129.0</ele><time>2026-04-02T07:44:46.222Z</time></trkpt><trkpt lat="45.4095433" lon="10.5390383"><ele>129.0</ele><time>2026-04-02T07:44:47.213Z</time></trkpt><trkpt lat="45.4096483" lon="10.5390567"><ele>130.0</ele><time>2026-04-02T07:44:48.204Z</time></trkpt><trkpt lat="45.40977" lon="10.539075"><ele>131.0</ele><time>2026-04-02T07:44:49.208Z</time></trkpt><trkpt lat="45.409885" lon="10.5391017"><ele>132.0</ele><time>2026-04-02T07:44:50.209Z</time></trkpt><trkpt lat="45.41003" lon="10.53913"><ele>133.0</ele><time>2026-04-02T07:44:51.215Z</time></trkpt><trkpt lat="45.4101883" lon="10.5391417"><ele>133.0</ele><time>2026-04-02T07:44:52.207Z</time></trkpt><trkpt lat="45.410345" lon="10.5391667"><ele>133.0</ele><time>2026-04-02T07:44:53.218Z</time></trkpt><trkpt lat="45.4105" lon="10.5391983"><ele>133.0</ele><time>2026-04-02T07:44:54.215Z</time></trkpt><trkpt lat="45.4106283" lon="10.53924"><ele>133.0</ele><time>2026-04-02T07:44:55.215Z</time></trkpt><trkpt lat="45.4107683" lon="10.539285"><ele>131.0</ele><time>2026-04-02T07:44:56.211Z</time></trkpt><trkpt lat="45.4109183" lon="10.5393433"><ele>129.0</ele><time>2026-04-02T07:44:57.208Z</time></trkpt><trkpt lat="45.4110667" lon="10.53941"><ele>127.0</ele><time>2026-04-02T07:44:58.208Z</time></trkpt><trkpt lat="45.4112133" lon="10.53946"><ele>126.6</ele><time>2026-04-02T07:44:59.207Z</time></trkpt><trkpt lat="45.411335" lon="10.5395233"><ele>126.19999999999999</ele><time>2026-04-02T07:45:00.213Z</time></trkpt><trkpt lat="45.4114383" lon="10.539585"><ele>125.8</ele><time>2026-04-02T07:45:01.211Z</time></trkpt><trkpt lat="45.4115183" lon="10.5396483"><ele>125.4</ele><time>2026-04-02T07:45:02.215Z</time></trkpt><trkpt lat="45.4115867" lon="10.5397267"><ele>125.0</ele><time>2026-04-02T07:45:03.213Z</time></trkpt><trkpt lat="45.4116417" lon="10.5398283"><ele>125.0</ele><time>2026-04-02T07:45:04.211Z</time></trkpt><trkpt lat="45.41169" lon="10.5399567"><ele>125.0</ele><time>2026-04-02T07:45:05.208Z</time></trkpt><trkpt lat="45.41173" lon="10.5401117"><ele>125.0</ele><time>2026-04-02T07:45:06.208Z</time></trkpt><trkpt lat="45.411785" lon="10.5402783"><ele>125.0</ele><time>2026-04-02T07:45:07.229Z</time></trkpt><trkpt lat="45.41186" lon="10.5404583"><ele>126.0</ele><time>2026-04-02T07:45:08.203Z</time></trkpt><trkpt lat="45.4119383" lon="10.5406233"><ele>127.0</ele><time>2026-04-02T07:45:09.211Z</time></trkpt><trkpt lat="45.412015" lon="10.5407633"><ele>128.0</ele><time>2026-04-02T07:45:10.206Z</time></trkpt><trkpt lat="45.41209" lon="10.5408783"><ele>129.0</ele><time>2026-04-02T07:45:11.216Z</time></trkpt><trkpt lat="45.4121567" lon="10.5409733"><ele>129.0</ele><time>2026-04-02T07:45:12.211Z</time></trkpt><trkpt lat="45.41221" lon="10.5410467"><ele>129.0</ele><time>2026-04-02T07:45:13.209Z</time></trkpt><trkpt lat="45.4122817" lon="10.5411417"><ele>129.0</ele><time>2026-04-02T07:45:15.213Z</time></trkpt><trkpt lat="45.41237" lon="10.5410833"><ele>129.0</ele><time>2026-04-02T07:45:22.206Z</time></trkpt><trkpt lat="45.4124217" lon="10.5409883"><ele>129.0</ele><time>2026-04-02T07:45:23.207Z</time></trkpt><trkpt lat="45.412465" lon="10.54086"><ele>129.0</ele><time>2026-04-02T07:45:24.238Z</time></trkpt><trkpt lat="45.4124867" lon="10.5407467"><ele>129.0</ele><time>2026-04-02T07:45:25.21Z</time></trkpt><trkpt lat="45.41257" lon="10.54056"><ele>129.0</ele><time>2026-04-02T07:45:26.212Z</time></trkpt><trkpt lat="45.41264" lon="10.5403233"><ele>129.0</ele><time>2026-04-02T07:45:27.202Z</time></trkpt><trkpt lat="45.412715" lon="10.5401417"><ele>128.0</ele><time>2026-04-02T07:45:28.207Z</time></trkpt><trkpt lat="45.4128283" lon="10.5399967"><ele>127.0</ele><time>2026-04-02T07:45:29.209Z</time></trkpt><trkpt lat="45.4129617" lon="10.5398467"><ele>126.0</ele><time>2026-04-02T07:45:30.208Z</time></trkpt><trkpt lat="45.413085" lon="10.5396933"><ele>125.66666666666666</ele><time>2026-04-02T07:45:31.209Z</time></trkpt><trkpt lat="45.4132717" lon="10.5395517"><ele>125.33333333333333</ele><time>2026-04-02T07:45:32.208Z</time></trkpt><trkpt lat="45.41345" lon="10.5393833"><ele>125.0</ele><time>2026-04-02T07:45:33.206Z</time></trkpt><trkpt lat="45.4136183" lon="10.5392367"><ele>125.0</ele><time>2026-04-02T07:45:34.209Z</time></trkpt><trkpt lat="45.4137983" lon="10.5390683"><ele>125.0</ele><time>2026-04-02T07:45:35.206Z</time></trkpt><trkpt lat="45.4139933" lon="10.5389133"><ele>125.0</ele><time>2026-04-02T07:45:36.205Z</time></trkpt><trkpt lat="45.4142" lon="10.53873"><ele>125.0</ele><time>2026-04-02T07:45:37.208Z</time></trkpt><trkpt lat="45.4143833" lon="10.5385633"><ele>125.0</ele><time>2026-04-02T07:45:38.206Z</time></trkpt><trkpt lat="45.41457" lon="10.5383817"><ele>125.0</ele><time>2026-04-02T07:45:39.204Z</time></trkpt><trkpt lat="45.4147317" lon="10.5382383"><ele>125.33333333333333</ele><time>2026-04-02T07:45:40.204Z</time></trkpt><trkpt lat="45.414875" lon="10.538065"><ele>125.66666666666666</ele><time>2026-04-02T07:45:41.209Z</time></trkpt><trkpt lat="45.4150117" lon="10.5378833"><ele>126.0</ele><time>2026-04-02T07:45:42.208Z</time></trkpt><trkpt lat="45.4151517" lon="10.5376683"><ele>126.0</ele><time>2026-04-02T07:45:43.208Z</time></trkpt><trkpt lat="45.4152567" lon="10.5374317"><ele>126.0</ele><time>2026-04-02T07:45:44.208Z</time></trkpt><trkpt lat="45.4153683" lon="10.537175"><ele>126.0</ele><time>2026-04-02T07:45:45.207Z</time></trkpt><trkpt lat="45.41548" lon="10.5369283"><ele>126.33333333333334</ele><time>2026-04-02T07:45:46.202Z</time></trkpt><trkpt lat="45.4156" lon="10.5367283"><ele>126.66666666666667</ele><time>2026-04-02T07:45:47.218Z</time></trkpt><trkpt lat="45.415735" lon="10.53654"><ele>127.0</ele><time>2026-04-02T07:45:48.205Z</time></trkpt><trkpt lat="45.415865" lon="10.5363617"><ele>125.33333333333334</ele><time>2026-04-02T07:45:49.205Z</time></trkpt><trkpt lat="45.4160167" lon="10.536205"><ele>123.66666666666666</ele><time>2026-04-02T07:45:50.209Z</time></trkpt><trkpt lat="45.4161483" lon="10.5360683"><ele>122.0</ele><time>2026-04-02T07:45:51.207Z</time></trkpt><trkpt lat="45.416285" lon="10.5359433"><ele>123.33333333333333</ele><time>2026-04-02T07:45:52.204Z</time></trkpt><trkpt lat="45.4164183" lon="10.5358467"><ele>124.66666666666666</ele><time>2026-04-02T07:45:53.203Z</time></trkpt><trkpt lat="45.4165683" lon="10.53578"><ele>126.0</ele><time>2026-04-02T07:45:54.21Z</time></trkpt><trkpt lat="45.4167533" lon="10.5357333"><ele>126.0</ele><time>2026-04-02T07:45:55.204Z</time></trkpt><trkpt lat="45.4169533" lon="10.5357267"><ele>126.0</ele><time>2026-04-02T07:45:56.205Z</time></trkpt><trkpt lat="45.4171317" lon="10.5356717"><ele>126.0</ele><time>2026-04-02T07:45:57.206Z</time></trkpt><trkpt lat="45.4172717" lon="10.5356"><ele>126.0</ele><time>2026-04-02T07:45:58.209Z</time></trkpt><trkpt lat="45.41741" lon="10.5354667"><ele>126.0</ele><time>2026-04-02T07:45:59.204Z</time></trkpt><trkpt lat="45.4175617" lon="10.53532"><ele>126.0</ele><time>2026-04-02T07:46:00.216Z</time></trkpt><trkpt lat="45.4177083" lon="10.535145"><ele>126.0</ele><time>2026-04-02T07:46:01.208Z</time></trkpt><trkpt lat="45.4178867" lon="10.53501"><ele>126.0</ele><time>2026-04-02T07:46:02.205Z</time></trkpt><trkpt lat="45.4180767" lon="10.5348867"><ele>126.0</ele><time>2026-04-02T07:46:03.209Z</time></trkpt><trkpt lat="45.4182867" lon="10.5348033"><ele>127.5</ele><time>2026-04-02T07:46:04.208Z</time></trkpt><trkpt lat="45.4184983" lon="10.5347467"><ele>129.0</ele><time>2026-04-02T07:46:05.204Z</time></trkpt><trkpt lat="45.418735" lon="10.5346817"><ele>130.0</ele><time>2026-04-02T07:46:06.215Z</time></trkpt><trkpt lat="45.4189533" lon="10.5345933"><ele>131.0</ele><time>2026-04-02T07:46:07.21Z</time></trkpt><trkpt lat="45.4191583" lon="10.53449"><ele>132.0</ele><time>2026-04-02T07:46:08.208Z</time></trkpt><trkpt lat="45.419335" lon="10.5343333"><ele>132.0</ele><time>2026-04-02T07:46:09.209Z</time></trkpt><trkpt lat="45.4195217" lon="10.53413"><ele>132.0</ele><time>2026-04-02T07:46:10.207Z</time></trkpt><trkpt lat="45.419715" lon="10.53391"><ele>131.0</ele><time>2026-04-02T07:46:11.208Z</time></trkpt><trkpt lat="45.419935" lon="10.5337417"><ele>130.0</ele><time>2026-04-02T07:46:12.204Z</time></trkpt><trkpt lat="45.4201533" lon="10.5335683"><ele>130.0</ele><time>2026-04-02T07:46:13.202Z</time></trkpt><trkpt lat="45.42036" lon="10.5334217"><ele>130.0</ele><time>2026-04-02T07:46:14.206Z</time></trkpt><trkpt lat="45.4205783" lon="10.5332733"><ele>132.66666666666669</ele><time>2026-04-02T07:46:15.205Z</time></trkpt><trkpt lat="45.420795" lon="10.5331617"><ele>135.33333333333334</ele><time>2026-04-02T07:46:16.209Z</time></trkpt><trkpt lat="45.4209983" lon="10.5330517"><ele>138.0</ele><time>2026-04-02T07:46:17.205Z</time></trkpt><trkpt lat="45.42119" lon="10.5329467"><ele>137.66666666666666</ele><time>2026-04-02T07:46:18.202Z</time></trkpt><trkpt lat="45.421355" lon="10.532885"><ele>137.33333333333331</ele><time>2026-04-02T07:46:19.204Z</time></trkpt><trkpt lat="45.421505" lon="10.5327733"><ele>137.0</ele><time>2026-04-02T07:46:20.202Z</time></trkpt><trkpt lat="45.42163" lon="10.5326867"><ele>137.0</ele><time>2026-04-02T07:46:21.201Z</time></trkpt><trkpt lat="45.4217217" lon="10.53255"><ele>137.0</ele><time>2026-04-02T07:46:22.21Z</time></trkpt><trkpt lat="45.42182" lon="10.5324217"><ele>137.0</ele><time>2026-04-02T07:46:23.208Z</time></trkpt><trkpt lat="45.421915" lon="10.5322667"><ele>137.0</ele><time>2026-04-02T07:46:24.203Z</time></trkpt><trkpt lat="45.4219917" lon="10.5320617"><ele>137.75</ele><time>2026-04-02T07:46:25.203Z</time></trkpt><trkpt lat="45.4220383" lon="10.5318567"><ele>138.5</ele><time>2026-04-02T07:46:26.219Z</time></trkpt><trkpt lat="45.4221017" lon="10.5316967"><ele>139.25</ele><time>2026-04-02T07:46:27.201Z</time></trkpt><trkpt lat="45.422175" lon="10.5315667"><ele>140.0</ele><time>2026-04-02T07:46:28.21Z</time></trkpt><trkpt lat="45.422265" lon="10.53146"><ele>140.0</ele><time>2026-04-02T07:46:29.207Z</time></trkpt><trkpt lat="45.42238" lon="10.5313417"><ele>140.0</ele><time>2026-04-02T07:46:30.207Z</time></trkpt><trkpt lat="45.4225183" lon="10.531215"><ele>140.0</ele><time>2026-04-02T07:46:31.208Z</time></trkpt><trkpt lat="45.4226983" lon="10.5310717"><ele>138.66666666666666</ele><time>2026-04-02T07:46:32.208Z</time></trkpt><trkpt lat="45.4228767" lon="10.5309717"><ele>137.33333333333334</ele><time>2026-04-02T07:46:33.203Z</time></trkpt><trkpt lat="45.4230517" lon="10.5308667"><ele>136.0</ele><time>2026-04-02T07:46:34.215Z</time></trkpt><trkpt lat="45.4232017" lon="10.5307583"><ele>136.0</ele><time>2026-04-02T07:46:35.214Z</time></trkpt><trkpt lat="45.4233233" lon="10.530625"><ele>136.0</ele><time>2026-04-02T07:46:36.207Z</time></trkpt><trkpt lat="45.423415" lon="10.530425"><ele>136.0</ele><time>2026-04-02T07:46:37.206Z</time></trkpt><trkpt lat="45.4235283" lon="10.5302067"><ele>134.66666666666669</ele><time>2026-04-02T07:46:38.205Z</time></trkpt><trkpt lat="45.42369" lon="10.5299933"><ele>133.33333333333334</ele><time>2026-04-02T07:46:39.209Z</time></trkpt><trkpt lat="45.42386" lon="10.5297983"><ele>132.0</ele><time>2026-04-02T07:46:40.202Z</time></trkpt><trkpt lat="45.4240067" lon="10.5296133"><ele>130.66666666666666</ele><time>2026-04-02T07:46:41.209Z</time></trkpt><trkpt lat="45.4241567" lon="10.5294233"><ele>129.33333333333331</ele><time>2026-04-02T07:46:42.208Z</time></trkpt><trkpt lat="45.4243117" lon="10.5292467"><ele>128.0</ele><time>2026-04-02T07:46:43.207Z</time></trkpt><trkpt lat="45.4244783" lon="10.5290317"><ele>128.0</ele><time>2026-04-02T07:46:44.205Z</time></trkpt><trkpt lat="45.4246517" lon="10.5287967"><ele>128.0</ele><time>2026-04-02T07:46:45.204Z</time></trkpt><trkpt lat="45.4248333" lon="10.528565"><ele>128.0</ele><time>2026-04-02T07:46:46.204Z</time></trkpt><trkpt lat="45.425035" lon="10.528275"><ele>128.0</ele><time>2026-04-02T07:46:47.207Z</time></trkpt><trkpt lat="45.4252383" lon="10.528005"><ele>128.0</ele><time>2026-04-02T07:46:48.206Z</time></trkpt><trkpt lat="45.4254317" lon="10.5277333"><ele>128.0</ele><time>2026-04-02T07:46:49.211Z</time></trkpt><trkpt lat="45.4256333" lon="10.52746"><ele>128.0</ele><time>2026-04-02T07:46:50.204Z</time></trkpt><trkpt lat="45.4258367" lon="10.5271817"><ele>128.0</ele><time>2026-04-02T07:46:51.204Z</time></trkpt><trkpt lat="45.4260567" lon="10.5269267"><ele>127.0</ele><time>2026-04-02T07:46:52.203Z</time></trkpt><trkpt lat="45.42627" lon="10.5266883"><ele>126.0</ele><time>2026-04-02T07:46:53.206Z</time></trkpt><trkpt lat="45.42648" lon="10.5264567"><ele>125.0</ele><time>2026-04-02T07:46:54.203Z</time></trkpt><trkpt lat="45.4267" lon="10.526195"><ele>124.0</ele><time>2026-04-02T07:46:55.209Z</time></trkpt><trkpt lat="45.426905" lon="10.525935"><ele>124.0</ele><time>2026-04-02T07:46:56.204Z</time></trkpt><trkpt lat="45.4271233" lon="10.5256733"><ele>124.0</ele><time>2026-04-02T07:46:57.204Z</time></trkpt><trkpt lat="45.4273167" lon="10.5253833"><ele>123.0</ele><time>2026-04-02T07:46:58.205Z</time></trkpt><trkpt lat="45.4275317" lon="10.525095"><ele>122.0</ele><time>2026-04-02T07:46:59.204Z</time></trkpt><trkpt lat="45.4277483" lon="10.5248033"><ele>121.5</ele><time>2026-04-02T07:47:00.206Z</time></trkpt><trkpt lat="45.4279717" lon="10.524515"><ele>121.0</ele><time>2026-04-02T07:47:01.21Z</time></trkpt><trkpt lat="45.4281933" lon="10.5242233"><ele>121.5</ele><time>2026-04-02T07:47:02.214Z</time></trkpt><trkpt lat="45.4284117" lon="10.5239433"><ele>122.0</ele><time>2026-04-02T07:47:03.21Z</time></trkpt><trkpt lat="45.4286367" lon="10.52366"><ele>123.0</ele><time>2026-04-02T07:47:04.216Z</time></trkpt><trkpt lat="45.428865" lon="10.523365"><ele>124.0</ele><time>2026-04-02T07:47:05.207Z</time></trkpt><trkpt lat="45.42908" lon="10.52307"><ele>123.0</ele><time>2026-04-02T07:47:06.208Z</time></trkpt><trkpt lat="45.4292967" lon="10.5227667"><ele>122.0</ele><time>2026-04-02T07:47:07.209Z</time></trkpt><trkpt lat="45.42949" lon="10.5224933"><ele>122.0</ele><time>2026-04-02T07:47:08.208Z</time></trkpt><trkpt lat="45.4296733" lon="10.5222383"><ele>122.0</ele><time>2026-04-02T07:47:09.212Z</time></trkpt><trkpt lat="45.4298383" lon="10.522015"><ele>122.0</ele><time>2026-04-02T07:47:10.206Z</time></trkpt><trkpt lat="45.4300083" lon="10.5218217"><ele>122.0</ele><time>2026-04-02T07:47:11.208Z</time></trkpt><trkpt lat="45.43016" lon="10.5216467"><ele>122.0</ele><time>2026-04-02T07:47:12.202Z</time></trkpt><trkpt lat="45.4303317" lon="10.5214983"><ele>121.33333333333333</ele><time>2026-04-02T07:47:13.213Z</time></trkpt><trkpt lat="45.4305067" lon="10.521375"><ele>120.66666666666666</ele><time>2026-04-02T07:47:14.21Z</time></trkpt><trkpt lat="45.4307" lon="10.5212817"><ele>120.0</ele><time>2026-04-02T07:47:15.208Z</time></trkpt><trkpt lat="45.4308917" lon="10.5212067"><ele>120.33333333333334</ele><time>2026-04-02T07:47:16.205Z</time></trkpt><trkpt lat="45.4310483" lon="10.521075"><ele>120.66666666666667</ele><time>2026-04-02T07:47:17.207Z</time></trkpt><trkpt lat="45.4311983" lon="10.5209133"><ele>121.0</ele><time>2026-04-02T07:47:18.205Z</time></trkpt><trkpt lat="45.4313233" lon="10.5207183"><ele>121.0</ele><time>2026-04-02T07:47:19.208Z</time></trkpt><trkpt lat="45.4314167" lon="10.5205217"><ele>121.0</ele><time>2026-04-02T07:47:20.21Z</time></trkpt><trkpt lat="45.4314983" lon="10.520345"><ele>121.0</ele><time>2026-04-02T07:47:21.21Z</time></trkpt><trkpt lat="45.4315667" lon="10.52025"><ele>121.0</ele><time>2026-04-02T07:47:22.208Z</time></trkpt><trkpt lat="45.431615" lon="10.52015"><ele>121.33333333333334</ele><time>2026-04-02T07:47:23.209Z</time></trkpt><trkpt lat="45.431645" lon="10.5200417"><ele>121.66666666666667</ele><time>2026-04-02T07:47:24.204Z</time></trkpt><trkpt lat="45.4316533" lon="10.51994"><ele>122.0</ele><time>2026-04-02T07:47:25.213Z</time></trkpt><trkpt lat="45.4316683" lon="10.5198267"><ele>122.33333333333334</ele><time>2026-04-02T07:47:26.207Z</time></trkpt><trkpt lat="45.4316983" lon="10.5197"><ele>122.66666666666667</ele><time>2026-04-02T07:47:27.201Z</time></trkpt><trkpt lat="45.4317483" lon="10.5195733"><ele>123.0</ele><time>2026-04-02T07:47:28.202Z</time></trkpt><trkpt lat="45.431805" lon="10.5194683"><ele>123.0</ele><time>2026-04-02T07:47:29.205Z</time></trkpt><trkpt lat="45.4318883" lon="10.51937"><ele>123.0</ele><time>2026-04-02T07:47:30.205Z</time></trkpt><trkpt lat="45.4320017" lon="10.5192917"><ele>123.0</ele><time>2026-04-02T07:47:31.207Z</time></trkpt><trkpt lat="45.4321017" lon="10.5191717"><ele>123.0</ele><time>2026-04-02T07:47:32.203Z</time></trkpt><trkpt lat="45.4322167" lon="10.519035"><ele>123.0</ele><time>2026-04-02T07:47:33.203Z</time></trkpt><trkpt lat="45.4323283" lon="10.5188417"><ele>123.0</ele><time>2026-04-02T07:47:34.201Z</time></trkpt><trkpt lat="45.4324517" lon="10.5185967"><ele>123.0</ele><time>2026-04-02T07:47:35.204Z</time></trkpt><trkpt lat="45.43257" lon="10.5183667"><ele>123.33333333333334</ele><time>2026-04-02T07:47:36.206Z</time></trkpt><trkpt lat="45.4326633" lon="10.51813"><ele>123.66666666666667</ele><time>2026-04-02T07:47:37.209Z</time></trkpt><trkpt lat="45.43274" lon="10.5179083"><ele>124.0</ele><time>2026-04-02T07:47:38.209Z</time></trkpt><trkpt lat="45.43279" lon="10.5176933"><ele>124.0</ele><time>2026-04-02T07:47:39.207Z</time></trkpt><trkpt lat="45.4328283" lon="10.517475"><ele>124.0</ele><time>2026-04-02T07:47:40.203Z</time></trkpt><trkpt lat="45.43287" lon="10.51726"><ele>124.0</ele><time>2026-04-02T07:47:41.208Z</time></trkpt><trkpt lat="45.4328767" lon="10.5170617"><ele>123.4</ele><time>2026-04-02T07:47:42.207Z</time></trkpt><trkpt lat="45.4329" lon="10.5169567"><ele>122.80000000000001</ele><time>2026-04-02T07:47:43.209Z</time></trkpt><trkpt lat="45.43286" lon="10.5168483"><ele>122.19999999999999</ele><time>2026-04-02T07:47:44.203Z</time></trkpt><trkpt lat="45.4328967" lon="10.5167133"><ele>121.6</ele><time>2026-04-02T07:47:46.206Z</time></trkpt><trkpt lat="45.432945" lon="10.516535"><ele>121.0</ele><time>2026-04-02T07:47:48.207Z</time></trkpt><trkpt lat="45.4329533" lon="10.5164367"><ele>121.00000000000001</ele><time>2026-04-02T07:47:49.209Z</time></trkpt><trkpt lat="45.4329333" lon="10.5163367"><ele>121.0</ele><time>2026-04-02T07:47:50.202Z</time></trkpt><trkpt lat="45.4328817" lon="10.51625"><ele>121.0</ele><time>2026-04-02T07:47:51.206Z</time></trkpt><trkpt lat="45.4328" lon="10.51622"><ele>121.0</ele><time>2026-04-02T07:47:52.206Z</time></trkpt><trkpt lat="45.43272" lon="10.5162283"><ele>121.00000000000001</ele><time>2026-04-02T07:47:53.212Z</time></trkpt><trkpt lat="45.432645" lon="10.5162783"><ele>121.0</ele><time>2026-04-02T07:47:54.202Z</time></trkpt><trkpt lat="45.4325767" lon="10.5163617"><ele>121.0</ele><time>2026-04-02T07:47:55.211Z</time></trkpt><trkpt lat="45.4325067" lon="10.5164717"><ele>121.0</ele><time>2026-04-02T07:47:56.21Z</time></trkpt><trkpt lat="45.4323983" lon="10.5165883"><ele>121.0</ele><time>2026-04-02T07:47:57.205Z</time></trkpt><trkpt lat="45.4322967" lon="10.51667"><ele>121.0</ele><time>2026-04-02T07:47:58.205Z</time></trkpt><trkpt lat="45.4321517" lon="10.5167317"><ele>121.66666666666667</ele><time>2026-04-02T07:47:59.209Z</time></trkpt><trkpt lat="45.4319983" lon="10.5167967"><ele>122.33333333333334</ele><time>2026-04-02T07:48:00.2Z</time></trkpt><trkpt lat="45.431815" lon="10.51682"><ele>123.0</ele><time>2026-04-02T07:48:01.204Z</time></trkpt><trkpt lat="45.4316183" lon="10.516825"><ele>123.0</ele><time>2026-04-02T07:48:02.207Z</time></trkpt><trkpt lat="45.431405" lon="10.5168167"><ele>123.0</ele><time>2026-04-02T07:48:03.212Z</time></trkpt><trkpt lat="45.431205" lon="10.5168017"><ele>123.0</ele><time>2026-04-02T07:48:04.217Z</time></trkpt><trkpt lat="45.430975" lon="10.5167833"><ele>122.5</ele><time>2026-04-02T07:48:05.227Z</time></trkpt><trkpt lat="45.43073" lon="10.516745"><ele>122.0</ele><time>2026-04-02T07:48:06.211Z</time></trkpt><trkpt lat="45.43048" lon="10.5167033"><ele>122.5</ele><time>2026-04-02T07:48:07.208Z</time></trkpt><trkpt lat="45.4302133" lon="10.5166633"><ele>123.0</ele><time>2026-04-02T07:48:08.214Z</time></trkpt><trkpt lat="45.4299517" lon="10.5166017"><ele>123.0</ele><time>2026-04-02T07:48:09.209Z</time></trkpt><trkpt lat="45.429665" lon="10.5165417"><ele>123.0</ele><time>2026-04-02T07:48:10.216Z</time></trkpt><trkpt lat="45.4293867" lon="10.5164767"><ele>122.5</ele><time>2026-04-02T07:48:11.21Z</time></trkpt><trkpt lat="45.4291383" lon="10.5164333"><ele>122.0</ele><time>2026-04-02T07:48:12.212Z</time></trkpt><trkpt lat="45.428895" lon="10.516345"><ele>122.33333333333333</ele><time>2026-04-02T07:48:13.205Z</time></trkpt><trkpt lat="45.4286767" lon="10.516305"><ele>122.66666666666666</ele><time>2026-04-02T07:48:14.208Z</time></trkpt><trkpt lat="45.4284667" lon="10.5162517"><ele>123.0</ele><time>2026-04-02T07:48:15.208Z</time></trkpt><trkpt lat="45.4282717" lon="10.5161983"><ele>123.0</ele><time>2026-04-02T07:48:16.206Z</time></trkpt><trkpt lat="45.42809" lon="10.5161417"><ele>123.0</ele><time>2026-04-02T07:48:17.212Z</time></trkpt><trkpt lat="45.42791" lon="10.5161"><ele>123.0</ele><time>2026-04-02T07:48:18.214Z</time></trkpt><trkpt lat="45.4277533" lon="10.5160517"><ele>122.75</ele><time>2026-04-02T07:48:19.222Z</time></trkpt><trkpt lat="45.4276133" lon="10.5159983"><ele>122.5</ele><time>2026-04-02T07:48:20.217Z</time></trkpt><trkpt lat="45.4274917" lon="10.5159383"><ele>122.25</ele><time>2026-04-02T07:48:21.207Z</time></trkpt><trkpt lat="45.42739" lon="10.51586"><ele>122.0</ele><time>2026-04-02T07:48:22.204Z</time></trkpt><trkpt lat="45.427295" lon="10.515775"><ele>122.0</ele><time>2026-04-02T07:48:23.214Z</time></trkpt><trkpt lat="45.4272267" lon="10.5156383"><ele>122.0</ele><time>2026-04-02T07:48:24.209Z</time></trkpt><trkpt lat="45.4271733" lon="10.515485"><ele>122.0</ele><time>2026-04-02T07:48:25.209Z</time></trkpt><trkpt lat="45.4271417" lon="10.5153217"><ele>122.0</ele><time>2026-04-02T07:48:26.203Z</time></trkpt><trkpt lat="45.4271183" lon="10.5151433"><ele>122.0</ele><time>2026-04-02T07:48:27.207Z</time></trkpt><trkpt lat="45.42712" lon="10.5149667"><ele>122.0</ele><time>2026-04-02T07:48:28.209Z</time></trkpt><trkpt lat="45.4271683" lon="10.5147683"><ele>122.0</ele><time>2026-04-02T07:48:29.202Z</time></trkpt><trkpt lat="45.4272167" lon="10.5145883"><ele>122.0</ele><time>2026-04-02T07:48:30.207Z</time></trkpt><trkpt lat="45.427265" lon="10.5144267"><ele>122.0</ele><time>2026-04-02T07:48:31.217Z</time></trkpt><trkpt lat="45.42734" lon="10.5143017"><ele>121.99999999999999</ele><time>2026-04-02T07:48:32.205Z</time></trkpt><trkpt lat="45.427395" lon="10.5141733"><ele>121.99999999999999</ele><time>2026-04-02T07:48:33.208Z</time></trkpt><trkpt lat="45.4274633" lon="10.5141067"><ele>122.0</ele><time>2026-04-02T07:48:34.207Z</time></trkpt><trkpt lat="45.4275483" lon="10.51408"><ele>122.0</ele><time>2026-04-02T07:48:35.203Z</time></trkpt><trkpt lat="45.4276467" lon="10.5141017"><ele>122.0</ele><time>2026-04-02T07:48:36.209Z</time></trkpt><trkpt lat="45.42779" lon="10.5141667"><ele>122.0</ele><time>2026-04-02T07:48:37.21Z</time></trkpt><trkpt lat="45.4279483" lon="10.5142233"><ele>122.0</ele><time>2026-04-02T07:48:38.209Z</time></trkpt><trkpt lat="45.4280767" lon="10.5142617"><ele>122.0</ele><time>2026-04-02T07:48:39.203Z</time></trkpt><trkpt lat="45.4281667" lon="10.5142983"><ele>121.99999999999999</ele><time>2026-04-02T07:48:40.208Z</time></trkpt><trkpt lat="45.4282483" lon="10.5143633"><ele>122.0</ele><time>2026-04-02T07:48:41.203Z</time></trkpt><trkpt lat="45.4283033" lon="10.5144467"><ele>122.0</ele><time>2026-04-02T07:48:42.207Z</time></trkpt><trkpt lat="45.4283367" lon="10.514535"><ele>122.0</ele><time>2026-04-02T07:48:43.208Z</time></trkpt><trkpt lat="45.42834" lon="10.5146583"><ele>121.99999999999999</ele><time>2026-04-02T07:48:44.209Z</time></trkpt><trkpt lat="45.4283167" lon="10.5147867"><ele>122.0</ele><time>2026-04-02T07:48:45.205Z</time></trkpt><trkpt lat="45.4282783" lon="10.5149033"><ele>121.99999999999999</ele><time>2026-04-02T07:48:46.212Z</time></trkpt><trkpt lat="45.4282267" lon="10.514995"><ele>122.0</ele><time>2026-04-02T07:48:47.21Z</time></trkpt><trkpt lat="45.4281633" lon="10.5150683"><ele>122.0</ele><time>2026-04-02T07:48:48.204Z</time></trkpt><trkpt lat="45.4281083" lon="10.5151233"><ele>122.0</ele><time>2026-04-02T07:48:49.213Z</time></trkpt><trkpt lat="45.4280333" lon="10.5152033"><ele>121.99999999999999</ele><time>2026-04-02T07:48:51.204Z</time></trkpt><trkpt lat="45.4279783" lon="10.5152633"><ele>122.0</ele><time>2026-04-02T07:48:53.207Z</time></trkpt><trkpt lat="45.42791" lon="10.5153433"><ele>121.99999999999999</ele><time>2026-04-02T07:48:56.211Z</time></trkpt><trkpt lat="45.4279333" lon="10.5154933"><ele>122.0</ele><time>2026-04-02T07:53:44.21Z</time></trkpt><trkpt lat="45.4279667" lon="10.5156433"><ele>122.0</ele><time>2026-04-02T07:53:46.217Z</time></trkpt><trkpt lat="45.427985" lon="10.5157467"><ele>122.0</ele><time>2026-04-02T07:53:47.206Z</time></trkpt><trkpt lat="45.4279667" lon="10.515845"><ele>121.99999999999999</ele><time>2026-04-02T07:53:48.205Z</time></trkpt><trkpt lat="45.427925" lon="10.515925"><ele>122.0</ele><time>2026-04-02T07:53:49.205Z</time></trkpt><trkpt lat="45.4278483" lon="10.51597"><ele>122.0</ele><time>2026-04-02T07:53:50.212Z</time></trkpt><trkpt lat="45.4277583" lon="10.5159833"><ele>122.0</ele><time>2026-04-02T07:53:51.204Z</time></trkpt><trkpt lat="45.4276467" lon="10.5159583"><ele>122.0</ele><time>2026-04-02T07:53:52.202Z</time></trkpt><trkpt lat="45.4275333" lon="10.5159033"><ele>122.0</ele><time>2026-04-02T07:53:53.202Z</time></trkpt><trkpt lat="45.427405" lon="10.5158383"><ele>122.0</ele><time>2026-04-02T07:53:54.203Z</time></trkpt><trkpt lat="45.4273033" lon="10.515755"><ele>121.99999999999999</ele><time>2026-04-02T07:53:55.203Z</time></trkpt><trkpt lat="45.4272117" lon="10.515675"><ele>121.99999999999999</ele><time>2026-04-02T07:53:56.202Z</time></trkpt><trkpt lat="45.4271667" lon="10.5155517"><ele>122.0</ele><time>2026-04-02T07:53:57.203Z</time></trkpt><trkpt lat="45.4271183" lon="10.5154483"><ele>122.0</ele><time>2026-04-02T07:53:58.208Z</time></trkpt><trkpt lat="45.427055" lon="10.5153867"><ele>121.99999999999999</ele><time>2026-04-02T07:53:59.202Z</time></trkpt><trkpt lat="45.4269933" lon="10.5153667"><ele>122.0</ele><time>2026-04-02T07:54:00.2Z</time></trkpt><trkpt lat="45.4269283" lon="10.515415"><ele>121.99999999999999</ele><time>2026-04-02T07:54:01.205Z</time></trkpt><trkpt lat="45.4268633" lon="10.51547"><ele>121.99999999999999</ele><time>2026-04-02T07:54:02.204Z</time></trkpt><trkpt lat="45.4268083" lon="10.5155333"><ele>122.0</ele><time>2026-04-02T07:54:03.21Z</time></trkpt><trkpt lat="45.4267417" lon="10.5155817"><ele>121.99999999999999</ele><time>2026-04-02T07:54:04.207Z</time></trkpt><trkpt lat="45.426665" lon="10.5156033"><ele>121.99999999999999</ele><time>2026-04-02T07:54:05.206Z</time></trkpt><trkpt lat="45.4265783" lon="10.5156"><ele>122.0</ele><time>2026-04-02T07:54:06.209Z</time></trkpt><trkpt lat="45.42648" lon="10.515575"><ele>122.0</ele><time>2026-04-02T07:54:07.216Z</time></trkpt><trkpt lat="45.4263583" lon="10.5155317"><ele>122.0</ele><time>2026-04-02T07:54:08.202Z</time></trkpt><trkpt lat="45.426225" lon="10.515455"><ele>122.0</ele><time>2026-04-02T07:54:09.201Z</time></trkpt><trkpt lat="45.4260617" lon="10.51536"><ele>122.0</ele><time>2026-04-02T07:54:10.204Z</time></trkpt><trkpt lat="45.4258967" lon="10.51525"><ele>122.0</ele><time>2026-04-02T07:54:11.205Z</time></trkpt><trkpt lat="45.4257167" lon="10.51512"><ele>122.0</ele><time>2026-04-02T07:54:12.204Z</time></trkpt><trkpt lat="45.4255267" lon="10.514975"><ele>122.0</ele><time>2026-04-02T07:54:13.211Z</time></trkpt><trkpt lat="45.4253167" lon="10.514825"><ele>122.0</ele><time>2026-04-02T07:54:14.201Z</time></trkpt><trkpt lat="45.4250983" lon="10.5146717"><ele>121.5</ele><time>2026-04-02T07:54:15.207Z</time></trkpt><trkpt lat="45.4248733" lon="10.5144883"><ele>121.0</ele><time>2026-04-02T07:54:16.21Z</time></trkpt><trkpt lat="45.4246517" lon="10.5143083"><ele>120.5</ele><time>2026-04-02T07:54:17.218Z</time></trkpt><trkpt lat="45.424415" lon="10.5141133"><ele>120.0</ele><time>2026-04-02T07:54:18.208Z</time></trkpt><trkpt lat="45.42418" lon="10.513915"><ele>120.0</ele><time>2026-04-02T07:54:19.209Z</time></trkpt><trkpt lat="45.4239583" lon="10.5137117"><ele>120.0</ele><time>2026-04-02T07:54:20.205Z</time></trkpt><trkpt lat="45.4237617" lon="10.5135267"><ele>120.0</ele><time>2026-04-02T07:54:21.214Z</time></trkpt><trkpt lat="45.4235967" lon="10.5133533"><ele>120.0</ele><time>2026-04-02T07:54:22.206Z</time></trkpt><trkpt lat="45.4234133" lon="10.5131883"><ele>120.0</ele><time>2026-04-02T07:54:23.211Z</time></trkpt><trkpt lat="45.423235" lon="10.5130317"><ele>119.66666666666666</ele><time>2026-04-02T07:54:24.204Z</time></trkpt><trkpt lat="45.42305" lon="10.5128917"><ele>119.33333333333333</ele><time>2026-04-02T07:54:25.205Z</time></trkpt><trkpt lat="45.4228733" lon="10.512745"><ele>119.0</ele><time>2026-04-02T07:54:26.21Z</time></trkpt><trkpt lat="45.42271" lon="10.51261"><ele>120.0</ele><time>2026-04-02T07:54:27.202Z</time></trkpt><trkpt lat="45.4225517" lon="10.51249"><ele>121.0</ele><time>2026-04-02T07:54:28.205Z</time></trkpt><trkpt lat="45.4224067" lon="10.5123717"><ele>122.0</ele><time>2026-04-02T07:54:29.206Z</time></trkpt><trkpt lat="45.4222733" lon="10.51221"><ele>121.66666666666666</ele><time>2026-04-02T07:54:30.202Z</time></trkpt><trkpt lat="45.42215" lon="10.5120517"><ele>121.33333333333334</ele><time>2026-04-02T07:54:31.204Z</time></trkpt><trkpt lat="45.422035" lon="10.5118683"><ele>121.0</ele><time>2026-04-02T07:54:32.202Z</time></trkpt><trkpt lat="45.4219683" lon="10.51171"><ele>121.0</ele><time>2026-04-02T07:54:33.204Z</time></trkpt><trkpt lat="45.4219083" lon="10.5115683"><ele>121.0</ele><time>2026-04-02T07:54:34.202Z</time></trkpt><trkpt lat="45.421855" lon="10.5114383"><ele>121.0</ele><time>2026-04-02T07:54:35.213Z</time></trkpt><trkpt lat="45.421865" lon="10.51125"><ele>121.0</ele><time>2026-04-02T07:54:36.203Z</time></trkpt><trkpt lat="45.4218683" lon="10.5110983"><ele>120.83333333333334</ele><time>2026-04-02T07:54:37.209Z</time></trkpt><trkpt lat="45.4218617" lon="10.5109783"><ele>120.66666666666667</ele><time>2026-04-02T07:54:38.204Z</time></trkpt><trkpt lat="45.4218133" lon="10.5109133"><ele>120.5</ele><time>2026-04-02T07:54:39.208Z</time></trkpt><trkpt lat="45.4217567" lon="10.5108733"><ele>120.33333333333334</ele><time>2026-04-02T07:54:40.203Z</time></trkpt><trkpt lat="45.4216567" lon="10.5108033"><ele>120.16666666666667</ele><time>2026-04-02T07:54:42.203Z</time></trkpt><trkpt lat="45.4215967" lon="10.5107583"><ele>120.0</ele><time>2026-04-02T07:54:43.203Z</time></trkpt><trkpt lat="45.42153" lon="10.5107033"><ele>120.0</ele><time>2026-04-02T07:54:44.204Z</time></trkpt><trkpt lat="45.421455" lon="10.5106383"><ele>120.0</ele><time>2026-04-02T07:54:45.205Z</time></trkpt><trkpt lat="45.4213733" lon="10.5105683"><ele>120.0</ele><time>2026-04-02T07:54:46.205Z</time></trkpt><trkpt lat="45.4212683" lon="10.51053"><ele>120.0</ele><time>2026-04-02T07:54:47.207Z</time></trkpt><trkpt lat="45.42119" lon="10.5104733"><ele>120.0</ele><time>2026-04-02T07:54:48.205Z</time></trkpt><trkpt lat="45.42111" lon="10.510465"><ele>120.5</ele><time>2026-04-02T07:54:49.219Z</time></trkpt><trkpt lat="45.4209967" lon="10.51049"><ele>121.0</ele><time>2026-04-02T07:54:50.21Z</time></trkpt><trkpt lat="45.420895" lon="10.5105467"><ele>121.5</ele><time>2026-04-02T07:54:51.206Z</time></trkpt><trkpt lat="45.4207867" lon="10.510615"><ele>122.0</ele><time>2026-04-02T07:54:52.205Z</time></trkpt><trkpt lat="45.4206983" lon="10.5107183"><ele>122.0</ele><time>2026-04-02T07:54:53.208Z</time></trkpt><trkpt lat="45.4206417" lon="10.5108417"><ele>122.0</ele><time>2026-04-02T07:54:54.207Z</time></trkpt><trkpt lat="45.42058" lon="10.5109633"><ele>122.0</ele><time>2026-04-02T07:54:55.204Z</time></trkpt><trkpt lat="45.4205733" lon="10.5111467"><ele>122.0</ele><time>2026-04-02T07:54:56.203Z</time></trkpt><trkpt lat="45.4205567" lon="10.51133"><ele>121.8</ele><time>2026-04-02T07:54:57.203Z</time></trkpt><trkpt lat="45.420545" lon="10.5114767"><ele>121.6</ele><time>2026-04-02T07:54:58.207Z</time></trkpt><trkpt lat="45.420585" lon="10.5116033"><ele>121.39999999999999</ele><time>2026-04-02T07:54:59.207Z</time></trkpt><trkpt lat="45.4206617" lon="10.51174"><ele>121.19999999999999</ele><time>2026-04-02T07:55:00.214Z</time></trkpt><trkpt lat="45.4207367" lon="10.511855"><ele>121.0</ele><time>2026-04-02T07:55:01.207Z</time></trkpt><trkpt lat="45.4207767" lon="10.5119817"><ele>121.00000000000001</ele><time>2026-04-02T07:55:02.206Z</time></trkpt><trkpt lat="45.420805" lon="10.51207"><ele>121.0</ele><time>2026-04-02T07:55:03.208Z</time></trkpt><trkpt lat="45.4208067" lon="10.5121617"><ele>121.0</ele><time>2026-04-02T07:55:04.212Z</time></trkpt><trkpt lat="45.4207883" lon="10.5122483"><ele>121.0</ele><time>2026-04-02T07:55:05.263Z</time></trkpt><trkpt lat="45.42068" lon="10.5122983"><ele>121.00000000000001</ele><time>2026-04-02T07:55:07.208Z</time></trkpt><trkpt lat="45.4206" lon="10.512315"><ele>121.0</ele><time>2026-04-02T07:55:08.207Z</time></trkpt><trkpt lat="45.4204967" lon="10.5123433"><ele>121.0</ele><time>2026-04-02T07:55:09.207Z</time></trkpt><trkpt lat="45.42035" lon="10.5123883"><ele>121.0</ele><time>2026-04-02T07:55:10.211Z</time></trkpt><trkpt lat="45.4202" lon="10.5124567"><ele>121.0</ele><time>2026-04-02T07:55:11.211Z</time></trkpt><trkpt lat="45.4200167" lon="10.5125033"><ele>121.0</ele><time>2026-04-02T07:55:12.206Z</time></trkpt><trkpt lat="45.4198383" lon="10.5125817"><ele>121.0</ele><time>2026-04-02T07:55:13.212Z</time></trkpt><trkpt lat="45.41964" lon="10.5126467"><ele>121.0</ele><time>2026-04-02T07:55:14.207Z</time></trkpt><trkpt lat="45.4194267" lon="10.5127067"><ele>121.5</ele><time>2026-04-02T07:55:15.203Z</time></trkpt><trkpt lat="45.4191817" lon="10.512735"><ele>122.0</ele><time>2026-04-02T07:55:16.201Z</time></trkpt><trkpt lat="45.41894" lon="10.512765"><ele>119.5</ele><time>2026-04-02T07:55:17.211Z</time></trkpt><trkpt lat="45.41868" lon="10.5127917"><ele>117.0</ele><time>2026-04-02T07:55:18.213Z</time></trkpt><trkpt lat="45.4184033" lon="10.5128117"><ele>117.0</ele><time>2026-04-02T07:55:19.219Z</time></trkpt><trkpt lat="45.4181233" lon="10.5128383"><ele>117.0</ele><time>2026-04-02T07:55:20.206Z</time></trkpt><trkpt lat="45.4178367" lon="10.5128383"><ele>116.0</ele><time>2026-04-02T07:55:21.216Z</time></trkpt><trkpt lat="45.4175533" lon="10.5128517"><ele>115.0</ele><time>2026-04-02T07:55:22.201Z</time></trkpt><trkpt lat="45.4172733" lon="10.51287"><ele>115.5</ele><time>2026-04-02T07:55:23.211Z</time></trkpt><trkpt lat="45.417005" lon="10.5128767"><ele>116.0</ele><time>2026-04-02T07:55:24.21Z</time></trkpt><trkpt lat="45.4167683" lon="10.5128717"><ele>116.0</ele><time>2026-04-02T07:55:25.204Z</time></trkpt><trkpt lat="45.4165467" lon="10.5128983"><ele>116.0</ele><time>2026-04-02T07:55:26.218Z</time></trkpt><trkpt lat="45.4163467" lon="10.51291"><ele>116.0</ele><time>2026-04-02T07:55:27.211Z</time></trkpt><trkpt lat="45.4161567" lon="10.5129317"><ele>116.0</ele><time>2026-04-02T07:55:28.205Z</time></trkpt><trkpt lat="45.415985" lon="10.5129433"><ele>116.0</ele><time>2026-04-02T07:55:29.211Z</time></trkpt><trkpt lat="45.41581" lon="10.5129633"><ele>116.0</ele><time>2026-04-02T07:55:30.216Z</time></trkpt><trkpt lat="45.4156267" lon="10.5129917"><ele>116.0</ele><time>2026-04-02T07:55:31.205Z</time></trkpt><trkpt lat="45.4154883" lon="10.5129583"><ele>116.0</ele><time>2026-04-02T07:55:32.211Z</time></trkpt><trkpt lat="45.4153467" lon="10.5129367"><ele>116.0</ele><time>2026-04-02T07:55:33.213Z</time></trkpt><trkpt lat="45.4152067" lon="10.5129367"><ele>116.0</ele><time>2026-04-02T07:55:34.215Z</time></trkpt><trkpt lat="45.415085" lon="10.512905"><ele>115.83333333333333</ele><time>2026-04-02T07:55:35.204Z</time></trkpt><trkpt lat="45.4150133" lon="10.5129017"><ele>115.66666666666666</ele><time>2026-04-02T07:55:36.214Z</time></trkpt><trkpt lat="45.4149467" lon="10.51289"><ele>115.5</ele><time>2026-04-02T07:55:38.206Z</time></trkpt><trkpt lat="45.414925" lon="10.5130033"><ele>115.33333333333334</ele><time>2026-04-02T07:55:41.204Z</time></trkpt><trkpt lat="45.41492" lon="10.5131167"><ele>115.16666666666667</ele><time>2026-04-02T07:55:43.211Z</time></trkpt><trkpt lat="45.4149117" lon="10.513215"><ele>115.0</ele><time>2026-04-02T07:55:45.209Z</time></trkpt><trkpt lat="45.414915" lon="10.5133367"><ele>115.16666666666667</ele><time>2026-04-02T07:56:07.206Z</time></trkpt><trkpt lat="45.414915" lon="10.5134367"><ele>115.33333333333334</ele><time>2026-04-02T07:56:08.207Z</time></trkpt><trkpt lat="45.414915" lon="10.5135533"><ele>115.5</ele><time>2026-04-02T07:56:09.204Z</time></trkpt><trkpt lat="45.4149133" lon="10.51367"><ele>115.66666666666666</ele><time>2026-04-02T07:56:10.202Z</time></trkpt><trkpt lat="45.4149083" lon="10.5137733"><ele>115.83333333333333</ele><time>2026-04-02T07:56:11.21Z</time></trkpt><trkpt lat="45.414895" lon="10.5138633"><ele>116.0</ele><time>2026-04-02T07:56:12.212Z</time></trkpt><trkpt lat="45.4148133" lon="10.5139767"><ele>116.0</ele><time>2026-04-02T07:56:14.219Z</time></trkpt><trkpt lat="45.4147417" lon="10.5140033"><ele>116.0</ele><time>2026-04-02T07:56:15.209Z</time></trkpt><trkpt lat="45.4146333" lon="10.5140067"><ele>116.0</ele><time>2026-04-02T07:56:16.208Z</time></trkpt><trkpt lat="45.4145067" lon="10.5139967"><ele>116.0</ele><time>2026-04-02T07:56:17.209Z</time></trkpt><trkpt lat="45.4143833" lon="10.51399"><ele>116.0</ele><time>2026-04-02T07:56:18.208Z</time></trkpt><trkpt lat="45.414265" lon="10.514"><ele>116.0</ele><time>2026-04-02T07:56:19.206Z</time></trkpt><trkpt lat="45.41414" lon="10.5140483"><ele>116.0</ele><time>2026-04-02T07:56:20.205Z</time></trkpt><trkpt lat="45.4140183" lon="10.5141267"><ele>116.0</ele><time>2026-04-02T07:56:21.214Z</time></trkpt><trkpt lat="45.4138933" lon="10.5141967"><ele>116.0</ele><time>2026-04-02T07:56:22.202Z</time></trkpt><trkpt lat="45.4137617" lon="10.5142533"><ele>116.0</ele><time>2026-04-02T07:56:23.208Z</time></trkpt><trkpt lat="45.4136367" lon="10.5142767"><ele>116.0</ele><time>2026-04-02T07:56:24.207Z</time></trkpt><trkpt lat="45.4135417" lon="10.51432"><ele>116.0</ele><time>2026-04-02T07:56:25.215Z</time></trkpt><trkpt lat="45.4134483" lon="10.5144633"><ele>116.0</ele><time>2026-04-02T07:56:27.213Z</time></trkpt><trkpt lat="45.4133917" lon="10.514575"><ele>116.0</ele><time>2026-04-02T07:56:28.206Z</time></trkpt><trkpt lat="45.4133383" lon="10.51473"><ele>116.0</ele><time>2026-04-02T07:56:29.204Z</time></trkpt><trkpt lat="45.413295" lon="10.5149283"><ele>116.0</ele><time>2026-04-02T07:56:30.209Z</time></trkpt><trkpt lat="45.4132733" lon="10.51512"><ele>116.0</ele><time>2026-04-02T07:56:31.209Z</time></trkpt><trkpt lat="45.413225" lon="10.5153433"><ele>116.0</ele><time>2026-04-02T07:56:32.203Z</time></trkpt><trkpt lat="45.4131733" lon="10.5155767"><ele>116.0</ele><time>2026-04-02T07:56:33.207Z</time></trkpt><trkpt lat="45.413105" lon="10.5158033"><ele>116.0</ele><time>2026-04-02T07:56:34.209Z</time></trkpt><trkpt lat="45.413045" lon="10.5160283"><ele>115.33333333333333</ele><time>2026-04-02T07:56:35.203Z</time></trkpt><trkpt lat="45.4129617" lon="10.5162533"><ele>114.66666666666666</ele><time>2026-04-02T07:56:36.211Z</time></trkpt><trkpt lat="45.4128683" lon="10.516485"><ele>114.0</ele><time>2026-04-02T07:56:37.212Z</time></trkpt><trkpt lat="45.412785" lon="10.5167217"><ele>114.0</ele><time>2026-04-02T07:56:38.215Z</time></trkpt><trkpt lat="45.4126967" lon="10.5169567"><ele>114.0</ele><time>2026-04-02T07:56:39.223Z</time></trkpt><trkpt lat="45.41263" lon="10.5171667"><ele>114.0</ele><time>2026-04-02T07:56:40.208Z</time></trkpt><trkpt lat="45.4125467" lon="10.5173617"><ele>114.0</ele><time>2026-04-02T07:56:41.205Z</time></trkpt><trkpt lat="45.4124583" lon="10.5175467"><ele>114.0</ele><time>2026-04-02T07:56:42.204Z</time></trkpt><trkpt lat="45.4123467" lon="10.5177117"><ele>114.0</ele><time>2026-04-02T07:56:43.21Z</time></trkpt><trkpt lat="45.4121983" lon="10.5178467"><ele>115.66666666666666</ele><time>2026-04-02T07:56:44.215Z</time></trkpt><trkpt lat="45.4120567" lon="10.5179983"><ele>117.33333333333333</ele><time>2026-04-02T07:56:45.21Z</time></trkpt><trkpt lat="45.4119267" lon="10.5181633"><ele>119.0</ele><time>2026-04-02T07:56:46.205Z</time></trkpt><trkpt lat="45.4118017" lon="10.5183667"><ele>119.0</ele><time>2026-04-02T07:56:47.215Z</time></trkpt><trkpt lat="45.4116617" lon="10.51864"><ele>119.0</ele><time>2026-04-02T07:56:48.21Z</time></trkpt><trkpt lat="45.4115967" lon="10.51882"><ele>119.0</ele><time>2026-04-02T07:56:49.212Z</time></trkpt><trkpt lat="45.4115" lon="10.5189917"><ele>119.0</ele><time>2026-04-02T07:56:50.211Z</time></trkpt><trkpt lat="45.4114217" lon="10.5191233"><ele>119.0</ele><time>2026-04-02T07:56:51.207Z</time></trkpt><trkpt lat="45.411375" lon="10.5191983"><ele>119.0</ele><time>2026-04-02T07:56:52.206Z</time></trkpt><trkpt lat="45.4113433" lon="10.51936"><ele>119.0</ele><time>2026-04-02T07:56:54.203Z</time></trkpt><trkpt lat="45.4113617" lon="10.519455"><ele>119.0</ele><time>2026-04-02T07:56:55.208Z</time></trkpt><trkpt lat="45.4114233" lon="10.519545"><ele>118.6</ele><time>2026-04-02T07:56:56.209Z</time></trkpt><trkpt lat="45.411485" lon="10.5196417"><ele>118.2</ele><time>2026-04-02T07:56:57.208Z</time></trkpt><trkpt lat="45.411525" lon="10.51977"><ele>117.79999999999998</ele><time>2026-04-02T07:56:58.206Z</time></trkpt><trkpt lat="45.41156" lon="10.51992"><ele>117.39999999999999</ele><time>2026-04-02T07:56:59.209Z</time></trkpt><trkpt lat="45.41155" lon="10.5201233"><ele>117.0</ele><time>2026-04-02T07:57:00.21Z</time></trkpt><trkpt lat="45.4115367" lon="10.520315"><ele>116.8</ele><time>2026-04-02T07:57:01.208Z</time></trkpt><trkpt lat="45.4115283" lon="10.5204983"><ele>116.6</ele><time>2026-04-02T07:57:02.205Z</time></trkpt><trkpt lat="45.4115467" lon="10.5206583"><ele>116.39999999999999</ele><time>2026-04-02T07:57:03.212Z</time></trkpt><trkpt lat="45.411565" lon="10.5207983"><ele>116.19999999999999</ele><time>2026-04-02T07:57:04.206Z</time></trkpt><trkpt lat="45.4116133" lon="10.5209267"><ele>116.0</ele><time>2026-04-02T07:57:05.206Z</time></trkpt><trkpt lat="45.411695" lon="10.52102"><ele>116.0</ele><time>2026-04-02T07:57:06.209Z</time></trkpt><trkpt lat="45.4118017" lon="10.5211033"><ele>116.0</ele><time>2026-04-02T07:57:07.207Z</time></trkpt><trkpt lat="45.4119067" lon="10.5211817"><ele>116.0</ele><time>2026-04-02T07:57:08.205Z</time></trkpt><trkpt lat="45.412005" lon="10.5212417"><ele>116.0</ele><time>2026-04-02T07:57:09.207Z</time></trkpt><trkpt lat="45.4120783" lon="10.5212917"><ele>116.0</ele><time>2026-04-02T07:57:10.211Z</time></trkpt><trkpt lat="45.4121383" lon="10.5213667"><ele>116.19999999999999</ele><time>2026-04-02T07:57:11.218Z</time></trkpt><trkpt lat="45.4121767" lon="10.5214717"><ele>116.39999999999999</ele><time>2026-04-02T07:57:12.21Z</time></trkpt><trkpt lat="45.4121817" lon="10.5216083"><ele>116.6</ele><time>2026-04-02T07:57:13.21Z</time></trkpt><trkpt lat="45.4121667" lon="10.521765"><ele>116.8</ele><time>2026-04-02T07:57:14.207Z</time></trkpt><trkpt lat="45.412135" lon="10.5219"><ele>117.0</ele><time>2026-04-02T07:57:15.225Z</time></trkpt><trkpt lat="45.4120933" lon="10.5219967"><ele>117.0</ele><time>2026-04-02T07:57:16.21Z</time></trkpt><trkpt lat="45.4120433" lon="10.5220867"><ele>116.99999999999999</ele><time>2026-04-02T07:57:17.211Z</time></trkpt><trkpt lat="45.4119517" lon="10.5221867"><ele>116.99999999999999</ele><time>2026-04-02T07:57:19.218Z</time></trkpt><trkpt lat="45.41188" lon="10.5221633"><ele>117.0</ele><time>2026-04-02T07:57:20.203Z</time></trkpt><trkpt lat="45.4118" lon="10.5221183"><ele>117.0</ele><time>2026-04-02T07:57:21.208Z</time></trkpt><trkpt lat="45.4117033" lon="10.5220583"><ele>117.0</ele><time>2026-04-02T07:57:22.22Z</time></trkpt><trkpt lat="45.4115833" lon="10.5219933"><ele>117.0</ele><time>2026-04-02T07:57:23.204Z</time></trkpt><trkpt lat="45.4114617" lon="10.5219567"><ele>117.0</ele><time>2026-04-02T07:57:24.206Z</time></trkpt><trkpt lat="45.4113217" lon="10.5219417"><ele>117.0</ele><time>2026-04-02T07:57:25.21Z</time></trkpt><trkpt lat="45.4111917" lon="10.5219533"><ele>117.0</ele><time>2026-04-02T07:57:26.209Z</time></trkpt><trkpt lat="45.4110533" lon="10.5219633"><ele>117.0</ele><time>2026-04-02T07:57:27.206Z</time></trkpt><trkpt lat="45.4108917" lon="10.5220183"><ele>117.0</ele><time>2026-04-02T07:57:28.204Z</time></trkpt><trkpt lat="45.410715" lon="10.5220817"><ele>117.0</ele><time>2026-04-02T07:57:29.214Z</time></trkpt><trkpt lat="45.41053" lon="10.522155"><ele>117.0</ele><time>2026-04-02T07:57:30.209Z</time></trkpt><trkpt lat="45.410345" lon="10.5222383"><ele>117.0</ele><time>2026-04-02T07:57:31.211Z</time></trkpt><trkpt lat="45.4101633" lon="10.5223217"><ele>118.0</ele><time>2026-04-02T07:57:32.217Z</time></trkpt><trkpt lat="45.4099767" lon="10.5224017"><ele>119.0</ele><time>2026-04-02T07:57:33.206Z</time></trkpt><trkpt lat="45.4097967" lon="10.5224783"><ele>120.0</ele><time>2026-04-02T07:57:34.205Z</time></trkpt><trkpt lat="45.4096233" lon="10.52255"><ele>121.25</ele><time>2026-04-02T07:57:35.216Z</time></trkpt><trkpt lat="45.409465" lon="10.5226217"><ele>122.5</ele><time>2026-04-02T07:57:36.21Z</time></trkpt><trkpt lat="45.4093433" lon="10.5226817"><ele>123.75</ele><time>2026-04-02T07:57:37.206Z</time></trkpt><trkpt lat="45.4092067" lon="10.5227367"><ele>125.0</ele><time>2026-04-02T07:57:38.206Z</time></trkpt><trkpt lat="45.40907" lon="10.5227733"><ele>125.0</ele><time>2026-04-02T07:57:39.207Z</time></trkpt><trkpt lat="45.40893" lon="10.5228217"><ele>125.0</ele><time>2026-04-02T07:57:40.209Z</time></trkpt><trkpt lat="45.40879" lon="10.5228917"><ele>125.0</ele><time>2026-04-02T07:57:41.209Z</time></trkpt><trkpt lat="45.4086683" lon="10.52294"><ele>125.0</ele><time>2026-04-02T07:57:42.205Z</time></trkpt><trkpt lat="45.4085583" lon="10.5229733"><ele>125.4</ele><time>2026-04-02T07:57:43.204Z</time></trkpt><trkpt lat="45.408465" lon="10.5229783"><ele>125.8</ele><time>2026-04-02T07:57:44.204Z</time></trkpt><trkpt lat="45.40838" lon="10.523035"><ele>126.19999999999999</ele><time>2026-04-02T07:57:45.202Z</time></trkpt><trkpt lat="45.4082917" lon="10.5230717"><ele>126.6</ele><time>2026-04-02T07:57:46.202Z</time></trkpt><trkpt lat="45.40819" lon="10.5231467"><ele>127.0</ele><time>2026-04-02T07:57:47.208Z</time></trkpt><trkpt lat="45.4080917" lon="10.52323"><ele>127.66666666666667</ele><time>2026-04-02T07:57:48.209Z</time></trkpt><trkpt lat="45.407975" lon="10.523395"><ele>128.33333333333334</ele><time>2026-04-02T07:57:49.205Z</time></trkpt><trkpt lat="45.4078433" lon="10.5234867"><ele>129.0</ele><time>2026-04-02T07:57:50.206Z</time></trkpt><trkpt lat="45.4076983" lon="10.5235983"><ele>129.0</ele><time>2026-04-02T07:57:51.209Z</time></trkpt><trkpt lat="45.4075733" lon="10.5237017"><ele>129.0</ele><time>2026-04-02T07:57:52.204Z</time></trkpt><trkpt lat="45.4074233" lon="10.5238033"><ele>129.0</ele><time>2026-04-02T07:57:53.209Z</time></trkpt><trkpt lat="45.4072667" lon="10.523915"><ele>130.66666666666666</ele><time>2026-04-02T07:57:54.208Z</time></trkpt><trkpt lat="45.40712" lon="10.524035"><ele>132.33333333333331</ele><time>2026-04-02T07:57:55.206Z</time></trkpt><trkpt lat="45.40699" lon="10.5241683"><ele>134.0</ele><time>2026-04-02T07:57:56.202Z</time></trkpt><trkpt lat="45.406865" lon="10.5242133"><ele>134.0</ele><time>2026-04-02T07:57:57.217Z</time></trkpt><trkpt lat="45.4067467" lon="10.5242933"><ele>134.0</ele><time>2026-04-02T07:57:58.209Z</time></trkpt><trkpt lat="45.40665" lon="10.524365"><ele>134.0</ele><time>2026-04-02T07:57:59.206Z</time></trkpt><trkpt lat="45.4065533" lon="10.5244317"><ele>134.0</ele><time>2026-04-02T07:58:00.208Z</time></trkpt><trkpt lat="45.406465" lon="10.524505"><ele>134.0</ele><time>2026-04-02T07:58:01.206Z</time></trkpt><trkpt lat="45.4063717" lon="10.5245883"><ele>134.0</ele><time>2026-04-02T07:58:02.204Z</time></trkpt><trkpt lat="45.4062967" lon="10.5246967"><ele>134.0</ele><time>2026-04-02T07:58:03.211Z</time></trkpt><trkpt lat="45.406195" lon="10.5248283"><ele>134.0</ele><time>2026-04-02T07:58:04.203Z</time></trkpt><trkpt lat="45.4060783" lon="10.5249583"><ele>133.0</ele><time>2026-04-02T07:58:05.206Z</time></trkpt><trkpt lat="45.405965" lon="10.525115"><ele>132.0</ele><time>2026-04-02T07:58:06.213Z</time></trkpt><trkpt lat="45.4058467" lon="10.5252883"><ele>131.0</ele><time>2026-04-02T07:58:07.208Z</time></trkpt><trkpt lat="45.4057317" lon="10.5254317"><ele>131.0</ele><time>2026-04-02T07:58:08.204Z</time></trkpt><trkpt lat="45.4056233" lon="10.52558"><ele>131.0</ele><time>2026-04-02T07:58:09.203Z</time></trkpt><trkpt lat="45.405515" lon="10.5257133"><ele>131.0</ele><time>2026-04-02T07:58:10.207Z</time></trkpt><trkpt lat="45.4054" lon="10.5258617"><ele>131.0</ele><time>2026-04-02T07:58:11.207Z</time></trkpt><trkpt lat="45.4052883" lon="10.526"><ele>131.33333333333331</ele><time>2026-04-02T07:58:12.208Z</time></trkpt><trkpt lat="45.4051667" lon="10.5261417"><ele>131.66666666666666</ele><time>2026-04-02T07:58:13.212Z</time></trkpt><trkpt lat="45.4050867" lon="10.5263383"><ele>132.0</ele><time>2026-04-02T07:58:14.206Z</time></trkpt><trkpt lat="45.40497" lon="10.5265"><ele>132.0</ele><time>2026-04-02T07:58:15.206Z</time></trkpt><trkpt lat="45.40485" lon="10.5266767"><ele>132.0</ele><time>2026-04-02T07:58:16.204Z</time></trkpt><trkpt lat="45.4047133" lon="10.5268567"><ele>132.0</ele><time>2026-04-02T07:58:17.211Z</time></trkpt><trkpt lat="45.4045633" lon="10.527045"><ele>132.33333333333334</ele><time>2026-04-02T07:58:18.209Z</time></trkpt><trkpt lat="45.4044217" lon="10.5272333"><ele>132.66666666666669</ele><time>2026-04-02T07:58:19.208Z</time></trkpt><trkpt lat="45.40431" lon="10.5273867"><ele>133.0</ele><time>2026-04-02T07:58:20.207Z</time></trkpt><trkpt lat="45.404195" lon="10.5275183"><ele>133.0</ele><time>2026-04-02T07:58:21.207Z</time></trkpt><trkpt lat="45.404105" lon="10.527635"><ele>133.0</ele><time>2026-04-02T07:58:22.205Z</time></trkpt><trkpt lat="45.40402" lon="10.527715"><ele>133.0</ele><time>2026-04-02T07:58:23.208Z</time></trkpt><trkpt lat="45.40392" lon="10.5277567"><ele>133.0</ele><time>2026-04-02T07:58:24.206Z</time></trkpt><trkpt lat="45.4037967" lon="10.52779"><ele>133.5</ele><time>2026-04-02T07:58:25.206Z</time></trkpt><trkpt lat="45.403655" lon="10.52779"><ele>134.0</ele><time>2026-04-02T07:58:26.205Z</time></trkpt><trkpt lat="45.403515" lon="10.5278017"><ele>134.5</ele><time>2026-04-02T07:58:27.204Z</time></trkpt><trkpt lat="45.403355" lon="10.5278083"><ele>135.0</ele><time>2026-04-02T07:58:28.203Z</time></trkpt><trkpt lat="45.4031867" lon="10.5278533"><ele>135.0</ele><time>2026-04-02T07:58:29.219Z</time></trkpt><trkpt lat="45.4030433" lon="10.5278867"><ele>135.0</ele><time>2026-04-02T07:58:30.217Z</time></trkpt><trkpt lat="45.40293" lon="10.5279067"><ele>135.0</ele><time>2026-04-02T07:58:31.209Z</time></trkpt><trkpt lat="45.4028083" lon="10.527965"><ele>135.0</ele><time>2026-04-02T07:58:32.205Z</time></trkpt><trkpt lat="45.40268" lon="10.5280333"><ele>136.0</ele><time>2026-04-02T07:58:33.207Z</time></trkpt><trkpt lat="45.402545" lon="10.528115"><ele>137.0</ele><time>2026-04-02T07:58:34.203Z</time></trkpt><trkpt lat="45.4024117" lon="10.52822"><ele>138.0</ele><time>2026-04-02T07:58:35.209Z</time></trkpt><trkpt lat="45.402275" lon="10.5283117"><ele>138.0</ele><time>2026-04-02T07:58:36.204Z</time></trkpt><trkpt lat="45.4021367" lon="10.52845"><ele>138.0</ele><time>2026-04-02T07:58:37.205Z</time></trkpt><trkpt lat="45.4019917" lon="10.5286033"><ele>138.0</ele><time>2026-04-02T07:58:38.206Z</time></trkpt><trkpt lat="45.401835" lon="10.5287483"><ele>137.66666666666666</ele><time>2026-04-02T07:58:39.206Z</time></trkpt><trkpt lat="45.4016817" lon="10.528875"><ele>137.33333333333331</ele><time>2026-04-02T07:58:40.205Z</time></trkpt><trkpt lat="45.4015267" lon="10.529"><ele>137.0</ele><time>2026-04-02T07:58:41.203Z</time></trkpt><trkpt lat="45.4013683" lon="10.529125"><ele>136.66666666666666</ele><time>2026-04-02T07:58:42.215Z</time></trkpt><trkpt lat="45.40119" lon="10.5292367"><ele>136.33333333333334</ele><time>2026-04-02T07:58:43.208Z</time></trkpt><trkpt lat="45.4010167" lon="10.5293917"><ele>136.0</ele><time>2026-04-02T07:58:44.206Z</time></trkpt><trkpt lat="45.4008633" lon="10.52953"><ele>135.66666666666669</ele><time>2026-04-02T07:58:45.211Z</time></trkpt><trkpt lat="45.4007067" lon="10.5296733"><ele>135.33333333333334</ele><time>2026-04-02T07:58:46.208Z</time></trkpt><trkpt lat="45.4005367" lon="10.5298167"><ele>135.0</ele><time>2026-04-02T07:58:47.206Z</time></trkpt><trkpt lat="45.4003883" lon="10.5299483"><ele>135.5</ele><time>2026-04-02T07:58:48.214Z</time></trkpt><trkpt lat="45.400245" lon="10.5300717"><ele>136.0</ele><time>2026-04-02T07:58:49.226Z</time></trkpt><trkpt lat="45.4001167" lon="10.5301717"><ele>136.5</ele><time>2026-04-02T07:58:50.224Z</time></trkpt><trkpt lat="45.4000117" lon="10.53028"><ele>137.0</ele><time>2026-04-02T07:58:51.207Z</time></trkpt><trkpt lat="45.3999333" lon="10.5303717"><ele>136.75</ele><time>2026-04-02T07:58:52.209Z</time></trkpt><trkpt lat="45.3998417" lon="10.5304733"><ele>136.5</ele><time>2026-04-02T07:58:53.205Z</time></trkpt><trkpt lat="45.3997283" lon="10.5305817"><ele>136.25</ele><time>2026-04-02T07:58:54.211Z</time></trkpt><trkpt lat="45.399615" lon="10.5307417"><ele>136.0</ele><time>2026-04-02T07:58:55.206Z</time></trkpt><trkpt lat="45.399525" lon="10.5308633"><ele>135.0</ele><time>2026-04-02T07:58:56.21Z</time></trkpt><trkpt lat="45.399445" lon="10.5309833"><ele>134.0</ele><time>2026-04-02T07:58:57.213Z</time></trkpt><trkpt lat="45.3993617" lon="10.53108"><ele>133.0</ele><time>2026-04-02T07:58:58.208Z</time></trkpt><trkpt lat="45.3992983" lon="10.531185"><ele>132.0</ele><time>2026-04-02T07:58:59.202Z</time></trkpt><trkpt lat="45.3992133" lon="10.5313433"><ele>132.0</ele><time>2026-04-02T07:59:00.209Z</time></trkpt><trkpt lat="45.3991267" lon="10.5315233"><ele>132.0</ele><time>2026-04-02T07:59:01.202Z</time></trkpt><trkpt lat="45.3990483" lon="10.53169"><ele>132.0</ele><time>2026-04-02T07:59:02.201Z</time></trkpt><trkpt lat="45.39896" lon="10.531845"><ele>132.0</ele><time>2026-04-02T07:59:03.208Z</time></trkpt><trkpt lat="45.3988517" lon="10.53198"><ele>131.0</ele><time>2026-04-02T07:59:04.206Z</time></trkpt><trkpt lat="45.3987317" lon="10.5321183"><ele>130.0</ele><time>2026-04-02T07:59:05.207Z</time></trkpt><trkpt lat="45.3986433" lon="10.5322233"><ele>129.0</ele><time>2026-04-02T07:59:06.205Z</time></trkpt><trkpt lat="45.39856" lon="10.53233"><ele>128.0</ele><time>2026-04-02T07:59:07.206Z</time></trkpt><trkpt lat="45.3984833" lon="10.5324233"><ele>128.0</ele><time>2026-04-02T07:59:08.203Z</time></trkpt><trkpt lat="45.3984267" lon="10.5324967"><ele>128.0</ele><time>2026-04-02T07:59:09.204Z</time></trkpt><trkpt lat="45.39838" lon="10.5325617"><ele>128.0</ele><time>2026-04-02T07:59:10.207Z</time></trkpt><trkpt lat="45.398315" lon="10.5326633"><ele>128.0</ele><time>2026-04-02T07:59:12.203Z</time></trkpt><trkpt lat="45.3983133" lon="10.5327867"><ele>128.0</ele><time>2026-04-02T07:59:14.206Z</time></trkpt><trkpt lat="45.398375" lon="10.5329583"><ele>128.0</ele><time>2026-04-02T07:59:16.208Z</time></trkpt><trkpt lat="45.3984417" lon="10.5330717"><ele>128.0</ele><time>2026-04-02T07:59:17.204Z</time></trkpt><trkpt lat="45.3985067" lon="10.5331983"><ele>128.0</ele><time>2026-04-02T07:59:18.211Z</time></trkpt><trkpt lat="45.39857" lon="10.5333683"><ele>128.0</ele><time>2026-04-02T07:59:19.205Z</time></trkpt><trkpt lat="45.39862" lon="10.5335683"><ele>127.75</ele><time>2026-04-02T07:59:20.203Z</time></trkpt><trkpt lat="45.398675" lon="10.53379"><ele>127.5</ele><time>2026-04-02T07:59:21.202Z</time></trkpt><trkpt lat="45.3987433" lon="10.5339433"><ele>127.25</ele><time>2026-04-02T07:59:22.201Z</time></trkpt><trkpt lat="45.398835" lon="10.53408"><ele>127.0</ele><time>2026-04-02T07:59:23.206Z</time></trkpt><trkpt lat="45.3989533" lon="10.5342167"><ele>127.0</ele><time>2026-04-02T07:59:24.201Z</time></trkpt><trkpt lat="45.39908" lon="10.5343517"><ele>127.0</ele><time>2026-04-02T07:59:25.202Z</time></trkpt><trkpt lat="45.3991917" lon="10.5344867"><ele>127.0</ele><time>2026-04-02T07:59:26.206Z</time></trkpt><trkpt lat="45.39928" lon="10.5346167"><ele>127.0</ele><time>2026-04-02T07:59:27.205Z</time></trkpt><trkpt lat="45.39936" lon="10.5347783"><ele>128.0</ele><time>2026-04-02T07:59:28.202Z</time></trkpt><trkpt lat="45.3994183" lon="10.5349383"><ele>129.0</ele><time>2026-04-02T07:59:29.21Z</time></trkpt><trkpt lat="45.3994483" lon="10.5351217"><ele>130.0</ele><time>2026-04-02T07:59:30.208Z</time></trkpt><trkpt lat="45.3994883" lon="10.535275"><ele>131.0</ele><time>2026-04-02T07:59:31.2Z</time></trkpt><trkpt lat="45.399495" lon="10.5354567"><ele>131.0</ele><time>2026-04-02T07:59:32.209Z</time></trkpt><trkpt lat="45.3994867" lon="10.535645"><ele>131.0</ele><time>2026-04-02T07:59:33.207Z</time></trkpt><trkpt lat="45.39948" lon="10.5358467"><ele>131.0</ele><time>2026-04-02T07:59:34.201Z</time></trkpt><trkpt lat="45.3994533" lon="10.536085"><ele>131.0</ele><time>2026-04-02T07:59:35.205Z</time></trkpt><trkpt lat="45.399435" lon="10.5363317"><ele>130.0</ele><time>2026-04-02T07:59:36.206Z</time></trkpt><trkpt lat="45.3994183" lon="10.536585"><ele>129.0</ele><time>2026-04-02T07:59:37.208Z</time></trkpt><trkpt lat="45.3993933" lon="10.5368333"><ele>128.0</ele><time>2026-04-02T07:59:38.203Z</time></trkpt><trkpt lat="45.399375" lon="10.53706"><ele>126.66666666666666</ele><time>2026-04-02T07:59:39.208Z</time></trkpt><trkpt lat="45.3993683" lon="10.5372817"><ele>125.33333333333334</ele><time>2026-04-02T07:59:40.199Z</time></trkpt><trkpt lat="45.3993383" lon="10.5374983"><ele>124.0</ele><time>2026-04-02T07:59:41.206Z</time></trkpt><trkpt lat="45.3992767" lon="10.5377333"><ele>123.0</ele><time>2026-04-02T07:59:42.231Z</time></trkpt><trkpt lat="45.3992067" lon="10.5379833"><ele>122.0</ele><time>2026-04-02T07:59:43.209Z</time></trkpt><trkpt lat="45.3991533" lon="10.5381967"><ele>121.0</ele><time>2026-04-02T07:59:44.212Z</time></trkpt><trkpt lat="45.3991233" lon="10.5384083"><ele>121.0</ele><time>2026-04-02T07:59:45.203Z</time></trkpt><trkpt lat="45.3990933" lon="10.538625"><ele>121.0</ele><time>2026-04-02T07:59:46.205Z</time></trkpt><trkpt lat="45.3990783" lon="10.53885"><ele>121.0</ele><time>2026-04-02T07:59:47.202Z</time></trkpt><trkpt lat="45.399075" lon="10.53907"><ele>120.75</ele><time>2026-04-02T07:59:48.207Z</time></trkpt><trkpt lat="45.39906" lon="10.5392767"><ele>120.5</ele><time>2026-04-02T07:59:49.209Z</time></trkpt><trkpt lat="45.3990367" lon="10.5394717"><ele>120.25</ele><time>2026-04-02T07:59:50.208Z</time></trkpt><trkpt lat="45.3990033" lon="10.53967"><ele>120.0</ele><time>2026-04-02T07:59:51.205Z</time></trkpt><trkpt lat="45.3989617" lon="10.539865"><ele>119.33333333333334</ele><time>2026-04-02T07:59:52.209Z</time></trkpt><trkpt lat="45.39891" lon="10.540075"><ele>118.66666666666667</ele><time>2026-04-02T07:59:53.209Z</time></trkpt><trkpt lat="45.3988483" lon="10.5403033"><ele>118.0</ele><time>2026-04-02T07:59:54.204Z</time></trkpt><trkpt lat="45.3987917" lon="10.5405117"><ele>118.0</ele><time>2026-04-02T07:59:55.207Z</time></trkpt><trkpt lat="45.3987233" lon="10.5407017"><ele>118.0</ele><time>2026-04-02T07:59:56.205Z</time></trkpt><trkpt lat="45.398655" lon="10.5408667"><ele>118.0</ele><time>2026-04-02T07:59:57.202Z</time></trkpt><trkpt lat="45.3986067" lon="10.5410167"><ele>118.0</ele><time>2026-04-02T07:59:58.205Z</time></trkpt><trkpt lat="45.3985833" lon="10.5411367"><ele>117.0</ele><time>2026-04-02T07:59:59.212Z</time></trkpt><trkpt lat="45.39853" lon="10.5412483"><ele>116.00000000000001</ele><time>2026-04-02T08:00:00.204Z</time></trkpt><trkpt lat="45.3985667" lon="10.5414033"><ele>115.00000000000001</ele><time>2026-04-02T08:00:01.209Z</time></trkpt><trkpt lat="45.3985967" lon="10.5415517"><ele>114.0</ele><time>2026-04-02T08:00:02.21Z</time></trkpt><trkpt lat="45.39866" lon="10.5416967"><ele>113.0</ele><time>2026-04-02T08:00:03.202Z</time></trkpt><trkpt lat="45.3987217" lon="10.5418167"><ele>113.0</ele><time>2026-04-02T08:00:04.205Z</time></trkpt><trkpt lat="45.3987717" lon="10.5419317"><ele>113.00000000000001</ele><time>2026-04-02T08:00:05.21Z</time></trkpt><trkpt lat="45.3988033" lon="10.5420883"><ele>113.00000000000001</ele><time>2026-04-02T08:00:06.202Z</time></trkpt><trkpt lat="45.3987983" lon="10.5422267"><ele>113.0</ele><time>2026-04-02T08:00:07.205Z</time></trkpt><trkpt lat="45.3987783" lon="10.5423817"><ele>113.0</ele><time>2026-04-02T08:00:08.222Z</time></trkpt><trkpt lat="45.39873" lon="10.5425817"><ele>112.33333333333333</ele><time>2026-04-02T08:00:09.213Z</time></trkpt><trkpt lat="45.3986567" lon="10.54278"><ele>111.66666666666666</ele><time>2026-04-02T08:00:10.203Z</time></trkpt><trkpt lat="45.3986033" lon="10.5430033"><ele>111.0</ele><time>2026-04-02T08:00:11.208Z</time></trkpt><trkpt lat="45.3985267" lon="10.5432567"><ele>111.0</ele><time>2026-04-02T08:00:12.202Z</time></trkpt><trkpt lat="45.3984467" lon="10.543505"><ele>111.0</ele><time>2026-04-02T08:00:13.205Z</time></trkpt><trkpt lat="45.39838" lon="10.543765"><ele>111.0</ele><time>2026-04-02T08:00:14.208Z</time></trkpt><trkpt lat="45.3982917" lon="10.5440167"><ele>111.66666666666666</ele><time>2026-04-02T08:00:15.206Z</time></trkpt><trkpt lat="45.398195" lon="10.5442383"><ele>112.33333333333333</ele><time>2026-04-02T08:00:16.201Z</time></trkpt><trkpt lat="45.3980883" lon="10.5444233"><ele>113.0</ele><time>2026-04-02T08:00:17.207Z</time></trkpt><trkpt lat="45.3979933" lon="10.5446"><ele>113.0</ele><time>2026-04-02T08:00:18.258Z</time></trkpt><trkpt lat="45.3979133" lon="10.5447733"><ele>113.0</ele><time>2026-04-02T08:00:19.2Z</time></trkpt><trkpt lat="45.39783" lon="10.544935"><ele>113.0</ele><time>2026-04-02T08:00:20.205Z</time></trkpt><trkpt lat="45.3977483" lon="10.5451033"><ele>113.0</ele><time>2026-04-02T08:00:21.208Z</time></trkpt><trkpt lat="45.3976983" lon="10.5452817"><ele>113.0</ele><time>2026-04-02T08:00:22.205Z</time></trkpt><trkpt lat="45.397645" lon="10.545475"><ele>113.0</ele><time>2026-04-02T08:00:23.2Z</time></trkpt><trkpt lat="45.397605" lon="10.5456417"><ele>113.0</ele><time>2026-04-02T08:00:24.223Z</time></trkpt><trkpt lat="45.3976" lon="10.5458267"><ele>113.0</ele><time>2026-04-02T08:00:25.205Z</time></trkpt><trkpt lat="45.3975917" lon="10.5459867"><ele>113.0</ele><time>2026-04-02T08:00:26.207Z</time></trkpt><trkpt lat="45.3976017" lon="10.54616"><ele>113.0</ele><time>2026-04-02T08:00:27.207Z</time></trkpt><trkpt lat="45.3976317" lon="10.5463533"><ele>113.0</ele><time>2026-04-02T08:00:28.205Z</time></trkpt><trkpt lat="45.3976617" lon="10.5465783"><ele>113.0</ele><time>2026-04-02T08:00:29.202Z</time></trkpt><trkpt lat="45.39768" lon="10.5467817"><ele>113.0</ele><time>2026-04-02T08:00:30.206Z</time></trkpt><trkpt lat="45.3976767" lon="10.5470083"><ele>113.0</ele><time>2026-04-02T08:00:31.215Z</time></trkpt><trkpt lat="45.3976267" lon="10.5472533"><ele>113.0</ele><time>2026-04-02T08:00:32.205Z</time></trkpt><trkpt lat="45.3975633" lon="10.547475"><ele>114.0</ele><time>2026-04-02T08:00:33.205Z</time></trkpt><trkpt lat="45.3974983" lon="10.5476983"><ele>115.0</ele><time>2026-04-02T08:00:34.207Z</time></trkpt><trkpt lat="45.3974483" lon="10.5479333"><ele>116.0</ele><time>2026-04-02T08:00:35.202Z</time></trkpt><trkpt lat="45.3974067" lon="10.5481883"><ele>116.33333333333333</ele><time>2026-04-02T08:00:36.203Z</time></trkpt><trkpt lat="45.39737" lon="10.548435"><ele>116.66666666666666</ele><time>2026-04-02T08:00:37.214Z</time></trkpt><trkpt lat="45.3973333" lon="10.5487183"><ele>117.0</ele><time>2026-04-02T08:00:38.201Z</time></trkpt><trkpt lat="45.3973" lon="10.549"><ele>118.0</ele><time>2026-04-02T08:00:39.227Z</time></trkpt><trkpt lat="45.3972733" lon="10.5493033"><ele>119.0</ele><time>2026-04-02T08:00:40.211Z</time></trkpt><trkpt lat="45.3972517" lon="10.5495967"><ele>120.0</ele><time>2026-04-02T08:00:41.214Z</time></trkpt><trkpt lat="45.3972333" lon="10.54987"><ele>120.66666666666666</ele><time>2026-04-02T08:00:42.202Z</time></trkpt><trkpt lat="45.3972033" lon="10.5501217"><ele>121.33333333333333</ele><time>2026-04-02T08:00:43.213Z</time></trkpt><trkpt lat="45.3971733" lon="10.5503383"><ele>122.0</ele><time>2026-04-02T08:00:44.203Z</time></trkpt><trkpt lat="45.39711" lon="10.550525"><ele>120.25</ele><time>2026-04-02T08:00:45.204Z</time></trkpt><trkpt lat="45.397075" lon="10.5507133"><ele>118.5</ele><time>2026-04-02T08:00:46.21Z</time></trkpt><trkpt lat="45.3970083" lon="10.55089"><ele>116.75</ele><time>2026-04-02T08:00:47.215Z</time></trkpt><trkpt lat="45.3969483" lon="10.551035"><ele>115.0</ele><time>2026-04-02T08:00:48.203Z</time></trkpt><trkpt lat="45.3969167" lon="10.5511533"><ele>116.00000000000001</ele><time>2026-04-02T08:00:49.201Z</time></trkpt><trkpt lat="45.3968967" lon="10.5512667"><ele>117.0</ele><time>2026-04-02T08:00:50.208Z</time></trkpt><trkpt lat="45.39689" lon="10.55139"><ele>118.0</ele><time>2026-04-02T08:00:51.208Z</time></trkpt><trkpt lat="45.3968817" lon="10.551505"><ele>119.0</ele><time>2026-04-02T08:00:52.205Z</time></trkpt><trkpt lat="45.3968783" lon="10.5516"><ele>120.00000000000001</ele><time>2026-04-02T08:00:53.207Z</time></trkpt><trkpt lat="45.3968733" lon="10.5516967"><ele>121.0</ele><time>2026-04-02T08:00:55.204Z</time></trkpt><trkpt lat="45.3968917" lon="10.551805"><ele>121.0</ele><time>2026-04-02T08:01:04.204Z</time></trkpt><trkpt lat="45.3968767" lon="10.5518933"><ele>121.0</ele><time>2026-04-02T08:01:05.204Z</time></trkpt><trkpt lat="45.396855" lon="10.5520083"><ele>121.0</ele><time>2026-04-02T08:01:06.211Z</time></trkpt><trkpt lat="45.3968483" lon="10.5521517"><ele>121.0</ele><time>2026-04-02T08:01:07.221Z</time></trkpt><trkpt lat="45.3968583" lon="10.5523217"><ele>121.0</ele><time>2026-04-02T08:01:08.217Z</time></trkpt><trkpt lat="45.396905" lon="10.55255"><ele>123.25</ele><time>2026-04-02T08:01:09.214Z</time></trkpt><trkpt lat="45.3969833" lon="10.5526933"><ele>125.5</ele><time>2026-04-02T08:01:10.202Z</time></trkpt><trkpt lat="45.3970567" lon="10.5528667"><ele>127.75</ele><time>2026-04-02T08:01:11.206Z</time></trkpt><trkpt lat="45.3971017" lon="10.553035"><ele>130.0</ele><time>2026-04-02T08:01:12.207Z</time></trkpt><trkpt lat="45.39712" lon="10.55321"><ele>130.0</ele><time>2026-04-02T08:01:13.209Z</time></trkpt><trkpt lat="45.3971483" lon="10.5534067"><ele>130.0</ele><time>2026-04-02T08:01:14.201Z</time></trkpt><trkpt lat="45.3972167" lon="10.5535933"><ele>130.0</ele><time>2026-04-02T08:01:15.206Z</time></trkpt><trkpt lat="45.3972967" lon="10.5537533"><ele>130.0</ele><time>2026-04-02T08:01:16.201Z</time></trkpt><trkpt lat="45.3973667" lon="10.55392"><ele>125.75</ele><time>2026-04-02T08:01:17.207Z</time></trkpt><trkpt lat="45.3974233" lon="10.5540533"><ele>121.5</ele><time>2026-04-02T08:01:18.206Z</time></trkpt><trkpt lat="45.397495" lon="10.55421"><ele>117.25</ele><time>2026-04-02T08:01:19.208Z</time></trkpt><trkpt lat="45.3975667" lon="10.55439"><ele>113.0</ele><time>2026-04-02T08:01:20.205Z</time></trkpt><trkpt lat="45.3975983" lon="10.554595"><ele>112.25</ele><time>2026-04-02T08:01:21.206Z</time></trkpt><trkpt lat="45.397615" lon="10.5548417"><ele>111.5</ele><time>2026-04-02T08:01:22.207Z</time></trkpt><trkpt lat="45.3975833" lon="10.5550033"><ele>110.75</ele><time>2026-04-02T08:01:23.21Z</time></trkpt><trkpt lat="45.3975433" lon="10.55519"><ele>110.0</ele><time>2026-04-02T08:01:24.208Z</time></trkpt><trkpt lat="45.397485" lon="10.5554033"><ele>108.33333333333333</ele><time>2026-04-02T08:01:25.206Z</time></trkpt><trkpt lat="45.3974117" lon="10.5556083"><ele>106.66666666666666</ele><time>2026-04-02T08:01:26.204Z</time></trkpt><trkpt lat="45.3973733" lon="10.5558517"><ele>105.0</ele><time>2026-04-02T08:01:27.208Z</time></trkpt><trkpt lat="45.3973133" lon="10.55608"><ele>105.33333333333334</ele><time>2026-04-02T08:01:28.208Z</time></trkpt><trkpt lat="45.397285" lon="10.556325"><ele>105.66666666666667</ele><time>2026-04-02T08:01:29.214Z</time></trkpt><trkpt lat="45.3972667" lon="10.556575"><ele>106.0</ele><time>2026-04-02T08:01:30.202Z</time></trkpt><trkpt lat="45.397245" lon="10.5567867"><ele>106.0</ele><time>2026-04-02T08:01:31.212Z</time></trkpt><trkpt lat="45.3972217" lon="10.5569783"><ele>106.0</ele><time>2026-04-02T08:01:32.205Z</time></trkpt><trkpt lat="45.3971933" lon="10.55716"><ele>106.0</ele><time>2026-04-02T08:01:33.201Z</time></trkpt><trkpt lat="45.3971483" lon="10.5573133"><ele>106.0</ele><time>2026-04-02T08:01:34.211Z</time></trkpt><trkpt lat="45.397075" lon="10.557425"><ele>105.5</ele><time>2026-04-02T08:01:35.216Z</time></trkpt><trkpt lat="45.3969967" lon="10.55756"><ele>105.0</ele><time>2026-04-02T08:01:36.205Z</time></trkpt><trkpt lat="45.39685" lon="10.5576867"><ele>104.5</ele><time>2026-04-02T08:01:37.215Z</time></trkpt><trkpt lat="45.3967883" lon="10.5578867"><ele>104.0</ele><time>2026-04-02T08:01:38.212Z</time></trkpt><trkpt lat="45.3967417" lon="10.5581117"><ele>104.0</ele><time>2026-04-02T08:01:39.206Z</time></trkpt><trkpt lat="45.3967067" lon="10.5583733"><ele>104.0</ele><time>2026-04-02T08:01:40.207Z</time></trkpt><trkpt lat="45.3966967" lon="10.55865"><ele>104.0</ele><time>2026-04-02T08:01:41.208Z</time></trkpt><trkpt lat="45.3967167" lon="10.55893"><ele>104.0</ele><time>2026-04-02T08:01:42.205Z</time></trkpt><trkpt lat="45.3967383" lon="10.55921"><ele>104.0</ele><time>2026-04-02T08:01:43.211Z</time></trkpt><trkpt lat="45.39677" lon="10.559485"><ele>104.0</ele><time>2026-04-02T08:01:44.21Z</time></trkpt><trkpt lat="45.3968017" lon="10.5597567"><ele>104.0</ele><time>2026-04-02T08:01:45.218Z</time></trkpt><trkpt lat="45.3968133" lon="10.5600467"><ele>104.0</ele><time>2026-04-02T08:01:46.202Z</time></trkpt><trkpt lat="45.3968333" lon="10.5603217"><ele>104.0</ele><time>2026-04-02T08:01:47.203Z</time></trkpt><trkpt lat="45.396835" lon="10.5605833"><ele>104.0</ele><time>2026-04-02T08:01:48.219Z</time></trkpt><trkpt lat="45.3968433" lon="10.56086"><ele>104.0</ele><time>2026-04-02T08:01:49.231Z</time></trkpt><trkpt lat="45.3968317" lon="10.5611333"><ele>104.0</ele><time>2026-04-02T08:01:50.22Z</time></trkpt><trkpt lat="45.396795" lon="10.561405"><ele>104.0</ele><time>2026-04-02T08:01:51.217Z</time></trkpt><trkpt lat="45.3967317" lon="10.561685"><ele>104.0</ele><time>2026-04-02T08:01:52.206Z</time></trkpt><trkpt lat="45.396665" lon="10.561965"><ele>104.0</ele><time>2026-04-02T08:01:53.21Z</time></trkpt><trkpt lat="45.3965967" lon="10.562245"><ele>103.33333333333333</ele><time>2026-04-02T08:01:54.212Z</time></trkpt><trkpt lat="45.3965083" lon="10.562485"><ele>102.66666666666666</ele><time>2026-04-02T08:01:55.205Z</time></trkpt><trkpt lat="45.39644" lon="10.56271"><ele>102.0</ele><time>2026-04-02T08:01:56.221Z</time></trkpt><trkpt lat="45.39639" lon="10.56292"><ele>101.8</ele><time>2026-04-02T08:01:57.212Z</time></trkpt><trkpt lat="45.3963117" lon="10.5630883"><ele>101.6</ele><time>2026-04-02T08:01:58.209Z</time></trkpt><trkpt lat="45.39625" lon="10.5632367"><ele>101.39999999999999</ele><time>2026-04-02T08:01:59.208Z</time></trkpt><trkpt lat="45.3962033" lon="10.5633483"><ele>101.19999999999999</ele><time>2026-04-02T08:02:00.218Z</time></trkpt><trkpt lat="45.3961633" lon="10.56343"><ele>101.0</ele><time>2026-04-02T08:02:01.213Z</time></trkpt><trkpt lat="45.3960967" lon="10.5635517"><ele>101.0</ele><time>2026-04-02T08:02:03.207Z</time></trkpt><trkpt lat="45.3961283" lon="10.5636917"><ele>101.0</ele><time>2026-04-02T08:02:48.213Z</time></trkpt><trkpt lat="45.3961867" lon="10.56377"><ele>101.0</ele><time>2026-04-02T08:02:49.212Z</time></trkpt><trkpt lat="45.396265" lon="10.5638717"><ele>101.0</ele><time>2026-04-02T08:02:50.222Z</time></trkpt><trkpt lat="45.3963567" lon="10.5639917"><ele>101.0</ele><time>2026-04-02T08:02:51.217Z</time></trkpt><trkpt lat="45.3964583" lon="10.5641533"><ele>101.33333333333333</ele><time>2026-04-02T08:02:52.209Z</time></trkpt><trkpt lat="45.39657" lon="10.564325"><ele>101.66666666666666</ele><time>2026-04-02T08:02:53.204Z</time></trkpt><trkpt lat="45.39669" lon="10.5644833"><ele>102.0</ele><time>2026-04-02T08:02:54.219Z</time></trkpt><trkpt lat="45.3968033" lon="10.56461"><ele>102.0</ele><time>2026-04-02T08:02:55.211Z</time></trkpt><trkpt lat="45.3968817" lon="10.564755"><ele>102.0</ele><time>2026-04-02T08:02:56.207Z</time></trkpt><trkpt lat="45.3969683" lon="10.564885"><ele>102.0</ele><time>2026-04-02T08:02:57.205Z</time></trkpt><trkpt lat="45.3970417" lon="10.5649983"><ele>102.0</ele><time>2026-04-02T08:02:58.214Z</time></trkpt><trkpt lat="45.3971283" lon="10.5651217"><ele>102.0</ele><time>2026-04-02T08:02:59.218Z</time></trkpt><trkpt lat="45.397205" lon="10.5652417"><ele>102.0</ele><time>2026-04-02T08:03:00.214Z</time></trkpt><trkpt lat="45.3972833" lon="10.5653583"><ele>102.0</ele><time>2026-04-02T08:03:01.21Z</time></trkpt><trkpt lat="45.39735" lon="10.56548"><ele>102.0</ele><time>2026-04-02T08:03:02.206Z</time></trkpt><trkpt lat="45.3974067" lon="10.5656233"><ele>102.0</ele><time>2026-04-02T08:03:03.203Z</time></trkpt><trkpt lat="45.3974533" lon="10.565775"><ele>102.0</ele><time>2026-04-02T08:03:04.212Z</time></trkpt><trkpt lat="45.3974917" lon="10.5659417"><ele>102.0</ele><time>2026-04-02T08:03:05.219Z</time></trkpt><trkpt lat="45.39754" lon="10.5661"><ele>102.0</ele><time>2026-04-02T08:03:06.201Z</time></trkpt><trkpt lat="45.39761" lon="10.5662517"><ele>102.5</ele><time>2026-04-02T08:03:07.207Z</time></trkpt><trkpt lat="45.3977017" lon="10.5664017"><ele>103.0</ele><time>2026-04-02T08:03:08.205Z</time></trkpt><trkpt lat="45.39779" lon="10.56653"><ele>103.5</ele><time>2026-04-02T08:03:09.206Z</time></trkpt><trkpt lat="45.3978883" lon="10.56665"><ele>104.0</ele><time>2026-04-02T08:03:10.209Z</time></trkpt><trkpt lat="45.3979933" lon="10.5667883"><ele>104.25</ele><time>2026-04-02T08:03:11.21Z</time></trkpt><trkpt lat="45.3981033" lon="10.5669283"><ele>104.5</ele><time>2026-04-02T08:03:12.203Z</time></trkpt><trkpt lat="45.3982117" lon="10.5670683"><ele>104.75</ele><time>2026-04-02T08:03:13.211Z</time></trkpt><trkpt lat="45.3983167" lon="10.5672033"><ele>105.0</ele><time>2026-04-02T08:03:14.208Z</time></trkpt><trkpt lat="45.39842" lon="10.5673317"><ele>105.0</ele><time>2026-04-02T08:03:15.204Z</time></trkpt><trkpt lat="45.39854" lon="10.5674383"><ele>105.0</ele><time>2026-04-02T08:03:16.204Z</time></trkpt><trkpt lat="45.39866" lon="10.5675717"><ele>105.0</ele><time>2026-04-02T08:03:17.21Z</time></trkpt><trkpt lat="45.3987483" lon="10.56769"><ele>105.0</ele><time>2026-04-02T08:03:18.208Z</time></trkpt><trkpt lat="45.3988583" lon="10.5678167"><ele>106.0</ele><time>2026-04-02T08:03:19.231Z</time></trkpt><trkpt lat="45.3989683" lon="10.5679267"><ele>107.0</ele><time>2026-04-02T08:03:20.221Z</time></trkpt><trkpt lat="45.3990733" lon="10.5680333"><ele>108.0</ele><time>2026-04-02T08:03:21.209Z</time></trkpt><trkpt lat="45.39916" lon="10.568205"><ele>109.0</ele><time>2026-04-02T08:03:22.215Z</time></trkpt><trkpt lat="45.39927" lon="10.5683083"><ele>109.0</ele><time>2026-04-02T08:03:23.207Z</time></trkpt><trkpt lat="45.39936" lon="10.5684317"><ele>109.0</ele><time>2026-04-02T08:03:24.205Z</time></trkpt><trkpt lat="45.3994467" lon="10.5685233"><ele>109.0</ele><time>2026-04-02T08:03:25.206Z</time></trkpt><trkpt lat="45.3995033" lon="10.56862"><ele>109.0</ele><time>2026-04-02T08:03:26.218Z</time></trkpt><trkpt lat="45.3995517" lon="10.568705"><ele>109.0</ele><time>2026-04-02T08:03:27.21Z</time></trkpt><trkpt lat="45.3996267" lon="10.56879"><ele>109.33333333333334</ele><time>2026-04-02T08:03:29.204Z</time></trkpt><trkpt lat="45.39969" lon="10.5687767"><ele>109.66666666666667</ele><time>2026-04-02T08:03:32.205Z</time></trkpt><trkpt lat="45.3997567" lon="10.5686717"><ele>110.0</ele><time>2026-04-02T08:03:34.209Z</time></trkpt><trkpt lat="45.3998" lon="10.5685817"><ele>110.33333333333334</ele><time>2026-04-02T08:03:35.206Z</time></trkpt><trkpt lat="45.39985" lon="10.5684733"><ele>110.66666666666667</ele><time>2026-04-02T08:03:36.22Z</time></trkpt><trkpt lat="45.3999017" lon="10.568355"><ele>111.0</ele><time>2026-04-02T08:03:37.207Z</time></trkpt><trkpt lat="45.3999633" lon="10.5682"><ele>111.0</ele><time>2026-04-02T08:03:38.205Z</time></trkpt><trkpt lat="45.40003" lon="10.568055"><ele>111.0</ele><time>2026-04-02T08:03:39.211Z</time></trkpt><trkpt lat="45.4001167" lon="10.56793"><ele>111.0</ele><time>2026-04-02T08:03:40.209Z</time></trkpt><trkpt lat="45.4001867" lon="10.5677933"><ele>111.0</ele><time>2026-04-02T08:03:41.206Z</time></trkpt><trkpt lat="45.400245" lon="10.5676667"><ele>110.66666666666667</ele><time>2026-04-02T08:03:42.212Z</time></trkpt><trkpt lat="45.4002867" lon="10.5675967"><ele>110.33333333333334</ele><time>2026-04-02T08:03:43.21Z</time></trkpt><trkpt lat="45.4003517" lon="10.5674917"><ele>110.0</ele><time>2026-04-02T08:03:45.214Z</time></trkpt><trkpt lat="45.400395" lon="10.5674167"><ele>109.66666666666667</ele><time>2026-04-02T08:03:46.207Z</time></trkpt><trkpt lat="45.40045" lon="10.56733"><ele>109.33333333333334</ele><time>2026-04-02T08:03:47.202Z</time></trkpt><trkpt lat="45.4005217" lon="10.5672417"><ele>109.0</ele><time>2026-04-02T08:03:48.202Z</time></trkpt><trkpt lat="45.400595" lon="10.5671417"><ele>109.5</ele><time>2026-04-02T08:03:49.207Z</time></trkpt><trkpt lat="45.4006633" lon="10.5670117"><ele>110.0</ele><time>2026-04-02T08:03:50.207Z</time></trkpt><trkpt lat="45.4007383" lon="10.5668883"><ele>110.5</ele><time>2026-04-02T08:03:51.209Z</time></trkpt><trkpt lat="45.4008317" lon="10.5667133"><ele>111.0</ele><time>2026-04-02T08:03:52.209Z</time></trkpt><trkpt lat="45.4009083" lon="10.566615"><ele>111.0</ele><time>2026-04-02T08:03:53.21Z</time></trkpt><trkpt lat="45.400955" lon="10.566495"><ele>111.0</ele><time>2026-04-02T08:03:54.202Z</time></trkpt><trkpt lat="45.4010133" lon="10.5663733"><ele>111.0</ele><time>2026-04-02T08:03:55.208Z</time></trkpt><trkpt lat="45.4010767" lon="10.5662617"><ele>111.0</ele><time>2026-04-02T08:03:56.203Z</time></trkpt><trkpt lat="45.4011267" lon="10.5660617"><ele>111.5</ele><time>2026-04-02T08:03:57.206Z</time></trkpt><trkpt lat="45.4011883" lon="10.565935"><ele>112.0</ele><time>2026-04-02T08:03:58.211Z</time></trkpt><trkpt lat="45.4012517" lon="10.5657933"><ele>112.5</ele><time>2026-04-02T08:03:59.211Z</time></trkpt><trkpt lat="45.4013167" lon="10.5656583"><ele>113.0</ele><time>2026-04-02T08:04:00.203Z</time></trkpt><trkpt lat="45.401365" lon="10.5655133"><ele>112.0</ele><time>2026-04-02T08:04:01.203Z</time></trkpt><trkpt lat="45.401435" lon="10.5653617"><ele>111.0</ele><time>2026-04-02T08:04:02.204Z</time></trkpt><trkpt lat="45.401505" lon="10.565235"><ele>110.0</ele><time>2026-04-02T08:04:03.202Z</time></trkpt><trkpt lat="45.4015883" lon="10.565095"><ele>109.0</ele><time>2026-04-02T08:04:04.207Z</time></trkpt><trkpt lat="45.401675" lon="10.5649767"><ele>109.0</ele><time>2026-04-02T08:04:05.205Z</time></trkpt><trkpt lat="45.4017667" lon="10.5648233"><ele>109.0</ele><time>2026-04-02T08:04:06.205Z</time></trkpt><trkpt lat="45.40187" lon="10.5646667"><ele>109.0</ele><time>2026-04-02T08:04:07.202Z</time></trkpt><trkpt lat="45.4019683" lon="10.56449"><ele>108.25</ele><time>2026-04-02T08:04:08.206Z</time></trkpt><trkpt lat="45.40205" lon="10.56433"><ele>107.5</ele><time>2026-04-02T08:04:09.204Z</time></trkpt><trkpt lat="45.4021317" lon="10.5641917"><ele>106.75</ele><time>2026-04-02T08:04:10.223Z</time></trkpt><trkpt lat="45.40219" lon="10.5640567"><ele>106.0</ele><time>2026-04-02T08:04:11.219Z</time></trkpt><trkpt lat="45.4022383" lon="10.56393"><ele>106.0</ele><time>2026-04-02T08:04:12.209Z</time></trkpt><trkpt lat="45.4022983" lon="10.56379"><ele>106.0</ele><time>2026-04-02T08:04:13.203Z</time></trkpt><trkpt lat="45.4023667" lon="10.5636433"><ele>106.0</ele><time>2026-04-02T08:04:14.206Z</time></trkpt><trkpt lat="45.4024433" lon="10.5635167"><ele>106.0</ele><time>2026-04-02T08:04:15.207Z</time></trkpt><trkpt lat="45.4024967" lon="10.56342"><ele>106.0</ele><time>2026-04-02T08:04:16.211Z</time></trkpt><trkpt lat="45.4025717" lon="10.563355"><ele>106.0</ele><time>2026-04-02T08:04:18.216Z</time></trkpt><trkpt lat="45.4024817" lon="10.56336"><ele>106.0</ele><time>2026-04-02T08:04:30.216Z</time></trkpt><trkpt lat="45.402435" lon="10.56344"><ele>106.0</ele><time>2026-04-02T08:04:31.219Z</time></trkpt><trkpt lat="45.40238" lon="10.5635683"><ele>106.0</ele><time>2026-04-02T08:04:32.21Z</time></trkpt><trkpt lat="45.402315" lon="10.5637233"><ele>106.0</ele><time>2026-04-02T08:04:33.206Z</time></trkpt><trkpt lat="45.4022417" lon="10.5638967"><ele>106.0</ele><time>2026-04-02T08:04:34.217Z</time></trkpt><trkpt lat="45.40215" lon="10.5641"><ele>106.0</ele><time>2026-04-02T08:04:35.206Z</time></trkpt><trkpt lat="45.402055" lon="10.5643117"><ele>106.0</ele><time>2026-04-02T08:04:36.207Z</time></trkpt><trkpt lat="45.4019317" lon="10.564535"><ele>107.0</ele><time>2026-04-02T08:04:37.21Z</time></trkpt><trkpt lat="45.4018167" lon="10.56476"><ele>108.0</ele><time>2026-04-02T08:04:38.209Z</time></trkpt><trkpt lat="45.4016767" lon="10.564975"><ele>109.0</ele><time>2026-04-02T08:04:39.206Z</time></trkpt><trkpt lat="45.4015533" lon="10.5652167"><ele>108.0</ele><time>2026-04-02T08:04:40.206Z</time></trkpt><trkpt lat="45.4014317" lon="10.565455"><ele>107.0</ele><time>2026-04-02T08:04:41.202Z</time></trkpt><trkpt lat="45.401315" lon="10.5656883"><ele>106.0</ele><time>2026-04-02T08:04:42.202Z</time></trkpt><trkpt lat="45.401215" lon="10.565885"><ele>106.0</ele><time>2026-04-02T08:04:43.231Z</time></trkpt><trkpt lat="45.4011283" lon="10.5661133"><ele>106.0</ele><time>2026-04-02T08:04:44.21Z</time></trkpt><trkpt lat="45.4010367" lon="10.566305"><ele>106.0</ele><time>2026-04-02T08:04:45.206Z</time></trkpt><trkpt lat="45.4009383" lon="10.5665067"><ele>107.25</ele><time>2026-04-02T08:04:46.206Z</time></trkpt><trkpt lat="45.400855" lon="10.5666933"><ele>108.5</ele><time>2026-04-02T08:04:47.216Z</time></trkpt><trkpt lat="45.4007617" lon="10.56687"><ele>109.75</ele><time>2026-04-02T08:04:48.202Z</time></trkpt><trkpt lat="45.400675" lon="10.567005"><ele>111.0</ele><time>2026-04-02T08:04:49.212Z</time></trkpt><trkpt lat="45.4005883" lon="10.5671283"><ele>110.5</ele><time>2026-04-02T08:04:50.21Z</time></trkpt><trkpt lat="45.4005" lon="10.5672567"><ele>110.0</ele><time>2026-04-02T08:04:51.206Z</time></trkpt><trkpt lat="45.4003983" lon="10.5674233"><ele>109.5</ele><time>2026-04-02T08:04:52.206Z</time></trkpt><trkpt lat="45.4003033" lon="10.5675733"><ele>109.0</ele><time>2026-04-02T08:04:53.209Z</time></trkpt><trkpt lat="45.4002" lon="10.5677333"><ele>109.5</ele><time>2026-04-02T08:04:54.206Z</time></trkpt><trkpt lat="45.400115" lon="10.567885"><ele>110.0</ele><time>2026-04-02T08:04:55.211Z</time></trkpt><trkpt lat="45.40001" lon="10.5680433"><ele>110.5</ele><time>2026-04-02T08:04:56.207Z</time></trkpt><trkpt lat="45.3999317" lon="10.5682033"><ele>111.0</ele><time>2026-04-02T08:04:57.211Z</time></trkpt><trkpt lat="45.39985" lon="10.5683283"><ele>111.0</ele><time>2026-04-02T08:04:58.205Z</time></trkpt><trkpt lat="45.39978" lon="10.5684467"><ele>111.0</ele><time>2026-04-02T08:04:59.209Z</time></trkpt><trkpt lat="45.3997083" lon="10.5685867"><ele>111.0</ele><time>2026-04-02T08:05:00.203Z</time></trkpt><trkpt lat="45.3996733" lon="10.568675"><ele>111.0</ele><time>2026-04-02T08:05:01.203Z</time></trkpt><trkpt lat="45.3996417" lon="10.5687783"><ele>111.0</ele><time>2026-04-02T08:05:02.213Z</time></trkpt><trkpt lat="45.3996267" lon="10.5689167"><ele>111.16666666666667</ele><time>2026-04-02T08:05:04.206Z</time></trkpt><trkpt lat="45.3996617" lon="10.5689917"><ele>111.33333333333334</ele><time>2026-04-02T08:05:05.205Z</time></trkpt><trkpt lat="45.39971" lon="10.5690717"><ele>111.5</ele><time>2026-04-02T08:05:06.212Z</time></trkpt><trkpt lat="45.399765" lon="10.5691633"><ele>111.66666666666667</ele><time>2026-04-02T08:05:07.215Z</time></trkpt><trkpt lat="45.3998333" lon="10.569275"><ele>111.83333333333334</ele><time>2026-04-02T08:05:08.208Z</time></trkpt><trkpt lat="45.3999133" lon="10.5693933"><ele>112.0</ele><time>2026-04-02T08:05:09.208Z</time></trkpt><trkpt lat="45.399995" lon="10.569525"><ele>112.5</ele><time>2026-04-02T08:05:10.208Z</time></trkpt><trkpt lat="45.4000667" lon="10.5696717"><ele>113.0</ele><time>2026-04-02T08:05:11.21Z</time></trkpt><trkpt lat="45.4000967" lon="10.5698083"><ele>113.5</ele><time>2026-04-02T08:05:12.207Z</time></trkpt><trkpt lat="45.4001033" lon="10.5699683"><ele>114.0</ele><time>2026-04-02T08:05:13.208Z</time></trkpt><trkpt lat="45.4001217" lon="10.570145"><ele>114.0</ele><time>2026-04-02T08:05:14.204Z</time></trkpt><trkpt lat="45.4001433" lon="10.570335"><ele>114.0</ele><time>2026-04-02T08:05:15.205Z</time></trkpt><trkpt lat="45.400155" lon="10.570525"><ele>114.0</ele><time>2026-04-02T08:05:16.215Z</time></trkpt><trkpt lat="45.4002017" lon="10.5707183"><ele>114.0</ele><time>2026-04-02T08:05:17.212Z</time></trkpt><trkpt lat="45.4002567" lon="10.5709067"><ele>113.75</ele><time>2026-04-02T08:05:18.214Z</time></trkpt><trkpt lat="45.40034" lon="10.571065"><ele>113.5</ele><time>2026-04-02T08:05:19.205Z</time></trkpt><trkpt lat="45.400435" lon="10.5712033"><ele>113.25</ele><time>2026-04-02T08:05:20.207Z</time></trkpt><trkpt lat="45.4005683" lon="10.5713067"><ele>113.0</ele><time>2026-04-02T08:05:21.208Z</time></trkpt><trkpt lat="45.4006917" lon="10.5714383"><ele>111.5</ele><time>2026-04-02T08:05:22.211Z</time></trkpt><trkpt lat="45.4007917" lon="10.5715667"><ele>110.0</ele><time>2026-04-02T08:05:23.211Z</time></trkpt><trkpt lat="45.40085" lon="10.5716833"><ele>108.5</ele><time>2026-04-02T08:05:24.206Z</time></trkpt><trkpt lat="45.4008483" lon="10.5719183"><ele>107.0</ele><time>2026-04-02T08:05:25.212Z</time></trkpt><trkpt lat="45.4008917" lon="10.5720267"><ele>106.99999999999999</ele><time>2026-04-02T08:05:26.202Z</time></trkpt><trkpt lat="45.4009167" lon="10.5721517"><ele>107.0</ele><time>2026-04-02T08:05:27.214Z</time></trkpt><trkpt lat="45.4009383" lon="10.572255"><ele>107.0</ele><time>2026-04-02T08:05:29.207Z</time></trkpt><trkpt lat="45.4010033" lon="10.57225"><ele>107.0</ele><time>2026-04-02T08:05:31.214Z</time></trkpt><trkpt lat="45.4010667" lon="10.5721783"><ele>106.99999999999999</ele><time>2026-04-02T08:05:33.208Z</time></trkpt><trkpt lat="45.4011417" lon="10.572065"><ele>107.0</ele><time>2026-04-02T08:05:35.206Z</time></trkpt><trkpt lat="45.4011933" lon="10.5720033"><ele>107.0</ele><time>2026-04-02T08:05:36.205Z</time></trkpt><trkpt lat="45.40126" lon="10.5719317"><ele>106.99999999999999</ele><time>2026-04-02T08:05:37.207Z</time></trkpt><trkpt lat="45.40134" lon="10.5718417"><ele>106.99999999999999</ele><time>2026-04-02T08:05:38.207Z</time></trkpt><trkpt lat="45.401425" lon="10.5717483"><ele>107.0</ele><time>2026-04-02T08:05:39.204Z</time></trkpt><trkpt lat="45.4015133" lon="10.57164"><ele>107.0</ele><time>2026-04-02T08:05:40.207Z</time></trkpt><trkpt lat="45.401615" lon="10.571535"><ele>105.75</ele><time>2026-04-02T08:05:41.209Z</time></trkpt><trkpt lat="45.40172" lon="10.5714267"><ele>104.5</ele><time>2026-04-02T08:05:42.21Z</time></trkpt><trkpt lat="45.401825" lon="10.5713533"><ele>103.25</ele><time>2026-04-02T08:05:43.215Z</time></trkpt><trkpt lat="45.4019483" lon="10.57123"><ele>102.0</ele><time>2026-04-02T08:05:44.215Z</time></trkpt><trkpt lat="45.4020533" lon="10.571095"><ele>102.0</ele><time>2026-04-02T08:05:45.208Z</time></trkpt><trkpt lat="45.40216" lon="10.570955"><ele>102.0</ele><time>2026-04-02T08:05:46.206Z</time></trkpt><trkpt lat="45.4022533" lon="10.5708183"><ele>102.0</ele><time>2026-04-02T08:05:47.216Z</time></trkpt><trkpt lat="45.4023483" lon="10.57068"><ele>102.0</ele><time>2026-04-02T08:05:48.207Z</time></trkpt><trkpt lat="45.4024683" lon="10.570525"><ele>101.33333333333334</ele><time>2026-04-02T08:05:49.205Z</time></trkpt><trkpt lat="45.4025917" lon="10.5703717"><ele>100.66666666666667</ele><time>2026-04-02T08:05:50.21Z</time></trkpt><trkpt lat="45.4027" lon="10.5702217"><ele>100.0</ele><time>2026-04-02T08:05:51.211Z</time></trkpt><trkpt lat="45.40282" lon="10.5700867"><ele>100.0</ele><time>2026-04-02T08:05:52.206Z</time></trkpt><trkpt lat="45.402935" lon="10.5699567"><ele>100.0</ele><time>2026-04-02T08:05:53.214Z</time></trkpt><trkpt lat="45.4030567" lon="10.5698133"><ele>100.0</ele><time>2026-04-02T08:05:54.208Z</time></trkpt><trkpt lat="45.40318" lon="10.5696733"><ele>99.0</ele><time>2026-04-02T08:05:55.206Z</time></trkpt><trkpt lat="45.4033017" lon="10.56951"><ele>98.0</ele><time>2026-04-02T08:05:56.216Z</time></trkpt><trkpt lat="45.403445" lon="10.56935"><ele>97.0</ele><time>2026-04-02T08:05:57.21Z</time></trkpt><trkpt lat="45.403565" lon="10.5692233"><ele>97.0</ele><time>2026-04-02T08:05:58.203Z</time></trkpt><trkpt lat="45.4036917" lon="10.569085"><ele>97.0</ele><time>2026-04-02T08:05:59.206Z</time></trkpt><trkpt lat="45.40381" lon="10.568935"><ele>97.0</ele><time>2026-04-02T08:06:00.209Z</time></trkpt><trkpt lat="45.4039333" lon="10.568795"><ele>97.33333333333334</ele><time>2026-04-02T08:06:01.206Z</time></trkpt><trkpt lat="45.4040533" lon="10.5686517"><ele>97.66666666666666</ele><time>2026-04-02T08:06:02.211Z</time></trkpt><trkpt lat="45.4041683" lon="10.56851"><ele>98.0</ele><time>2026-04-02T08:06:03.212Z</time></trkpt><trkpt lat="45.4042983" lon="10.5683533"><ele>98.0</ele><time>2026-04-02T08:06:04.2Z</time></trkpt><trkpt lat="45.404405" lon="10.568175"><ele>98.0</ele><time>2026-04-02T08:06:05.206Z</time></trkpt><trkpt lat="45.4045183" lon="10.5680167"><ele>98.0</ele><time>2026-04-02T08:06:06.208Z</time></trkpt><trkpt lat="45.4046317" lon="10.567865"><ele>97.0</ele><time>2026-04-02T08:06:07.207Z</time></trkpt><trkpt lat="45.40475" lon="10.5677133"><ele>96.0</ele><time>2026-04-02T08:06:08.201Z</time></trkpt><trkpt lat="45.4048517" lon="10.5675217"><ele>95.0</ele><time>2026-04-02T08:06:09.206Z</time></trkpt><trkpt lat="45.4049433" lon="10.5673417"><ele>95.0</ele><time>2026-04-02T08:06:10.212Z</time></trkpt><trkpt lat="45.405035" lon="10.5671633"><ele>95.0</ele><time>2026-04-02T08:06:11.213Z</time></trkpt><trkpt lat="45.4051283" lon="10.5669867"><ele>95.0</ele><time>2026-04-02T08:06:12.208Z</time></trkpt><trkpt lat="45.4052333" lon="10.5667967"><ele>95.33333333333334</ele><time>2026-04-02T08:06:13.208Z</time></trkpt><trkpt lat="45.4053383" lon="10.5666033"><ele>95.66666666666667</ele><time>2026-04-02T08:06:14.21Z</time></trkpt><trkpt lat="45.4054467" lon="10.5664133"><ele>96.0</ele><time>2026-04-02T08:06:15.203Z</time></trkpt><trkpt lat="45.4055467" lon="10.56624"><ele>96.0</ele><time>2026-04-02T08:06:16.208Z</time></trkpt><trkpt lat="45.4056633" lon="10.56607"><ele>96.0</ele><time>2026-04-02T08:06:17.209Z</time></trkpt><trkpt lat="45.4057533" lon="10.5658967"><ele>96.0</ele><time>2026-04-02T08:06:18.212Z</time></trkpt><trkpt lat="45.4058467" lon="10.56575"><ele>96.0</ele><time>2026-04-02T08:06:19.208Z</time></trkpt><trkpt lat="45.4059367" lon="10.5656133"><ele>96.0</ele><time>2026-04-02T08:06:20.207Z</time></trkpt><trkpt lat="45.4060083" lon="10.5655"><ele>96.0</ele><time>2026-04-02T08:06:21.206Z</time></trkpt><trkpt lat="45.40607" lon="10.565385"><ele>96.0</ele><time>2026-04-02T08:06:22.218Z</time></trkpt><trkpt lat="45.4061267" lon="10.565315"><ele>96.0</ele><time>2026-04-02T08:06:23.228Z</time></trkpt><trkpt lat="45.4061533" lon="10.565225"><ele>96.16666666666667</ele><time>2026-04-02T08:06:24.205Z</time></trkpt><trkpt lat="45.406155" lon="10.565135"><ele>96.33333333333334</ele><time>2026-04-02T08:06:25.207Z</time></trkpt><trkpt lat="45.40613" lon="10.5650317"><ele>96.5</ele><time>2026-04-02T08:06:26.208Z</time></trkpt><trkpt lat="45.4060867" lon="10.564915"><ele>96.66666666666667</ele><time>2026-04-02T08:06:27.208Z</time></trkpt><trkpt lat="45.4060517" lon="10.5648017"><ele>96.83333333333334</ele><time>2026-04-02T08:06:28.201Z</time></trkpt><trkpt lat="45.4060367" lon="10.56471"><ele>97.0</ele><time>2026-04-02T08:06:29.209Z</time></trkpt><trkpt lat="45.4061017" lon="10.564545"><ele>97.0</ele><time>2026-04-02T08:06:31.216Z</time></trkpt><trkpt lat="45.4061783" lon="10.5644667"><ele>97.0</ele><time>2026-04-02T08:06:32.209Z</time></trkpt><trkpt lat="45.4062767" lon="10.5644017"><ele>97.0</ele><time>2026-04-02T08:06:33.208Z</time></trkpt><trkpt lat="45.4064133" lon="10.5642867"><ele>97.0</ele><time>2026-04-02T08:06:34.205Z</time></trkpt><trkpt lat="45.4065317" lon="10.5642033"><ele>97.0</ele><time>2026-04-02T08:06:35.207Z</time></trkpt><trkpt lat="45.40666" lon="10.564105"><ele>97.0</ele><time>2026-04-02T08:06:36.206Z</time></trkpt><trkpt lat="45.4068067" lon="10.56398"><ele>97.0</ele><time>2026-04-02T08:06:37.212Z</time></trkpt><trkpt lat="45.4069367" lon="10.5638733"><ele>97.0</ele><time>2026-04-02T08:06:38.207Z</time></trkpt><trkpt lat="45.4070967" lon="10.5637517"><ele>97.0</ele><time>2026-04-02T08:06:39.21Z</time></trkpt><trkpt lat="45.4072467" lon="10.5636683"><ele>97.0</ele><time>2026-04-02T08:06:40.202Z</time></trkpt><trkpt lat="45.4073833" lon="10.56359"><ele>97.33333333333334</ele><time>2026-04-02T08:06:41.203Z</time></trkpt><trkpt lat="45.4075267" lon="10.563475"><ele>97.66666666666666</ele><time>2026-04-02T08:06:42.217Z</time></trkpt><trkpt lat="45.40766" lon="10.5633783"><ele>98.0</ele><time>2026-04-02T08:06:43.206Z</time></trkpt><trkpt lat="45.4077967" lon="10.56329"><ele>98.0</ele><time>2026-04-02T08:06:44.217Z</time></trkpt><trkpt lat="45.40795" lon="10.5632183"><ele>98.0</ele><time>2026-04-02T08:06:45.213Z</time></trkpt><trkpt lat="45.4081067" lon="10.5631617"><ele>98.0</ele><time>2026-04-02T08:06:46.207Z</time></trkpt><trkpt lat="45.408275" lon="10.563085"><ele>97.66666666666666</ele><time>2026-04-02T08:06:47.204Z</time></trkpt><trkpt lat="45.408445" lon="10.5629967"><ele>97.33333333333334</ele><time>2026-04-02T08:06:48.207Z</time></trkpt><trkpt lat="45.4086117" lon="10.5629283"><ele>97.0</ele><time>2026-04-02T08:06:49.21Z</time></trkpt><trkpt lat="45.40877" lon="10.5628633"><ele>96.66666666666667</ele><time>2026-04-02T08:06:50.205Z</time></trkpt><trkpt lat="45.4089233" lon="10.5628"><ele>96.33333333333334</ele><time>2026-04-02T08:06:51.215Z</time></trkpt><trkpt lat="45.409095" lon="10.5627467"><ele>96.0</ele><time>2026-04-02T08:06:52.209Z</time></trkpt><trkpt lat="45.4092533" lon="10.5626783"><ele>96.0</ele><time>2026-04-02T08:06:53.209Z</time></trkpt><trkpt lat="45.40942" lon="10.5625867"><ele>96.0</ele><time>2026-04-02T08:06:54.211Z</time></trkpt><trkpt lat="45.409565" lon="10.5625167"><ele>96.0</ele><time>2026-04-02T08:06:55.207Z</time></trkpt><trkpt lat="45.409675" lon="10.5624633"><ele>96.0</ele><time>2026-04-02T08:06:56.206Z</time></trkpt><trkpt lat="45.4097883" lon="10.5624117"><ele>96.0</ele><time>2026-04-02T08:06:57.206Z</time></trkpt><trkpt lat="45.4098967" lon="10.5623633"><ele>96.0</ele><time>2026-04-02T08:06:58.208Z</time></trkpt><trkpt lat="45.4100133" lon="10.56233"><ele>96.0</ele><time>2026-04-02T08:06:59.203Z</time></trkpt><trkpt lat="45.4101083" lon="10.5622733"><ele>96.0</ele><time>2026-04-02T08:07:00.205Z</time></trkpt><trkpt lat="45.4102433" lon="10.562235"><ele>96.0</ele><time>2026-04-02T08:07:01.207Z</time></trkpt><trkpt lat="45.4103767" lon="10.5622217"><ele>96.0</ele><time>2026-04-02T08:07:02.202Z</time></trkpt><trkpt lat="45.410515" lon="10.5622633"><ele>96.0</ele><time>2026-04-02T08:07:03.216Z</time></trkpt><trkpt lat="45.410655" lon="10.5623283"><ele>96.0</ele><time>2026-04-02T08:07:04.208Z</time></trkpt><trkpt lat="45.4108117" lon="10.5623867"><ele>97.0</ele><time>2026-04-02T08:07:05.216Z</time></trkpt><trkpt lat="45.4109783" lon="10.5624433"><ele>98.0</ele><time>2026-04-02T08:07:06.208Z</time></trkpt><trkpt lat="45.4111317" lon="10.5624783"><ele>99.0</ele><time>2026-04-02T08:07:07.208Z</time></trkpt><trkpt lat="45.4112883" lon="10.56257"><ele>98.66666666666666</ele><time>2026-04-02T08:07:08.203Z</time></trkpt><trkpt lat="45.4114517" lon="10.56267"><ele>98.33333333333333</ele><time>2026-04-02T08:07:09.204Z</time></trkpt><trkpt lat="45.4115933" lon="10.5628283"><ele>98.0</ele><time>2026-04-02T08:07:10.206Z</time></trkpt><trkpt lat="45.411745" lon="10.5629617"><ele>98.0</ele><time>2026-04-02T08:07:11.216Z</time></trkpt><trkpt lat="45.4119067" lon="10.5631117"><ele>98.0</ele><time>2026-04-02T08:07:12.208Z</time></trkpt><trkpt lat="45.41207" lon="10.5632517"><ele>98.0</ele><time>2026-04-02T08:07:13.206Z</time></trkpt><trkpt lat="45.4121817" lon="10.563375"><ele>97.75</ele><time>2026-04-02T08:07:14.211Z</time></trkpt><trkpt lat="45.4122717" lon="10.5634783"><ele>97.5</ele><time>2026-04-02T08:07:15.205Z</time></trkpt><trkpt lat="45.4123833" lon="10.56359"><ele>97.25</ele><time>2026-04-02T08:07:16.209Z</time></trkpt><trkpt lat="45.4124717" lon="10.5637017"><ele>97.0</ele><time>2026-04-02T08:07:17.214Z</time></trkpt><trkpt lat="45.4125683" lon="10.5638083"><ele>97.0</ele><time>2026-04-02T08:07:18.212Z</time></trkpt><trkpt lat="45.41267" lon="10.5639383"><ele>97.0</ele><time>2026-04-02T08:07:19.206Z</time></trkpt><trkpt lat="45.4127767" lon="10.5640567"><ele>97.0</ele><time>2026-04-02T08:07:20.21Z</time></trkpt><trkpt lat="45.4128733" lon="10.56418"><ele>97.0</ele><time>2026-04-02T08:07:21.203Z</time></trkpt><trkpt lat="45.4129667" lon="10.56429"><ele>97.0</ele><time>2026-04-02T08:07:22.214Z</time></trkpt><trkpt lat="45.4130667" lon="10.5643733"><ele>97.0</ele><time>2026-04-02T08:07:23.21Z</time></trkpt><trkpt lat="45.4131817" lon="10.5644367"><ele>97.0</ele><time>2026-04-02T08:07:24.208Z</time></trkpt><trkpt lat="45.4132683" lon="10.56448"><ele>97.0</ele><time>2026-04-02T08:07:25.206Z</time></trkpt><trkpt lat="45.4133517" lon="10.5645417"><ele>97.0</ele><time>2026-04-02T08:07:26.207Z</time></trkpt><trkpt lat="45.4134233" lon="10.5646217"><ele>97.16666666666667</ele><time>2026-04-02T08:07:27.214Z</time></trkpt><trkpt lat="45.41349" lon="10.56466"><ele>97.33333333333334</ele><time>2026-04-02T08:07:28.203Z</time></trkpt><trkpt lat="45.4135567" lon="10.5646917"><ele>97.5</ele><time>2026-04-02T08:07:29.212Z</time></trkpt><trkpt lat="45.413655" lon="10.5647317"><ele>97.66666666666666</ele><time>2026-04-02T08:07:31.21Z</time></trkpt><trkpt lat="45.4137267" lon="10.5647467"><ele>97.83333333333333</ele><time>2026-04-02T08:07:34.219Z</time></trkpt><trkpt lat="45.4138017" lon="10.5647133"><ele>98.0</ele><time>2026-04-02T08:07:36.21Z</time></trkpt><trkpt lat="45.41392" lon="10.5646333"><ele>98.33333333333333</ele><time>2026-04-02T08:07:38.246Z</time></trkpt><trkpt lat="45.413995" lon="10.56458"><ele>98.66666666666666</ele><time>2026-04-02T08:07:39.228Z</time></trkpt><trkpt lat="45.4140817" lon="10.5645183"><ele>99.0</ele><time>2026-04-02T08:07:40.206Z</time></trkpt><trkpt lat="45.4141483" lon="10.5644617"><ele>99.33333333333334</ele><time>2026-04-02T08:07:41.212Z</time></trkpt><trkpt lat="45.414235" lon="10.56442"><ele>99.66666666666667</ele><time>2026-04-02T08:07:42.236Z</time></trkpt><trkpt lat="45.4143133" lon="10.5643783"><ele>100.0</ele><time>2026-04-02T08:07:43.215Z</time></trkpt><trkpt lat="45.4143867" lon="10.564295"><ele>100.00000000000001</ele><time>2026-04-02T08:07:44.208Z</time></trkpt><trkpt lat="45.4144717" lon="10.5642833"><ele>100.0</ele><time>2026-04-02T08:07:45.208Z</time></trkpt><trkpt lat="45.4145433" lon="10.564235"><ele>100.0</ele><time>2026-04-02T08:07:46.208Z</time></trkpt><trkpt lat="45.4146017" lon="10.5641833"><ele>100.0</ele><time>2026-04-02T08:07:47.21Z</time></trkpt><trkpt lat="45.4146517" lon="10.5641117"><ele>100.00000000000001</ele><time>2026-04-02T08:07:49.21Z</time></trkpt><trkpt lat="45.414565" lon="10.5641017"><ele>100.0</ele><time>2026-04-02T08:07:53.204Z</time></trkpt><trkpt lat="45.41446" lon="10.5642017"><ele>100.0</ele><time>2026-04-02T08:07:55.215Z</time></trkpt><trkpt lat="45.41438" lon="10.5642517"><ele>100.0</ele><time>2026-04-02T08:07:56.208Z</time></trkpt><trkpt lat="45.41428" lon="10.5642983"><ele>100.0</ele><time>2026-04-02T08:07:57.215Z</time></trkpt><trkpt lat="45.414165" lon="10.5643483"><ele>100.0</ele><time>2026-04-02T08:07:58.213Z</time></trkpt><trkpt lat="45.4140433" lon="10.564435"><ele>100.0</ele><time>2026-04-02T08:07:59.209Z</time></trkpt><trkpt lat="45.41394" lon="10.56453"><ele>99.5</ele><time>2026-04-02T08:08:00.221Z</time></trkpt><trkpt lat="45.41385" lon="10.56465"><ele>99.0</ele><time>2026-04-02T08:08:01.21Z</time></trkpt><trkpt lat="45.4137617" lon="10.5647817"><ele>98.5</ele><time>2026-04-02T08:08:02.218Z</time></trkpt><trkpt lat="45.41369" lon="10.564955"><ele>98.0</ele><time>2026-04-02T08:08:03.215Z</time></trkpt><trkpt lat="45.4136317" lon="10.5651433"><ele>99.0</ele><time>2026-04-02T08:08:04.216Z</time></trkpt><trkpt lat="45.4135583" lon="10.565375"><ele>100.0</ele><time>2026-04-02T08:08:05.214Z</time></trkpt><trkpt lat="45.41347" lon="10.56559"><ele>101.0</ele><time>2026-04-02T08:08:06.216Z</time></trkpt><trkpt lat="45.4134033" lon="10.56584"><ele>101.0</ele><time>2026-04-02T08:08:07.216Z</time></trkpt><trkpt lat="45.413325" lon="10.5660817"><ele>101.0</ele><time>2026-04-02T08:08:08.214Z</time></trkpt><trkpt lat="45.41324" lon="10.5663267"><ele>101.0</ele><time>2026-04-02T08:08:09.226Z</time></trkpt><trkpt lat="45.4131583" lon="10.566545"><ele>101.0</ele><time>2026-04-02T08:08:10.211Z</time></trkpt><trkpt lat="45.4130917" lon="10.5668017"><ele>101.0</ele><time>2026-04-02T08:08:11.223Z</time></trkpt><trkpt lat="45.41305" lon="10.5670017"><ele>101.0</ele><time>2026-04-02T08:08:12.208Z</time></trkpt><trkpt lat="45.4129917" lon="10.5672433"><ele>99.66666666666666</ele><time>2026-04-02T08:08:13.204Z</time></trkpt><trkpt lat="45.4129317" lon="10.567475"><ele>98.33333333333334</ele><time>2026-04-02T08:08:14.207Z</time></trkpt><trkpt lat="45.41286" lon="10.56766"><ele>97.0</ele><time>2026-04-02T08:08:15.21Z</time></trkpt><trkpt lat="45.412775" lon="10.5678317"><ele>99.0</ele><time>2026-04-02T08:08:16.206Z</time></trkpt><trkpt lat="45.4126683" lon="10.5680017"><ele>101.0</ele><time>2026-04-02T08:08:17.206Z</time></trkpt><trkpt lat="45.4125567" lon="10.5681483"><ele>103.0</ele><time>2026-04-02T08:08:18.23Z</time></trkpt><trkpt lat="45.412435" lon="10.5682783"><ele>103.0</ele><time>2026-04-02T08:08:19.215Z</time></trkpt><trkpt lat="45.4123333" lon="10.5684283"><ele>103.0</ele><time>2026-04-02T08:08:20.208Z</time></trkpt><trkpt lat="45.4122583" lon="10.5685733"><ele>103.0</ele><time>2026-04-02T08:08:21.217Z</time></trkpt><trkpt lat="45.41216" lon="10.5687067"><ele>103.0</ele><time>2026-04-02T08:08:22.222Z</time></trkpt><trkpt lat="45.4120867" lon="10.5688717"><ele>103.25</ele><time>2026-04-02T08:08:23.207Z</time></trkpt><trkpt lat="45.4120067" lon="10.5690417"><ele>103.5</ele><time>2026-04-02T08:08:24.218Z</time></trkpt><trkpt lat="45.4119117" lon="10.5692183"><ele>103.75</ele><time>2026-04-02T08:08:25.207Z</time></trkpt><trkpt lat="45.4118317" lon="10.5693917"><ele>104.0</ele><time>2026-04-02T08:08:26.208Z</time></trkpt><trkpt lat="45.41175" lon="10.5695367"><ele>104.0</ele><time>2026-04-02T08:08:27.214Z</time></trkpt><trkpt lat="45.4116933" lon="10.56968"><ele>104.0</ele><time>2026-04-02T08:08:28.206Z</time></trkpt><trkpt lat="45.41165" lon="10.56982"><ele>104.0</ele><time>2026-04-02T08:08:29.204Z</time></trkpt><trkpt lat="45.4116017" lon="10.5699433"><ele>104.0</ele><time>2026-04-02T08:08:30.221Z</time></trkpt><trkpt lat="45.4115617" lon="10.57005"><ele>104.0</ele><time>2026-04-02T08:08:31.215Z</time></trkpt><trkpt lat="45.4115333" lon="10.5701417"><ele>103.99999999999999</ele><time>2026-04-02T08:08:32.206Z</time></trkpt><trkpt lat="45.4115033" lon="10.570225"><ele>104.0</ele><time>2026-04-02T08:08:33.224Z</time></trkpt><trkpt lat="45.4114533" lon="10.5703667"><ele>104.0</ele><time>2026-04-02T08:08:35.202Z</time></trkpt><trkpt lat="45.4114083" lon="10.5705017"><ele>104.0</ele><time>2026-04-02T08:08:37.217Z</time></trkpt><trkpt lat="45.41138" lon="10.5706067"><ele>103.99999999999999</ele><time>2026-04-02T08:08:39.208Z</time></trkpt><trkpt lat="45.411385" lon="10.5707033"><ele>104.0</ele><time>2026-04-02T08:08:42.21Z</time></trkpt><trkpt lat="45.41144" lon="10.5705817"><ele>104.0</ele><time>2026-04-02T08:08:54.203Z</time></trkpt><trkpt lat="45.4114633" lon="10.5704583"><ele>104.0</ele><time>2026-04-02T08:08:55.212Z</time></trkpt><trkpt lat="45.4115017" lon="10.57032"><ele>104.0</ele><time>2026-04-02T08:08:56.204Z</time></trkpt><trkpt lat="45.4115533" lon="10.5701417"><ele>104.0</ele><time>2026-04-02T08:08:57.204Z</time></trkpt><trkpt lat="45.4116083" lon="10.569985"><ele>103.99999999999999</ele><time>2026-04-02T08:08:58.207Z</time></trkpt><trkpt lat="45.41165" lon="10.5698583"><ele>104.0</ele><time>2026-04-02T08:08:59.21Z</time></trkpt><trkpt lat="45.4116867" lon="10.5697283"><ele>104.0</ele><time>2026-04-02T08:09:00.219Z</time></trkpt><trkpt lat="45.4117217" lon="10.569615"><ele>104.0</ele><time>2026-04-02T08:09:01.203Z</time></trkpt><trkpt lat="45.4117667" lon="10.569515"><ele>103.99999999999999</ele><time>2026-04-02T08:09:02.211Z</time></trkpt><trkpt lat="45.4118067" lon="10.5694217"><ele>104.0</ele><time>2026-04-02T08:09:03.209Z</time></trkpt><trkpt lat="45.4118483" lon="10.5693533"><ele>104.0</ele><time>2026-04-02T08:09:04.228Z</time></trkpt><trkpt lat="45.4119333" lon="10.5693167"><ele>104.0</ele><time>2026-04-02T08:09:06.212Z</time></trkpt><trkpt lat="45.4120133" lon="10.5694217"><ele>104.0</ele><time>2026-04-02T08:09:08.219Z</time></trkpt><trkpt lat="45.4120633" lon="10.5694917"><ele>104.0</ele><time>2026-04-02T08:09:09.232Z</time></trkpt><trkpt lat="45.412115" lon="10.5695533"><ele>104.0</ele><time>2026-04-02T08:09:10.222Z</time></trkpt><trkpt lat="45.412205" lon="10.5696633"><ele>103.80000000000001</ele><time>2026-04-02T08:09:12.216Z</time></trkpt><trkpt lat="45.412255" lon="10.56974"><ele>103.60000000000001</ele><time>2026-04-02T08:09:13.213Z</time></trkpt><trkpt lat="45.4122983" lon="10.5698417"><ele>103.4</ele><time>2026-04-02T08:09:14.21Z</time></trkpt><trkpt lat="45.4123433" lon="10.5699733"><ele>103.2</ele><time>2026-04-02T08:09:15.21Z</time></trkpt><trkpt lat="45.4123967" lon="10.57012"><ele>103.0</ele><time>2026-04-02T08:09:16.248Z</time></trkpt><trkpt lat="45.41246" lon="10.570305"><ele>102.5</ele><time>2026-04-02T08:09:17.205Z</time></trkpt><trkpt lat="45.4125133" lon="10.57047"><ele>102.0</ele><time>2026-04-02T08:09:18.207Z</time></trkpt><trkpt lat="45.4125517" lon="10.5706067"><ele>101.5</ele><time>2026-04-02T08:09:19.215Z</time></trkpt><trkpt lat="45.41259" lon="10.5707583"><ele>101.0</ele><time>2026-04-02T08:09:20.203Z</time></trkpt><trkpt lat="45.4126217" lon="10.5709133"><ele>101.0</ele><time>2026-04-02T08:09:21.201Z</time></trkpt><trkpt lat="45.412635" lon="10.5710717"><ele>101.0</ele><time>2026-04-02T08:09:22.205Z</time></trkpt><trkpt lat="45.4126433" lon="10.571225"><ele>101.0</ele><time>2026-04-02T08:09:23.204Z</time></trkpt><trkpt lat="45.4126583" lon="10.5713567"><ele>101.0</ele><time>2026-04-02T08:09:24.207Z</time></trkpt><trkpt lat="45.4126583" lon="10.5714733"><ele>101.0</ele><time>2026-04-02T08:09:25.206Z</time></trkpt><trkpt lat="45.4126667" lon="10.571585"><ele>101.0</ele><time>2026-04-02T08:09:26.205Z</time></trkpt><trkpt lat="45.4126867" lon="10.5716783"><ele>101.0</ele><time>2026-04-02T08:09:27.212Z</time></trkpt><trkpt lat="45.41279" lon="10.5717967"><ele>101.0</ele><time>2026-04-02T08:09:29.204Z</time></trkpt><trkpt lat="45.4128717" lon="10.571845"><ele>101.0</ele><time>2026-04-02T08:09:30.203Z</time></trkpt><trkpt lat="45.4129633" lon="10.5718767"><ele>101.0</ele><time>2026-04-02T08:09:31.207Z</time></trkpt><trkpt lat="45.41306" lon="10.571935"><ele>101.0</ele><time>2026-04-02T08:09:32.208Z</time></trkpt><trkpt lat="45.4131867" lon="10.5719917"><ele>101.0</ele><time>2026-04-02T08:09:33.205Z</time></trkpt><trkpt lat="45.4132967" lon="10.57207"><ele>101.0</ele><time>2026-04-02T08:09:34.206Z</time></trkpt><trkpt lat="45.4134167" lon="10.5721517"><ele>101.0</ele><time>2026-04-02T08:09:35.214Z</time></trkpt><trkpt lat="45.413525" lon="10.5722267"><ele>100.75</ele><time>2026-04-02T08:09:36.203Z</time></trkpt><trkpt lat="45.413635" lon="10.5722883"><ele>100.5</ele><time>2026-04-02T08:09:37.211Z</time></trkpt><trkpt lat="45.4137567" lon="10.5723733"><ele>100.25</ele><time>2026-04-02T08:09:38.205Z</time></trkpt><trkpt lat="45.4138817" lon="10.5724533"><ele>100.0</ele><time>2026-04-02T08:09:39.208Z</time></trkpt><trkpt lat="45.4139883" lon="10.5725033"><ele>100.00000000000001</ele><time>2026-04-02T08:09:40.201Z</time></trkpt><trkpt lat="45.4140583" lon="10.57255"><ele>100.0</ele><time>2026-04-02T08:09:41.205Z</time></trkpt><trkpt lat="45.4141233" lon="10.5725833"><ele>100.0</ele><time>2026-04-02T08:09:42.204Z</time></trkpt><trkpt lat="45.4141917" lon="10.5726767"><ele>100.0</ele><time>2026-04-02T08:09:44.209Z</time></trkpt><trkpt lat="45.4141883" lon="10.5727817"><ele>100.00000000000001</ele><time>2026-04-02T08:09:46.205Z</time></trkpt><trkpt lat="45.41418" lon="10.5729"><ele>100.0</ele><time>2026-04-02T08:09:48.204Z</time></trkpt><trkpt lat="45.41418" lon="10.5730067"><ele>99.8</ele><time>2026-04-02T08:09:50.206Z</time></trkpt><trkpt lat="45.4142333" lon="10.5730817"><ele>99.6</ele><time>2026-04-02T08:09:52.202Z</time></trkpt><trkpt lat="45.4143217" lon="10.5732267"><ele>99.4</ele><time>2026-04-02T08:09:54.203Z</time></trkpt><trkpt lat="45.41437" lon="10.57333"><ele>99.2</ele><time>2026-04-02T08:09:55.206Z</time></trkpt><trkpt lat="45.41442" lon="10.5734717"><ele>99.0</ele><time>2026-04-02T08:09:56.206Z</time></trkpt><trkpt lat="45.41448" lon="10.573585"><ele>98.75</ele><time>2026-04-02T08:09:57.207Z</time></trkpt><trkpt lat="45.4145583" lon="10.5737283"><ele>98.5</ele><time>2026-04-02T08:09:58.204Z</time></trkpt><trkpt lat="45.4146217" lon="10.5738617"><ele>98.25</ele><time>2026-04-02T08:09:59.204Z</time></trkpt><trkpt lat="45.4146783" lon="10.5740017"><ele>98.0</ele><time>2026-04-02T08:10:00.209Z</time></trkpt><trkpt lat="45.41475" lon="10.5741283"><ele>97.99999999999999</ele><time>2026-04-02T08:10:01.202Z</time></trkpt><trkpt lat="45.414795" lon="10.5742183"><ele>98.0</ele><time>2026-04-02T08:10:02.199Z</time></trkpt><trkpt lat="45.4148567" lon="10.5743"><ele>98.0</ele><time>2026-04-02T08:10:04.206Z</time></trkpt><trkpt lat="45.4149117" lon="10.57438"><ele>98.0</ele><time>2026-04-02T08:10:07.204Z</time></trkpt><trkpt lat="45.4149833" lon="10.5744083"><ele>97.99999999999999</ele><time>2026-04-02T08:10:11.206Z</time></trkpt><trkpt lat="45.41504" lon="10.5744883"><ele>98.0</ele><time>2026-04-02T08:10:14.201Z</time></trkpt><trkpt lat="45.4150383" lon="10.57462"><ele>97.60000000000001</ele><time>2026-04-02T08:10:16.2Z</time></trkpt><trkpt lat="45.4150067" lon="10.5747917"><ele>97.2</ele><time>2026-04-02T08:10:18.209Z</time></trkpt><trkpt lat="45.4149717" lon="10.5749017"><ele>96.8</ele><time>2026-04-02T08:10:19.209Z</time></trkpt><trkpt lat="45.4149333" lon="10.57502"><ele>96.4</ele><time>2026-04-02T08:10:20.202Z</time></trkpt><trkpt lat="45.4148917" lon="10.575145"><ele>96.0</ele><time>2026-04-02T08:10:21.204Z</time></trkpt><trkpt lat="45.4148283" lon="10.5752767"><ele>96.4</ele><time>2026-04-02T08:10:22.216Z</time></trkpt><trkpt lat="45.4147633" lon="10.5754"><ele>96.8</ele><time>2026-04-02T08:10:23.209Z</time></trkpt><trkpt lat="45.4147083" lon="10.575505"><ele>97.2</ele><time>2026-04-02T08:10:24.204Z</time></trkpt><trkpt lat="45.4146583" lon="10.5756033"><ele>97.60000000000001</ele><time>2026-04-02T08:10:25.203Z</time></trkpt><trkpt lat="45.4146" lon="10.5757267"><ele>98.0</ele><time>2026-04-02T08:10:26.207Z</time></trkpt><trkpt lat="45.4145417" lon="10.5758633"><ele>98.16666666666666</ele><time>2026-04-02T08:10:27.213Z</time></trkpt><trkpt lat="45.41449" lon="10.575985"><ele>98.33333333333333</ele><time>2026-04-02T08:10:28.216Z</time></trkpt><trkpt lat="45.414435" lon="10.5761"><ele>98.5</ele><time>2026-04-02T08:10:29.214Z</time></trkpt><trkpt lat="45.41439" lon="10.5761767"><ele>98.66666666666666</ele><time>2026-04-02T08:10:30.212Z</time></trkpt><trkpt lat="45.4143483" lon="10.57626"><ele>98.83333333333333</ele><time>2026-04-02T08:10:31.21Z</time></trkpt><trkpt lat="45.4143117" lon="10.57635"><ele>99.0</ele><time>2026-04-02T08:10:32.207Z</time></trkpt><trkpt lat="45.4142783" lon="10.576455"><ele>99.0</ele><time>2026-04-02T08:10:33.206Z</time></trkpt><trkpt lat="45.4142417" lon="10.5765767"><ele>99.0</ele><time>2026-04-02T08:10:34.204Z</time></trkpt><trkpt lat="45.4142133" lon="10.5766983"><ele>99.0</ele><time>2026-04-02T08:10:35.207Z</time></trkpt><trkpt lat="45.4141817" lon="10.576815"><ele>99.0</ele><time>2026-04-02T08:10:36.209Z</time></trkpt><trkpt lat="45.4141533" lon="10.57691"><ele>99.0</ele><time>2026-04-02T08:10:37.209Z</time></trkpt><trkpt lat="45.4141267" lon="10.5769917"><ele>99.0</ele><time>2026-04-02T08:10:38.209Z</time></trkpt><trkpt lat="45.4141033" lon="10.5770817"><ele>99.0</ele><time>2026-04-02T08:10:39.208Z</time></trkpt><trkpt lat="45.4140717" lon="10.5771833"><ele>99.0</ele><time>2026-04-02T08:10:40.207Z</time></trkpt><trkpt lat="45.4140333" lon="10.5772933"><ele>99.0</ele><time>2026-04-02T08:10:41.212Z</time></trkpt><trkpt lat="45.413995" lon="10.5774133"><ele>99.0</ele><time>2026-04-02T08:10:42.211Z</time></trkpt><trkpt lat="45.4139533" lon="10.5775367"><ele>99.0</ele><time>2026-04-02T08:10:43.208Z</time></trkpt><trkpt lat="45.413915" lon="10.57766"><ele>99.0</ele><time>2026-04-02T08:10:44.204Z</time></trkpt><trkpt lat="45.4138817" lon="10.5777683"><ele>99.0</ele><time>2026-04-02T08:10:45.22Z</time></trkpt><trkpt lat="45.4138483" lon="10.577875"><ele>99.0</ele><time>2026-04-02T08:10:46.205Z</time></trkpt><trkpt lat="45.4138167" lon="10.5779917"><ele>99.0</ele><time>2026-04-02T08:10:47.218Z</time></trkpt><trkpt lat="45.4137833" lon="10.5781033"><ele>99.0</ele><time>2026-04-02T08:10:48.219Z</time></trkpt><trkpt lat="45.41375" lon="10.5782117"><ele>99.0</ele><time>2026-04-02T08:10:49.211Z</time></trkpt><trkpt lat="45.4137133" lon="10.5783217"><ele>99.0</ele><time>2026-04-02T08:10:50.206Z</time></trkpt><trkpt lat="45.4136817" lon="10.5784367"><ele>99.0</ele><time>2026-04-02T08:10:51.219Z</time></trkpt><trkpt lat="45.4136467" lon="10.5785433"><ele>99.0</ele><time>2026-04-02T08:10:52.205Z</time></trkpt><trkpt lat="45.41361" lon="10.57865"><ele>99.0</ele><time>2026-04-02T08:10:53.212Z</time></trkpt><trkpt lat="45.4135767" lon="10.5787567"><ele>99.0</ele><time>2026-04-02T08:10:54.211Z</time></trkpt><trkpt lat="45.413545" lon="10.5788483"><ele>99.0</ele><time>2026-04-02T08:10:55.207Z</time></trkpt><trkpt lat="45.41351" lon="10.578945"><ele>99.0</ele><time>2026-04-02T08:10:56.21Z</time></trkpt><trkpt lat="45.413475" lon="10.579045"><ele>99.0</ele><time>2026-04-02T08:10:57.202Z</time></trkpt><trkpt lat="45.41344" lon="10.5791483"><ele>99.0</ele><time>2026-04-02T08:10:58.206Z</time></trkpt><trkpt lat="45.4134067" lon="10.5792533"><ele>99.0</ele><time>2026-04-02T08:10:59.214Z</time></trkpt><trkpt lat="45.413375" lon="10.5793533"><ele>99.0</ele><time>2026-04-02T08:11:00.215Z</time></trkpt><trkpt lat="45.4133317" lon="10.5794567"><ele>99.0</ele><time>2026-04-02T08:11:01.219Z</time></trkpt><trkpt lat="45.41329" lon="10.5795583"><ele>99.0</ele><time>2026-04-02T08:11:02.21Z</time></trkpt><trkpt lat="45.4132517" lon="10.5796517"><ele>99.0</ele><time>2026-04-02T08:11:03.205Z</time></trkpt><trkpt lat="45.4132183" lon="10.5797367"><ele>99.0</ele><time>2026-04-02T08:11:04.21Z</time></trkpt><trkpt lat="45.413185" lon="10.5798133"><ele>99.0</ele><time>2026-04-02T08:11:05.202Z</time></trkpt><trkpt lat="45.4131333" lon="10.5799383"><ele>99.0</ele><time>2026-04-02T08:11:07.217Z</time></trkpt><trkpt lat="45.41311" lon="10.5800317"><ele>99.0</ele><time>2026-04-02T08:11:09.213Z</time></trkpt><trkpt lat="45.4131233" lon="10.5801583"><ele>99.0</ele><time>2026-04-02T08:11:13.214Z</time></trkpt><trkpt lat="45.4132033" lon="10.5802467"><ele>99.0</ele><time>2026-04-02T08:11:15.202Z</time></trkpt><trkpt lat="45.41326" lon="10.580295"><ele>99.0</ele><time>2026-04-02T08:11:16.203Z</time></trkpt><trkpt lat="45.4133233" lon="10.5803517"><ele>99.0</ele><time>2026-04-02T08:11:17.215Z</time></trkpt><trkpt lat="45.4133933" lon="10.5804233"><ele>99.0</ele><time>2026-04-02T08:11:18.214Z</time></trkpt><trkpt lat="45.41347" lon="10.580505"><ele>99.0</ele><time>2026-04-02T08:11:19.209Z</time></trkpt><trkpt lat="45.413565" lon="10.58062"><ele>99.0</ele><time>2026-04-02T08:11:20.21Z</time></trkpt><trkpt lat="45.4136467" lon="10.580725"><ele>99.0</ele><time>2026-04-02T08:11:21.206Z</time></trkpt><trkpt lat="45.4137167" lon="10.58081"><ele>99.0</ele><time>2026-04-02T08:11:22.206Z</time></trkpt><trkpt lat="45.4137833" lon="10.58091"><ele>99.0</ele><time>2026-04-02T08:11:23.209Z</time></trkpt><trkpt lat="45.4138667" lon="10.5809817"><ele>99.0</ele><time>2026-04-02T08:11:24.211Z</time></trkpt><trkpt lat="45.41395" lon="10.58107"><ele>99.0</ele><time>2026-04-02T08:11:25.213Z</time></trkpt><trkpt lat="45.4140317" lon="10.5811567"><ele>98.6</ele><time>2026-04-02T08:11:26.208Z</time></trkpt><trkpt lat="45.4141033" lon="10.5812533"><ele>98.2</ele><time>2026-04-02T08:11:27.205Z</time></trkpt><trkpt lat="45.414175" lon="10.58134"><ele>97.8</ele><time>2026-04-02T08:11:28.202Z</time></trkpt><trkpt lat="45.414255" lon="10.5814233"><ele>97.39999999999999</ele><time>2026-04-02T08:11:29.211Z</time></trkpt><trkpt lat="45.4143483" lon="10.581495"><ele>97.0</ele><time>2026-04-02T08:11:30.212Z</time></trkpt><trkpt lat="45.4144317" lon="10.5816067"><ele>97.00000000000001</ele><time>2026-04-02T08:11:31.209Z</time></trkpt><trkpt lat="45.4145117" lon="10.5817"><ele>97.0</ele><time>2026-04-02T08:11:32.208Z</time></trkpt><trkpt lat="45.4145833" lon="10.58177"><ele>97.0</ele><time>2026-04-02T08:11:33.206Z</time></trkpt><trkpt lat="45.414635" lon="10.5818283"><ele>97.0</ele><time>2026-04-02T08:11:34.213Z</time></trkpt><trkpt lat="45.4147133" lon="10.5819117"><ele>97.00000000000001</ele><time>2026-04-02T08:11:36.21Z</time></trkpt><trkpt lat="45.4147183" lon="10.5820167"><ele>97.0</ele><time>2026-04-02T08:11:38.206Z</time></trkpt><trkpt lat="45.4146767" lon="10.5821"><ele>97.0</ele><time>2026-04-02T08:11:39.208Z</time></trkpt><trkpt lat="45.41462" lon="10.58225"><ele>97.0</ele><time>2026-04-02T08:11:41.211Z</time></trkpt><trkpt lat="45.4146433" lon="10.5824067"><ele>97.0</ele><time>2026-04-02T08:11:43.207Z</time></trkpt><trkpt lat="45.4146833" lon="10.582505"><ele>97.0</ele><time>2026-04-02T08:11:44.206Z</time></trkpt><trkpt lat="45.414735" lon="10.5826133"><ele>97.0</ele><time>2026-04-02T08:11:45.208Z</time></trkpt><trkpt lat="45.4147983" lon="10.5827383"><ele>96.5</ele><time>2026-04-02T08:11:46.208Z</time></trkpt><trkpt lat="45.4148683" lon="10.5828933"><ele>96.0</ele><time>2026-04-02T08:11:47.205Z</time></trkpt><trkpt lat="45.4149283" lon="10.58303"><ele>95.5</ele><time>2026-04-02T08:11:48.203Z</time></trkpt><trkpt lat="45.41499" lon="10.583185"><ele>95.0</ele><time>2026-04-02T08:11:49.207Z</time></trkpt><trkpt lat="45.41504" lon="10.5833283"><ele>95.0</ele><time>2026-04-02T08:11:50.209Z</time></trkpt><trkpt lat="45.415075" lon="10.5834367"><ele>95.0</ele><time>2026-04-02T08:11:51.206Z</time></trkpt><trkpt lat="45.4151117" lon="10.5835483"><ele>95.0</ele><time>2026-04-02T08:11:52.213Z</time></trkpt><trkpt lat="45.41513" lon="10.5836717"><ele>95.0</ele><time>2026-04-02T08:11:53.208Z</time></trkpt><trkpt lat="45.4151217" lon="10.5838317"><ele>95.0</ele><time>2026-04-02T08:11:54.206Z</time></trkpt><trkpt lat="45.4151383" lon="10.5839817"><ele>95.2</ele><time>2026-04-02T08:11:55.211Z</time></trkpt><trkpt lat="45.4151633" lon="10.5841433"><ele>95.4</ele><time>2026-04-02T08:11:56.202Z</time></trkpt><trkpt lat="45.4152083" lon="10.5842867"><ele>95.6</ele><time>2026-04-02T08:11:57.207Z</time></trkpt><trkpt lat="45.415245" lon="10.5844167"><ele>95.8</ele><time>2026-04-02T08:11:58.21Z</time></trkpt><trkpt lat="45.4152733" lon="10.5845167"><ele>96.0</ele><time>2026-04-02T08:11:59.208Z</time></trkpt><trkpt lat="45.4153083" lon="10.5845917"><ele>96.0</ele><time>2026-04-02T08:12:00.207Z</time></trkpt><trkpt lat="45.415375" lon="10.5846433"><ele>96.0</ele><time>2026-04-02T08:12:03.2Z</time></trkpt><trkpt lat="45.4155017" lon="10.5846067"><ele>96.0</ele><time>2026-04-02T08:12:05.206Z</time></trkpt><trkpt lat="45.415585" lon="10.5845667"><ele>96.0</ele><time>2026-04-02T08:12:06.212Z</time></trkpt><trkpt lat="45.41568" lon="10.5845167"><ele>96.0</ele><time>2026-04-02T08:12:07.203Z</time></trkpt><trkpt lat="45.41578" lon="10.5844667"><ele>96.0</ele><time>2026-04-02T08:12:08.207Z</time></trkpt><trkpt lat="45.4158833" lon="10.58443"><ele>96.0</ele><time>2026-04-02T08:12:09.202Z</time></trkpt><trkpt lat="45.4160017" lon="10.58436"><ele>96.0</ele><time>2026-04-02T08:12:10.207Z</time></trkpt><trkpt lat="45.41611" lon="10.5843217"><ele>96.0</ele><time>2026-04-02T08:12:11.213Z</time></trkpt><trkpt lat="45.41621" lon="10.5842867"><ele>96.0</ele><time>2026-04-02T08:12:12.208Z</time></trkpt><trkpt lat="45.4163283" lon="10.5842333"><ele>95.8</ele><time>2026-04-02T08:12:13.226Z</time></trkpt><trkpt lat="45.4164133" lon="10.584235"><ele>95.6</ele><time>2026-04-02T08:12:14.211Z</time></trkpt><trkpt lat="45.4164933" lon="10.5842983"><ele>95.4</ele><time>2026-04-02T08:12:15.211Z</time></trkpt><trkpt lat="45.4165667" lon="10.5844083"><ele>95.2</ele><time>2026-04-02T08:12:16.2Z</time></trkpt><trkpt lat="45.41661" lon="10.58456"><ele>95.0</ele><time>2026-04-02T08:12:17.21Z</time></trkpt><trkpt lat="45.4166433" lon="10.584735"><ele>94.8</ele><time>2026-04-02T08:12:18.213Z</time></trkpt><trkpt lat="45.41668" lon="10.58488"><ele>94.6</ele><time>2026-04-02T08:12:19.206Z</time></trkpt><trkpt lat="45.416745" lon="10.58499"><ele>94.4</ele><time>2026-04-02T08:12:20.205Z</time></trkpt><trkpt lat="45.4168167" lon="10.5850717"><ele>94.2</ele><time>2026-04-02T08:12:21.203Z</time></trkpt><trkpt lat="45.4169183" lon="10.5851167"><ele>94.0</ele><time>2026-04-02T08:12:22.204Z</time></trkpt><trkpt lat="45.4170267" lon="10.5851133"><ele>94.0</ele><time>2026-04-02T08:12:23.21Z</time></trkpt><trkpt lat="45.4171483" lon="10.585095"><ele>94.0</ele><time>2026-04-02T08:12:24.209Z</time></trkpt><trkpt lat="45.4172683" lon="10.585055"><ele>94.0</ele><time>2026-04-02T08:12:25.208Z</time></trkpt><trkpt lat="45.4173733" lon="10.5849983"><ele>94.0</ele><time>2026-04-02T08:12:26.204Z</time></trkpt><trkpt lat="45.4174783" lon="10.5849467"><ele>94.5</ele><time>2026-04-02T08:12:27.205Z</time></trkpt><trkpt lat="45.417565" lon="10.5848833"><ele>95.0</ele><time>2026-04-02T08:12:28.199Z</time></trkpt><trkpt lat="45.4176533" lon="10.5848433"><ele>95.5</ele><time>2026-04-02T08:12:29.209Z</time></trkpt><trkpt lat="45.4177067" lon="10.584795"><ele>96.0</ele><time>2026-04-02T08:12:30.208Z</time></trkpt><trkpt lat="45.4177817" lon="10.5847383"><ele>96.50000000000001</ele><time>2026-04-02T08:12:32.207Z</time></trkpt><trkpt lat="45.417835" lon="10.5848167"><ele>97.0</ele><time>2026-04-02T08:12:36.208Z</time></trkpt><trkpt lat="45.4178283" lon="10.5849617"><ele>97.0</ele><time>2026-04-02T08:12:38.205Z</time></trkpt><trkpt lat="45.41782" lon="10.58507"><ele>97.0</ele><time>2026-04-02T08:12:39.204Z</time></trkpt><trkpt lat="45.4178117" lon="10.5852083"><ele>97.0</ele><time>2026-04-02T08:12:40.206Z</time></trkpt><trkpt lat="45.417795" lon="10.5853433"><ele>97.0</ele><time>2026-04-02T08:12:41.202Z</time></trkpt><trkpt lat="45.417795" lon="10.5855133"><ele>97.0</ele><time>2026-04-02T08:12:42.202Z</time></trkpt><trkpt lat="45.4177683" lon="10.5857033"><ele>96.75</ele><time>2026-04-02T08:12:43.214Z</time></trkpt><trkpt lat="45.4177633" lon="10.5858683"><ele>96.5</ele><time>2026-04-02T08:12:44.205Z</time></trkpt><trkpt lat="45.417755" lon="10.5860333"><ele>96.25</ele><time>2026-04-02T08:12:45.203Z</time></trkpt><trkpt lat="45.417735" lon="10.5861817"><ele>96.0</ele><time>2026-04-02T08:12:46.206Z</time></trkpt><trkpt lat="45.4177033" lon="10.5863483"><ele>96.0</ele><time>2026-04-02T08:12:47.206Z</time></trkpt><trkpt lat="45.4176767" lon="10.5865183"><ele>96.0</ele><time>2026-04-02T08:12:48.201Z</time></trkpt><trkpt lat="45.417655" lon="10.586705"><ele>96.0</ele><time>2026-04-02T08:12:49.21Z</time></trkpt><trkpt lat="45.4176283" lon="10.586895"><ele>96.0</ele><time>2026-04-02T08:12:50.207Z</time></trkpt><trkpt lat="45.4175883" lon="10.587075"><ele>97.0</ele><time>2026-04-02T08:12:51.204Z</time></trkpt><trkpt lat="45.4175483" lon="10.58727"><ele>98.0</ele><time>2026-04-02T08:12:52.203Z</time></trkpt><trkpt lat="45.417505" lon="10.5874717"><ele>99.0</ele><time>2026-04-02T08:12:53.211Z</time></trkpt><trkpt lat="45.4174783" lon="10.5876517"><ele>100.0</ele><time>2026-04-02T08:12:54.204Z</time></trkpt><trkpt lat="45.4174483" lon="10.5878433"><ele>100.75</ele><time>2026-04-02T08:12:55.211Z</time></trkpt><trkpt lat="45.4174183" lon="10.588045"><ele>101.5</ele><time>2026-04-02T08:12:56.208Z</time></trkpt><trkpt lat="45.417395" lon="10.5882467"><ele>102.25</ele><time>2026-04-02T08:12:57.212Z</time></trkpt><trkpt lat="45.41737" lon="10.5884283"><ele>103.0</ele><time>2026-04-02T08:12:58.2Z</time></trkpt><trkpt lat="45.4173533" lon="10.5885983"><ele>103.0</ele><time>2026-04-02T08:12:59.207Z</time></trkpt><trkpt lat="45.417355" lon="10.5887333"><ele>103.0</ele><time>2026-04-02T08:13:00.204Z</time></trkpt><trkpt lat="45.4173633" lon="10.5888667"><ele>103.0</ele><time>2026-04-02T08:13:01.2Z</time></trkpt><trkpt lat="45.41736" lon="10.5889867"><ele>103.0</ele><time>2026-04-02T08:13:02.207Z</time></trkpt><trkpt lat="45.4173933" lon="10.5891517"><ele>103.0</ele><time>2026-04-02T08:13:03.211Z</time></trkpt><trkpt lat="45.4173633" lon="10.5892783"><ele>103.0</ele><time>2026-04-02T08:13:04.204Z</time></trkpt><trkpt lat="45.417355" lon="10.58943"><ele>103.0</ele><time>2026-04-02T08:13:05.206Z</time></trkpt><trkpt lat="45.4173133" lon="10.58959"><ele>103.0</ele><time>2026-04-02T08:13:06.209Z</time></trkpt><trkpt lat="45.4172667" lon="10.5897517"><ele>103.0</ele><time>2026-04-02T08:13:07.205Z</time></trkpt><trkpt lat="45.41722" lon="10.589905"><ele>103.25</ele><time>2026-04-02T08:13:08.208Z</time></trkpt><trkpt lat="45.4171733" lon="10.5900617"><ele>103.5</ele><time>2026-04-02T08:13:09.209Z</time></trkpt><trkpt lat="45.4171" lon="10.5902033"><ele>103.75</ele><time>2026-04-02T08:13:10.209Z</time></trkpt><trkpt lat="45.4170217" lon="10.590345"><ele>104.0</ele><time>2026-04-02T08:13:11.211Z</time></trkpt><trkpt lat="45.4169917" lon="10.5904933"><ele>102.75</ele><time>2026-04-02T08:13:12.205Z</time></trkpt><trkpt lat="45.416935" lon="10.590595"><ele>101.5</ele><time>2026-04-02T08:13:13.215Z</time></trkpt><trkpt lat="45.416885" lon="10.5907583"><ele>100.25</ele><time>2026-04-02T08:13:14.214Z</time></trkpt><trkpt lat="45.4168383" lon="10.5909083"><ele>99.0</ele><time>2026-04-02T08:13:15.21Z</time></trkpt><trkpt lat="45.4168233" lon="10.5910867"><ele>99.0</ele><time>2026-04-02T08:13:16.211Z</time></trkpt><trkpt lat="45.4167767" lon="10.59126"><ele>99.0</ele><time>2026-04-02T08:13:17.221Z</time></trkpt><trkpt lat="45.4167283" lon="10.591485"><ele>99.0</ele><time>2026-04-02T08:13:18.218Z</time></trkpt><trkpt lat="45.4166733" lon="10.5916933"><ele>99.0</ele><time>2026-04-02T08:13:19.209Z</time></trkpt><trkpt lat="45.4165967" lon="10.5918933"><ele>99.0</ele><time>2026-04-02T08:13:20.201Z</time></trkpt><trkpt lat="45.4165383" lon="10.5921033"><ele>99.0</ele><time>2026-04-02T08:13:21.213Z</time></trkpt><trkpt lat="45.4164883" lon="10.5922967"><ele>99.0</ele><time>2026-04-02T08:13:22.208Z</time></trkpt><trkpt lat="45.4164083" lon="10.59247"><ele>99.0</ele><time>2026-04-02T08:13:23.212Z</time></trkpt><trkpt lat="45.41635" lon="10.592625"><ele>99.0</ele><time>2026-04-02T08:13:24.222Z</time></trkpt><trkpt lat="45.4162833" lon="10.592785"><ele>99.0</ele><time>2026-04-02T08:13:25.204Z</time></trkpt><trkpt lat="45.4162167" lon="10.5929267"><ele>98.25</ele><time>2026-04-02T08:13:26.206Z</time></trkpt><trkpt lat="45.416155" lon="10.5930817"><ele>97.5</ele><time>2026-04-02T08:13:27.218Z</time></trkpt><trkpt lat="45.416095" lon="10.5932367"><ele>96.75</ele><time>2026-04-02T08:13:28.208Z</time></trkpt><trkpt lat="45.4160233" lon="10.5934083"><ele>96.0</ele><time>2026-04-02T08:13:29.208Z</time></trkpt><trkpt lat="45.4159317" lon="10.5935583"><ele>95.75</ele><time>2026-04-02T08:13:30.209Z</time></trkpt><trkpt lat="45.4158383" lon="10.5937"><ele>95.5</ele><time>2026-04-02T08:13:31.209Z</time></trkpt><trkpt lat="45.4157417" lon="10.5938217"><ele>95.25</ele><time>2026-04-02T08:13:32.208Z</time></trkpt><trkpt lat="45.4156617" lon="10.5939533"><ele>95.0</ele><time>2026-04-02T08:13:33.204Z</time></trkpt><trkpt lat="45.4155767" lon="10.5940517"><ele>95.0</ele><time>2026-04-02T08:13:34.202Z</time></trkpt><trkpt lat="45.4155" lon="10.5941967"><ele>95.0</ele><time>2026-04-02T08:13:35.212Z</time></trkpt><trkpt lat="45.4154433" lon="10.5943483"><ele>95.0</ele><time>2026-04-02T08:13:36.208Z</time></trkpt><trkpt lat="45.4153983" lon="10.5944733"><ele>95.0</ele><time>2026-04-02T08:13:37.208Z</time></trkpt><trkpt lat="45.415355" lon="10.5945483"><ele>95.0</ele><time>2026-04-02T08:13:38.215Z</time></trkpt><trkpt lat="45.415315" lon="10.594625"><ele>94.8</ele><time>2026-04-02T08:13:39.206Z</time></trkpt><trkpt lat="45.4151933" lon="10.5946517"><ele>94.6</ele><time>2026-04-02T08:13:41.218Z</time></trkpt><trkpt lat="45.4151183" lon="10.5946267"><ele>94.4</ele><time>2026-04-02T08:13:42.209Z</time></trkpt><trkpt lat="45.4150283" lon="10.5945767"><ele>94.2</ele><time>2026-04-02T08:13:43.212Z</time></trkpt><trkpt lat="45.4149283" lon="10.5945183"><ele>94.0</ele><time>2026-04-02T08:13:44.213Z</time></trkpt><trkpt lat="45.4148583" lon="10.5944783"><ele>94.0</ele><time>2026-04-02T08:13:45.205Z</time></trkpt><trkpt lat="45.4147783" lon="10.5944633"><ele>94.0</ele><time>2026-04-02T08:13:46.203Z</time></trkpt><trkpt lat="45.4146667" lon="10.594525"><ele>94.0</ele><time>2026-04-02T08:13:48.209Z</time></trkpt><trkpt lat="45.4146117" lon="10.594595"><ele>94.0</ele><time>2026-04-02T08:13:49.202Z</time></trkpt><trkpt lat="45.414555" lon="10.5946817"><ele>94.0</ele><time>2026-04-02T08:13:50.212Z</time></trkpt><trkpt lat="45.41449" lon="10.59478"><ele>94.25</ele><time>2026-04-02T08:13:51.206Z</time></trkpt><trkpt lat="45.4144233" lon="10.5948933"><ele>94.5</ele><time>2026-04-02T08:13:52.203Z</time></trkpt><trkpt lat="45.4143167" lon="10.5949967"><ele>94.75</ele><time>2026-04-02T08:13:53.204Z</time></trkpt><trkpt lat="45.414225" lon="10.595145"><ele>95.0</ele><time>2026-04-02T08:13:54.205Z</time></trkpt><trkpt lat="45.41414" lon="10.5952567"><ele>95.0</ele><time>2026-04-02T08:13:55.207Z</time></trkpt><trkpt lat="45.4140417" lon="10.5954033"><ele>95.0</ele><time>2026-04-02T08:13:56.2Z</time></trkpt><trkpt lat="45.4139483" lon="10.59557"><ele>95.0</ele><time>2026-04-02T08:13:57.225Z</time></trkpt><trkpt lat="45.4138817" lon="10.5957217"><ele>95.0</ele><time>2026-04-02T08:13:58.203Z</time></trkpt><trkpt lat="45.4137983" lon="10.5958933"><ele>95.0</ele><time>2026-04-02T08:13:59.218Z</time></trkpt><trkpt lat="45.4137217" lon="10.5960483"><ele>95.0</ele><time>2026-04-02T08:14:00.212Z</time></trkpt><trkpt lat="45.4136133" lon="10.5962383"><ele>95.0</ele><time>2026-04-02T08:14:01.218Z</time></trkpt><trkpt lat="45.4134883" lon="10.5964167"><ele>95.0</ele><time>2026-04-02T08:14:02.205Z</time></trkpt><trkpt lat="45.413375" lon="10.5965783"><ele>95.0</ele><time>2026-04-02T08:14:03.222Z</time></trkpt><trkpt lat="45.4132367" lon="10.5967567"><ele>95.0</ele><time>2026-04-02T08:14:04.205Z</time></trkpt><trkpt lat="45.41311" lon="10.596905"><ele>95.33333333333334</ele><time>2026-04-02T08:14:05.203Z</time></trkpt><trkpt lat="45.4129667" lon="10.5970383"><ele>95.66666666666667</ele><time>2026-04-02T08:14:06.228Z</time></trkpt><trkpt lat="45.412825" lon="10.597165"><ele>96.0</ele><time>2026-04-02T08:14:07.228Z</time></trkpt><trkpt lat="45.4126733" lon="10.5972917"><ele>96.0</ele><time>2026-04-02T08:14:08.211Z</time></trkpt><trkpt lat="45.4125267" lon="10.5974167"><ele>96.0</ele><time>2026-04-02T08:14:09.218Z</time></trkpt><trkpt lat="45.4123867" lon="10.5975167"><ele>96.0</ele><time>2026-04-02T08:14:10.214Z</time></trkpt><trkpt lat="45.41225" lon="10.5976267"><ele>96.0</ele><time>2026-04-02T08:14:11.213Z</time></trkpt><trkpt lat="45.4121217" lon="10.5977317"><ele>96.0</ele><time>2026-04-02T08:14:12.207Z</time></trkpt><trkpt lat="45.4120017" lon="10.5978367"><ele>96.0</ele><time>2026-04-02T08:14:13.216Z</time></trkpt><trkpt lat="45.411895" lon="10.5979467"><ele>96.0</ele><time>2026-04-02T08:14:14.207Z</time></trkpt><trkpt lat="45.4117767" lon="10.5980633"><ele>95.75</ele><time>2026-04-02T08:14:15.203Z</time></trkpt><trkpt lat="45.4116567" lon="10.598185"><ele>95.5</ele><time>2026-04-02T08:14:16.205Z</time></trkpt><trkpt lat="45.41155" lon="10.598315"><ele>95.25</ele><time>2026-04-02T08:14:17.205Z</time></trkpt><trkpt lat="45.4114517" lon="10.5984617"><ele>95.0</ele><time>2026-04-02T08:14:18.205Z</time></trkpt><trkpt lat="45.41137" lon="10.5986217"><ele>95.25</ele><time>2026-04-02T08:14:19.21Z</time></trkpt><trkpt lat="45.4112917" lon="10.5988133"><ele>95.5</ele><time>2026-04-02T08:14:20.214Z</time></trkpt><trkpt lat="45.4112433" lon="10.5989883"><ele>95.75</ele><time>2026-04-02T08:14:21.204Z</time></trkpt><trkpt lat="45.4111817" lon="10.5991967"><ele>96.0</ele><time>2026-04-02T08:14:22.205Z</time></trkpt><trkpt lat="45.41115" lon="10.5993717"><ele>96.5</ele><time>2026-04-02T08:14:23.21Z</time></trkpt><trkpt lat="45.411125" lon="10.5995617"><ele>97.0</ele><time>2026-04-02T08:14:24.211Z</time></trkpt><trkpt lat="45.41111" lon="10.599725"><ele>97.5</ele><time>2026-04-02T08:14:25.206Z</time></trkpt><trkpt lat="45.4111267" lon="10.5998867"><ele>98.0</ele><time>2026-04-02T08:14:26.207Z</time></trkpt><trkpt lat="45.4111283" lon="10.6000067"><ele>98.0</ele><time>2026-04-02T08:14:27.204Z</time></trkpt><trkpt lat="45.411105" lon="10.60012"><ele>98.0</ele><time>2026-04-02T08:14:28.202Z</time></trkpt><trkpt lat="45.4110717" lon="10.6002283"><ele>98.0</ele><time>2026-04-02T08:14:29.213Z</time></trkpt><trkpt lat="45.4109983" lon="10.6003217"><ele>98.0</ele><time>2026-04-02T08:14:30.208Z</time></trkpt><trkpt lat="45.4109183" lon="10.6004267"><ele>98.0</ele><time>2026-04-02T08:14:31.209Z</time></trkpt><trkpt lat="45.41081" lon="10.600555"><ele>98.25</ele><time>2026-04-02T08:14:32.207Z</time></trkpt><trkpt lat="45.4106917" lon="10.6006533"><ele>98.5</ele><time>2026-04-02T08:14:33.207Z</time></trkpt><trkpt lat="45.41057" lon="10.600745"><ele>98.75</ele><time>2026-04-02T08:14:34.208Z</time></trkpt><trkpt lat="45.41042" lon="10.6008383"><ele>99.0</ele><time>2026-04-02T08:14:35.218Z</time></trkpt><trkpt lat="45.4102767" lon="10.6009133"><ele>99.66666666666666</ele><time>2026-04-02T08:14:36.217Z</time></trkpt><trkpt lat="45.4101117" lon="10.6009733"><ele>100.33333333333333</ele><time>2026-04-02T08:14:37.22Z</time></trkpt><trkpt lat="45.4099517" lon="10.601025"><ele>101.0</ele><time>2026-04-02T08:14:38.222Z</time></trkpt><trkpt lat="45.409815" lon="10.6010617"><ele>101.0</ele><time>2026-04-02T08:14:39.219Z</time></trkpt><trkpt lat="45.4096917" lon="10.6011"><ele>101.0</ele><time>2026-04-02T08:14:40.203Z</time></trkpt><trkpt lat="45.40956" lon="10.601135"><ele>101.0</ele><time>2026-04-02T08:14:41.21Z</time></trkpt><trkpt lat="45.4094133" lon="10.6011233"><ele>101.0</ele><time>2026-04-02T08:14:42.208Z</time></trkpt><trkpt lat="45.4092567" lon="10.6011167"><ele>102.33333333333333</ele><time>2026-04-02T08:14:43.206Z</time></trkpt><trkpt lat="45.4091033" lon="10.6011183"><ele>103.66666666666666</ele><time>2026-04-02T08:14:44.208Z</time></trkpt><trkpt lat="45.4089383" lon="10.6011233"><ele>105.0</ele><time>2026-04-02T08:14:45.213Z</time></trkpt><trkpt lat="45.4087833" lon="10.6011533"><ele>105.0</ele><time>2026-04-02T08:14:46.208Z</time></trkpt><trkpt lat="45.4086617" lon="10.6011417"><ele>105.0</ele><time>2026-04-02T08:14:47.203Z</time></trkpt><trkpt lat="45.4085417" lon="10.601155"><ele>105.0</ele><time>2026-04-02T08:14:48.208Z</time></trkpt><trkpt lat="45.4084533" lon="10.6011783"><ele>105.0</ele><time>2026-04-02T08:14:49.212Z</time></trkpt><trkpt lat="45.4083633" lon="10.6011917"><ele>105.0</ele><time>2026-04-02T08:14:50.203Z</time></trkpt><trkpt lat="45.4082983" lon="10.6012083"><ele>104.8</ele><time>2026-04-02T08:14:51.211Z</time></trkpt><trkpt lat="45.408225" lon="10.60121"><ele>104.6</ele><time>2026-04-02T08:14:52.206Z</time></trkpt><trkpt lat="45.4081467" lon="10.6012133"><ele>104.4</ele><time>2026-04-02T08:14:53.203Z</time></trkpt><trkpt lat="45.408055" lon="10.601225"><ele>104.2</ele><time>2026-04-02T08:14:54.213Z</time></trkpt><trkpt lat="45.40795" lon="10.6012467"><ele>104.0</ele><time>2026-04-02T08:14:55.213Z</time></trkpt><trkpt lat="45.407835" lon="10.6012733"><ele>103.75</ele><time>2026-04-02T08:14:56.199Z</time></trkpt><trkpt lat="45.407695" lon="10.601285"><ele>103.5</ele><time>2026-04-02T08:14:57.227Z</time></trkpt><trkpt lat="45.4075683" lon="10.6012817"><ele>103.25</ele><time>2026-04-02T08:14:58.218Z</time></trkpt><trkpt lat="45.4074533" lon="10.60127"><ele>103.0</ele><time>2026-04-02T08:14:59.21Z</time></trkpt><trkpt lat="45.4073633" lon="10.6012367"><ele>103.00000000000001</ele><time>2026-04-02T08:15:00.213Z</time></trkpt><trkpt lat="45.4072767" lon="10.6011917"><ele>103.0</ele><time>2026-04-02T08:15:01.212Z</time></trkpt><trkpt lat="45.4071917" lon="10.6011367"><ele>103.0</ele><time>2026-04-02T08:15:02.2Z</time></trkpt><trkpt lat="45.4071217" lon="10.6010917"><ele>103.0</ele><time>2026-04-02T08:15:03.209Z</time></trkpt><trkpt lat="45.4070283" lon="10.6010667"><ele>103.00000000000001</ele><time>2026-04-02T08:15:05.217Z</time></trkpt><trkpt lat="45.4069633" lon="10.6011567"><ele>103.0</ele><time>2026-04-02T08:15:07.21Z</time></trkpt><trkpt lat="45.4069367" lon="10.601265"><ele>103.0</ele><time>2026-04-02T08:15:08.214Z</time></trkpt><trkpt lat="45.4069117" lon="10.6014167"><ele>103.0</ele><time>2026-04-02T08:15:09.217Z</time></trkpt><trkpt lat="45.4068733" lon="10.6015717"><ele>103.0</ele><time>2026-04-02T08:15:10.21Z</time></trkpt><trkpt lat="45.406825" lon="10.6017167"><ele>103.0</ele><time>2026-04-02T08:15:11.221Z</time></trkpt><trkpt lat="45.4067583" lon="10.6018883"><ele>102.60000000000001</ele><time>2026-04-02T08:15:12.207Z</time></trkpt><trkpt lat="45.406695" lon="10.6020467"><ele>102.2</ele><time>2026-04-02T08:15:13.205Z</time></trkpt><trkpt lat="45.40663" lon="10.6022033"><ele>101.8</ele><time>2026-04-02T08:15:14.206Z</time></trkpt><trkpt lat="45.4065883" lon="10.6023483"><ele>101.4</ele><time>2026-04-02T08:15:15.203Z</time></trkpt><trkpt lat="45.4065467" lon="10.6024467"><ele>101.0</ele><time>2026-04-02T08:15:16.214Z</time></trkpt><trkpt lat="45.4065117" lon="10.6025217"><ele>101.0</ele><time>2026-04-02T08:15:17.223Z</time></trkpt><trkpt lat="45.4064567" lon="10.6026567"><ele>101.0</ele><time>2026-04-02T08:15:19.203Z</time></trkpt><trkpt lat="45.4064017" lon="10.6027833"><ele>101.0</ele><time>2026-04-02T08:15:21.201Z</time></trkpt><trkpt lat="45.4063517" lon="10.6029017"><ele>101.0</ele><time>2026-04-02T08:15:23.206Z</time></trkpt><trkpt lat="45.4062917" lon="10.6030683"><ele>101.0</ele><time>2026-04-02T08:15:25.203Z</time></trkpt><trkpt lat="45.4062483" lon="10.6031817"><ele>100.0</ele><time>2026-04-02T08:15:26.211Z</time></trkpt><trkpt lat="45.4061817" lon="10.60334"><ele>99.0</ele><time>2026-04-02T08:15:27.204Z</time></trkpt><trkpt lat="45.4061283" lon="10.6035133"><ele>98.0</ele><time>2026-04-02T08:15:28.202Z</time></trkpt><trkpt lat="45.4060483" lon="10.603675"><ele>97.0</ele><time>2026-04-02T08:15:29.207Z</time></trkpt><trkpt lat="45.4059633" lon="10.6038233"><ele>97.0</ele><time>2026-04-02T08:15:30.21Z</time></trkpt><trkpt lat="45.4058667" lon="10.6039283"><ele>97.0</ele><time>2026-04-02T08:15:31.209Z</time></trkpt><trkpt lat="45.4057683" lon="10.6040517"><ele>97.0</ele><time>2026-04-02T08:15:32.207Z</time></trkpt><trkpt lat="45.405685" lon="10.6041683"><ele>97.0</ele><time>2026-04-02T08:15:33.206Z</time></trkpt><trkpt lat="45.405605" lon="10.6042917"><ele>97.0</ele><time>2026-04-02T08:15:34.21Z</time></trkpt><trkpt lat="45.4055183" lon="10.6044283"><ele>97.0</ele><time>2026-04-02T08:15:35.221Z</time></trkpt><trkpt lat="45.4054417" lon="10.60455"><ele>97.0</ele><time>2026-04-02T08:15:36.21Z</time></trkpt><trkpt lat="45.40538" lon="10.604685"><ele>97.0</ele><time>2026-04-02T08:15:37.213Z</time></trkpt><trkpt lat="45.4053233" lon="10.6047933"><ele>97.19999999999999</ele><time>2026-04-02T08:15:38.206Z</time></trkpt><trkpt lat="45.4052883" lon="10.6048967"><ele>97.4</ele><time>2026-04-02T08:15:39.202Z</time></trkpt><trkpt lat="45.4052533" lon="10.6050117"><ele>97.6</ele><time>2026-04-02T08:15:40.207Z</time></trkpt><trkpt lat="45.4052233" lon="10.6051383"><ele>97.80000000000001</ele><time>2026-04-02T08:15:41.205Z</time></trkpt><trkpt lat="45.4052217" lon="10.6052933"><ele>98.0</ele><time>2026-04-02T08:15:42.211Z</time></trkpt><trkpt lat="45.405205" lon="10.6054817"><ele>98.0</ele><time>2026-04-02T08:15:43.215Z</time></trkpt><trkpt lat="45.4051883" lon="10.6056667"><ele>98.0</ele><time>2026-04-02T08:15:44.205Z</time></trkpt><trkpt lat="45.4051633" lon="10.6058417"><ele>98.0</ele><time>2026-04-02T08:15:45.205Z</time></trkpt><trkpt lat="45.4051233" lon="10.606035"><ele>98.0</ele><time>2026-04-02T08:15:46.211Z</time></trkpt><trkpt lat="45.405085" lon="10.6062317"><ele>97.66666666666666</ele><time>2026-04-02T08:15:47.209Z</time></trkpt><trkpt lat="45.4050483" lon="10.606455"><ele>97.33333333333334</ele><time>2026-04-02T08:15:48.215Z</time></trkpt><trkpt lat="45.4050267" lon="10.606685"><ele>97.0</ele><time>2026-04-02T08:15:49.21Z</time></trkpt><trkpt lat="45.4050133" lon="10.6069"><ele>97.66666666666667</ele><time>2026-04-02T08:15:50.216Z</time></trkpt><trkpt lat="45.4049917" lon="10.60713"><ele>98.33333333333334</ele><time>2026-04-02T08:15:51.205Z</time></trkpt><trkpt lat="45.4049867" lon="10.6073833"><ele>99.0</ele><time>2026-04-02T08:15:52.215Z</time></trkpt><trkpt lat="45.4049833" lon="10.6076317"><ele>99.66666666666666</ele><time>2026-04-02T08:15:53.207Z</time></trkpt><trkpt lat="45.4049883" lon="10.6078817"><ele>100.33333333333333</ele><time>2026-04-02T08:15:54.216Z</time></trkpt><trkpt lat="45.4049883" lon="10.6081383"><ele>101.0</ele><time>2026-04-02T08:15:55.221Z</time></trkpt><trkpt lat="45.4049767" lon="10.6083783"><ele>101.0</ele><time>2026-04-02T08:15:56.213Z</time></trkpt><trkpt lat="45.4049667" lon="10.6086133"><ele>101.0</ele><time>2026-04-02T08:15:57.207Z</time></trkpt><trkpt lat="45.4049533" lon="10.6088667"><ele>101.0</ele><time>2026-04-02T08:15:58.211Z</time></trkpt><trkpt lat="45.4049483" lon="10.6091217"><ele>101.0</ele><time>2026-04-02T08:15:59.206Z</time></trkpt><trkpt lat="45.404915" lon="10.6093717"><ele>101.0</ele><time>2026-04-02T08:16:00.217Z</time></trkpt><trkpt lat="45.4049067" lon="10.6096033"><ele>101.0</ele><time>2026-04-02T08:16:01.212Z</time></trkpt><trkpt lat="45.4048817" lon="10.6098033"><ele>100.5</ele><time>2026-04-02T08:16:02.204Z</time></trkpt><trkpt lat="45.4048583" lon="10.6100017"><ele>100.0</ele><time>2026-04-02T08:16:03.207Z</time></trkpt><trkpt lat="45.4048433" lon="10.6102333"><ele>99.5</ele><time>2026-04-02T08:16:04.207Z</time></trkpt><trkpt lat="45.4048467" lon="10.6104367"><ele>99.0</ele><time>2026-04-02T08:16:05.216Z</time></trkpt><trkpt lat="45.40484" lon="10.6106233"><ele>99.0</ele><time>2026-04-02T08:16:06.206Z</time></trkpt><trkpt lat="45.404825" lon="10.6108083"><ele>99.0</ele><time>2026-04-02T08:16:07.207Z</time></trkpt><trkpt lat="45.40484" lon="10.6109767"><ele>99.0</ele><time>2026-04-02T08:16:08.213Z</time></trkpt><trkpt lat="45.404865" lon="10.6111417"><ele>99.0</ele><time>2026-04-02T08:16:09.22Z</time></trkpt><trkpt lat="45.4048733" lon="10.6113033"><ele>98.83333333333333</ele><time>2026-04-02T08:16:10.208Z</time></trkpt><trkpt lat="45.404895" lon="10.6114467"><ele>98.66666666666666</ele><time>2026-04-02T08:16:11.215Z</time></trkpt><trkpt lat="45.4049067" lon="10.6115783"><ele>98.5</ele><time>2026-04-02T08:16:12.206Z</time></trkpt><trkpt lat="45.4049167" lon="10.61167"><ele>98.33333333333333</ele><time>2026-04-02T08:16:13.203Z</time></trkpt><trkpt lat="45.4049367" lon="10.6117717"><ele>98.16666666666666</ele><time>2026-04-02T08:16:14.224Z</time></trkpt><trkpt lat="45.40497" lon="10.61186"><ele>98.0</ele><time>2026-04-02T08:16:15.209Z</time></trkpt><trkpt lat="45.40506" lon="10.611955"><ele>97.5</ele><time>2026-04-02T08:16:17.21Z</time></trkpt><trkpt lat="45.4051667" lon="10.612025"><ele>97.0</ele><time>2026-04-02T08:16:19.206Z</time></trkpt><trkpt lat="45.4052733" lon="10.6120967"><ele>96.5</ele><time>2026-04-02T08:16:21.213Z</time></trkpt><trkpt lat="45.40537" lon="10.6121617"><ele>96.0</ele><time>2026-04-02T08:16:23.203Z</time></trkpt><trkpt lat="45.4054583" lon="10.61227"><ele>96.66666666666667</ele><time>2026-04-02T08:16:25.219Z</time></trkpt><trkpt lat="45.4055" lon="10.6123417"><ele>97.33333333333334</ele><time>2026-04-02T08:16:26.205Z</time></trkpt><trkpt lat="45.40555" lon="10.612515"><ele>98.0</ele><time>2026-04-02T08:16:28.204Z</time></trkpt><trkpt lat="45.4055667" lon="10.61261"><ele>98.66666666666667</ele><time>2026-04-02T08:16:29.201Z</time></trkpt><trkpt lat="45.4055567" lon="10.6127233"><ele>99.33333333333334</ele><time>2026-04-02T08:16:30.206Z</time></trkpt><trkpt lat="45.4055383" lon="10.61284"><ele>100.0</ele><time>2026-04-02T08:16:31.21Z</time></trkpt><trkpt lat="45.4055117" lon="10.6129533"><ele>100.00000000000001</ele><time>2026-04-02T08:16:32.202Z</time></trkpt><trkpt lat="45.405495" lon="10.61307"><ele>100.0</ele><time>2026-04-02T08:16:33.211Z</time></trkpt><trkpt lat="45.4054817" lon="10.6131817"><ele>100.0</ele><time>2026-04-02T08:16:34.204Z</time></trkpt><trkpt lat="45.4054833" lon="10.6132933"><ele>100.0</ele><time>2026-04-02T08:16:35.201Z</time></trkpt><trkpt lat="45.405485" lon="10.6133983"><ele>100.00000000000001</ele><time>2026-04-02T08:16:36.202Z</time></trkpt><trkpt lat="45.40549" lon="10.6134967"><ele>100.0</ele><time>2026-04-02T08:16:37.209Z</time></trkpt><trkpt lat="45.4054967" lon="10.6135917"><ele>100.00000000000001</ele><time>2026-04-02T08:16:38.204Z</time></trkpt><trkpt lat="45.4055033" lon="10.613685"><ele>100.0</ele><time>2026-04-02T08:16:39.212Z</time></trkpt><trkpt lat="45.4055133" lon="10.61378"><ele>100.0</ele><time>2026-04-02T08:16:40.206Z</time></trkpt><trkpt lat="45.4055217" lon="10.613875"><ele>100.0</ele><time>2026-04-02T08:16:41.211Z</time></trkpt><trkpt lat="45.4055233" lon="10.61397"><ele>100.0</ele><time>2026-04-02T08:16:42.201Z</time></trkpt><trkpt lat="45.4055183" lon="10.6140667"><ele>100.00000000000001</ele><time>2026-04-02T08:16:43.208Z</time></trkpt><trkpt lat="45.4055133" lon="10.6141667"><ele>100.0</ele><time>2026-04-02T08:16:44.201Z</time></trkpt><trkpt lat="45.4055083" lon="10.6142733"><ele>100.00000000000001</ele><time>2026-04-02T08:16:45.204Z</time></trkpt><trkpt lat="45.4054983" lon="10.614385"><ele>100.0</ele><time>2026-04-02T08:16:46.206Z</time></trkpt><trkpt lat="45.4054833" lon="10.614505"><ele>100.0</ele><time>2026-04-02T08:16:47.21Z</time></trkpt><trkpt lat="45.4054667" lon="10.6146317"><ele>100.0</ele><time>2026-04-02T08:16:48.204Z</time></trkpt><trkpt lat="45.4054533" lon="10.6147583"><ele>100.00000000000001</ele><time>2026-04-02T08:16:49.204Z</time></trkpt><trkpt lat="45.4054383" lon="10.61489"><ele>100.0</ele><time>2026-04-02T08:16:50.204Z</time></trkpt><trkpt lat="45.405425" lon="10.6150433"><ele>98.6</ele><time>2026-04-02T08:16:51.204Z</time></trkpt><trkpt lat="45.405405" lon="10.6151733"><ele>97.2</ele><time>2026-04-02T08:16:52.207Z</time></trkpt><trkpt lat="45.4054083" lon="10.6153267"><ele>95.80000000000001</ele><time>2026-04-02T08:16:53.23Z</time></trkpt><trkpt lat="45.4054033" lon="10.6154883"><ele>94.4</ele><time>2026-04-02T08:16:54.205Z</time></trkpt><trkpt lat="45.405405" lon="10.61566"><ele>93.0</ele><time>2026-04-02T08:16:55.199Z</time></trkpt><trkpt lat="45.4054017" lon="10.61582"><ele>93.0</ele><time>2026-04-02T08:16:56.211Z</time></trkpt><trkpt lat="45.4054033" lon="10.6159783"><ele>93.0</ele><time>2026-04-02T08:16:57.205Z</time></trkpt><trkpt lat="45.4053967" lon="10.6161567"><ele>93.0</ele><time>2026-04-02T08:16:58.205Z</time></trkpt><trkpt lat="45.405385" lon="10.6163583"><ele>93.0</ele><time>2026-04-02T08:16:59.213Z</time></trkpt><trkpt lat="45.40539" lon="10.6165383"><ele>92.75</ele><time>2026-04-02T08:17:00.206Z</time></trkpt><trkpt lat="45.4054067" lon="10.6167183"><ele>92.5</ele><time>2026-04-02T08:17:01.21Z</time></trkpt><trkpt lat="45.4054283" lon="10.6168967"><ele>92.25</ele><time>2026-04-02T08:17:02.207Z</time></trkpt><trkpt lat="45.4054417" lon="10.617075"><ele>92.0</ele><time>2026-04-02T08:17:03.207Z</time></trkpt><trkpt lat="45.4054367" lon="10.6172483"><ele>91.6</ele><time>2026-04-02T08:17:04.204Z</time></trkpt><trkpt lat="45.4054367" lon="10.6173667"><ele>91.19999999999999</ele><time>2026-04-02T08:17:05.21Z</time></trkpt><trkpt lat="45.4054667" lon="10.6175017"><ele>90.8</ele><time>2026-04-02T08:17:06.206Z</time></trkpt><trkpt lat="45.4055133" lon="10.61761"><ele>90.4</ele><time>2026-04-02T08:17:07.203Z</time></trkpt><trkpt lat="45.4055733" lon="10.617715"><ele>90.0</ele><time>2026-04-02T08:17:08.209Z</time></trkpt><trkpt lat="45.40566" lon="10.61781"><ele>90.2</ele><time>2026-04-02T08:17:09.211Z</time></trkpt><trkpt lat="45.4057717" lon="10.6178667"><ele>90.4</ele><time>2026-04-02T08:17:10.201Z</time></trkpt><trkpt lat="45.4058583" lon="10.6179383"><ele>90.6</ele><time>2026-04-02T08:17:11.211Z</time></trkpt><trkpt lat="45.4059417" lon="10.618"><ele>90.8</ele><time>2026-04-02T08:17:12.208Z</time></trkpt><trkpt lat="45.4060233" lon="10.6180933"><ele>91.0</ele><time>2026-04-02T08:17:13.205Z</time></trkpt><trkpt lat="45.4061217" lon="10.6181983"><ele>91.0</ele><time>2026-04-02T08:17:14.2Z</time></trkpt><trkpt lat="45.40621" lon="10.61831"><ele>91.0</ele><time>2026-04-02T08:17:15.208Z</time></trkpt><trkpt lat="45.4063167" lon="10.6184367"><ele>91.0</ele><time>2026-04-02T08:17:16.201Z</time></trkpt><trkpt lat="45.4064367" lon="10.6185517"><ele>91.0</ele><time>2026-04-02T08:17:17.208Z</time></trkpt><trkpt lat="45.40652" lon="10.6186417"><ele>91.0</ele><time>2026-04-02T08:17:18.218Z</time></trkpt><trkpt lat="45.40661" lon="10.61874"><ele>91.0</ele><time>2026-04-02T08:17:19.209Z</time></trkpt><trkpt lat="45.4066483" lon="10.6188433"><ele>91.0</ele><time>2026-04-02T08:17:20.203Z</time></trkpt><trkpt lat="45.40669" lon="10.6189683"><ele>91.0</ele><time>2026-04-02T08:17:21.214Z</time></trkpt><trkpt lat="45.4066967" lon="10.6191083"><ele>91.0</ele><time>2026-04-02T08:17:22.205Z</time></trkpt><trkpt lat="45.4066733" lon="10.619245"><ele>91.0</ele><time>2026-04-02T08:17:23.217Z</time></trkpt><trkpt lat="45.4066017" lon="10.619355"><ele>91.0</ele><time>2026-04-02T08:17:24.216Z</time></trkpt><trkpt lat="45.4065167" lon="10.6194433"><ele>91.0</ele><time>2026-04-02T08:17:25.208Z</time></trkpt><trkpt lat="45.4064283" lon="10.6195033"><ele>91.0</ele><time>2026-04-02T08:17:26.209Z</time></trkpt><trkpt lat="45.406315" lon="10.61953"><ele>91.0</ele><time>2026-04-02T08:17:27.213Z</time></trkpt><trkpt lat="45.40617" lon="10.6194983"><ele>91.0</ele><time>2026-04-02T08:17:28.215Z</time></trkpt><trkpt lat="45.4060333" lon="10.619435"><ele>91.0</ele><time>2026-04-02T08:17:29.209Z</time></trkpt><trkpt lat="45.4058983" lon="10.619355"><ele>91.0</ele><time>2026-04-02T08:17:30.202Z</time></trkpt><trkpt lat="45.4057783" lon="10.619245"><ele>91.0</ele><time>2026-04-02T08:17:31.221Z</time></trkpt><trkpt lat="45.405645" lon="10.6191817"><ele>91.0</ele><time>2026-04-02T08:17:32.209Z</time></trkpt><trkpt lat="45.4055233" lon="10.61914"><ele>91.0</ele><time>2026-04-02T08:17:33.207Z</time></trkpt><trkpt lat="45.40541" lon="10.6191517"><ele>91.0</ele><time>2026-04-02T08:17:34.203Z</time></trkpt><trkpt lat="45.405295" lon="10.619155"><ele>91.0</ele><time>2026-04-02T08:17:35.214Z</time></trkpt><trkpt lat="45.4051817" lon="10.6192183"><ele>90.66666666666666</ele><time>2026-04-02T08:17:36.202Z</time></trkpt><trkpt lat="45.4050583" lon="10.6192833"><ele>90.33333333333333</ele><time>2026-04-02T08:17:37.204Z</time></trkpt><trkpt lat="45.4049133" lon="10.6193767"><ele>90.0</ele><time>2026-04-02T08:17:38.204Z</time></trkpt><trkpt lat="45.4047783" lon="10.6194967"><ele>90.5</ele><time>2026-04-02T08:17:39.199Z</time></trkpt><trkpt lat="45.404665" lon="10.6195783"><ele>91.0</ele><time>2026-04-02T08:17:40.205Z</time></trkpt><trkpt lat="45.40455" lon="10.6197083"><ele>91.5</ele><time>2026-04-02T08:17:41.203Z</time></trkpt><trkpt lat="45.4044433" lon="10.6198133"><ele>92.0</ele><time>2026-04-02T08:17:42.2Z</time></trkpt><trkpt lat="45.4043467" lon="10.61993"><ele>92.0</ele><time>2026-04-02T08:17:43.207Z</time></trkpt><trkpt lat="45.4042283" lon="10.6200767"><ele>92.0</ele><time>2026-04-02T08:17:44.204Z</time></trkpt><trkpt lat="45.4041383" lon="10.620225"><ele>92.0</ele><time>2026-04-02T08:17:45.215Z</time></trkpt><trkpt lat="45.4040317" lon="10.6203417"><ele>92.0</ele><time>2026-04-02T08:17:46.2Z</time></trkpt><trkpt lat="45.403945" lon="10.6204833"><ele>92.0</ele><time>2026-04-02T08:17:47.203Z</time></trkpt><trkpt lat="45.4038883" lon="10.6206433"><ele>92.0</ele><time>2026-04-02T08:17:48.203Z</time></trkpt><trkpt lat="45.4038383" lon="10.6207933"><ele>92.0</ele><time>2026-04-02T08:17:49.203Z</time></trkpt><trkpt lat="45.40378" lon="10.6209583"><ele>92.0</ele><time>2026-04-02T08:17:50.21Z</time></trkpt><trkpt lat="45.4037317" lon="10.621145"><ele>93.33333333333334</ele><time>2026-04-02T08:17:51.209Z</time></trkpt><trkpt lat="45.4036933" lon="10.6213583"><ele>94.66666666666667</ele><time>2026-04-02T08:17:52.204Z</time></trkpt><trkpt lat="45.4036717" lon="10.621585"><ele>96.0</ele><time>2026-04-02T08:17:53.206Z</time></trkpt><trkpt lat="45.4036317" lon="10.6218267"><ele>97.5</ele><time>2026-04-02T08:17:54.205Z</time></trkpt><trkpt lat="45.4036217" lon="10.622065"><ele>99.0</ele><time>2026-04-02T08:17:55.202Z</time></trkpt><trkpt lat="45.4036" lon="10.6222733"><ele>100.5</ele><time>2026-04-02T08:17:56.21Z</time></trkpt><trkpt lat="45.4035717" lon="10.6224533"><ele>102.0</ele><time>2026-04-02T08:17:57.209Z</time></trkpt><trkpt lat="45.4035383" lon="10.6226367"><ele>103.25</ele><time>2026-04-02T08:17:58.212Z</time></trkpt><trkpt lat="45.4034917" lon="10.622815"><ele>104.5</ele><time>2026-04-02T08:17:59.228Z</time></trkpt><trkpt lat="45.4034317" lon="10.6229783"><ele>105.75</ele><time>2026-04-02T08:18:00.219Z</time></trkpt><trkpt lat="45.4033733" lon="10.623115"><ele>107.0</ele><time>2026-04-02T08:18:01.22Z</time></trkpt><trkpt lat="45.4033583" lon="10.6232633"><ele>106.99999999999999</ele><time>2026-04-02T08:18:02.212Z</time></trkpt><trkpt lat="45.403385" lon="10.6233883"><ele>107.0</ele><time>2026-04-02T08:18:03.218Z</time></trkpt><trkpt lat="45.4034433" lon="10.6235233"><ele>107.0</ele><time>2026-04-02T08:18:04.209Z</time></trkpt><trkpt lat="45.4034983" lon="10.6236367"><ele>107.0</ele><time>2026-04-02T08:18:05.204Z</time></trkpt><trkpt lat="45.403535" lon="10.6237267"><ele>106.99999999999999</ele><time>2026-04-02T08:18:06.217Z</time></trkpt><trkpt lat="45.4035767" lon="10.6238067"><ele>107.0</ele><time>2026-04-02T08:18:07.21Z</time></trkpt><trkpt lat="45.4036317" lon="10.6238867"><ele>107.0</ele><time>2026-04-02T08:18:08.203Z</time></trkpt><trkpt lat="45.4036917" lon="10.62397"><ele>106.99999999999999</ele><time>2026-04-02T08:18:09.229Z</time></trkpt><trkpt lat="45.4037483" lon="10.6240667"><ele>106.99999999999999</ele><time>2026-04-02T08:18:10.213Z</time></trkpt><trkpt lat="45.40381" lon="10.6241933"><ele>107.0</ele><time>2026-04-02T08:18:11.222Z</time></trkpt><trkpt lat="45.40389" lon="10.62434"><ele>107.0</ele><time>2026-04-02T08:18:12.206Z</time></trkpt><trkpt lat="45.4039533" lon="10.6244717"><ele>108.66666666666666</ele><time>2026-04-02T08:18:13.215Z</time></trkpt><trkpt lat="45.4039733" lon="10.624595"><ele>110.33333333333333</ele><time>2026-04-02T08:18:14.201Z</time></trkpt><trkpt lat="45.4039833" lon="10.6246933"><ele>112.0</ele><time>2026-04-02T08:18:15.208Z</time></trkpt><trkpt lat="45.4039717" lon="10.6248"><ele>113.66666666666666</ele><time>2026-04-02T08:18:16.22Z</time></trkpt><trkpt lat="45.403905" lon="10.6248983"><ele>115.33333333333333</ele><time>2026-04-02T08:18:17.214Z</time></trkpt><trkpt lat="45.40383" lon="10.6249883"><ele>117.0</ele><time>2026-04-02T08:18:18.206Z</time></trkpt><trkpt lat="45.40373" lon="10.625055"><ele>117.5</ele><time>2026-04-02T08:18:19.206Z</time></trkpt><trkpt lat="45.4036567" lon="10.6251033"><ele>118.0</ele><time>2026-04-02T08:18:20.211Z</time></trkpt><trkpt lat="45.4035983" lon="10.62515"><ele>118.5</ele><time>2026-04-02T08:18:21.206Z</time></trkpt><trkpt lat="45.403545" lon="10.6252233"><ele>119.0</ele><time>2026-04-02T08:18:22.206Z</time></trkpt><trkpt lat="45.4034933" lon="10.6253"><ele>119.5</ele><time>2026-04-02T08:18:23.209Z</time></trkpt><trkpt lat="45.4034417" lon="10.62541"><ele>120.0</ele><time>2026-04-02T08:18:24.205Z</time></trkpt><trkpt lat="45.4034217" lon="10.6255567"><ele>120.8</ele><time>2026-04-02T08:18:25.205Z</time></trkpt><trkpt lat="45.4034133" lon="10.6257"><ele>121.6</ele><time>2026-04-02T08:18:26.206Z</time></trkpt><trkpt lat="45.40341" lon="10.625845"><ele>122.4</ele><time>2026-04-02T08:18:27.207Z</time></trkpt><trkpt lat="45.4034133" lon="10.6259533"><ele>123.2</ele><time>2026-04-02T08:18:28.207Z</time></trkpt><trkpt lat="45.4033883" lon="10.6260767"><ele>124.0</ele><time>2026-04-02T08:18:29.209Z</time></trkpt><trkpt lat="45.4033867" lon="10.6262467"><ele>124.0</ele><time>2026-04-02T08:18:31.205Z</time></trkpt><trkpt lat="45.4033517" lon="10.6264317"><ele>124.0</ele><time>2026-04-02T08:18:33.204Z</time></trkpt><trkpt lat="45.4033167" lon="10.6265133"><ele>124.0</ele><time>2026-04-02T08:18:34.203Z</time></trkpt><trkpt lat="45.403285" lon="10.6265917"><ele>124.0</ele><time>2026-04-02T08:18:35.203Z</time></trkpt><trkpt lat="45.40322" lon="10.6267267"><ele>124.0</ele><time>2026-04-02T08:18:37.211Z</time></trkpt><trkpt lat="45.4031467" lon="10.6268167"><ele>124.0</ele><time>2026-04-02T08:18:39.208Z</time></trkpt><trkpt lat="45.4030833" lon="10.6269267"><ele>124.0</ele><time>2026-04-02T08:18:41.199Z</time></trkpt><trkpt lat="45.4030167" lon="10.627065"><ele>124.0</ele><time>2026-04-02T08:18:43.198Z</time></trkpt><trkpt lat="45.40297" lon="10.627225"><ele>124.0</ele><time>2026-04-02T08:18:45.207Z</time></trkpt><trkpt lat="45.4029233" lon="10.627375"><ele>123.6</ele><time>2026-04-02T08:18:47.205Z</time></trkpt><trkpt lat="45.40295" lon="10.6275233"><ele>123.2</ele><time>2026-04-02T08:18:56.201Z</time></trkpt><trkpt lat="45.403005" lon="10.627625"><ele>122.79999999999998</ele><time>2026-04-02T08:18:58.203Z</time></trkpt><trkpt lat="45.40307" lon="10.6277483"><ele>122.39999999999999</ele><time>2026-04-02T08:19:00.213Z</time></trkpt><trkpt lat="45.4031333" lon="10.627825"><ele>122.0</ele><time>2026-04-02T08:19:02.211Z</time></trkpt><trkpt lat="45.403195" lon="10.6279017"><ele>121.83333333333333</ele><time>2026-04-02T08:19:04.215Z</time></trkpt><trkpt lat="45.4032833" lon="10.6280217"><ele>121.66666666666666</ele><time>2026-04-02T08:19:06.205Z</time></trkpt><trkpt lat="45.403335" lon="10.6281183"><ele>121.5</ele><time>2026-04-02T08:19:07.205Z</time></trkpt><trkpt lat="45.40338" lon="10.6282133"><ele>121.33333333333334</ele><time>2026-04-02T08:19:08.205Z</time></trkpt><trkpt lat="45.4034067" lon="10.6283"><ele>121.16666666666667</ele><time>2026-04-02T08:19:09.2Z</time></trkpt><trkpt lat="45.403425" lon="10.6283917"><ele>121.0</ele><time>2026-04-02T08:19:10.202Z</time></trkpt><trkpt lat="45.4034433" lon="10.6284817"><ele>121.0</ele><time>2026-04-02T08:19:11.236Z</time></trkpt><trkpt lat="45.4034733" lon="10.6286433"><ele>121.0</ele><time>2026-04-02T08:19:13.199Z</time></trkpt><trkpt lat="45.4034917" lon="10.6287917"><ele>121.0</ele><time>2026-04-02T08:19:15.207Z</time></trkpt><trkpt lat="45.4035083" lon="10.62892"><ele>121.0</ele><time>2026-04-02T08:19:17.226Z</time></trkpt><trkpt lat="45.403505" lon="10.629045"><ele>121.0</ele><time>2026-04-02T08:19:19.2Z</time></trkpt><trkpt lat="45.40351" lon="10.6291733"><ele>121.00000000000001</ele><time>2026-04-02T08:19:21.202Z</time></trkpt><trkpt lat="45.4035083" lon="10.6292733"><ele>121.0</ele><time>2026-04-02T08:19:24.199Z</time></trkpt><trkpt lat="45.4035167" lon="10.629375"><ele>121.0</ele><time>2026-04-02T08:19:27.2Z</time></trkpt><trkpt lat="45.40345" lon="10.6294167"><ele>121.0</ele><time>2026-04-02T08:19:29.206Z</time></trkpt><trkpt lat="45.4033667" lon="10.6294"><ele>121.00000000000001</ele><time>2026-04-02T08:19:31.204Z</time></trkpt><trkpt lat="45.40328" lon="10.629345"><ele>121.0</ele><time>2026-04-02T08:19:33.208Z</time></trkpt><trkpt lat="45.4031767" lon="10.62927"><ele>121.0</ele><time>2026-04-02T08:19:35.201Z</time></trkpt><trkpt lat="45.4031033" lon="10.6292283"><ele>120.99999999999999</ele><time>2026-04-02T08:19:36.209Z</time></trkpt><trkpt lat="45.40304" lon="10.6291833"><ele>121.0</ele><time>2026-04-02T08:19:37.204Z</time></trkpt><trkpt lat="45.40298" lon="10.6291383"><ele>121.0</ele><time>2026-04-02T08:19:38.204Z</time></trkpt><trkpt lat="45.4029217" lon="10.62909"><ele>120.99999999999999</ele><time>2026-04-02T08:19:39.205Z</time></trkpt><trkpt lat="45.4028533" lon="10.6290533"><ele>121.0</ele><time>2026-04-02T08:19:40.204Z</time></trkpt><trkpt lat="45.402785" lon="10.62901"><ele>121.0</ele><time>2026-04-02T08:19:41.206Z</time></trkpt><trkpt lat="45.4027183" lon="10.6289667"><ele>120.66666666666667</ele><time>2026-04-02T08:19:42.205Z</time></trkpt><trkpt lat="45.4026517" lon="10.6289267"><ele>120.33333333333334</ele><time>2026-04-02T08:19:43.203Z</time></trkpt><trkpt lat="45.4025817" lon="10.62889"><ele>120.0</ele><time>2026-04-02T08:19:44.207Z</time></trkpt><trkpt lat="45.40251" lon="10.6288417"><ele>119.66666666666666</ele><time>2026-04-02T08:19:45.202Z</time></trkpt><trkpt lat="45.4024367" lon="10.628785"><ele>119.33333333333333</ele><time>2026-04-02T08:19:46.203Z</time></trkpt><trkpt lat="45.4023683" lon="10.6287317"><ele>119.0</ele><time>2026-04-02T08:19:47.201Z</time></trkpt><trkpt lat="45.4023067" lon="10.6286817"><ele>118.83333333333333</ele><time>2026-04-02T08:19:48.2Z</time></trkpt><trkpt lat="45.4022517" lon="10.6286367"><ele>118.66666666666666</ele><time>2026-04-02T08:19:49.225Z</time></trkpt><trkpt lat="45.402165" lon="10.6285867"><ele>118.5</ele><time>2026-04-02T08:19:51.21Z</time></trkpt><trkpt lat="45.40209" lon="10.6286017"><ele>118.33333333333334</ele><time>2026-04-02T08:19:53.201Z</time></trkpt><trkpt lat="45.4020267" lon="10.628725"><ele>118.16666666666667</ele><time>2026-04-02T08:19:55.217Z</time></trkpt><trkpt lat="45.4020033" lon="10.6288133"><ele>118.0</ele><time>2026-04-02T08:19:56.208Z</time></trkpt><trkpt lat="45.4019767" lon="10.6289217"><ele>118.0</ele><time>2026-04-02T08:19:57.204Z</time></trkpt><trkpt lat="45.4019383" lon="10.629035"><ele>118.00000000000001</ele><time>2026-04-02T08:19:58.204Z</time></trkpt><trkpt lat="45.4018983" lon="10.6291533"><ele>118.00000000000001</ele><time>2026-04-02T08:19:59.205Z</time></trkpt><trkpt lat="45.4018667" lon="10.6292883"><ele>118.0</ele><time>2026-04-02T08:20:00.202Z</time></trkpt><trkpt lat="45.4018083" lon="10.6294267"><ele>118.0</ele><time>2026-04-02T08:20:01.2Z</time></trkpt><trkpt lat="45.40175" lon="10.6295617"><ele>118.00000000000001</ele><time>2026-04-02T08:20:02.203Z</time></trkpt><trkpt lat="45.4017033" lon="10.6296933"><ele>118.0</ele><time>2026-04-02T08:20:03.204Z</time></trkpt><trkpt lat="45.4016717" lon="10.6298333"><ele>118.0</ele><time>2026-04-02T08:20:04.205Z</time></trkpt><trkpt lat="45.401625" lon="10.6299417"><ele>118.0</ele><time>2026-04-02T08:20:05.205Z</time></trkpt><trkpt lat="45.4015983" lon="10.630025"><ele>118.00000000000001</ele><time>2026-04-02T08:20:06.205Z</time></trkpt><trkpt lat="45.40159" lon="10.6301217"><ele>118.0</ele><time>2026-04-02T08:20:08.202Z</time></trkpt><trkpt lat="45.401455" lon="10.6302567"><ele>116.75</ele><time>2026-04-02T08:20:12.199Z</time></trkpt><trkpt lat="45.4013967" lon="10.6303417"><ele>115.5</ele><time>2026-04-02T08:20:13.203Z</time></trkpt><trkpt lat="45.4013283" lon="10.6304483"><ele>114.25</ele><time>2026-04-02T08:20:14.213Z</time></trkpt><trkpt lat="45.4012633" lon="10.6305917"><ele>113.0</ele><time>2026-04-02T08:20:15.202Z</time></trkpt><trkpt lat="45.4011867" lon="10.630775"><ele>112.33333333333333</ele><time>2026-04-02T08:20:16.2Z</time></trkpt><trkpt lat="45.4011617" lon="10.6309733"><ele>111.66666666666666</ele><time>2026-04-02T08:20:17.21Z</time></trkpt><trkpt lat="45.4011633" lon="10.6311983"><ele>111.0</ele><time>2026-04-02T08:20:18.211Z</time></trkpt><trkpt lat="45.4011683" lon="10.6314133"><ele>109.0</ele><time>2026-04-02T08:20:19.202Z</time></trkpt><trkpt lat="45.4012" lon="10.6316367"><ele>107.0</ele><time>2026-04-02T08:20:20.206Z</time></trkpt><trkpt lat="45.40123" lon="10.63185"><ele>105.0</ele><time>2026-04-02T08:20:21.211Z</time></trkpt><trkpt lat="45.4012667" lon="10.63205"><ele>103.75</ele><time>2026-04-02T08:20:22.205Z</time></trkpt><trkpt lat="45.4012817" lon="10.6322633"><ele>102.5</ele><time>2026-04-02T08:20:23.207Z</time></trkpt><trkpt lat="45.4012983" lon="10.63245"><ele>101.25</ele><time>2026-04-02T08:20:24.21Z</time></trkpt><trkpt lat="45.401285" lon="10.632625"><ele>100.0</ele><time>2026-04-02T08:20:25.208Z</time></trkpt><trkpt lat="45.4012567" lon="10.6328133"><ele>98.75</ele><time>2026-04-02T08:20:26.209Z</time></trkpt><trkpt lat="45.4012" lon="10.632965"><ele>97.5</ele><time>2026-04-02T08:20:27.202Z</time></trkpt><trkpt lat="45.4011417" lon="10.633095"><ele>96.25</ele><time>2026-04-02T08:20:28.204Z</time></trkpt><trkpt lat="45.401035" lon="10.6332133"><ele>95.0</ele><time>2026-04-02T08:20:29.205Z</time></trkpt><trkpt lat="45.4009033" lon="10.6332817"><ele>95.0</ele><time>2026-04-02T08:20:30.208Z</time></trkpt><trkpt lat="45.400755" lon="10.6333567"><ele>95.0</ele><time>2026-04-02T08:20:31.214Z</time></trkpt><trkpt lat="45.4006017" lon="10.6334117"><ele>95.0</ele><time>2026-04-02T08:20:32.201Z</time></trkpt><trkpt lat="45.4004467" lon="10.6334717"><ele>95.0</ele><time>2026-04-02T08:20:33.205Z</time></trkpt><trkpt lat="45.40031" lon="10.633575"><ele>95.0</ele><time>2026-04-02T08:20:34.209Z</time></trkpt><trkpt lat="45.4001633" lon="10.6337067"><ele>95.0</ele><time>2026-04-02T08:20:35.216Z</time></trkpt><trkpt lat="45.400045" lon="10.6338333"><ele>94.5</ele><time>2026-04-02T08:20:36.209Z</time></trkpt><trkpt lat="45.3999383" lon="10.6339433"><ele>94.0</ele><time>2026-04-02T08:20:37.207Z</time></trkpt><trkpt lat="45.3998283" lon="10.6340783"><ele>93.5</ele><time>2026-04-02T08:20:38.222Z</time></trkpt><trkpt lat="45.3997317" lon="10.6341767"><ele>93.0</ele><time>2026-04-02T08:20:39.206Z</time></trkpt><trkpt lat="45.3995917" lon="10.6342367"><ele>93.0</ele><time>2026-04-02T08:20:40.203Z</time></trkpt><trkpt lat="45.3994867" lon="10.6342667"><ele>93.0</ele><time>2026-04-02T08:20:41.202Z</time></trkpt><trkpt lat="45.3994083" lon="10.6343067"><ele>93.0</ele><time>2026-04-02T08:20:42.223Z</time></trkpt><trkpt lat="45.3993583" lon="10.6343833"><ele>93.0</ele><time>2026-04-02T08:20:43.21Z</time></trkpt><trkpt lat="45.3993483" lon="10.6345067"><ele>93.0</ele><time>2026-04-02T08:20:44.204Z</time></trkpt><trkpt lat="45.3993517" lon="10.634645"><ele>93.0</ele><time>2026-04-02T08:20:45.2Z</time></trkpt><trkpt lat="45.3993633" lon="10.634785"><ele>93.0</ele><time>2026-04-02T08:20:46.205Z</time></trkpt><trkpt lat="45.399345" lon="10.6349367"><ele>93.0</ele><time>2026-04-02T08:20:47.204Z</time></trkpt><trkpt lat="45.3993117" lon="10.6350667"><ele>93.0</ele><time>2026-04-02T08:20:48.201Z</time></trkpt><trkpt lat="45.3992433" lon="10.6352083"><ele>93.0</ele><time>2026-04-02T08:20:49.208Z</time></trkpt><trkpt lat="45.3991683" lon="10.6353467"><ele>93.0</ele><time>2026-04-02T08:20:50.206Z</time></trkpt><trkpt lat="45.399095" lon="10.63549"><ele>92.5</ele><time>2026-04-02T08:20:51.199Z</time></trkpt><trkpt lat="45.39902" lon="10.6356333"><ele>92.0</ele><time>2026-04-02T08:20:52.199Z</time></trkpt><trkpt lat="45.3989517" lon="10.6357867"><ele>91.5</ele><time>2026-04-02T08:20:53.204Z</time></trkpt><trkpt lat="45.3988933" lon="10.6359517"><ele>91.0</ele><time>2026-04-02T08:20:54.201Z</time></trkpt><trkpt lat="45.398835" lon="10.6361233"><ele>91.0</ele><time>2026-04-02T08:20:55.213Z</time></trkpt><trkpt lat="45.398765" lon="10.6363017"><ele>91.0</ele><time>2026-04-02T08:20:56.203Z</time></trkpt><trkpt lat="45.3987133" lon="10.6364667"><ele>91.0</ele><time>2026-04-02T08:20:57.205Z</time></trkpt><trkpt lat="45.3986633" lon="10.6366517"><ele>91.0</ele><time>2026-04-02T08:20:58.199Z</time></trkpt><trkpt lat="45.398625" lon="10.6368483"><ele>90.75</ele><time>2026-04-02T08:20:59.21Z</time></trkpt><trkpt lat="45.3985967" lon="10.63703"><ele>90.5</ele><time>2026-04-02T08:21:00.202Z</time></trkpt><trkpt lat="45.3985733" lon="10.6372217"><ele>90.25</ele><time>2026-04-02T08:21:01.202Z</time></trkpt><trkpt lat="45.3985733" lon="10.6374067"><ele>90.0</ele><time>2026-04-02T08:21:02.201Z</time></trkpt><trkpt lat="45.3985717" lon="10.6375767"><ele>90.0</ele><time>2026-04-02T08:21:03.206Z</time></trkpt><trkpt lat="45.398585" lon="10.637775"><ele>90.0</ele><time>2026-04-02T08:21:04.201Z</time></trkpt><trkpt lat="45.3985883" lon="10.6379583"><ele>90.0</ele><time>2026-04-02T08:21:05.199Z</time></trkpt><trkpt lat="45.39859" lon="10.6381483"><ele>90.0</ele><time>2026-04-02T08:21:06.207Z</time></trkpt><trkpt lat="45.398595" lon="10.6383433"><ele>90.25</ele><time>2026-04-02T08:21:07.211Z</time></trkpt><trkpt lat="45.3986017" lon="10.6385433"><ele>90.5</ele><time>2026-04-02T08:21:08.208Z</time></trkpt><trkpt lat="45.3986117" lon="10.6387433"><ele>90.75</ele><time>2026-04-02T08:21:09.209Z</time></trkpt><trkpt lat="45.398625" lon="10.6389483"><ele>91.0</ele><time>2026-04-02T08:21:10.216Z</time></trkpt><trkpt lat="45.39863" lon="10.63916"><ele>91.25</ele><time>2026-04-02T08:21:11.214Z</time></trkpt><trkpt lat="45.39864" lon="10.6393767"><ele>91.5</ele><time>2026-04-02T08:21:12.204Z</time></trkpt><trkpt lat="45.3986483" lon="10.6395817"><ele>91.75</ele><time>2026-04-02T08:21:13.205Z</time></trkpt><trkpt lat="45.3986517" lon="10.6397867"><ele>92.0</ele><time>2026-04-02T08:21:14.21Z</time></trkpt><trkpt lat="45.3986683" lon="10.6399633"><ele>92.0</ele><time>2026-04-02T08:21:15.214Z</time></trkpt><trkpt lat="45.398675" lon="10.6401683"><ele>92.0</ele><time>2026-04-02T08:21:16.213Z</time></trkpt><trkpt lat="45.3986917" lon="10.6403783"><ele>92.0</ele><time>2026-04-02T08:21:17.207Z</time></trkpt><trkpt lat="45.398715" lon="10.64058"><ele>92.0</ele><time>2026-04-02T08:21:18.213Z</time></trkpt><trkpt lat="45.39872" lon="10.640785"><ele>91.75</ele><time>2026-04-02T08:21:19.203Z</time></trkpt><trkpt lat="45.398725" lon="10.6409983"><ele>91.5</ele><time>2026-04-02T08:21:20.21Z</time></trkpt><trkpt lat="45.3987183" lon="10.6412067"><ele>91.25</ele><time>2026-04-02T08:21:21.21Z</time></trkpt><trkpt lat="45.3986983" lon="10.6414067"><ele>91.0</ele><time>2026-04-02T08:21:22.212Z</time></trkpt><trkpt lat="45.3986683" lon="10.6416067"><ele>90.5</ele><time>2026-04-02T08:21:23.204Z</time></trkpt><trkpt lat="45.3986267" lon="10.6418117"><ele>90.0</ele><time>2026-04-02T08:21:24.216Z</time></trkpt><trkpt lat="45.3985817" lon="10.642005"><ele>89.5</ele><time>2026-04-02T08:21:25.209Z</time></trkpt><trkpt lat="45.3985183" lon="10.642175"><ele>89.0</ele><time>2026-04-02T08:21:26.205Z</time></trkpt><trkpt lat="45.398435" lon="10.6423333"><ele>88.66666666666667</ele><time>2026-04-02T08:21:27.215Z</time></trkpt><trkpt lat="45.398335" lon="10.6424883"><ele>88.33333333333333</ele><time>2026-04-02T08:21:28.218Z</time></trkpt><trkpt lat="45.3982183" lon="10.642645"><ele>88.0</ele><time>2026-04-02T08:21:29.212Z</time></trkpt><trkpt lat="45.3980933" lon="10.6428117"><ele>88.75</ele><time>2026-04-02T08:21:30.205Z</time></trkpt><trkpt lat="45.3979733" lon="10.6429467"><ele>89.5</ele><time>2026-04-02T08:21:31.213Z</time></trkpt><trkpt lat="45.3978633" lon="10.6430917"><ele>90.25</ele><time>2026-04-02T08:21:32.213Z</time></trkpt><trkpt lat="45.3977533" lon="10.643225"><ele>91.0</ele><time>2026-04-02T08:21:33.215Z</time></trkpt><trkpt lat="45.3976567" lon="10.6433483"><ele>91.0</ele><time>2026-04-02T08:21:34.218Z</time></trkpt><trkpt lat="45.39759" lon="10.6434367"><ele>91.0</ele><time>2026-04-02T08:21:35.213Z</time></trkpt><trkpt lat="45.3975233" lon="10.6435033"><ele>91.0</ele><time>2026-04-02T08:21:36.2Z</time></trkpt><trkpt lat="45.39751" lon="10.6436233"><ele>91.0</ele><time>2026-04-02T08:21:38.2Z</time></trkpt><trkpt lat="45.3975633" lon="10.643745"><ele>91.0</ele><time>2026-04-02T08:21:40.205Z</time></trkpt><trkpt lat="45.3976017" lon="10.6438317"><ele>91.0</ele><time>2026-04-02T08:21:41.216Z</time></trkpt><trkpt lat="45.3976517" lon="10.643935"><ele>92.25</ele><time>2026-04-02T08:21:42.222Z</time></trkpt><trkpt lat="45.3977283" lon="10.64406"><ele>93.5</ele><time>2026-04-02T08:21:43.202Z</time></trkpt><trkpt lat="45.39783" lon="10.6441933"><ele>94.75</ele><time>2026-04-02T08:21:44.207Z</time></trkpt><trkpt lat="45.3979733" lon="10.644355"><ele>96.0</ele><time>2026-04-02T08:21:45.205Z</time></trkpt><trkpt lat="45.3981533" lon="10.644525"><ele>97.0</ele><time>2026-04-02T08:21:46.215Z</time></trkpt><trkpt lat="45.3983583" lon="10.6446683"><ele>98.0</ele><time>2026-04-02T08:21:47.21Z</time></trkpt><trkpt lat="45.398575" lon="10.6448333"><ele>98.0</ele><time>2026-04-02T08:21:48.209Z</time></trkpt><trkpt lat="45.3987983" lon="10.6450117"><ele>98.0</ele><time>2026-04-02T08:21:49.208Z</time></trkpt><trkpt lat="45.399" lon="10.6451983"><ele>99.66666666666666</ele><time>2026-04-02T08:21:50.215Z</time></trkpt><trkpt lat="45.3991817" lon="10.64535"><ele>101.33333333333334</ele><time>2026-04-02T08:21:51.214Z</time></trkpt><trkpt lat="45.399365" lon="10.6454683"><ele>103.0</ele><time>2026-04-02T08:21:52.202Z</time></trkpt><trkpt lat="45.39953" lon="10.6455833"><ele>99.66666666666667</ele><time>2026-04-02T08:21:53.232Z</time></trkpt><trkpt lat="45.3996683" lon="10.6457017"><ele>96.33333333333334</ele><time>2026-04-02T08:21:54.209Z</time></trkpt><trkpt lat="45.3998033" lon="10.6457917"><ele>93.0</ele><time>2026-04-02T08:21:55.202Z</time></trkpt><trkpt lat="45.3999417" lon="10.64583"><ele>93.0</ele><time>2026-04-02T08:21:56.207Z</time></trkpt><trkpt lat="45.4000617" lon="10.6459"><ele>93.0</ele><time>2026-04-02T08:21:57.207Z</time></trkpt><trkpt lat="45.4001567" lon="10.6460733"><ele>93.0</ele><time>2026-04-02T08:21:58.208Z</time></trkpt><trkpt lat="45.4002433" lon="10.64624"><ele>93.0</ele><time>2026-04-02T08:21:59.214Z</time></trkpt><trkpt lat="45.40033" lon="10.64642"><ele>92.66666666666667</ele><time>2026-04-02T08:22:00.219Z</time></trkpt><trkpt lat="45.4004383" lon="10.646615"><ele>92.33333333333334</ele><time>2026-04-02T08:22:01.218Z</time></trkpt><trkpt lat="45.4005633" lon="10.646825"><ele>92.0</ele><time>2026-04-02T08:22:02.212Z</time></trkpt><trkpt lat="45.400705" lon="10.6470583"><ele>92.0</ele><time>2026-04-02T08:22:03.222Z</time></trkpt><trkpt lat="45.4008533" lon="10.647305"><ele>92.0</ele><time>2026-04-02T08:22:04.208Z</time></trkpt><trkpt lat="45.40099" lon="10.6475633"><ele>93.0</ele><time>2026-04-02T08:22:05.206Z</time></trkpt><trkpt lat="45.4011033" lon="10.6478"><ele>94.0</ele><time>2026-04-02T08:22:06.206Z</time></trkpt><trkpt lat="45.401225" lon="10.6480067"><ele>95.0</ele><time>2026-04-02T08:22:07.204Z</time></trkpt><trkpt lat="45.40133" lon="10.6481633"><ele>94.6</ele><time>2026-04-02T08:22:08.198Z</time></trkpt><trkpt lat="45.4014183" lon="10.6482733"><ele>94.2</ele><time>2026-04-02T08:22:09.213Z</time></trkpt><trkpt lat="45.401475" lon="10.6483517"><ele>93.80000000000001</ele><time>2026-04-02T08:22:10.206Z</time></trkpt><trkpt lat="45.40153" lon="10.648425"><ele>93.4</ele><time>2026-04-02T08:22:11.202Z</time></trkpt><trkpt lat="45.4015533" lon="10.64859"><ele>93.0</ele><time>2026-04-02T08:22:13.207Z</time></trkpt><trkpt lat="45.4014967" lon="10.6486933"><ele>93.0</ele><time>2026-04-02T08:22:14.206Z</time></trkpt><trkpt lat="45.401435" lon="10.6488217"><ele>93.0</ele><time>2026-04-02T08:22:15.206Z</time></trkpt><trkpt lat="45.4013383" lon="10.6489833"><ele>93.0</ele><time>2026-04-02T08:22:16.204Z</time></trkpt><trkpt lat="45.4012467" lon="10.6491633"><ele>93.0</ele><time>2026-04-02T08:22:17.199Z</time></trkpt><trkpt lat="45.4011667" lon="10.649365"><ele>94.0</ele><time>2026-04-02T08:22:18.2Z</time></trkpt><trkpt lat="45.4010867" lon="10.64953"><ele>95.0</ele><time>2026-04-02T08:22:19.204Z</time></trkpt><trkpt lat="45.401005" lon="10.6496833"><ele>96.0</ele><time>2026-04-02T08:22:20.204Z</time></trkpt><trkpt lat="45.4008933" lon="10.64978"><ele>97.0</ele><time>2026-04-02T08:22:21.2Z</time></trkpt><trkpt lat="45.40074" lon="10.6498467"><ele>97.0</ele><time>2026-04-02T08:22:22.205Z</time></trkpt><trkpt lat="45.4005833" lon="10.6499283"><ele>97.0</ele><time>2026-04-02T08:22:23.21Z</time></trkpt><trkpt lat="45.4004183" lon="10.6500383"><ele>97.0</ele><time>2026-04-02T08:22:24.205Z</time></trkpt><trkpt lat="45.4002633" lon="10.6501433"><ele>98.5</ele><time>2026-04-02T08:22:25.206Z</time></trkpt><trkpt lat="45.40013" lon="10.6502317"><ele>100.0</ele><time>2026-04-02T08:22:26.203Z</time></trkpt><trkpt lat="45.4" lon="10.65033"><ele>101.5</ele><time>2026-04-02T08:22:27.203Z</time></trkpt><trkpt lat="45.3998667" lon="10.6504233"><ele>103.0</ele><time>2026-04-02T08:22:28.197Z</time></trkpt><trkpt lat="45.399785" lon="10.65056"><ele>104.2</ele><time>2026-04-02T08:22:29.209Z</time></trkpt><trkpt lat="45.3997483" lon="10.6506933"><ele>105.4</ele><time>2026-04-02T08:22:30.203Z</time></trkpt><trkpt lat="45.399725" lon="10.6508367"><ele>106.60000000000001</ele><time>2026-04-02T08:22:31.208Z</time></trkpt><trkpt lat="45.3997333" lon="10.6509933"><ele>107.80000000000001</ele><time>2026-04-02T08:22:32.204Z</time></trkpt><trkpt lat="45.3997417" lon="10.6511683"><ele>109.0</ele><time>2026-04-02T08:22:33.208Z</time></trkpt><trkpt lat="45.399795" lon="10.6513483"><ele>110.0</ele><time>2026-04-02T08:22:34.2Z</time></trkpt><trkpt lat="45.3998383" lon="10.6515333"><ele>111.0</ele><time>2026-04-02T08:22:35.206Z</time></trkpt><trkpt lat="45.39988" lon="10.6517033"><ele>112.0</ele><time>2026-04-02T08:22:36.201Z</time></trkpt><trkpt lat="45.399855" lon="10.651875"><ele>113.0</ele><time>2026-04-02T08:22:37.201Z</time></trkpt><trkpt lat="45.3998033" lon="10.6520283"><ele>114.0</ele><time>2026-04-02T08:22:38.204Z</time></trkpt><trkpt lat="45.39972" lon="10.6521583"><ele>115.0</ele><time>2026-04-02T08:22:39.207Z</time></trkpt><trkpt lat="45.39968" lon="10.6523783"><ele>116.0</ele><time>2026-04-02T08:22:40.199Z</time></trkpt><trkpt lat="45.39963" lon="10.652575"><ele>117.0</ele><time>2026-04-02T08:22:41.2Z</time></trkpt><trkpt lat="45.3996233" lon="10.652845"><ele>117.0</ele><time>2026-04-02T08:22:42.208Z</time></trkpt><trkpt lat="45.3996417" lon="10.6531333"><ele>117.0</ele><time>2026-04-02T08:22:43.202Z</time></trkpt><trkpt lat="45.399665" lon="10.6534467"><ele>117.0</ele><time>2026-04-02T08:22:44.203Z</time></trkpt><trkpt lat="45.399675" lon="10.6537833"><ele>118.0</ele><time>2026-04-02T08:22:45.205Z</time></trkpt><trkpt lat="45.3996867" lon="10.6541217"><ele>119.0</ele><time>2026-04-02T08:22:46.204Z</time></trkpt><trkpt lat="45.3996717" lon="10.6544483"><ele>118.33333333333333</ele><time>2026-04-02T08:22:47.198Z</time></trkpt><trkpt lat="45.3996433" lon="10.6547433"><ele>117.66666666666666</ele><time>2026-04-02T08:22:48.21Z</time></trkpt><trkpt lat="45.3996667" lon="10.65507"><ele>117.0</ele><time>2026-04-02T08:22:49.204Z</time></trkpt><trkpt lat="45.3997033" lon="10.6553933"><ele>117.0</ele><time>2026-04-02T08:22:50.197Z</time></trkpt><trkpt lat="45.399735" lon="10.6557217"><ele>117.0</ele><time>2026-04-02T08:22:51.205Z</time></trkpt><trkpt lat="45.3997467" lon="10.6560483"><ele>117.66666666666666</ele><time>2026-04-02T08:22:52.205Z</time></trkpt><trkpt lat="45.3997433" lon="10.6563783"><ele>118.33333333333333</ele><time>2026-04-02T08:22:53.2Z</time></trkpt><trkpt lat="45.39974" lon="10.656675"><ele>119.0</ele><time>2026-04-02T08:22:54.205Z</time></trkpt><trkpt lat="45.3997483" lon="10.656935"><ele>119.75</ele><time>2026-04-02T08:22:55.206Z</time></trkpt><trkpt lat="45.3997333" lon="10.6571433"><ele>120.5</ele><time>2026-04-02T08:22:56.2Z</time></trkpt><trkpt lat="45.39972" lon="10.6573367"><ele>121.25</ele><time>2026-04-02T08:22:57.198Z</time></trkpt><trkpt lat="45.3996967" lon="10.6575317"><ele>122.0</ele><time>2026-04-02T08:22:58.199Z</time></trkpt><trkpt lat="45.3996733" lon="10.6576783"><ele>122.25</ele><time>2026-04-02T08:22:59.199Z</time></trkpt><trkpt lat="45.3996667" lon="10.6578517"><ele>122.5</ele><time>2026-04-02T08:23:00.201Z</time></trkpt><trkpt lat="45.3996867" lon="10.658025"><ele>122.75</ele><time>2026-04-02T08:23:01.212Z</time></trkpt><trkpt lat="45.39973" lon="10.6581933"><ele>123.0</ele><time>2026-04-02T08:23:02.207Z</time></trkpt><trkpt lat="45.399835" lon="10.65837"><ele>122.33333333333334</ele><time>2026-04-02T08:23:03.206Z</time></trkpt><trkpt lat="45.3999183" lon="10.6585633"><ele>121.66666666666667</ele><time>2026-04-02T08:23:04.204Z</time></trkpt><trkpt lat="45.3999717" lon="10.6588183"><ele>121.0</ele><time>2026-04-02T08:23:05.206Z</time></trkpt><trkpt lat="45.40001" lon="10.6590817"><ele>121.0</ele><time>2026-04-02T08:23:06.203Z</time></trkpt><trkpt lat="45.4000383" lon="10.6593767"><ele>121.0</ele><time>2026-04-02T08:23:07.202Z</time></trkpt><trkpt lat="45.4000633" lon="10.6596683"><ele>121.0</ele><time>2026-04-02T08:23:08.2Z</time></trkpt><trkpt lat="45.4000817" lon="10.65996"><ele>121.0</ele><time>2026-04-02T08:23:09.201Z</time></trkpt><trkpt lat="45.4001033" lon="10.66026"><ele>121.0</ele><time>2026-04-02T08:23:10.204Z</time></trkpt><trkpt lat="45.4001183" lon="10.6605433"><ele>121.0</ele><time>2026-04-02T08:23:11.209Z</time></trkpt><trkpt lat="45.400135" lon="10.66081"><ele>120.66666666666667</ele><time>2026-04-02T08:23:12.202Z</time></trkpt><trkpt lat="45.40015" lon="10.6610633"><ele>120.33333333333334</ele><time>2026-04-02T08:23:13.204Z</time></trkpt><trkpt lat="45.4001733" lon="10.66132"><ele>120.0</ele><time>2026-04-02T08:23:14.203Z</time></trkpt><trkpt lat="45.4001967" lon="10.6615967"><ele>119.33333333333334</ele><time>2026-04-02T08:23:15.198Z</time></trkpt><trkpt lat="45.4002417" lon="10.661855"><ele>118.66666666666667</ele><time>2026-04-02T08:23:16.204Z</time></trkpt><trkpt lat="45.4002967" lon="10.6620983"><ele>118.0</ele><time>2026-04-02T08:23:17.202Z</time></trkpt><trkpt lat="45.4003317" lon="10.6623267"><ele>118.0</ele><time>2026-04-02T08:23:18.204Z</time></trkpt><trkpt lat="45.4003417" lon="10.6625517"><ele>118.0</ele><time>2026-04-02T08:23:19.2Z</time></trkpt><trkpt lat="45.4003433" lon="10.6627667"><ele>118.0</ele><time>2026-04-02T08:23:20.203Z</time></trkpt><trkpt lat="45.4003283" lon="10.6629817"><ele>117.75</ele><time>2026-04-02T08:23:21.2Z</time></trkpt><trkpt lat="45.4002867" lon="10.663185"><ele>117.5</ele><time>2026-04-02T08:23:22.198Z</time></trkpt><trkpt lat="45.4002433" lon="10.6633717"><ele>117.25</ele><time>2026-04-02T08:23:23.209Z</time></trkpt><trkpt lat="45.4002133" lon="10.66354"><ele>117.0</ele><time>2026-04-02T08:23:24.204Z</time></trkpt><trkpt lat="45.4001983" lon="10.663695"><ele>118.0</ele><time>2026-04-02T08:23:25.202Z</time></trkpt><trkpt lat="45.40019" lon="10.6638483"><ele>119.0</ele><time>2026-04-02T08:23:26.205Z</time></trkpt><trkpt lat="45.4001833" lon="10.6639967"><ele>120.0</ele><time>2026-04-02T08:23:27.203Z</time></trkpt><trkpt lat="45.400165" lon="10.664175"><ele>121.0</ele><time>2026-04-02T08:23:28.199Z</time></trkpt><trkpt lat="45.4001167" lon="10.6643683"><ele>121.66666666666667</ele><time>2026-04-02T08:23:29.202Z</time></trkpt><trkpt lat="45.4000717" lon="10.6645683"><ele>122.33333333333334</ele><time>2026-04-02T08:23:30.205Z</time></trkpt><trkpt lat="45.4000117" lon="10.66479"><ele>123.0</ele><time>2026-04-02T08:23:31.202Z</time></trkpt><trkpt lat="45.3999533" lon="10.66501"><ele>123.0</ele><time>2026-04-02T08:23:32.202Z</time></trkpt><trkpt lat="45.3998917" lon="10.6652483"><ele>123.0</ele><time>2026-04-02T08:23:33.205Z</time></trkpt><trkpt lat="45.399835" lon="10.6654783"><ele>123.0</ele><time>2026-04-02T08:23:34.199Z</time></trkpt><trkpt lat="45.399775" lon="10.6657117"><ele>123.33333333333334</ele><time>2026-04-02T08:23:35.205Z</time></trkpt><trkpt lat="45.3997083" lon="10.6659617"><ele>123.66666666666667</ele><time>2026-04-02T08:23:36.206Z</time></trkpt><trkpt lat="45.3996117" lon="10.6661883"><ele>124.0</ele><time>2026-04-02T08:23:37.224Z</time></trkpt><trkpt lat="45.3995117" lon="10.6664183"><ele>124.33333333333334</ele><time>2026-04-02T08:23:38.202Z</time></trkpt><trkpt lat="45.3994383" lon="10.666655"><ele>124.66666666666666</ele><time>2026-04-02T08:23:39.206Z</time></trkpt><trkpt lat="45.3993967" lon="10.66694"><ele>125.0</ele><time>2026-04-02T08:23:40.203Z</time></trkpt><trkpt lat="45.3993383" lon="10.6672367"><ele>125.0</ele><time>2026-04-02T08:23:41.198Z</time></trkpt><trkpt lat="45.39926" lon="10.66753"><ele>125.0</ele><time>2026-04-02T08:23:42.206Z</time></trkpt><trkpt lat="45.399195" lon="10.6678"><ele>125.0</ele><time>2026-04-02T08:23:43.21Z</time></trkpt><trkpt lat="45.3991167" lon="10.6680233"><ele>125.25</ele><time>2026-04-02T08:23:44.201Z</time></trkpt><trkpt lat="45.39903" lon="10.6682133"><ele>125.5</ele><time>2026-04-02T08:23:45.202Z</time></trkpt><trkpt lat="45.39894" lon="10.6683633"><ele>125.75</ele><time>2026-04-02T08:23:46.203Z</time></trkpt><trkpt lat="45.3988517" lon="10.6685283"><ele>126.0</ele><time>2026-04-02T08:23:47.202Z</time></trkpt><trkpt lat="45.398785" lon="10.66873"><ele>126.0</ele><time>2026-04-02T08:23:48.204Z</time></trkpt><trkpt lat="45.3986767" lon="10.66892"><ele>126.0</ele><time>2026-04-02T08:23:49.216Z</time></trkpt><trkpt lat="45.3986467" lon="10.6691133"><ele>126.0</ele><time>2026-04-02T08:23:50.202Z</time></trkpt><trkpt lat="45.3985983" lon="10.6692783"><ele>126.0</ele><time>2026-04-02T08:23:51.204Z</time></trkpt><trkpt lat="45.398545" lon="10.6693983"><ele>125.5</ele><time>2026-04-02T08:23:52.204Z</time></trkpt><trkpt lat="45.3984883" lon="10.669505"><ele>125.0</ele><time>2026-04-02T08:23:53.213Z</time></trkpt><trkpt lat="45.3984117" lon="10.6696283"><ele>124.5</ele><time>2026-04-02T08:23:54.2Z</time></trkpt><trkpt lat="45.3983117" lon="10.6697667"><ele>124.0</ele><time>2026-04-02T08:23:55.213Z</time></trkpt><trkpt lat="45.3981983" lon="10.6699183"><ele>124.0</ele><time>2026-04-02T08:23:56.203Z</time></trkpt><trkpt lat="45.3981333" lon="10.670115"><ele>124.0</ele><time>2026-04-02T08:23:57.204Z</time></trkpt><trkpt lat="45.39801" lon="10.6702783"><ele>124.0</ele><time>2026-04-02T08:23:58.201Z</time></trkpt><trkpt lat="45.3979" lon="10.6704417"><ele>122.5</ele><time>2026-04-02T08:23:59.212Z</time></trkpt><trkpt lat="45.39779" lon="10.670575"><ele>121.0</ele><time>2026-04-02T08:24:00.202Z</time></trkpt><trkpt lat="45.3976883" lon="10.6706867"><ele>119.5</ele><time>2026-04-02T08:24:01.202Z</time></trkpt><trkpt lat="45.39762" lon="10.6708083"><ele>118.0</ele><time>2026-04-02T08:24:02.204Z</time></trkpt><trkpt lat="45.3975367" lon="10.670935"><ele>118.0</ele><time>2026-04-02T08:24:03.205Z</time></trkpt><trkpt lat="45.397455" lon="10.6710433"><ele>118.00000000000001</ele><time>2026-04-02T08:24:04.199Z</time></trkpt><trkpt lat="45.3973783" lon="10.6711483"><ele>118.00000000000001</ele><time>2026-04-02T08:24:05.205Z</time></trkpt><trkpt lat="45.397315" lon="10.671265"><ele>118.0</ele><time>2026-04-02T08:24:06.2Z</time></trkpt><trkpt lat="45.397245" lon="10.6713783"><ele>118.0</ele><time>2026-04-02T08:24:07.201Z</time></trkpt><trkpt lat="45.3971817" lon="10.6714967"><ele>117.80000000000001</ele><time>2026-04-02T08:24:08.202Z</time></trkpt><trkpt lat="45.3971167" lon="10.6716083"><ele>117.60000000000001</ele><time>2026-04-02T08:24:09.204Z</time></trkpt><trkpt lat="45.39707" lon="10.6717117"><ele>117.39999999999999</ele><time>2026-04-02T08:24:10.2Z</time></trkpt><trkpt lat="45.3970117" lon="10.67184"><ele>117.19999999999999</ele><time>2026-04-02T08:24:11.206Z</time></trkpt><trkpt lat="45.3969767" lon="10.67198"><ele>117.0</ele><time>2026-04-02T08:24:12.201Z</time></trkpt><trkpt lat="45.3969033" lon="10.67208"><ele>116.75</ele><time>2026-04-02T08:24:13.206Z</time></trkpt><trkpt lat="45.39688" lon="10.6722217"><ele>116.5</ele><time>2026-04-02T08:24:14.202Z</time></trkpt><trkpt lat="45.39684" lon="10.6723617"><ele>116.25</ele><time>2026-04-02T08:24:15.207Z</time></trkpt><trkpt lat="45.3968167" lon="10.6725117"><ele>116.0</ele><time>2026-04-02T08:24:16.2Z</time></trkpt><trkpt lat="45.3967867" lon="10.6727133"><ele>115.0</ele><time>2026-04-02T08:24:17.203Z</time></trkpt><trkpt lat="45.3967433" lon="10.67296"><ele>114.0</ele><time>2026-04-02T08:24:18.207Z</time></trkpt><trkpt lat="45.3967133" lon="10.67323"><ele>113.0</ele><time>2026-04-02T08:24:19.198Z</time></trkpt><trkpt lat="45.3966667" lon="10.673515"><ele>113.0</ele><time>2026-04-02T08:24:20.218Z</time></trkpt><trkpt lat="45.39661" lon="10.6738317"><ele>113.0</ele><time>2026-04-02T08:24:21.204Z</time></trkpt><trkpt lat="45.3965383" lon="10.674155"><ele>112.0</ele><time>2026-04-02T08:24:22.202Z</time></trkpt><trkpt lat="45.3964583" lon="10.6744933"><ele>111.0</ele><time>2026-04-02T08:24:23.204Z</time></trkpt><trkpt lat="45.3963383" lon="10.6748217"><ele>113.0</ele><time>2026-04-02T08:24:24.216Z</time></trkpt><trkpt lat="45.3962467" lon="10.6751483"><ele>115.0</ele><time>2026-04-02T08:24:25.205Z</time></trkpt><trkpt lat="45.3961583" lon="10.6754867"><ele>115.0</ele><time>2026-04-02T08:24:26.202Z</time></trkpt><trkpt lat="45.39609" lon="10.675805"><ele>115.0</ele><time>2026-04-02T08:24:27.222Z</time></trkpt><trkpt lat="45.3960433" lon="10.6761167"><ele>114.33333333333334</ele><time>2026-04-02T08:24:28.211Z</time></trkpt><trkpt lat="45.3960083" lon="10.6764417"><ele>113.66666666666666</ele><time>2026-04-02T08:24:29.204Z</time></trkpt><trkpt lat="45.3959817" lon="10.6767167"><ele>113.0</ele><time>2026-04-02T08:24:30.21Z</time></trkpt><trkpt lat="45.3959667" lon="10.6769167"><ele>112.4</ele><time>2026-04-02T08:24:31.221Z</time></trkpt><trkpt lat="45.39595" lon="10.67707"><ele>111.80000000000001</ele><time>2026-04-02T08:24:32.212Z</time></trkpt><trkpt lat="45.3959167" lon="10.6771933"><ele>111.2</ele><time>2026-04-02T08:24:33.212Z</time></trkpt><trkpt lat="45.3958783" lon="10.677315"><ele>110.6</ele><time>2026-04-02T08:24:34.207Z</time></trkpt><trkpt lat="45.3959017" lon="10.6774533"><ele>110.0</ele><time>2026-04-02T08:24:35.203Z</time></trkpt><trkpt lat="45.39591" lon="10.6776383"><ele>109.75</ele><time>2026-04-02T08:24:36.208Z</time></trkpt><trkpt lat="45.3959033" lon="10.6778217"><ele>109.5</ele><time>2026-04-02T08:24:37.209Z</time></trkpt><trkpt lat="45.3958733" lon="10.6780267"><ele>109.25</ele><time>2026-04-02T08:24:38.202Z</time></trkpt><trkpt lat="45.3958517" lon="10.6782517"><ele>109.0</ele><time>2026-04-02T08:24:39.209Z</time></trkpt><trkpt lat="45.39585" lon="10.678485"><ele>109.25</ele><time>2026-04-02T08:24:40.203Z</time></trkpt><trkpt lat="45.395845" lon="10.6787033"><ele>109.5</ele><time>2026-04-02T08:24:41.203Z</time></trkpt><trkpt lat="45.3958183" lon="10.67892"><ele>109.75</ele><time>2026-04-02T08:24:42.2Z</time></trkpt><trkpt lat="45.3957983" lon="10.6791167"><ele>110.0</ele><time>2026-04-02T08:24:43.223Z</time></trkpt><trkpt lat="45.395765" lon="10.6793017"><ele>110.2</ele><time>2026-04-02T08:24:44.217Z</time></trkpt><trkpt lat="45.3957417" lon="10.6794967"><ele>110.4</ele><time>2026-04-02T08:24:45.201Z</time></trkpt><trkpt lat="45.3957183" lon="10.67964"><ele>110.6</ele><time>2026-04-02T08:24:46.203Z</time></trkpt><trkpt lat="45.395685" lon="10.6797733"><ele>110.8</ele><time>2026-04-02T08:24:47.207Z</time></trkpt><trkpt lat="45.3956483" lon="10.6798917"><ele>111.0</ele><time>2026-04-02T08:24:48.201Z</time></trkpt><trkpt lat="45.3956367" lon="10.6800233"><ele>111.0</ele><time>2026-04-02T08:24:49.206Z</time></trkpt><trkpt lat="45.3956267" lon="10.6801617"><ele>111.0</ele><time>2026-04-02T08:24:50.212Z</time></trkpt><trkpt lat="45.3956083" lon="10.6802767"><ele>111.0</ele><time>2026-04-02T08:24:51.203Z</time></trkpt><trkpt lat="45.3955917" lon="10.680395"><ele>111.0</ele><time>2026-04-02T08:24:52.212Z</time></trkpt><trkpt lat="45.395575" lon="10.6805067"><ele>111.0</ele><time>2026-04-02T08:24:53.208Z</time></trkpt><trkpt lat="45.3955633" lon="10.6806083"><ele>111.0</ele><time>2026-04-02T08:24:54.207Z</time></trkpt><trkpt lat="45.3955867" lon="10.6807683"><ele>110.83333333333333</ele><time>2026-04-02T08:24:56.207Z</time></trkpt><trkpt lat="45.3956867" lon="10.680825"><ele>110.66666666666666</ele><time>2026-04-02T08:24:58.203Z</time></trkpt><trkpt lat="45.39576" lon="10.6808517"><ele>110.5</ele><time>2026-04-02T08:24:59.205Z</time></trkpt><trkpt lat="45.39582" lon="10.6809017"><ele>110.33333333333333</ele><time>2026-04-02T08:25:00.215Z</time></trkpt><trkpt lat="45.3958633" lon="10.6809733"><ele>110.16666666666666</ele><time>2026-04-02T08:25:01.208Z</time></trkpt><trkpt lat="45.3958933" lon="10.6810683"><ele>110.0</ele><time>2026-04-02T08:25:02.208Z</time></trkpt><trkpt lat="45.3959217" lon="10.681165"><ele>109.99999999999999</ele><time>2026-04-02T08:25:03.207Z</time></trkpt><trkpt lat="45.3959617" lon="10.68126"><ele>110.0</ele><time>2026-04-02T08:25:04.209Z</time></trkpt><trkpt lat="45.396015" lon="10.6813517"><ele>110.0</ele><time>2026-04-02T08:25:05.208Z</time></trkpt><trkpt lat="45.39608" lon="10.6814367"><ele>110.0</ele><time>2026-04-02T08:25:06.206Z</time></trkpt><trkpt lat="45.396165" lon="10.6815033"><ele>109.99999999999999</ele><time>2026-04-02T08:25:07.201Z</time></trkpt><trkpt lat="45.396245" lon="10.6815783"><ele>110.0</ele><time>2026-04-02T08:25:08.212Z</time></trkpt><trkpt lat="45.3963267" lon="10.6816217"><ele>109.8</ele><time>2026-04-02T08:25:09.209Z</time></trkpt><trkpt lat="45.39642" lon="10.681625"><ele>109.6</ele><time>2026-04-02T08:25:10.198Z</time></trkpt><trkpt lat="45.3965217" lon="10.6816167"><ele>109.4</ele><time>2026-04-02T08:25:11.205Z</time></trkpt><trkpt lat="45.3966283" lon="10.6815517"><ele>109.2</ele><time>2026-04-02T08:25:12.205Z</time></trkpt><trkpt lat="45.3967533" lon="10.6814733"><ele>109.0</ele><time>2026-04-02T08:25:13.204Z</time></trkpt><trkpt lat="45.39688" lon="10.681435"><ele>109.0</ele><time>2026-04-02T08:25:14.203Z</time></trkpt><trkpt lat="45.397015" lon="10.6813833"><ele>109.0</ele><time>2026-04-02T08:25:15.208Z</time></trkpt><trkpt lat="45.3971517" lon="10.6813467"><ele>109.0</ele><time>2026-04-02T08:25:16.206Z</time></trkpt><trkpt lat="45.3972833" lon="10.68132"><ele>109.0</ele><time>2026-04-02T08:25:17.208Z</time></trkpt><trkpt lat="45.3974433" lon="10.6813017"><ele>108.0</ele><time>2026-04-02T08:25:18.215Z</time></trkpt><trkpt lat="45.3975983" lon="10.6813"><ele>107.0</ele><time>2026-04-02T08:25:19.212Z</time></trkpt><trkpt lat="45.39774" lon="10.6813133"><ele>106.0</ele><time>2026-04-02T08:25:20.205Z</time></trkpt><trkpt lat="45.3978717" lon="10.68129"><ele>105.0</ele><time>2026-04-02T08:25:21.207Z</time></trkpt><trkpt lat="45.398015" lon="10.681255"><ele>104.5</ele><time>2026-04-02T08:25:22.205Z</time></trkpt><trkpt lat="45.3981533" lon="10.6812167"><ele>104.0</ele><time>2026-04-02T08:25:23.222Z</time></trkpt><trkpt lat="45.3982817" lon="10.6811767"><ele>103.5</ele><time>2026-04-02T08:25:24.21Z</time></trkpt><trkpt lat="45.3984" lon="10.68113"><ele>103.0</ele><time>2026-04-02T08:25:25.217Z</time></trkpt><trkpt lat="45.398495" lon="10.6810767"><ele>103.0</ele><time>2026-04-02T08:25:26.206Z</time></trkpt><trkpt lat="45.3985933" lon="10.6810217"><ele>103.0</ele><time>2026-04-02T08:25:27.199Z</time></trkpt><trkpt lat="45.39871" lon="10.6809583"><ele>103.0</ele><time>2026-04-02T08:25:28.219Z</time></trkpt><trkpt lat="45.3987867" lon="10.68093"><ele>103.0</ele><time>2026-04-02T08:25:29.205Z</time></trkpt><trkpt lat="45.3988933" lon="10.6809017"><ele>103.0</ele><time>2026-04-02T08:25:30.199Z</time></trkpt><trkpt lat="45.399005" lon="10.6808867"><ele>103.0</ele><time>2026-04-02T08:25:31.206Z</time></trkpt><trkpt lat="45.399125" lon="10.6808567"><ele>103.0</ele><time>2026-04-02T08:25:32.207Z</time></trkpt><trkpt lat="45.39926" lon="10.6808117"><ele>103.0</ele><time>2026-04-02T08:25:33.205Z</time></trkpt><trkpt lat="45.3993717" lon="10.6807917"><ele>103.0</ele><time>2026-04-02T08:25:34.207Z</time></trkpt><trkpt lat="45.399495" lon="10.68079"><ele>103.0</ele><time>2026-04-02T08:25:35.209Z</time></trkpt><trkpt lat="45.3995833" lon="10.680815"><ele>103.0</ele><time>2026-04-02T08:25:36.203Z</time></trkpt><trkpt lat="45.3996933" lon="10.6808433"><ele>103.0</ele><time>2026-04-02T08:25:37.209Z</time></trkpt><trkpt lat="45.3998083" lon="10.6808817"><ele>103.0</ele><time>2026-04-02T08:25:38.204Z</time></trkpt><trkpt lat="45.3998983" lon="10.6809133"><ele>103.0</ele><time>2026-04-02T08:25:39.2Z</time></trkpt><trkpt lat="45.3999933" lon="10.68094"><ele>102.83333333333334</ele><time>2026-04-02T08:25:40.202Z</time></trkpt><trkpt lat="45.4000733" lon="10.6809567"><ele>102.66666666666667</ele><time>2026-04-02T08:25:41.212Z</time></trkpt><trkpt lat="45.4001567" lon="10.6809617"><ele>102.5</ele><time>2026-04-02T08:25:42.205Z</time></trkpt><trkpt lat="45.40023" lon="10.6809683"><ele>102.33333333333334</ele><time>2026-04-02T08:25:43.21Z</time></trkpt><trkpt lat="45.400295" lon="10.6809717"><ele>102.16666666666667</ele><time>2026-04-02T08:25:44.215Z</time></trkpt><trkpt lat="45.4004017" lon="10.6809883"><ele>102.0</ele><time>2026-04-02T08:25:46.205Z</time></trkpt><trkpt lat="45.4004683" lon="10.6810133"><ele>102.0</ele><time>2026-04-02T08:25:48.207Z</time></trkpt><trkpt lat="45.4005383" lon="10.6809783"><ele>102.0</ele><time>2026-04-02T08:25:51.216Z</time></trkpt><trkpt lat="45.40056" lon="10.68088"><ele>102.0</ele><time>2026-04-02T08:25:54.217Z</time></trkpt><trkpt lat="45.4005767" lon="10.6807933"><ele>102.0</ele><time>2026-04-02T08:25:57.215Z</time></trkpt><trkpt lat="45.40051" lon="10.6807917"><ele>102.0</ele><time>2026-04-02T08:26:03.204Z</time></trkpt><trkpt lat="45.4005083" lon="10.6808867"><ele>102.0</ele><time>2026-04-02T08:26:05.217Z</time></trkpt><trkpt lat="45.400485" lon="10.6810033"><ele>102.0</ele><time>2026-04-02T08:26:08.207Z</time></trkpt><trkpt lat="45.4004133" lon="10.681025"><ele>102.0</ele><time>2026-04-02T08:26:11.204Z</time></trkpt><trkpt lat="45.4003383" lon="10.6810017"><ele>102.0</ele><time>2026-04-02T08:26:13.209Z</time></trkpt><trkpt lat="45.4002367" lon="10.6809783"><ele>102.0</ele><time>2026-04-02T08:26:15.216Z</time></trkpt><trkpt lat="45.4001133" lon="10.6809583"><ele>102.0</ele><time>2026-04-02T08:26:17.208Z</time></trkpt><trkpt lat="45.40005" lon="10.680945"><ele>102.0</ele><time>2026-04-02T08:26:18.205Z</time></trkpt><trkpt lat="45.39993" lon="10.6809183"><ele>102.0</ele><time>2026-04-02T08:26:20.209Z</time></trkpt><trkpt lat="45.39983" lon="10.68089"><ele>102.0</ele><time>2026-04-02T08:26:22.211Z</time></trkpt><trkpt lat="45.3997267" lon="10.6808633"><ele>102.0</ele><time>2026-04-02T08:26:24.201Z</time></trkpt><trkpt lat="45.3996167" lon="10.680835"><ele>102.0</ele><time>2026-04-02T08:26:26.212Z</time></trkpt><trkpt lat="45.3994983" lon="10.6807983"><ele>102.0</ele><time>2026-04-02T08:26:28.204Z</time></trkpt><trkpt lat="45.3994317" lon="10.6807933"><ele>102.25</ele><time>2026-04-02T08:26:29.202Z</time></trkpt><trkpt lat="45.3993083" lon="10.6807933"><ele>102.5</ele><time>2026-04-02T08:26:31.204Z</time></trkpt><trkpt lat="45.3991983" lon="10.680805"><ele>102.75</ele><time>2026-04-02T08:26:33.21Z</time></trkpt><trkpt lat="45.3990933" lon="10.6808333"><ele>103.0</ele><time>2026-04-02T08:26:35.208Z</time></trkpt><trkpt lat="45.39897" lon="10.6808583"><ele>103.00000000000001</ele><time>2026-04-02T08:26:37.205Z</time></trkpt><trkpt lat="45.3989" lon="10.68087"><ele>103.0</ele><time>2026-04-02T08:26:38.21Z</time></trkpt><trkpt lat="45.3988283" lon="10.68089"><ele>103.0</ele><time>2026-04-02T08:26:39.205Z</time></trkpt><trkpt lat="45.3987583" lon="10.6809133"><ele>103.0</ele><time>2026-04-02T08:26:40.204Z</time></trkpt><trkpt lat="45.39868" lon="10.6809417"><ele>103.00000000000001</ele><time>2026-04-02T08:26:41.213Z</time></trkpt><trkpt lat="45.3986033" lon="10.6809783"><ele>103.0</ele><time>2026-04-02T08:26:42.21Z</time></trkpt><trkpt lat="45.39853" lon="10.6810233"><ele>103.00000000000001</ele><time>2026-04-02T08:26:43.202Z</time></trkpt><trkpt lat="45.3984567" lon="10.68107"><ele>103.0</ele><time>2026-04-02T08:26:44.202Z</time></trkpt><trkpt lat="45.39839" lon="10.68111"><ele>103.0</ele><time>2026-04-02T08:26:45.21Z</time></trkpt><trkpt lat="45.3983" lon="10.681155"><ele>103.0</ele><time>2026-04-02T08:26:47.203Z</time></trkpt><trkpt lat="45.3982867" lon="10.681245"><ele>103.00000000000001</ele><time>2026-04-02T08:26:49.202Z</time></trkpt><trkpt lat="45.3983117" lon="10.6814117"><ele>103.0</ele><time>2026-04-02T08:26:51.216Z</time></trkpt><trkpt lat="45.3983283" lon="10.681515"><ele>103.00000000000001</ele><time>2026-04-02T08:26:52.204Z</time></trkpt><trkpt lat="45.39835" lon="10.681625"><ele>103.0</ele><time>2026-04-02T08:26:53.202Z</time></trkpt><trkpt lat="45.3983683" lon="10.6817367"><ele>103.0</ele><time>2026-04-02T08:26:54.216Z</time></trkpt><trkpt lat="45.3983867" lon="10.681855"><ele>103.0</ele><time>2026-04-02T08:26:55.211Z</time></trkpt><trkpt lat="45.398405" lon="10.6819717"><ele>103.00000000000001</ele><time>2026-04-02T08:26:56.201Z</time></trkpt><trkpt lat="45.39842" lon="10.6820817"><ele>103.0</ele><time>2026-04-02T08:26:57.208Z</time></trkpt><trkpt lat="45.3984367" lon="10.6821833"><ele>102.83333333333334</ele><time>2026-04-02T08:26:58.203Z</time></trkpt><trkpt lat="45.3984533" lon="10.6822767"><ele>102.66666666666667</ele><time>2026-04-02T08:26:59.206Z</time></trkpt><trkpt lat="45.39847" lon="10.6823633"><ele>102.5</ele><time>2026-04-02T08:27:00.204Z</time></trkpt><trkpt lat="45.398495" lon="10.6825133"><ele>102.33333333333334</ele><time>2026-04-02T08:27:02.21Z</time></trkpt><trkpt lat="45.39849" lon="10.6826317"><ele>102.16666666666667</ele><time>2026-04-02T08:27:04.207Z</time></trkpt><trkpt lat="45.3984133" lon="10.6827033"><ele>102.0</ele><time>2026-04-02T08:27:06.204Z</time></trkpt><trkpt lat="45.3983333" lon="10.6827617"><ele>102.16666666666667</ele><time>2026-04-02T08:27:08.203Z</time></trkpt><trkpt lat="45.3983233" lon="10.6828533"><ele>102.33333333333334</ele><time>2026-04-02T08:27:10.21Z</time></trkpt><trkpt lat="45.3983317" lon="10.6829683"><ele>102.5</ele><time>2026-04-02T08:27:13.205Z</time></trkpt><trkpt lat="45.3982167" lon="10.6830033"><ele>102.66666666666667</ele><time>2026-04-02T08:27:16.197Z</time></trkpt><trkpt lat="45.398145" lon="10.6829933"><ele>102.83333333333334</ele><time>2026-04-02T08:27:17.215Z</time></trkpt><trkpt lat="45.3980667" lon="10.682985"><ele>103.0</ele><time>2026-04-02T08:27:18.205Z</time></trkpt><trkpt lat="45.397985" lon="10.6829717"><ele>103.50000000000001</ele><time>2026-04-02T08:27:19.205Z</time></trkpt><trkpt lat="45.3979" lon="10.68296"><ele>104.0</ele><time>2026-04-02T08:27:20.207Z</time></trkpt><trkpt lat="45.3978133" lon="10.6829467"><ele>104.5</ele><time>2026-04-02T08:27:21.212Z</time></trkpt><trkpt lat="45.3977283" lon="10.68294"><ele>105.0</ele><time>2026-04-02T08:27:22.202Z</time></trkpt><trkpt lat="45.3976533" lon="10.68294"><ele>105.50000000000001</ele><time>2026-04-02T08:27:23.206Z</time></trkpt><trkpt lat="45.3975583" lon="10.68298"><ele>106.0</ele><time>2026-04-02T08:27:25.202Z</time></trkpt><trkpt lat="45.3975667" lon="10.6830783"><ele>106.0</ele><time>2026-04-02T08:27:27.203Z</time></trkpt><trkpt lat="45.39756" lon="10.68323"><ele>106.0</ele><time>2026-04-02T08:27:29.203Z</time></trkpt><trkpt lat="45.3975367" lon="10.6833367"><ele>106.0</ele><time>2026-04-02T08:27:30.209Z</time></trkpt><trkpt lat="45.39749" lon="10.6834733"><ele>106.0</ele><time>2026-04-02T08:27:31.206Z</time></trkpt><trkpt lat="45.39744" lon="10.6836017"><ele>106.0</ele><time>2026-04-02T08:27:32.231Z</time></trkpt><trkpt lat="45.397395" lon="10.6837417"><ele>105.66666666666667</ele><time>2026-04-02T08:27:33.201Z</time></trkpt><trkpt lat="45.397345" lon="10.6838517"><ele>105.33333333333334</ele><time>2026-04-02T08:27:34.202Z</time></trkpt><trkpt lat="45.3972983" lon="10.6839433"><ele>105.0</ele><time>2026-04-02T08:27:35.206Z</time></trkpt><trkpt lat="45.397255" lon="10.6840183"><ele>104.66666666666666</ele><time>2026-04-02T08:27:36.206Z</time></trkpt><trkpt lat="45.3972067" lon="10.68408"><ele>104.33333333333333</ele><time>2026-04-02T08:27:37.202Z</time></trkpt><trkpt lat="45.3970967" lon="10.684135"><ele>104.0</ele><time>2026-04-02T08:27:39.204Z</time></trkpt><trkpt lat="45.3969983" lon="10.6841433"><ele>103.6</ele><time>2026-04-02T08:27:41.201Z</time></trkpt><trkpt lat="45.3969317" lon="10.6842267"><ele>103.2</ele><time>2026-04-02T08:27:44.201Z</time></trkpt><trkpt lat="45.3969617" lon="10.6844"><ele>102.8</ele><time>2026-04-02T08:27:46.222Z</time></trkpt><trkpt lat="45.3969933" lon="10.6845117"><ele>102.39999999999999</ele><time>2026-04-02T08:27:47.216Z</time></trkpt><trkpt lat="45.3970283" lon="10.68464"><ele>102.0</ele><time>2026-04-02T08:27:48.202Z</time></trkpt><trkpt lat="45.39707" lon="10.6847867"><ele>102.0</ele><time>2026-04-02T08:27:49.21Z</time></trkpt><trkpt lat="45.3971167" lon="10.6849367"><ele>102.0</ele><time>2026-04-02T08:27:50.201Z</time></trkpt><trkpt lat="45.3971483" lon="10.6850767"><ele>102.0</ele><time>2026-04-02T08:27:51.205Z</time></trkpt><trkpt lat="45.397175" lon="10.6852233"><ele>102.0</ele><time>2026-04-02T08:27:52.203Z</time></trkpt><trkpt lat="45.3971967" lon="10.68537"><ele>102.0</ele><time>2026-04-02T08:27:53.212Z</time></trkpt><trkpt lat="45.397215" lon="10.6854867"><ele>102.0</ele><time>2026-04-02T08:27:54.2Z</time></trkpt><trkpt lat="45.3972367" lon="10.6856067"><ele>102.0</ele><time>2026-04-02T08:27:55.214Z</time></trkpt><trkpt lat="45.3972483" lon="10.6857"><ele>102.0</ele><time>2026-04-02T08:27:56.197Z</time></trkpt><trkpt lat="45.3972733" lon="10.68586"><ele>102.0</ele><time>2026-04-02T08:27:58.202Z</time></trkpt><trkpt lat="45.3972867" lon="10.6859817"><ele>102.0</ele><time>2026-04-02T08:28:00.209Z</time></trkpt><trkpt lat="45.3973133" lon="10.6860917"><ele>102.0</ele><time>2026-04-02T08:28:16.199Z</time></trkpt><trkpt lat="45.3972783" lon="10.6861767"><ele>102.0</ele><time>2026-04-02T08:28:18.219Z</time></trkpt><trkpt lat="45.3971983" lon="10.68631"><ele>102.0</ele><time>2026-04-02T08:28:20.209Z</time></trkpt><trkpt lat="45.397155" lon="10.686395"><ele>102.0</ele><time>2026-04-02T08:28:21.205Z</time></trkpt><trkpt lat="45.3971067" lon="10.6864833"><ele>102.0</ele><time>2026-04-02T08:28:22.199Z</time></trkpt><trkpt lat="45.3970517" lon="10.6865767"><ele>102.0</ele><time>2026-04-02T08:28:23.204Z</time></trkpt><trkpt lat="45.3969917" lon="10.686675"><ele>101.16666666666667</ele><time>2026-04-02T08:28:24.21Z</time></trkpt><trkpt lat="45.3969333" lon="10.6867733"><ele>100.33333333333334</ele><time>2026-04-02T08:28:25.209Z</time></trkpt><trkpt lat="45.3968767" lon="10.6868683"><ele>99.5</ele><time>2026-04-02T08:28:26.2Z</time></trkpt><trkpt lat="45.396825" lon="10.6869533"><ele>98.66666666666667</ele><time>2026-04-02T08:28:27.216Z</time></trkpt><trkpt lat="45.396775" lon="10.6870317"><ele>97.83333333333334</ele><time>2026-04-02T08:28:28.209Z</time></trkpt><trkpt lat="45.3967233" lon="10.6870933"><ele>97.0</ele><time>2026-04-02T08:28:29.21Z</time></trkpt><trkpt lat="45.396625" lon="10.68718"><ele>96.50000000000001</ele><time>2026-04-02T08:28:31.203Z</time></trkpt><trkpt lat="45.3965433" lon="10.68723"><ele>96.0</ele><time>2026-04-02T08:28:33.204Z</time></trkpt><trkpt lat="45.3964733" lon="10.687275"><ele>95.5</ele><time>2026-04-02T08:28:35.198Z</time></trkpt><trkpt lat="45.3964367" lon="10.687355"><ele>95.0</ele><time>2026-04-02T08:28:38.206Z</time></trkpt><trkpt lat="45.39653" lon="10.6873883"><ele>94.5</ele><time>2026-04-02T08:28:42.201Z</time></trkpt><trkpt lat="45.3966367" lon="10.6873783"><ele>94.0</ele><time>2026-04-02T08:28:44.207Z</time></trkpt><trkpt lat="45.3967467" lon="10.68738"><ele>94.0</ele><time>2026-04-02T08:28:46.204Z</time></trkpt><trkpt lat="45.3968583" lon="10.6873783"><ele>94.0</ele><time>2026-04-02T08:28:48.204Z</time></trkpt><trkpt lat="45.3969517" lon="10.6873783"><ele>94.0</ele><time>2026-04-02T08:28:50.202Z</time></trkpt><trkpt lat="45.3970433" lon="10.6873733"><ele>94.0</ele><time>2026-04-02T08:28:52.2Z</time></trkpt><trkpt lat="45.39714" lon="10.687365"><ele>94.0</ele><time>2026-04-02T08:28:54.2Z</time></trkpt><trkpt lat="45.3972433" lon="10.6873567"><ele>94.80000000000001</ele><time>2026-04-02T08:28:56.211Z</time></trkpt><trkpt lat="45.3973617" lon="10.6873383"><ele>95.60000000000001</ele><time>2026-04-02T08:28:58.202Z</time></trkpt><trkpt lat="45.3974867" lon="10.6873017"><ele>96.4</ele><time>2026-04-02T08:29:00.204Z</time></trkpt><trkpt lat="45.39756" lon="10.687275"><ele>97.2</ele><time>2026-04-02T08:29:01.204Z</time></trkpt><trkpt lat="45.3976383" lon="10.68725"><ele>98.0</ele><time>2026-04-02T08:29:02.205Z</time></trkpt><trkpt lat="45.3977167" lon="10.687225"><ele>97.99999999999999</ele><time>2026-04-02T08:29:03.204Z</time></trkpt><trkpt lat="45.3977917" lon="10.6872067"><ele>98.0</ele><time>2026-04-02T08:29:04.197Z</time></trkpt><trkpt lat="45.3978567" lon="10.687195"><ele>98.0</ele><time>2026-04-02T08:29:05.199Z</time></trkpt><trkpt lat="45.3979767" lon="10.68717"><ele>98.0</ele><time>2026-04-02T08:29:07.199Z</time></trkpt><trkpt lat="45.3980483" lon="10.6871717"><ele>97.99999999999999</ele><time>2026-04-02T08:29:08.206Z</time></trkpt><trkpt lat="45.3981217" lon="10.68718"><ele>98.0</ele><time>2026-04-02T08:29:09.207Z</time></trkpt><trkpt lat="45.3982" lon="10.6871967"><ele>97.99999999999999</ele><time>2026-04-02T08:29:10.203Z</time></trkpt><trkpt lat="45.3982667" lon="10.6872167"><ele>98.0</ele><time>2026-04-02T08:29:11.206Z</time></trkpt><trkpt lat="45.398375" lon="10.6872717"><ele>98.0</ele><time>2026-04-02T08:29:13.199Z</time></trkpt><trkpt lat="45.3984567" lon="10.687335"><ele>98.0</ele><time>2026-04-02T08:29:15.209Z</time></trkpt><trkpt lat="45.3985167" lon="10.6873833"><ele>97.99999999999999</ele><time>2026-04-02T08:29:17.204Z</time></trkpt><trkpt lat="45.3985667" lon="10.6872767"><ele>98.0</ele><time>2026-04-02T08:29:21.207Z</time></trkpt><trkpt lat="45.3985433" lon="10.6870967"><ele>98.0</ele><time>2026-04-02T08:29:23.199Z</time></trkpt><trkpt lat="45.398535" lon="10.686995"><ele>98.0</ele><time>2026-04-02T08:29:24.202Z</time></trkpt><trkpt lat="45.398545" lon="10.6869017"><ele>98.0</ele><time>2026-04-02T08:29:25.203Z</time></trkpt><trkpt lat="45.39858" lon="10.6868267"><ele>98.0</ele><time>2026-04-02T08:29:26.202Z</time></trkpt><trkpt lat="45.3986333" lon="10.6867617"><ele>98.0</ele><time>2026-04-02T08:29:27.21Z</time></trkpt><trkpt lat="45.3986983" lon="10.686705"><ele>98.0</ele><time>2026-04-02T08:29:28.21Z</time></trkpt><trkpt lat="45.39878" lon="10.6866517"><ele>98.0</ele><time>2026-04-02T08:29:29.205Z</time></trkpt><trkpt lat="45.3988617" lon="10.6865933"><ele>97.49999999999999</ele><time>2026-04-02T08:29:30.2Z</time></trkpt><trkpt lat="45.3989483" lon="10.686535"><ele>97.0</ele><time>2026-04-02T08:29:31.214Z</time></trkpt><trkpt lat="45.3990433" lon="10.6864667"><ele>96.5</ele><time>2026-04-02T08:29:32.197Z</time></trkpt><trkpt lat="45.3991167" lon="10.6864033"><ele>96.0</ele><time>2026-04-02T08:29:33.199Z</time></trkpt><trkpt lat="45.3991883" lon="10.6863583"><ele>95.5</ele><time>2026-04-02T08:29:34.206Z</time></trkpt><trkpt lat="45.3992517" lon="10.686315"><ele>95.0</ele><time>2026-04-02T08:29:35.202Z</time></trkpt><trkpt lat="45.399315" lon="10.686275"><ele>95.0</ele><time>2026-04-02T08:29:36.199Z</time></trkpt><trkpt lat="45.3993783" lon="10.6862217"><ele>95.0</ele><time>2026-04-02T08:29:37.202Z</time></trkpt><trkpt lat="45.3994483" lon="10.686165"><ele>95.0</ele><time>2026-04-02T08:29:38.208Z</time></trkpt><trkpt lat="45.3995183" lon="10.6861117"><ele>95.0</ele><time>2026-04-02T08:29:39.199Z</time></trkpt><trkpt lat="45.39958" lon="10.6860633"><ele>95.0</ele><time>2026-04-02T08:29:40.202Z</time></trkpt><trkpt lat="45.3996833" lon="10.6859933"><ele>95.0</ele><time>2026-04-02T08:29:42.212Z</time></trkpt><trkpt lat="45.3997717" lon="10.68595"><ele>95.33333333333334</ele><time>2026-04-02T08:29:44.204Z</time></trkpt><trkpt lat="45.39985" lon="10.6859283"><ele>95.66666666666667</ele><time>2026-04-02T08:29:46.199Z</time></trkpt><trkpt lat="45.39993" lon="10.6859133"><ele>96.0</ele><time>2026-04-02T08:29:48.205Z</time></trkpt><trkpt lat="45.3999983" lon="10.6858983"><ele>96.33333333333334</ele><time>2026-04-02T08:29:50.21Z</time></trkpt><trkpt lat="45.4000733" lon="10.6858867"><ele>96.66666666666667</ele><time>2026-04-02T08:29:52.2Z</time></trkpt><trkpt lat="45.400145" lon="10.68586"><ele>97.0</ele><time>2026-04-02T08:29:55.204Z</time></trkpt><trkpt lat="45.4001883" lon="10.68578"><ele>97.0</ele><time>2026-04-02T08:29:58.205Z</time></trkpt><trkpt lat="45.40019" lon="10.6856733"><ele>97.0</ele><time>2026-04-02T08:30:00.216Z</time></trkpt><trkpt lat="45.4001767" lon="10.6855383"><ele>97.0</ele><time>2026-04-02T08:30:02.21Z</time></trkpt><trkpt lat="45.40016" lon="10.685375"><ele>97.0</ele><time>2026-04-02T08:30:04.206Z</time></trkpt><trkpt lat="45.4001383" lon="10.6852017"><ele>97.0</ele><time>2026-04-02T08:30:06.204Z</time></trkpt><trkpt lat="45.4001217" lon="10.685105"><ele>97.14285714285714</ele><time>2026-04-02T08:30:07.212Z</time></trkpt><trkpt lat="45.4001067" lon="10.68501"><ele>97.28571428571429</ele><time>2026-04-02T08:30:08.198Z</time></trkpt><trkpt lat="45.4000917" lon="10.6849167"><ele>97.42857142857143</ele><time>2026-04-02T08:30:09.199Z</time></trkpt><trkpt lat="45.4000783" lon="10.6848233"><ele>97.57142857142857</ele><time>2026-04-02T08:30:10.203Z</time></trkpt><trkpt lat="45.4000633" lon="10.6847317"><ele>97.71428571428572</ele><time>2026-04-02T08:30:11.196Z</time></trkpt><trkpt lat="45.4000483" lon="10.6846383"><ele>97.85714285714286</ele><time>2026-04-02T08:30:12.205Z</time></trkpt><trkpt lat="45.4000367" lon="10.6845433"><ele>98.0</ele><time>2026-04-02T08:30:13.211Z</time></trkpt><trkpt lat="45.400015" lon="10.6843667"><ele>97.99999999999999</ele><time>2026-04-02T08:30:15.199Z</time></trkpt><trkpt lat="45.4000067" lon="10.6842667"><ele>98.0</ele><time>2026-04-02T08:30:16.208Z</time></trkpt><trkpt lat="45.3999967" lon="10.6841683"><ele>98.0</ele><time>2026-04-02T08:30:17.207Z</time></trkpt><trkpt lat="45.3999867" lon="10.684005"><ele>98.0</ele><time>2026-04-02T08:30:19.204Z</time></trkpt><trkpt lat="45.3999883" lon="10.6838617"><ele>97.99999999999999</ele><time>2026-04-02T08:30:21.201Z</time></trkpt><trkpt lat="45.400035" lon="10.6837633"><ele>98.0</ele><time>2026-04-02T08:30:23.203Z</time></trkpt><trkpt lat="45.4001417" lon="10.683695"><ele>98.0</ele><time>2026-04-02T08:30:25.207Z</time></trkpt><trkpt lat="45.400255" lon="10.683645"><ele>98.0</ele><time>2026-04-02T08:30:27.201Z</time></trkpt><trkpt lat="45.4003467" lon="10.68357"><ele>98.0</ele><time>2026-04-02T08:30:29.208Z</time></trkpt><trkpt lat="45.4004133" lon="10.6834633"><ele>98.0</ele><time>2026-04-02T08:30:31.205Z</time></trkpt><trkpt lat="45.40045" lon="10.6832933"><ele>98.0</ele><time>2026-04-02T08:30:33.205Z</time></trkpt><trkpt lat="45.400455" lon="10.683195"><ele>98.14285714285714</ele><time>2026-04-02T08:30:34.2Z</time></trkpt><trkpt lat="45.4004583" lon="10.6830917"><ele>98.28571428571428</ele><time>2026-04-02T08:30:35.207Z</time></trkpt><trkpt lat="45.4004617" lon="10.6829883"><ele>98.42857142857143</ele><time>2026-04-02T08:30:36.202Z</time></trkpt><trkpt lat="45.400455" lon="10.6828983"><ele>98.57142857142857</ele><time>2026-04-02T08:30:37.203Z</time></trkpt><trkpt lat="45.4004417" lon="10.6828067"><ele>98.71428571428571</ele><time>2026-04-02T08:30:38.206Z</time></trkpt><trkpt lat="45.4004233" lon="10.68271"><ele>98.85714285714286</ele><time>2026-04-02T08:30:39.204Z</time></trkpt><trkpt lat="45.4004017" lon="10.6826067"><ele>99.0</ele><time>2026-04-02T08:30:40.204Z</time></trkpt><trkpt lat="45.4003783" lon="10.6825017"><ele>99.33333333333333</ele><time>2026-04-02T08:30:41.2Z</time></trkpt><trkpt lat="45.4003533" lon="10.682405"><ele>99.66666666666666</ele><time>2026-04-02T08:30:42.207Z</time></trkpt><trkpt lat="45.4003267" lon="10.6823067"><ele>100.0</ele><time>2026-04-02T08:30:43.197Z</time></trkpt><trkpt lat="45.400295" lon="10.6822133"><ele>100.33333333333333</ele><time>2026-04-02T08:30:44.208Z</time></trkpt><trkpt lat="45.4002683" lon="10.6821267"><ele>100.66666666666666</ele><time>2026-04-02T08:30:45.205Z</time></trkpt><trkpt lat="45.4002367" lon="10.681975"><ele>101.0</ele><time>2026-04-02T08:30:47.203Z</time></trkpt><trkpt lat="45.4002467" lon="10.6818767"><ele>101.19999999999999</ele><time>2026-04-02T08:30:49.198Z</time></trkpt><trkpt lat="45.400315" lon="10.6818067"><ele>101.39999999999999</ele><time>2026-04-02T08:30:51.21Z</time></trkpt><trkpt lat="45.400405" lon="10.6817467"><ele>101.6</ele><time>2026-04-02T08:30:53.21Z</time></trkpt><trkpt lat="45.4004917" lon="10.6816667"><ele>101.8</ele><time>2026-04-02T08:30:55.233Z</time></trkpt><trkpt lat="45.40056" lon="10.6815667"><ele>102.0</ele><time>2026-04-02T08:30:57.205Z</time></trkpt><trkpt lat="45.40064" lon="10.68152"><ele>102.0</ele><time>2026-04-02T08:30:59.199Z</time></trkpt><trkpt lat="45.4007617" lon="10.681465"><ele>102.0</ele><time>2026-04-02T08:31:01.208Z</time></trkpt><trkpt lat="45.4008267" lon="10.6814317"><ele>102.0</ele><time>2026-04-02T08:31:02.198Z</time></trkpt><trkpt lat="45.400895" lon="10.6814"><ele>102.0</ele><time>2026-04-02T08:31:03.203Z</time></trkpt><trkpt lat="45.4009633" lon="10.6813767"><ele>102.0</ele><time>2026-04-02T08:31:04.205Z</time></trkpt><trkpt lat="45.4010333" lon="10.6813717"><ele>102.0</ele><time>2026-04-02T08:31:05.206Z</time></trkpt><trkpt lat="45.4011467" lon="10.6814417"><ele>102.0</ele><time>2026-04-02T08:31:07.201Z</time></trkpt><trkpt lat="45.401175" lon="10.6815533"><ele>102.0</ele><time>2026-04-02T08:31:08.198Z</time></trkpt><trkpt lat="45.401205" lon="10.6816717"><ele>102.0</ele><time>2026-04-02T08:31:09.199Z</time></trkpt><trkpt lat="45.4012383" lon="10.6817883"><ele>102.0</ele><time>2026-04-02T08:31:10.199Z</time></trkpt><trkpt lat="45.4012683" lon="10.6819083"><ele>102.0</ele><time>2026-04-02T08:31:11.198Z</time></trkpt><trkpt lat="45.4013067" lon="10.6820183"><ele>102.0</ele><time>2026-04-02T08:31:12.199Z</time></trkpt><trkpt lat="45.40136" lon="10.6821033"><ele>101.0</ele><time>2026-04-02T08:31:13.201Z</time></trkpt><trkpt lat="45.4014183" lon="10.682165"><ele>100.0</ele><time>2026-04-02T08:31:14.197Z</time></trkpt><trkpt lat="45.4015017" lon="10.6821833"><ele>99.0</ele><time>2026-04-02T08:31:15.205Z</time></trkpt><trkpt lat="45.4015983" lon="10.68217"><ele>98.0</ele><time>2026-04-02T08:31:16.201Z</time></trkpt><trkpt lat="45.401695" lon="10.6821283"><ele>97.0</ele><time>2026-04-02T08:31:17.209Z</time></trkpt><trkpt lat="45.4018133" lon="10.682075"><ele>97.0</ele><time>2026-04-02T08:31:18.204Z</time></trkpt><trkpt lat="45.4019267" lon="10.682035"><ele>97.0</ele><time>2026-04-02T08:31:19.199Z</time></trkpt><trkpt lat="45.4020467" lon="10.68198"><ele>97.0</ele><time>2026-04-02T08:31:20.207Z</time></trkpt><trkpt lat="45.4021683" lon="10.6819167"><ele>97.0</ele><time>2026-04-02T08:31:21.198Z</time></trkpt><trkpt lat="45.40229" lon="10.681825"><ele>97.0</ele><time>2026-04-02T08:31:22.198Z</time></trkpt><trkpt lat="45.4024067" lon="10.68176"><ele>97.0</ele><time>2026-04-02T08:31:23.206Z</time></trkpt><trkpt lat="45.4025183" lon="10.6816683"><ele>97.0</ele><time>2026-04-02T08:31:24.203Z</time></trkpt><trkpt lat="45.4026217" lon="10.6816217"><ele>97.0</ele><time>2026-04-02T08:31:25.2Z</time></trkpt><trkpt lat="45.402715" lon="10.68156"><ele>97.0</ele><time>2026-04-02T08:31:26.205Z</time></trkpt><trkpt lat="45.402815" lon="10.6814883"><ele>97.0</ele><time>2026-04-02T08:31:27.206Z</time></trkpt><trkpt lat="45.4029233" lon="10.68143"><ele>97.0</ele><time>2026-04-02T08:31:28.197Z</time></trkpt><trkpt lat="45.4030183" lon="10.6813933"><ele>97.0</ele><time>2026-04-02T08:31:29.207Z</time></trkpt><trkpt lat="45.4031183" lon="10.6813267"><ele>97.0</ele><time>2026-04-02T08:31:30.209Z</time></trkpt><trkpt lat="45.4031867" lon="10.6812583"><ele>97.00000000000001</ele><time>2026-04-02T08:31:31.204Z</time></trkpt><trkpt lat="45.4032533" lon="10.6812167"><ele>97.0</ele><time>2026-04-02T08:31:32.197Z</time></trkpt><trkpt lat="45.4033167" lon="10.6811983"><ele>97.0</ele><time>2026-04-02T08:31:33.213Z</time></trkpt><trkpt lat="45.4033983" lon="10.6812233"><ele>97.0</ele><time>2026-04-02T08:31:35.203Z</time></trkpt><trkpt lat="45.4034533" lon="10.6813833"><ele>97.00000000000001</ele><time>2026-04-02T08:31:37.205Z</time></trkpt><trkpt lat="45.4034783" lon="10.681485"><ele>97.0</ele><time>2026-04-02T08:31:38.229Z</time></trkpt><trkpt lat="45.4035083" lon="10.6815867"><ele>97.0</ele><time>2026-04-02T08:31:39.215Z</time></trkpt><trkpt lat="45.4035317" lon="10.6816867"><ele>97.0</ele><time>2026-04-02T08:31:40.199Z</time></trkpt><trkpt lat="45.4035617" lon="10.68178"><ele>97.0</ele><time>2026-04-02T08:31:41.199Z</time></trkpt><trkpt lat="45.40359" lon="10.6818733"><ele>97.0</ele><time>2026-04-02T08:31:42.204Z</time></trkpt><trkpt lat="45.4036167" lon="10.6819617"><ele>97.0</ele><time>2026-04-02T08:31:43.207Z</time></trkpt><trkpt lat="45.40365" lon="10.6820533"><ele>97.0</ele><time>2026-04-02T08:31:44.2Z</time></trkpt><trkpt lat="45.40368" lon="10.6821633"><ele>97.0</ele><time>2026-04-02T08:31:45.197Z</time></trkpt><trkpt lat="45.4037133" lon="10.682255"><ele>97.16666666666667</ele><time>2026-04-02T08:31:46.202Z</time></trkpt><trkpt lat="45.4037417" lon="10.68235"><ele>97.33333333333334</ele><time>2026-04-02T08:31:47.21Z</time></trkpt><trkpt lat="45.40376" lon="10.682455"><ele>97.5</ele><time>2026-04-02T08:31:48.204Z</time></trkpt><trkpt lat="45.40377" lon="10.6825583"><ele>97.66666666666666</ele><time>2026-04-02T08:31:49.208Z</time></trkpt><trkpt lat="45.403785" lon="10.6826683"><ele>97.83333333333333</ele><time>2026-04-02T08:31:50.207Z</time></trkpt><trkpt lat="45.403805" lon="10.68278"><ele>98.0</ele><time>2026-04-02T08:31:51.201Z</time></trkpt><trkpt lat="45.40383" lon="10.6828967"><ele>95.75</ele><time>2026-04-02T08:31:52.203Z</time></trkpt><trkpt lat="45.40386" lon="10.68303"><ele>93.5</ele><time>2026-04-02T08:31:53.201Z</time></trkpt><trkpt lat="45.4039067" lon="10.68318"><ele>91.25</ele><time>2026-04-02T08:31:54.203Z</time></trkpt><trkpt lat="45.4039783" lon="10.6833383"><ele>89.0</ele><time>2026-04-02T08:31:55.204Z</time></trkpt><trkpt lat="45.404045" lon="10.6834967"><ele>89.25</ele><time>2026-04-02T08:31:56.204Z</time></trkpt><trkpt lat="45.4041117" lon="10.6836767"><ele>89.5</ele><time>2026-04-02T08:31:57.199Z</time></trkpt><trkpt lat="45.4041767" lon="10.68387"><ele>89.75</ele><time>2026-04-02T08:31:58.203Z</time></trkpt><trkpt lat="45.4042267" lon="10.6840583"><ele>90.0</ele><time>2026-04-02T08:31:59.205Z</time></trkpt><trkpt lat="45.4042883" lon="10.6842617"><ele>90.5</ele><time>2026-04-02T08:32:00.199Z</time></trkpt><trkpt lat="45.40436" lon="10.6844567"><ele>91.0</ele><time>2026-04-02T08:32:01.205Z</time></trkpt><trkpt lat="45.4044217" lon="10.68464"><ele>91.5</ele><time>2026-04-02T08:32:02.203Z</time></trkpt><trkpt lat="45.4044817" lon="10.6848283"><ele>92.0</ele><time>2026-04-02T08:32:03.2Z</time></trkpt><trkpt lat="45.4045467" lon="10.6849883"><ele>92.0</ele><time>2026-04-02T08:32:04.202Z</time></trkpt><trkpt lat="45.4045933" lon="10.6851367"><ele>92.0</ele><time>2026-04-02T08:32:05.204Z</time></trkpt><trkpt lat="45.4046417" lon="10.6852767"><ele>92.0</ele><time>2026-04-02T08:32:06.204Z</time></trkpt><trkpt lat="45.4047" lon="10.6853933"><ele>92.0</ele><time>2026-04-02T08:32:07.202Z</time></trkpt><trkpt lat="45.4047583" lon="10.6854917"><ele>92.0</ele><time>2026-04-02T08:32:08.202Z</time></trkpt><trkpt lat="45.404805" lon="10.685575"><ele>92.6</ele><time>2026-04-02T08:32:09.215Z</time></trkpt><trkpt lat="45.40489" lon="10.6856783"><ele>93.19999999999999</ele><time>2026-04-02T08:32:11.203Z</time></trkpt><trkpt lat="45.4049933" lon="10.685755"><ele>93.8</ele><time>2026-04-02T08:32:13.201Z</time></trkpt><trkpt lat="45.4050533" lon="10.6857833"><ele>94.4</ele><time>2026-04-02T08:32:14.204Z</time></trkpt><trkpt lat="45.4051267" lon="10.6858333"><ele>95.0</ele><time>2026-04-02T08:32:15.208Z</time></trkpt><trkpt lat="45.4052" lon="10.6858983"><ele>95.0</ele><time>2026-04-02T08:32:16.203Z</time></trkpt><trkpt lat="45.405285" lon="10.6859983"><ele>95.0</ele><time>2026-04-02T08:32:17.199Z</time></trkpt><trkpt lat="45.4053567" lon="10.686115"><ele>95.0</ele><time>2026-04-02T08:32:18.202Z</time></trkpt><trkpt lat="45.4054483" lon="10.6862233"><ele>95.0</ele><time>2026-04-02T08:32:19.201Z</time></trkpt><trkpt lat="45.405545" lon="10.686345"><ele>94.8</ele><time>2026-04-02T08:32:20.207Z</time></trkpt><trkpt lat="45.40563" lon="10.6864633"><ele>94.6</ele><time>2026-04-02T08:32:21.206Z</time></trkpt><trkpt lat="45.4057017" lon="10.68657"><ele>94.4</ele><time>2026-04-02T08:32:22.206Z</time></trkpt><trkpt lat="45.405765" lon="10.68666"><ele>94.2</ele><time>2026-04-02T08:32:23.203Z</time></trkpt><trkpt lat="45.4058283" lon="10.686735"><ele>94.0</ele><time>2026-04-02T08:32:24.205Z</time></trkpt><trkpt lat="45.405865" lon="10.6868267"><ele>95.0</ele><time>2026-04-02T08:32:25.206Z</time></trkpt><trkpt lat="45.4059133" lon="10.6869483"><ele>96.0</ele><time>2026-04-02T08:32:26.202Z</time></trkpt><trkpt lat="45.405955" lon="10.6870667"><ele>97.0</ele><time>2026-04-02T08:32:27.202Z</time></trkpt><trkpt lat="45.405975" lon="10.6872067"><ele>98.0</ele><time>2026-04-02T08:32:28.204Z</time></trkpt><trkpt lat="45.4059867" lon="10.6873467"><ele>99.0</ele><time>2026-04-02T08:32:29.204Z</time></trkpt><trkpt lat="45.4059917" lon="10.6875183"><ele>99.0</ele><time>2026-04-02T08:32:30.21Z</time></trkpt><trkpt lat="45.4059833" lon="10.6876667"><ele>99.0</ele><time>2026-04-02T08:32:31.213Z</time></trkpt><trkpt lat="45.4059583" lon="10.6878083"><ele>99.0</ele><time>2026-04-02T08:32:32.206Z</time></trkpt><trkpt lat="45.4059283" lon="10.68795"><ele>99.0</ele><time>2026-04-02T08:32:33.21Z</time></trkpt><trkpt lat="45.4058933" lon="10.68809"><ele>99.0</ele><time>2026-04-02T08:32:34.203Z</time></trkpt><trkpt lat="45.405845" lon="10.6882267"><ele>97.80000000000001</ele><time>2026-04-02T08:32:35.201Z</time></trkpt><trkpt lat="45.4057883" lon="10.68835"><ele>96.60000000000001</ele><time>2026-04-02T08:32:36.217Z</time></trkpt><trkpt lat="45.40574" lon="10.6884733"><ele>95.4</ele><time>2026-04-02T08:32:37.213Z</time></trkpt><trkpt lat="45.405695" lon="10.688605"><ele>94.2</ele><time>2026-04-02T08:32:38.203Z</time></trkpt><trkpt lat="45.405655" lon="10.6887483"><ele>93.0</ele><time>2026-04-02T08:32:39.208Z</time></trkpt><trkpt lat="45.4056133" lon="10.6889133"><ele>91.25</ele><time>2026-04-02T08:32:40.202Z</time></trkpt><trkpt lat="45.4056017" lon="10.68909"><ele>89.5</ele><time>2026-04-02T08:32:41.216Z</time></trkpt><trkpt lat="45.4055817" lon="10.6892517"><ele>87.75</ele><time>2026-04-02T08:32:42.206Z</time></trkpt><trkpt lat="45.4055517" lon="10.6894317"><ele>86.0</ele><time>2026-04-02T08:32:43.206Z</time></trkpt><trkpt lat="45.4055183" lon="10.6896"><ele>87.25</ele><time>2026-04-02T08:32:44.205Z</time></trkpt><trkpt lat="45.4054867" lon="10.6897733"><ele>88.5</ele><time>2026-04-02T08:32:45.2Z</time></trkpt><trkpt lat="45.4054133" lon="10.6899333"><ele>89.75</ele><time>2026-04-02T08:32:46.201Z</time></trkpt><trkpt lat="45.405405" lon="10.6900933"><ele>91.0</ele><time>2026-04-02T08:32:47.212Z</time></trkpt><trkpt lat="45.405385" lon="10.6902467"><ele>90.66666666666666</ele><time>2026-04-02T08:32:48.199Z</time></trkpt><trkpt lat="45.4053767" lon="10.69039"><ele>90.33333333333333</ele><time>2026-04-02T08:32:49.209Z</time></trkpt><trkpt lat="45.4053583" lon="10.6905183"><ele>90.0</ele><time>2026-04-02T08:32:50.21Z</time></trkpt><trkpt lat="45.405365" lon="10.69063"><ele>89.66666666666667</ele><time>2026-04-02T08:32:51.2Z</time></trkpt><trkpt lat="45.4053983" lon="10.6907283"><ele>89.33333333333334</ele><time>2026-04-02T08:32:52.206Z</time></trkpt><trkpt lat="45.4054567" lon="10.6908133"><ele>89.0</ele><time>2026-04-02T08:32:53.205Z</time></trkpt><trkpt lat="45.405515" lon="10.6908867"><ele>88.42857142857142</ele><time>2026-04-02T08:32:54.201Z</time></trkpt><trkpt lat="45.405565" lon="10.6909683"><ele>87.85714285714286</ele><time>2026-04-02T08:32:55.206Z</time></trkpt><trkpt lat="45.4055967" lon="10.6910617"><ele>87.28571428571428</ele><time>2026-04-02T08:32:56.217Z</time></trkpt><trkpt lat="45.4056033" lon="10.691165"><ele>86.71428571428571</ele><time>2026-04-02T08:32:57.198Z</time></trkpt><trkpt lat="45.4056167" lon="10.69127"><ele>86.14285714285714</ele><time>2026-04-02T08:32:58.208Z</time></trkpt><trkpt lat="45.405635" lon="10.6913667"><ele>85.57142857142857</ele><time>2026-04-02T08:32:59.202Z</time></trkpt><trkpt lat="45.4056767" lon="10.691435"><ele>85.0</ele><time>2026-04-02T08:33:00.217Z</time></trkpt><trkpt lat="45.4057317" lon="10.691495"><ele>84.66666666666666</ele><time>2026-04-02T08:33:01.2Z</time></trkpt><trkpt lat="45.4058033" lon="10.69155"><ele>84.33333333333333</ele><time>2026-04-02T08:33:02.21Z</time></trkpt><trkpt lat="45.4058733" lon="10.6916083"><ele>84.0</ele><time>2026-04-02T08:33:03.215Z</time></trkpt><trkpt lat="45.40594" lon="10.6916717"><ele>83.66666666666667</ele><time>2026-04-02T08:33:04.199Z</time></trkpt><trkpt lat="45.405995" lon="10.691745"><ele>83.33333333333334</ele><time>2026-04-02T08:33:05.204Z</time></trkpt><trkpt lat="45.4060333" lon="10.6918333"><ele>83.0</ele><time>2026-04-02T08:33:06.218Z</time></trkpt><trkpt lat="45.4060667" lon="10.69192"><ele>82.83333333333334</ele><time>2026-04-02T08:33:07.204Z</time></trkpt><trkpt lat="45.406105" lon="10.6920033"><ele>82.66666666666667</ele><time>2026-04-02T08:33:08.207Z</time></trkpt><trkpt lat="45.4061817" lon="10.69212"><ele>82.5</ele><time>2026-04-02T08:33:10.198Z</time></trkpt><trkpt lat="45.4062567" lon="10.6921483"><ele>82.33333333333333</ele><time>2026-04-02T08:33:12.206Z</time></trkpt><trkpt lat="45.4063333" lon="10.6921133"><ele>82.16666666666666</ele><time>2026-04-02T08:33:15.218Z</time></trkpt><trkpt lat="45.4064167" lon="10.6920333"><ele>82.0</ele><time>2026-04-02T08:33:24.211Z</time></trkpt><trkpt lat="45.4064517" lon="10.6919217"><ele>81.66666666666666</ele><time>2026-04-02T08:33:25.206Z</time></trkpt><trkpt lat="45.4064833" lon="10.6918017"><ele>81.33333333333333</ele><time>2026-04-02T08:33:26.218Z</time></trkpt><trkpt lat="45.406515" lon="10.69167"><ele>81.0</ele><time>2026-04-02T08:33:27.2Z</time></trkpt><trkpt lat="45.4065483" lon="10.69156"><ele>80.66666666666667</ele><time>2026-04-02T08:33:28.2Z</time></trkpt><trkpt lat="45.4065917" lon="10.6914833"><ele>80.33333333333334</ele><time>2026-04-02T08:33:29.198Z</time></trkpt><trkpt lat="45.4066567" lon="10.6914467"><ele>80.0</ele><time>2026-04-02T08:33:30.205Z</time></trkpt><trkpt lat="45.4067383" lon="10.6914383"><ele>80.0</ele><time>2026-04-02T08:33:31.204Z</time></trkpt><trkpt lat="45.40683" lon="10.69145"><ele>80.0</ele><time>2026-04-02T08:33:32.199Z</time></trkpt><trkpt lat="45.4069333" lon="10.691495"><ele>80.0</ele><time>2026-04-02T08:33:33.198Z</time></trkpt><trkpt lat="45.407055" lon="10.6915533"><ele>80.0</ele><time>2026-04-02T08:33:34.198Z</time></trkpt><trkpt lat="45.4071783" lon="10.6916467"><ele>79.33333333333334</ele><time>2026-04-02T08:33:35.198Z</time></trkpt><trkpt lat="45.4073133" lon="10.6917283"><ele>78.66666666666667</ele><time>2026-04-02T08:33:36.199Z</time></trkpt><trkpt lat="45.4074717" lon="10.691785"><ele>78.0</ele><time>2026-04-02T08:33:37.205Z</time></trkpt><trkpt lat="45.4076167" lon="10.69186"><ele>78.25</ele><time>2026-04-02T08:33:38.196Z</time></trkpt><trkpt lat="45.40774" lon="10.6919483"><ele>78.5</ele><time>2026-04-02T08:33:39.198Z</time></trkpt><trkpt lat="45.4078667" lon="10.6920567"><ele>78.75</ele><time>2026-04-02T08:33:40.197Z</time></trkpt><trkpt lat="45.4080133" lon="10.69213"><ele>79.0</ele><time>2026-04-02T08:33:41.198Z</time></trkpt><trkpt lat="45.4081317" lon="10.6922167"><ele>79.75</ele><time>2026-04-02T08:33:42.2Z</time></trkpt><trkpt lat="45.408275" lon="10.69226"><ele>80.5</ele><time>2026-04-02T08:33:43.201Z</time></trkpt><trkpt lat="45.408395" lon="10.6923567"><ele>81.25</ele><time>2026-04-02T08:33:44.201Z</time></trkpt><trkpt lat="45.4085267" lon="10.6924033"><ele>82.0</ele><time>2026-04-02T08:33:45.205Z</time></trkpt><trkpt lat="45.4086467" lon="10.6924717"><ele>82.0</ele><time>2026-04-02T08:33:46.202Z</time></trkpt><trkpt lat="45.4087683" lon="10.6925183"><ele>82.0</ele><time>2026-04-02T08:33:47.203Z</time></trkpt><trkpt lat="45.4088883" lon="10.692585"><ele>82.0</ele><time>2026-04-02T08:33:48.198Z</time></trkpt><trkpt lat="45.409" lon="10.69265"><ele>82.0</ele><time>2026-04-02T08:33:49.197Z</time></trkpt><trkpt lat="45.4090717" lon="10.6927333"><ele>82.6</ele><time>2026-04-02T08:33:50.201Z</time></trkpt><trkpt lat="45.4091417" lon="10.692845"><ele>83.19999999999999</ele><time>2026-04-02T08:33:51.206Z</time></trkpt><trkpt lat="45.4092067" lon="10.6929517"><ele>83.8</ele><time>2026-04-02T08:33:52.197Z</time></trkpt><trkpt lat="45.4092467" lon="10.6930717"><ele>84.4</ele><time>2026-04-02T08:33:53.198Z</time></trkpt><trkpt lat="45.4092667" lon="10.6932267"><ele>85.0</ele><time>2026-04-02T08:33:54.206Z</time></trkpt><trkpt lat="45.4092567" lon="10.69337"><ele>85.0</ele><time>2026-04-02T08:33:55.196Z</time></trkpt><trkpt lat="45.40925" lon="10.6935433"><ele>85.0</ele><time>2026-04-02T08:33:56.197Z</time></trkpt><trkpt lat="45.40922" lon="10.6937233"><ele>85.0</ele><time>2026-04-02T08:33:57.203Z</time></trkpt><trkpt lat="45.409195" lon="10.6939"><ele>85.0</ele><time>2026-04-02T08:33:58.198Z</time></trkpt><trkpt lat="45.4091783" lon="10.6941067"><ele>85.0</ele><time>2026-04-02T08:33:59.195Z</time></trkpt><trkpt lat="45.4091567" lon="10.69431"><ele>85.0</ele><time>2026-04-02T08:34:00.197Z</time></trkpt><trkpt lat="45.4091317" lon="10.6945017"><ele>85.0</ele><time>2026-04-02T08:34:01.199Z</time></trkpt><trkpt lat="45.4090983" lon="10.694705"><ele>85.0</ele><time>2026-04-02T08:34:02.198Z</time></trkpt><trkpt lat="45.40907" lon="10.6948783"><ele>85.0</ele><time>2026-04-02T08:34:03.204Z</time></trkpt><trkpt lat="45.4090467" lon="10.6950933"><ele>85.0</ele><time>2026-04-02T08:34:04.207Z</time></trkpt><trkpt lat="45.4090017" lon="10.6953167"><ele>85.0</ele><time>2026-04-02T08:34:05.197Z</time></trkpt><trkpt lat="45.4089683" lon="10.695525"><ele>84.75</ele><time>2026-04-02T08:34:06.203Z</time></trkpt><trkpt lat="45.4089383" lon="10.6957217"><ele>84.5</ele><time>2026-04-02T08:34:07.202Z</time></trkpt><trkpt lat="45.4089183" lon="10.69592"><ele>84.25</ele><time>2026-04-02T08:34:08.209Z</time></trkpt><trkpt lat="45.4088867" lon="10.69613"><ele>84.0</ele><time>2026-04-02T08:34:09.206Z</time></trkpt><trkpt lat="45.408865" lon="10.696325"><ele>83.66666666666667</ele><time>2026-04-02T08:34:10.202Z</time></trkpt><trkpt lat="45.4087883" lon="10.69653"><ele>83.33333333333334</ele><time>2026-04-02T08:34:11.2Z</time></trkpt><trkpt lat="45.408705" lon="10.6967383"><ele>83.0</ele><time>2026-04-02T08:34:12.198Z</time></trkpt><trkpt lat="45.4086217" lon="10.696935"><ele>83.0</ele><time>2026-04-02T08:34:13.205Z</time></trkpt><trkpt lat="45.408545" lon="10.6971317"><ele>83.0</ele><time>2026-04-02T08:34:14.201Z</time></trkpt><trkpt lat="45.4084633" lon="10.6973283"><ele>83.0</ele><time>2026-04-02T08:34:15.209Z</time></trkpt><trkpt lat="45.408385" lon="10.69752"><ele>83.0</ele><time>2026-04-02T08:34:16.194Z</time></trkpt><trkpt lat="45.4082883" lon="10.69772"><ele>83.0</ele><time>2026-04-02T08:34:17.196Z</time></trkpt><trkpt lat="45.4081917" lon="10.6979083"><ele>83.0</ele><time>2026-04-02T08:34:18.202Z</time></trkpt><trkpt lat="45.408105" lon="10.6980733"><ele>83.0</ele><time>2026-04-02T08:34:19.198Z</time></trkpt><trkpt lat="45.4080117" lon="10.69824"><ele>83.0</ele><time>2026-04-02T08:34:20.196Z</time></trkpt><trkpt lat="45.407905" lon="10.6984333"><ele>83.0</ele><time>2026-04-02T08:34:21.2Z</time></trkpt><trkpt lat="45.4078067" lon="10.6985983"><ele>83.0</ele><time>2026-04-02T08:34:22.195Z</time></trkpt><trkpt lat="45.40771" lon="10.6987833"><ele>83.0</ele><time>2026-04-02T08:34:23.202Z</time></trkpt><trkpt lat="45.407615" lon="10.698955"><ele>83.0</ele><time>2026-04-02T08:34:24.206Z</time></trkpt><trkpt lat="45.4075333" lon="10.69915"><ele>83.0</ele><time>2026-04-02T08:34:25.196Z</time></trkpt><trkpt lat="45.4074217" lon="10.6993183"><ele>83.0</ele><time>2026-04-02T08:34:26.2Z</time></trkpt><trkpt lat="45.4073317" lon="10.69948"><ele>83.0</ele><time>2026-04-02T08:34:27.198Z</time></trkpt><trkpt lat="45.40725" lon="10.699665"><ele>83.0</ele><time>2026-04-02T08:34:28.201Z</time></trkpt><trkpt lat="45.4071817" lon="10.6998717"><ele>83.0</ele><time>2026-04-02T08:34:29.202Z</time></trkpt><trkpt lat="45.4071117" lon="10.7000833"><ele>83.0</ele><time>2026-04-02T08:34:30.206Z</time></trkpt><trkpt lat="45.4070683" lon="10.7002633"><ele>83.0</ele><time>2026-04-02T08:34:31.199Z</time></trkpt><trkpt lat="45.407025" lon="10.700485"><ele>83.0</ele><time>2026-04-02T08:34:32.203Z</time></trkpt><trkpt lat="45.4069883" lon="10.70072"><ele>83.0</ele><time>2026-04-02T08:34:33.196Z</time></trkpt><trkpt lat="45.4069683" lon="10.700955"><ele>82.66666666666667</ele><time>2026-04-02T08:34:34.196Z</time></trkpt><trkpt lat="45.4069617" lon="10.7011983"><ele>82.33333333333333</ele><time>2026-04-02T08:34:35.201Z</time></trkpt><trkpt lat="45.4069567" lon="10.70149"><ele>82.0</ele><time>2026-04-02T08:34:36.204Z</time></trkpt><trkpt lat="45.40693" lon="10.7018017"><ele>82.0</ele><time>2026-04-02T08:34:37.198Z</time></trkpt><trkpt lat="45.406865" lon="10.7020833"><ele>82.0</ele><time>2026-04-02T08:34:38.201Z</time></trkpt><trkpt lat="45.4068183" lon="10.702405"><ele>82.0</ele><time>2026-04-02T08:34:39.201Z</time></trkpt><trkpt lat="45.406775" lon="10.7026517"><ele>83.33333333333333</ele><time>2026-04-02T08:34:40.197Z</time></trkpt><trkpt lat="45.4067633" lon="10.7028983"><ele>84.66666666666667</ele><time>2026-04-02T08:34:41.202Z</time></trkpt><trkpt lat="45.4067233" lon="10.7031483"><ele>86.0</ele><time>2026-04-02T08:34:42.205Z</time></trkpt><trkpt lat="45.4066767" lon="10.7034"><ele>86.0</ele><time>2026-04-02T08:34:43.194Z</time></trkpt><trkpt lat="45.40662" lon="10.70366"><ele>86.0</ele><time>2026-04-02T08:34:44.196Z</time></trkpt><trkpt lat="45.4065683" lon="10.7039033"><ele>86.0</ele><time>2026-04-02T08:34:45.204Z</time></trkpt><trkpt lat="45.4064983" lon="10.7041633"><ele>86.0</ele><time>2026-04-02T08:34:46.196Z</time></trkpt><trkpt lat="45.4064317" lon="10.7044333"><ele>86.0</ele><time>2026-04-02T08:34:47.205Z</time></trkpt><trkpt lat="45.4063667" lon="10.7047017"><ele>86.0</ele><time>2026-04-02T08:34:48.207Z</time></trkpt><trkpt lat="45.406265" lon="10.7049817"><ele>80.0</ele><time>2026-04-02T08:34:49.203Z</time></trkpt><trkpt lat="45.40615" lon="10.70525"><ele>74.0</ele><time>2026-04-02T08:34:50.202Z</time></trkpt><trkpt lat="45.4060133" lon="10.7055367"><ele>74.0</ele><time>2026-04-02T08:34:51.202Z</time></trkpt><trkpt lat="45.4058883" lon="10.7057983"><ele>74.0</ele><time>2026-04-02T08:34:52.199Z</time></trkpt><trkpt lat="45.405745" lon="10.7060933"><ele>75.0</ele><time>2026-04-02T08:34:53.203Z</time></trkpt><trkpt lat="45.40561" lon="10.7063783"><ele>76.0</ele><time>2026-04-02T08:34:54.215Z</time></trkpt><trkpt lat="45.4054717" lon="10.706655"><ele>74.33333333333333</ele><time>2026-04-02T08:34:55.209Z</time></trkpt><trkpt lat="45.40533" lon="10.7069033"><ele>72.66666666666667</ele><time>2026-04-02T08:34:56.202Z</time></trkpt><trkpt lat="45.4052083" lon="10.7071483"><ele>71.0</ele><time>2026-04-02T08:34:57.206Z</time></trkpt><trkpt lat="45.4051317" lon="10.7074133"><ele>70.66666666666667</ele><time>2026-04-02T08:34:58.207Z</time></trkpt><trkpt lat="45.405035" lon="10.7076633"><ele>70.33333333333333</ele><time>2026-04-02T08:34:59.208Z</time></trkpt><trkpt lat="45.4049317" lon="10.7078"><ele>70.0</ele><time>2026-04-02T08:35:00.217Z</time></trkpt><trkpt lat="45.40483" lon="10.7079683"><ele>69.5</ele><time>2026-04-02T08:35:01.205Z</time></trkpt><trkpt lat="45.404735" lon="10.7081433"><ele>69.0</ele><time>2026-04-02T08:35:02.202Z</time></trkpt><trkpt lat="45.4046633" lon="10.708295"><ele>68.5</ele><time>2026-04-02T08:35:03.209Z</time></trkpt><trkpt lat="45.4045883" lon="10.7084317"><ele>68.0</ele><time>2026-04-02T08:35:04.207Z</time></trkpt><trkpt lat="45.4045017" lon="10.7085817"><ele>68.0</ele><time>2026-04-02T08:35:05.199Z</time></trkpt><trkpt lat="45.4044233" lon="10.7087567"><ele>68.0</ele><time>2026-04-02T08:35:06.202Z</time></trkpt><trkpt lat="45.404345" lon="10.7089267"><ele>68.0</ele><time>2026-04-02T08:35:07.209Z</time></trkpt><trkpt lat="45.4042667" lon="10.709085"><ele>68.0</ele><time>2026-04-02T08:35:08.206Z</time></trkpt><trkpt lat="45.4041917" lon="10.7092333"><ele>68.0</ele><time>2026-04-02T08:35:09.2Z</time></trkpt><trkpt lat="45.4041367" lon="10.7093933"><ele>68.0</ele><time>2026-04-02T08:35:10.205Z</time></trkpt><trkpt lat="45.4040867" lon="10.7095583"><ele>68.0</ele><time>2026-04-02T08:35:11.218Z</time></trkpt><trkpt lat="45.4040583" lon="10.7097183"><ele>68.0</ele><time>2026-04-02T08:35:12.202Z</time></trkpt><trkpt lat="45.4039983" lon="10.709875"><ele>68.75</ele><time>2026-04-02T08:35:13.2Z</time></trkpt><trkpt lat="45.4039967" lon="10.7100283"><ele>69.5</ele><time>2026-04-02T08:35:14.2Z</time></trkpt><trkpt lat="45.4040217" lon="10.7102117"><ele>70.25</ele><time>2026-04-02T08:35:15.209Z</time></trkpt><trkpt lat="45.4040367" lon="10.710405"><ele>71.0</ele><time>2026-04-02T08:35:16.197Z</time></trkpt><trkpt lat="45.4040617" lon="10.7106567"><ele>71.25</ele><time>2026-04-02T08:35:17.207Z</time></trkpt><trkpt lat="45.40407" lon="10.7108783"><ele>71.5</ele><time>2026-04-02T08:35:18.221Z</time></trkpt><trkpt lat="45.4040817" lon="10.7110567"><ele>71.75</ele><time>2026-04-02T08:35:19.224Z</time></trkpt><trkpt lat="45.4040717" lon="10.7112133"><ele>72.0</ele><time>2026-04-02T08:35:20.203Z</time></trkpt><trkpt lat="45.40408" lon="10.711375"><ele>72.0</ele><time>2026-04-02T08:35:21.207Z</time></trkpt><trkpt lat="45.4040433" lon="10.7115083"><ele>72.0</ele><time>2026-04-02T08:35:22.196Z</time></trkpt><trkpt lat="45.4039783" lon="10.7116633"><ele>72.0</ele><time>2026-04-02T08:35:23.223Z</time></trkpt><trkpt lat="45.4038833" lon="10.7118183"><ele>72.0</ele><time>2026-04-02T08:35:24.206Z</time></trkpt><trkpt lat="45.403745" lon="10.7119617"><ele>71.66666666666667</ele><time>2026-04-02T08:35:25.201Z</time></trkpt><trkpt lat="45.4036117" lon="10.7120983"><ele>71.33333333333334</ele><time>2026-04-02T08:35:26.216Z</time></trkpt><trkpt lat="45.4034783" lon="10.7122417"><ele>71.0</ele><time>2026-04-02T08:35:27.203Z</time></trkpt><trkpt lat="45.4033733" lon="10.71238"><ele>71.0</ele><time>2026-04-02T08:35:28.2Z</time></trkpt><trkpt lat="45.4032767" lon="10.7124817"><ele>71.0</ele><time>2026-04-02T08:35:29.207Z</time></trkpt><trkpt lat="45.403195" lon="10.71258"><ele>71.0</ele><time>2026-04-02T08:35:30.209Z</time></trkpt><trkpt lat="45.4031183" lon="10.712665"><ele>71.0</ele><time>2026-04-02T08:35:31.203Z</time></trkpt><trkpt lat="45.4030467" lon="10.7127583"><ele>71.0</ele><time>2026-04-02T08:35:32.204Z</time></trkpt><trkpt lat="45.4029767" lon="10.712845"><ele>70.83333333333334</ele><time>2026-04-02T08:35:33.2Z</time></trkpt><trkpt lat="45.402925" lon="10.7129283"><ele>70.66666666666667</ele><time>2026-04-02T08:35:34.201Z</time></trkpt><trkpt lat="45.4028533" lon="10.7130033"><ele>70.5</ele><time>2026-04-02T08:35:35.199Z</time></trkpt><trkpt lat="45.4027817" lon="10.7130683"><ele>70.33333333333333</ele><time>2026-04-02T08:35:36.204Z</time></trkpt><trkpt lat="45.40269" lon="10.71312"><ele>70.16666666666666</ele><time>2026-04-02T08:35:37.196Z</time></trkpt><trkpt lat="45.4026" lon="10.713175"><ele>70.0</ele><time>2026-04-02T08:35:38.197Z</time></trkpt><trkpt lat="45.4025133" lon="10.71324"><ele>70.0</ele><time>2026-04-02T08:35:39.205Z</time></trkpt><trkpt lat="45.402415" lon="10.7133017"><ele>70.0</ele><time>2026-04-02T08:35:40.2Z</time></trkpt><trkpt lat="45.4023133" lon="10.7133567"><ele>70.0</ele><time>2026-04-02T08:35:41.205Z</time></trkpt><trkpt lat="45.4022217" lon="10.7134067"><ele>70.0</ele><time>2026-04-02T08:35:42.207Z</time></trkpt><trkpt lat="45.40214" lon="10.7134683"><ele>70.0</ele><time>2026-04-02T08:35:43.22Z</time></trkpt><trkpt lat="45.4020717" lon="10.7135467"><ele>70.4</ele><time>2026-04-02T08:35:44.2Z</time></trkpt><trkpt lat="45.4020033" lon="10.7136517"><ele>70.8</ele><time>2026-04-02T08:35:45.2Z</time></trkpt><trkpt lat="45.4019067" lon="10.7137"><ele>71.2</ele><time>2026-04-02T08:35:46.202Z</time></trkpt><trkpt lat="45.4018333" lon="10.7137967"><ele>71.6</ele><time>2026-04-02T08:35:47.203Z</time></trkpt><trkpt lat="45.4017617" lon="10.713915"><ele>72.0</ele><time>2026-04-02T08:35:48.198Z</time></trkpt><trkpt lat="45.4017283" lon="10.71405"><ele>72.0</ele><time>2026-04-02T08:35:49.195Z</time></trkpt><trkpt lat="45.4016683" lon="10.714175"><ele>72.0</ele><time>2026-04-02T08:35:50.198Z</time></trkpt><trkpt lat="45.4016033" lon="10.7143067"><ele>72.0</ele><time>2026-04-02T08:35:51.198Z</time></trkpt><trkpt lat="45.4015583" lon="10.714435"><ele>72.0</ele><time>2026-04-02T08:35:52.199Z</time></trkpt><trkpt lat="45.4014917" lon="10.71459"><ele>72.0</ele><time>2026-04-02T08:35:53.2Z</time></trkpt><trkpt lat="45.4014133" lon="10.7147267"><ele>71.5</ele><time>2026-04-02T08:35:54.204Z</time></trkpt><trkpt lat="45.4013733" lon="10.7148817"><ele>71.0</ele><time>2026-04-02T08:35:55.205Z</time></trkpt><trkpt lat="45.4013183" lon="10.7150233"><ele>70.5</ele><time>2026-04-02T08:35:56.198Z</time></trkpt><trkpt lat="45.4012617" lon="10.715195"><ele>70.0</ele><time>2026-04-02T08:35:57.199Z</time></trkpt><trkpt lat="45.4012067" lon="10.71538"><ele>69.25</ele><time>2026-04-02T08:35:58.201Z</time></trkpt><trkpt lat="45.4011517" lon="10.7155833"><ele>68.5</ele><time>2026-04-02T08:35:59.202Z</time></trkpt><trkpt lat="45.4010883" lon="10.7157783"><ele>67.75</ele><time>2026-04-02T08:36:00.198Z</time></trkpt><trkpt lat="45.4010183" lon="10.715945"><ele>67.0</ele><time>2026-04-02T08:36:01.197Z</time></trkpt><trkpt lat="45.4009833" lon="10.7161183"><ele>66.4</ele><time>2026-04-02T08:36:02.201Z</time></trkpt><trkpt lat="45.4009633" lon="10.716265"><ele>65.80000000000001</ele><time>2026-04-02T08:36:03.199Z</time></trkpt><trkpt lat="45.4009367" lon="10.716425"><ele>65.2</ele><time>2026-04-02T08:36:04.202Z</time></trkpt><trkpt lat="45.400895" lon="10.716575"><ele>64.60000000000001</ele><time>2026-04-02T08:36:05.203Z</time></trkpt><trkpt lat="45.4008883" lon="10.7166883"><ele>64.0</ele><time>2026-04-02T08:36:06.203Z</time></trkpt><trkpt lat="45.400875" lon="10.71678"><ele>63.99999999999999</ele><time>2026-04-02T08:36:07.195Z</time></trkpt><trkpt lat="45.40084" lon="10.7168967"><ele>64.0</ele><time>2026-04-02T08:36:09.205Z</time></trkpt><trkpt lat="45.4008067" lon="10.7169817"><ele>64.0</ele><time>2026-04-02T08:36:12.198Z</time></trkpt><trkpt lat="45.400805" lon="10.7170767"><ele>64.0</ele><time>2026-04-02T08:36:29.211Z</time></trkpt><trkpt lat="45.4008717" lon="10.7170233"><ele>63.99999999999999</ele><time>2026-04-02T08:36:31.201Z</time></trkpt><trkpt lat="45.400915" lon="10.71686"><ele>64.0</ele><time>2026-04-02T08:36:33.215Z</time></trkpt><trkpt lat="45.4009283" lon="10.71675"><ele>64.0</ele><time>2026-04-02T08:36:34.202Z</time></trkpt><trkpt lat="45.4009433" lon="10.7166033"><ele>64.0</ele><time>2026-04-02T08:36:35.199Z</time></trkpt><trkpt lat="45.4009683" lon="10.7164067"><ele>64.0</ele><time>2026-04-02T08:36:36.204Z</time></trkpt><trkpt lat="45.4009983" lon="10.7161967"><ele>64.0</ele><time>2026-04-02T08:36:37.206Z</time></trkpt><trkpt lat="45.4010417" lon="10.716025"><ele>65.0</ele><time>2026-04-02T08:36:38.203Z</time></trkpt><trkpt lat="45.4011033" lon="10.7157983"><ele>66.0</ele><time>2026-04-02T08:36:39.205Z</time></trkpt><trkpt lat="45.4011767" lon="10.7155983"><ele>67.0</ele><time>2026-04-02T08:36:40.202Z</time></trkpt><trkpt lat="45.4012483" lon="10.715375"><ele>68.0</ele><time>2026-04-02T08:36:41.205Z</time></trkpt><trkpt lat="45.40133" lon="10.7151633"><ele>69.0</ele><time>2026-04-02T08:36:42.197Z</time></trkpt><trkpt lat="45.40141" lon="10.714895"><ele>70.0</ele><time>2026-04-02T08:36:43.207Z</time></trkpt><trkpt lat="45.401495" lon="10.7146517"><ele>70.0</ele><time>2026-04-02T08:36:44.202Z</time></trkpt><trkpt lat="45.4015533" lon="10.71444"><ele>70.0</ele><time>2026-04-02T08:36:45.198Z</time></trkpt><trkpt lat="45.4016233" lon="10.714245"><ele>70.0</ele><time>2026-04-02T08:36:46.201Z</time></trkpt><trkpt lat="45.40167" lon="10.7140617"><ele>70.4</ele><time>2026-04-02T08:36:47.202Z</time></trkpt><trkpt lat="45.40172" lon="10.7139317"><ele>70.8</ele><time>2026-04-02T08:36:48.199Z</time></trkpt><trkpt lat="45.4017683" lon="10.713815"><ele>71.2</ele><time>2026-04-02T08:36:49.208Z</time></trkpt><trkpt lat="45.40184" lon="10.71375"><ele>71.6</ele><time>2026-04-02T08:36:50.199Z</time></trkpt><trkpt lat="45.401925" lon="10.7136767"><ele>72.0</ele><time>2026-04-02T08:36:51.199Z</time></trkpt><trkpt lat="45.4020333" lon="10.7136083"><ele>71.5</ele><time>2026-04-02T08:36:52.196Z</time></trkpt><trkpt lat="45.402155" lon="10.7135633"><ele>71.0</ele><time>2026-04-02T08:36:53.207Z</time></trkpt><trkpt lat="45.4022883" lon="10.7134867"><ele>70.5</ele><time>2026-04-02T08:36:54.201Z</time></trkpt><trkpt lat="45.4024383" lon="10.713385"><ele>70.0</ele><time>2026-04-02T08:36:55.214Z</time></trkpt><trkpt lat="45.4025733" lon="10.7132833"><ele>70.0</ele><time>2026-04-02T08:36:56.203Z</time></trkpt><trkpt lat="45.4026967" lon="10.7131667"><ele>70.0</ele><time>2026-04-02T08:36:57.205Z</time></trkpt><trkpt lat="45.4028167" lon="10.713065"><ele>70.0</ele><time>2026-04-02T08:36:58.197Z</time></trkpt><trkpt lat="45.4029217" lon="10.71296"><ele>70.0</ele><time>2026-04-02T08:36:59.202Z</time></trkpt><trkpt lat="45.403005" lon="10.7129017"><ele>69.83333333333333</ele><time>2026-04-02T08:37:00.198Z</time></trkpt><trkpt lat="45.4030783" lon="10.7128583"><ele>69.66666666666666</ele><time>2026-04-02T08:37:01.201Z</time></trkpt><trkpt lat="45.4031417" lon="10.7128533"><ele>69.5</ele><time>2026-04-02T08:37:02.204Z</time></trkpt><trkpt lat="45.4032117" lon="10.7128983"><ele>69.33333333333333</ele><time>2026-04-02T08:37:03.203Z</time></trkpt><trkpt lat="45.4032833" lon="10.7129733"><ele>69.16666666666667</ele><time>2026-04-02T08:37:04.201Z</time></trkpt><trkpt lat="45.4033617" lon="10.7130717"><ele>69.0</ele><time>2026-04-02T08:37:05.2Z</time></trkpt><trkpt lat="45.403445" lon="10.713165"><ele>69.0</ele><time>2026-04-02T08:37:06.205Z</time></trkpt><trkpt lat="45.4035717" lon="10.7132267"><ele>69.0</ele><time>2026-04-02T08:37:07.197Z</time></trkpt><trkpt lat="45.4036967" lon="10.71329"><ele>69.0</ele><time>2026-04-02T08:37:08.204Z</time></trkpt><trkpt lat="45.4038517" lon="10.713335"><ele>69.0</ele><time>2026-04-02T08:37:09.207Z</time></trkpt><trkpt lat="45.4040033" lon="10.713395"><ele>69.0</ele><time>2026-04-02T08:37:10.21Z</time></trkpt><trkpt lat="45.4041533" lon="10.7134633"><ele>69.0</ele><time>2026-04-02T08:37:11.202Z</time></trkpt><trkpt lat="45.4042917" lon="10.7135767"><ele>69.0</ele><time>2026-04-02T08:37:12.223Z</time></trkpt><trkpt lat="45.4044133" lon="10.7137467"><ele>69.0</ele><time>2026-04-02T08:37:13.216Z</time></trkpt><trkpt lat="45.4045333" lon="10.7139233"><ele>69.0</ele><time>2026-04-02T08:37:14.205Z</time></trkpt><trkpt lat="45.40467" lon="10.7140733"><ele>69.0</ele><time>2026-04-02T08:37:15.208Z</time></trkpt><trkpt lat="45.4048" lon="10.7142467"><ele>69.0</ele><time>2026-04-02T08:37:16.206Z</time></trkpt><trkpt lat="45.4049333" lon="10.7143917"><ele>69.0</ele><time>2026-04-02T08:37:17.2Z</time></trkpt><trkpt lat="45.4050783" lon="10.7145"><ele>69.0</ele><time>2026-04-02T08:37:18.204Z</time></trkpt><trkpt lat="45.4052" lon="10.7145867"><ele>69.0</ele><time>2026-04-02T08:37:19.203Z</time></trkpt><trkpt lat="45.405325" lon="10.7146517"><ele>69.0</ele><time>2026-04-02T08:37:20.195Z</time></trkpt><trkpt lat="45.405455" lon="10.7147367"><ele>69.0</ele><time>2026-04-02T08:37:21.202Z</time></trkpt><trkpt lat="45.405575" lon="10.7147833"><ele>69.0</ele><time>2026-04-02T08:37:22.205Z</time></trkpt><trkpt lat="45.4056833" lon="10.714815"><ele>69.60000000000001</ele><time>2026-04-02T08:37:23.198Z</time></trkpt><trkpt lat="45.4057667" lon="10.71485"><ele>70.2</ele><time>2026-04-02T08:37:24.198Z</time></trkpt><trkpt lat="45.40588" lon="10.7148683"><ele>70.80000000000001</ele><time>2026-04-02T08:37:25.2Z</time></trkpt><trkpt lat="45.40598" lon="10.71491"><ele>71.4</ele><time>2026-04-02T08:37:26.209Z</time></trkpt><trkpt lat="45.4060883" lon="10.714955"><ele>72.0</ele><time>2026-04-02T08:37:27.205Z</time></trkpt><trkpt lat="45.406205" lon="10.715"><ele>72.0</ele><time>2026-04-02T08:37:28.198Z</time></trkpt><trkpt lat="45.4063033" lon="10.7150233"><ele>72.0</ele><time>2026-04-02T08:37:29.207Z</time></trkpt><trkpt lat="45.4063867" lon="10.7150483"><ele>72.0</ele><time>2026-04-02T08:37:30.201Z</time></trkpt><trkpt lat="45.4064783" lon="10.715065"><ele>72.0</ele><time>2026-04-02T08:37:31.205Z</time></trkpt><trkpt lat="45.4065533" lon="10.7150867"><ele>72.0</ele><time>2026-04-02T08:37:32.198Z</time></trkpt><trkpt lat="45.4066383" lon="10.715105"><ele>72.0</ele><time>2026-04-02T08:37:33.198Z</time></trkpt><trkpt lat="45.4067667" lon="10.7151233"><ele>72.25</ele><time>2026-04-02T08:37:35.205Z</time></trkpt><trkpt lat="45.4068533" lon="10.71515"><ele>72.5</ele><time>2026-04-02T08:37:36.198Z</time></trkpt><trkpt lat="45.4069567" lon="10.71518"><ele>72.75</ele><time>2026-04-02T08:37:37.208Z</time></trkpt><trkpt lat="45.4070867" lon="10.7152233"><ele>73.0</ele><time>2026-04-02T08:37:38.227Z</time></trkpt><trkpt lat="45.4072417" lon="10.71527"><ele>70.33333333333333</ele><time>2026-04-02T08:37:39.201Z</time></trkpt><trkpt lat="45.4073817" lon="10.71532"><ele>67.66666666666667</ele><time>2026-04-02T08:37:40.21Z</time></trkpt><trkpt lat="45.4075217" lon="10.7153817"><ele>65.0</ele><time>2026-04-02T08:37:41.206Z</time></trkpt><trkpt lat="45.4076733" lon="10.7154533"><ele>65.0</ele><time>2026-04-02T08:37:42.223Z</time></trkpt><trkpt lat="45.4078367" lon="10.7154767"><ele>65.0</ele><time>2026-04-02T08:37:43.201Z</time></trkpt><trkpt lat="45.4079983" lon="10.7155033"><ele>65.0</ele><time>2026-04-02T08:37:44.204Z</time></trkpt><trkpt lat="45.4081683" lon="10.71551"><ele>66.33333333333334</ele><time>2026-04-02T08:37:45.2Z</time></trkpt><trkpt lat="45.40835" lon="10.715475"><ele>67.66666666666667</ele><time>2026-04-02T08:37:46.198Z</time></trkpt><trkpt lat="45.4084817" lon="10.715475"><ele>69.0</ele><time>2026-04-02T08:37:47.2Z</time></trkpt><trkpt lat="45.40862" lon="10.7154567"><ele>69.0</ele><time>2026-04-02T08:37:48.207Z</time></trkpt><trkpt lat="45.4087517" lon="10.71551"><ele>69.0</ele><time>2026-04-02T08:37:49.202Z</time></trkpt><trkpt lat="45.408885" lon="10.7154983"><ele>69.0</ele><time>2026-04-02T08:37:50.205Z</time></trkpt><trkpt lat="45.4090233" lon="10.715465"><ele>69.0</ele><time>2026-04-02T08:37:51.206Z</time></trkpt><trkpt lat="45.4091667" lon="10.7153917"><ele>68.66666666666667</ele><time>2026-04-02T08:37:52.215Z</time></trkpt><trkpt lat="45.4093117" lon="10.715315"><ele>68.33333333333334</ele><time>2026-04-02T08:37:53.209Z</time></trkpt><trkpt lat="45.4094767" lon="10.715285"><ele>68.0</ele><time>2026-04-02T08:37:54.204Z</time></trkpt><trkpt lat="45.4096333" lon="10.7152133"><ele>70.66666666666667</ele><time>2026-04-02T08:37:55.201Z</time></trkpt><trkpt lat="45.4097967" lon="10.71516"><ele>73.33333333333333</ele><time>2026-04-02T08:37:56.203Z</time></trkpt><trkpt lat="45.4099617" lon="10.7150883"><ele>76.0</ele><time>2026-04-02T08:37:57.204Z</time></trkpt><trkpt lat="45.4101217" lon="10.715045"><ele>76.0</ele><time>2026-04-02T08:37:58.197Z</time></trkpt><trkpt lat="45.41029" lon="10.7149967"><ele>76.0</ele><time>2026-04-02T08:37:59.203Z</time></trkpt><trkpt lat="45.4104433" lon="10.71498"><ele>76.0</ele><time>2026-04-02T08:38:00.213Z</time></trkpt><trkpt lat="45.41062" lon="10.71494"><ele>73.66666666666666</ele><time>2026-04-02T08:38:01.206Z</time></trkpt><trkpt lat="45.41079" lon="10.7148767"><ele>71.33333333333333</ele><time>2026-04-02T08:38:02.206Z</time></trkpt><trkpt lat="45.41095" lon="10.714825"><ele>69.0</ele><time>2026-04-02T08:38:03.207Z</time></trkpt><trkpt lat="45.4111217" lon="10.7147917"><ele>69.0</ele><time>2026-04-02T08:38:04.198Z</time></trkpt><trkpt lat="45.4112883" lon="10.7147467"><ele>69.0</ele><time>2026-04-02T08:38:05.2Z</time></trkpt><trkpt lat="45.4114417" lon="10.71469"><ele>69.0</ele><time>2026-04-02T08:38:06.203Z</time></trkpt><trkpt lat="45.41161" lon="10.71464"><ele>68.0</ele><time>2026-04-02T08:38:07.205Z</time></trkpt><trkpt lat="45.4117683" lon="10.7145583"><ele>67.0</ele><time>2026-04-02T08:38:08.201Z</time></trkpt><trkpt lat="45.4119417" lon="10.7144583"><ele>66.0</ele><time>2026-04-02T08:38:09.2Z</time></trkpt><trkpt lat="45.4120967" lon="10.714395"><ele>68.33333333333333</ele><time>2026-04-02T08:38:10.2Z</time></trkpt><trkpt lat="45.4122683" lon="10.7143467"><ele>70.66666666666666</ele><time>2026-04-02T08:38:11.201Z</time></trkpt><trkpt lat="45.4124483" lon="10.7142633"><ele>73.0</ele><time>2026-04-02T08:38:12.203Z</time></trkpt><trkpt lat="45.4126717" lon="10.7142483"><ele>73.0</ele><time>2026-04-02T08:38:13.201Z</time></trkpt><trkpt lat="45.412875" lon="10.714225"><ele>73.0</ele><time>2026-04-02T08:38:14.205Z</time></trkpt><trkpt lat="45.4130633" lon="10.714195"><ele>73.0</ele><time>2026-04-02T08:38:15.203Z</time></trkpt><trkpt lat="45.41324" lon="10.7141533"><ele>72.33333333333333</ele><time>2026-04-02T08:38:16.204Z</time></trkpt><trkpt lat="45.4134133" lon="10.714095"><ele>71.66666666666667</ele><time>2026-04-02T08:38:17.202Z</time></trkpt><trkpt lat="45.4135917" lon="10.7140133"><ele>71.0</ele><time>2026-04-02T08:38:18.202Z</time></trkpt><trkpt lat="45.4137567" lon="10.7139333"><ele>71.33333333333334</ele><time>2026-04-02T08:38:19.209Z</time></trkpt><trkpt lat="45.4138917" lon="10.7138917"><ele>71.66666666666667</ele><time>2026-04-02T08:38:20.2Z</time></trkpt><trkpt lat="45.4140467" lon="10.713835"><ele>72.0</ele><time>2026-04-02T08:38:21.2Z</time></trkpt><trkpt lat="45.4141933" lon="10.7137783"><ele>72.0</ele><time>2026-04-02T08:38:22.204Z</time></trkpt><trkpt lat="45.41433" lon="10.7137583"><ele>72.0</ele><time>2026-04-02T08:38:23.203Z</time></trkpt><trkpt lat="45.41445" lon="10.7137433"><ele>72.0</ele><time>2026-04-02T08:38:24.203Z</time></trkpt><trkpt lat="45.414555" lon="10.71372"><ele>72.0</ele><time>2026-04-02T08:38:25.202Z</time></trkpt><trkpt lat="45.41462" lon="10.713695"><ele>72.0</ele><time>2026-04-02T08:38:26.199Z</time></trkpt><trkpt lat="45.4146917" lon="10.7136933"><ele>72.0</ele><time>2026-04-02T08:38:27.202Z</time></trkpt><trkpt lat="45.4148" lon="10.7136217"><ele>72.0</ele><time>2026-04-02T08:38:29.205Z</time></trkpt><trkpt lat="45.4148333" lon="10.7135417"><ele>72.0</ele><time>2026-04-02T08:38:30.2Z</time></trkpt><trkpt lat="45.4148167" lon="10.7134117"><ele>72.0</ele><time>2026-04-02T08:38:31.206Z</time></trkpt><trkpt lat="45.4148067" lon="10.7132733"><ele>72.0</ele><time>2026-04-02T08:38:32.206Z</time></trkpt><trkpt lat="45.4147883" lon="10.7130917"><ele>73.0</ele><time>2026-04-02T08:38:33.201Z</time></trkpt><trkpt lat="45.4147783" lon="10.7129233"><ele>74.0</ele><time>2026-04-02T08:38:34.197Z</time></trkpt><trkpt lat="45.414775" lon="10.71273"><ele>75.0</ele><time>2026-04-02T08:38:35.205Z</time></trkpt><trkpt lat="45.4147767" lon="10.712595"><ele>76.0</ele><time>2026-04-02T08:38:36.202Z</time></trkpt><trkpt lat="45.41478" lon="10.7124817"><ele>77.0</ele><time>2026-04-02T08:38:37.202Z</time></trkpt><trkpt lat="45.41478" lon="10.7123717"><ele>78.0</ele><time>2026-04-02T08:38:38.213Z</time></trkpt><trkpt lat="45.4147833" lon="10.7122667"><ele>79.0</ele><time>2026-04-02T08:38:39.197Z</time></trkpt><trkpt lat="45.4147833" lon="10.7121567"><ele>80.0</ele><time>2026-04-02T08:38:40.198Z</time></trkpt><trkpt lat="45.4147817" lon="10.71202"><ele>81.0</ele><time>2026-04-02T08:38:41.204Z</time></trkpt><trkpt lat="45.414775" lon="10.7118533"><ele>82.0</ele><time>2026-04-02T08:38:42.209Z</time></trkpt><trkpt lat="45.4147533" lon="10.7116933"><ele>82.25</ele><time>2026-04-02T08:38:43.205Z</time></trkpt><trkpt lat="45.414735" lon="10.7115283"><ele>82.5</ele><time>2026-04-02T08:38:44.199Z</time></trkpt><trkpt lat="45.41471" lon="10.7113617"><ele>82.75</ele><time>2026-04-02T08:38:45.205Z</time></trkpt><trkpt lat="45.4146933" lon="10.7111883"><ele>83.0</ele><time>2026-04-02T08:38:46.204Z</time></trkpt><trkpt lat="45.4146983" lon="10.711045"><ele>83.0</ele><time>2026-04-02T08:38:47.195Z</time></trkpt><trkpt lat="45.4146783" lon="10.7109283"><ele>83.0</ele><time>2026-04-02T08:38:48.205Z</time></trkpt><trkpt lat="45.4147167" lon="10.71085"><ele>83.0</ele><time>2026-04-02T08:38:49.199Z</time></trkpt><trkpt lat="45.4148017" lon="10.7108117"><ele>83.0</ele><time>2026-04-02T08:38:50.198Z</time></trkpt><trkpt lat="45.414895" lon="10.7107867"><ele>83.0</ele><time>2026-04-02T08:38:51.21Z</time></trkpt><trkpt lat="45.4149983" lon="10.7107767"><ele>83.0</ele><time>2026-04-02T08:38:52.205Z</time></trkpt><trkpt lat="45.41513" lon="10.71079"><ele>83.0</ele><time>2026-04-02T08:38:53.2Z</time></trkpt><trkpt lat="45.4152717" lon="10.710815"><ele>83.0</ele><time>2026-04-02T08:38:54.202Z</time></trkpt><trkpt lat="45.4154033" lon="10.7108117"><ele>83.0</ele><time>2026-04-02T08:38:55.205Z</time></trkpt><trkpt lat="45.4155767" lon="10.71072"><ele>83.25</ele><time>2026-04-02T08:38:56.203Z</time></trkpt><trkpt lat="45.415705" lon="10.7106333"><ele>83.5</ele><time>2026-04-02T08:38:57.203Z</time></trkpt><trkpt lat="45.4158283" lon="10.710565"><ele>83.75</ele><time>2026-04-02T08:38:58.205Z</time></trkpt><trkpt lat="45.4159083" lon="10.71045"><ele>84.0</ele><time>2026-04-02T08:38:59.208Z</time></trkpt><trkpt lat="45.4159883" lon="10.71034"><ele>83.25</ele><time>2026-04-02T08:39:00.2Z</time></trkpt><trkpt lat="45.4160533" lon="10.7102117"><ele>82.5</ele><time>2026-04-02T08:39:01.199Z</time></trkpt><trkpt lat="45.416105" lon="10.71003"><ele>81.75</ele><time>2026-04-02T08:39:02.207Z</time></trkpt><trkpt lat="45.416135" lon="10.7098717"><ele>81.0</ele><time>2026-04-02T08:39:03.208Z</time></trkpt><trkpt lat="45.4161683" lon="10.7096767"><ele>81.0</ele><time>2026-04-02T08:39:04.202Z</time></trkpt><trkpt lat="45.4161983" lon="10.70943"><ele>81.0</ele><time>2026-04-02T08:39:05.203Z</time></trkpt><trkpt lat="45.416205" lon="10.7092367"><ele>81.0</ele><time>2026-04-02T08:39:06.208Z</time></trkpt><trkpt lat="45.416225" lon="10.709055"><ele>81.0</ele><time>2026-04-02T08:39:07.202Z</time></trkpt><trkpt lat="45.416255" lon="10.7088417"><ele>81.0</ele><time>2026-04-02T08:39:08.194Z</time></trkpt><trkpt lat="45.41629" lon="10.708635"><ele>81.0</ele><time>2026-04-02T08:39:09.205Z</time></trkpt><trkpt lat="45.416345" lon="10.70841"><ele>81.0</ele><time>2026-04-02T08:39:10.207Z</time></trkpt><trkpt lat="45.4163667" lon="10.7082417"><ele>81.0</ele><time>2026-04-02T08:39:11.207Z</time></trkpt><trkpt lat="45.416365" lon="10.7080867"><ele>81.0</ele><time>2026-04-02T08:39:12.201Z</time></trkpt><trkpt lat="45.416345" lon="10.70799"><ele>81.0</ele><time>2026-04-02T08:39:13.198Z</time></trkpt><trkpt lat="45.4163717" lon="10.7078417"><ele>81.0</ele><time>2026-04-02T08:39:15.201Z</time></trkpt><trkpt lat="45.4163917" lon="10.7077033"><ele>81.0</ele><time>2026-04-02T08:39:18.202Z</time></trkpt><trkpt lat="45.4164" lon="10.7075367"><ele>81.0</ele><time>2026-04-02T08:39:20.204Z</time></trkpt><trkpt lat="45.41641" lon="10.70742"><ele>80.5</ele><time>2026-04-02T08:39:21.197Z</time></trkpt><trkpt lat="45.4164167" lon="10.707285"><ele>80.0</ele><time>2026-04-02T08:39:22.195Z</time></trkpt><trkpt lat="45.4164217" lon="10.7071367"><ele>79.5</ele><time>2026-04-02T08:39:23.199Z</time></trkpt><trkpt lat="45.4164317" lon="10.70696"><ele>79.0</ele><time>2026-04-02T08:39:24.198Z</time></trkpt><trkpt lat="45.41645" lon="10.7067417"><ele>78.25</ele><time>2026-04-02T08:39:25.2Z</time></trkpt><trkpt lat="45.4164583" lon="10.7065517"><ele>77.5</ele><time>2026-04-02T08:39:26.2Z</time></trkpt><trkpt lat="45.4164583" lon="10.70635"><ele>76.75</ele><time>2026-04-02T08:39:27.199Z</time></trkpt><trkpt lat="45.4164717" lon="10.7061433"><ele>76.0</ele><time>2026-04-02T08:39:28.199Z</time></trkpt><trkpt lat="45.4165017" lon="10.7059083"><ele>75.66666666666666</ele><time>2026-04-02T08:39:29.206Z</time></trkpt><trkpt lat="45.4165217" lon="10.7057017"><ele>75.33333333333333</ele><time>2026-04-02T08:39:30.202Z</time></trkpt><trkpt lat="45.4165567" lon="10.7054967"><ele>75.0</ele><time>2026-04-02T08:39:31.199Z</time></trkpt><trkpt lat="45.4165833" lon="10.7052617"><ele>75.25</ele><time>2026-04-02T08:39:32.207Z</time></trkpt><trkpt lat="45.4166067" lon="10.705045"><ele>75.5</ele><time>2026-04-02T08:39:33.211Z</time></trkpt><trkpt lat="45.4166417" lon="10.7048517"><ele>75.75</ele><time>2026-04-02T08:39:34.199Z</time></trkpt><trkpt lat="45.4166883" lon="10.7046717"><ele>76.0</ele><time>2026-04-02T08:39:35.204Z</time></trkpt><trkpt lat="45.4167333" lon="10.7045067"><ele>76.25</ele><time>2026-04-02T08:39:36.204Z</time></trkpt><trkpt lat="45.4167883" lon="10.7043533"><ele>76.5</ele><time>2026-04-02T08:39:37.205Z</time></trkpt><trkpt lat="45.41681" lon="10.7041967"><ele>76.75</ele><time>2026-04-02T08:39:38.196Z</time></trkpt><trkpt lat="45.416815" lon="10.7040067"><ele>77.0</ele><time>2026-04-02T08:39:39.206Z</time></trkpt><trkpt lat="45.4168083" lon="10.7038133"><ele>77.0</ele><time>2026-04-02T08:39:40.2Z</time></trkpt><trkpt lat="45.4168233" lon="10.7036267"><ele>77.0</ele><time>2026-04-02T08:39:41.198Z</time></trkpt><trkpt lat="45.4168283" lon="10.7034183"><ele>77.0</ele><time>2026-04-02T08:39:42.2Z</time></trkpt><trkpt lat="45.41686" lon="10.703235"><ele>77.0</ele><time>2026-04-02T08:39:43.203Z</time></trkpt><trkpt lat="45.4169117" lon="10.7030517"><ele>76.5</ele><time>2026-04-02T08:39:44.2Z</time></trkpt><trkpt lat="45.41696" lon="10.7028417"><ele>76.0</ele><time>2026-04-02T08:39:45.202Z</time></trkpt><trkpt lat="45.4170017" lon="10.70266"><ele>75.5</ele><time>2026-04-02T08:39:46.2Z</time></trkpt><trkpt lat="45.417035" lon="10.7024817"><ele>75.0</ele><time>2026-04-02T08:39:47.197Z</time></trkpt><trkpt lat="45.417065" lon="10.7023017"><ele>74.5</ele><time>2026-04-02T08:39:48.204Z</time></trkpt><trkpt lat="45.4171067" lon="10.7021483"><ele>74.0</ele><time>2026-04-02T08:39:49.208Z</time></trkpt><trkpt lat="45.4171517" lon="10.7019883"><ele>73.5</ele><time>2026-04-02T08:39:50.211Z</time></trkpt><trkpt lat="45.4171933" lon="10.701825"><ele>73.0</ele><time>2026-04-02T08:39:51.204Z</time></trkpt><trkpt lat="45.417235" lon="10.7016433"><ele>74.25</ele><time>2026-04-02T08:39:52.203Z</time></trkpt><trkpt lat="45.4172883" lon="10.7014733"><ele>75.5</ele><time>2026-04-02T08:39:53.198Z</time></trkpt><trkpt lat="45.4173433" lon="10.7013083"><ele>76.75</ele><time>2026-04-02T08:39:54.197Z</time></trkpt><trkpt lat="45.417385" lon="10.7011117"><ele>78.0</ele><time>2026-04-02T08:39:55.202Z</time></trkpt><trkpt lat="45.41742" lon="10.70091"><ele>78.0</ele><time>2026-04-02T08:39:56.204Z</time></trkpt><trkpt lat="45.4174617" lon="10.7006967"><ele>78.0</ele><time>2026-04-02T08:39:57.201Z</time></trkpt><trkpt lat="45.4175083" lon="10.7005117"><ele>78.0</ele><time>2026-04-02T08:39:58.204Z</time></trkpt><trkpt lat="45.417565" lon="10.7003017"><ele>78.5</ele><time>2026-04-02T08:39:59.201Z</time></trkpt><trkpt lat="45.417615" lon="10.700115"><ele>79.0</ele><time>2026-04-02T08:40:00.207Z</time></trkpt><trkpt lat="45.417675" lon="10.699975"><ele>79.5</ele><time>2026-04-02T08:40:01.201Z</time></trkpt><trkpt lat="45.41773" lon="10.6998483"><ele>80.0</ele><time>2026-04-02T08:40:02.205Z</time></trkpt><trkpt lat="45.417805" lon="10.69972"><ele>80.0</ele><time>2026-04-02T08:40:03.201Z</time></trkpt><trkpt lat="45.41789" lon="10.6996283"><ele>80.0</ele><time>2026-04-02T08:40:04.203Z</time></trkpt><trkpt lat="45.41797" lon="10.69951"><ele>80.0</ele><time>2026-04-02T08:40:05.206Z</time></trkpt><trkpt lat="45.418075" lon="10.6994017"><ele>80.0</ele><time>2026-04-02T08:40:06.198Z</time></trkpt><trkpt lat="45.41816" lon="10.6992567"><ele>80.0</ele><time>2026-04-02T08:40:07.213Z</time></trkpt><trkpt lat="45.418255" lon="10.6990833"><ele>80.0</ele><time>2026-04-02T08:40:08.212Z</time></trkpt><trkpt lat="45.41836" lon="10.698925"><ele>80.0</ele><time>2026-04-02T08:40:09.208Z</time></trkpt><trkpt lat="45.4184617" lon="10.69878"><ele>80.0</ele><time>2026-04-02T08:40:10.202Z</time></trkpt><trkpt lat="45.4185567" lon="10.698655"><ele>80.0</ele><time>2026-04-02T08:40:11.203Z</time></trkpt><trkpt lat="45.418635" lon="10.6985367"><ele>80.0</ele><time>2026-04-02T08:40:12.203Z</time></trkpt><trkpt lat="45.4187067" lon="10.6984233"><ele>80.0</ele><time>2026-04-02T08:40:13.197Z</time></trkpt><trkpt lat="45.4187717" lon="10.6983117"><ele>80.0</ele><time>2026-04-02T08:40:14.202Z</time></trkpt><trkpt lat="45.4188383" lon="10.698195"><ele>80.0</ele><time>2026-04-02T08:40:15.207Z</time></trkpt><trkpt lat="45.4188933" lon="10.6981117"><ele>80.0</ele><time>2026-04-02T08:40:16.202Z</time></trkpt><trkpt lat="45.418955" lon="10.6980267"><ele>80.0</ele><time>2026-04-02T08:40:17.201Z</time></trkpt><trkpt lat="45.419" lon="10.6979633"><ele>80.0</ele><time>2026-04-02T08:40:18.204Z</time></trkpt><trkpt lat="45.4191167" lon="10.6979483"><ele>80.0</ele><time>2026-04-02T08:40:20.203Z</time></trkpt><trkpt lat="45.41918" lon="10.6979967"><ele>80.0</ele><time>2026-04-02T08:40:21.218Z</time></trkpt><trkpt lat="45.4192483" lon="10.6980717"><ele>80.0</ele><time>2026-04-02T08:40:22.204Z</time></trkpt><trkpt lat="45.4193083" lon="10.69817"><ele>80.0</ele><time>2026-04-02T08:40:23.198Z</time></trkpt><trkpt lat="45.4193783" lon="10.6982583"><ele>80.0</ele><time>2026-04-02T08:40:24.209Z</time></trkpt><trkpt lat="45.4194483" lon="10.6983533"><ele>80.0</ele><time>2026-04-02T08:40:25.201Z</time></trkpt><trkpt lat="45.4195433" lon="10.698415"><ele>79.75</ele><time>2026-04-02T08:40:26.196Z</time></trkpt><trkpt lat="45.4196583" lon="10.6984367"><ele>79.5</ele><time>2026-04-02T08:40:27.208Z</time></trkpt><trkpt lat="45.4197933" lon="10.698455"><ele>79.25</ele><time>2026-04-02T08:40:28.21Z</time></trkpt><trkpt lat="45.4199183" lon="10.6984583"><ele>79.0</ele><time>2026-04-02T08:40:29.201Z</time></trkpt><trkpt lat="45.4200517" lon="10.6984167"><ele>79.0</ele><time>2026-04-02T08:40:30.205Z</time></trkpt><trkpt lat="45.4201967" lon="10.69836"><ele>79.0</ele><time>2026-04-02T08:40:31.204Z</time></trkpt><trkpt lat="45.4203383" lon="10.698285"><ele>79.0</ele><time>2026-04-02T08:40:32.202Z</time></trkpt><trkpt lat="45.4204717" lon="10.6982167"><ele>79.0</ele><time>2026-04-02T08:40:33.205Z</time></trkpt><trkpt lat="45.4206017" lon="10.6982"><ele>79.25</ele><time>2026-04-02T08:40:34.199Z</time></trkpt><trkpt lat="45.4207183" lon="10.698145"><ele>79.5</ele><time>2026-04-02T08:40:35.203Z</time></trkpt><trkpt lat="45.4208217" lon="10.69807"><ele>79.75</ele><time>2026-04-02T08:40:36.204Z</time></trkpt><trkpt lat="45.4209167" lon="10.6979683"><ele>80.0</ele><time>2026-04-02T08:40:37.2Z</time></trkpt><trkpt lat="45.421035" lon="10.6978817"><ele>80.0</ele><time>2026-04-02T08:40:38.2Z</time></trkpt><trkpt lat="45.4211733" lon="10.6978"><ele>80.0</ele><time>2026-04-02T08:40:39.203Z</time></trkpt><trkpt lat="45.4213" lon="10.6977917"><ele>80.0</ele><time>2026-04-02T08:40:40.2Z</time></trkpt><trkpt lat="45.421445" lon="10.6977933"><ele>80.0</ele><time>2026-04-02T08:40:41.205Z</time></trkpt><trkpt lat="45.4215417" lon="10.6978033"><ele>79.8</ele><time>2026-04-02T08:40:42.196Z</time></trkpt><trkpt lat="45.421605" lon="10.6977917"><ele>79.6</ele><time>2026-04-02T08:40:43.202Z</time></trkpt><trkpt lat="45.42173" lon="10.6977617"><ele>79.4</ele><time>2026-04-02T08:40:45.2Z</time></trkpt><trkpt lat="45.42181" lon="10.697745"><ele>79.2</ele><time>2026-04-02T08:40:46.204Z</time></trkpt><trkpt lat="45.4218983" lon="10.69773"><ele>79.0</ele><time>2026-04-02T08:40:47.207Z</time></trkpt><trkpt lat="45.42199" lon="10.697715"><ele>79.5</ele><time>2026-04-02T08:40:48.202Z</time></trkpt><trkpt lat="45.4221083" lon="10.6976833"><ele>80.0</ele><time>2026-04-02T08:40:49.199Z</time></trkpt><trkpt lat="45.4222183" lon="10.6976433"><ele>80.5</ele><time>2026-04-02T08:40:50.212Z</time></trkpt><trkpt lat="45.4223467" lon="10.697625"><ele>81.0</ele><time>2026-04-02T08:40:51.206Z</time></trkpt><trkpt lat="45.42249" lon="10.6976033"><ele>79.75</ele><time>2026-04-02T08:40:52.199Z</time></trkpt><trkpt lat="45.4226233" lon="10.6975817"><ele>78.5</ele><time>2026-04-02T08:40:53.203Z</time></trkpt><trkpt lat="45.4227683" lon="10.697555"><ele>77.25</ele><time>2026-04-02T08:40:54.212Z</time></trkpt><trkpt lat="45.42292" lon="10.69752"><ele>76.0</ele><time>2026-04-02T08:40:55.2Z</time></trkpt><trkpt lat="45.4230717" lon="10.6975033"><ele>75.0</ele><time>2026-04-02T08:40:56.207Z</time></trkpt><trkpt lat="45.4232033" lon="10.697485"><ele>74.0</ele><time>2026-04-02T08:40:57.203Z</time></trkpt><trkpt lat="45.4233317" lon="10.69748"><ele>73.0</ele><time>2026-04-02T08:40:58.202Z</time></trkpt><trkpt lat="45.4234567" lon="10.6974633"><ele>72.0</ele><time>2026-04-02T08:40:59.203Z</time></trkpt><trkpt lat="45.4235717" lon="10.6974417"><ele>72.0</ele><time>2026-04-02T08:41:00.208Z</time></trkpt><trkpt lat="45.4237" lon="10.6973817"><ele>72.0</ele><time>2026-04-02T08:41:01.23Z</time></trkpt><trkpt lat="45.4238333" lon="10.6973"><ele>72.0</ele><time>2026-04-02T08:41:02.221Z</time></trkpt><trkpt lat="45.4239717" lon="10.69718"><ele>72.0</ele><time>2026-04-02T08:41:03.207Z</time></trkpt><trkpt lat="45.424095" lon="10.697095"><ele>72.33333333333333</ele><time>2026-04-02T08:41:04.228Z</time></trkpt><trkpt lat="45.4242317" lon="10.6969633"><ele>72.66666666666666</ele><time>2026-04-02T08:41:05.204Z</time></trkpt><trkpt lat="45.4243667" lon="10.6968117"><ele>73.0</ele><time>2026-04-02T08:41:06.202Z</time></trkpt><trkpt lat="45.4245033" lon="10.69669"><ele>73.0</ele><time>2026-04-02T08:41:07.197Z</time></trkpt><trkpt lat="45.4246233" lon="10.6965783"><ele>73.0</ele><time>2026-04-02T08:41:08.197Z</time></trkpt><trkpt lat="45.42474" lon="10.696475"><ele>73.0</ele><time>2026-04-02T08:41:09.201Z</time></trkpt><trkpt lat="45.4248417" lon="10.6963883"><ele>73.0</ele><time>2026-04-02T08:41:10.202Z</time></trkpt><trkpt lat="45.4249483" lon="10.6963217"><ele>73.5</ele><time>2026-04-02T08:41:11.206Z</time></trkpt><trkpt lat="45.425055" lon="10.696245"><ele>74.0</ele><time>2026-04-02T08:41:12.201Z</time></trkpt><trkpt lat="45.42515" lon="10.6961833"><ele>74.5</ele><time>2026-04-02T08:41:13.204Z</time></trkpt><trkpt lat="45.4252467" lon="10.69613"><ele>75.0</ele><time>2026-04-02T08:41:14.197Z</time></trkpt><trkpt lat="45.42536" lon="10.6960533"><ele>75.0</ele><time>2026-04-02T08:41:15.206Z</time></trkpt><trkpt lat="45.4254667" lon="10.695975"><ele>75.0</ele><time>2026-04-02T08:41:16.195Z</time></trkpt><trkpt lat="45.4255867" lon="10.6958617"><ele>75.0</ele><time>2026-04-02T08:41:17.202Z</time></trkpt><trkpt lat="45.4257217" lon="10.695775"><ele>75.0</ele><time>2026-04-02T08:41:18.205Z</time></trkpt><trkpt lat="45.4258617" lon="10.6956717"><ele>75.25</ele><time>2026-04-02T08:41:19.201Z</time></trkpt><trkpt lat="45.4259933" lon="10.69559"><ele>75.5</ele><time>2026-04-02T08:41:20.2Z</time></trkpt><trkpt lat="45.4261083" lon="10.6955283"><ele>75.75</ele><time>2026-04-02T08:41:21.194Z</time></trkpt><trkpt lat="45.4262167" lon="10.6954217"><ele>76.0</ele><time>2026-04-02T08:41:22.206Z</time></trkpt><trkpt lat="45.426315" lon="10.69531"><ele>76.8</ele><time>2026-04-02T08:41:23.199Z</time></trkpt><trkpt lat="45.4263933" lon="10.69521"><ele>77.6</ele><time>2026-04-02T08:41:24.2Z</time></trkpt><trkpt lat="45.426475" lon="10.6951417"><ele>78.4</ele><time>2026-04-02T08:41:25.202Z</time></trkpt><trkpt lat="45.4265383" lon="10.6950167"><ele>79.2</ele><time>2026-04-02T08:41:26.208Z</time></trkpt><trkpt lat="45.42659" lon="10.69486"><ele>80.0</ele><time>2026-04-02T08:41:27.2Z</time></trkpt><trkpt lat="45.42663" lon="10.6947017"><ele>80.0</ele><time>2026-04-02T08:41:28.207Z</time></trkpt><trkpt lat="45.42668" lon="10.6945567"><ele>80.0</ele><time>2026-04-02T08:41:29.201Z</time></trkpt><trkpt lat="45.426725" lon="10.6944817"><ele>80.0</ele><time>2026-04-02T08:41:30.199Z</time></trkpt><trkpt lat="45.4267983" lon="10.6944233"><ele>80.0</ele><time>2026-04-02T08:41:31.203Z</time></trkpt><trkpt lat="45.4269167" lon="10.6944183"><ele>80.0</ele><time>2026-04-02T08:41:32.212Z</time></trkpt><trkpt lat="45.42703" lon="10.69442"><ele>80.2</ele><time>2026-04-02T08:41:33.197Z</time></trkpt><trkpt lat="45.4271383" lon="10.6944033"><ele>80.4</ele><time>2026-04-02T08:41:34.207Z</time></trkpt><trkpt lat="45.4272467" lon="10.6943717"><ele>80.6</ele><time>2026-04-02T08:41:35.204Z</time></trkpt><trkpt lat="45.4273283" lon="10.69434"><ele>80.8</ele><time>2026-04-02T08:41:36.201Z</time></trkpt><trkpt lat="45.427405" lon="10.6943367"><ele>81.0</ele><time>2026-04-02T08:41:37.205Z</time></trkpt><trkpt lat="45.4274933" lon="10.6943417"><ele>81.0</ele><time>2026-04-02T08:41:38.205Z</time></trkpt><trkpt lat="45.42758" lon="10.6943633"><ele>81.0</ele><time>2026-04-02T08:41:39.201Z</time></trkpt><trkpt lat="45.4276783" lon="10.6944217"><ele>81.0</ele><time>2026-04-02T08:41:40.199Z</time></trkpt><trkpt lat="45.427785" lon="10.694505"><ele>81.0</ele><time>2026-04-02T08:41:41.221Z</time></trkpt><trkpt lat="45.42789" lon="10.6946067"><ele>81.0</ele><time>2026-04-02T08:41:42.199Z</time></trkpt><trkpt lat="45.4279767" lon="10.69471"><ele>80.75</ele><time>2026-04-02T08:41:43.203Z</time></trkpt><trkpt lat="45.4280517" lon="10.6948317"><ele>80.5</ele><time>2026-04-02T08:41:44.205Z</time></trkpt><trkpt lat="45.4281517" lon="10.694935"><ele>80.25</ele><time>2026-04-02T08:41:45.206Z</time></trkpt><trkpt lat="45.4282583" lon="10.6950383"><ele>80.0</ele><time>2026-04-02T08:41:46.197Z</time></trkpt><trkpt lat="45.428345" lon="10.6951533"><ele>78.5</ele><time>2026-04-02T08:41:47.202Z</time></trkpt><trkpt lat="45.4284367" lon="10.6952733"><ele>77.0</ele><time>2026-04-02T08:41:48.196Z</time></trkpt><trkpt lat="45.428515" lon="10.695415"><ele>75.5</ele><time>2026-04-02T08:41:49.194Z</time></trkpt><trkpt lat="45.4285967" lon="10.6955567"><ele>74.0</ele><time>2026-04-02T08:41:50.2Z</time></trkpt><trkpt lat="45.4286633" lon="10.695665"><ele>74.0</ele><time>2026-04-02T08:41:51.204Z</time></trkpt><trkpt lat="45.4287517" lon="10.695735"><ele>74.0</ele><time>2026-04-02T08:41:52.202Z</time></trkpt><trkpt lat="45.428845" lon="10.6958067"><ele>74.0</ele><time>2026-04-02T08:41:53.199Z</time></trkpt><trkpt lat="45.4289633" lon="10.6958167"><ele>74.0</ele><time>2026-04-02T08:41:54.202Z</time></trkpt><trkpt lat="45.4290833" lon="10.695795"><ele>74.0</ele><time>2026-04-02T08:41:55.204Z</time></trkpt><trkpt lat="45.42919" lon="10.6958"><ele>75.5</ele><time>2026-04-02T08:41:56.203Z</time></trkpt><trkpt lat="45.4293133" lon="10.6957933"><ele>77.0</ele><time>2026-04-02T08:41:57.203Z</time></trkpt><trkpt lat="45.4294383" lon="10.69579"><ele>78.5</ele><time>2026-04-02T08:41:58.201Z</time></trkpt><trkpt lat="45.4295717" lon="10.6958067"><ele>80.0</ele><time>2026-04-02T08:41:59.193Z</time></trkpt><trkpt lat="45.4296883" lon="10.6958017"><ele>80.0</ele><time>2026-04-02T08:42:00.207Z</time></trkpt><trkpt lat="45.429825" lon="10.6957483"><ele>80.0</ele><time>2026-04-02T08:42:01.199Z</time></trkpt><trkpt lat="45.429915" lon="10.6956883"><ele>80.0</ele><time>2026-04-02T08:42:02.198Z</time></trkpt><trkpt lat="45.430045" lon="10.69569"><ele>80.0</ele><time>2026-04-02T08:42:03.223Z</time></trkpt><trkpt lat="45.4301683" lon="10.6956867"><ele>80.0</ele><time>2026-04-02T08:42:04.203Z</time></trkpt><trkpt lat="45.4302567" lon="10.6957117"><ele>80.0</ele><time>2026-04-02T08:42:05.198Z</time></trkpt><trkpt lat="45.4303417" lon="10.695755"><ele>80.0</ele><time>2026-04-02T08:42:07.205Z</time></trkpt><trkpt lat="45.4304117" lon="10.69585"><ele>80.0</ele><time>2026-04-02T08:42:09.204Z</time></trkpt><trkpt lat="45.4305017" lon="10.6959283"><ele>80.0</ele><time>2026-04-02T08:42:11.197Z</time></trkpt><trkpt lat="45.4305683" lon="10.6959233"><ele>80.0</ele><time>2026-04-02T08:42:13.201Z</time></trkpt><trkpt lat="45.43065" lon="10.695825"><ele>80.0</ele><time>2026-04-02T08:42:15.209Z</time></trkpt><trkpt lat="45.43078" lon="10.695775"><ele>80.0</ele><time>2026-04-02T08:42:17.205Z</time></trkpt><trkpt lat="45.4308567" lon="10.6957817"><ele>80.0</ele><time>2026-04-02T08:42:18.198Z</time></trkpt><trkpt lat="45.4309333" lon="10.6958167"><ele>80.0</ele><time>2026-04-02T08:42:19.204Z</time></trkpt><trkpt lat="45.4309883" lon="10.6959367"><ele>80.0</ele><time>2026-04-02T08:42:20.197Z</time></trkpt><trkpt lat="45.431025" lon="10.69607"><ele>79.25</ele><time>2026-04-02T08:42:21.198Z</time></trkpt><trkpt lat="45.431035" lon="10.6962267"><ele>78.5</ele><time>2026-04-02T08:42:22.201Z</time></trkpt><trkpt lat="45.431015" lon="10.6963933"><ele>77.75</ele><time>2026-04-02T08:42:23.198Z</time></trkpt><trkpt lat="45.4310183" lon="10.6965583"><ele>77.0</ele><time>2026-04-02T08:42:24.207Z</time></trkpt><trkpt lat="45.4310267" lon="10.69671"><ele>77.0</ele><time>2026-04-02T08:42:25.202Z</time></trkpt><trkpt lat="45.4310383" lon="10.6968733"><ele>77.0</ele><time>2026-04-02T08:42:26.199Z</time></trkpt><trkpt lat="45.4310583" lon="10.6970317"><ele>77.0</ele><time>2026-04-02T08:42:27.198Z</time></trkpt><trkpt lat="45.431085" lon="10.69719"><ele>77.0</ele><time>2026-04-02T08:42:28.197Z</time></trkpt><trkpt lat="45.43108" lon="10.6973383"><ele>77.0</ele><time>2026-04-02T08:42:29.196Z</time></trkpt><trkpt lat="45.4311" lon="10.6974917"><ele>76.4</ele><time>2026-04-02T08:42:30.194Z</time></trkpt><trkpt lat="45.4311033" lon="10.69765"><ele>75.80000000000001</ele><time>2026-04-02T08:42:31.197Z</time></trkpt><trkpt lat="45.4311233" lon="10.697795"><ele>75.2</ele><time>2026-04-02T08:42:32.199Z</time></trkpt><trkpt lat="45.4311267" lon="10.69796"><ele>74.60000000000001</ele><time>2026-04-02T08:42:33.2Z</time></trkpt><trkpt lat="45.43114" lon="10.6981167"><ele>74.0</ele><time>2026-04-02T08:42:34.198Z</time></trkpt><trkpt lat="45.4311417" lon="10.69828"><ele>73.8</ele><time>2026-04-02T08:42:35.199Z</time></trkpt><trkpt lat="45.431155" lon="10.6984317"><ele>73.60000000000001</ele><time>2026-04-02T08:42:36.2Z</time></trkpt><trkpt lat="45.43118" lon="10.6985717"><ele>73.4</ele><time>2026-04-02T08:42:37.203Z</time></trkpt><trkpt lat="45.4311917" lon="10.6987033"><ele>73.2</ele><time>2026-04-02T08:42:38.196Z</time></trkpt><trkpt lat="45.43121" lon="10.6988367"><ele>73.0</ele><time>2026-04-02T08:42:39.201Z</time></trkpt><trkpt lat="45.431215" lon="10.6989733"><ele>72.6</ele><time>2026-04-02T08:42:40.2Z</time></trkpt><trkpt lat="45.4312233" lon="10.699125"><ele>72.19999999999999</ele><time>2026-04-02T08:42:41.196Z</time></trkpt><trkpt lat="45.4312183" lon="10.6992617"><ele>71.8</ele><time>2026-04-02T08:42:42.195Z</time></trkpt><trkpt lat="45.43122" lon="10.6993883"><ele>71.39999999999999</ele><time>2026-04-02T08:42:43.197Z</time></trkpt><trkpt lat="45.4312283" lon="10.6995183"><ele>71.0</ele><time>2026-04-02T08:42:44.198Z</time></trkpt><trkpt lat="45.4312283" lon="10.6996517"><ele>70.28571428571428</ele><time>2026-04-02T08:42:45.199Z</time></trkpt><trkpt lat="45.4312317" lon="10.6997733"><ele>69.57142857142857</ele><time>2026-04-02T08:42:46.197Z</time></trkpt><trkpt lat="45.4312417" lon="10.6998883"><ele>68.85714285714286</ele><time>2026-04-02T08:42:47.197Z</time></trkpt><trkpt lat="45.4312433" lon="10.6999983"><ele>68.14285714285714</ele><time>2026-04-02T08:42:48.196Z</time></trkpt><trkpt lat="45.4312467" lon="10.700095"><ele>67.42857142857143</ele><time>2026-04-02T08:42:49.206Z</time></trkpt><trkpt lat="45.43125" lon="10.70019"><ele>66.71428571428571</ele><time>2026-04-02T08:42:50.196Z</time></trkpt><trkpt lat="45.4312517" lon="10.700285"><ele>66.0</ele><time>2026-04-02T08:42:51.196Z</time></trkpt><trkpt lat="45.4312567" lon="10.700375"><ele>66.0</ele><time>2026-04-02T08:42:52.199Z</time></trkpt><trkpt lat="45.4312717" lon="10.7005367"><ele>66.0</ele><time>2026-04-02T08:42:54.197Z</time></trkpt><trkpt lat="45.4312783" lon="10.7006267"><ele>66.0</ele><time>2026-04-02T08:42:55.198Z</time></trkpt><trkpt lat="45.4312867" lon="10.7007333"><ele>66.0</ele><time>2026-04-02T08:42:56.199Z</time></trkpt><trkpt lat="45.431295" lon="10.7008567"><ele>66.0</ele><time>2026-04-02T08:42:57.199Z</time></trkpt><trkpt lat="45.431295" lon="10.7009933"><ele>66.0</ele><time>2026-04-02T08:42:58.197Z</time></trkpt><trkpt lat="45.431305" lon="10.7011267"><ele>66.39999999999999</ele><time>2026-04-02T08:42:59.195Z</time></trkpt><trkpt lat="45.4313183" lon="10.7012533"><ele>66.8</ele><time>2026-04-02T08:43:00.198Z</time></trkpt><trkpt lat="45.43132" lon="10.7014167"><ele>67.19999999999999</ele><time>2026-04-02T08:43:01.197Z</time></trkpt><trkpt lat="45.4313317" lon="10.7015683"><ele>67.6</ele><time>2026-04-02T08:43:02.194Z</time></trkpt><trkpt lat="45.431345" lon="10.7017317"><ele>68.0</ele><time>2026-04-02T08:43:03.199Z</time></trkpt><trkpt lat="45.4313617" lon="10.7018983"><ele>68.25</ele><time>2026-04-02T08:43:04.197Z</time></trkpt><trkpt lat="45.4313733" lon="10.7020917"><ele>68.5</ele><time>2026-04-02T08:43:05.196Z</time></trkpt><trkpt lat="45.4313933" lon="10.7022683"><ele>68.75</ele><time>2026-04-02T08:43:06.196Z</time></trkpt><trkpt lat="45.4314317" lon="10.7024517"><ele>69.0</ele><time>2026-04-02T08:43:07.193Z</time></trkpt><trkpt lat="45.4314417" lon="10.702635"><ele>69.25</ele><time>2026-04-02T08:43:08.195Z</time></trkpt><trkpt lat="45.431445" lon="10.7028017"><ele>69.5</ele><time>2026-04-02T08:43:09.195Z</time></trkpt><trkpt lat="45.4314733" lon="10.70296"><ele>69.75</ele><time>2026-04-02T08:43:10.193Z</time></trkpt><trkpt lat="45.431475" lon="10.7031367"><ele>70.0</ele><time>2026-04-02T08:43:11.198Z</time></trkpt><trkpt lat="45.4314883" lon="10.7032883"><ele>70.0</ele><time>2026-04-02T08:43:12.199Z</time></trkpt><trkpt lat="45.431495" lon="10.70348"><ele>70.0</ele><time>2026-04-02T08:43:13.197Z</time></trkpt><trkpt lat="45.4315083" lon="10.70365"><ele>70.0</ele><time>2026-04-02T08:43:14.201Z</time></trkpt><trkpt lat="45.43154" lon="10.70384"><ele>70.0</ele><time>2026-04-02T08:43:15.199Z</time></trkpt><trkpt lat="45.4315717" lon="10.7040217"><ele>70.0</ele><time>2026-04-02T08:43:16.194Z</time></trkpt><trkpt lat="45.4316067" lon="10.704205"><ele>70.0</ele><time>2026-04-02T08:43:17.199Z</time></trkpt><trkpt lat="45.43164" lon="10.704385"><ele>70.0</ele><time>2026-04-02T08:43:18.205Z</time></trkpt><trkpt lat="45.431665" lon="10.7045633"><ele>70.0</ele><time>2026-04-02T08:43:19.202Z</time></trkpt><trkpt lat="45.4316967" lon="10.70473"><ele>69.8</ele><time>2026-04-02T08:43:20.197Z</time></trkpt><trkpt lat="45.43172" lon="10.704885"><ele>69.6</ele><time>2026-04-02T08:43:21.201Z</time></trkpt><trkpt lat="45.4317333" lon="10.7050417"><ele>69.4</ele><time>2026-04-02T08:43:22.206Z</time></trkpt><trkpt lat="45.431715" lon="10.7051817"><ele>69.2</ele><time>2026-04-02T08:43:23.199Z</time></trkpt><trkpt lat="45.4316983" lon="10.7053183"><ele>69.0</ele><time>2026-04-02T08:43:24.202Z</time></trkpt><trkpt lat="45.4316783" lon="10.7054417"><ele>69.0</ele><time>2026-04-02T08:43:25.193Z</time></trkpt><trkpt lat="45.43165" lon="10.7055483"><ele>69.0</ele><time>2026-04-02T08:43:26.215Z</time></trkpt><trkpt lat="45.431605" lon="10.7056183"><ele>69.0</ele><time>2026-04-02T08:43:27.195Z</time></trkpt><trkpt lat="45.43155" lon="10.7056817"><ele>69.0</ele><time>2026-04-02T08:43:28.194Z</time></trkpt><trkpt lat="45.4314883" lon="10.70576"><ele>69.0</ele><time>2026-04-02T08:43:29.196Z</time></trkpt><trkpt lat="45.4314167" lon="10.7058567"><ele>69.0</ele><time>2026-04-02T08:43:30.198Z</time></trkpt><trkpt lat="45.43134" lon="10.7060067"><ele>70.0</ele><time>2026-04-02T08:43:31.201Z</time></trkpt><trkpt lat="45.4312867" lon="10.70616"><ele>71.0</ele><time>2026-04-02T08:43:32.206Z</time></trkpt><trkpt lat="45.4312283" lon="10.7062983"><ele>72.0</ele><time>2026-04-02T08:43:33.195Z</time></trkpt><trkpt lat="45.4311967" lon="10.7064267"><ele>73.0</ele><time>2026-04-02T08:43:34.201Z</time></trkpt><trkpt lat="45.431175" lon="10.7065917"><ele>74.0</ele><time>2026-04-02T08:43:35.201Z</time></trkpt><trkpt lat="45.4311833" lon="10.7067683"><ele>74.0</ele><time>2026-04-02T08:43:36.203Z</time></trkpt><trkpt lat="45.4312033" lon="10.706945"><ele>74.0</ele><time>2026-04-02T08:43:37.199Z</time></trkpt><trkpt lat="45.4312783" lon="10.7070517"><ele>74.0</ele><time>2026-04-02T08:43:38.204Z</time></trkpt><trkpt lat="45.4313517" lon="10.7072017"><ele>74.0</ele><time>2026-04-02T08:43:39.202Z</time></trkpt><trkpt lat="45.43144" lon="10.7073233"><ele>74.0</ele><time>2026-04-02T08:43:40.198Z</time></trkpt><trkpt lat="45.43158" lon="10.70737"><ele>74.0</ele><time>2026-04-02T08:43:41.195Z</time></trkpt><trkpt lat="45.4317" lon="10.7073333"><ele>74.0</ele><time>2026-04-02T08:43:42.195Z</time></trkpt><trkpt lat="45.4318533" lon="10.70735"><ele>74.0</ele><time>2026-04-02T08:43:44.198Z</time></trkpt><trkpt lat="45.43196" lon="10.707315"><ele>74.0</ele><time>2026-04-02T08:43:45.196Z</time></trkpt><trkpt lat="45.4320483" lon="10.707275"><ele>74.0</ele><time>2026-04-02T08:43:46.198Z</time></trkpt><trkpt lat="45.4321533" lon="10.7072367"><ele>74.0</ele><time>2026-04-02T08:43:47.197Z</time></trkpt><trkpt lat="45.4322667" lon="10.70721"><ele>74.0</ele><time>2026-04-02T08:43:48.196Z</time></trkpt><trkpt lat="45.432385" lon="10.7072483"><ele>74.0</ele><time>2026-04-02T08:43:49.202Z</time></trkpt><trkpt lat="45.432495" lon="10.7073333"><ele>73.25</ele><time>2026-04-02T08:43:50.196Z</time></trkpt><trkpt lat="45.432605" lon="10.7074717"><ele>72.5</ele><time>2026-04-02T08:43:51.206Z</time></trkpt><trkpt lat="45.432705" lon="10.7076133"><ele>71.75</ele><time>2026-04-02T08:43:52.201Z</time></trkpt><trkpt lat="45.432825" lon="10.707715"><ele>71.0</ele><time>2026-04-02T08:43:53.196Z</time></trkpt><trkpt lat="45.4329217" lon="10.7078567"><ele>71.0</ele><time>2026-04-02T08:43:54.199Z</time></trkpt><trkpt lat="45.4330267" lon="10.7079817"><ele>71.0</ele><time>2026-04-02T08:43:55.207Z</time></trkpt><trkpt lat="45.4331483" lon="10.708105"><ele>71.0</ele><time>2026-04-02T08:43:56.202Z</time></trkpt><trkpt lat="45.4332717" lon="10.708225"><ele>71.0</ele><time>2026-04-02T08:43:57.199Z</time></trkpt><trkpt lat="45.433385" lon="10.7083583"><ele>71.0</ele><time>2026-04-02T08:43:58.193Z</time></trkpt><trkpt lat="45.4335117" lon="10.708475"><ele>71.0</ele><time>2026-04-02T08:43:59.205Z</time></trkpt><trkpt lat="45.4336267" lon="10.7086133"><ele>71.0</ele><time>2026-04-02T08:44:00.198Z</time></trkpt><trkpt lat="45.4337683" lon="10.7087017"><ele>71.25</ele><time>2026-04-02T08:44:01.196Z</time></trkpt><trkpt lat="45.4338967" lon="10.708805"><ele>71.5</ele><time>2026-04-02T08:44:02.193Z</time></trkpt><trkpt lat="45.4340067" lon="10.7089133"><ele>71.75</ele><time>2026-04-02T08:44:03.222Z</time></trkpt><trkpt lat="45.43409" lon="10.7090217"><ele>72.0</ele><time>2026-04-02T08:44:04.202Z</time></trkpt><trkpt lat="45.4341667" lon="10.7091167"><ele>72.0</ele><time>2026-04-02T08:44:05.202Z</time></trkpt><trkpt lat="45.434225" lon="10.70922"><ele>72.0</ele><time>2026-04-02T08:44:06.204Z</time></trkpt><trkpt lat="45.4342817" lon="10.7092917"><ele>72.0</ele><time>2026-04-02T08:44:07.196Z</time></trkpt><trkpt lat="45.43436" lon="10.7093433"><ele>72.0</ele><time>2026-04-02T08:44:08.197Z</time></trkpt><trkpt lat="45.434435" lon="10.7093783"><ele>72.0</ele><time>2026-04-02T08:44:09.195Z</time></trkpt><trkpt lat="45.4345133" lon="10.7093933"><ele>72.0</ele><time>2026-04-02T08:44:10.204Z</time></trkpt><trkpt lat="45.4345833" lon="10.7094267"><ele>72.33333333333333</ele><time>2026-04-02T08:44:11.2Z</time></trkpt><trkpt lat="45.4346583" lon="10.7094533"><ele>72.66666666666667</ele><time>2026-04-02T08:44:12.203Z</time></trkpt><trkpt lat="45.4347417" lon="10.7094767"><ele>73.0</ele><time>2026-04-02T08:44:13.198Z</time></trkpt><trkpt lat="45.43483" lon="10.709515"><ele>73.33333333333334</ele><time>2026-04-02T08:44:14.193Z</time></trkpt><trkpt lat="45.4349317" lon="10.7095333"><ele>73.66666666666667</ele><time>2026-04-02T08:44:15.202Z</time></trkpt><trkpt lat="45.43501" lon="10.709575"><ele>74.0</ele><time>2026-04-02T08:44:16.2Z</time></trkpt><trkpt lat="45.4351033" lon="10.70961"><ele>74.0</ele><time>2026-04-02T08:44:17.199Z</time></trkpt><trkpt lat="45.4352017" lon="10.70966"><ele>74.0</ele><time>2026-04-02T08:44:18.197Z</time></trkpt><trkpt lat="45.4353" lon="10.70971"><ele>74.0</ele><time>2026-04-02T08:44:19.2Z</time></trkpt><trkpt lat="45.4354183" lon="10.7097217"><ele>74.0</ele><time>2026-04-02T08:44:20.196Z</time></trkpt><trkpt lat="45.4355167" lon="10.7097933"><ele>74.0</ele><time>2026-04-02T08:44:21.194Z</time></trkpt><trkpt lat="45.435615" lon="10.70986"><ele>73.75</ele><time>2026-04-02T08:44:22.2Z</time></trkpt><trkpt lat="45.4357317" lon="10.70992"><ele>73.5</ele><time>2026-04-02T08:44:23.199Z</time></trkpt><trkpt lat="45.435845" lon="10.7099733"><ele>73.25</ele><time>2026-04-02T08:44:24.204Z</time></trkpt><trkpt lat="45.4359517" lon="10.7100517"><ele>73.0</ele><time>2026-04-02T08:44:25.195Z</time></trkpt><trkpt lat="45.4360483" lon="10.71011"><ele>73.0</ele><time>2026-04-02T08:44:26.198Z</time></trkpt><trkpt lat="45.43613" lon="10.710175"><ele>73.0</ele><time>2026-04-02T08:44:27.203Z</time></trkpt><trkpt lat="45.4362233" lon="10.7102383"><ele>73.0</ele><time>2026-04-02T08:44:28.205Z</time></trkpt><trkpt lat="45.43633" lon="10.710285"><ele>73.0</ele><time>2026-04-02T08:44:29.194Z</time></trkpt><trkpt lat="45.43644" lon="10.71036"><ele>73.0</ele><time>2026-04-02T08:44:30.208Z</time></trkpt><trkpt lat="45.436565" lon="10.7103933"><ele>73.25</ele><time>2026-04-02T08:44:31.215Z</time></trkpt><trkpt lat="45.4366883" lon="10.7104267"><ele>73.5</ele><time>2026-04-02T08:44:32.198Z</time></trkpt><trkpt lat="45.43678" lon="10.7104967"><ele>73.75</ele><time>2026-04-02T08:44:33.197Z</time></trkpt><trkpt lat="45.43688" lon="10.7105617"><ele>74.0</ele><time>2026-04-02T08:44:34.202Z</time></trkpt><trkpt lat="45.4369883" lon="10.710635"><ele>74.0</ele><time>2026-04-02T08:44:35.196Z</time></trkpt><trkpt lat="45.4371" lon="10.710715"><ele>74.0</ele><time>2026-04-02T08:44:36.209Z</time></trkpt><trkpt lat="45.43722" lon="10.7108"><ele>74.0</ele><time>2026-04-02T08:44:37.209Z</time></trkpt><trkpt lat="45.43735" lon="10.7109217"><ele>74.0</ele><time>2026-04-02T08:44:38.201Z</time></trkpt><trkpt lat="45.437495" lon="10.711055"><ele>73.33333333333334</ele><time>2026-04-02T08:44:39.198Z</time></trkpt><trkpt lat="45.4376417" lon="10.7111983"><ele>72.66666666666667</ele><time>2026-04-02T08:44:40.199Z</time></trkpt><trkpt lat="45.4377883" lon="10.7113583"><ele>72.0</ele><time>2026-04-02T08:44:41.2Z</time></trkpt><trkpt lat="45.4379267" lon="10.7115383"><ele>72.33333333333333</ele><time>2026-04-02T08:44:42.202Z</time></trkpt><trkpt lat="45.4380467" lon="10.7117133"><ele>72.66666666666666</ele><time>2026-04-02T08:44:43.201Z</time></trkpt><trkpt lat="45.4381483" lon="10.711885"><ele>73.0</ele><time>2026-04-02T08:44:44.205Z</time></trkpt><trkpt lat="45.4382333" lon="10.712055"><ele>74.2</ele><time>2026-04-02T08:44:45.197Z</time></trkpt><trkpt lat="45.4383033" lon="10.7122317"><ele>75.4</ele><time>2026-04-02T08:44:46.203Z</time></trkpt><trkpt lat="45.43834" lon="10.7123667"><ele>76.60000000000001</ele><time>2026-04-02T08:44:47.2Z</time></trkpt><trkpt lat="45.438355" lon="10.7124967"><ele>77.8</ele><time>2026-04-02T08:44:48.185Z</time></trkpt><trkpt lat="45.4383883" lon="10.7125883"><ele>79.0</ele><time>2026-04-02T08:44:49.204Z</time></trkpt><trkpt lat="45.4384" lon="10.71274"><ele>80.0</ele><time>2026-04-02T08:44:51.194Z</time></trkpt><trkpt lat="45.43841" lon="10.71283"><ele>81.0</ele><time>2026-04-02T08:44:52.197Z</time></trkpt><trkpt lat="45.4384333" lon="10.7129317"><ele>82.0</ele><time>2026-04-02T08:44:53.199Z</time></trkpt><trkpt lat="45.438475" lon="10.7130233"><ele>83.0</ele><time>2026-04-02T08:44:54.197Z</time></trkpt><trkpt lat="45.4385583" lon="10.7130767"><ele>84.0</ele><time>2026-04-02T08:44:55.201Z</time></trkpt><trkpt lat="45.4386583" lon="10.7130733"><ele>85.0</ele><time>2026-04-02T08:44:56.207Z</time></trkpt><trkpt lat="45.438735" lon="10.7130367"><ele>85.0</ele><time>2026-04-02T08:44:57.206Z</time></trkpt><trkpt lat="45.438795" lon="10.712925"><ele>85.0</ele><time>2026-04-02T08:44:58.201Z</time></trkpt><trkpt lat="45.4388567" lon="10.7127683"><ele>85.0</ele><time>2026-04-02T08:44:59.2Z</time></trkpt><trkpt lat="45.4388883" lon="10.712565"><ele>85.0</ele><time>2026-04-02T08:45:00.213Z</time></trkpt><trkpt lat="45.4389183" lon="10.712385"><ele>84.0</ele><time>2026-04-02T08:45:01.201Z</time></trkpt><trkpt lat="45.4389817" lon="10.712235"><ele>83.0</ele><time>2026-04-02T08:45:02.201Z</time></trkpt><trkpt lat="45.4390583" lon="10.71213"><ele>82.0</ele><time>2026-04-02T08:45:03.2Z</time></trkpt><trkpt lat="45.4391117" lon="10.7120683"><ele>81.0</ele><time>2026-04-02T08:45:04.206Z</time></trkpt><trkpt lat="45.4391617" lon="10.7120117"><ele>80.0</ele><time>2026-04-02T08:45:05.199Z</time></trkpt><trkpt lat="45.439215" lon="10.7119133"><ele>79.0</ele><time>2026-04-02T08:45:06.198Z</time></trkpt><trkpt lat="45.4392683" lon="10.7118367"><ele>79.4</ele><time>2026-04-02T08:45:07.198Z</time></trkpt><trkpt lat="45.4393383" lon="10.711745"><ele>79.80000000000001</ele><time>2026-04-02T08:45:08.195Z</time></trkpt><trkpt lat="45.439415" lon="10.7116517"><ele>80.19999999999999</ele><time>2026-04-02T08:45:09.195Z</time></trkpt><trkpt lat="45.4395033" lon="10.7115533"><ele>80.6</ele><time>2026-04-02T08:45:10.195Z</time></trkpt><trkpt lat="45.4395983" lon="10.7114667"><ele>81.0</ele><time>2026-04-02T08:45:11.197Z</time></trkpt><trkpt lat="45.43969" lon="10.7113533"><ele>81.0</ele><time>2026-04-02T08:45:12.196Z</time></trkpt><trkpt lat="45.43978" lon="10.711245"><ele>81.0</ele><time>2026-04-02T08:45:13.197Z</time></trkpt><trkpt lat="45.43987" lon="10.7111183"><ele>81.0</ele><time>2026-04-02T08:45:14.198Z</time></trkpt><trkpt lat="45.439955" lon="10.7109933"><ele>81.0</ele><time>2026-04-02T08:45:15.196Z</time></trkpt><trkpt lat="45.4400417" lon="10.7108667"><ele>79.75</ele><time>2026-04-02T08:45:16.198Z</time></trkpt><trkpt lat="45.4401233" lon="10.7107467"><ele>78.5</ele><time>2026-04-02T08:45:17.201Z</time></trkpt><trkpt lat="45.4401983" lon="10.7106083"><ele>77.25</ele><time>2026-04-02T08:45:18.199Z</time></trkpt><trkpt lat="45.4402783" lon="10.7104683"><ele>76.0</ele><time>2026-04-02T08:45:19.202Z</time></trkpt><trkpt lat="45.4403583" lon="10.710335"><ele>76.25</ele><time>2026-04-02T08:45:20.199Z</time></trkpt><trkpt lat="45.4404417" lon="10.710195"><ele>76.5</ele><time>2026-04-02T08:45:21.196Z</time></trkpt><trkpt lat="45.4405233" lon="10.7100583"><ele>76.75</ele><time>2026-04-02T08:45:22.202Z</time></trkpt><trkpt lat="45.4406" lon="10.70992"><ele>77.0</ele><time>2026-04-02T08:45:23.203Z</time></trkpt><trkpt lat="45.440675" lon="10.7097967"><ele>77.0</ele><time>2026-04-02T08:45:24.196Z</time></trkpt><trkpt lat="45.440755" lon="10.7096617"><ele>77.0</ele><time>2026-04-02T08:45:25.202Z</time></trkpt><trkpt lat="45.44082" lon="10.7095533"><ele>77.0</ele><time>2026-04-02T08:45:26.199Z</time></trkpt><trkpt lat="45.4409117" lon="10.7094133"><ele>77.0</ele><time>2026-04-02T08:45:27.202Z</time></trkpt><trkpt lat="45.441005" lon="10.7092617"><ele>76.5</ele><time>2026-04-02T08:45:28.194Z</time></trkpt><trkpt lat="45.44108" lon="10.7091367"><ele>76.0</ele><time>2026-04-02T08:45:29.196Z</time></trkpt><trkpt lat="45.44115" lon="10.70903"><ele>75.5</ele><time>2026-04-02T08:45:30.198Z</time></trkpt><trkpt lat="45.4412433" lon="10.708885"><ele>75.0</ele><time>2026-04-02T08:45:31.196Z</time></trkpt><trkpt lat="45.4413433" lon="10.7087717"><ele>75.5</ele><time>2026-04-02T08:45:32.197Z</time></trkpt><trkpt lat="45.4414417" lon="10.70866"><ele>76.0</ele><time>2026-04-02T08:45:33.195Z</time></trkpt><trkpt lat="45.4415417" lon="10.7085783"><ele>76.5</ele><time>2026-04-02T08:45:34.211Z</time></trkpt><trkpt lat="45.4416467" lon="10.70849"><ele>77.0</ele><time>2026-04-02T08:45:35.203Z</time></trkpt><trkpt lat="45.441755" lon="10.7084167"><ele>77.0</ele><time>2026-04-02T08:45:36.196Z</time></trkpt><trkpt lat="45.4418567" lon="10.7083617"><ele>77.0</ele><time>2026-04-02T08:45:37.194Z</time></trkpt><trkpt lat="45.44193" lon="10.7082867"><ele>77.0</ele><time>2026-04-02T08:45:38.205Z</time></trkpt><trkpt lat="45.4420067" lon="10.708145"><ele>77.0</ele><time>2026-04-02T08:45:39.205Z</time></trkpt><trkpt lat="45.442035" lon="10.7079717"><ele>77.0</ele><time>2026-04-02T08:45:40.2Z</time></trkpt><trkpt lat="45.4420917" lon="10.7077767"><ele>78.0</ele><time>2026-04-02T08:45:41.198Z</time></trkpt><trkpt lat="45.442135" lon="10.7076167"><ele>79.0</ele><time>2026-04-02T08:45:42.204Z</time></trkpt><trkpt lat="45.44216" lon="10.7074583"><ele>80.0</ele><time>2026-04-02T08:45:43.195Z</time></trkpt><trkpt lat="45.4421817" lon="10.7072833"><ele>81.0</ele><time>2026-04-02T08:45:44.2Z</time></trkpt><trkpt lat="45.4422" lon="10.7071083"><ele>81.0</ele><time>2026-04-02T08:45:45.198Z</time></trkpt><trkpt lat="45.442215" lon="10.7069417"><ele>81.0</ele><time>2026-04-02T08:45:46.198Z</time></trkpt><trkpt lat="45.4422083" lon="10.70677"><ele>81.0</ele><time>2026-04-02T08:45:47.198Z</time></trkpt><trkpt lat="45.4422" lon="10.7066183"><ele>81.0</ele><time>2026-04-02T08:45:48.196Z</time></trkpt><trkpt lat="45.4422033" lon="10.7064783"><ele>81.0</ele><time>2026-04-02T08:45:49.194Z</time></trkpt><trkpt lat="45.44228" lon="10.70631"><ele>81.19999999999999</ele><time>2026-04-02T08:45:50.201Z</time></trkpt><trkpt lat="45.442265" lon="10.7061367"><ele>81.39999999999999</ele><time>2026-04-02T08:45:51.201Z</time></trkpt><trkpt lat="45.442235" lon="10.705995"><ele>81.6</ele><time>2026-04-02T08:45:52.196Z</time></trkpt><trkpt lat="45.44221" lon="10.7058733"><ele>81.8</ele><time>2026-04-02T08:45:53.199Z</time></trkpt><trkpt lat="45.4421867" lon="10.705765"><ele>82.0</ele><time>2026-04-02T08:45:54.204Z</time></trkpt><trkpt lat="45.44218" lon="10.7056583"><ele>81.5</ele><time>2026-04-02T08:45:55.202Z</time></trkpt><trkpt lat="45.4421683" lon="10.7055567"><ele>81.0</ele><time>2026-04-02T08:45:56.193Z</time></trkpt><trkpt lat="45.442155" lon="10.70546"><ele>80.5</ele><time>2026-04-02T08:45:57.201Z</time></trkpt><trkpt lat="45.442135" lon="10.7053583"><ele>80.0</ele><time>2026-04-02T08:45:58.203Z</time></trkpt><trkpt lat="45.44212" lon="10.7052433"><ele>79.5</ele><time>2026-04-02T08:45:59.199Z</time></trkpt><trkpt lat="45.4421" lon="10.70513"><ele>79.0</ele><time>2026-04-02T08:46:00.194Z</time></trkpt><trkpt lat="45.4420817" lon="10.7050233"><ele>77.83333333333333</ele><time>2026-04-02T08:46:01.195Z</time></trkpt><trkpt lat="45.4420717" lon="10.7049267"><ele>76.66666666666666</ele><time>2026-04-02T08:46:02.194Z</time></trkpt><trkpt lat="45.4420567" lon="10.7047883"><ele>75.5</ele><time>2026-04-02T08:46:04.196Z</time></trkpt><trkpt lat="45.4420467" lon="10.704695"><ele>74.33333333333333</ele><time>2026-04-02T08:46:06.196Z</time></trkpt><trkpt lat="45.4420367" lon="10.7045317"><ele>73.16666666666667</ele><time>2026-04-02T08:46:08.203Z</time></trkpt><trkpt lat="45.442035" lon="10.7044167"><ele>72.0</ele><time>2026-04-02T08:46:09.202Z</time></trkpt><trkpt lat="45.4420333" lon="10.7042933"><ele>72.2</ele><time>2026-04-02T08:46:10.196Z</time></trkpt><trkpt lat="45.442035" lon="10.7041683"><ele>72.4</ele><time>2026-04-02T08:46:11.197Z</time></trkpt><trkpt lat="45.4420517" lon="10.70406"><ele>72.6</ele><time>2026-04-02T08:46:12.199Z</time></trkpt><trkpt lat="45.442105" lon="10.7039233"><ele>72.8</ele><time>2026-04-02T08:46:14.201Z</time></trkpt><trkpt lat="45.4421767" lon="10.7038133"><ele>73.0</ele><time>2026-04-02T08:46:16.201Z</time></trkpt><trkpt lat="45.442275" lon="10.7037133"><ele>73.0</ele><time>2026-04-02T08:46:18.193Z</time></trkpt><trkpt lat="45.4423717" lon="10.7036483"><ele>73.0</ele><time>2026-04-02T08:46:20.197Z</time></trkpt><trkpt lat="45.442485" lon="10.7036067"><ele>73.0</ele><time>2026-04-02T08:46:22.2Z</time></trkpt><trkpt lat="45.4425933" lon="10.70354"><ele>73.0</ele><time>2026-04-02T08:46:24.198Z</time></trkpt><trkpt lat="45.4426417" lon="10.7034583"><ele>73.0</ele><time>2026-04-02T08:46:26.193Z</time></trkpt><trkpt lat="45.4426417" lon="10.7033417"><ele>72.83333333333333</ele><time>2026-04-02T08:46:28.195Z</time></trkpt><trkpt lat="45.44259" lon="10.70316"><ele>72.66666666666666</ele><time>2026-04-02T08:46:30.205Z</time></trkpt><trkpt lat="45.4425517" lon="10.70306"><ele>72.5</ele><time>2026-04-02T08:46:31.202Z</time></trkpt><trkpt lat="45.4425183" lon="10.7029617"><ele>72.33333333333333</ele><time>2026-04-02T08:46:32.197Z</time></trkpt><trkpt lat="45.4424883" lon="10.702865"><ele>72.16666666666667</ele><time>2026-04-02T08:46:33.2Z</time></trkpt><trkpt lat="45.44245" lon="10.702765"><ele>72.0</ele><time>2026-04-02T08:46:34.196Z</time></trkpt><trkpt lat="45.4424117" lon="10.7026617"><ele>71.8</ele><time>2026-04-02T08:46:35.206Z</time></trkpt><trkpt lat="45.44237" lon="10.7025583"><ele>71.6</ele><time>2026-04-02T08:46:36.199Z</time></trkpt><trkpt lat="45.4423267" lon="10.702445"><ele>71.39999999999999</ele><time>2026-04-02T08:46:37.195Z</time></trkpt><trkpt lat="45.4422717" lon="10.702335"><ele>71.2</ele><time>2026-04-02T08:46:38.201Z</time></trkpt><trkpt lat="45.4422067" lon="10.702225"><ele>71.0</ele><time>2026-04-02T08:46:39.195Z</time></trkpt><trkpt lat="45.44213" lon="10.7021083"><ele>70.83333333333334</ele><time>2026-04-02T08:46:40.196Z</time></trkpt><trkpt lat="45.442065" lon="10.702015"><ele>70.66666666666667</ele><time>2026-04-02T08:46:41.198Z</time></trkpt><trkpt lat="45.4420033" lon="10.7019517"><ele>70.5</ele><time>2026-04-02T08:46:42.201Z</time></trkpt><trkpt lat="45.4419233" lon="10.7018783"><ele>70.33333333333333</ele><time>2026-04-02T08:46:44.208Z</time></trkpt><trkpt lat="45.4418533" lon="10.70192"><ele>70.16666666666666</ele><time>2026-04-02T08:46:48.194Z</time></trkpt><trkpt lat="45.4418367" lon="10.7020317"><ele>70.0</ele><time>2026-04-02T08:46:50.201Z</time></trkpt><trkpt lat="45.44184" lon="10.70219"><ele>70.0</ele><time>2026-04-02T08:46:52.203Z</time></trkpt><trkpt lat="45.4418483" lon="10.7022817"><ele>70.0</ele><time>2026-04-02T08:46:53.206Z</time></trkpt><trkpt lat="45.44186" lon="10.7023833"><ele>70.0</ele><time>2026-04-02T08:46:54.193Z</time></trkpt><trkpt lat="45.4418833" lon="10.7025883"><ele>70.0</ele><time>2026-04-02T08:46:56.2Z</time></trkpt><trkpt lat="45.441895" lon="10.7026933"><ele>70.0</ele><time>2026-04-02T08:46:57.205Z</time></trkpt><trkpt lat="45.441895" lon="10.702805"><ele>70.0</ele><time>2026-04-02T08:46:58.197Z</time></trkpt><trkpt lat="45.4419067" lon="10.7029167"><ele>70.0</ele><time>2026-04-02T08:46:59.198Z</time></trkpt><trkpt lat="45.4419183" lon="10.7030267"><ele>70.0</ele><time>2026-04-02T08:47:00.199Z</time></trkpt><trkpt lat="45.4419283" lon="10.703135"><ele>70.0</ele><time>2026-04-02T08:47:01.194Z</time></trkpt><trkpt lat="45.441935" lon="10.703245"><ele>70.0</ele><time>2026-04-02T08:47:02.194Z</time></trkpt><trkpt lat="45.4419467" lon="10.7033617"><ele>70.0</ele><time>2026-04-02T08:47:03.194Z</time></trkpt><trkpt lat="45.44196" lon="10.703485"><ele>70.0</ele><time>2026-04-02T08:47:04.2Z</time></trkpt><trkpt lat="45.44197" lon="10.7036017"><ele>69.83333333333333</ele><time>2026-04-02T08:47:05.195Z</time></trkpt><trkpt lat="45.441985" lon="10.7037183"><ele>69.66666666666666</ele><time>2026-04-02T08:47:06.197Z</time></trkpt><trkpt lat="45.4420117" lon="10.703805"><ele>69.5</ele><time>2026-04-02T08:47:07.199Z</time></trkpt><trkpt lat="45.4421" lon="10.70384"><ele>69.33333333333333</ele><time>2026-04-02T08:47:09.196Z</time></trkpt><trkpt lat="45.4421667" lon="10.7038117"><ele>69.16666666666667</ele><time>2026-04-02T08:47:10.194Z</time></trkpt><trkpt lat="45.44224" lon="10.7037633"><ele>69.0</ele><time>2026-04-02T08:47:11.199Z</time></trkpt><trkpt lat="45.4423183" lon="10.703715"><ele>69.60000000000001</ele><time>2026-04-02T08:47:12.198Z</time></trkpt><trkpt lat="45.4423983" lon="10.70367"><ele>70.2</ele><time>2026-04-02T08:47:13.203Z</time></trkpt><trkpt lat="45.4424683" lon="10.7036283"><ele>70.80000000000001</ele><time>2026-04-02T08:47:14.193Z</time></trkpt><trkpt lat="45.44255" lon="10.7035433"><ele>71.4</ele><time>2026-04-02T08:47:16.195Z</time></trkpt><trkpt lat="45.4425517" lon="10.7033883"><ele>72.0</ele><time>2026-04-02T08:47:21.195Z</time></trkpt><trkpt lat="45.44251" lon="10.7032733"><ele>72.0</ele><time>2026-04-02T08:47:23.202Z</time></trkpt><trkpt lat="45.4424567" lon="10.7031183"><ele>72.0</ele><time>2026-04-02T08:47:25.196Z</time></trkpt><trkpt lat="45.4424233" lon="10.703025"><ele>72.0</ele><time>2026-04-02T08:47:26.195Z</time></trkpt><trkpt lat="45.4423883" lon="10.702925"><ele>72.0</ele><time>2026-04-02T08:47:27.195Z</time></trkpt><trkpt lat="45.4423567" lon="10.70282"><ele>72.0</ele><time>2026-04-02T08:47:28.204Z</time></trkpt><trkpt lat="45.4423217" lon="10.7027067"><ele>72.0</ele><time>2026-04-02T08:47:29.199Z</time></trkpt><trkpt lat="45.4422817" lon="10.7025983"><ele>71.8</ele><time>2026-04-02T08:47:30.2Z</time></trkpt><trkpt lat="45.4422367" lon="10.70249"><ele>71.6</ele><time>2026-04-02T08:47:31.195Z</time></trkpt><trkpt lat="45.442185" lon="10.702375"><ele>71.39999999999999</ele><time>2026-04-02T08:47:32.202Z</time></trkpt><trkpt lat="45.44211" lon="10.7022733"><ele>71.2</ele><time>2026-04-02T08:47:33.199Z</time></trkpt><trkpt lat="45.4420517" lon="10.7021267"><ele>71.0</ele><time>2026-04-02T08:47:34.194Z</time></trkpt><trkpt lat="45.4419733" lon="10.7019917"><ele>70.83333333333334</ele><time>2026-04-02T08:47:35.202Z</time></trkpt><trkpt lat="45.4418967" lon="10.7018667"><ele>70.66666666666667</ele><time>2026-04-02T08:47:36.198Z</time></trkpt><trkpt lat="45.4418417" lon="10.7017733"><ele>70.5</ele><time>2026-04-02T08:47:37.198Z</time></trkpt><trkpt lat="45.4417783" lon="10.7016833"><ele>70.33333333333333</ele><time>2026-04-02T08:47:38.202Z</time></trkpt><trkpt lat="45.441715" lon="10.70161"><ele>70.16666666666666</ele><time>2026-04-02T08:47:39.196Z</time></trkpt><trkpt lat="45.4416617" lon="10.7015333"><ele>70.0</ele><time>2026-04-02T08:47:40.198Z</time></trkpt><trkpt lat="45.4416067" lon="10.7014667"><ele>70.0</ele><time>2026-04-02T08:47:41.195Z</time></trkpt><trkpt lat="45.4415517" lon="10.7014033"><ele>70.0</ele><time>2026-04-02T08:47:42.198Z</time></trkpt><trkpt lat="45.4414917" lon="10.7013417"><ele>70.0</ele><time>2026-04-02T08:47:43.196Z</time></trkpt><trkpt lat="45.44143" lon="10.70128"><ele>70.0</ele><time>2026-04-02T08:47:44.198Z</time></trkpt><trkpt lat="45.4413767" lon="10.7012217"><ele>70.0</ele><time>2026-04-02T08:47:45.202Z</time></trkpt><trkpt lat="45.4413267" lon="10.7011667"><ele>70.0</ele><time>2026-04-02T08:47:46.202Z</time></trkpt><trkpt lat="45.441225" lon="10.701055"><ele>70.16666666666666</ele><time>2026-04-02T08:47:48.201Z</time></trkpt><trkpt lat="45.441135" lon="10.7009467"><ele>70.33333333333333</ele><time>2026-04-02T08:47:50.201Z</time></trkpt><trkpt lat="45.4410517" lon="10.7008333"><ele>70.5</ele><time>2026-04-02T08:47:52.195Z</time></trkpt><trkpt lat="45.4410033" lon="10.7007733"><ele>70.66666666666667</ele><time>2026-04-02T08:47:53.196Z</time></trkpt><trkpt lat="45.44095" lon="10.7007167"><ele>70.83333333333334</ele><time>2026-04-02T08:47:54.194Z</time></trkpt><trkpt lat="45.4408983" lon="10.7006583"><ele>71.0</ele><time>2026-04-02T08:47:55.202Z</time></trkpt><trkpt lat="45.4407983" lon="10.7005617"><ele>71.0</ele><time>2026-04-02T08:47:57.196Z</time></trkpt><trkpt lat="45.4407" lon="10.7004767"><ele>71.0</ele><time>2026-04-02T08:47:59.2Z</time></trkpt><trkpt lat="45.4406083" lon="10.700375"><ele>71.0</ele><time>2026-04-02T08:48:01.198Z</time></trkpt><trkpt lat="45.44053" lon="10.7002767"><ele>71.0</ele><time>2026-04-02T08:48:03.2Z</time></trkpt><trkpt lat="45.440455" lon="10.7001717"><ele>71.0</ele><time>2026-04-02T08:48:05.194Z</time></trkpt><trkpt lat="45.4403667" lon="10.700035"><ele>70.66666666666667</ele><time>2026-04-02T08:48:07.208Z</time></trkpt><trkpt lat="45.4403217" lon="10.6999417"><ele>70.33333333333334</ele><time>2026-04-02T08:48:08.193Z</time></trkpt><trkpt lat="45.44028" lon="10.6998467"><ele>70.0</ele><time>2026-04-02T08:48:09.196Z</time></trkpt><trkpt lat="45.44026" lon="10.6997567"><ele>69.66666666666667</ele><time>2026-04-02T08:48:10.195Z</time></trkpt><trkpt lat="45.4402483" lon="10.6996633"><ele>69.33333333333333</ele><time>2026-04-02T08:48:11.198Z</time></trkpt><trkpt lat="45.4402517" lon="10.69957"><ele>69.0</ele><time>2026-04-02T08:48:12.198Z</time></trkpt><trkpt lat="45.4402633" lon="10.6994183"><ele>68.2</ele><time>2026-04-02T08:48:14.195Z</time></trkpt><trkpt lat="45.4403033" lon="10.6992367"><ele>67.4</ele><time>2026-04-02T08:48:16.202Z</time></trkpt><trkpt lat="45.4403283" lon="10.6991383"><ele>66.6</ele><time>2026-04-02T08:48:17.196Z</time></trkpt><trkpt lat="45.4403517" lon="10.6990417"><ele>65.8</ele><time>2026-04-02T08:48:18.195Z</time></trkpt><trkpt lat="45.440355" lon="10.6989"><ele>65.0</ele><time>2026-04-02T08:48:20.193Z</time></trkpt><trkpt lat="45.440295" lon="10.6988167"><ele>65.0</ele><time>2026-04-02T08:48:23.2Z</time></trkpt><trkpt lat="45.4402083" lon="10.6987767"><ele>65.0</ele><time>2026-04-02T08:48:25.196Z</time></trkpt><trkpt lat="45.4400833" lon="10.69881"><ele>65.0</ele><time>2026-04-02T08:48:27.198Z</time></trkpt><trkpt lat="45.440005" lon="10.69884"><ele>65.0</ele><time>2026-04-02T08:48:28.198Z</time></trkpt><trkpt lat="45.4399117" lon="10.6988683"><ele>65.0</ele><time>2026-04-02T08:48:29.198Z</time></trkpt><trkpt lat="45.4398167" lon="10.69889"><ele>65.0</ele><time>2026-04-02T08:48:30.195Z</time></trkpt><trkpt lat="45.4397067" lon="10.6989083"><ele>65.0</ele><time>2026-04-02T08:48:31.207Z</time></trkpt><trkpt lat="45.439585" lon="10.6989133"><ele>65.0</ele><time>2026-04-02T08:48:32.197Z</time></trkpt><trkpt lat="45.4394833" lon="10.69891"><ele>65.0</ele><time>2026-04-02T08:48:33.195Z</time></trkpt><trkpt lat="45.43936" lon="10.6989117"><ele>65.25</ele><time>2026-04-02T08:48:34.196Z</time></trkpt><trkpt lat="45.439215" lon="10.698915"><ele>65.5</ele><time>2026-04-02T08:48:35.197Z</time></trkpt><trkpt lat="45.4391017" lon="10.698945"><ele>65.75</ele><time>2026-04-02T08:48:36.198Z</time></trkpt><trkpt lat="45.4389733" lon="10.698955"><ele>66.0</ele><time>2026-04-02T08:48:37.198Z</time></trkpt><trkpt lat="45.4388433" lon="10.6989667"><ele>66.0</ele><time>2026-04-02T08:48:38.198Z</time></trkpt><trkpt lat="45.4387217" lon="10.6989817"><ele>66.0</ele><time>2026-04-02T08:48:39.195Z</time></trkpt><trkpt lat="45.438595" lon="10.698995"><ele>66.0</ele><time>2026-04-02T08:48:40.198Z</time></trkpt><trkpt lat="45.438465" lon="10.6990117"><ele>66.0</ele><time>2026-04-02T08:48:41.202Z</time></trkpt><trkpt lat="45.4383367" lon="10.6990267"><ele>66.0</ele><time>2026-04-02T08:48:42.193Z</time></trkpt><trkpt lat="45.438205" lon="10.6990417"><ele>66.0</ele><time>2026-04-02T08:48:43.195Z</time></trkpt><trkpt lat="45.4380733" lon="10.699055"><ele>66.0</ele><time>2026-04-02T08:48:44.204Z</time></trkpt><trkpt lat="45.4379433" lon="10.69907"><ele>66.0</ele><time>2026-04-02T08:48:45.206Z</time></trkpt><trkpt lat="45.43781" lon="10.6990817"><ele>65.75</ele><time>2026-04-02T08:48:46.196Z</time></trkpt><trkpt lat="45.43768" lon="10.6990917"><ele>65.5</ele><time>2026-04-02T08:48:47.203Z</time></trkpt><trkpt lat="45.4375533" lon="10.699105"><ele>65.25</ele><time>2026-04-02T08:48:48.205Z</time></trkpt><trkpt lat="45.43743" lon="10.6991167"><ele>65.0</ele><time>2026-04-02T08:48:49.204Z</time></trkpt><trkpt lat="45.4373083" lon="10.6991267"><ele>65.0</ele><time>2026-04-02T08:48:50.201Z</time></trkpt><trkpt lat="45.4371933" lon="10.69914"><ele>65.0</ele><time>2026-04-02T08:48:51.199Z</time></trkpt><trkpt lat="45.4370683" lon="10.6991417"><ele>65.0</ele><time>2026-04-02T08:48:52.21Z</time></trkpt><trkpt lat="45.436955" lon="10.6991483"><ele>65.0</ele><time>2026-04-02T08:48:53.202Z</time></trkpt><trkpt lat="45.4368283" lon="10.6991633"><ele>65.5</ele><time>2026-04-02T08:48:54.202Z</time></trkpt><trkpt lat="45.4367083" lon="10.6991667"><ele>66.0</ele><time>2026-04-02T08:48:55.2Z</time></trkpt><trkpt lat="45.4366067" lon="10.6991983"><ele>66.5</ele><time>2026-04-02T08:48:56.201Z</time></trkpt><trkpt lat="45.4364917" lon="10.6992633"><ele>67.0</ele><time>2026-04-02T08:48:57.223Z</time></trkpt><trkpt lat="45.4363633" lon="10.6993283"><ele>67.33333333333333</ele><time>2026-04-02T08:48:58.205Z</time></trkpt><trkpt lat="45.436215" lon="10.6994767"><ele>67.66666666666667</ele><time>2026-04-02T08:48:59.225Z</time></trkpt><trkpt lat="45.436085" lon="10.6995833"><ele>68.0</ele><time>2026-04-02T08:49:00.205Z</time></trkpt><trkpt lat="45.4359633" lon="10.699675"><ele>68.0</ele><time>2026-04-02T08:49:01.2Z</time></trkpt><trkpt lat="45.4358417" lon="10.69976"><ele>68.0</ele><time>2026-04-02T08:49:02.205Z</time></trkpt><trkpt lat="45.435715" lon="10.6998367"><ele>68.0</ele><time>2026-04-02T08:49:03.202Z</time></trkpt><trkpt lat="45.4355933" lon="10.69992"><ele>68.0</ele><time>2026-04-02T08:49:04.2Z</time></trkpt><trkpt lat="45.435485" lon="10.7000167"><ele>67.75</ele><time>2026-04-02T08:49:05.22Z</time></trkpt><trkpt lat="45.435355" lon="10.70008"><ele>67.5</ele><time>2026-04-02T08:49:06.2Z</time></trkpt><trkpt lat="45.4352367" lon="10.7001717"><ele>67.25</ele><time>2026-04-02T08:49:07.194Z</time></trkpt><trkpt lat="45.4351133" lon="10.7002383"><ele>67.0</ele><time>2026-04-02T08:49:08.205Z</time></trkpt><trkpt lat="45.435015" lon="10.70029"><ele>67.0</ele><time>2026-04-02T08:49:09.198Z</time></trkpt><trkpt lat="45.4348883" lon="10.7003533"><ele>67.0</ele><time>2026-04-02T08:49:10.197Z</time></trkpt><trkpt lat="45.434755" lon="10.7004083"><ele>67.0</ele><time>2026-04-02T08:49:11.204Z</time></trkpt><trkpt lat="45.4346283" lon="10.700435"><ele>67.0</ele><time>2026-04-02T08:49:12.195Z</time></trkpt><trkpt lat="45.4344927" lon="10.700476"><ele>66.75</ele><time>2026-04-02T08:49:13.198Z</time></trkpt><trkpt lat="45.4343654" lon="10.7005142"><ele>66.5</ele><time>2026-04-02T08:49:14.197Z</time></trkpt><trkpt lat="45.4342424" lon="10.7005668"><ele>66.25</ele><time>2026-04-02T08:49:15.193Z</time></trkpt><trkpt lat="45.434123" lon="10.7006048"><ele>66.0</ele><time>2026-04-02T08:49:16.199Z</time></trkpt><trkpt lat="45.434016" lon="10.7006427"><ele>66.0</ele><time>2026-04-02T08:49:17.198Z</time></trkpt><trkpt lat="45.4339168" lon="10.7006779"><ele>66.0</ele><time>2026-04-02T08:49:18.203Z</time></trkpt><trkpt lat="45.4338156" lon="10.7007151"><ele>66.0</ele><time>2026-04-02T08:49:19.194Z</time></trkpt><trkpt lat="45.4337011" lon="10.7007404"><ele>66.0</ele><time>2026-04-02T08:49:20.197Z</time></trkpt><trkpt lat="45.4335741" lon="10.7007581"><ele>65.0</ele><time>2026-04-02T08:49:21.194Z</time></trkpt><trkpt lat="45.4334513" lon="10.7007908"><ele>64.0</ele><time>2026-04-02T08:49:22.194Z</time></trkpt><trkpt lat="45.4333317" lon="10.7008165"><ele>63.0</ele><time>2026-04-02T08:49:23.203Z</time></trkpt><trkpt lat="45.4332184" lon="10.7008439"><ele>62.0</ele><time>2026-04-02T08:49:24.203Z</time></trkpt><trkpt lat="45.4331041" lon="10.7008681"><ele>62.0</ele><time>2026-04-02T08:49:25.196Z</time></trkpt><trkpt lat="45.4329902" lon="10.7008888"><ele>62.0</ele><time>2026-04-02T08:49:26.198Z</time></trkpt><trkpt lat="45.4328802" lon="10.7009213"><ele>62.0</ele><time>2026-04-02T08:49:27.195Z</time></trkpt><trkpt lat="45.4327836" lon="10.7009482"><ele>62.0</ele><time>2026-04-02T08:49:28.193Z</time></trkpt><trkpt lat="45.432678" lon="10.7009749"><ele>62.0</ele><time>2026-04-02T08:49:29.198Z</time></trkpt><trkpt lat="45.4325903" lon="10.7009901"><ele>62.00000000000001</ele><time>2026-04-02T08:49:30.199Z</time></trkpt><trkpt lat="45.4324988" lon="10.701017"><ele>62.0</ele><time>2026-04-02T08:49:31.194Z</time></trkpt><trkpt lat="45.4323975" lon="10.7010364"><ele>62.0</ele><time>2026-04-02T08:49:32.197Z</time></trkpt><trkpt lat="45.4323177" lon="10.7010559"><ele>62.0</ele><time>2026-04-02T08:49:33.201Z</time></trkpt><trkpt lat="45.4322385" lon="10.7010817"><ele>62.00000000000001</ele><time>2026-04-02T08:49:34.195Z</time></trkpt><trkpt lat="45.4321653" lon="10.7011005"><ele>62.0</ele><time>2026-04-02T08:49:35.199Z</time></trkpt><trkpt lat="45.4320976" lon="10.7011137"><ele>62.85714285714286</ele><time>2026-04-02T08:49:36.201Z</time></trkpt><trkpt lat="45.4320288" lon="10.7011279"><ele>63.71428571428572</ele><time>2026-04-02T08:49:37.196Z</time></trkpt><trkpt lat="45.4319547" lon="10.7011412"><ele>64.57142857142857</ele><time>2026-04-02T08:49:38.199Z</time></trkpt><trkpt lat="45.4318757" lon="10.7011569"><ele>65.42857142857143</ele><time>2026-04-02T08:49:39.197Z</time></trkpt><trkpt lat="45.4318001" lon="10.7011719"><ele>66.28571428571428</ele><time>2026-04-02T08:49:40.194Z</time></trkpt><trkpt lat="45.4317319" lon="10.7011879"><ele>67.14285714285714</ele><time>2026-04-02T08:49:41.207Z</time></trkpt><trkpt lat="45.4316689" lon="10.7012007"><ele>68.0</ele><time>2026-04-02T08:49:42.196Z</time></trkpt><trkpt lat="45.4316018" lon="10.7012137"><ele>67.99999999999999</ele><time>2026-04-02T08:49:43.195Z</time></trkpt><trkpt lat="45.4315295" lon="10.7012242"><ele>68.0</ele><time>2026-04-02T08:49:44.193Z</time></trkpt><trkpt lat="45.4314607" lon="10.7012342"><ele>68.0</ele><time>2026-04-02T08:49:45.213Z</time></trkpt><trkpt lat="45.4313972" lon="10.7012439"><ele>68.0</ele><time>2026-04-02T08:49:46.208Z</time></trkpt><trkpt lat="45.431326" lon="10.70126"><ele>68.0</ele><time>2026-04-02T08:49:47.194Z</time></trkpt><trkpt lat="45.4312465" lon="10.7012707"><ele>67.99999999999999</ele><time>2026-04-02T08:49:48.194Z</time></trkpt><trkpt lat="45.4311587" lon="10.7012884"><ele>68.0</ele><time>2026-04-02T08:49:49.197Z</time></trkpt><trkpt lat="45.4310587" lon="10.7013006"><ele>68.0</ele><time>2026-04-02T08:49:50.198Z</time></trkpt><trkpt lat="45.4309399" lon="10.7013046"><ele>68.0</ele><time>2026-04-02T08:49:51.208Z</time></trkpt><trkpt lat="45.4308033" lon="10.7013113"><ele>68.0</ele><time>2026-04-02T08:49:52.196Z</time></trkpt><trkpt lat="45.430657" lon="10.7013139"><ele>68.0</ele><time>2026-04-02T08:49:53.196Z</time></trkpt><trkpt lat="45.4305185" lon="10.7013166"><ele>67.0</ele><time>2026-04-02T08:49:54.204Z</time></trkpt><trkpt lat="45.4303788" lon="10.7013234"><ele>66.0</ele><time>2026-04-02T08:49:55.202Z</time></trkpt><trkpt lat="45.4302474" lon="10.7013339"><ele>65.0</ele><time>2026-04-02T08:49:56.194Z</time></trkpt><trkpt lat="45.430118" lon="10.7013324"><ele>64.0</ele><time>2026-04-02T08:49:57.204Z</time></trkpt><trkpt lat="45.4300062" lon="10.7013303"><ele>64.0</ele><time>2026-04-02T08:49:58.196Z</time></trkpt><trkpt lat="45.4299133" lon="10.7013309"><ele>64.0</ele><time>2026-04-02T08:49:59.195Z</time></trkpt><trkpt lat="45.4298011" lon="10.7013246"><ele>64.0</ele><time>2026-04-02T08:50:00.195Z</time></trkpt><trkpt lat="45.429682" lon="10.701328"><ele>64.0</ele><time>2026-04-02T08:50:01.199Z</time></trkpt><trkpt lat="45.4295586" lon="10.7013607"><ele>64.5</ele><time>2026-04-02T08:50:02.194Z</time></trkpt><trkpt lat="45.4294335" lon="10.7013848"><ele>65.0</ele><time>2026-04-02T08:50:03.194Z</time></trkpt><trkpt lat="45.4293172" lon="10.7013987"><ele>65.5</ele><time>2026-04-02T08:50:04.194Z</time></trkpt><trkpt lat="45.4292084" lon="10.7014023"><ele>66.0</ele><time>2026-04-02T08:50:05.193Z</time></trkpt><trkpt lat="45.4291063" lon="10.7013726"><ele>66.0</ele><time>2026-04-02T08:50:06.195Z</time></trkpt><trkpt lat="45.4289952" lon="10.7013947"><ele>66.0</ele><time>2026-04-02T08:50:07.195Z</time></trkpt><trkpt lat="45.4288889" lon="10.7014158"><ele>66.0</ele><time>2026-04-02T08:50:08.195Z</time></trkpt><trkpt lat="45.4287901" lon="10.7014099"><ele>66.0</ele><time>2026-04-02T08:50:09.198Z</time></trkpt><trkpt lat="45.4286879" lon="10.7013964"><ele>66.0</ele><time>2026-04-02T08:50:10.192Z</time></trkpt><trkpt lat="45.4285901" lon="10.7013822"><ele>66.16666666666667</ele><time>2026-04-02T08:50:11.198Z</time></trkpt><trkpt lat="45.4285004" lon="10.7013626"><ele>66.33333333333333</ele><time>2026-04-02T08:50:12.194Z</time></trkpt><trkpt lat="45.4284166" lon="10.7013405"><ele>66.5</ele><time>2026-04-02T08:50:13.195Z</time></trkpt><trkpt lat="45.4283295" lon="10.7013233"><ele>66.66666666666666</ele><time>2026-04-02T08:50:14.192Z</time></trkpt><trkpt lat="45.4282469" lon="10.7013165"><ele>66.83333333333333</ele><time>2026-04-02T08:50:15.195Z</time></trkpt><trkpt lat="45.4281679" lon="10.7013229"><ele>67.0</ele><time>2026-04-02T08:50:16.208Z</time></trkpt><trkpt lat="45.4280954" lon="10.7013496"><ele>67.0</ele><time>2026-04-02T08:50:17.197Z</time></trkpt><trkpt lat="45.428025" lon="10.7014048"><ele>67.0</ele><time>2026-04-02T08:50:18.195Z</time></trkpt><trkpt lat="45.4279642" lon="10.7014817"><ele>67.0</ele><time>2026-04-02T08:50:19.197Z</time></trkpt><trkpt lat="45.4279138" lon="10.7015616"><ele>67.0</ele><time>2026-04-02T08:50:20.196Z</time></trkpt><trkpt lat="45.4278686" lon="10.7016442"><ele>67.0</ele><time>2026-04-02T08:50:21.196Z</time></trkpt><trkpt lat="45.4278232" lon="10.7017309"><ele>67.0</ele><time>2026-04-02T08:50:22.202Z</time></trkpt><trkpt lat="45.4277751" lon="10.7018295"><ele>67.6</ele><time>2026-04-02T08:50:23.204Z</time></trkpt><trkpt lat="45.4277238" lon="10.7019433"><ele>68.2</ele><time>2026-04-02T08:50:24.193Z</time></trkpt><trkpt lat="45.4276697" lon="10.7020707"><ele>68.8</ele><time>2026-04-02T08:50:25.198Z</time></trkpt><trkpt lat="45.4275937" lon="10.702202"><ele>69.4</ele><time>2026-04-02T08:50:26.197Z</time></trkpt><trkpt lat="45.4275114" lon="10.7023218"><ele>70.0</ele><time>2026-04-02T08:50:27.198Z</time></trkpt><trkpt lat="45.4274212" lon="10.7024594"><ele>70.0</ele><time>2026-04-02T08:50:28.202Z</time></trkpt><trkpt lat="45.4273355" lon="10.702591"><ele>70.0</ele><time>2026-04-02T08:50:29.195Z</time></trkpt><trkpt lat="45.4272515" lon="10.702705"><ele>70.0</ele><time>2026-04-02T08:50:30.208Z</time></trkpt><trkpt lat="45.4271653" lon="10.7027989"><ele>70.0</ele><time>2026-04-02T08:50:31.198Z</time></trkpt><trkpt lat="45.4270792" lon="10.702887"><ele>71.0</ele><time>2026-04-02T08:50:32.199Z</time></trkpt><trkpt lat="45.4269998" lon="10.7029705"><ele>72.0</ele><time>2026-04-02T08:50:33.199Z</time></trkpt><trkpt lat="45.4269211" lon="10.7030506"><ele>73.0</ele><time>2026-04-02T08:50:34.202Z</time></trkpt><trkpt lat="45.4268389" lon="10.7031274"><ele>74.0</ele><time>2026-04-02T08:50:35.206Z</time></trkpt><trkpt lat="45.4267625" lon="10.7031789"><ele>75.0</ele><time>2026-04-02T08:50:36.198Z</time></trkpt><trkpt lat="45.4266849" lon="10.7032353"><ele>75.0</ele><time>2026-04-02T08:50:37.198Z</time></trkpt><trkpt lat="45.4266069" lon="10.7032626"><ele>75.0</ele><time>2026-04-02T08:50:38.201Z</time></trkpt><trkpt lat="45.4265194" lon="10.7032709"><ele>75.0</ele><time>2026-04-02T08:50:39.201Z</time></trkpt><trkpt lat="45.4264283" lon="10.7032871"><ele>75.0</ele><time>2026-04-02T08:50:40.191Z</time></trkpt><trkpt lat="45.426326" lon="10.7033088"><ele>75.0</ele><time>2026-04-02T08:50:41.197Z</time></trkpt><trkpt lat="45.4262126" lon="10.7033588"><ele>75.0</ele><time>2026-04-02T08:50:42.2Z</time></trkpt><trkpt lat="45.4261117" lon="10.7034617"><ele>75.0</ele><time>2026-04-02T08:50:43.219Z</time></trkpt><trkpt lat="45.4260117" lon="10.703545"><ele>75.0</ele><time>2026-04-02T08:50:44.2Z</time></trkpt><trkpt lat="45.4259067" lon="10.7036317"><ele>75.0</ele><time>2026-04-02T08:50:45.2Z</time></trkpt><trkpt lat="45.4258417" lon="10.7037117"><ele>75.0</ele><time>2026-04-02T08:50:46.202Z</time></trkpt><trkpt lat="45.4257633" lon="10.7037833"><ele>75.16666666666667</ele><time>2026-04-02T08:50:47.204Z</time></trkpt><trkpt lat="45.4257133" lon="10.7038933"><ele>75.33333333333333</ele><time>2026-04-02T08:50:48.201Z</time></trkpt><trkpt lat="45.4256767" lon="10.704"><ele>75.5</ele><time>2026-04-02T08:50:49.202Z</time></trkpt><trkpt lat="45.42564" lon="10.7041033"><ele>75.66666666666666</ele><time>2026-04-02T08:50:50.195Z</time></trkpt><trkpt lat="45.4255933" lon="10.7042"><ele>75.83333333333333</ele><time>2026-04-02T08:50:51.203Z</time></trkpt><trkpt lat="45.4255367" lon="10.7042783"><ele>76.0</ele><time>2026-04-02T08:50:52.195Z</time></trkpt><trkpt lat="45.4254633" lon="10.7043483"><ele>76.2</ele><time>2026-04-02T08:50:53.199Z</time></trkpt><trkpt lat="45.4253733" lon="10.7044"><ele>76.39999999999999</ele><time>2026-04-02T08:50:54.203Z</time></trkpt><trkpt lat="45.4252883" lon="10.7044667"><ele>76.6</ele><time>2026-04-02T08:50:55.208Z</time></trkpt><trkpt lat="45.42519" lon="10.7045317"><ele>76.8</ele><time>2026-04-02T08:50:56.196Z</time></trkpt><trkpt lat="45.4251" lon="10.7045867"><ele>77.0</ele><time>2026-04-02T08:50:57.196Z</time></trkpt><trkpt lat="45.4250267" lon="10.70462"><ele>77.0</ele><time>2026-04-02T08:50:58.2Z</time></trkpt><trkpt lat="45.4249367" lon="10.704685"><ele>77.0</ele><time>2026-04-02T08:50:59.197Z</time></trkpt><trkpt lat="45.4247967" lon="10.7047517"><ele>77.0</ele><time>2026-04-02T08:51:00.206Z</time></trkpt><trkpt lat="45.424685" lon="10.7048133"><ele>77.0</ele><time>2026-04-02T08:51:01.2Z</time></trkpt><trkpt lat="45.42457" lon="10.7048733"><ele>77.0</ele><time>2026-04-02T08:51:02.199Z</time></trkpt><trkpt lat="45.4244633" lon="10.704935"><ele>77.0</ele><time>2026-04-02T08:51:03.197Z</time></trkpt><trkpt lat="45.4243567" lon="10.70502"><ele>77.0</ele><time>2026-04-02T08:51:04.204Z</time></trkpt><trkpt lat="45.4242517" lon="10.7051083"><ele>77.0</ele><time>2026-04-02T08:51:05.199Z</time></trkpt><trkpt lat="45.424145" lon="10.7052183"><ele>77.25</ele><time>2026-04-02T08:51:06.198Z</time></trkpt><trkpt lat="45.4240017" lon="10.7053267"><ele>77.5</ele><time>2026-04-02T08:51:07.202Z</time></trkpt><trkpt lat="45.4239" lon="10.7054733"><ele>77.75</ele><time>2026-04-02T08:51:08.204Z</time></trkpt><trkpt lat="45.4238033" lon="10.7055533"><ele>78.0</ele><time>2026-04-02T08:51:09.198Z</time></trkpt><trkpt lat="45.4237017" lon="10.7056717"><ele>78.0</ele><time>2026-04-02T08:51:10.199Z</time></trkpt><trkpt lat="45.4236017" lon="10.7057517"><ele>78.0</ele><time>2026-04-02T08:51:11.203Z</time></trkpt><trkpt lat="45.4235133" lon="10.7058417"><ele>78.0</ele><time>2026-04-02T08:51:12.203Z</time></trkpt><trkpt lat="45.4234333" lon="10.7059317"><ele>78.0</ele><time>2026-04-02T08:51:13.201Z</time></trkpt><trkpt lat="45.423375" lon="10.706045"><ele>78.0</ele><time>2026-04-02T08:51:14.203Z</time></trkpt><trkpt lat="45.4233233" lon="10.7061367"><ele>78.4</ele><time>2026-04-02T08:51:15.2Z</time></trkpt><trkpt lat="45.4232867" lon="10.7062317"><ele>78.8</ele><time>2026-04-02T08:51:16.197Z</time></trkpt><trkpt lat="45.423275" lon="10.7063467"><ele>79.2</ele><time>2026-04-02T08:51:17.204Z</time></trkpt><trkpt lat="45.4232617" lon="10.7064817"><ele>79.6</ele><time>2026-04-02T08:51:18.2Z</time></trkpt><trkpt lat="45.4232467" lon="10.706645"><ele>80.0</ele><time>2026-04-02T08:51:19.209Z</time></trkpt><trkpt lat="45.423225" lon="10.706815"><ele>80.75</ele><time>2026-04-02T08:51:20.205Z</time></trkpt><trkpt lat="45.4232117" lon="10.70698"><ele>81.5</ele><time>2026-04-02T08:51:21.203Z</time></trkpt><trkpt lat="45.4232133" lon="10.7071717"><ele>82.25</ele><time>2026-04-02T08:51:22.197Z</time></trkpt><trkpt lat="45.423205" lon="10.7073717"><ele>83.0</ele><time>2026-04-02T08:51:23.203Z</time></trkpt><trkpt lat="45.4231967" lon="10.70757"><ele>84.33333333333334</ele><time>2026-04-02T08:51:24.205Z</time></trkpt><trkpt lat="45.4232033" lon="10.7077733"><ele>85.66666666666667</ele><time>2026-04-02T08:51:25.197Z</time></trkpt><trkpt lat="45.4232283" lon="10.7079867"><ele>87.0</ele><time>2026-04-02T08:51:26.199Z</time></trkpt><trkpt lat="45.4232817" lon="10.708205"><ele>87.0</ele><time>2026-04-02T08:51:27.203Z</time></trkpt><trkpt lat="45.4233" lon="10.7084417"><ele>87.0</ele><time>2026-04-02T08:51:28.195Z</time></trkpt><trkpt lat="45.4233233" lon="10.7086717"><ele>87.0</ele><time>2026-04-02T08:51:29.202Z</time></trkpt><trkpt lat="45.4233417" lon="10.7088467"><ele>87.0</ele><time>2026-04-02T08:51:30.207Z</time></trkpt><trkpt lat="45.4233783" lon="10.70902"><ele>87.0</ele><time>2026-04-02T08:51:31.203Z</time></trkpt><trkpt lat="45.42339" lon="10.7092067"><ele>87.0</ele><time>2026-04-02T08:51:32.202Z</time></trkpt><trkpt lat="45.4233967" lon="10.70938"><ele>87.0</ele><time>2026-04-02T08:51:33.201Z</time></trkpt><trkpt lat="45.4233817" lon="10.7095167"><ele>87.6</ele><time>2026-04-02T08:51:34.206Z</time></trkpt><trkpt lat="45.4233533" lon="10.7096667"><ele>88.19999999999999</ele><time>2026-04-02T08:51:35.2Z</time></trkpt><trkpt lat="45.4233017" lon="10.709805"><ele>88.8</ele><time>2026-04-02T08:51:36.203Z</time></trkpt><trkpt lat="45.4232433" lon="10.7099467"><ele>89.4</ele><time>2026-04-02T08:51:37.205Z</time></trkpt><trkpt lat="45.4231933" lon="10.7100717"><ele>90.0</ele><time>2026-04-02T08:51:38.21Z</time></trkpt><trkpt lat="45.42317" lon="10.7102433"><ele>90.0</ele><time>2026-04-02T08:51:39.212Z</time></trkpt><trkpt lat="45.423135" lon="10.710415"><ele>90.0</ele><time>2026-04-02T08:51:40.206Z</time></trkpt><trkpt lat="45.4231233" lon="10.71055"><ele>90.0</ele><time>2026-04-02T08:51:41.195Z</time></trkpt><trkpt lat="45.4231167" lon="10.7106767"><ele>90.0</ele><time>2026-04-02T08:51:42.21Z</time></trkpt><trkpt lat="45.4230867" lon="10.7107667"><ele>90.0</ele><time>2026-04-02T08:51:43.201Z</time></trkpt><trkpt lat="45.4230233" lon="10.7108333"><ele>89.2</ele><time>2026-04-02T08:51:44.203Z</time></trkpt><trkpt lat="45.4229233" lon="10.710835"><ele>88.4</ele><time>2026-04-02T08:51:45.209Z</time></trkpt><trkpt lat="45.4228267" lon="10.71083"><ele>87.6</ele><time>2026-04-02T08:51:46.197Z</time></trkpt><trkpt lat="45.4227367" lon="10.710835"><ele>86.8</ele><time>2026-04-02T08:51:47.209Z</time></trkpt><trkpt lat="45.422635" lon="10.710885"><ele>86.0</ele><time>2026-04-02T08:51:48.201Z</time></trkpt><trkpt lat="45.4225483" lon="10.7110033"><ele>87.0</ele><time>2026-04-02T08:51:49.216Z</time></trkpt><trkpt lat="45.42246" lon="10.71116"><ele>88.0</ele><time>2026-04-02T08:51:50.203Z</time></trkpt><trkpt lat="45.422395" lon="10.7113117"><ele>89.0</ele><time>2026-04-02T08:51:51.202Z</time></trkpt><trkpt lat="45.42231" lon="10.7114783"><ele>90.0</ele><time>2026-04-02T08:51:52.21Z</time></trkpt><trkpt lat="45.422235" lon="10.7116317"><ele>90.0</ele><time>2026-04-02T08:51:53.202Z</time></trkpt><trkpt lat="45.4221883" lon="10.7117633"><ele>90.0</ele><time>2026-04-02T08:51:54.198Z</time></trkpt><trkpt lat="45.42213" lon="10.7118917"><ele>90.0</ele><time>2026-04-02T08:51:55.205Z</time></trkpt><trkpt lat="45.422125" lon="10.7120267"><ele>90.0</ele><time>2026-04-02T08:51:56.209Z</time></trkpt><trkpt lat="45.4221283" lon="10.712165"><ele>90.0</ele><time>2026-04-02T08:51:57.196Z</time></trkpt><trkpt lat="45.422165" lon="10.7122767"><ele>90.0</ele><time>2026-04-02T08:51:58.203Z</time></trkpt><trkpt lat="45.42224" lon="10.712385"><ele>90.0</ele><time>2026-04-02T08:51:59.202Z</time></trkpt><trkpt lat="45.42235" lon="10.7124683"><ele>90.0</ele><time>2026-04-02T08:52:00.198Z</time></trkpt><trkpt lat="45.422465" lon="10.7125383"><ele>90.0</ele><time>2026-04-02T08:52:01.206Z</time></trkpt><trkpt lat="45.42258" lon="10.7126333"><ele>90.0</ele><time>2026-04-02T08:52:02.202Z</time></trkpt><trkpt lat="45.42271" lon="10.7127133"><ele>90.0</ele><time>2026-04-02T08:52:03.207Z</time></trkpt><trkpt lat="45.4228317" lon="10.7127933"><ele>90.0</ele><time>2026-04-02T08:52:04.207Z</time></trkpt><trkpt lat="45.4229433" lon="10.712885"><ele>90.0</ele><time>2026-04-02T08:52:05.203Z</time></trkpt><trkpt lat="45.4230433" lon="10.7129667"><ele>90.0</ele><time>2026-04-02T08:52:06.203Z</time></trkpt><trkpt lat="45.4231033" lon="10.7130283"><ele>90.0</ele><time>2026-04-02T08:52:07.199Z</time></trkpt><trkpt lat="45.4231667" lon="10.7130733"><ele>90.0</ele><time>2026-04-02T08:52:08.202Z</time></trkpt><trkpt lat="45.42321" lon="10.7132167"><ele>90.0</ele><time>2026-04-02T08:52:10.201Z</time></trkpt><trkpt lat="45.4231867" lon="10.7133333"><ele>90.0</ele><time>2026-04-02T08:52:11.205Z</time></trkpt><trkpt lat="45.4231483" lon="10.713465"><ele>90.0</ele><time>2026-04-02T08:52:12.199Z</time></trkpt><trkpt lat="45.4230917" lon="10.7135983"><ele>90.0</ele><time>2026-04-02T08:52:13.199Z</time></trkpt><trkpt lat="45.42304" lon="10.7137467"><ele>90.0</ele><time>2026-04-02T08:52:14.202Z</time></trkpt><trkpt lat="45.4230083" lon="10.7139117"><ele>90.0</ele><time>2026-04-02T08:52:15.196Z</time></trkpt><trkpt lat="45.4229733" lon="10.714075"><ele>90.0</ele><time>2026-04-02T08:52:16.195Z</time></trkpt><trkpt lat="45.4229067" lon="10.714265"><ele>90.4</ele><time>2026-04-02T08:52:17.199Z</time></trkpt><trkpt lat="45.4228733" lon="10.7144133"><ele>90.8</ele><time>2026-04-02T08:52:18.201Z</time></trkpt><trkpt lat="45.4228167" lon="10.7145517"><ele>91.19999999999999</ele><time>2026-04-02T08:52:19.197Z</time></trkpt><trkpt lat="45.4227733" lon="10.7146683"><ele>91.6</ele><time>2026-04-02T08:52:20.198Z</time></trkpt><trkpt lat="45.422715" lon="10.7147633"><ele>92.0</ele><time>2026-04-02T08:52:21.194Z</time></trkpt><trkpt lat="45.42264" lon="10.71484"><ele>92.0</ele><time>2026-04-02T08:52:22.194Z</time></trkpt><trkpt lat="45.4225667" lon="10.7149167"><ele>92.0</ele><time>2026-04-02T08:52:23.218Z</time></trkpt><trkpt lat="45.4224767" lon="10.7149967"><ele>92.0</ele><time>2026-04-02T08:52:24.2Z</time></trkpt><trkpt lat="45.4223767" lon="10.7150717"><ele>92.0</ele><time>2026-04-02T08:52:25.2Z</time></trkpt><trkpt lat="45.4222933" lon="10.7151617"><ele>92.0</ele><time>2026-04-02T08:52:26.195Z</time></trkpt><trkpt lat="45.4222067" lon="10.7152333"><ele>92.0</ele><time>2026-04-02T08:52:27.2Z</time></trkpt><trkpt lat="45.4221483" lon="10.7152883"><ele>92.0</ele><time>2026-04-02T08:52:28.199Z</time></trkpt><trkpt lat="45.4220817" lon="10.7153333"><ele>92.0</ele><time>2026-04-02T08:52:29.2Z</time></trkpt><trkpt lat="45.42201" lon="10.715375"><ele>92.0</ele><time>2026-04-02T08:52:30.21Z</time></trkpt><trkpt lat="45.4219383" lon="10.7154233"><ele>92.0</ele><time>2026-04-02T08:52:31.204Z</time></trkpt><trkpt lat="45.4218733" lon="10.71546"><ele>92.0</ele><time>2026-04-02T08:52:32.196Z</time></trkpt><trkpt lat="45.4218133" lon="10.7155133"><ele>92.0</ele><time>2026-04-02T08:52:33.197Z</time></trkpt><trkpt lat="45.4217517" lon="10.715585"><ele>92.19999999999999</ele><time>2026-04-02T08:52:34.21Z</time></trkpt><trkpt lat="45.42169" lon="10.71569"><ele>92.4</ele><time>2026-04-02T08:52:35.195Z</time></trkpt><trkpt lat="45.421625" lon="10.7158033"><ele>92.6</ele><time>2026-04-02T08:52:36.204Z</time></trkpt><trkpt lat="45.421575" lon="10.71592"><ele>92.80000000000001</ele><time>2026-04-02T08:52:37.204Z</time></trkpt><trkpt lat="45.4215433" lon="10.7160367"><ele>93.0</ele><time>2026-04-02T08:52:38.203Z</time></trkpt><trkpt lat="45.4215" lon="10.7161567"><ele>93.0</ele><time>2026-04-02T08:52:39.194Z</time></trkpt><trkpt lat="45.4214567" lon="10.71631"><ele>93.0</ele><time>2026-04-02T08:52:40.202Z</time></trkpt><trkpt lat="45.42139" lon="10.7164283"><ele>93.0</ele><time>2026-04-02T08:52:41.203Z</time></trkpt><trkpt lat="45.4213383" lon="10.71656"><ele>93.0</ele><time>2026-04-02T08:52:42.214Z</time></trkpt><trkpt lat="45.42129" lon="10.7166817"><ele>93.0</ele><time>2026-04-02T08:52:43.223Z</time></trkpt><trkpt lat="45.4212317" lon="10.7167917"><ele>93.0</ele><time>2026-04-02T08:52:44.198Z</time></trkpt><trkpt lat="45.421195" lon="10.7168933"><ele>93.0</ele><time>2026-04-02T08:52:45.201Z</time></trkpt><trkpt lat="45.421215" lon="10.717045"><ele>93.0</ele><time>2026-04-02T08:52:47.202Z</time></trkpt><trkpt lat="45.4213583" lon="10.7171167"><ele>93.0</ele><time>2026-04-02T08:52:49.199Z</time></trkpt><trkpt lat="45.42146" lon="10.71714"><ele>93.0</ele><time>2026-04-02T08:52:50.203Z</time></trkpt><trkpt lat="45.421585" lon="10.717145"><ele>93.25</ele><time>2026-04-02T08:52:51.197Z</time></trkpt><trkpt lat="45.4217267" lon="10.7171533"><ele>93.5</ele><time>2026-04-02T08:52:52.2Z</time></trkpt><trkpt lat="45.421865" lon="10.71715"><ele>93.75</ele><time>2026-04-02T08:52:53.198Z</time></trkpt><trkpt lat="45.421995" lon="10.71717"><ele>94.0</ele><time>2026-04-02T08:52:54.197Z</time></trkpt><trkpt lat="45.4221217" lon="10.717165"><ele>93.75</ele><time>2026-04-02T08:52:55.202Z</time></trkpt><trkpt lat="45.4222533" lon="10.7171617"><ele>93.5</ele><time>2026-04-02T08:52:56.201Z</time></trkpt><trkpt lat="45.422395" lon="10.717155"><ele>93.25</ele><time>2026-04-02T08:52:57.2Z</time></trkpt><trkpt lat="45.4225483" lon="10.7171617"><ele>93.0</ele><time>2026-04-02T08:52:58.202Z</time></trkpt><trkpt lat="45.4226917" lon="10.7171633"><ele>93.0</ele><time>2026-04-02T08:52:59.199Z</time></trkpt><trkpt lat="45.4228317" lon="10.71718"><ele>93.0</ele><time>2026-04-02T08:53:00.197Z</time></trkpt><trkpt lat="45.4229917" lon="10.7171733"><ele>93.0</ele><time>2026-04-02T08:53:01.193Z</time></trkpt><trkpt lat="45.4231617" lon="10.7171817"><ele>93.33333333333333</ele><time>2026-04-02T08:53:02.205Z</time></trkpt><trkpt lat="45.4233117" lon="10.7172017"><ele>93.66666666666666</ele><time>2026-04-02T08:53:03.224Z</time></trkpt><trkpt lat="45.4234767" lon="10.7172117"><ele>94.0</ele><time>2026-04-02T08:53:04.198Z</time></trkpt><trkpt lat="45.423645" lon="10.7172267"><ele>94.0</ele><time>2026-04-02T08:53:05.199Z</time></trkpt><trkpt lat="45.4238167" lon="10.7172467"><ele>94.0</ele><time>2026-04-02T08:53:06.201Z</time></trkpt><trkpt lat="45.4239717" lon="10.7172633"><ele>94.0</ele><time>2026-04-02T08:53:07.197Z</time></trkpt><trkpt lat="45.4241133" lon="10.7172533"><ele>94.0</ele><time>2026-04-02T08:53:08.201Z</time></trkpt><trkpt lat="45.4242383" lon="10.7172633"><ele>94.0</ele><time>2026-04-02T08:53:09.199Z</time></trkpt><trkpt lat="45.424365" lon="10.7172633"><ele>94.0</ele><time>2026-04-02T08:53:10.201Z</time></trkpt><trkpt lat="45.4244667" lon="10.7172733"><ele>94.0</ele><time>2026-04-02T08:53:11.198Z</time></trkpt><trkpt lat="45.424565" lon="10.7172767"><ele>94.0</ele><time>2026-04-02T08:53:12.205Z</time></trkpt><trkpt lat="45.4246433" lon="10.7173067"><ele>94.0</ele><time>2026-04-02T08:53:13.197Z</time></trkpt><trkpt lat="45.42472" lon="10.71742"><ele>94.0</ele><time>2026-04-02T08:53:15.201Z</time></trkpt><trkpt lat="45.4247083" lon="10.7175217"><ele>94.0</ele><time>2026-04-02T08:53:16.203Z</time></trkpt><trkpt lat="45.4246933" lon="10.7176433"><ele>94.0</ele><time>2026-04-02T08:53:17.198Z</time></trkpt><trkpt lat="45.4246667" lon="10.7177817"><ele>93.75</ele><time>2026-04-02T08:53:18.213Z</time></trkpt><trkpt lat="45.4246233" lon="10.717945"><ele>93.5</ele><time>2026-04-02T08:53:19.211Z</time></trkpt><trkpt lat="45.4246033" lon="10.718105"><ele>93.25</ele><time>2026-04-02T08:53:20.197Z</time></trkpt><trkpt lat="45.4245767" lon="10.71829"><ele>93.0</ele><time>2026-04-02T08:53:21.206Z</time></trkpt><trkpt lat="45.42454" lon="10.7184867"><ele>94.0</ele><time>2026-04-02T08:53:22.203Z</time></trkpt><trkpt lat="45.4245133" lon="10.718695"><ele>95.0</ele><time>2026-04-02T08:53:23.2Z</time></trkpt><trkpt lat="45.42449" lon="10.7189083"><ele>96.0</ele><time>2026-04-02T08:53:24.197Z</time></trkpt><trkpt lat="45.42447" lon="10.71912"><ele>96.0</ele><time>2026-04-02T08:53:25.218Z</time></trkpt><trkpt lat="45.4244433" lon="10.7193383"><ele>96.0</ele><time>2026-04-02T08:53:26.198Z</time></trkpt><trkpt lat="45.424415" lon="10.7195483"><ele>96.0</ele><time>2026-04-02T08:53:27.193Z</time></trkpt><trkpt lat="45.4244" lon="10.7197533"><ele>96.4</ele><time>2026-04-02T08:53:28.196Z</time></trkpt><trkpt lat="45.42439" lon="10.7199167"><ele>96.8</ele><time>2026-04-02T08:53:29.203Z</time></trkpt><trkpt lat="45.42438" lon="10.720085"><ele>97.2</ele><time>2026-04-02T08:53:30.197Z</time></trkpt><trkpt lat="45.4243817" lon="10.7202067"><ele>97.60000000000001</ele><time>2026-04-02T08:53:31.206Z</time></trkpt><trkpt lat="45.42436" lon="10.7203117"><ele>98.0</ele><time>2026-04-02T08:53:32.198Z</time></trkpt><trkpt lat="45.424325" lon="10.7203883"><ele>99.4</ele><time>2026-04-02T08:53:33.196Z</time></trkpt><trkpt lat="45.42424" lon="10.7204067"><ele>100.80000000000001</ele><time>2026-04-02T08:53:34.198Z</time></trkpt><trkpt lat="45.4241467" lon="10.7203983"><ele>102.2</ele><time>2026-04-02T08:53:35.2Z</time></trkpt><trkpt lat="45.424045" lon="10.720415"><ele>103.6</ele><time>2026-04-02T08:53:36.194Z</time></trkpt><trkpt lat="45.4239433" lon="10.720445"><ele>105.0</ele><time>2026-04-02T08:53:37.201Z</time></trkpt><trkpt lat="45.4238483" lon="10.7204667"><ele>105.0</ele><time>2026-04-02T08:53:38.199Z</time></trkpt><trkpt lat="45.4237883" lon="10.7205417"><ele>105.0</ele><time>2026-04-02T08:53:39.199Z</time></trkpt><trkpt lat="45.42376" lon="10.7206883"><ele>105.0</ele><time>2026-04-02T08:53:40.196Z</time></trkpt><trkpt lat="45.4237083" lon="10.7208333"><ele>105.0</ele><time>2026-04-02T08:53:41.208Z</time></trkpt><trkpt lat="45.4236533" lon="10.720985"><ele>105.0</ele><time>2026-04-02T08:53:42.208Z</time></trkpt><trkpt lat="45.4236133" lon="10.721145"><ele>107.25</ele><time>2026-04-02T08:53:43.196Z</time></trkpt><trkpt lat="45.42354" lon="10.7212967"><ele>109.5</ele><time>2026-04-02T08:53:44.206Z</time></trkpt><trkpt lat="45.423485" lon="10.7214633"><ele>111.75</ele><time>2026-04-02T08:53:45.198Z</time></trkpt><trkpt lat="45.4234333" lon="10.7216283"><ele>114.0</ele><time>2026-04-02T08:53:46.196Z</time></trkpt><trkpt lat="45.4233733" lon="10.721785"><ele>115.80000000000001</ele><time>2026-04-02T08:53:47.201Z</time></trkpt><trkpt lat="45.42333" lon="10.7219267"><ele>117.60000000000001</ele><time>2026-04-02T08:53:48.2Z</time></trkpt><trkpt lat="45.4233017" lon="10.7220717"><ele>119.4</ele><time>2026-04-02T08:53:49.2Z</time></trkpt><trkpt lat="45.4232833" lon="10.7222167"><ele>121.2</ele><time>2026-04-02T08:53:50.205Z</time></trkpt><trkpt lat="45.42327" lon="10.722375"><ele>123.0</ele><time>2026-04-02T08:53:51.199Z</time></trkpt><trkpt lat="45.423255" lon="10.7224917"><ele>123.0</ele><time>2026-04-02T08:53:52.195Z</time></trkpt><trkpt lat="45.423235" lon="10.72261"><ele>123.00000000000001</ele><time>2026-04-02T08:53:53.202Z</time></trkpt><trkpt lat="45.4232167" lon="10.72274"><ele>123.00000000000001</ele><time>2026-04-02T08:53:54.203Z</time></trkpt><trkpt lat="45.423195" lon="10.7228817"><ele>123.0</ele><time>2026-04-02T08:53:55.202Z</time></trkpt><trkpt lat="45.4231767" lon="10.7230433"><ele>123.0</ele><time>2026-04-02T08:53:56.199Z</time></trkpt><trkpt lat="45.423165" lon="10.7232333"><ele>122.33333333333333</ele><time>2026-04-02T08:53:57.205Z</time></trkpt><trkpt lat="45.423145" lon="10.723395"><ele>121.66666666666666</ele><time>2026-04-02T08:53:58.206Z</time></trkpt><trkpt lat="45.4231317" lon="10.72352"><ele>121.0</ele><time>2026-04-02T08:53:59.202Z</time></trkpt><trkpt lat="45.4230933" lon="10.7236133"><ele>120.33333333333333</ele><time>2026-04-02T08:54:00.204Z</time></trkpt><trkpt lat="45.4230383" lon="10.7236817"><ele>119.66666666666666</ele><time>2026-04-02T08:54:01.202Z</time></trkpt><trkpt lat="45.4229733" lon="10.723745"><ele>119.0</ele><time>2026-04-02T08:54:02.205Z</time></trkpt><trkpt lat="45.42289" lon="10.7238133"><ele>117.0</ele><time>2026-04-02T08:54:03.207Z</time></trkpt><trkpt lat="45.4228167" lon="10.723925"><ele>115.0</ele><time>2026-04-02T08:54:04.203Z</time></trkpt><trkpt lat="45.4227533" lon="10.7240633"><ele>113.0</ele><time>2026-04-02T08:54:05.197Z</time></trkpt><trkpt lat="45.4227133" lon="10.72427"><ele>111.0</ele><time>2026-04-02T08:54:06.204Z</time></trkpt><trkpt lat="45.4226883" lon="10.72445"><ele>109.5</ele><time>2026-04-02T08:54:07.205Z</time></trkpt><trkpt lat="45.4226717" lon="10.7246267"><ele>108.0</ele><time>2026-04-02T08:54:08.195Z</time></trkpt><trkpt lat="45.422655" lon="10.72484"><ele>106.5</ele><time>2026-04-02T08:54:09.199Z</time></trkpt><trkpt lat="45.4226067" lon="10.72507"><ele>105.0</ele><time>2026-04-02T08:54:10.203Z</time></trkpt><trkpt lat="45.42257" lon="10.725265"><ele>104.5</ele><time>2026-04-02T08:54:11.201Z</time></trkpt><trkpt lat="45.422535" lon="10.72545"><ele>104.0</ele><time>2026-04-02T08:54:12.207Z</time></trkpt><trkpt lat="45.422515" lon="10.7256117"><ele>103.5</ele><time>2026-04-02T08:54:13.197Z</time></trkpt><trkpt lat="45.4224867" lon="10.7257583"><ele>103.0</ele><time>2026-04-02T08:54:14.199Z</time></trkpt><trkpt lat="45.422465" lon="10.7258917"><ele>103.0</ele><time>2026-04-02T08:54:15.201Z</time></trkpt><trkpt lat="45.4224417" lon="10.7260067"><ele>103.0</ele><time>2026-04-02T08:54:16.2Z</time></trkpt><trkpt lat="45.42237" lon="10.726125"><ele>103.0</ele><time>2026-04-02T08:54:18.2Z</time></trkpt><trkpt lat="45.422215" lon="10.7260467"><ele>103.0</ele><time>2026-04-02T08:54:20.207Z</time></trkpt><trkpt lat="45.4221183" lon="10.7259883"><ele>103.0</ele><time>2026-04-02T08:54:21.194Z</time></trkpt><trkpt lat="45.4220133" lon="10.725935"><ele>103.0</ele><time>2026-04-02T08:54:22.204Z</time></trkpt><trkpt lat="45.421895" lon="10.7258783"><ele>103.0</ele><time>2026-04-02T08:54:23.203Z</time></trkpt><trkpt lat="45.4217417" lon="10.725855"><ele>103.0</ele><time>2026-04-02T08:54:24.205Z</time></trkpt><trkpt lat="45.421595" lon="10.7257967"><ele>103.0</ele><time>2026-04-02T08:54:25.2Z</time></trkpt><trkpt lat="45.4214" lon="10.725755"><ele>103.0</ele><time>2026-04-02T08:54:26.198Z</time></trkpt><trkpt lat="45.4212267" lon="10.725695"><ele>103.0</ele><time>2026-04-02T08:54:27.197Z</time></trkpt><trkpt lat="45.42108" lon="10.72564"><ele>101.66666666666667</ele><time>2026-04-02T08:54:28.197Z</time></trkpt><trkpt lat="45.420895" lon="10.7255983"><ele>100.33333333333334</ele><time>2026-04-02T08:54:29.198Z</time></trkpt><trkpt lat="45.4207167" lon="10.7255417"><ele>99.0</ele><time>2026-04-02T08:54:30.2Z</time></trkpt><trkpt lat="45.4205317" lon="10.72548"><ele>98.0</ele><time>2026-04-02T08:54:31.205Z</time></trkpt><trkpt lat="45.4203417" lon="10.7254183"><ele>97.0</ele><time>2026-04-02T08:54:32.211Z</time></trkpt><trkpt lat="45.4201433" lon="10.725345"><ele>96.0</ele><time>2026-04-02T08:54:33.201Z</time></trkpt><trkpt lat="45.41996" lon="10.7252683"><ele>95.66666666666667</ele><time>2026-04-02T08:54:34.193Z</time></trkpt><trkpt lat="45.4197683" lon="10.72517"><ele>95.33333333333334</ele><time>2026-04-02T08:54:35.199Z</time></trkpt><trkpt lat="45.4195633" lon="10.72505"><ele>95.0</ele><time>2026-04-02T08:54:36.199Z</time></trkpt><trkpt lat="45.419365" lon="10.7249183"><ele>95.0</ele><time>2026-04-02T08:54:37.194Z</time></trkpt><trkpt lat="45.4191767" lon="10.7248033"><ele>95.0</ele><time>2026-04-02T08:54:38.198Z</time></trkpt><trkpt lat="45.41899" lon="10.724695"><ele>95.0</ele><time>2026-04-02T08:54:39.199Z</time></trkpt><trkpt lat="45.41883" lon="10.7246067"><ele>95.25</ele><time>2026-04-02T08:54:40.202Z</time></trkpt><trkpt lat="45.4186867" lon="10.724505"><ele>95.5</ele><time>2026-04-02T08:54:41.196Z</time></trkpt><trkpt lat="45.4185567" lon="10.7244433"><ele>95.75</ele><time>2026-04-02T08:54:42.199Z</time></trkpt><trkpt lat="45.4184633" lon="10.7243883"><ele>96.0</ele><time>2026-04-02T08:54:43.201Z</time></trkpt><trkpt lat="45.4183717" lon="10.7243517"><ele>96.0</ele><time>2026-04-02T08:54:44.211Z</time></trkpt><trkpt lat="45.418285" lon="10.7243133"><ele>96.0</ele><time>2026-04-02T08:54:45.199Z</time></trkpt><trkpt lat="45.4181933" lon="10.7242833"><ele>96.0</ele><time>2026-04-02T08:54:46.198Z</time></trkpt><trkpt lat="45.4180967" lon="10.7242733"><ele>96.0</ele><time>2026-04-02T08:54:47.195Z</time></trkpt><trkpt lat="45.4179983" lon="10.72427"><ele>96.0</ele><time>2026-04-02T08:54:48.204Z</time></trkpt><trkpt lat="45.4178967" lon="10.7242783"><ele>96.0</ele><time>2026-04-02T08:54:49.195Z</time></trkpt><trkpt lat="45.4178217" lon="10.7242667"><ele>96.0</ele><time>2026-04-02T08:54:50.195Z</time></trkpt><trkpt lat="45.417745" lon="10.7242633"><ele>96.0</ele><time>2026-04-02T08:54:51.221Z</time></trkpt><trkpt lat="45.4176733" lon="10.7242517"><ele>96.0</ele><time>2026-04-02T08:54:52.198Z</time></trkpt><trkpt lat="45.4176067" lon="10.72424"><ele>96.0</ele><time>2026-04-02T08:54:53.197Z</time></trkpt><trkpt lat="45.4174867" lon="10.7242067"><ele>96.0</ele><time>2026-04-02T08:54:55.191Z</time></trkpt><trkpt lat="45.4174183" lon="10.7241833"><ele>95.99999999999999</ele><time>2026-04-02T08:54:56.196Z</time></trkpt><trkpt lat="45.41735" lon="10.72416"><ele>96.0</ele><time>2026-04-02T08:54:57.196Z</time></trkpt><trkpt lat="45.4172833" lon="10.7241333"><ele>96.0</ele><time>2026-04-02T08:54:58.197Z</time></trkpt><trkpt lat="45.4172233" lon="10.724105"><ele>96.0</ele><time>2026-04-02T08:54:59.195Z</time></trkpt><trkpt lat="45.4171617" lon="10.72407"><ele>96.0</ele><time>2026-04-02T08:55:00.199Z</time></trkpt><trkpt lat="45.4171033" lon="10.724035"><ele>95.99999999999999</ele><time>2026-04-02T08:55:01.204Z</time></trkpt><trkpt lat="45.4169983" lon="10.723975"><ele>96.0</ele><time>2026-04-02T08:55:03.201Z</time></trkpt><trkpt lat="45.4169017" lon="10.72393"><ele>96.0</ele><time>2026-04-02T08:55:05.2Z</time></trkpt><trkpt lat="45.416805" lon="10.723905"><ele>96.0</ele><time>2026-04-02T08:55:07.199Z</time></trkpt><trkpt lat="45.4167217" lon="10.7239117"><ele>96.0</ele><time>2026-04-02T08:55:09.198Z</time></trkpt><trkpt lat="45.41664" lon="10.72398"><ele>96.0</ele><time>2026-04-02T08:55:11.206Z</time></trkpt><trkpt lat="45.4165517" lon="10.7240633"><ele>96.0</ele><time>2026-04-02T08:55:13.199Z</time></trkpt><trkpt lat="45.4164983" lon="10.7241167"><ele>96.0</ele><time>2026-04-02T08:55:14.197Z</time></trkpt><trkpt lat="45.4164433" lon="10.7241767"><ele>95.99999999999999</ele><time>2026-04-02T08:55:15.204Z</time></trkpt><trkpt lat="45.416385" lon="10.72425"><ele>96.0</ele><time>2026-04-02T08:55:16.2Z</time></trkpt><trkpt lat="45.416325" lon="10.724335"><ele>96.0</ele><time>2026-04-02T08:55:17.204Z</time></trkpt><trkpt lat="45.4162783" lon="10.7244183"><ele>96.0</ele><time>2026-04-02T08:55:18.199Z</time></trkpt><trkpt lat="45.4162333" lon="10.7244967"><ele>96.0</ele><time>2026-04-02T08:55:19.208Z</time></trkpt><trkpt lat="45.4161933" lon="10.7245767"><ele>95.99999999999999</ele><time>2026-04-02T08:55:20.2Z</time></trkpt><trkpt lat="45.4161583" lon="10.7246567"><ele>96.0</ele><time>2026-04-02T08:55:21.196Z</time></trkpt><trkpt lat="45.41612" lon="10.724735"><ele>95.57142857142857</ele><time>2026-04-02T08:55:22.198Z</time></trkpt><trkpt lat="45.416085" lon="10.724815"><ele>95.14285714285714</ele><time>2026-04-02T08:55:23.201Z</time></trkpt><trkpt lat="45.4160483" lon="10.7249"><ele>94.71428571428572</ele><time>2026-04-02T08:55:24.199Z</time></trkpt><trkpt lat="45.4160117" lon="10.724985"><ele>94.28571428571428</ele><time>2026-04-02T08:55:25.2Z</time></trkpt><trkpt lat="45.4159683" lon="10.7250683"><ele>93.85714285714286</ele><time>2026-04-02T08:55:26.197Z</time></trkpt><trkpt lat="45.4159167" lon="10.7251483"><ele>93.42857142857143</ele><time>2026-04-02T08:55:27.202Z</time></trkpt><trkpt lat="45.4158683" lon="10.7252333"><ele>93.0</ele><time>2026-04-02T08:55:28.194Z</time></trkpt><trkpt lat="45.4158167" lon="10.7253083"><ele>92.66666666666667</ele><time>2026-04-02T08:55:29.199Z</time></trkpt><trkpt lat="45.4157633" lon="10.7253817"><ele>92.33333333333333</ele><time>2026-04-02T08:55:30.198Z</time></trkpt><trkpt lat="45.4157067" lon="10.7254533"><ele>92.0</ele><time>2026-04-02T08:55:31.196Z</time></trkpt><trkpt lat="45.415645" lon="10.7255333"><ele>91.66666666666666</ele><time>2026-04-02T08:55:32.214Z</time></trkpt><trkpt lat="45.4155883" lon="10.725625"><ele>91.33333333333333</ele><time>2026-04-02T08:55:33.206Z</time></trkpt><trkpt lat="45.415525" lon="10.7257167"><ele>91.0</ele><time>2026-04-02T08:55:34.194Z</time></trkpt><trkpt lat="45.4154567" lon="10.7258083"><ele>91.0</ele><time>2026-04-02T08:55:35.192Z</time></trkpt><trkpt lat="45.41538" lon="10.7259017"><ele>91.0</ele><time>2026-04-02T08:55:36.21Z</time></trkpt><trkpt lat="45.41529" lon="10.7259883"><ele>91.0</ele><time>2026-04-02T08:55:37.205Z</time></trkpt><trkpt lat="45.4152533" lon="10.726135"><ele>91.0</ele><time>2026-04-02T08:55:38.197Z</time></trkpt><trkpt lat="45.41517" lon="10.7262467"><ele>91.0</ele><time>2026-04-02T08:55:39.204Z</time></trkpt><trkpt lat="45.4150983" lon="10.72632"><ele>91.16666666666666</ele><time>2026-04-02T08:55:40.201Z</time></trkpt><trkpt lat="45.4150133" lon="10.7263683"><ele>91.33333333333333</ele><time>2026-04-02T08:55:41.195Z</time></trkpt><trkpt lat="45.414945" lon="10.7264217"><ele>91.5</ele><time>2026-04-02T08:55:42.204Z</time></trkpt><trkpt lat="45.414875" lon="10.72646"><ele>91.66666666666667</ele><time>2026-04-02T08:55:43.205Z</time></trkpt><trkpt lat="45.414805" lon="10.7265017"><ele>91.83333333333334</ele><time>2026-04-02T08:55:44.197Z</time></trkpt><trkpt lat="45.41473" lon="10.726565"><ele>92.0</ele><time>2026-04-02T08:55:45.201Z</time></trkpt><trkpt lat="45.4146383" lon="10.726635"><ele>91.5</ele><time>2026-04-02T08:55:46.199Z</time></trkpt><trkpt lat="45.41453" lon="10.726645"><ele>91.0</ele><time>2026-04-02T08:55:47.201Z</time></trkpt><trkpt lat="45.4144233" lon="10.7266917"><ele>90.5</ele><time>2026-04-02T08:55:48.202Z</time></trkpt><trkpt lat="45.414285" lon="10.72676"><ele>90.0</ele><time>2026-04-02T08:55:49.201Z</time></trkpt><trkpt lat="45.41415" lon="10.7267933"><ele>90.0</ele><time>2026-04-02T08:55:50.203Z</time></trkpt><trkpt lat="45.414015" lon="10.72682"><ele>90.0</ele><time>2026-04-02T08:55:51.201Z</time></trkpt><trkpt lat="45.4138717" lon="10.7268117"><ele>90.0</ele><time>2026-04-02T08:55:52.198Z</time></trkpt><trkpt lat="45.41372" lon="10.7268333"><ele>90.0</ele><time>2026-04-02T08:55:53.196Z</time></trkpt><trkpt lat="45.4135817" lon="10.726865"><ele>90.0</ele><time>2026-04-02T08:55:54.197Z</time></trkpt><trkpt lat="45.4134683" lon="10.7268517"><ele>90.0</ele><time>2026-04-02T08:55:55.197Z</time></trkpt><trkpt lat="45.41335" lon="10.7268683"><ele>90.0</ele><time>2026-04-02T08:55:56.199Z</time></trkpt><trkpt lat="45.413255" lon="10.7269667"><ele>90.0</ele><time>2026-04-02T08:55:57.199Z</time></trkpt><trkpt lat="45.4131333" lon="10.726965"><ele>90.0</ele><time>2026-04-02T08:55:58.199Z</time></trkpt><trkpt lat="45.4130183" lon="10.72689"><ele>90.0</ele><time>2026-04-02T08:55:59.199Z</time></trkpt><trkpt lat="45.4128833" lon="10.7268267"><ele>90.0</ele><time>2026-04-02T08:56:00.206Z</time></trkpt><trkpt lat="45.41275" lon="10.7267333"><ele>90.0</ele><time>2026-04-02T08:56:01.205Z</time></trkpt><trkpt lat="45.41259" lon="10.7266017"><ele>89.66666666666667</ele><time>2026-04-02T08:56:02.202Z</time></trkpt><trkpt lat="45.4124533" lon="10.7264483"><ele>89.33333333333334</ele><time>2026-04-02T08:56:03.194Z</time></trkpt><trkpt lat="45.4123317" lon="10.7262917"><ele>89.0</ele><time>2026-04-02T08:56:04.197Z</time></trkpt><trkpt lat="45.41221" lon="10.7261233"><ele>89.33333333333334</ele><time>2026-04-02T08:56:05.214Z</time></trkpt><trkpt lat="45.41206" lon="10.7259883"><ele>89.66666666666667</ele><time>2026-04-02T08:56:06.212Z</time></trkpt><trkpt lat="45.4119033" lon="10.7258483"><ele>90.0</ele><time>2026-04-02T08:56:07.196Z</time></trkpt><trkpt lat="45.4117517" lon="10.72571"><ele>90.0</ele><time>2026-04-02T08:56:08.2Z</time></trkpt><trkpt lat="45.4116033" lon="10.7255967"><ele>90.0</ele><time>2026-04-02T08:56:09.214Z</time></trkpt><trkpt lat="45.411455" lon="10.72546"><ele>90.0</ele><time>2026-04-02T08:56:10.194Z</time></trkpt><trkpt lat="45.4112983" lon="10.72533"><ele>90.33333333333333</ele><time>2026-04-02T08:56:11.198Z</time></trkpt><trkpt lat="45.4111233" lon="10.7252067"><ele>90.66666666666666</ele><time>2026-04-02T08:56:12.198Z</time></trkpt><trkpt lat="45.4109483" lon="10.7250933"><ele>91.0</ele><time>2026-04-02T08:56:13.198Z</time></trkpt><trkpt lat="45.410795" lon="10.7250083"><ele>91.0</ele><time>2026-04-02T08:56:14.197Z</time></trkpt><trkpt lat="45.410675" lon="10.724935"><ele>91.0</ele><time>2026-04-02T08:56:15.196Z</time></trkpt><trkpt lat="45.4105333" lon="10.7248833"><ele>91.0</ele><time>2026-04-02T08:56:16.195Z</time></trkpt><trkpt lat="45.4104067" lon="10.7248383"><ele>91.0</ele><time>2026-04-02T08:56:17.198Z</time></trkpt><trkpt lat="45.41027" lon="10.7247883"><ele>91.0</ele><time>2026-04-02T08:56:18.2Z</time></trkpt><trkpt lat="45.4101617" lon="10.724735"><ele>91.0</ele><time>2026-04-02T08:56:19.197Z</time></trkpt><trkpt lat="45.410055" lon="10.724715"><ele>91.0</ele><time>2026-04-02T08:56:20.202Z</time></trkpt><trkpt lat="45.409945" lon="10.7246683"><ele>91.0</ele><time>2026-04-02T08:56:21.197Z</time></trkpt><trkpt lat="45.4098083" lon="10.7246033"><ele>91.0</ele><time>2026-04-02T08:56:22.198Z</time></trkpt><trkpt lat="45.40964" lon="10.724535"><ele>91.0</ele><time>2026-04-02T08:56:23.203Z</time></trkpt><trkpt lat="45.4094567" lon="10.724495"><ele>91.0</ele><time>2026-04-02T08:56:24.201Z</time></trkpt><trkpt lat="45.4092583" lon="10.72442"><ele>90.66666666666666</ele><time>2026-04-02T08:56:25.196Z</time></trkpt><trkpt lat="45.4090433" lon="10.7243767"><ele>90.33333333333333</ele><time>2026-04-02T08:56:26.2Z</time></trkpt><trkpt lat="45.4088367" lon="10.7242933"><ele>90.0</ele><time>2026-04-02T08:56:27.202Z</time></trkpt><trkpt lat="45.4086333" lon="10.7242117"><ele>89.33333333333333</ele><time>2026-04-02T08:56:28.198Z</time></trkpt><trkpt lat="45.4084283" lon="10.7241117"><ele>88.66666666666666</ele><time>2026-04-02T08:56:29.196Z</time></trkpt><trkpt lat="45.4082283" lon="10.7240183"><ele>88.0</ele><time>2026-04-02T08:56:30.206Z</time></trkpt><trkpt lat="45.4080517" lon="10.723915"><ele>87.66666666666666</ele><time>2026-04-02T08:56:31.199Z</time></trkpt><trkpt lat="45.4078883" lon="10.7238133"><ele>87.33333333333333</ele><time>2026-04-02T08:56:32.196Z</time></trkpt><trkpt lat="45.407745" lon="10.7237433"><ele>87.0</ele><time>2026-04-02T08:56:33.211Z</time></trkpt><trkpt lat="45.40763" lon="10.7236767"><ele>87.0</ele><time>2026-04-02T08:56:34.203Z</time></trkpt><trkpt lat="45.4075483" lon="10.7236067"><ele>87.0</ele><time>2026-04-02T08:56:35.191Z</time></trkpt><trkpt lat="45.407475" lon="10.7235267"><ele>87.0</ele><time>2026-04-02T08:56:36.206Z</time></trkpt><trkpt lat="45.4073633" lon="10.7234783"><ele>87.0</ele><time>2026-04-02T08:56:37.202Z</time></trkpt><trkpt lat="45.4072583" lon="10.7234333"><ele>87.0</ele><time>2026-04-02T08:56:38.196Z</time></trkpt><trkpt lat="45.40717" lon="10.7233683"><ele>87.16666666666667</ele><time>2026-04-02T08:56:39.202Z</time></trkpt><trkpt lat="45.4070933" lon="10.7233"><ele>87.33333333333333</ele><time>2026-04-02T08:56:40.203Z</time></trkpt><trkpt lat="45.4070233" lon="10.72326"><ele>87.5</ele><time>2026-04-02T08:56:41.208Z</time></trkpt><trkpt lat="45.4069467" lon="10.7232017"><ele>87.66666666666666</ele><time>2026-04-02T08:56:42.198Z</time></trkpt><trkpt lat="45.4068667" lon="10.7231517"><ele>87.83333333333333</ele><time>2026-04-02T08:56:43.196Z</time></trkpt><trkpt lat="45.4067617" lon="10.723125"><ele>88.0</ele><time>2026-04-02T08:56:44.201Z</time></trkpt><trkpt lat="45.4066883" lon="10.72308"><ele>88.0</ele><time>2026-04-02T08:56:45.195Z</time></trkpt><trkpt lat="45.406605" lon="10.7230117"><ele>88.0</ele><time>2026-04-02T08:56:46.202Z</time></trkpt><trkpt lat="45.4065233" lon="10.7229367"><ele>88.0</ele><time>2026-04-02T08:56:47.199Z</time></trkpt><trkpt lat="45.40644" lon="10.72286"><ele>88.0</ele><time>2026-04-02T08:56:48.197Z</time></trkpt><trkpt lat="45.406345" lon="10.722805"><ele>88.0</ele><time>2026-04-02T08:56:49.2Z</time></trkpt><trkpt lat="45.406255" lon="10.7227733"><ele>88.75</ele><time>2026-04-02T08:56:50.192Z</time></trkpt><trkpt lat="45.4061467" lon="10.7227117"><ele>89.5</ele><time>2026-04-02T08:56:51.199Z</time></trkpt><trkpt lat="45.4060333" lon="10.72265"><ele>90.25</ele><time>2026-04-02T08:56:52.206Z</time></trkpt><trkpt lat="45.4059233" lon="10.7225767"><ele>91.0</ele><time>2026-04-02T08:56:53.201Z</time></trkpt><trkpt lat="45.4058217" lon="10.722515"><ele>91.0</ele><time>2026-04-02T08:56:54.203Z</time></trkpt><trkpt lat="45.405725" lon="10.722455"><ele>91.0</ele><time>2026-04-02T08:56:55.197Z</time></trkpt><trkpt lat="45.40563" lon="10.7224033"><ele>91.0</ele><time>2026-04-02T08:56:56.2Z</time></trkpt><trkpt lat="45.405535" lon="10.7223583"><ele>91.0</ele><time>2026-04-02T08:56:57.197Z</time></trkpt><trkpt lat="45.4054533" lon="10.72232"><ele>91.0</ele><time>2026-04-02T08:56:58.193Z</time></trkpt><trkpt lat="45.4053917" lon="10.7222867"><ele>91.0</ele><time>2026-04-02T08:56:59.205Z</time></trkpt><trkpt lat="45.4053133" lon="10.7223"><ele>91.0</ele><time>2026-04-02T08:57:01.194Z</time></trkpt><trkpt lat="45.405255" lon="10.7224217"><ele>91.0</ele><time>2026-04-02T08:57:03.196Z</time></trkpt><trkpt lat="45.4052283" lon="10.7225267"><ele>91.0</ele><time>2026-04-02T08:57:04.204Z</time></trkpt><trkpt lat="45.4052" lon="10.7226567"><ele>91.0</ele><time>2026-04-02T08:57:05.199Z</time></trkpt><trkpt lat="45.4051817" lon="10.7228267"><ele>91.0</ele><time>2026-04-02T08:57:06.198Z</time></trkpt><trkpt lat="45.4051367" lon="10.7230117"><ele>91.0</ele><time>2026-04-02T08:57:07.203Z</time></trkpt><trkpt lat="45.4050733" lon="10.7232117"><ele>91.0</ele><time>2026-04-02T08:57:08.199Z</time></trkpt><trkpt lat="45.4050267" lon="10.7233767"><ele>91.0</ele><time>2026-04-02T08:57:09.198Z</time></trkpt><trkpt lat="45.4049833" lon="10.723515"><ele>91.0</ele><time>2026-04-02T08:57:10.197Z</time></trkpt><trkpt lat="45.4049517" lon="10.7236217"><ele>91.0</ele><time>2026-04-02T08:57:11.198Z</time></trkpt><trkpt lat="45.4048833" lon="10.7237067"><ele>91.0</ele><time>2026-04-02T08:57:13.198Z</time></trkpt><trkpt lat="45.404745" lon="10.723655"><ele>91.0</ele><time>2026-04-02T08:57:15.198Z</time></trkpt><trkpt lat="45.4046533" lon="10.7235917"><ele>91.0</ele><time>2026-04-02T08:57:16.19Z</time></trkpt><trkpt lat="45.404555" lon="10.7234967"><ele>90.75</ele><time>2026-04-02T08:57:17.202Z</time></trkpt><trkpt lat="45.40443" lon="10.7234483"><ele>90.5</ele><time>2026-04-02T08:57:18.199Z</time></trkpt><trkpt lat="45.40429" lon="10.723395"><ele>90.25</ele><time>2026-04-02T08:57:19.198Z</time></trkpt><trkpt lat="45.4041617" lon="10.7233283"><ele>90.0</ele><time>2026-04-02T08:57:20.196Z</time></trkpt><trkpt lat="45.403985" lon="10.723255"><ele>90.0</ele><time>2026-04-02T08:57:21.194Z</time></trkpt><trkpt lat="45.4038483" lon="10.7231433"><ele>90.0</ele><time>2026-04-02T08:57:22.193Z</time></trkpt><trkpt lat="45.4036867" lon="10.7230467"><ele>90.0</ele><time>2026-04-02T08:57:23.192Z</time></trkpt><trkpt lat="45.4035283" lon="10.7229483"><ele>90.5</ele><time>2026-04-02T08:57:24.202Z</time></trkpt><trkpt lat="45.4033983" lon="10.7228467"><ele>91.0</ele><time>2026-04-02T08:57:25.196Z</time></trkpt><trkpt lat="45.403275" lon="10.7227667"><ele>91.5</ele><time>2026-04-02T08:57:26.208Z</time></trkpt><trkpt lat="45.40316" lon="10.7226817"><ele>92.0</ele><time>2026-04-02T08:57:27.195Z</time></trkpt><trkpt lat="45.4030567" lon="10.7226133"><ele>92.33333333333334</ele><time>2026-04-02T08:57:28.199Z</time></trkpt><trkpt lat="45.402975" lon="10.7225617"><ele>92.66666666666667</ele><time>2026-04-02T08:57:29.201Z</time></trkpt><trkpt lat="45.402905" lon="10.7225317"><ele>93.0</ele><time>2026-04-02T08:57:30.197Z</time></trkpt><trkpt lat="45.4028233" lon="10.7225867"><ele>93.33333333333333</ele><time>2026-04-02T08:57:38.199Z</time></trkpt><trkpt lat="45.4028067" lon="10.7226783"><ele>93.66666666666666</ele><time>2026-04-02T08:57:39.194Z</time></trkpt><trkpt lat="45.4028017" lon="10.7228"><ele>94.0</ele><time>2026-04-02T08:57:40.205Z</time></trkpt><trkpt lat="45.4028017" lon="10.722955"><ele>95.75</ele><time>2026-04-02T08:57:41.205Z</time></trkpt><trkpt lat="45.4028233" lon="10.7231333"><ele>97.5</ele><time>2026-04-02T08:57:42.203Z</time></trkpt><trkpt lat="45.4028433" lon="10.723315"><ele>99.25</ele><time>2026-04-02T08:57:43.204Z</time></trkpt><trkpt lat="45.4028633" lon="10.7234967"><ele>101.0</ele><time>2026-04-02T08:57:44.204Z</time></trkpt><trkpt lat="45.402885" lon="10.7236717"><ele>101.5</ele><time>2026-04-02T08:57:45.204Z</time></trkpt><trkpt lat="45.4029133" lon="10.7238767"><ele>102.0</ele><time>2026-04-02T08:57:46.2Z</time></trkpt><trkpt lat="45.402945" lon="10.7240767"><ele>102.5</ele><time>2026-04-02T08:57:47.204Z</time></trkpt><trkpt lat="45.4029583" lon="10.724295"><ele>103.0</ele><time>2026-04-02T08:57:48.199Z</time></trkpt><trkpt lat="45.4030117" lon="10.7245167"><ele>103.0</ele><time>2026-04-02T08:57:49.197Z</time></trkpt><trkpt lat="45.40304" lon="10.72475"><ele>103.0</ele><time>2026-04-02T08:57:50.198Z</time></trkpt><trkpt lat="45.4030883" lon="10.7249767"><ele>103.0</ele><time>2026-04-02T08:57:51.202Z</time></trkpt><trkpt lat="45.4030967" lon="10.7252083"><ele>103.80000000000001</ele><time>2026-04-02T08:57:52.199Z</time></trkpt><trkpt lat="45.403155" lon="10.72536"><ele>104.6</ele><time>2026-04-02T08:57:53.212Z</time></trkpt><trkpt lat="45.403195" lon="10.7254667"><ele>105.39999999999999</ele><time>2026-04-02T08:57:54.2Z</time></trkpt><trkpt lat="45.4031767" lon="10.7256133"><ele>106.19999999999999</ele><time>2026-04-02T08:57:55.197Z</time></trkpt><trkpt lat="45.4031433" lon="10.725735"><ele>107.0</ele><time>2026-04-02T08:57:56.203Z</time></trkpt><trkpt lat="45.4031283" lon="10.7258533"><ele>106.99999999999999</ele><time>2026-04-02T08:57:57.203Z</time></trkpt><trkpt lat="45.4031333" lon="10.725945"><ele>107.0</ele><time>2026-04-02T08:57:58.201Z</time></trkpt><trkpt lat="45.4031717" lon="10.7260467"><ele>107.0</ele><time>2026-04-02T08:57:59.203Z</time></trkpt><trkpt lat="45.40323" lon="10.72616"><ele>107.0</ele><time>2026-04-02T08:58:00.202Z</time></trkpt><trkpt lat="45.403285" lon="10.7262567"><ele>106.99999999999999</ele><time>2026-04-02T08:58:01.2Z</time></trkpt><trkpt lat="45.4033433" lon="10.726395"><ele>107.0</ele><time>2026-04-02T08:58:02.194Z</time></trkpt><trkpt lat="45.4033917" lon="10.726575"><ele>108.0</ele><time>2026-04-02T08:58:03.196Z</time></trkpt><trkpt lat="45.403485" lon="10.72669"><ele>109.0</ele><time>2026-04-02T08:58:04.198Z</time></trkpt><trkpt lat="45.403585" lon="10.7268633"><ele>110.0</ele><time>2026-04-02T08:58:05.197Z</time></trkpt><trkpt lat="45.4037167" lon="10.7270233"><ele>109.33333333333333</ele><time>2026-04-02T08:58:06.199Z</time></trkpt><trkpt lat="45.4038367" lon="10.7272033"><ele>108.66666666666666</ele><time>2026-04-02T08:58:07.199Z</time></trkpt><trkpt lat="45.4039633" lon="10.727385"><ele>108.0</ele><time>2026-04-02T08:58:08.193Z</time></trkpt><trkpt lat="45.4040717" lon="10.727595"><ele>109.33333333333334</ele><time>2026-04-02T08:58:09.202Z</time></trkpt><trkpt lat="45.40417" lon="10.72784"><ele>110.66666666666667</ele><time>2026-04-02T08:58:10.196Z</time></trkpt><trkpt lat="45.404295" lon="10.728095"><ele>112.0</ele><time>2026-04-02T08:58:11.194Z</time></trkpt><trkpt lat="45.4043267" lon="10.7283367"><ele>112.66666666666667</ele><time>2026-04-02T08:58:12.196Z</time></trkpt><trkpt lat="45.4044067" lon="10.7285717"><ele>113.33333333333334</ele><time>2026-04-02T08:58:13.199Z</time></trkpt><trkpt lat="45.4044767" lon="10.7288067"><ele>114.0</ele><time>2026-04-02T08:58:14.213Z</time></trkpt><trkpt lat="45.4045583" lon="10.7290083"><ele>114.0</ele><time>2026-04-02T08:58:15.202Z</time></trkpt><trkpt lat="45.4046533" lon="10.7291767"><ele>114.0</ele><time>2026-04-02T08:58:16.197Z</time></trkpt><trkpt lat="45.4047483" lon="10.7293367"><ele>114.0</ele><time>2026-04-02T08:58:17.196Z</time></trkpt><trkpt lat="45.404865" lon="10.72947"><ele>114.0</ele><time>2026-04-02T08:58:18.194Z</time></trkpt><trkpt lat="45.4049867" lon="10.7296367"><ele>113.33333333333334</ele><time>2026-04-02T08:58:19.202Z</time></trkpt><trkpt lat="45.40511" lon="10.7297867"><ele>112.66666666666667</ele><time>2026-04-02T08:58:20.198Z</time></trkpt><trkpt lat="45.4052167" lon="10.729975"><ele>112.0</ele><time>2026-04-02T08:58:21.194Z</time></trkpt><trkpt lat="45.4053483" lon="10.730155"><ele>111.33333333333334</ele><time>2026-04-02T08:58:22.206Z</time></trkpt><trkpt lat="45.4054567" lon="10.73034"><ele>110.66666666666666</ele><time>2026-04-02T08:58:23.201Z</time></trkpt><trkpt lat="45.4055567" lon="10.7305117"><ele>110.0</ele><time>2026-04-02T08:58:24.196Z</time></trkpt><trkpt lat="45.4056567" lon="10.73065"><ele>110.0</ele><time>2026-04-02T08:58:25.201Z</time></trkpt><trkpt lat="45.4057683" lon="10.73079"><ele>110.0</ele><time>2026-04-02T08:58:26.204Z</time></trkpt><trkpt lat="45.4058633" lon="10.7309167"><ele>110.0</ele><time>2026-04-02T08:58:27.202Z</time></trkpt><trkpt lat="45.4059517" lon="10.731045"><ele>110.0</ele><time>2026-04-02T08:58:28.202Z</time></trkpt><trkpt lat="45.4060367" lon="10.731175"><ele>108.75</ele><time>2026-04-02T08:58:29.202Z</time></trkpt><trkpt lat="45.40611" lon="10.731305"><ele>107.5</ele><time>2026-04-02T08:58:30.203Z</time></trkpt><trkpt lat="45.4061967" lon="10.73145"><ele>106.25</ele><time>2026-04-02T08:58:31.197Z</time></trkpt><trkpt lat="45.4062667" lon="10.7315983"><ele>105.0</ele><time>2026-04-02T08:58:32.2Z</time></trkpt><trkpt lat="45.4063083" lon="10.73178"><ele>106.0</ele><time>2026-04-02T08:58:33.198Z</time></trkpt><trkpt lat="45.406335" lon="10.7319717"><ele>107.0</ele><time>2026-04-02T08:58:34.192Z</time></trkpt><trkpt lat="45.4063633" lon="10.7321817"><ele>108.0</ele><time>2026-04-02T08:58:35.196Z</time></trkpt><trkpt lat="45.4063717" lon="10.7324033"><ele>109.0</ele><time>2026-04-02T08:58:36.199Z</time></trkpt><trkpt lat="45.4064067" lon="10.732605"><ele>108.5</ele><time>2026-04-02T08:58:37.199Z</time></trkpt><trkpt lat="45.4064317" lon="10.7328167"><ele>108.0</ele><time>2026-04-02T08:58:38.204Z</time></trkpt><trkpt lat="45.406455" lon="10.73302"><ele>107.5</ele><time>2026-04-02T08:58:39.211Z</time></trkpt><trkpt lat="45.4064633" lon="10.7332"><ele>107.0</ele><time>2026-04-02T08:58:40.201Z</time></trkpt><trkpt lat="45.40649" lon="10.733375"><ele>107.0</ele><time>2026-04-02T08:58:41.208Z</time></trkpt><trkpt lat="45.4065083" lon="10.7335367"><ele>106.99999999999999</ele><time>2026-04-02T08:58:42.199Z</time></trkpt><trkpt lat="45.4065383" lon="10.7336933"><ele>106.99999999999999</ele><time>2026-04-02T08:58:43.197Z</time></trkpt><trkpt lat="45.4065733" lon="10.73381"><ele>107.0</ele><time>2026-04-02T08:58:44.209Z</time></trkpt><trkpt lat="45.4066483" lon="10.733955"><ele>107.0</ele><time>2026-04-02T08:58:45.217Z</time></trkpt><trkpt lat="45.4067017" lon="10.7341283"><ele>107.0</ele><time>2026-04-02T08:58:46.199Z</time></trkpt><trkpt lat="45.406775" lon="10.7342817"><ele>107.0</ele><time>2026-04-02T08:58:47.193Z</time></trkpt><trkpt lat="45.4068483" lon="10.7344317"><ele>107.0</ele><time>2026-04-02T08:58:48.201Z</time></trkpt><trkpt lat="45.4068983" lon="10.7346133"><ele>107.0</ele><time>2026-04-02T08:58:49.198Z</time></trkpt><trkpt lat="45.4069667" lon="10.7347683"><ele>107.0</ele><time>2026-04-02T08:58:50.203Z</time></trkpt><trkpt lat="45.4070267" lon="10.7349333"><ele>107.0</ele><time>2026-04-02T08:58:51.208Z</time></trkpt><trkpt lat="45.4070833" lon="10.735085"><ele>107.0</ele><time>2026-04-02T08:58:52.209Z</time></trkpt><trkpt lat="45.407135" lon="10.7352517"><ele>107.0</ele><time>2026-04-02T08:58:53.207Z</time></trkpt><trkpt lat="45.4071883" lon="10.7353817"><ele>106.5</ele><time>2026-04-02T08:58:54.206Z</time></trkpt><trkpt lat="45.407235" lon="10.7355283"><ele>106.0</ele><time>2026-04-02T08:58:55.199Z</time></trkpt><trkpt lat="45.4072583" lon="10.7356817"><ele>105.5</ele><time>2026-04-02T08:58:56.196Z</time></trkpt><trkpt lat="45.4072767" lon="10.7358283"><ele>105.0</ele><time>2026-04-02T08:58:57.198Z</time></trkpt><trkpt lat="45.4072983" lon="10.7360017"><ele>105.16666666666667</ele><time>2026-04-02T08:58:58.197Z</time></trkpt><trkpt lat="45.4073333" lon="10.736105"><ele>105.33333333333334</ele><time>2026-04-02T08:58:59.198Z</time></trkpt><trkpt lat="45.4073667" lon="10.73623"><ele>105.5</ele><time>2026-04-02T08:59:00.201Z</time></trkpt><trkpt lat="45.4073983" lon="10.7363417"><ele>105.66666666666667</ele><time>2026-04-02T08:59:01.195Z</time></trkpt><trkpt lat="45.4074533" lon="10.736405"><ele>105.83333333333334</ele><time>2026-04-02T08:59:03.195Z</time></trkpt><trkpt lat="45.4075533" lon="10.7363617"><ele>106.0</ele><time>2026-04-02T08:59:05.209Z</time></trkpt><trkpt lat="45.4076183" lon="10.7363283"><ele>106.00000000000001</ele><time>2026-04-02T08:59:06.198Z</time></trkpt><trkpt lat="45.407685" lon="10.7362833"><ele>106.0</ele><time>2026-04-02T08:59:07.204Z</time></trkpt><trkpt lat="45.407755" lon="10.7362417"><ele>106.0</ele><time>2026-04-02T08:59:08.193Z</time></trkpt><trkpt lat="45.4078283" lon="10.736205"><ele>106.0</ele><time>2026-04-02T08:59:09.196Z</time></trkpt><trkpt lat="45.407905" lon="10.736165"><ele>106.00000000000001</ele><time>2026-04-02T08:59:10.196Z</time></trkpt><trkpt lat="45.4079783" lon="10.736135"><ele>106.0</ele><time>2026-04-02T08:59:11.2Z</time></trkpt><trkpt lat="45.4080483" lon="10.7361033"><ele>106.16666666666667</ele><time>2026-04-02T08:59:12.194Z</time></trkpt><trkpt lat="45.4081267" lon="10.736075"><ele>106.33333333333334</ele><time>2026-04-02T08:59:13.199Z</time></trkpt><trkpt lat="45.4082117" lon="10.7360333"><ele>106.5</ele><time>2026-04-02T08:59:14.196Z</time></trkpt><trkpt lat="45.408295" lon="10.7360217"><ele>106.66666666666666</ele><time>2026-04-02T08:59:15.196Z</time></trkpt><trkpt lat="45.4083867" lon="10.7360217"><ele>106.83333333333333</ele><time>2026-04-02T08:59:16.192Z</time></trkpt><trkpt lat="45.408475" lon="10.7360517"><ele>107.0</ele><time>2026-04-02T08:59:17.2Z</time></trkpt><trkpt lat="45.408585" lon="10.7360733"><ele>107.8</ele><time>2026-04-02T08:59:18.195Z</time></trkpt><trkpt lat="45.408685" lon="10.736145"><ele>108.6</ele><time>2026-04-02T08:59:19.204Z</time></trkpt><trkpt lat="45.4087767" lon="10.736205"><ele>109.39999999999999</ele><time>2026-04-02T08:59:20.199Z</time></trkpt><trkpt lat="45.4088817" lon="10.7362517"><ele>110.19999999999999</ele><time>2026-04-02T08:59:21.199Z</time></trkpt><trkpt lat="45.408995" lon="10.7362717"><ele>111.0</ele><time>2026-04-02T08:59:22.193Z</time></trkpt><trkpt lat="45.4090917" lon="10.7363417"><ele>111.6</ele><time>2026-04-02T08:59:23.217Z</time></trkpt><trkpt lat="45.40921" lon="10.7363917"><ele>112.19999999999999</ele><time>2026-04-02T08:59:24.191Z</time></trkpt><trkpt lat="45.4093183" lon="10.7364633"><ele>112.80000000000001</ele><time>2026-04-02T08:59:25.214Z</time></trkpt><trkpt lat="45.4094033" lon="10.7365417"><ele>113.4</ele><time>2026-04-02T08:59:26.209Z</time></trkpt><trkpt lat="45.409485" lon="10.7365883"><ele>114.0</ele><time>2026-04-02T08:59:27.207Z</time></trkpt><trkpt lat="45.4095617" lon="10.7366267"><ele>114.0</ele><time>2026-04-02T08:59:28.209Z</time></trkpt><trkpt lat="45.4096317" lon="10.7366667"><ele>113.99999999999999</ele><time>2026-04-02T08:59:29.205Z</time></trkpt><trkpt lat="45.4096933" lon="10.736705"><ele>114.0</ele><time>2026-04-02T08:59:30.205Z</time></trkpt><trkpt lat="45.409755" lon="10.73674"><ele>114.0</ele><time>2026-04-02T08:59:31.204Z</time></trkpt><trkpt lat="45.4098117" lon="10.7367817"><ele>113.99999999999999</ele><time>2026-04-02T08:59:32.201Z</time></trkpt><trkpt lat="45.4098733" lon="10.736825"><ele>114.0</ele><time>2026-04-02T08:59:33.202Z</time></trkpt><trkpt lat="45.4099417" lon="10.7368633"><ele>114.0</ele><time>2026-04-02T08:59:34.195Z</time></trkpt><trkpt lat="45.4100217" lon="10.7368883"><ele>113.66666666666667</ele><time>2026-04-02T08:59:35.198Z</time></trkpt><trkpt lat="45.4101033" lon="10.7369117"><ele>113.33333333333334</ele><time>2026-04-02T08:59:36.202Z</time></trkpt><trkpt lat="45.41019" lon="10.7369317"><ele>113.0</ele><time>2026-04-02T08:59:37.202Z</time></trkpt><trkpt lat="45.4102733" lon="10.736955"><ele>112.66666666666667</ele><time>2026-04-02T08:59:38.2Z</time></trkpt><trkpt lat="45.4103567" lon="10.7369767"><ele>112.33333333333334</ele><time>2026-04-02T08:59:39.203Z</time></trkpt><trkpt lat="45.4104267" lon="10.7370067"><ele>112.0</ele><time>2026-04-02T08:59:40.191Z</time></trkpt><trkpt lat="45.4105117" lon="10.737045"><ele>112.0</ele><time>2026-04-02T08:59:42.21Z</time></trkpt><trkpt lat="45.4105767" lon="10.7370483"><ele>111.99999999999999</ele><time>2026-04-02T09:00:04.204Z</time></trkpt><trkpt lat="45.4106583" lon="10.7370617"><ele>111.99999999999999</ele><time>2026-04-02T09:00:05.198Z</time></trkpt><trkpt lat="45.410755" lon="10.737095"><ele>112.0</ele><time>2026-04-02T09:00:06.203Z</time></trkpt><trkpt lat="45.4108783" lon="10.7371417"><ele>112.0</ele><time>2026-04-02T09:00:07.193Z</time></trkpt><trkpt lat="45.4109783" lon="10.7371783"><ele>112.0</ele><time>2026-04-02T09:00:08.209Z</time></trkpt><trkpt lat="45.41107" lon="10.7372017"><ele>111.99999999999999</ele><time>2026-04-02T09:00:09.195Z</time></trkpt><trkpt lat="45.41119" lon="10.7372617"><ele>111.99999999999999</ele><time>2026-04-02T09:00:10.196Z</time></trkpt><trkpt lat="45.4112567" lon="10.7372667"><ele>112.0</ele><time>2026-04-02T09:00:11.205Z</time></trkpt><trkpt lat="45.4113433" lon="10.7372983"><ele>112.0</ele><time>2026-04-02T09:00:13.196Z</time></trkpt><trkpt lat="45.4114483" lon="10.7372767"><ele>112.19999999999999</ele><time>2026-04-02T09:00:15.193Z</time></trkpt><trkpt lat="45.4115233" lon="10.737285"><ele>112.39999999999999</ele><time>2026-04-02T09:00:16.191Z</time></trkpt><trkpt lat="45.41161" lon="10.7372933"><ele>112.60000000000001</ele><time>2026-04-02T09:00:17.198Z</time></trkpt><trkpt lat="45.411705" lon="10.7372933"><ele>112.80000000000001</ele><time>2026-04-02T09:00:18.202Z</time></trkpt><trkpt lat="45.4118067" lon="10.7373067"><ele>113.0</ele><time>2026-04-02T09:00:19.198Z</time></trkpt><trkpt lat="45.4119183" lon="10.7373367"><ele>113.0</ele><time>2026-04-02T09:00:20.193Z</time></trkpt><trkpt lat="45.4120317" lon="10.7373583"><ele>113.0</ele><time>2026-04-02T09:00:21.205Z</time></trkpt><trkpt lat="45.41215" lon="10.7373783"><ele>113.0</ele><time>2026-04-02T09:00:22.205Z</time></trkpt><trkpt lat="45.412275" lon="10.7374133"><ele>113.0</ele><time>2026-04-02T09:00:23.221Z</time></trkpt><trkpt lat="45.41242" lon="10.737445"><ele>112.75</ele><time>2026-04-02T09:00:24.204Z</time></trkpt><trkpt lat="45.4125517" lon="10.7374733"><ele>112.5</ele><time>2026-04-02T09:00:25.199Z</time></trkpt><trkpt lat="45.4126917" lon="10.737535"><ele>112.25</ele><time>2026-04-02T09:00:26.194Z</time></trkpt><trkpt lat="45.41284" lon="10.737575"><ele>112.0</ele><time>2026-04-02T09:00:27.2Z</time></trkpt><trkpt lat="45.4129867" lon="10.73759"><ele>112.19999999999999</ele><time>2026-04-02T09:00:28.19Z</time></trkpt><trkpt lat="45.413085" lon="10.737645"><ele>112.39999999999999</ele><time>2026-04-02T09:00:29.199Z</time></trkpt><trkpt lat="45.4132183" lon="10.7376517"><ele>112.60000000000001</ele><time>2026-04-02T09:00:31.212Z</time></trkpt><trkpt lat="45.4133217" lon="10.7375817"><ele>112.80000000000001</ele><time>2026-04-02T09:00:33.195Z</time></trkpt><trkpt lat="45.4134067" lon="10.7375183"><ele>113.0</ele><time>2026-04-02T09:00:34.195Z</time></trkpt><trkpt lat="45.4134767" lon="10.73745"><ele>113.0</ele><time>2026-04-02T09:00:35.196Z</time></trkpt><trkpt lat="45.4135433" lon="10.7373767"><ele>113.00000000000001</ele><time>2026-04-02T09:00:36.203Z</time></trkpt><trkpt lat="45.4136117" lon="10.7373183"><ele>113.00000000000001</ele><time>2026-04-02T09:00:37.197Z</time></trkpt><trkpt lat="45.413675" lon="10.7372733"><ele>113.0</ele><time>2026-04-02T09:00:38.199Z</time></trkpt><trkpt lat="45.4137683" lon="10.737215"><ele>113.0</ele><time>2026-04-02T09:00:40.199Z</time></trkpt><trkpt lat="45.4138967" lon="10.7372717"><ele>111.80000000000001</ele><time>2026-04-02T09:00:42.195Z</time></trkpt><trkpt lat="45.4139883" lon="10.7373033"><ele>110.60000000000001</ele><time>2026-04-02T09:00:43.214Z</time></trkpt><trkpt lat="45.4140933" lon="10.7373367"><ele>109.39999999999999</ele><time>2026-04-02T09:00:44.196Z</time></trkpt><trkpt lat="45.4142" lon="10.7373567"><ele>108.19999999999999</ele><time>2026-04-02T09:00:45.195Z</time></trkpt><trkpt lat="45.4142933" lon="10.7373883"><ele>107.0</ele><time>2026-04-02T09:00:46.2Z</time></trkpt><trkpt lat="45.414355" lon="10.7374283"><ele>107.0</ele><time>2026-04-02T09:00:47.198Z</time></trkpt><trkpt lat="45.4144317" lon="10.7375317"><ele>106.99999999999999</ele><time>2026-04-02T09:00:49.204Z</time></trkpt><trkpt lat="45.414475" lon="10.7376217"><ele>106.99999999999999</ele><time>2026-04-02T09:00:51.198Z</time></trkpt><trkpt lat="45.41454" lon="10.73758"><ele>107.0</ele><time>2026-04-02T09:00:55.202Z</time></trkpt><trkpt lat="45.4144817" lon="10.737485"><ele>107.0</ele><time>2026-04-02T09:00:58.203Z</time></trkpt><trkpt lat="45.4143883" lon="10.7373917"><ele>107.0</ele><time>2026-04-02T09:01:00.197Z</time></trkpt><trkpt lat="45.4143233" lon="10.737345"><ele>106.99999999999999</ele><time>2026-04-02T09:01:01.194Z</time></trkpt><trkpt lat="45.41424" lon="10.7373"><ele>106.99999999999999</ele><time>2026-04-02T09:01:02.214Z</time></trkpt><trkpt lat="45.41414" lon="10.7372667"><ele>107.0</ele><time>2026-04-02T09:01:03.199Z</time></trkpt><trkpt lat="45.414015" lon="10.7372117"><ele>107.0</ele><time>2026-04-02T09:01:04.203Z</time></trkpt><trkpt lat="45.4139217" lon="10.73719"><ele>107.0</ele><time>2026-04-02T09:01:05.196Z</time></trkpt><trkpt lat="45.4138383" lon="10.7371717"><ele>106.99999999999999</ele><time>2026-04-02T09:01:06.197Z</time></trkpt><trkpt lat="45.41374" lon="10.737115"><ele>106.99999999999999</ele><time>2026-04-02T09:01:08.202Z</time></trkpt><trkpt lat="45.4137033" lon="10.7369733"><ele>107.0</ele><time>2026-04-02T09:01:10.193Z</time></trkpt><trkpt lat="45.4136883" lon="10.7368283"><ele>107.0</ele><time>2026-04-02T09:01:12.196Z</time></trkpt><trkpt lat="45.4137033" lon="10.7367233"><ele>107.33333333333333</ele><time>2026-04-02T09:01:13.197Z</time></trkpt><trkpt lat="45.4137317" lon="10.73661"><ele>107.66666666666666</ele><time>2026-04-02T09:01:14.191Z</time></trkpt><trkpt lat="45.413785" lon="10.7364833"><ele>108.0</ele><time>2026-04-02T09:01:15.197Z</time></trkpt><trkpt lat="45.4138183" lon="10.7363767"><ele>108.33333333333334</ele><time>2026-04-02T09:01:16.192Z</time></trkpt><trkpt lat="45.41385" lon="10.7362817"><ele>108.66666666666667</ele><time>2026-04-02T09:01:17.194Z</time></trkpt><trkpt lat="45.4138833" lon="10.7362033"><ele>109.0</ele><time>2026-04-02T09:01:18.201Z</time></trkpt><trkpt lat="45.41397" lon="10.7361083"><ele>109.0</ele><time>2026-04-02T09:01:20.191Z</time></trkpt><trkpt lat="45.4141083" lon="10.7361"><ele>109.0</ele><time>2026-04-02T09:01:22.192Z</time></trkpt><trkpt lat="45.414195" lon="10.7361117"><ele>109.0</ele><time>2026-04-02T09:01:23.196Z</time></trkpt><trkpt lat="45.41428" lon="10.736135"><ele>109.0</ele><time>2026-04-02T09:01:24.194Z</time></trkpt><trkpt lat="45.4143667" lon="10.736155"><ele>109.0</ele><time>2026-04-02T09:01:25.2Z</time></trkpt><trkpt lat="45.4144583" lon="10.7361617"><ele>109.00000000000001</ele><time>2026-04-02T09:01:26.192Z</time></trkpt><trkpt lat="45.4145467" lon="10.7361617"><ele>109.0</ele><time>2026-04-02T09:01:27.203Z</time></trkpt><trkpt lat="45.4146317" lon="10.7361517"><ele>109.0</ele><time>2026-04-02T09:01:28.207Z</time></trkpt><trkpt lat="45.414715" lon="10.73614"><ele>109.0</ele><time>2026-04-02T09:01:29.206Z</time></trkpt><trkpt lat="45.4148" lon="10.7361233"><ele>109.00000000000001</ele><time>2026-04-02T09:01:30.209Z</time></trkpt><trkpt lat="45.4148783" lon="10.7360967"><ele>109.0</ele><time>2026-04-02T09:01:31.201Z</time></trkpt><trkpt lat="45.414955" lon="10.7360533"><ele>110.33333333333334</ele><time>2026-04-02T09:01:32.196Z</time></trkpt><trkpt lat="45.4150317" lon="10.7360017"><ele>111.66666666666667</ele><time>2026-04-02T09:01:33.198Z</time></trkpt><trkpt lat="45.415105" lon="10.7359383"><ele>113.0</ele><time>2026-04-02T09:01:34.199Z</time></trkpt><trkpt lat="45.4151667" lon="10.7358783"><ele>114.33333333333334</ele><time>2026-04-02T09:01:35.206Z</time></trkpt><trkpt lat="45.41522" lon="10.735815"><ele>115.66666666666667</ele><time>2026-04-02T09:01:36.198Z</time></trkpt><trkpt lat="45.415315" lon="10.7357033"><ele>117.0</ele><time>2026-04-02T09:01:38.211Z</time></trkpt><trkpt lat="45.4153967" lon="10.7355783"><ele>117.0</ele><time>2026-04-02T09:01:40.196Z</time></trkpt><trkpt lat="45.41543" lon="10.7354983"><ele>117.00000000000001</ele><time>2026-04-02T09:01:41.2Z</time></trkpt><trkpt lat="45.4154633" lon="10.7354117"><ele>117.0</ele><time>2026-04-02T09:01:42.207Z</time></trkpt><trkpt lat="45.4155083" lon="10.7353317"><ele>117.0</ele><time>2026-04-02T09:01:43.206Z</time></trkpt><trkpt lat="45.4155617" lon="10.735255"><ele>117.00000000000001</ele><time>2026-04-02T09:01:44.198Z</time></trkpt><trkpt lat="45.4156133" lon="10.735195"><ele>117.0</ele><time>2026-04-02T09:01:45.201Z</time></trkpt><trkpt lat="45.41567" lon="10.7351117"><ele>117.0</ele><time>2026-04-02T09:01:47.198Z</time></trkpt><trkpt lat="45.4157131" lon="10.7349951"><ele>117.0</ele><time>2026-04-02T09:01:56.198Z</time></trkpt><trkpt lat="45.4156667" lon="10.7349067"><ele>117.0</ele><time>2026-04-02T09:01:59.246Z</time></trkpt><trkpt lat="45.41563" lon="10.7349933"><ele>117.0</ele><time>2026-04-02T09:02:02.191Z</time></trkpt><trkpt lat="45.41565" lon="10.735115"><ele>117.0</ele><time>2026-04-02T09:02:05.197Z</time></trkpt><trkpt lat="45.4156017" lon="10.7352017"><ele>117.0</ele><time>2026-04-02T09:02:07.197Z</time></trkpt><trkpt lat="45.415545" lon="10.73529"><ele>117.0</ele><time>2026-04-02T09:02:09.198Z</time></trkpt><trkpt lat="45.41548" lon="10.7353833"><ele>117.0</ele><time>2026-04-02T09:02:11.201Z</time></trkpt><trkpt lat="45.4154383" lon="10.735465"><ele>117.0</ele><time>2026-04-02T09:02:13.198Z</time></trkpt><trkpt lat="45.415405" lon="10.7355467"><ele>117.0</ele><time>2026-04-02T09:02:15.2Z</time></trkpt><trkpt lat="45.4153833" lon="10.7356633"><ele>117.0</ele><time>2026-04-02T09:02:18.203Z</time></trkpt><trkpt lat="45.41541" lon="10.7357767"><ele>117.0</ele><time>2026-04-02T09:02:20.197Z</time></trkpt><trkpt lat="45.4154417" lon="10.7358617"><ele>117.0</ele><time>2026-04-02T09:02:21.206Z</time></trkpt><trkpt lat="45.4154767" lon="10.73596"><ele>116.5</ele><time>2026-04-02T09:02:22.199Z</time></trkpt><trkpt lat="45.4155117" lon="10.7360567"><ele>116.0</ele><time>2026-04-02T09:02:23.201Z</time></trkpt><trkpt lat="45.41556" lon="10.7361483"><ele>115.5</ele><time>2026-04-02T09:02:24.205Z</time></trkpt><trkpt lat="45.4156183" lon="10.7362317"><ele>115.0</ele><time>2026-04-02T09:02:25.199Z</time></trkpt><trkpt lat="45.4156817" lon="10.736305"><ele>114.5</ele><time>2026-04-02T09:02:26.204Z</time></trkpt><trkpt lat="45.4157567" lon="10.736375"><ele>114.0</ele><time>2026-04-02T09:02:27.197Z</time></trkpt><trkpt lat="45.4158333" lon="10.7364433"><ele>114.0</ele><time>2026-04-02T09:02:28.195Z</time></trkpt><trkpt lat="45.415915" lon="10.736515"><ele>114.0</ele><time>2026-04-02T09:02:29.217Z</time></trkpt><trkpt lat="45.4160133" lon="10.736595"><ele>114.0</ele><time>2026-04-02T09:02:30.206Z</time></trkpt><trkpt lat="45.4160883" lon="10.7366533"><ele>114.0</ele><time>2026-04-02T09:02:31.21Z</time></trkpt><trkpt lat="45.4162033" lon="10.7366983"><ele>114.0</ele><time>2026-04-02T09:02:32.208Z</time></trkpt><trkpt lat="45.416255" lon="10.73675"><ele>114.2</ele><time>2026-04-02T09:02:33.197Z</time></trkpt><trkpt lat="45.41636" lon="10.736815"><ele>114.4</ele><time>2026-04-02T09:02:35.203Z</time></trkpt><trkpt lat="45.4164617" lon="10.7367817"><ele>114.6</ele><time>2026-04-02T09:02:37.205Z</time></trkpt><trkpt lat="45.416575" lon="10.736695"><ele>114.8</ele><time>2026-04-02T09:02:39.197Z</time></trkpt><trkpt lat="45.4166317" lon="10.7366433"><ele>115.0</ele><time>2026-04-02T09:02:40.191Z</time></trkpt><trkpt lat="45.4166967" lon="10.73659"><ele>115.0</ele><time>2026-04-02T09:02:41.198Z</time></trkpt><trkpt lat="45.4167717" lon="10.7365217"><ele>115.0</ele><time>2026-04-02T09:02:42.198Z</time></trkpt><trkpt lat="45.4168567" lon="10.7364567"><ele>115.0</ele><time>2026-04-02T09:02:43.195Z</time></trkpt><trkpt lat="45.41698" lon="10.736385"><ele>115.0</ele><time>2026-04-02T09:02:44.195Z</time></trkpt><trkpt lat="45.417045" lon="10.736315"><ele>115.0</ele><time>2026-04-02T09:02:45.202Z</time></trkpt><trkpt lat="45.4171267" lon="10.7362517"><ele>114.8</ele><time>2026-04-02T09:02:46.191Z</time></trkpt><trkpt lat="45.417195" lon="10.7361983"><ele>114.6</ele><time>2026-04-02T09:02:47.195Z</time></trkpt><trkpt lat="45.41726" lon="10.73615"><ele>114.4</ele><time>2026-04-02T09:02:48.198Z</time></trkpt><trkpt lat="45.4173667" lon="10.7360817"><ele>114.2</ele><time>2026-04-02T09:02:50.196Z</time></trkpt><trkpt lat="45.4174483" lon="10.73602"><ele>114.0</ele><time>2026-04-02T09:02:52.196Z</time></trkpt><trkpt lat="45.4175333" lon="10.73595"><ele>114.0</ele><time>2026-04-02T09:02:54.199Z</time></trkpt><trkpt lat="45.417635" lon="10.735925"><ele>114.0</ele><time>2026-04-02T09:02:56.193Z</time></trkpt><trkpt lat="45.4177383" lon="10.7358967"><ele>114.0</ele><time>2026-04-02T09:02:58.191Z</time></trkpt><trkpt lat="45.41778" lon="10.735815"><ele>114.0</ele><time>2026-04-02T09:03:00.202Z</time></trkpt><trkpt lat="45.4177617" lon="10.7356417"><ele>114.0</ele><time>2026-04-02T09:03:02.192Z</time></trkpt><trkpt lat="45.4177417" lon="10.7355383"><ele>114.0</ele><time>2026-04-02T09:03:03.2Z</time></trkpt><trkpt lat="45.4177317" lon="10.7354433"><ele>114.0</ele><time>2026-04-02T09:03:04.204Z</time></trkpt><trkpt lat="45.417725" lon="10.735285"><ele>114.0</ele><time>2026-04-02T09:03:06.192Z</time></trkpt><trkpt lat="45.4177733" lon="10.7352033"><ele>114.0</ele><time>2026-04-02T09:03:08.191Z</time></trkpt><trkpt lat="45.4178483" lon="10.7351733"><ele>114.0</ele><time>2026-04-02T09:03:10.195Z</time></trkpt><trkpt lat="45.4179517" lon="10.7351567"><ele>114.0</ele><time>2026-04-02T09:03:12.192Z</time></trkpt><trkpt lat="45.41803" lon="10.735135"><ele>112.83333333333333</ele><time>2026-04-02T09:03:14.195Z</time></trkpt><trkpt lat="45.4181067" lon="10.7351533"><ele>111.66666666666666</ele><time>2026-04-02T09:03:17.199Z</time></trkpt><trkpt lat="45.418145" lon="10.7353017"><ele>110.5</ele><time>2026-04-02T09:03:19.193Z</time></trkpt><trkpt lat="45.418165" lon="10.7354017"><ele>109.33333333333333</ele><time>2026-04-02T09:03:20.195Z</time></trkpt><trkpt lat="45.418185" lon="10.7355017"><ele>108.16666666666666</ele><time>2026-04-02T09:03:21.227Z</time></trkpt><trkpt lat="45.418205" lon="10.7355917"><ele>107.0</ele><time>2026-04-02T09:03:22.195Z</time></trkpt><trkpt lat="45.418245" lon="10.7357383"><ele>106.66666666666666</ele><time>2026-04-02T09:03:24.194Z</time></trkpt><trkpt lat="45.41828" lon="10.7358717"><ele>106.33333333333333</ele><time>2026-04-02T09:03:26.202Z</time></trkpt><trkpt lat="45.418325" lon="10.7360017"><ele>106.0</ele><time>2026-04-02T09:03:28.195Z</time></trkpt><trkpt lat="45.418375" lon="10.73611"><ele>105.66666666666666</ele><time>2026-04-02T09:03:30.197Z</time></trkpt><trkpt lat="45.4184067" lon="10.736205"><ele>105.33333333333333</ele><time>2026-04-02T09:03:32.192Z</time></trkpt><trkpt lat="45.4184583" lon="10.7362717"><ele>105.0</ele><time>2026-04-02T09:03:39.199Z</time></trkpt><trkpt lat="45.4184483" lon="10.7361817"><ele>105.0</ele><time>2026-04-02T09:03:50.197Z</time></trkpt><trkpt lat="45.4183767" lon="10.736045"><ele>105.0</ele><time>2026-04-02T09:03:52.199Z</time></trkpt><trkpt lat="45.4183333" lon="10.73595"><ele>105.0</ele><time>2026-04-02T09:03:53.196Z</time></trkpt><trkpt lat="45.4182917" lon="10.7358483"><ele>105.0</ele><time>2026-04-02T09:03:54.197Z</time></trkpt><trkpt lat="45.4182567" lon="10.7357333"><ele>105.0</ele><time>2026-04-02T09:03:55.202Z</time></trkpt><trkpt lat="45.418225" lon="10.7356133"><ele>105.0</ele><time>2026-04-02T09:03:56.197Z</time></trkpt><trkpt lat="45.41819" lon="10.7354717"><ele>105.0</ele><time>2026-04-02T09:03:57.21Z</time></trkpt><trkpt lat="45.418145" lon="10.7353467"><ele>105.0</ele><time>2026-04-02T09:03:58.196Z</time></trkpt><trkpt lat="45.4181183" lon="10.73524"><ele>105.0</ele><time>2026-04-02T09:03:59.196Z</time></trkpt><trkpt lat="45.41809" lon="10.7350917"><ele>105.0</ele><time>2026-04-02T09:04:01.201Z</time></trkpt><trkpt lat="45.4180467" lon="10.7349417"><ele>105.28571428571429</ele><time>2026-04-02T09:04:03.193Z</time></trkpt><trkpt lat="45.41802" lon="10.7348533"><ele>105.57142857142857</ele><time>2026-04-02T09:04:04.194Z</time></trkpt><trkpt lat="45.4180033" lon="10.7347467"><ele>105.85714285714286</ele><time>2026-04-02T09:04:05.218Z</time></trkpt><trkpt lat="45.418" lon="10.7346367"><ele>106.14285714285714</ele><time>2026-04-02T09:04:06.193Z</time></trkpt><trkpt lat="45.4180033" lon="10.7345317"><ele>106.42857142857143</ele><time>2026-04-02T09:04:07.197Z</time></trkpt><trkpt lat="45.418005" lon="10.73443"><ele>106.71428571428572</ele><time>2026-04-02T09:04:08.207Z</time></trkpt><trkpt lat="45.418005" lon="10.7343333"><ele>107.0</ele><time>2026-04-02T09:04:09.2Z</time></trkpt><trkpt lat="45.41801" lon="10.7342233"><ele>106.99999999999999</ele><time>2026-04-02T09:04:10.193Z</time></trkpt><trkpt lat="45.4180183" lon="10.7340983"><ele>107.0</ele><time>2026-04-02T09:04:11.213Z</time></trkpt><trkpt lat="45.41803" lon="10.733975"><ele>107.0</ele><time>2026-04-02T09:04:12.192Z</time></trkpt><trkpt lat="45.4180383" lon="10.73386"><ele>107.0</ele><time>2026-04-02T09:04:13.195Z</time></trkpt><trkpt lat="45.418045" lon="10.7337617"><ele>106.99999999999999</ele><time>2026-04-02T09:04:14.197Z</time></trkpt><trkpt lat="45.4180483" lon="10.73367"><ele>107.0</ele><time>2026-04-02T09:04:15.193Z</time></trkpt><trkpt lat="45.4180767" lon="10.7335267"><ele>106.83333333333333</ele><time>2026-04-02T09:04:17.197Z</time></trkpt><trkpt lat="45.4181133" lon="10.73337"><ele>106.66666666666666</ele><time>2026-04-02T09:04:19.193Z</time></trkpt><trkpt lat="45.4181233" lon="10.7332783"><ele>106.5</ele><time>2026-04-02T09:04:20.194Z</time></trkpt><trkpt lat="45.4181283" lon="10.7331733"><ele>106.33333333333334</ele><time>2026-04-02T09:04:21.198Z</time></trkpt><trkpt lat="45.4181317" lon="10.7330583"><ele>106.16666666666667</ele><time>2026-04-02T09:04:22.231Z</time></trkpt><trkpt lat="45.41813" lon="10.7329333"><ele>106.0</ele><time>2026-04-02T09:04:23.197Z</time></trkpt><trkpt lat="45.4181267" lon="10.7328083"><ele>105.66666666666667</ele><time>2026-04-02T09:04:24.212Z</time></trkpt><trkpt lat="45.418125" lon="10.7326983"><ele>105.33333333333334</ele><time>2026-04-02T09:04:25.194Z</time></trkpt><trkpt lat="45.4181183" lon="10.7326033"><ele>105.0</ele><time>2026-04-02T09:04:26.194Z</time></trkpt><trkpt lat="45.4181167" lon="10.7324433"><ele>104.66666666666666</ele><time>2026-04-02T09:04:28.194Z</time></trkpt><trkpt lat="45.41812" lon="10.732345"><ele>104.33333333333333</ele><time>2026-04-02T09:04:30.203Z</time></trkpt><trkpt lat="45.4181567" lon="10.7322667"><ele>104.0</ele><time>2026-04-02T09:04:33.202Z</time></trkpt><trkpt lat="45.418235" lon="10.7321633"><ele>104.0</ele><time>2026-04-02T09:04:36.195Z</time></trkpt><trkpt lat="45.418355" lon="10.7321117"><ele>104.0</ele><time>2026-04-02T09:04:38.197Z</time></trkpt><trkpt lat="45.4184433" lon="10.7320933"><ele>104.0</ele><time>2026-04-02T09:04:39.196Z</time></trkpt><trkpt lat="45.4185283" lon="10.7320667"><ele>104.0</ele><time>2026-04-02T09:04:40.199Z</time></trkpt><trkpt lat="45.4186133" lon="10.7320367"><ele>104.0</ele><time>2026-04-02T09:04:41.197Z</time></trkpt><trkpt lat="45.4187017" lon="10.7320017"><ele>103.99999999999999</ele><time>2026-04-02T09:04:42.191Z</time></trkpt><trkpt lat="45.418785" lon="10.7319717"><ele>104.0</ele><time>2026-04-02T09:04:43.197Z</time></trkpt><trkpt lat="45.418865" lon="10.731955"><ele>104.0</ele><time>2026-04-02T09:04:44.194Z</time></trkpt><trkpt lat="45.41895" lon="10.731945"><ele>104.0</ele><time>2026-04-02T09:04:45.194Z</time></trkpt><trkpt lat="45.4190333" lon="10.7319417"><ele>103.99999999999999</ele><time>2026-04-02T09:04:46.196Z</time></trkpt><trkpt lat="45.4191083" lon="10.7319417"><ele>104.0</ele><time>2026-04-02T09:04:47.193Z</time></trkpt><trkpt lat="45.419175" lon="10.7319483"><ele>104.33333333333333</ele><time>2026-04-02T09:04:48.196Z</time></trkpt><trkpt lat="45.4192433" lon="10.7319567"><ele>104.66666666666666</ele><time>2026-04-02T09:04:49.201Z</time></trkpt><trkpt lat="45.419315" lon="10.731965"><ele>105.0</ele><time>2026-04-02T09:04:50.204Z</time></trkpt><trkpt lat="45.4193867" lon="10.7319767"><ele>105.33333333333334</ele><time>2026-04-02T09:04:51.196Z</time></trkpt><trkpt lat="45.419505" lon="10.7320033"><ele>105.66666666666667</ele><time>2026-04-02T09:04:53.193Z</time></trkpt><trkpt lat="45.4196167" lon="10.7320267"><ele>106.0</ele><time>2026-04-02T09:04:55.197Z</time></trkpt><trkpt lat="45.4197367" lon="10.732025"><ele>106.19999999999999</ele><time>2026-04-02T09:04:57.194Z</time></trkpt><trkpt lat="45.4198433" lon="10.7319933"><ele>106.39999999999999</ele><time>2026-04-02T09:04:59.206Z</time></trkpt><trkpt lat="45.419975" lon="10.7319917"><ele>106.6</ele><time>2026-04-02T09:05:01.197Z</time></trkpt><trkpt lat="45.4200467" lon="10.7320017"><ele>106.8</ele><time>2026-04-02T09:05:02.198Z</time></trkpt><trkpt lat="45.42012" lon="10.732005"><ele>107.0</ele><time>2026-04-02T09:05:03.204Z</time></trkpt><trkpt lat="45.4201933" lon="10.7319983"><ele>107.00000000000001</ele><time>2026-04-02T09:05:04.212Z</time></trkpt><trkpt lat="45.4202667" lon="10.73198"><ele>107.0</ele><time>2026-04-02T09:05:05.204Z</time></trkpt><trkpt lat="45.4203467" lon="10.7319583"><ele>107.0</ele><time>2026-04-02T09:05:06.193Z</time></trkpt><trkpt lat="45.420425" lon="10.731945"><ele>107.0</ele><time>2026-04-02T09:05:07.206Z</time></trkpt><trkpt lat="45.4204983" lon="10.7319317"><ele>107.0</ele><time>2026-04-02T09:05:08.192Z</time></trkpt><trkpt lat="45.4205683" lon="10.7319183"><ele>107.00000000000001</ele><time>2026-04-02T09:05:09.197Z</time></trkpt><trkpt lat="45.420635" lon="10.7319067"><ele>107.0</ele><time>2026-04-02T09:05:10.2Z</time></trkpt><trkpt lat="45.4207" lon="10.7318967"><ele>106.33333333333333</ele><time>2026-04-02T09:05:11.199Z</time></trkpt><trkpt lat="45.4207667" lon="10.7318917"><ele>105.66666666666666</ele><time>2026-04-02T09:05:12.196Z</time></trkpt><trkpt lat="45.42083" lon="10.7318867"><ele>105.0</ele><time>2026-04-02T09:05:13.193Z</time></trkpt><trkpt lat="45.420945" lon="10.7318983"><ele>104.33333333333334</ele><time>2026-04-02T09:05:15.192Z</time></trkpt><trkpt lat="45.421015" lon="10.7319117"><ele>103.66666666666667</ele><time>2026-04-02T09:05:16.193Z</time></trkpt><trkpt lat="45.4210917" lon="10.7319267"><ele>103.0</ele><time>2026-04-02T09:05:17.196Z</time></trkpt><trkpt lat="45.4211683" lon="10.7319333"><ele>103.00000000000001</ele><time>2026-04-02T09:05:18.197Z</time></trkpt><trkpt lat="45.42125" lon="10.7319517"><ele>103.0</ele><time>2026-04-02T09:05:19.203Z</time></trkpt><trkpt lat="45.4213317" lon="10.7319667"><ele>103.0</ele><time>2026-04-02T09:05:20.193Z</time></trkpt><trkpt lat="45.42141" lon="10.7319717"><ele>103.0</ele><time>2026-04-02T09:05:21.191Z</time></trkpt><trkpt lat="45.421485" lon="10.7319583"><ele>103.00000000000001</ele><time>2026-04-02T09:05:22.197Z</time></trkpt><trkpt lat="45.42156" lon="10.7319267"><ele>103.0</ele><time>2026-04-02T09:05:23.191Z</time></trkpt><trkpt lat="45.421635" lon="10.7318733"><ele>101.33333333333334</ele><time>2026-04-02T09:05:24.199Z</time></trkpt><trkpt lat="45.4217" lon="10.7317983"><ele>99.66666666666667</ele><time>2026-04-02T09:05:25.193Z</time></trkpt><trkpt lat="45.4217567" lon="10.731725"><ele>98.0</ele><time>2026-04-02T09:05:26.196Z</time></trkpt><trkpt lat="45.4218067" lon="10.7316517"><ele>96.33333333333334</ele><time>2026-04-02T09:05:27.194Z</time></trkpt><trkpt lat="45.4218533" lon="10.7315867"><ele>94.66666666666667</ele><time>2026-04-02T09:05:28.198Z</time></trkpt><trkpt lat="45.42192" lon="10.73149"><ele>93.0</ele><time>2026-04-02T09:05:30.198Z</time></trkpt><trkpt lat="45.4219183" lon="10.7313583"><ele>93.0</ele><time>2026-04-02T09:05:33.208Z</time></trkpt><trkpt lat="45.4218433" lon="10.7312333"><ele>93.0</ele><time>2026-04-02T09:05:35.198Z</time></trkpt><trkpt lat="45.4217867" lon="10.7311533"><ele>93.0</ele><time>2026-04-02T09:05:36.2Z</time></trkpt><trkpt lat="45.4217233" lon="10.7310633"><ele>93.0</ele><time>2026-04-02T09:05:37.203Z</time></trkpt><trkpt lat="45.4216533" lon="10.7309583"><ele>93.0</ele><time>2026-04-02T09:05:38.202Z</time></trkpt><trkpt lat="45.4215667" lon="10.7308217"><ele>93.0</ele><time>2026-04-02T09:05:39.196Z</time></trkpt><trkpt lat="45.4214867" lon="10.7306767"><ele>93.0</ele><time>2026-04-02T09:05:40.196Z</time></trkpt><trkpt lat="45.4213983" lon="10.730565"><ele>93.0</ele><time>2026-04-02T09:05:41.198Z</time></trkpt><trkpt lat="45.421325" lon="10.73042"><ele>93.0</ele><time>2026-04-02T09:05:42.193Z</time></trkpt><trkpt lat="45.4212167" lon="10.7303133"><ele>93.5</ele><time>2026-04-02T09:05:43.198Z</time></trkpt><trkpt lat="45.4210983" lon="10.7302333"><ele>94.0</ele><time>2026-04-02T09:05:44.201Z</time></trkpt><trkpt lat="45.421" lon="10.730085"><ele>94.5</ele><time>2026-04-02T09:05:45.195Z</time></trkpt><trkpt lat="45.4208717" lon="10.73"><ele>95.0</ele><time>2026-04-02T09:05:46.194Z</time></trkpt><trkpt lat="45.4207833" lon="10.729855"><ele>95.0</ele><time>2026-04-02T09:05:47.197Z</time></trkpt><trkpt lat="45.4206533" lon="10.72976"><ele>95.0</ele><time>2026-04-02T09:05:48.193Z</time></trkpt><trkpt lat="45.42049" lon="10.72971"><ele>95.0</ele><time>2026-04-02T09:05:49.194Z</time></trkpt><trkpt lat="45.420355" lon="10.7296417"><ele>95.0</ele><time>2026-04-02T09:05:50.199Z</time></trkpt><trkpt lat="45.42023" lon="10.72958"><ele>95.0</ele><time>2026-04-02T09:05:51.193Z</time></trkpt><trkpt lat="45.4201017" lon="10.7294983"><ele>95.0</ele><time>2026-04-02T09:05:52.194Z</time></trkpt><trkpt lat="45.419975" lon="10.7293783"><ele>95.0</ele><time>2026-04-02T09:05:53.193Z</time></trkpt><trkpt lat="45.4198433" lon="10.729315"><ele>94.75</ele><time>2026-04-02T09:05:54.202Z</time></trkpt><trkpt lat="45.419695" lon="10.729265"><ele>94.5</ele><time>2026-04-02T09:05:55.19Z</time></trkpt><trkpt lat="45.419555" lon="10.7292133"><ele>94.25</ele><time>2026-04-02T09:05:56.203Z</time></trkpt><trkpt lat="45.41942" lon="10.7291217"><ele>94.0</ele><time>2026-04-02T09:05:57.193Z</time></trkpt><trkpt lat="45.4192833" lon="10.7290383"><ele>94.0</ele><time>2026-04-02T09:05:58.194Z</time></trkpt><trkpt lat="45.41916" lon="10.7289867"><ele>94.0</ele><time>2026-04-02T09:05:59.195Z</time></trkpt><trkpt lat="45.4190367" lon="10.7289533"><ele>94.0</ele><time>2026-04-02T09:06:00.201Z</time></trkpt><trkpt lat="45.4189233" lon="10.7289267"><ele>94.0</ele><time>2026-04-02T09:06:01.194Z</time></trkpt><trkpt lat="45.4188167" lon="10.7288983"><ele>93.80000000000001</ele><time>2026-04-02T09:06:02.189Z</time></trkpt><trkpt lat="45.4187167" lon="10.7288783"><ele>93.60000000000001</ele><time>2026-04-02T09:06:03.2Z</time></trkpt><trkpt lat="45.41863" lon="10.72884"><ele>93.4</ele><time>2026-04-02T09:06:04.193Z</time></trkpt><trkpt lat="45.4185417" lon="10.7288183"><ele>93.2</ele><time>2026-04-02T09:06:05.194Z</time></trkpt><trkpt lat="45.4184483" lon="10.7288083"><ele>93.0</ele><time>2026-04-02T09:06:06.2Z</time></trkpt><trkpt lat="45.418365" lon="10.72879"><ele>93.0</ele><time>2026-04-02T09:06:07.2Z</time></trkpt><trkpt lat="45.4182917" lon="10.7287567"><ele>93.0</ele><time>2026-04-02T09:06:08.201Z</time></trkpt><trkpt lat="45.4182217" lon="10.7287467"><ele>93.0</ele><time>2026-04-02T09:06:09.2Z</time></trkpt><trkpt lat="45.4181017" lon="10.7287267"><ele>93.0</ele><time>2026-04-02T09:06:11.194Z</time></trkpt><trkpt lat="45.4180033" lon="10.7287217"><ele>93.0</ele><time>2026-04-02T09:06:13.2Z</time></trkpt><trkpt lat="45.4178783" lon="10.72874"><ele>93.16666666666667</ele><time>2026-04-02T09:06:15.2Z</time></trkpt><trkpt lat="45.41781" lon="10.7287383"><ele>93.33333333333333</ele><time>2026-04-02T09:06:16.212Z</time></trkpt><trkpt lat="45.4177467" lon="10.72872"><ele>93.5</ele><time>2026-04-02T09:06:17.194Z</time></trkpt><trkpt lat="45.4176433" lon="10.7286933"><ele>93.66666666666666</ele><time>2026-04-02T09:06:19.197Z</time></trkpt><trkpt lat="45.41757" lon="10.728745"><ele>93.83333333333333</ele><time>2026-04-02T09:06:21.193Z</time></trkpt><trkpt lat="45.4175383" lon="10.7289083"><ele>94.0</ele><time>2026-04-02T09:06:23.195Z</time></trkpt><trkpt lat="45.4175233" lon="10.729015"><ele>94.0</ele><time>2026-04-02T09:06:24.198Z</time></trkpt><trkpt lat="45.417505" lon="10.7291333"><ele>94.0</ele><time>2026-04-02T09:06:25.194Z</time></trkpt><trkpt lat="45.4174867" lon="10.7292517"><ele>94.0</ele><time>2026-04-02T09:06:26.198Z</time></trkpt><trkpt lat="45.4174667" lon="10.7293633"><ele>94.0</ele><time>2026-04-02T09:06:27.192Z</time></trkpt><trkpt lat="45.4174517" lon="10.7294667"><ele>94.0</ele><time>2026-04-02T09:06:28.197Z</time></trkpt><trkpt lat="45.4174383" lon="10.7295567"><ele>94.0</ele><time>2026-04-02T09:06:29.194Z</time></trkpt><trkpt lat="45.4174167" lon="10.7297067"><ele>94.0</ele><time>2026-04-02T09:06:31.195Z</time></trkpt><trkpt lat="45.4174" lon="10.7298233"><ele>94.0</ele><time>2026-04-02T09:06:33.201Z</time></trkpt><trkpt lat="45.4173933" lon="10.7299167"><ele>94.0</ele><time>2026-04-02T09:06:35.2Z</time></trkpt><trkpt lat="45.4173783" lon="10.730025"><ele>94.0</ele><time>2026-04-02T09:06:37.198Z</time></trkpt><trkpt lat="45.4173633" lon="10.7301833"><ele>94.0</ele><time>2026-04-02T09:06:39.199Z</time></trkpt><trkpt lat="45.4173617" lon="10.7302767"><ele>94.0</ele><time>2026-04-02T09:06:40.194Z</time></trkpt><trkpt lat="45.4173683" lon="10.7304333"><ele>94.80000000000001</ele><time>2026-04-02T09:06:42.193Z</time></trkpt><trkpt lat="45.4173817" lon="10.7305867"><ele>95.60000000000001</ele><time>2026-04-02T09:06:44.195Z</time></trkpt><trkpt lat="45.4174017" lon="10.730735"><ele>96.4</ele><time>2026-04-02T09:06:46.191Z</time></trkpt><trkpt lat="45.4174283" lon="10.7309083"><ele>97.2</ele><time>2026-04-02T09:06:48.2Z</time></trkpt><trkpt lat="45.4174433" lon="10.73101"><ele>98.0</ele><time>2026-04-02T09:06:49.203Z</time></trkpt><trkpt lat="45.4174567" lon="10.7311033"><ele>98.42857142857143</ele><time>2026-04-02T09:06:50.199Z</time></trkpt><trkpt lat="45.4174667" lon="10.731195"><ele>98.85714285714286</ele><time>2026-04-02T09:06:51.199Z</time></trkpt><trkpt lat="45.4174817" lon="10.7312917"><ele>99.28571428571428</ele><time>2026-04-02T09:06:52.199Z</time></trkpt><trkpt lat="45.4174933" lon="10.7313933"><ele>99.71428571428572</ele><time>2026-04-02T09:06:53.198Z</time></trkpt><trkpt lat="45.4175067" lon="10.731495"><ele>100.14285714285714</ele><time>2026-04-02T09:06:54.201Z</time></trkpt><trkpt lat="45.4175133" lon="10.7315967"><ele>100.57142857142857</ele><time>2026-04-02T09:06:55.195Z</time></trkpt><trkpt lat="45.4175233" lon="10.731695"><ele>101.0</ele><time>2026-04-02T09:06:56.199Z</time></trkpt><trkpt lat="45.41754" lon="10.73186"><ele>101.49999999999999</ele><time>2026-04-02T09:06:58.2Z</time></trkpt><trkpt lat="45.4175583" lon="10.7320067"><ele>102.0</ele><time>2026-04-02T09:07:00.204Z</time></trkpt><trkpt lat="45.4175567" lon="10.7320967"><ele>102.5</ele><time>2026-04-02T09:07:02.195Z</time></trkpt><trkpt lat="45.4174867" lon="10.7321"><ele>103.0</ele><time>2026-04-02T09:07:05.195Z</time></trkpt><trkpt lat="45.417375" lon="10.7320367"><ele>103.49999999999999</ele><time>2026-04-02T09:07:07.22Z</time></trkpt><trkpt lat="45.4173033" lon="10.7319917"><ele>104.0</ele><time>2026-04-02T09:07:08.191Z</time></trkpt><trkpt lat="45.41723" lon="10.7319617"><ele>104.33333333333333</ele><time>2026-04-02T09:07:09.19Z</time></trkpt><trkpt lat="45.4171517" lon="10.7319367"><ele>104.66666666666666</ele><time>2026-04-02T09:07:10.201Z</time></trkpt><trkpt lat="45.41707" lon="10.7319083"><ele>105.0</ele><time>2026-04-02T09:07:11.201Z</time></trkpt><trkpt lat="45.4169867" lon="10.73189"><ele>105.33333333333334</ele><time>2026-04-02T09:07:12.196Z</time></trkpt><trkpt lat="45.4169" lon="10.7318683"><ele>105.66666666666667</ele><time>2026-04-02T09:07:13.199Z</time></trkpt><trkpt lat="45.4168117" lon="10.7318517"><ele>106.0</ele><time>2026-04-02T09:07:14.195Z</time></trkpt><trkpt lat="45.4167217" lon="10.7318367"><ele>106.00000000000001</ele><time>2026-04-02T09:07:15.197Z</time></trkpt><trkpt lat="45.4166333" lon="10.731815"><ele>106.0</ele><time>2026-04-02T09:07:16.199Z</time></trkpt><trkpt lat="45.4165433" lon="10.73179"><ele>106.0</ele><time>2026-04-02T09:07:17.199Z</time></trkpt><trkpt lat="45.4164583" lon="10.7317767"><ele>106.0</ele><time>2026-04-02T09:07:18.197Z</time></trkpt><trkpt lat="45.4163717" lon="10.7317667"><ele>106.00000000000001</ele><time>2026-04-02T09:07:19.201Z</time></trkpt><trkpt lat="45.4162833" lon="10.73175"><ele>106.0</ele><time>2026-04-02T09:07:20.198Z</time></trkpt><trkpt lat="45.4161783" lon="10.7317317"><ele>106.50000000000001</ele><time>2026-04-02T09:07:21.193Z</time></trkpt><trkpt lat="45.4160867" lon="10.7317267"><ele>107.0</ele><time>2026-04-02T09:07:22.193Z</time></trkpt><trkpt lat="45.4159967" lon="10.73173"><ele>107.5</ele><time>2026-04-02T09:07:23.2Z</time></trkpt><trkpt lat="45.4159083" lon="10.7317283"><ele>108.0</ele><time>2026-04-02T09:07:24.195Z</time></trkpt><trkpt lat="45.4158267" lon="10.7317333"><ele>108.50000000000001</ele><time>2026-04-02T09:07:25.2Z</time></trkpt><trkpt lat="45.4157333" lon="10.7317533"><ele>109.0</ele><time>2026-04-02T09:07:26.194Z</time></trkpt><trkpt lat="45.4156467" lon="10.7317633"><ele>109.0</ele><time>2026-04-02T09:07:27.192Z</time></trkpt><trkpt lat="45.4155617" lon="10.7317733"><ele>109.0</ele><time>2026-04-02T09:07:28.192Z</time></trkpt><trkpt lat="45.41547" lon="10.731785"><ele>109.0</ele><time>2026-04-02T09:07:29.202Z</time></trkpt><trkpt lat="45.4153667" lon="10.7318033"><ele>109.0</ele><time>2026-04-02T09:07:30.206Z</time></trkpt><trkpt lat="45.4152533" lon="10.73183"><ele>109.0</ele><time>2026-04-02T09:07:31.194Z</time></trkpt><trkpt lat="45.4151483" lon="10.7318617"><ele>109.2</ele><time>2026-04-02T09:07:32.195Z</time></trkpt><trkpt lat="45.41504" lon="10.7319067"><ele>109.4</ele><time>2026-04-02T09:07:33.198Z</time></trkpt><trkpt lat="45.4149267" lon="10.7319383"><ele>109.6</ele><time>2026-04-02T09:07:34.193Z</time></trkpt><trkpt lat="45.4148267" lon="10.7319633"><ele>109.8</ele><time>2026-04-02T09:07:35.19Z</time></trkpt><trkpt lat="45.4147383" lon="10.7319667"><ele>110.0</ele><time>2026-04-02T09:07:36.202Z</time></trkpt><trkpt lat="45.4146467" lon="10.7320433"><ele>110.57142857142856</ele><time>2026-04-02T09:07:37.195Z</time></trkpt><trkpt lat="45.414575" lon="10.7320717"><ele>111.14285714285714</ele><time>2026-04-02T09:07:38.193Z</time></trkpt><trkpt lat="45.41449" lon="10.7320633"><ele>111.71428571428571</ele><time>2026-04-02T09:07:40.195Z</time></trkpt><trkpt lat="45.4144267" lon="10.73205"><ele>112.28571428571428</ele><time>2026-04-02T09:07:42.192Z</time></trkpt><trkpt lat="45.4143417" lon="10.7320683"><ele>112.85714285714285</ele><time>2026-04-02T09:07:44.202Z</time></trkpt><trkpt lat="45.4142817" lon="10.7320983"><ele>113.42857142857142</ele><time>2026-04-02T09:07:45.198Z</time></trkpt><trkpt lat="45.41421" lon="10.7321267"><ele>114.0</ele><time>2026-04-02T09:07:46.197Z</time></trkpt><trkpt lat="45.4141283" lon="10.732145"><ele>114.0</ele><time>2026-04-02T09:07:47.198Z</time></trkpt><trkpt lat="45.41404" lon="10.7321583"><ele>114.0</ele><time>2026-04-02T09:07:48.194Z</time></trkpt><trkpt lat="45.413945" lon="10.732195"><ele>114.0</ele><time>2026-04-02T09:07:49.198Z</time></trkpt><trkpt lat="45.4138467" lon="10.732245"><ele>114.0</ele><time>2026-04-02T09:07:50.198Z</time></trkpt><trkpt lat="45.4137483" lon="10.7322333"><ele>114.0</ele><time>2026-04-02T09:07:51.197Z</time></trkpt><trkpt lat="45.4136533" lon="10.7322683"><ele>114.6</ele><time>2026-04-02T09:07:52.197Z</time></trkpt><trkpt lat="45.4135383" lon="10.7322967"><ele>115.2</ele><time>2026-04-02T09:07:53.2Z</time></trkpt><trkpt lat="45.4134633" lon="10.7322433"><ele>115.79999999999998</ele><time>2026-04-02T09:07:54.192Z</time></trkpt><trkpt lat="45.4133767" lon="10.732255"><ele>116.39999999999999</ele><time>2026-04-02T09:07:55.195Z</time></trkpt><trkpt lat="45.413285" lon="10.73227"><ele>117.0</ele><time>2026-04-02T09:07:56.199Z</time></trkpt><trkpt lat="45.4132" lon="10.7322867"><ele>117.0</ele><time>2026-04-02T09:07:57.195Z</time></trkpt><trkpt lat="45.413115" lon="10.7323133"><ele>116.99999999999999</ele><time>2026-04-02T09:07:58.207Z</time></trkpt><trkpt lat="45.4130233" lon="10.732385"><ele>116.99999999999999</ele><time>2026-04-02T09:07:59.199Z</time></trkpt><trkpt lat="45.412915" lon="10.7324483"><ele>117.0</ele><time>2026-04-02T09:08:00.194Z</time></trkpt><trkpt lat="45.412815" lon="10.7325033"><ele>117.0</ele><time>2026-04-02T09:08:01.191Z</time></trkpt><trkpt lat="45.4127317" lon="10.7325517"><ele>118.39999999999999</ele><time>2026-04-02T09:08:02.195Z</time></trkpt><trkpt lat="45.412665" lon="10.73259"><ele>119.79999999999998</ele><time>2026-04-02T09:08:03.208Z</time></trkpt><trkpt lat="45.4125933" lon="10.732635"><ele>121.2</ele><time>2026-04-02T09:08:05.194Z</time></trkpt><trkpt lat="45.4125683" lon="10.732765"><ele>122.6</ele><time>2026-04-02T09:08:08.201Z</time></trkpt><trkpt lat="45.4125633" lon="10.7329533"><ele>124.0</ele><time>2026-04-02T09:08:10.203Z</time></trkpt><trkpt lat="45.4125467" lon="10.7330567"><ele>124.0</ele><time>2026-04-02T09:08:11.201Z</time></trkpt><trkpt lat="45.4125167" lon="10.7331517"><ele>124.00000000000001</ele><time>2026-04-02T09:08:12.202Z</time></trkpt><trkpt lat="45.4124883" lon="10.73324"><ele>124.0</ele><time>2026-04-02T09:08:13.196Z</time></trkpt><trkpt lat="45.412455" lon="10.7333317"><ele>124.0</ele><time>2026-04-02T09:08:14.201Z</time></trkpt><trkpt lat="45.412415" lon="10.7334217"><ele>124.00000000000001</ele><time>2026-04-02T09:08:15.204Z</time></trkpt><trkpt lat="45.4123717" lon="10.7335133"><ele>124.0</ele><time>2026-04-02T09:08:16.194Z</time></trkpt><trkpt lat="45.4123183" lon="10.7335917"><ele>124.0</ele><time>2026-04-02T09:08:17.2Z</time></trkpt><trkpt lat="45.412265" lon="10.7336517"><ele>124.33333333333334</ele><time>2026-04-02T09:08:18.194Z</time></trkpt><trkpt lat="45.41221" lon="10.7337183"><ele>124.66666666666667</ele><time>2026-04-02T09:08:19.193Z</time></trkpt><trkpt lat="45.4121433" lon="10.7337917"><ele>125.0</ele><time>2026-04-02T09:08:20.218Z</time></trkpt><trkpt lat="45.412085" lon="10.7338717"><ele>125.33333333333334</ele><time>2026-04-02T09:08:21.196Z</time></trkpt><trkpt lat="45.412035" lon="10.7339467"><ele>125.66666666666667</ele><time>2026-04-02T09:08:22.194Z</time></trkpt><trkpt lat="45.4119917" lon="10.7340183"><ele>126.0</ele><time>2026-04-02T09:08:23.196Z</time></trkpt><trkpt lat="45.4119383" lon="10.7341267"><ele>125.33333333333333</ele><time>2026-04-02T09:08:25.195Z</time></trkpt><trkpt lat="45.4119217" lon="10.7342433"><ele>124.66666666666666</ele><time>2026-04-02T09:08:28.192Z</time></trkpt><trkpt lat="45.4119883" lon="10.734355"><ele>124.0</ele><time>2026-04-02T09:08:30.2Z</time></trkpt><trkpt lat="45.412035" lon="10.7344167"><ele>123.33333333333333</ele><time>2026-04-02T09:08:31.197Z</time></trkpt><trkpt lat="45.4120917" lon="10.7344783"><ele>122.66666666666666</ele><time>2026-04-02T09:08:32.196Z</time></trkpt><trkpt lat="45.412155" lon="10.734535"><ele>122.0</ele><time>2026-04-02T09:08:33.193Z</time></trkpt><trkpt lat="45.41222" lon="10.7345933"><ele>121.19999999999999</ele><time>2026-04-02T09:08:34.2Z</time></trkpt><trkpt lat="45.4123" lon="10.7346483"><ele>120.39999999999999</ele><time>2026-04-02T09:08:35.19Z</time></trkpt><trkpt lat="45.4123667" lon="10.7347"><ele>119.60000000000001</ele><time>2026-04-02T09:08:36.202Z</time></trkpt><trkpt lat="45.4124267" lon="10.73476"><ele>118.80000000000001</ele><time>2026-04-02T09:08:37.197Z</time></trkpt><trkpt lat="45.4125067" lon="10.73485"><ele>118.0</ele><time>2026-04-02T09:08:39.193Z</time></trkpt><trkpt lat="45.41261" lon="10.7349333"><ele>118.00000000000001</ele><time>2026-04-02T09:08:41.2Z</time></trkpt><trkpt lat="45.4127133" lon="10.735025"><ele>118.0</ele><time>2026-04-02T09:08:43.2Z</time></trkpt><trkpt lat="45.4127717" lon="10.73507"><ele>118.0</ele><time>2026-04-02T09:08:44.195Z</time></trkpt><trkpt lat="45.4128367" lon="10.7351133"><ele>118.0</ele><time>2026-04-02T09:08:45.192Z</time></trkpt><trkpt lat="45.412915" lon="10.7351433"><ele>118.00000000000001</ele><time>2026-04-02T09:08:46.196Z</time></trkpt><trkpt lat="45.4130033" lon="10.7351733"><ele>118.0</ele><time>2026-04-02T09:08:47.203Z</time></trkpt><trkpt lat="45.41311" lon="10.7351967"><ele>116.4</ele><time>2026-04-02T09:08:48.19Z</time></trkpt><trkpt lat="45.41322" lon="10.7352233"><ele>114.80000000000001</ele><time>2026-04-02T09:08:49.198Z</time></trkpt><trkpt lat="45.41332" lon="10.7352667"><ele>113.2</ele><time>2026-04-02T09:08:50.194Z</time></trkpt><trkpt lat="45.41342" lon="10.7353133"><ele>111.6</ele><time>2026-04-02T09:08:51.195Z</time></trkpt><trkpt lat="45.4135333" lon="10.735365"><ele>110.0</ele><time>2026-04-02T09:08:52.195Z</time></trkpt><trkpt lat="45.4136283" lon="10.735365"><ele>109.99999999999999</ele><time>2026-04-02T09:08:53.197Z</time></trkpt><trkpt lat="45.41371" lon="10.7354033"><ele>110.0</ele><time>2026-04-02T09:08:54.204Z</time></trkpt><trkpt lat="45.4137967" lon="10.735455"><ele>110.0</ele><time>2026-04-02T09:08:55.195Z</time></trkpt><trkpt lat="45.4138683" lon="10.7354917"><ele>110.0</ele><time>2026-04-02T09:08:56.198Z</time></trkpt><trkpt lat="45.4139417" lon="10.7355333"><ele>109.99999999999999</ele><time>2026-04-02T09:08:58.194Z</time></trkpt><trkpt lat="45.4140217" lon="10.7356"><ele>110.0</ele><time>2026-04-02T09:09:14.201Z</time></trkpt><trkpt lat="45.414075" lon="10.73565"><ele>110.83333333333333</ele><time>2026-04-02T09:09:16.188Z</time></trkpt><trkpt lat="45.41414" lon="10.7356867"><ele>111.66666666666666</ele><time>2026-04-02T09:09:18.198Z</time></trkpt><trkpt lat="45.414215" lon="10.7357117"><ele>112.5</ele><time>2026-04-02T09:09:21.2Z</time></trkpt><trkpt lat="45.4142967" lon="10.73571"><ele>113.33333333333334</ele><time>2026-04-02T09:09:23.189Z</time></trkpt><trkpt lat="45.41438" lon="10.73571"><ele>114.16666666666667</ele><time>2026-04-02T09:09:25.199Z</time></trkpt><trkpt lat="45.4144533" lon="10.7357067"><ele>115.0</ele><time>2026-04-02T09:09:27.198Z</time></trkpt><trkpt lat="45.414375" lon="10.735695"><ele>115.00000000000001</ele><time>2026-04-02T09:10:11.203Z</time></trkpt><trkpt lat="45.4143" lon="10.7356883"><ele>115.0</ele><time>2026-04-02T09:10:13.202Z</time></trkpt><trkpt lat="45.4142367" lon="10.735655"><ele>115.0</ele><time>2026-04-02T09:10:15.19Z</time></trkpt><trkpt lat="45.41415" lon="10.7356083"><ele>115.0</ele><time>2026-04-02T09:10:18.19Z</time></trkpt><trkpt lat="45.4140833" lon="10.7355667"><ele>115.00000000000001</ele><time>2026-04-02T09:10:20.191Z</time></trkpt><trkpt lat="45.4140117" lon="10.735515"><ele>115.0</ele><time>2026-04-02T09:10:23.196Z</time></trkpt><trkpt lat="45.4139433" lon="10.7355883"><ele>115.0</ele><time>2026-04-02T09:10:26.189Z</time></trkpt><trkpt lat="45.4139183" lon="10.7357333"><ele>115.0</ele><time>2026-04-02T09:10:28.194Z</time></trkpt><trkpt lat="45.413905" lon="10.7359"><ele>115.0</ele><time>2026-04-02T09:10:30.191Z</time></trkpt><trkpt lat="45.4139017" lon="10.7360267"><ele>115.0</ele><time>2026-04-02T09:10:32.195Z</time></trkpt><trkpt lat="45.4139033" lon="10.7361367"><ele>115.0</ele><time>2026-04-02T09:10:35.2Z</time></trkpt><trkpt lat="45.4139833" lon="10.7361617"><ele>114.00000000000001</ele><time>2026-04-02T09:10:47.197Z</time></trkpt><trkpt lat="45.414065" lon="10.7361717"><ele>113.0</ele><time>2026-04-02T09:10:49.195Z</time></trkpt><trkpt lat="45.4141533" lon="10.736195"><ele>112.0</ele><time>2026-04-02T09:10:51.204Z</time></trkpt><trkpt lat="45.41424" lon="10.7362083"><ele>111.0</ele><time>2026-04-02T09:10:53.194Z</time></trkpt><trkpt lat="45.4143217" lon="10.7362167"><ele>110.00000000000001</ele><time>2026-04-02T09:10:55.197Z</time></trkpt><trkpt lat="45.4143967" lon="10.736215"><ele>109.0</ele><time>2026-04-02T09:10:57.195Z</time></trkpt><trkpt lat="45.414475" lon="10.7362167"><ele>109.00000000000001</ele><time>2026-04-02T09:10:59.19Z</time></trkpt><trkpt lat="45.4144417" lon="10.73614"><ele>109.0</ele><time>2026-04-02T09:11:24.194Z</time></trkpt><trkpt lat="45.4143717" lon="10.7361367"><ele>109.0</ele><time>2026-04-02T09:11:25.21Z</time></trkpt><trkpt lat="45.4142817" lon="10.7361233"><ele>109.0</ele><time>2026-04-02T09:11:26.204Z</time></trkpt><trkpt lat="45.4141983" lon="10.7361017"><ele>109.00000000000001</ele><time>2026-04-02T09:11:27.204Z</time></trkpt><trkpt lat="45.4141167" lon="10.736085"><ele>109.0</ele><time>2026-04-02T09:11:28.189Z</time></trkpt><trkpt lat="45.41405" lon="10.7360783"><ele>109.0</ele><time>2026-04-02T09:11:29.2Z</time></trkpt><trkpt lat="45.413945" lon="10.7361267"><ele>109.0</ele><time>2026-04-02T09:11:31.195Z</time></trkpt><trkpt lat="45.41389" lon="10.7362683"><ele>109.0</ele><time>2026-04-02T09:11:33.198Z</time></trkpt><trkpt lat="45.4138667" lon="10.7363917"><ele>109.0</ele><time>2026-04-02T09:11:34.191Z</time></trkpt><trkpt lat="45.4138317" lon="10.7365333"><ele>109.0</ele><time>2026-04-02T09:11:35.199Z</time></trkpt><trkpt lat="45.413795" lon="10.7366983"><ele>109.0</ele><time>2026-04-02T09:11:36.213Z</time></trkpt><trkpt lat="45.41374" lon="10.73684"><ele>109.0</ele><time>2026-04-02T09:11:37.193Z</time></trkpt><trkpt lat="45.4137183" lon="10.73695"><ele>109.0</ele><time>2026-04-02T09:11:38.19Z</time></trkpt><trkpt lat="45.4137083" lon="10.737045"><ele>109.0</ele><time>2026-04-02T09:11:39.195Z</time></trkpt><trkpt lat="45.4136983" lon="10.73717"><ele>109.0</ele><time>2026-04-02T09:11:41.192Z</time></trkpt><trkpt lat="45.4138633" lon="10.7372683"><ele>108.5</ele><time>2026-04-02T09:11:51.195Z</time></trkpt><trkpt lat="45.4139617" lon="10.7372967"><ele>108.0</ele><time>2026-04-02T09:11:52.194Z</time></trkpt><trkpt lat="45.414085" lon="10.7373333"><ele>107.5</ele><time>2026-04-02T09:11:53.193Z</time></trkpt><trkpt lat="45.414215" lon="10.7373717"><ele>107.0</ele><time>2026-04-02T09:11:54.191Z</time></trkpt><trkpt lat="45.414315" lon="10.73741"><ele>106.99999999999999</ele><time>2026-04-02T09:11:55.196Z</time></trkpt><trkpt lat="45.4143883" lon="10.7374383"><ele>107.0</ele><time>2026-04-02T09:11:56.192Z</time></trkpt><trkpt lat="45.4144383" lon="10.7375033"><ele>107.0</ele><time>2026-04-02T09:11:57.196Z</time></trkpt><trkpt lat="45.4144717" lon="10.7376033"><ele>107.0</ele><time>2026-04-02T09:11:58.194Z</time></trkpt><trkpt lat="45.4145117" lon="10.7377217"><ele>106.99999999999999</ele><time>2026-04-02T09:11:59.194Z</time></trkpt><trkpt lat="45.414555" lon="10.73789"><ele>107.0</ele><time>2026-04-02T09:12:00.192Z</time></trkpt><trkpt lat="45.4145767" lon="10.7380783"><ele>106.75</ele><time>2026-04-02T09:12:01.199Z</time></trkpt><trkpt lat="45.4146017" lon="10.7382233"><ele>106.5</ele><time>2026-04-02T09:12:02.191Z</time></trkpt><trkpt lat="45.4146467" lon="10.7383867"><ele>106.25</ele><time>2026-04-02T09:12:03.197Z</time></trkpt><trkpt lat="45.414675" lon="10.7385667"><ele>106.0</ele><time>2026-04-02T09:12:04.196Z</time></trkpt><trkpt lat="45.4146883" lon="10.7387467"><ele>105.25</ele><time>2026-04-02T09:12:05.196Z</time></trkpt><trkpt lat="45.41474" lon="10.7389"><ele>104.5</ele><time>2026-04-02T09:12:06.192Z</time></trkpt><trkpt lat="45.41477" lon="10.73907"><ele>103.75</ele><time>2026-04-02T09:12:07.2Z</time></trkpt><trkpt lat="45.4147983" lon="10.7392433"><ele>103.0</ele><time>2026-04-02T09:12:08.195Z</time></trkpt><trkpt lat="45.4148333" lon="10.7394183"><ele>103.0</ele><time>2026-04-02T09:12:09.194Z</time></trkpt><trkpt lat="45.4148633" lon="10.7396033"><ele>103.0</ele><time>2026-04-02T09:12:10.197Z</time></trkpt><trkpt lat="45.41491" lon="10.7397933"><ele>103.0</ele><time>2026-04-02T09:12:11.203Z</time></trkpt><trkpt lat="45.4149467" lon="10.7399933"><ele>103.0</ele><time>2026-04-02T09:12:12.194Z</time></trkpt><trkpt lat="45.41497" lon="10.7401917"><ele>102.83333333333334</ele><time>2026-04-02T09:12:13.191Z</time></trkpt><trkpt lat="45.4149883" lon="10.7403517"><ele>102.66666666666667</ele><time>2026-04-02T09:12:14.198Z</time></trkpt><trkpt lat="45.41502" lon="10.7404783"><ele>102.5</ele><time>2026-04-02T09:12:15.192Z</time></trkpt><trkpt lat="45.4150283" lon="10.740595"><ele>102.33333333333334</ele><time>2026-04-02T09:12:16.198Z</time></trkpt><trkpt lat="45.4150783" lon="10.740675"><ele>102.16666666666667</ele><time>2026-04-02T09:12:17.194Z</time></trkpt><trkpt lat="45.4151417" lon="10.7407267"><ele>102.0</ele><time>2026-04-02T09:12:18.197Z</time></trkpt><trkpt lat="45.41524" lon="10.740735"><ele>102.0</ele><time>2026-04-02T09:12:19.19Z</time></trkpt><trkpt lat="45.415355" lon="10.7406967"><ele>102.0</ele><time>2026-04-02T09:12:20.194Z</time></trkpt><trkpt lat="45.415465" lon="10.7407033"><ele>102.0</ele><time>2026-04-02T09:12:21.191Z</time></trkpt><trkpt lat="45.4155933" lon="10.7407267"><ele>102.0</ele><time>2026-04-02T09:12:22.194Z</time></trkpt><trkpt lat="45.4157067" lon="10.7407433"><ele>102.5</ele><time>2026-04-02T09:12:23.195Z</time></trkpt><trkpt lat="45.4158383" lon="10.7407483"><ele>103.0</ele><time>2026-04-02T09:12:24.196Z</time></trkpt><trkpt lat="45.4159667" lon="10.740735"><ele>103.5</ele><time>2026-04-02T09:12:25.196Z</time></trkpt><trkpt lat="45.4160967" lon="10.7407617"><ele>104.0</ele><time>2026-04-02T09:12:26.195Z</time></trkpt><trkpt lat="45.4162167" lon="10.7407967"><ele>103.5</ele><time>2026-04-02T09:12:27.199Z</time></trkpt><trkpt lat="45.4163283" lon="10.7408133"><ele>103.0</ele><time>2026-04-02T09:12:28.19Z</time></trkpt><trkpt lat="45.4164283" lon="10.7408767"><ele>102.5</ele><time>2026-04-02T09:12:29.194Z</time></trkpt><trkpt lat="45.4165283" lon="10.7409567"><ele>102.0</ele><time>2026-04-02T09:12:30.199Z</time></trkpt><trkpt lat="45.416655" lon="10.741075"><ele>101.5</ele><time>2026-04-02T09:12:31.196Z</time></trkpt><trkpt lat="45.4167367" lon="10.7411833"><ele>101.0</ele><time>2026-04-02T09:12:32.192Z</time></trkpt><trkpt lat="45.4168417" lon="10.7413017"><ele>100.5</ele><time>2026-04-02T09:12:33.194Z</time></trkpt><trkpt lat="45.41697" lon="10.7414017"><ele>100.0</ele><time>2026-04-02T09:12:34.19Z</time></trkpt><trkpt lat="45.4171083" lon="10.741485"><ele>100.66666666666667</ele><time>2026-04-02T09:12:35.191Z</time></trkpt><trkpt lat="45.4172517" lon="10.7415617"><ele>101.33333333333334</ele><time>2026-04-02T09:12:36.197Z</time></trkpt><trkpt lat="45.4174083" lon="10.7416267"><ele>102.0</ele><time>2026-04-02T09:12:37.201Z</time></trkpt><trkpt lat="45.4175533" lon="10.7417"><ele>102.0</ele><time>2026-04-02T09:12:38.194Z</time></trkpt><trkpt lat="45.4176983" lon="10.7417867"><ele>102.0</ele><time>2026-04-02T09:12:39.206Z</time></trkpt><trkpt lat="45.41786" lon="10.7418517"><ele>102.0</ele><time>2026-04-02T09:12:40.2Z</time></trkpt><trkpt lat="45.4180117" lon="10.741935"><ele>102.0</ele><time>2026-04-02T09:12:41.193Z</time></trkpt><trkpt lat="45.4181667" lon="10.7420017"><ele>102.0</ele><time>2026-04-02T09:12:42.196Z</time></trkpt><trkpt lat="45.418315" lon="10.7420917"><ele>102.0</ele><time>2026-04-02T09:12:43.194Z</time></trkpt><trkpt lat="45.4184367" lon="10.742165"><ele>102.0</ele><time>2026-04-02T09:12:44.193Z</time></trkpt><trkpt lat="45.4185483" lon="10.7422033"><ele>102.0</ele><time>2026-04-02T09:12:45.191Z</time></trkpt><trkpt lat="45.4186367" lon="10.7422467"><ele>102.0</ele><time>2026-04-02T09:12:46.197Z</time></trkpt><trkpt lat="45.4187133" lon="10.74228"><ele>102.0</ele><time>2026-04-02T09:12:47.191Z</time></trkpt><trkpt lat="45.418815" lon="10.7423283"><ele>102.0</ele><time>2026-04-02T09:12:49.192Z</time></trkpt><trkpt lat="45.418865" lon="10.7422333"><ele>102.0</ele><time>2026-04-02T09:12:53.191Z</time></trkpt><trkpt lat="45.41883" lon="10.74209"><ele>102.0</ele><time>2026-04-02T09:12:55.197Z</time></trkpt><trkpt lat="45.418805" lon="10.7419983"><ele>102.0</ele><time>2026-04-02T09:12:56.201Z</time></trkpt><trkpt lat="45.4187817" lon="10.7418933"><ele>102.0</ele><time>2026-04-02T09:12:57.195Z</time></trkpt><trkpt lat="45.4187533" lon="10.7417783"><ele>102.0</ele><time>2026-04-02T09:12:58.192Z</time></trkpt><trkpt lat="45.4187267" lon="10.7416633"><ele>102.0</ele><time>2026-04-02T09:12:59.204Z</time></trkpt><trkpt lat="45.4187" lon="10.7415483"><ele>102.19999999999999</ele><time>2026-04-02T09:13:00.2Z</time></trkpt><trkpt lat="45.4186733" lon="10.7414183"><ele>102.4</ele><time>2026-04-02T09:13:01.189Z</time></trkpt><trkpt lat="45.4186433" lon="10.7412867"><ele>102.6</ele><time>2026-04-02T09:13:02.198Z</time></trkpt><trkpt lat="45.4186133" lon="10.7411183"><ele>102.80000000000001</ele><time>2026-04-02T09:13:03.197Z</time></trkpt><trkpt lat="45.41857" lon="10.7409717"><ele>103.0</ele><time>2026-04-02T09:13:04.193Z</time></trkpt><trkpt lat="45.41852" lon="10.7408183"><ele>103.0</ele><time>2026-04-02T09:13:05.194Z</time></trkpt><trkpt lat="45.4184717" lon="10.7406283"><ele>103.0</ele><time>2026-04-02T09:13:06.193Z</time></trkpt><trkpt lat="45.4184417" lon="10.7404633"><ele>103.0</ele><time>2026-04-02T09:13:07.194Z</time></trkpt><trkpt lat="45.4184" lon="10.74026"><ele>103.0</ele><time>2026-04-02T09:13:08.192Z</time></trkpt><trkpt lat="45.41836" lon="10.74006"><ele>102.33333333333334</ele><time>2026-04-02T09:13:09.194Z</time></trkpt><trkpt lat="45.4182967" lon="10.7398883"><ele>101.66666666666666</ele><time>2026-04-02T09:13:10.193Z</time></trkpt><trkpt lat="45.4182533" lon="10.7396583"><ele>101.0</ele><time>2026-04-02T09:13:11.203Z</time></trkpt><trkpt lat="45.4181933" lon="10.7394517"><ele>101.25</ele><time>2026-04-02T09:13:12.197Z</time></trkpt><trkpt lat="45.4181567" lon="10.73925"><ele>101.5</ele><time>2026-04-02T09:13:13.191Z</time></trkpt><trkpt lat="45.4181167" lon="10.73904"><ele>101.75</ele><time>2026-04-02T09:13:14.196Z</time></trkpt><trkpt lat="45.418095" lon="10.7388467"><ele>102.0</ele><time>2026-04-02T09:13:15.197Z</time></trkpt><trkpt lat="45.4180717" lon="10.7387033"><ele>102.0</ele><time>2026-04-02T09:13:16.194Z</time></trkpt><trkpt lat="45.4180533" lon="10.7385967"><ele>102.0</ele><time>2026-04-02T09:13:17.195Z</time></trkpt><trkpt lat="45.4180467" lon="10.73847"><ele>102.0</ele><time>2026-04-02T09:13:18.206Z</time></trkpt><trkpt lat="45.4180383" lon="10.7383533"><ele>102.0</ele><time>2026-04-02T09:13:19.193Z</time></trkpt><trkpt lat="45.41805" lon="10.73825"><ele>102.0</ele><time>2026-04-02T09:13:20.192Z</time></trkpt><trkpt lat="45.41808" lon="10.738165"><ele>102.0</ele><time>2026-04-02T09:13:21.192Z</time></trkpt><trkpt lat="45.41813" lon="10.7381"><ele>102.16666666666667</ele><time>2026-04-02T09:13:22.195Z</time></trkpt><trkpt lat="45.4181867" lon="10.7380417"><ele>102.33333333333334</ele><time>2026-04-02T09:13:23.199Z</time></trkpt><trkpt lat="45.4182583" lon="10.7379917"><ele>102.5</ele><time>2026-04-02T09:13:24.198Z</time></trkpt><trkpt lat="45.418335" lon="10.7379467"><ele>102.66666666666667</ele><time>2026-04-02T09:13:25.193Z</time></trkpt><trkpt lat="45.41841" lon="10.7378867"><ele>102.83333333333334</ele><time>2026-04-02T09:13:26.194Z</time></trkpt><trkpt lat="45.4184783" lon="10.7378283"><ele>103.0</ele><time>2026-04-02T09:13:27.191Z</time></trkpt><trkpt lat="45.4185517" lon="10.7377633"><ele>103.4</ele><time>2026-04-02T09:13:28.197Z</time></trkpt><trkpt lat="45.418615" lon="10.737705"><ele>103.80000000000001</ele><time>2026-04-02T09:13:29.199Z</time></trkpt><trkpt lat="45.4187117" lon="10.7376283"><ele>104.2</ele><time>2026-04-02T09:13:31.192Z</time></trkpt><trkpt lat="45.41878" lon="10.7375183"><ele>104.6</ele><time>2026-04-02T09:13:33.206Z</time></trkpt><trkpt lat="45.4188183" lon="10.7374"><ele>105.0</ele><time>2026-04-02T09:13:35.2Z</time></trkpt><trkpt lat="45.41885" lon="10.7372933"><ele>105.0</ele><time>2026-04-02T09:13:37.194Z</time></trkpt><trkpt lat="45.4188917" lon="10.7372233"><ele>105.0</ele><time>2026-04-02T09:13:39.196Z</time></trkpt><trkpt lat="45.41893" lon="10.7371367"><ele>105.0</ele><time>2026-04-02T09:13:43.199Z</time></trkpt><trkpt lat="45.4189017" lon="10.7370117"><ele>105.0</ele><time>2026-04-02T09:13:46.188Z</time></trkpt><trkpt lat="45.418865" lon="10.7368833"><ele>105.0</ele><time>2026-04-02T09:13:48.195Z</time></trkpt><trkpt lat="45.4188133" lon="10.73676"><ele>105.0</ele><time>2026-04-02T09:13:50.197Z</time></trkpt><trkpt lat="45.4187667" lon="10.7366783"><ele>105.0</ele><time>2026-04-02T09:13:52.191Z</time></trkpt><trkpt lat="45.41873" lon="10.736585"><ele>105.0</ele><time>2026-04-02T09:13:55.195Z</time></trkpt><trkpt lat="45.4186833" lon="10.7365167"><ele>105.0</ele><time>2026-04-02T09:13:57.195Z</time></trkpt><trkpt lat="45.41862" lon="10.7364283"><ele>105.0</ele><time>2026-04-02T09:13:59.194Z</time></trkpt><trkpt lat="45.41854" lon="10.7363233"><ele>105.0</ele><time>2026-04-02T09:14:01.195Z</time></trkpt><trkpt lat="45.418495" lon="10.7362583"><ele>105.0</ele><time>2026-04-02T09:14:02.191Z</time></trkpt><trkpt lat="45.4184167" lon="10.73614"><ele>105.0</ele><time>2026-04-02T09:14:04.195Z</time></trkpt><trkpt lat="45.41837" lon="10.73603"><ele>105.0</ele><time>2026-04-02T09:14:06.197Z</time></trkpt><trkpt lat="45.4183383" lon="10.7359383"><ele>105.0</ele><time>2026-04-02T09:14:08.189Z</time></trkpt><trkpt lat="45.4183067" lon="10.7358567"><ele>105.0</ele><time>2026-04-02T09:14:12.197Z</time></trkpt><trkpt lat="45.4182483" lon="10.7357983"><ele>105.0</ele><time>2026-04-02T09:14:15.194Z</time></trkpt><trkpt lat="45.41828" lon="10.7358917"><ele>105.0</ele><time>2026-04-02T09:14:32.194Z</time></trkpt><trkpt lat="45.41833" lon="10.7360033"><ele>105.0</ele><time>2026-04-02T09:14:35.209Z</time></trkpt><trkpt lat="45.41838" lon="10.7361333"><ele>105.0</ele><time>2026-04-02T09:14:37.197Z</time></trkpt><trkpt lat="45.4184517" lon="10.7362633"><ele>105.0</ele><time>2026-04-02T09:14:39.198Z</time></trkpt><trkpt lat="45.418535" lon="10.7363867"><ele>105.0</ele><time>2026-04-02T09:14:41.194Z</time></trkpt><trkpt lat="45.4186183" lon="10.736505"><ele>105.0</ele><time>2026-04-02T09:14:43.197Z</time></trkpt><trkpt lat="45.4186967" lon="10.7366133"><ele>105.0</ele><time>2026-04-02T09:14:45.198Z</time></trkpt><trkpt lat="45.4187717" lon="10.7367333"><ele>105.0</ele><time>2026-04-02T09:14:47.199Z</time></trkpt><trkpt lat="45.4188283" lon="10.7368417"><ele>105.0</ele><time>2026-04-02T09:14:49.189Z</time></trkpt><trkpt lat="45.4188617" lon="10.7369333"><ele>105.0</ele><time>2026-04-02T09:14:51.192Z</time></trkpt><trkpt lat="45.418885" lon="10.7370167"><ele>105.0</ele><time>2026-04-02T09:14:53.19Z</time></trkpt><trkpt lat="45.4189517" lon="10.7370467"><ele>105.0</ele><time>2026-04-02T09:14:56.196Z</time></trkpt><trkpt lat="45.419005" lon="10.73696"><ele>105.0</ele><time>2026-04-02T09:14:58.193Z</time></trkpt><trkpt lat="45.4190783" lon="10.7368717"><ele>105.0</ele><time>2026-04-02T09:15:00.193Z</time></trkpt><trkpt lat="45.419145" lon="10.736865"><ele>105.0</ele><time>2026-04-02T09:15:02.19Z</time></trkpt><trkpt lat="45.4192233" lon="10.7369317"><ele>105.0</ele><time>2026-04-02T09:15:04.197Z</time></trkpt><trkpt lat="45.4193117" lon="10.7370267"><ele>105.0</ele><time>2026-04-02T09:15:06.191Z</time></trkpt><trkpt lat="45.41938" lon="10.73712"><ele>105.0</ele><time>2026-04-02T09:15:08.201Z</time></trkpt><trkpt lat="45.419445" lon="10.7372"><ele>105.0</ele><time>2026-04-02T09:15:10.193Z</time></trkpt><trkpt lat="45.4194817" lon="10.7372883"><ele>105.0</ele><time>2026-04-02T09:15:12.198Z</time></trkpt><trkpt lat="45.4195317" lon="10.7373483"><ele>105.0</ele><time>2026-04-02T09:15:15.2Z</time></trkpt><trkpt lat="45.4195517" lon="10.7372483"><ele>105.0</ele><time>2026-04-02T09:15:18.198Z</time></trkpt><trkpt lat="45.41949" lon="10.7371867"><ele>105.0</ele><time>2026-04-02T09:15:20.194Z</time></trkpt><trkpt lat="45.4194083" lon="10.7371083"><ele>105.0</ele><time>2026-04-02T09:15:22.194Z</time></trkpt><trkpt lat="45.4193367" lon="10.737005"><ele>105.0</ele><time>2026-04-02T09:15:24.193Z</time></trkpt><trkpt lat="45.419255" lon="10.7369033"><ele>105.0</ele><time>2026-04-02T09:15:26.195Z</time></trkpt><trkpt lat="45.4191783" lon="10.7368183"><ele>105.0</ele><time>2026-04-02T09:15:28.194Z</time></trkpt><trkpt lat="45.4190933" lon="10.7368133"><ele>105.0</ele><time>2026-04-02T09:15:30.196Z</time></trkpt><trkpt lat="45.419015" lon="10.7368683"><ele>105.0</ele><time>2026-04-02T09:15:32.205Z</time></trkpt><trkpt lat="45.4189583" lon="10.7369767"><ele>105.0</ele><time>2026-04-02T09:15:34.19Z</time></trkpt><trkpt lat="45.4189083" lon="10.7371083"><ele>105.0</ele><time>2026-04-02T09:15:36.198Z</time></trkpt><trkpt lat="45.4188533" lon="10.73722"><ele>105.0</ele><time>2026-04-02T09:15:38.194Z</time></trkpt><trkpt lat="45.4188033" lon="10.73731"><ele>105.2</ele><time>2026-04-02T09:15:40.19Z</time></trkpt><trkpt lat="45.418775" lon="10.7374583"><ele>105.4</ele><time>2026-04-02T09:15:42.2Z</time></trkpt><trkpt lat="45.4187117" lon="10.7376017"><ele>105.6</ele><time>2026-04-02T09:15:44.192Z</time></trkpt><trkpt lat="45.4186133" lon="10.7376983"><ele>105.8</ele><time>2026-04-02T09:15:46.19Z</time></trkpt><trkpt lat="45.4185583" lon="10.73775"><ele>106.0</ele><time>2026-04-02T09:15:47.195Z</time></trkpt><trkpt lat="45.4184983" lon="10.73781"><ele>105.50000000000001</ele><time>2026-04-02T09:15:48.199Z</time></trkpt><trkpt lat="45.4184283" lon="10.7378717"><ele>105.0</ele><time>2026-04-02T09:15:49.2Z</time></trkpt><trkpt lat="45.418355" lon="10.7379217"><ele>104.5</ele><time>2026-04-02T09:15:50.194Z</time></trkpt><trkpt lat="45.418285" lon="10.7379767"><ele>104.0</ele><time>2026-04-02T09:15:51.194Z</time></trkpt><trkpt lat="45.4182133" lon="10.7380317"><ele>103.50000000000001</ele><time>2026-04-02T09:15:52.194Z</time></trkpt><trkpt lat="45.4181583" lon="10.7381017"><ele>103.0</ele><time>2026-04-02T09:15:53.19Z</time></trkpt><trkpt lat="45.41811" lon="10.7381967"><ele>103.0</ele><time>2026-04-02T09:15:54.193Z</time></trkpt><trkpt lat="45.41809" lon="10.7382983"><ele>103.0</ele><time>2026-04-02T09:15:55.2Z</time></trkpt><trkpt lat="45.41808" lon="10.73843"><ele>103.0</ele><time>2026-04-02T09:15:56.186Z</time></trkpt><trkpt lat="45.418085" lon="10.738585"><ele>103.0</ele><time>2026-04-02T09:15:57.194Z</time></trkpt><trkpt lat="45.418105" lon="10.7387417"><ele>103.0</ele><time>2026-04-02T09:15:58.199Z</time></trkpt><trkpt lat="45.4181233" lon="10.7388933"><ele>102.75</ele><time>2026-04-02T09:15:59.191Z</time></trkpt><trkpt lat="45.4181417" lon="10.73907"><ele>102.5</ele><time>2026-04-02T09:16:00.195Z</time></trkpt><trkpt lat="45.4181833" lon="10.7392367"><ele>102.25</ele><time>2026-04-02T09:16:01.192Z</time></trkpt><trkpt lat="45.418225" lon="10.7393883"><ele>102.0</ele><time>2026-04-02T09:16:02.198Z</time></trkpt><trkpt lat="45.41826" lon="10.7395833"><ele>101.75</ele><time>2026-04-02T09:16:03.19Z</time></trkpt><trkpt lat="45.4182933" lon="10.7397717"><ele>101.5</ele><time>2026-04-02T09:16:04.202Z</time></trkpt><trkpt lat="45.41832" lon="10.7399833"><ele>101.25</ele><time>2026-04-02T09:16:05.196Z</time></trkpt><trkpt lat="45.418375" lon="10.740185"><ele>101.0</ele><time>2026-04-02T09:16:06.192Z</time></trkpt><trkpt lat="45.41841" lon="10.740385"><ele>101.5</ele><time>2026-04-02T09:16:07.193Z</time></trkpt><trkpt lat="45.418455" lon="10.740575"><ele>102.0</ele><time>2026-04-02T09:16:08.197Z</time></trkpt><trkpt lat="45.4185033" lon="10.7407467"><ele>102.5</ele><time>2026-04-02T09:16:09.189Z</time></trkpt><trkpt lat="45.41858" lon="10.7409117"><ele>103.0</ele><time>2026-04-02T09:16:10.191Z</time></trkpt><trkpt lat="45.418605" lon="10.7411317"><ele>103.0</ele><time>2026-04-02T09:16:11.193Z</time></trkpt><trkpt lat="45.4186483" lon="10.7413283"><ele>103.0</ele><time>2026-04-02T09:16:12.19Z</time></trkpt><trkpt lat="45.4186917" lon="10.7415233"><ele>103.0</ele><time>2026-04-02T09:16:13.2Z</time></trkpt><trkpt lat="45.4187283" lon="10.7416867"><ele>103.0</ele><time>2026-04-02T09:16:14.2Z</time></trkpt><trkpt lat="45.418755" lon="10.74183"><ele>102.80000000000001</ele><time>2026-04-02T09:16:15.194Z</time></trkpt><trkpt lat="45.4187917" lon="10.7419867"><ele>102.6</ele><time>2026-04-02T09:16:16.197Z</time></trkpt><trkpt lat="45.4188217" lon="10.7421217"><ele>102.4</ele><time>2026-04-02T09:16:17.201Z</time></trkpt><trkpt lat="45.4188467" lon="10.742235"><ele>102.19999999999999</ele><time>2026-04-02T09:16:18.192Z</time></trkpt><trkpt lat="45.4188717" lon="10.7423317"><ele>102.0</ele><time>2026-04-02T09:16:19.195Z</time></trkpt><trkpt lat="45.418945" lon="10.7424733"><ele>102.5</ele><time>2026-04-02T09:16:21.196Z</time></trkpt><trkpt lat="45.41902" lon="10.74252"><ele>103.0</ele><time>2026-04-02T09:16:22.196Z</time></trkpt><trkpt lat="45.4191183" lon="10.7425583"><ele>103.5</ele><time>2026-04-02T09:16:23.198Z</time></trkpt><trkpt lat="45.4192333" lon="10.7425983"><ele>104.0</ele><time>2026-04-02T09:16:24.207Z</time></trkpt><trkpt lat="45.4193833" lon="10.7426633"><ele>104.0</ele><time>2026-04-02T09:16:25.19Z</time></trkpt><trkpt lat="45.4195017" lon="10.7427417"><ele>104.0</ele><time>2026-04-02T09:16:26.201Z</time></trkpt><trkpt lat="45.41962" lon="10.742835"><ele>104.0</ele><time>2026-04-02T09:16:27.197Z</time></trkpt><trkpt lat="45.419765" lon="10.7429233"><ele>104.0</ele><time>2026-04-02T09:16:28.192Z</time></trkpt><trkpt lat="45.4199083" lon="10.7430433"><ele>104.0</ele><time>2026-04-02T09:16:29.193Z</time></trkpt><trkpt lat="45.4200417" lon="10.7431817"><ele>104.0</ele><time>2026-04-02T09:16:30.197Z</time></trkpt><trkpt lat="45.4201783" lon="10.7433117"><ele>104.0</ele><time>2026-04-02T09:16:31.202Z</time></trkpt><trkpt lat="45.4203367" lon="10.7434067"><ele>104.33333333333333</ele><time>2026-04-02T09:16:32.194Z</time></trkpt><trkpt lat="45.4205" lon="10.7435233"><ele>104.66666666666666</ele><time>2026-04-02T09:16:33.209Z</time></trkpt><trkpt lat="45.4206533" lon="10.74365"><ele>105.0</ele><time>2026-04-02T09:16:34.194Z</time></trkpt><trkpt lat="45.4208033" lon="10.7438083"><ele>104.0</ele><time>2026-04-02T09:16:35.192Z</time></trkpt><trkpt lat="45.42094" lon="10.7439617"><ele>103.0</ele><time>2026-04-02T09:16:36.194Z</time></trkpt><trkpt lat="45.42109" lon="10.7440433"><ele>102.0</ele><time>2026-04-02T09:16:37.193Z</time></trkpt><trkpt lat="45.4212333" lon="10.7441383"><ele>102.0</ele><time>2026-04-02T09:16:38.193Z</time></trkpt><trkpt lat="45.4213467" lon="10.7442667"><ele>102.0</ele><time>2026-04-02T09:16:39.195Z</time></trkpt><trkpt lat="45.4214617" lon="10.7443767"><ele>102.0</ele><time>2026-04-02T09:16:40.199Z</time></trkpt><trkpt lat="45.4215867" lon="10.7444633"><ele>102.0</ele><time>2026-04-02T09:16:41.192Z</time></trkpt><trkpt lat="45.4216983" lon="10.7445417"><ele>102.0</ele><time>2026-04-02T09:16:42.193Z</time></trkpt><trkpt lat="45.4218067" lon="10.7445883"><ele>102.0</ele><time>2026-04-02T09:16:43.2Z</time></trkpt><trkpt lat="45.4219167" lon="10.744685"><ele>102.0</ele><time>2026-04-02T09:16:44.192Z</time></trkpt><trkpt lat="45.4220117" lon="10.7447583"><ele>102.0</ele><time>2026-04-02T09:16:45.194Z</time></trkpt><trkpt lat="45.4221067" lon="10.7448267"><ele>102.6</ele><time>2026-04-02T09:16:46.19Z</time></trkpt><trkpt lat="45.4221883" lon="10.7449067"><ele>103.19999999999999</ele><time>2026-04-02T09:16:47.196Z</time></trkpt><trkpt lat="45.4222983" lon="10.7449833"><ele>103.8</ele><time>2026-04-02T09:16:48.19Z</time></trkpt><trkpt lat="45.4223817" lon="10.7450433"><ele>104.4</ele><time>2026-04-02T09:16:49.195Z</time></trkpt><trkpt lat="45.4224683" lon="10.74514"><ele>105.0</ele><time>2026-04-02T09:16:50.192Z</time></trkpt><trkpt lat="45.4225783" lon="10.7452083"><ele>105.0</ele><time>2026-04-02T09:16:51.193Z</time></trkpt><trkpt lat="45.422665" lon="10.74533"><ele>105.0</ele><time>2026-04-02T09:16:52.191Z</time></trkpt><trkpt lat="45.422765" lon="10.74543"><ele>105.0</ele><time>2026-04-02T09:16:53.191Z</time></trkpt><trkpt lat="45.4228833" lon="10.745485"><ele>105.0</ele><time>2026-04-02T09:16:54.191Z</time></trkpt><trkpt lat="45.42301" lon="10.74557"><ele>105.25</ele><time>2026-04-02T09:16:55.195Z</time></trkpt><trkpt lat="45.4231383" lon="10.745645"><ele>105.5</ele><time>2026-04-02T09:16:56.2Z</time></trkpt><trkpt lat="45.4232533" lon="10.7457167"><ele>105.75</ele><time>2026-04-02T09:16:57.192Z</time></trkpt><trkpt lat="45.4233567" lon="10.7458167"><ele>106.0</ele><time>2026-04-02T09:16:58.196Z</time></trkpt><trkpt lat="45.42346" lon="10.74593"><ele>106.0</ele><time>2026-04-02T09:16:59.197Z</time></trkpt><trkpt lat="45.423575" lon="10.7460117"><ele>106.0</ele><time>2026-04-02T09:17:00.202Z</time></trkpt><trkpt lat="45.4237033" lon="10.7460583"><ele>106.0</ele><time>2026-04-02T09:17:01.188Z</time></trkpt><trkpt lat="45.4238017" lon="10.7461383"><ele>106.0</ele><time>2026-04-02T09:17:02.195Z</time></trkpt><trkpt lat="45.42392" lon="10.7462267"><ele>106.16666666666667</ele><time>2026-04-02T09:17:03.196Z</time></trkpt><trkpt lat="45.4239983" lon="10.7463283"><ele>106.33333333333334</ele><time>2026-04-02T09:17:04.192Z</time></trkpt><trkpt lat="45.4240717" lon="10.7464"><ele>106.5</ele><time>2026-04-02T09:17:05.194Z</time></trkpt><trkpt lat="45.4241433" lon="10.7464667"><ele>106.66666666666666</ele><time>2026-04-02T09:17:06.209Z</time></trkpt><trkpt lat="45.4241983" lon="10.74654"><ele>106.83333333333333</ele><time>2026-04-02T09:17:07.19Z</time></trkpt><trkpt lat="45.4242717" lon="10.7466033"><ele>107.0</ele><time>2026-04-02T09:17:08.201Z</time></trkpt><trkpt lat="45.424345" lon="10.7466667"><ele>107.0</ele><time>2026-04-02T09:17:09.195Z</time></trkpt><trkpt lat="45.4244217" lon="10.746755"><ele>107.0</ele><time>2026-04-02T09:17:10.193Z</time></trkpt><trkpt lat="45.42451" lon="10.7468767"><ele>107.0</ele><time>2026-04-02T09:17:11.201Z</time></trkpt><trkpt lat="45.4246117" lon="10.747005"><ele>107.0</ele><time>2026-04-02T09:17:12.193Z</time></trkpt><trkpt lat="45.4247067" lon="10.7471283"><ele>106.25</ele><time>2026-04-02T09:17:13.195Z</time></trkpt><trkpt lat="45.424815" lon="10.7472517"><ele>105.5</ele><time>2026-04-02T09:17:14.19Z</time></trkpt><trkpt lat="45.4249283" lon="10.7473783"><ele>104.75</ele><time>2026-04-02T09:17:15.195Z</time></trkpt><trkpt lat="45.425035" lon="10.74749"><ele>104.0</ele><time>2026-04-02T09:17:16.195Z</time></trkpt><trkpt lat="45.4251517" lon="10.7476233"><ele>104.0</ele><time>2026-04-02T09:17:17.195Z</time></trkpt><trkpt lat="45.4252667" lon="10.7477733"><ele>104.0</ele><time>2026-04-02T09:17:18.198Z</time></trkpt><trkpt lat="45.4253833" lon="10.7479133"><ele>104.0</ele><time>2026-04-02T09:17:19.195Z</time></trkpt><trkpt lat="45.4254917" lon="10.7480433"><ele>104.0</ele><time>2026-04-02T09:17:20.194Z</time></trkpt><trkpt lat="45.4255933" lon="10.7481833"><ele>104.0</ele><time>2026-04-02T09:17:21.2Z</time></trkpt><trkpt lat="45.42571" lon="10.7483183"><ele>104.0</ele><time>2026-04-02T09:17:22.194Z</time></trkpt><trkpt lat="45.4258267" lon="10.74843"><ele>104.0</ele><time>2026-04-02T09:17:23.207Z</time></trkpt><trkpt lat="45.42594" lon="10.7485333"><ele>104.0</ele><time>2026-04-02T09:17:24.195Z</time></trkpt><trkpt lat="45.4260667" lon="10.748595"><ele>104.0</ele><time>2026-04-02T09:17:25.195Z</time></trkpt><trkpt lat="45.426175" lon="10.7486633"><ele>104.0</ele><time>2026-04-02T09:17:26.193Z</time></trkpt><trkpt lat="45.4263" lon="10.7487283"><ele>104.0</ele><time>2026-04-02T09:17:27.193Z</time></trkpt><trkpt lat="45.42641" lon="10.7488"><ele>103.99999999999999</ele><time>2026-04-02T09:17:28.193Z</time></trkpt><trkpt lat="45.4264767" lon="10.7488417"><ele>104.0</ele><time>2026-04-02T09:17:29.194Z</time></trkpt><trkpt lat="45.4265517" lon="10.748895"><ele>104.0</ele><time>2026-04-02T09:17:30.194Z</time></trkpt><trkpt lat="45.42661" lon="10.7489417"><ele>104.0</ele><time>2026-04-02T09:17:31.194Z</time></trkpt><trkpt lat="45.426685" lon="10.749045"><ele>103.99999999999999</ele><time>2026-04-02T09:17:33.189Z</time></trkpt><trkpt lat="45.4267167" lon="10.749175"><ele>104.0</ele><time>2026-04-02T09:17:35.193Z</time></trkpt><trkpt lat="45.4267083" lon="10.7492783"><ele>103.99999999999999</ele><time>2026-04-02T09:17:36.197Z</time></trkpt><trkpt lat="45.4267033" lon="10.7493983"><ele>104.0</ele><time>2026-04-02T09:17:37.195Z</time></trkpt><trkpt lat="45.426695" lon="10.7495317"><ele>104.0</ele><time>2026-04-02T09:17:38.197Z</time></trkpt><trkpt lat="45.4266767" lon="10.7496717"><ele>104.0</ele><time>2026-04-02T09:17:39.19Z</time></trkpt><trkpt lat="45.4266717" lon="10.7497683"><ele>103.99999999999999</ele><time>2026-04-02T09:17:40.208Z</time></trkpt><trkpt lat="45.4266617" lon="10.7498617"><ele>104.0</ele><time>2026-04-02T09:17:41.196Z</time></trkpt><trkpt lat="45.4266333" lon="10.7500083"><ele>103.99999999999999</ele><time>2026-04-02T09:17:43.197Z</time></trkpt><trkpt lat="45.42663" lon="10.7501133"><ele>104.0</ele><time>2026-04-02T09:17:45.193Z</time></trkpt><trkpt lat="45.4267083" lon="10.7500933"><ele>104.0</ele><time>2026-04-02T09:17:50.198Z</time></trkpt><trkpt lat="45.4267383" lon="10.7499767"><ele>104.0</ele><time>2026-04-02T09:17:52.192Z</time></trkpt><trkpt lat="45.4267467" lon="10.7498817"><ele>103.99999999999999</ele><time>2026-04-02T09:17:53.192Z</time></trkpt><trkpt lat="45.4267617" lon="10.74977"><ele>104.0</ele><time>2026-04-02T09:17:54.192Z</time></trkpt><trkpt lat="45.4267733" lon="10.7496533"><ele>103.99999999999999</ele><time>2026-04-02T09:17:55.198Z</time></trkpt><trkpt lat="45.4267833" lon="10.7495383"><ele>104.0</ele><time>2026-04-02T09:17:56.197Z</time></trkpt><trkpt lat="45.4267883" lon="10.7494317"><ele>104.0</ele><time>2026-04-02T09:17:57.194Z</time></trkpt><trkpt lat="45.4267867" lon="10.7493417"><ele>104.0</ele><time>2026-04-02T09:17:58.192Z</time></trkpt><trkpt lat="45.4267667" lon="10.7492083"><ele>103.99999999999999</ele><time>2026-04-02T09:18:00.198Z</time></trkpt><trkpt lat="45.42675" lon="10.7491083"><ele>104.0</ele><time>2026-04-02T09:18:02.192Z</time></trkpt><trkpt lat="45.426735" lon="10.749015"><ele>103.99999999999999</ele><time>2026-04-02T09:18:04.192Z</time></trkpt><trkpt lat="45.4267" lon="10.748925"><ele>104.0</ele><time>2026-04-02T09:18:15.192Z</time></trkpt><trkpt lat="45.4265967" lon="10.7488917"><ele>104.0</ele><time>2026-04-02T09:18:17.203Z</time></trkpt><trkpt lat="45.42653" lon="10.748855"><ele>104.0</ele><time>2026-04-02T09:18:18.205Z</time></trkpt><trkpt lat="45.4264483" lon="10.7488067"><ele>103.99999999999999</ele><time>2026-04-02T09:18:19.193Z</time></trkpt><trkpt lat="45.426355" lon="10.7487383"><ele>104.0</ele><time>2026-04-02T09:18:20.19Z</time></trkpt><trkpt lat="45.4262283" lon="10.7486767"><ele>104.0</ele><time>2026-04-02T09:18:21.197Z</time></trkpt><trkpt lat="45.4261233" lon="10.7486167"><ele>104.0</ele><time>2026-04-02T09:18:22.19Z</time></trkpt><trkpt lat="45.4260067" lon="10.748525"><ele>104.0</ele><time>2026-04-02T09:18:23.204Z</time></trkpt><trkpt lat="45.425885" lon="10.748415"><ele>104.0</ele><time>2026-04-02T09:18:24.193Z</time></trkpt><trkpt lat="45.425735" lon="10.7483133"><ele>104.0</ele><time>2026-04-02T09:18:25.195Z</time></trkpt><trkpt lat="45.4256233" lon="10.7481617"><ele>104.0</ele><time>2026-04-02T09:18:26.189Z</time></trkpt><trkpt lat="45.425495" lon="10.7480167"><ele>104.0</ele><time>2026-04-02T09:18:27.199Z</time></trkpt><trkpt lat="45.4253683" lon="10.7478433"><ele>104.0</ele><time>2026-04-02T09:18:28.195Z</time></trkpt><trkpt lat="45.425255" lon="10.7477183"><ele>104.0</ele><time>2026-04-02T09:18:29.2Z</time></trkpt><trkpt lat="45.425145" lon="10.7475533"><ele>104.0</ele><time>2026-04-02T09:18:30.192Z</time></trkpt><trkpt lat="45.42504" lon="10.7474183"><ele>104.0</ele><time>2026-04-02T09:18:31.221Z</time></trkpt><trkpt lat="45.4249233" lon="10.74726"><ele>104.0</ele><time>2026-04-02T09:18:32.199Z</time></trkpt><trkpt lat="45.42479" lon="10.7471317"><ele>104.0</ele><time>2026-04-02T09:18:33.191Z</time></trkpt><trkpt lat="45.4246883" lon="10.7470117"><ele>104.0</ele><time>2026-04-02T09:18:34.204Z</time></trkpt><trkpt lat="45.4246033" lon="10.746895"><ele>104.0</ele><time>2026-04-02T09:18:35.198Z</time></trkpt><trkpt lat="45.4245167" lon="10.7467583"><ele>104.75</ele><time>2026-04-02T09:18:36.193Z</time></trkpt><trkpt lat="45.4244267" lon="10.7466583"><ele>105.5</ele><time>2026-04-02T09:18:37.201Z</time></trkpt><trkpt lat="45.424325" lon="10.746585"><ele>106.25</ele><time>2026-04-02T09:18:39.194Z</time></trkpt><trkpt lat="45.4242183" lon="10.7465583"><ele>107.0</ele><time>2026-04-02T09:18:41.191Z</time></trkpt><trkpt lat="45.424135" lon="10.7466817"><ele>107.0</ele><time>2026-04-02T09:18:43.189Z</time></trkpt><trkpt lat="45.4241017" lon="10.7467867"><ele>106.99999999999999</ele><time>2026-04-02T09:18:44.197Z</time></trkpt><trkpt lat="45.424065" lon="10.74692"><ele>106.99999999999999</ele><time>2026-04-02T09:18:45.193Z</time></trkpt><trkpt lat="45.4240367" lon="10.74705"><ele>107.0</ele><time>2026-04-02T09:18:46.188Z</time></trkpt><trkpt lat="45.4240167" lon="10.7472433"><ele>107.0</ele><time>2026-04-02T09:18:47.193Z</time></trkpt><trkpt lat="45.4239783" lon="10.7474117"><ele>107.25</ele><time>2026-04-02T09:18:48.203Z</time></trkpt><trkpt lat="45.4239217" lon="10.74757"><ele>107.5</ele><time>2026-04-02T09:18:49.191Z</time></trkpt><trkpt lat="45.4238683" lon="10.74775"><ele>107.75</ele><time>2026-04-02T09:18:50.189Z</time></trkpt><trkpt lat="45.423785" lon="10.7479517"><ele>108.0</ele><time>2026-04-02T09:18:51.194Z</time></trkpt><trkpt lat="45.4237533" lon="10.7481667"><ele>107.25</ele><time>2026-04-02T09:18:52.193Z</time></trkpt><trkpt lat="45.4236917" lon="10.7483717"><ele>106.5</ele><time>2026-04-02T09:18:53.197Z</time></trkpt><trkpt lat="45.4236467" lon="10.7485633"><ele>105.75</ele><time>2026-04-02T09:18:54.202Z</time></trkpt><trkpt lat="45.42361" lon="10.7487083"><ele>105.0</ele><time>2026-04-02T09:18:55.197Z</time></trkpt><trkpt lat="45.42358" lon="10.7488867"><ele>105.0</ele><time>2026-04-02T09:18:56.192Z</time></trkpt><trkpt lat="45.4235833" lon="10.7491083"><ele>105.0</ele><time>2026-04-02T09:18:57.195Z</time></trkpt><trkpt lat="45.4235617" lon="10.7492983"><ele>105.0</ele><time>2026-04-02T09:18:58.207Z</time></trkpt><trkpt lat="45.42354" lon="10.74952"><ele>105.0</ele><time>2026-04-02T09:18:59.193Z</time></trkpt><trkpt lat="45.423505" lon="10.7497617"><ele>104.33333333333334</ele><time>2026-04-02T09:19:00.203Z</time></trkpt><trkpt lat="45.4234617" lon="10.7499833"><ele>103.66666666666667</ele><time>2026-04-02T09:19:01.22Z</time></trkpt><trkpt lat="45.4234367" lon="10.7502267"><ele>103.0</ele><time>2026-04-02T09:19:02.189Z</time></trkpt><trkpt lat="45.42341" lon="10.7504767"><ele>103.0</ele><time>2026-04-02T09:19:03.201Z</time></trkpt><trkpt lat="45.4233883" lon="10.75075"><ele>103.0</ele><time>2026-04-02T09:19:04.198Z</time></trkpt><trkpt lat="45.4233483" lon="10.7510033"><ele>103.0</ele><time>2026-04-02T09:19:05.195Z</time></trkpt><trkpt lat="45.4233367" lon="10.7512383"><ele>103.66666666666667</ele><time>2026-04-02T09:19:06.196Z</time></trkpt><trkpt lat="45.4233367" lon="10.7515"><ele>104.33333333333334</ele><time>2026-04-02T09:19:07.195Z</time></trkpt><trkpt lat="45.4232717" lon="10.7516917"><ele>105.0</ele><time>2026-04-02T09:19:08.195Z</time></trkpt><trkpt lat="45.4232383" lon="10.751855"><ele>104.8</ele><time>2026-04-02T09:19:09.195Z</time></trkpt><trkpt lat="45.4232117" lon="10.7520067"><ele>104.6</ele><time>2026-04-02T09:19:10.198Z</time></trkpt><trkpt lat="45.4231767" lon="10.7521517"><ele>104.4</ele><time>2026-04-02T09:19:11.193Z</time></trkpt><trkpt lat="45.4231433" lon="10.752305"><ele>104.2</ele><time>2026-04-02T09:19:12.193Z</time></trkpt><trkpt lat="45.4231367" lon="10.7524183"><ele>104.0</ele><time>2026-04-02T09:19:13.191Z</time></trkpt><trkpt lat="45.4230983" lon="10.7525717"><ele>104.0</ele><time>2026-04-02T09:19:15.192Z</time></trkpt><trkpt lat="45.4230417" lon="10.7526467"><ele>104.0</ele><time>2026-04-02T09:19:46.195Z</time></trkpt><trkpt lat="45.4229533" lon="10.7525917"><ele>104.0</ele><time>2026-04-02T09:19:48.194Z</time></trkpt><trkpt lat="45.4228817" lon="10.75251"><ele>104.0</ele><time>2026-04-02T09:19:49.193Z</time></trkpt><trkpt lat="45.42279" lon="10.7524083"><ele>104.0</ele><time>2026-04-02T09:19:50.196Z</time></trkpt><trkpt lat="45.422685" lon="10.7522783"><ele>103.66666666666666</ele><time>2026-04-02T09:19:51.196Z</time></trkpt><trkpt lat="45.4225367" lon="10.7521833"><ele>103.33333333333334</ele><time>2026-04-02T09:19:52.203Z</time></trkpt><trkpt lat="45.422395" lon="10.7520517"><ele>103.0</ele><time>2026-04-02T09:19:53.19Z</time></trkpt><trkpt lat="45.42222" lon="10.7519317"><ele>102.66666666666667</ele><time>2026-04-02T09:19:54.19Z</time></trkpt><trkpt lat="45.4220467" lon="10.75178"><ele>102.33333333333334</ele><time>2026-04-02T09:19:55.197Z</time></trkpt><trkpt lat="45.421855" lon="10.751635"><ele>102.0</ele><time>2026-04-02T09:19:56.189Z</time></trkpt><trkpt lat="45.4216533" lon="10.7514867"><ele>102.0</ele><time>2026-04-02T09:19:57.194Z</time></trkpt><trkpt lat="45.4214417" lon="10.751315"><ele>102.0</ele><time>2026-04-02T09:19:58.195Z</time></trkpt><trkpt lat="45.421205" lon="10.75116"><ele>102.0</ele><time>2026-04-02T09:19:59.193Z</time></trkpt><trkpt lat="45.4209817" lon="10.7510433"><ele>102.0</ele><time>2026-04-02T09:20:00.198Z</time></trkpt><trkpt lat="45.4207883" lon="10.7508867"><ele>102.0</ele><time>2026-04-02T09:20:01.26Z</time></trkpt><trkpt lat="45.420595" lon="10.7507683"><ele>102.0</ele><time>2026-04-02T09:20:02.191Z</time></trkpt><trkpt lat="45.4203933" lon="10.75068"><ele>102.0</ele><time>2026-04-02T09:20:03.198Z</time></trkpt><trkpt lat="45.4202183" lon="10.7505917"><ele>102.0</ele><time>2026-04-02T09:20:04.2Z</time></trkpt><trkpt lat="45.4200433" lon="10.7505217"><ele>102.0</ele><time>2026-04-02T09:20:05.195Z</time></trkpt><trkpt lat="45.419895" lon="10.75044"><ele>102.0</ele><time>2026-04-02T09:20:06.189Z</time></trkpt><trkpt lat="45.419745" lon="10.75038"><ele>102.0</ele><time>2026-04-02T09:20:07.197Z</time></trkpt><trkpt lat="45.4196167" lon="10.7503233"><ele>102.0</ele><time>2026-04-02T09:20:08.199Z</time></trkpt><trkpt lat="45.419505" lon="10.7502783"><ele>102.0</ele><time>2026-04-02T09:20:09.188Z</time></trkpt><trkpt lat="45.4193767" lon="10.7502383"><ele>102.0</ele><time>2026-04-02T09:20:10.193Z</time></trkpt><trkpt lat="45.41925" lon="10.7501983"><ele>102.0</ele><time>2026-04-02T09:20:11.192Z</time></trkpt><trkpt lat="45.4191" lon="10.75015"><ele>102.0</ele><time>2026-04-02T09:20:12.189Z</time></trkpt><trkpt lat="45.41893" lon="10.7501217"><ele>102.0</ele><time>2026-04-02T09:20:13.19Z</time></trkpt><trkpt lat="45.4187567" lon="10.750085"><ele>102.33333333333334</ele><time>2026-04-02T09:20:14.195Z</time></trkpt><trkpt lat="45.41861" lon="10.7500533"><ele>102.66666666666667</ele><time>2026-04-02T09:20:15.193Z</time></trkpt><trkpt lat="45.418445" lon="10.7500133"><ele>103.0</ele><time>2026-04-02T09:20:16.194Z</time></trkpt><trkpt lat="45.4183067" lon="10.749985"><ele>103.0</ele><time>2026-04-02T09:20:17.192Z</time></trkpt><trkpt lat="45.4181817" lon="10.7499467"><ele>103.0</ele><time>2026-04-02T09:20:18.194Z</time></trkpt><trkpt lat="45.4180467" lon="10.7499067"><ele>103.0</ele><time>2026-04-02T09:20:19.193Z</time></trkpt><trkpt lat="45.4179167" lon="10.74984"><ele>103.0</ele><time>2026-04-02T09:20:20.192Z</time></trkpt><trkpt lat="45.4177717" lon="10.7498067"><ele>102.5</ele><time>2026-04-02T09:20:21.192Z</time></trkpt><trkpt lat="45.41763" lon="10.749765"><ele>102.0</ele><time>2026-04-02T09:20:22.188Z</time></trkpt><trkpt lat="45.4175067" lon="10.749705"><ele>101.5</ele><time>2026-04-02T09:20:23.195Z</time></trkpt><trkpt lat="45.41734" lon="10.7496817"><ele>101.0</ele><time>2026-04-02T09:20:24.198Z</time></trkpt><trkpt lat="45.4171733" lon="10.7496583"><ele>101.0</ele><time>2026-04-02T09:20:25.195Z</time></trkpt><trkpt lat="45.4169967" lon="10.7496533"><ele>101.0</ele><time>2026-04-02T09:20:26.188Z</time></trkpt><trkpt lat="45.4168283" lon="10.7496067"><ele>101.0</ele><time>2026-04-02T09:20:27.188Z</time></trkpt><trkpt lat="45.4166417" lon="10.74963"><ele>101.0</ele><time>2026-04-02T09:20:28.189Z</time></trkpt><trkpt lat="45.4164517" lon="10.7496383"><ele>101.0</ele><time>2026-04-02T09:20:29.206Z</time></trkpt><trkpt lat="45.416275" lon="10.7495817"><ele>101.0</ele><time>2026-04-02T09:20:30.203Z</time></trkpt><trkpt lat="45.4160783" lon="10.7495617"><ele>101.66666666666666</ele><time>2026-04-02T09:20:31.2Z</time></trkpt><trkpt lat="45.4159183" lon="10.7495233"><ele>102.33333333333334</ele><time>2026-04-02T09:20:32.189Z</time></trkpt><trkpt lat="45.41575" lon="10.7494683"><ele>103.0</ele><time>2026-04-02T09:20:33.195Z</time></trkpt><trkpt lat="45.4155767" lon="10.7494167"><ele>102.66666666666667</ele><time>2026-04-02T09:20:34.192Z</time></trkpt><trkpt lat="45.415435" lon="10.7493"><ele>102.33333333333334</ele><time>2026-04-02T09:20:35.202Z</time></trkpt><trkpt lat="45.4152867" lon="10.7492783"><ele>102.0</ele><time>2026-04-02T09:20:36.198Z</time></trkpt><trkpt lat="45.4151367" lon="10.7492017"><ele>102.0</ele><time>2026-04-02T09:20:37.194Z</time></trkpt><trkpt lat="45.41498" lon="10.7491317"><ele>102.0</ele><time>2026-04-02T09:20:38.188Z</time></trkpt><trkpt lat="45.4148217" lon="10.7490983"><ele>102.0</ele><time>2026-04-02T09:20:39.193Z</time></trkpt><trkpt lat="45.41468" lon="10.74904"><ele>102.25</ele><time>2026-04-02T09:20:40.193Z</time></trkpt><trkpt lat="45.414545" lon="10.7490267"><ele>102.5</ele><time>2026-04-02T09:20:41.191Z</time></trkpt><trkpt lat="45.4144233" lon="10.7489617"><ele>102.75</ele><time>2026-04-02T09:20:42.197Z</time></trkpt><trkpt lat="45.4142783" lon="10.7489283"><ele>103.0</ele><time>2026-04-02T09:20:43.203Z</time></trkpt><trkpt lat="45.4141483" lon="10.7488767"><ele>103.0</ele><time>2026-04-02T09:20:44.191Z</time></trkpt><trkpt lat="45.4140267" lon="10.74882"><ele>103.0</ele><time>2026-04-02T09:20:45.191Z</time></trkpt><trkpt lat="45.4139117" lon="10.748775"><ele>103.0</ele><time>2026-04-02T09:20:46.192Z</time></trkpt><trkpt lat="45.4137983" lon="10.74873"><ele>103.0</ele><time>2026-04-02T09:20:47.19Z</time></trkpt><trkpt lat="45.413645" lon="10.7487067"><ele>104.0</ele><time>2026-04-02T09:20:48.196Z</time></trkpt><trkpt lat="45.413505" lon="10.748645"><ele>105.0</ele><time>2026-04-02T09:20:49.2Z</time></trkpt><trkpt lat="45.4133417" lon="10.74863"><ele>106.0</ele><time>2026-04-02T09:20:50.204Z</time></trkpt><trkpt lat="45.41319" lon="10.7485733"><ele>106.33333333333334</ele><time>2026-04-02T09:20:51.195Z</time></trkpt><trkpt lat="45.41304" lon="10.7485133"><ele>106.66666666666666</ele><time>2026-04-02T09:20:52.199Z</time></trkpt><trkpt lat="45.4128817" lon="10.7484733"><ele>107.0</ele><time>2026-04-02T09:20:53.19Z</time></trkpt><trkpt lat="45.4127383" lon="10.7484183"><ele>105.5</ele><time>2026-04-02T09:20:54.198Z</time></trkpt><trkpt lat="45.4125967" lon="10.7483883"><ele>104.0</ele><time>2026-04-02T09:20:55.2Z</time></trkpt><trkpt lat="45.4124533" lon="10.7483733"><ele>102.5</ele><time>2026-04-02T09:20:56.203Z</time></trkpt><trkpt lat="45.4123167" lon="10.7483583"><ele>101.0</ele><time>2026-04-02T09:20:57.201Z</time></trkpt><trkpt lat="45.41217" lon="10.7483367"><ele>101.33333333333333</ele><time>2026-04-02T09:20:58.194Z</time></trkpt><trkpt lat="45.4119967" lon="10.7483133"><ele>101.66666666666666</ele><time>2026-04-02T09:20:59.199Z</time></trkpt><trkpt lat="45.411805" lon="10.7483"><ele>102.0</ele><time>2026-04-02T09:21:00.2Z</time></trkpt><trkpt lat="45.411615" lon="10.7482817"><ele>102.0</ele><time>2026-04-02T09:21:01.204Z</time></trkpt><trkpt lat="45.4114183" lon="10.7482917"><ele>102.0</ele><time>2026-04-02T09:21:02.196Z</time></trkpt><trkpt lat="45.4112167" lon="10.7482667"><ele>102.0</ele><time>2026-04-02T09:21:03.203Z</time></trkpt><trkpt lat="45.4110167" lon="10.7482517"><ele>101.33333333333334</ele><time>2026-04-02T09:21:04.195Z</time></trkpt><trkpt lat="45.4108317" lon="10.748245"><ele>100.66666666666667</ele><time>2026-04-02T09:21:05.202Z</time></trkpt><trkpt lat="45.4106783" lon="10.7481933"><ele>100.0</ele><time>2026-04-02T09:21:06.197Z</time></trkpt><trkpt lat="45.4105333" lon="10.7481767"><ele>99.33333333333334</ele><time>2026-04-02T09:21:07.208Z</time></trkpt><trkpt lat="45.4103933" lon="10.7481733"><ele>98.66666666666666</ele><time>2026-04-02T09:21:08.2Z</time></trkpt><trkpt lat="45.410235" lon="10.748155"><ele>98.0</ele><time>2026-04-02T09:21:09.196Z</time></trkpt><trkpt lat="45.4100583" lon="10.7481133"><ele>98.0</ele><time>2026-04-02T09:21:10.199Z</time></trkpt><trkpt lat="45.409895" lon="10.74808"><ele>98.0</ele><time>2026-04-02T09:21:11.208Z</time></trkpt><trkpt lat="45.40973" lon="10.7480817"><ele>98.0</ele><time>2026-04-02T09:21:12.199Z</time></trkpt><trkpt lat="45.4095633" lon="10.748085"><ele>97.5</ele><time>2026-04-02T09:21:13.193Z</time></trkpt><trkpt lat="45.4094217" lon="10.7480783"><ele>97.0</ele><time>2026-04-02T09:21:14.199Z</time></trkpt><trkpt lat="45.4093017" lon="10.7480333"><ele>96.5</ele><time>2026-04-02T09:21:15.198Z</time></trkpt><trkpt lat="45.4091833" lon="10.7480467"><ele>96.0</ele><time>2026-04-02T09:21:16.189Z</time></trkpt><trkpt lat="45.409045" lon="10.74806"><ele>96.0</ele><time>2026-04-02T09:21:17.191Z</time></trkpt><trkpt lat="45.4089" lon="10.7480683"><ele>96.0</ele><time>2026-04-02T09:21:18.195Z</time></trkpt><trkpt lat="45.4087583" lon="10.7480733"><ele>96.0</ele><time>2026-04-02T09:21:19.187Z</time></trkpt><trkpt lat="45.4086133" lon="10.74807"><ele>96.0</ele><time>2026-04-02T09:21:20.192Z</time></trkpt><trkpt lat="45.4084817" lon="10.74806"><ele>96.0</ele><time>2026-04-02T09:21:21.2Z</time></trkpt><trkpt lat="45.4083617" lon="10.74805"><ele>96.0</ele><time>2026-04-02T09:21:22.198Z</time></trkpt><trkpt lat="45.4082517" lon="10.7480433"><ele>96.0</ele><time>2026-04-02T09:21:23.2Z</time></trkpt><trkpt lat="45.4081567" lon="10.7480467"><ele>96.0</ele><time>2026-04-02T09:21:24.198Z</time></trkpt><trkpt lat="45.40806" lon="10.7480217"><ele>96.0</ele><time>2026-04-02T09:21:25.193Z</time></trkpt><trkpt lat="45.4079867" lon="10.7480133"><ele>96.0</ele><time>2026-04-02T09:21:26.195Z</time></trkpt><trkpt lat="45.407895" lon="10.747965"><ele>96.0</ele><time>2026-04-02T09:21:28.201Z</time></trkpt><trkpt lat="45.4078183" lon="10.74793"><ele>96.0</ele><time>2026-04-02T09:21:30.194Z</time></trkpt><trkpt lat="45.4077267" lon="10.747895"><ele>96.0</ele><time>2026-04-02T09:21:32.194Z</time></trkpt><trkpt lat="45.4076467" lon="10.747795"><ele>96.0</ele><time>2026-04-02T09:21:34.192Z</time></trkpt><trkpt lat="45.4075667" lon="10.74771"><ele>96.0</ele><time>2026-04-02T09:21:36.191Z</time></trkpt><trkpt lat="45.40745" lon="10.74773"><ele>96.0</ele><time>2026-04-02T09:21:38.201Z</time></trkpt><trkpt lat="45.40737" lon="10.7477833"><ele>96.0</ele><time>2026-04-02T09:21:39.189Z</time></trkpt><trkpt lat="45.4072917" lon="10.7478133"><ele>96.0</ele><time>2026-04-02T09:21:40.194Z</time></trkpt><trkpt lat="45.4072133" lon="10.74782"><ele>96.0</ele><time>2026-04-02T09:21:41.203Z</time></trkpt><trkpt lat="45.40713" lon="10.7478167"><ele>96.0</ele><time>2026-04-02T09:21:42.187Z</time></trkpt><trkpt lat="45.4070383" lon="10.7478167"><ele>96.19999999999999</ele><time>2026-04-02T09:21:43.198Z</time></trkpt><trkpt lat="45.4069517" lon="10.7478083"><ele>96.39999999999999</ele><time>2026-04-02T09:21:44.198Z</time></trkpt><trkpt lat="45.4068633" lon="10.7477883"><ele>96.6</ele><time>2026-04-02T09:21:45.194Z</time></trkpt><trkpt lat="45.4067733" lon="10.7477667"><ele>96.8</ele><time>2026-04-02T09:21:46.193Z</time></trkpt><trkpt lat="45.4066767" lon="10.7477417"><ele>97.0</ele><time>2026-04-02T09:21:47.193Z</time></trkpt><trkpt lat="45.4065717" lon="10.7477083"><ele>96.75</ele><time>2026-04-02T09:21:48.186Z</time></trkpt><trkpt lat="45.4064533" lon="10.7476883"><ele>96.5</ele><time>2026-04-02T09:21:49.189Z</time></trkpt><trkpt lat="45.4063183" lon="10.7476417"><ele>96.25</ele><time>2026-04-02T09:21:50.198Z</time></trkpt><trkpt lat="45.4061733" lon="10.7475867"><ele>96.0</ele><time>2026-04-02T09:21:51.19Z</time></trkpt><trkpt lat="45.4060333" lon="10.7475383"><ele>96.0</ele><time>2026-04-02T09:21:52.194Z</time></trkpt><trkpt lat="45.4058917" lon="10.747475"><ele>96.0</ele><time>2026-04-02T09:21:53.195Z</time></trkpt><trkpt lat="45.4057417" lon="10.74742"><ele>96.0</ele><time>2026-04-02T09:21:54.196Z</time></trkpt><trkpt lat="45.4056167" lon="10.7473783"><ele>96.0</ele><time>2026-04-02T09:21:55.19Z</time></trkpt><trkpt lat="45.4054617" lon="10.7473383"><ele>96.5</ele><time>2026-04-02T09:21:56.198Z</time></trkpt><trkpt lat="45.4053283" lon="10.74729"><ele>97.0</ele><time>2026-04-02T09:21:57.196Z</time></trkpt><trkpt lat="45.4051833" lon="10.7472267"><ele>97.5</ele><time>2026-04-02T09:21:58.191Z</time></trkpt><trkpt lat="45.4050417" lon="10.7471767"><ele>98.0</ele><time>2026-04-02T09:21:59.197Z</time></trkpt><trkpt lat="45.40489" lon="10.74713"><ele>98.0</ele><time>2026-04-02T09:22:00.205Z</time></trkpt><trkpt lat="45.404725" lon="10.747075"><ele>98.0</ele><time>2026-04-02T09:22:01.197Z</time></trkpt><trkpt lat="45.4045517" lon="10.7470283"><ele>98.0</ele><time>2026-04-02T09:22:02.194Z</time></trkpt><trkpt lat="45.4043733" lon="10.74698"><ele>97.0</ele><time>2026-04-02T09:22:03.199Z</time></trkpt><trkpt lat="45.4042017" lon="10.7469183"><ele>96.0</ele><time>2026-04-02T09:22:04.194Z</time></trkpt><trkpt lat="45.4040333" lon="10.7468467"><ele>95.0</ele><time>2026-04-02T09:22:05.195Z</time></trkpt><trkpt lat="45.4038767" lon="10.7467767"><ele>94.66666666666667</ele><time>2026-04-02T09:22:06.21Z</time></trkpt><trkpt lat="45.4037283" lon="10.7466833"><ele>94.33333333333333</ele><time>2026-04-02T09:22:07.194Z</time></trkpt><trkpt lat="45.403585" lon="10.7465667"><ele>94.0</ele><time>2026-04-02T09:22:08.186Z</time></trkpt><trkpt lat="45.4034367" lon="10.7464217"><ele>94.0</ele><time>2026-04-02T09:22:09.195Z</time></trkpt><trkpt lat="45.4033067" lon="10.74625"><ele>94.0</ele><time>2026-04-02T09:22:10.198Z</time></trkpt><trkpt lat="45.4031617" lon="10.7461217"><ele>94.0</ele><time>2026-04-02T09:22:11.197Z</time></trkpt><trkpt lat="45.403075" lon="10.7459183"><ele>94.0</ele><time>2026-04-02T09:22:12.199Z</time></trkpt><trkpt lat="45.4029233" lon="10.7458083"><ele>94.0</ele><time>2026-04-02T09:22:13.199Z</time></trkpt><trkpt lat="45.4027867" lon="10.7456633"><ele>94.0</ele><time>2026-04-02T09:22:14.186Z</time></trkpt><trkpt lat="45.4026467" lon="10.745515"><ele>94.0</ele><time>2026-04-02T09:22:15.198Z</time></trkpt><trkpt lat="45.4025083" lon="10.7453617"><ele>94.0</ele><time>2026-04-02T09:22:16.195Z</time></trkpt><trkpt lat="45.4024" lon="10.7452233"><ele>94.0</ele><time>2026-04-02T09:22:17.192Z</time></trkpt><trkpt lat="45.4022817" lon="10.7451167"><ele>94.0</ele><time>2026-04-02T09:22:18.198Z</time></trkpt><trkpt lat="45.402145" lon="10.74507"><ele>94.0</ele><time>2026-04-02T09:22:19.193Z</time></trkpt><trkpt lat="45.402015" lon="10.7450317"><ele>94.0</ele><time>2026-04-02T09:22:20.188Z</time></trkpt><trkpt lat="45.4018767" lon="10.744965"><ele>94.0</ele><time>2026-04-02T09:22:21.204Z</time></trkpt><trkpt lat="45.4017433" lon="10.7449267"><ele>94.0</ele><time>2026-04-02T09:22:22.197Z</time></trkpt><trkpt lat="45.4016017" lon="10.74489"><ele>94.0</ele><time>2026-04-02T09:22:23.212Z</time></trkpt><trkpt lat="45.4015133" lon="10.7448867"><ele>94.0</ele><time>2026-04-02T09:22:24.196Z</time></trkpt><trkpt lat="45.401385" lon="10.7448133"><ele>94.0</ele><time>2026-04-02T09:22:25.197Z</time></trkpt><trkpt lat="45.40123" lon="10.7447783"><ele>94.33333333333333</ele><time>2026-04-02T09:22:26.201Z</time></trkpt><trkpt lat="45.4010717" lon="10.7447567"><ele>94.66666666666667</ele><time>2026-04-02T09:22:27.193Z</time></trkpt><trkpt lat="45.4009117" lon="10.7447383"><ele>95.0</ele><time>2026-04-02T09:22:28.2Z</time></trkpt><trkpt lat="45.4007467" lon="10.7447217"><ele>95.0</ele><time>2026-04-02T09:22:29.194Z</time></trkpt><trkpt lat="45.4005833" lon="10.7446833"><ele>95.0</ele><time>2026-04-02T09:22:30.197Z</time></trkpt><trkpt lat="45.4004167" lon="10.7446767"><ele>95.0</ele><time>2026-04-02T09:22:31.195Z</time></trkpt><trkpt lat="45.4002483" lon="10.744685"><ele>95.0</ele><time>2026-04-02T09:22:32.191Z</time></trkpt><trkpt lat="45.400075" lon="10.744725"><ele>95.0</ele><time>2026-04-02T09:22:33.198Z</time></trkpt><trkpt lat="45.3999083" lon="10.744795"><ele>95.0</ele><time>2026-04-02T09:22:34.189Z</time></trkpt><trkpt lat="45.3997433" lon="10.744845"><ele>95.66666666666667</ele><time>2026-04-02T09:22:35.199Z</time></trkpt><trkpt lat="45.3995483" lon="10.7448983"><ele>96.33333333333334</ele><time>2026-04-02T09:22:36.19Z</time></trkpt><trkpt lat="45.3993633" lon="10.74492"><ele>97.0</ele><time>2026-04-02T09:22:37.203Z</time></trkpt><trkpt lat="45.3991733" lon="10.7449233"><ele>97.0</ele><time>2026-04-02T09:22:38.194Z</time></trkpt><trkpt lat="45.3989733" lon="10.7448967"><ele>97.0</ele><time>2026-04-02T09:22:39.192Z</time></trkpt><trkpt lat="45.3987917" lon="10.7448883"><ele>97.0</ele><time>2026-04-02T09:22:40.2Z</time></trkpt><trkpt lat="45.3986367" lon="10.74487"><ele>97.0</ele><time>2026-04-02T09:22:41.195Z</time></trkpt><trkpt lat="45.3984933" lon="10.744825"><ele>97.0</ele><time>2026-04-02T09:22:42.189Z</time></trkpt><trkpt lat="45.3983417" lon="10.7447733"><ele>97.0</ele><time>2026-04-02T09:22:43.197Z</time></trkpt><trkpt lat="45.398185" lon="10.7447083"><ele>97.0</ele><time>2026-04-02T09:22:44.199Z</time></trkpt><trkpt lat="45.3980267" lon="10.7446417"><ele>97.0</ele><time>2026-04-02T09:22:45.192Z</time></trkpt><trkpt lat="45.397885" lon="10.7445633"><ele>97.0</ele><time>2026-04-02T09:22:46.193Z</time></trkpt><trkpt lat="45.3977417" lon="10.7444967"><ele>97.0</ele><time>2026-04-02T09:22:47.201Z</time></trkpt><trkpt lat="45.3976067" lon="10.744435"><ele>97.0</ele><time>2026-04-02T09:22:48.199Z</time></trkpt><trkpt lat="45.3974617" lon="10.7443833"><ele>97.0</ele><time>2026-04-02T09:22:49.197Z</time></trkpt><trkpt lat="45.3973183" lon="10.744305"><ele>97.0</ele><time>2026-04-02T09:22:50.197Z</time></trkpt><trkpt lat="45.39716" lon="10.74424"><ele>97.33333333333334</ele><time>2026-04-02T09:22:51.194Z</time></trkpt><trkpt lat="45.39701" lon="10.7441567"><ele>97.66666666666666</ele><time>2026-04-02T09:22:52.19Z</time></trkpt><trkpt lat="45.39683" lon="10.7440967"><ele>98.0</ele><time>2026-04-02T09:22:53.19Z</time></trkpt><trkpt lat="45.3966867" lon="10.7439933"><ele>98.0</ele><time>2026-04-02T09:22:54.199Z</time></trkpt><trkpt lat="45.3965217" lon="10.7439117"><ele>98.0</ele><time>2026-04-02T09:22:55.19Z</time></trkpt><trkpt lat="45.396375" lon="10.7438367"><ele>98.0</ele><time>2026-04-02T09:22:56.201Z</time></trkpt><trkpt lat="45.3962183" lon="10.743765"><ele>98.33333333333333</ele><time>2026-04-02T09:22:57.196Z</time></trkpt><trkpt lat="45.39607" lon="10.7436867"><ele>98.66666666666666</ele><time>2026-04-02T09:22:58.196Z</time></trkpt><trkpt lat="45.39594" lon="10.7436117"><ele>99.0</ele><time>2026-04-02T09:22:59.188Z</time></trkpt><trkpt lat="45.3957783" lon="10.7435133"><ele>99.0</ele><time>2026-04-02T09:23:00.205Z</time></trkpt><trkpt lat="45.3956167" lon="10.74343"><ele>99.0</ele><time>2026-04-02T09:23:01.199Z</time></trkpt><trkpt lat="45.3954617" lon="10.743345"><ele>99.0</ele><time>2026-04-02T09:23:02.188Z</time></trkpt><trkpt lat="45.3953183" lon="10.7432683"><ele>99.5</ele><time>2026-04-02T09:23:03.203Z</time></trkpt><trkpt lat="45.3951683" lon="10.7432217"><ele>100.0</ele><time>2026-04-02T09:23:04.194Z</time></trkpt><trkpt lat="45.3950483" lon="10.7431283"><ele>100.5</ele><time>2026-04-02T09:23:05.19Z</time></trkpt><trkpt lat="45.39494" lon="10.7430583"><ele>101.0</ele><time>2026-04-02T09:23:06.19Z</time></trkpt><trkpt lat="45.3948267" lon="10.742915"><ele>101.0</ele><time>2026-04-02T09:23:07.196Z</time></trkpt><trkpt lat="45.3947233" lon="10.7427667"><ele>101.0</ele><time>2026-04-02T09:23:08.19Z</time></trkpt><trkpt lat="45.3946617" lon="10.74255"><ele>101.0</ele><time>2026-04-02T09:23:09.196Z</time></trkpt><trkpt lat="45.394565" lon="10.7423817"><ele>101.66666666666666</ele><time>2026-04-02T09:23:10.196Z</time></trkpt><trkpt lat="45.3944783" lon="10.7422233"><ele>102.33333333333334</ele><time>2026-04-02T09:23:11.193Z</time></trkpt><trkpt lat="45.3943767" lon="10.74207"><ele>103.0</ele><time>2026-04-02T09:23:12.191Z</time></trkpt><trkpt lat="45.3942467" lon="10.7419233"><ele>103.0</ele><time>2026-04-02T09:23:13.193Z</time></trkpt><trkpt lat="45.3941417" lon="10.7417667"><ele>103.0</ele><time>2026-04-02T09:23:14.196Z</time></trkpt><trkpt lat="45.3940083" lon="10.7416317"><ele>103.0</ele><time>2026-04-02T09:23:15.196Z</time></trkpt><trkpt lat="45.39387" lon="10.7414867"><ele>103.0</ele><time>2026-04-02T09:23:16.198Z</time></trkpt><trkpt lat="45.393765" lon="10.7413483"><ele>103.0</ele><time>2026-04-02T09:23:17.195Z</time></trkpt><trkpt lat="45.393655" lon="10.7412133"><ele>103.0</ele><time>2026-04-02T09:23:18.193Z</time></trkpt><trkpt lat="45.39354" lon="10.741075"><ele>103.0</ele><time>2026-04-02T09:23:19.194Z</time></trkpt><trkpt lat="45.3934133" lon="10.74095"><ele>103.0</ele><time>2026-04-02T09:23:20.191Z</time></trkpt><trkpt lat="45.393285" lon="10.74085"><ele>103.0</ele><time>2026-04-02T09:23:21.188Z</time></trkpt><trkpt lat="45.393145" lon="10.740765"><ele>103.0</ele><time>2026-04-02T09:23:22.197Z</time></trkpt><trkpt lat="45.3930017" lon="10.74068"><ele>103.33333333333334</ele><time>2026-04-02T09:23:23.195Z</time></trkpt><trkpt lat="45.3928517" lon="10.7406117"><ele>103.66666666666666</ele><time>2026-04-02T09:23:24.191Z</time></trkpt><trkpt lat="45.39269" lon="10.74055"><ele>104.0</ele><time>2026-04-02T09:23:25.189Z</time></trkpt><trkpt lat="45.392535" lon="10.740485"><ele>104.0</ele><time>2026-04-02T09:23:26.191Z</time></trkpt><trkpt lat="45.3923767" lon="10.7404317"><ele>104.0</ele><time>2026-04-02T09:23:27.19Z</time></trkpt><trkpt lat="45.392215" lon="10.7403767"><ele>104.0</ele><time>2026-04-02T09:23:28.199Z</time></trkpt><trkpt lat="45.3920733" lon="10.7403183"><ele>105.0</ele><time>2026-04-02T09:23:29.197Z</time></trkpt><trkpt lat="45.3919367" lon="10.7402417"><ele>106.0</ele><time>2026-04-02T09:23:30.196Z</time></trkpt><trkpt lat="45.3917917" lon="10.7401867"><ele>107.0</ele><time>2026-04-02T09:23:31.193Z</time></trkpt><trkpt lat="45.3916283" lon="10.7401217"><ele>107.0</ele><time>2026-04-02T09:23:32.193Z</time></trkpt><trkpt lat="45.391465" lon="10.74007"><ele>107.0</ele><time>2026-04-02T09:23:33.191Z</time></trkpt><trkpt lat="45.3913067" lon="10.7400333"><ele>107.0</ele><time>2026-04-02T09:23:34.188Z</time></trkpt><trkpt lat="45.39114" lon="10.7400117"><ele>107.33333333333333</ele><time>2026-04-02T09:23:35.196Z</time></trkpt><trkpt lat="45.3909683" lon="10.739955"><ele>107.66666666666666</ele><time>2026-04-02T09:23:36.194Z</time></trkpt><trkpt lat="45.3907983" lon="10.739935"><ele>108.0</ele><time>2026-04-02T09:23:37.189Z</time></trkpt><trkpt lat="45.3906217" lon="10.7398633"><ele>108.66666666666666</ele><time>2026-04-02T09:23:38.189Z</time></trkpt><trkpt lat="45.3904517" lon="10.73978"><ele>109.33333333333333</ele><time>2026-04-02T09:23:39.192Z</time></trkpt><trkpt lat="45.3903183" lon="10.7397017"><ele>110.0</ele><time>2026-04-02T09:23:40.198Z</time></trkpt><trkpt lat="45.390175" lon="10.7395917"><ele>110.0</ele><time>2026-04-02T09:23:41.196Z</time></trkpt><trkpt lat="45.390045" lon="10.7394583"><ele>110.0</ele><time>2026-04-02T09:23:42.196Z</time></trkpt><trkpt lat="45.38991" lon="10.7393067"><ele>110.0</ele><time>2026-04-02T09:23:43.193Z</time></trkpt><trkpt lat="45.3897767" lon="10.7391417"><ele>110.66666666666666</ele><time>2026-04-02T09:23:44.194Z</time></trkpt><trkpt lat="45.38965" lon="10.7390083"><ele>111.33333333333334</ele><time>2026-04-02T09:23:45.196Z</time></trkpt><trkpt lat="45.3895317" lon="10.7388767"><ele>112.0</ele><time>2026-04-02T09:23:46.189Z</time></trkpt><trkpt lat="45.3894083" lon="10.7387483"><ele>112.0</ele><time>2026-04-02T09:23:47.197Z</time></trkpt><trkpt lat="45.3892817" lon="10.7386117"><ele>112.0</ele><time>2026-04-02T09:23:48.2Z</time></trkpt><trkpt lat="45.3891633" lon="10.738485"><ele>112.0</ele><time>2026-04-02T09:23:49.202Z</time></trkpt><trkpt lat="45.3890467" lon="10.7383583"><ele>112.25</ele><time>2026-04-02T09:23:50.192Z</time></trkpt><trkpt lat="45.3889233" lon="10.738265"><ele>112.5</ele><time>2026-04-02T09:23:51.193Z</time></trkpt><trkpt lat="45.388805" lon="10.7381333"><ele>112.75</ele><time>2026-04-02T09:23:52.2Z</time></trkpt><trkpt lat="45.388715" lon="10.73803"><ele>113.0</ele><time>2026-04-02T09:23:53.188Z</time></trkpt><trkpt lat="45.388635" lon="10.7379183"><ele>114.25</ele><time>2026-04-02T09:23:54.2Z</time></trkpt><trkpt lat="45.388535" lon="10.737815"><ele>115.5</ele><time>2026-04-02T09:23:55.196Z</time></trkpt><trkpt lat="45.38842" lon="10.7377217"><ele>116.75</ele><time>2026-04-02T09:23:56.189Z</time></trkpt><trkpt lat="45.38834" lon="10.7376283"><ele>118.0</ele><time>2026-04-02T09:23:57.195Z</time></trkpt><trkpt lat="45.38823" lon="10.737515"><ele>118.75</ele><time>2026-04-02T09:23:58.195Z</time></trkpt><trkpt lat="45.3881217" lon="10.737425"><ele>119.5</ele><time>2026-04-02T09:23:59.191Z</time></trkpt><trkpt lat="45.3880033" lon="10.7373267"><ele>120.25</ele><time>2026-04-02T09:24:00.201Z</time></trkpt><trkpt lat="45.3878817" lon="10.7372567"><ele>121.0</ele><time>2026-04-02T09:24:01.195Z</time></trkpt><trkpt lat="45.38776" lon="10.7371883"><ele>124.75</ele><time>2026-04-02T09:24:02.194Z</time></trkpt><trkpt lat="45.3876383" lon="10.7371217"><ele>128.5</ele><time>2026-04-02T09:24:03.193Z</time></trkpt><trkpt lat="45.3875" lon="10.7370567"><ele>132.25</ele><time>2026-04-02T09:24:04.198Z</time></trkpt><trkpt lat="45.387365" lon="10.7369917"><ele>136.0</ele><time>2026-04-02T09:24:05.191Z</time></trkpt><trkpt lat="45.3872483" lon="10.7369517"><ele>136.0</ele><time>2026-04-02T09:24:06.189Z</time></trkpt><trkpt lat="45.38712" lon="10.73689"><ele>136.0</ele><time>2026-04-02T09:24:07.197Z</time></trkpt><trkpt lat="45.38699" lon="10.7368317"><ele>136.0</ele><time>2026-04-02T09:24:08.196Z</time></trkpt><trkpt lat="45.3868583" lon="10.736775"><ele>136.0</ele><time>2026-04-02T09:24:09.191Z</time></trkpt><trkpt lat="45.3867217" lon="10.73672"><ele>136.0</ele><time>2026-04-02T09:24:10.194Z</time></trkpt><trkpt lat="45.38659" lon="10.736655"><ele>136.0</ele><time>2026-04-02T09:24:11.192Z</time></trkpt><trkpt lat="45.3864567" lon="10.736595"><ele>136.0</ele><time>2026-04-02T09:24:12.189Z</time></trkpt><trkpt lat="45.3863217" lon="10.73654"><ele>136.0</ele><time>2026-04-02T09:24:13.196Z</time></trkpt><trkpt lat="45.38618" lon="10.7364917"><ele>136.5</ele><time>2026-04-02T09:24:14.193Z</time></trkpt><trkpt lat="45.3860233" lon="10.73643"><ele>137.0</ele><time>2026-04-02T09:24:15.195Z</time></trkpt><trkpt lat="45.3858833" lon="10.7363683"><ele>137.5</ele><time>2026-04-02T09:24:16.19Z</time></trkpt><trkpt lat="45.3857533" lon="10.7363117"><ele>138.0</ele><time>2026-04-02T09:24:17.199Z</time></trkpt><trkpt lat="45.3856233" lon="10.7362733"><ele>140.0</ele><time>2026-04-02T09:24:18.193Z</time></trkpt><trkpt lat="45.3855017" lon="10.7362317"><ele>142.0</ele><time>2026-04-02T09:24:19.194Z</time></trkpt><trkpt lat="45.3853733" lon="10.73619"><ele>144.0</ele><time>2026-04-02T09:24:20.195Z</time></trkpt><trkpt lat="45.38524" lon="10.73615"><ele>146.0</ele><time>2026-04-02T09:24:21.192Z</time></trkpt><trkpt lat="45.3851033" lon="10.736115"><ele>146.0</ele><time>2026-04-02T09:24:22.193Z</time></trkpt><trkpt lat="45.3849733" lon="10.7360783"><ele>146.0</ele><time>2026-04-02T09:24:23.199Z</time></trkpt><trkpt lat="45.3848467" lon="10.7360517"><ele>146.0</ele><time>2026-04-02T09:24:24.197Z</time></trkpt><trkpt lat="45.3847267" lon="10.7360333"><ele>146.0</ele><time>2026-04-02T09:24:25.192Z</time></trkpt><trkpt lat="45.3846167" lon="10.73601"><ele>143.4</ele><time>2026-04-02T09:24:26.208Z</time></trkpt><trkpt lat="45.38451" lon="10.7359917"><ele>140.8</ele><time>2026-04-02T09:24:27.194Z</time></trkpt><trkpt lat="45.3844033" lon="10.7359767"><ele>138.20000000000002</ele><time>2026-04-02T09:24:28.196Z</time></trkpt><trkpt lat="45.3842983" lon="10.7359617"><ele>135.6</ele><time>2026-04-02T09:24:29.186Z</time></trkpt><trkpt lat="45.38419" lon="10.7359433"><ele>133.0</ele><time>2026-04-02T09:24:30.198Z</time></trkpt><trkpt lat="45.38408" lon="10.735925"><ele>133.0</ele><time>2026-04-02T09:24:31.197Z</time></trkpt><trkpt lat="45.38397" lon="10.7359117"><ele>133.0</ele><time>2026-04-02T09:24:32.198Z</time></trkpt><trkpt lat="45.38386" lon="10.7358983"><ele>133.0</ele><time>2026-04-02T09:24:33.194Z</time></trkpt><trkpt lat="45.3837583" lon="10.7358817"><ele>133.0</ele><time>2026-04-02T09:24:34.207Z</time></trkpt><trkpt lat="45.3836467" lon="10.7358733"><ele>133.0</ele><time>2026-04-02T09:24:35.197Z</time></trkpt><trkpt lat="45.3835283" lon="10.7358683"><ele>132.75</ele><time>2026-04-02T09:24:36.201Z</time></trkpt><trkpt lat="45.383405" lon="10.735875"><ele>132.5</ele><time>2026-04-02T09:24:37.194Z</time></trkpt><trkpt lat="45.38328" lon="10.7358767"><ele>132.25</ele><time>2026-04-02T09:24:38.191Z</time></trkpt><trkpt lat="45.383165" lon="10.7358717"><ele>132.0</ele><time>2026-04-02T09:24:39.2Z</time></trkpt><trkpt lat="45.3830517" lon="10.7358733"><ele>131.25</ele><time>2026-04-02T09:24:40.196Z</time></trkpt><trkpt lat="45.3829417" lon="10.7358733"><ele>130.5</ele><time>2026-04-02T09:24:41.193Z</time></trkpt><trkpt lat="45.3828283" lon="10.7358667"><ele>129.75</ele><time>2026-04-02T09:24:42.191Z</time></trkpt><trkpt lat="45.3827133" lon="10.7358533"><ele>129.0</ele><time>2026-04-02T09:24:43.194Z</time></trkpt><trkpt lat="45.3826033" lon="10.7358317"><ele>129.0</ele><time>2026-04-02T09:24:44.191Z</time></trkpt><trkpt lat="45.3824783" lon="10.735805"><ele>129.0</ele><time>2026-04-02T09:24:45.195Z</time></trkpt><trkpt lat="45.382345" lon="10.7357667"><ele>129.0</ele><time>2026-04-02T09:24:46.194Z</time></trkpt><trkpt lat="45.3822183" lon="10.73575"><ele>129.0</ele><time>2026-04-02T09:24:47.192Z</time></trkpt><trkpt lat="45.3820967" lon="10.7357233"><ele>128.5</ele><time>2026-04-02T09:24:48.19Z</time></trkpt><trkpt lat="45.381965" lon="10.7356933"><ele>128.0</ele><time>2026-04-02T09:24:49.195Z</time></trkpt><trkpt lat="45.3818217" lon="10.735665"><ele>127.5</ele><time>2026-04-02T09:24:50.191Z</time></trkpt><trkpt lat="45.381685" lon="10.7356183"><ele>127.0</ele><time>2026-04-02T09:24:51.199Z</time></trkpt><trkpt lat="45.3815467" lon="10.7355933"><ele>127.0</ele><time>2026-04-02T09:24:52.192Z</time></trkpt><trkpt lat="45.3814083" lon="10.735555"><ele>127.0</ele><time>2026-04-02T09:24:53.201Z</time></trkpt><trkpt lat="45.3812733" lon="10.7355383"><ele>127.0</ele><time>2026-04-02T09:24:54.195Z</time></trkpt><trkpt lat="45.3811583" lon="10.7355233"><ele>127.0</ele><time>2026-04-02T09:24:55.196Z</time></trkpt><trkpt lat="45.38105" lon="10.73549"><ele>126.5</ele><time>2026-04-02T09:24:56.203Z</time></trkpt><trkpt lat="45.380925" lon="10.7354767"><ele>126.0</ele><time>2026-04-02T09:24:57.21Z</time></trkpt><trkpt lat="45.3807767" lon="10.73549"><ele>125.5</ele><time>2026-04-02T09:24:58.195Z</time></trkpt><trkpt lat="45.3806283" lon="10.7355017"><ele>125.0</ele><time>2026-04-02T09:24:59.195Z</time></trkpt><trkpt lat="45.380475" lon="10.7354967"><ele>125.0</ele><time>2026-04-02T09:25:00.198Z</time></trkpt><trkpt lat="45.3803117" lon="10.7354883"><ele>125.0</ele><time>2026-04-02T09:25:01.192Z</time></trkpt><trkpt lat="45.3801583" lon="10.735465"><ele>125.0</ele><time>2026-04-02T09:25:02.189Z</time></trkpt><trkpt lat="45.3800067" lon="10.73545"><ele>125.0</ele><time>2026-04-02T09:25:03.193Z</time></trkpt><trkpt lat="45.3798617" lon="10.7354383"><ele>125.0</ele><time>2026-04-02T09:25:04.193Z</time></trkpt><trkpt lat="45.3797233" lon="10.7354433"><ele>125.0</ele><time>2026-04-02T09:25:05.21Z</time></trkpt><trkpt lat="45.37956" lon="10.7354433"><ele>125.0</ele><time>2026-04-02T09:25:06.204Z</time></trkpt><trkpt lat="45.3794217" lon="10.7354017"><ele>124.66666666666666</ele><time>2026-04-02T09:25:07.197Z</time></trkpt><trkpt lat="45.379275" lon="10.73538"><ele>124.33333333333334</ele><time>2026-04-02T09:25:08.207Z</time></trkpt><trkpt lat="45.3790833" lon="10.735385"><ele>124.0</ele><time>2026-04-02T09:25:09.193Z</time></trkpt><trkpt lat="45.3789083" lon="10.7353667"><ele>122.66666666666667</ele><time>2026-04-02T09:25:10.191Z</time></trkpt><trkpt lat="45.378725" lon="10.7353483"><ele>121.33333333333334</ele><time>2026-04-02T09:25:11.197Z</time></trkpt><trkpt lat="45.378535" lon="10.735335"><ele>120.0</ele><time>2026-04-02T09:25:12.194Z</time></trkpt><trkpt lat="45.3783567" lon="10.7353383"><ele>120.0</ele><time>2026-04-02T09:25:13.192Z</time></trkpt><trkpt lat="45.37816" lon="10.7353317"><ele>120.0</ele><time>2026-04-02T09:25:14.187Z</time></trkpt><trkpt lat="45.377975" lon="10.7352933"><ele>120.0</ele><time>2026-04-02T09:25:15.198Z</time></trkpt><trkpt lat="45.377805" lon="10.7352667"><ele>119.66666666666666</ele><time>2026-04-02T09:25:16.188Z</time></trkpt><trkpt lat="45.37764" lon="10.7352367"><ele>119.33333333333333</ele><time>2026-04-02T09:25:17.197Z</time></trkpt><trkpt lat="45.3774717" lon="10.7352117"><ele>119.0</ele><time>2026-04-02T09:25:18.197Z</time></trkpt><trkpt lat="45.3773067" lon="10.735175"><ele>118.0</ele><time>2026-04-02T09:25:19.191Z</time></trkpt><trkpt lat="45.3771333" lon="10.7351267"><ele>117.0</ele><time>2026-04-02T09:25:20.187Z</time></trkpt><trkpt lat="45.37696" lon="10.7350717"><ele>116.0</ele><time>2026-04-02T09:25:21.196Z</time></trkpt><trkpt lat="45.37679" lon="10.7350217"><ele>116.0</ele><time>2026-04-02T09:25:22.19Z</time></trkpt><trkpt lat="45.3766217" lon="10.7349717"><ele>116.0</ele><time>2026-04-02T09:25:23.194Z</time></trkpt><trkpt lat="45.37645" lon="10.7349267"><ele>116.0</ele><time>2026-04-02T09:25:24.198Z</time></trkpt><trkpt lat="45.376295" lon="10.7348817"><ele>115.33333333333333</ele><time>2026-04-02T09:25:25.193Z</time></trkpt><trkpt lat="45.3761417" lon="10.7348317"><ele>114.66666666666666</ele><time>2026-04-02T09:25:26.185Z</time></trkpt><trkpt lat="45.3760083" lon="10.7347617"><ele>114.0</ele><time>2026-04-02T09:25:27.189Z</time></trkpt><trkpt lat="45.3758633" lon="10.734695"><ele>114.0</ele><time>2026-04-02T09:25:28.192Z</time></trkpt><trkpt lat="45.3757083" lon="10.73463"><ele>114.0</ele><time>2026-04-02T09:25:29.187Z</time></trkpt><trkpt lat="45.3755417" lon="10.7345517"><ele>114.0</ele><time>2026-04-02T09:25:30.199Z</time></trkpt><trkpt lat="45.375385" lon="10.7344683"><ele>113.66666666666666</ele><time>2026-04-02T09:25:31.193Z</time></trkpt><trkpt lat="45.3752167" lon="10.7343717"><ele>113.33333333333333</ele><time>2026-04-02T09:25:32.191Z</time></trkpt><trkpt lat="45.3751017" lon="10.7342767"><ele>113.0</ele><time>2026-04-02T09:25:33.195Z</time></trkpt><trkpt lat="45.374965" lon="10.7342033"><ele>113.0</ele><time>2026-04-02T09:25:34.19Z</time></trkpt><trkpt lat="45.3748167" lon="10.73413"><ele>113.0</ele><time>2026-04-02T09:25:35.193Z</time></trkpt><trkpt lat="45.3746517" lon="10.73407"><ele>113.0</ele><time>2026-04-02T09:25:36.198Z</time></trkpt><trkpt lat="45.3744967" lon="10.733995"><ele>113.0</ele><time>2026-04-02T09:25:37.196Z</time></trkpt><trkpt lat="45.374345" lon="10.7339233"><ele>113.0</ele><time>2026-04-02T09:25:38.191Z</time></trkpt><trkpt lat="45.3741917" lon="10.7338433"><ele>113.0</ele><time>2026-04-02T09:25:39.193Z</time></trkpt><trkpt lat="45.3740467" lon="10.7337683"><ele>113.0</ele><time>2026-04-02T09:25:40.192Z</time></trkpt><trkpt lat="45.3738933" lon="10.733705"><ele>113.0</ele><time>2026-04-02T09:25:41.187Z</time></trkpt><trkpt lat="45.37377" lon="10.73363"><ele>113.0</ele><time>2026-04-02T09:25:42.187Z</time></trkpt><trkpt lat="45.3736483" lon="10.7335517"><ele>113.0</ele><time>2026-04-02T09:25:43.188Z</time></trkpt><trkpt lat="45.3735317" lon="10.7334817"><ele>112.5</ele><time>2026-04-02T09:25:44.193Z</time></trkpt><trkpt lat="45.3734417" lon="10.7333933"><ele>112.0</ele><time>2026-04-02T09:25:45.193Z</time></trkpt><trkpt lat="45.3733267" lon="10.7333"><ele>111.5</ele><time>2026-04-02T09:25:46.19Z</time></trkpt><trkpt lat="45.3731983" lon="10.7332033"><ele>111.0</ele><time>2026-04-02T09:25:47.19Z</time></trkpt><trkpt lat="45.373075" lon="10.7331217"><ele>111.19999999999999</ele><time>2026-04-02T09:25:48.189Z</time></trkpt><trkpt lat="45.3729567" lon="10.73308"><ele>111.39999999999999</ele><time>2026-04-02T09:25:49.2Z</time></trkpt><trkpt lat="45.3728567" lon="10.7330333"><ele>111.6</ele><time>2026-04-02T09:25:50.196Z</time></trkpt><trkpt lat="45.3727633" lon="10.733005"><ele>111.8</ele><time>2026-04-02T09:25:51.197Z</time></trkpt><trkpt lat="45.3726733" lon="10.7329817"><ele>112.0</ele><time>2026-04-02T09:25:52.189Z</time></trkpt><trkpt lat="45.3725817" lon="10.7329433"><ele>112.00000000000001</ele><time>2026-04-02T09:25:53.196Z</time></trkpt><trkpt lat="45.372505" lon="10.7328983"><ele>112.0</ele><time>2026-04-02T09:25:54.188Z</time></trkpt><trkpt lat="45.3724217" lon="10.7328583"><ele>112.0</ele><time>2026-04-02T09:25:55.199Z</time></trkpt><trkpt lat="45.3723433" lon="10.7328533"><ele>112.0</ele><time>2026-04-02T09:25:56.197Z</time></trkpt><trkpt lat="45.3722533" lon="10.7328367"><ele>112.00000000000001</ele><time>2026-04-02T09:25:58.191Z</time></trkpt><trkpt lat="45.3721733" lon="10.732835"><ele>112.0</ele><time>2026-04-02T09:26:02.184Z</time></trkpt><trkpt lat="45.372095" lon="10.7328267"><ele>112.0</ele><time>2026-04-02T09:26:06.191Z</time></trkpt><trkpt lat="45.37202" lon="10.7327617"><ele>111.99999999999999</ele><time>2026-04-02T09:26:09.191Z</time></trkpt><trkpt lat="45.3720117" lon="10.732635"><ele>111.99999999999999</ele><time>2026-04-02T09:26:11.189Z</time></trkpt><trkpt lat="45.371975" lon="10.732495"><ele>112.0</ele><time>2026-04-02T09:26:13.187Z</time></trkpt><trkpt lat="45.3718667" lon="10.732415"><ele>112.0</ele><time>2026-04-02T09:26:15.187Z</time></trkpt><trkpt lat="45.3718017" lon="10.73242"><ele>111.83333333333334</ele><time>2026-04-02T09:26:16.186Z</time></trkpt><trkpt lat="45.371735" lon="10.7324517"><ele>111.66666666666667</ele><time>2026-04-02T09:26:17.192Z</time></trkpt><trkpt lat="45.3716633" lon="10.7324967"><ele>111.5</ele><time>2026-04-02T09:26:18.199Z</time></trkpt><trkpt lat="45.3715933" lon="10.7325367"><ele>111.33333333333334</ele><time>2026-04-02T09:26:19.193Z</time></trkpt><trkpt lat="45.3715217" lon="10.7325633"><ele>111.16666666666667</ele><time>2026-04-02T09:26:20.187Z</time></trkpt><trkpt lat="45.37145" lon="10.7325783"><ele>111.0</ele><time>2026-04-02T09:26:21.193Z</time></trkpt><trkpt lat="45.371365" lon="10.732575"><ele>110.6</ele><time>2026-04-02T09:26:22.196Z</time></trkpt><trkpt lat="45.3712733" lon="10.732565"><ele>110.19999999999999</ele><time>2026-04-02T09:26:23.2Z</time></trkpt><trkpt lat="45.3711767" lon="10.7325417"><ele>109.80000000000001</ele><time>2026-04-02T09:26:24.192Z</time></trkpt><trkpt lat="45.37106" lon="10.73254"><ele>109.4</ele><time>2026-04-02T09:26:25.188Z</time></trkpt><trkpt lat="45.3709467" lon="10.73253"><ele>109.0</ele><time>2026-04-02T09:26:26.19Z</time></trkpt><trkpt lat="45.3708183" lon="10.73249"><ele>109.0</ele><time>2026-04-02T09:26:27.188Z</time></trkpt><trkpt lat="45.37067" lon="10.7323983"><ele>109.0</ele><time>2026-04-02T09:26:28.194Z</time></trkpt><trkpt lat="45.3705283" lon="10.7323767"><ele>109.0</ele><time>2026-04-02T09:26:29.191Z</time></trkpt><trkpt lat="45.3703917" lon="10.7323617"><ele>109.0</ele><time>2026-04-02T09:26:30.19Z</time></trkpt><trkpt lat="45.3702883" lon="10.732385"><ele>108.4</ele><time>2026-04-02T09:26:31.195Z</time></trkpt><trkpt lat="45.3701683" lon="10.732395"><ele>107.80000000000001</ele><time>2026-04-02T09:26:32.193Z</time></trkpt><trkpt lat="45.370065" lon="10.7324067"><ele>107.19999999999999</ele><time>2026-04-02T09:26:33.188Z</time></trkpt><trkpt lat="45.3699633" lon="10.73243"><ele>106.6</ele><time>2026-04-02T09:26:34.197Z</time></trkpt><trkpt lat="45.3698733" lon="10.7324417"><ele>106.0</ele><time>2026-04-02T09:26:35.197Z</time></trkpt><trkpt lat="45.3697683" lon="10.732475"><ele>106.25</ele><time>2026-04-02T09:26:36.196Z</time></trkpt><trkpt lat="45.369645" lon="10.7325233"><ele>106.5</ele><time>2026-04-02T09:26:37.193Z</time></trkpt><trkpt lat="45.36953" lon="10.7325933"><ele>106.75</ele><time>2026-04-02T09:26:38.191Z</time></trkpt><trkpt lat="45.36942" lon="10.7326617"><ele>107.0</ele><time>2026-04-02T09:26:39.187Z</time></trkpt><trkpt lat="45.3693017" lon="10.732755"><ele>107.0</ele><time>2026-04-02T09:26:40.193Z</time></trkpt><trkpt lat="45.3691817" lon="10.7328183"><ele>107.0</ele><time>2026-04-02T09:26:41.186Z</time></trkpt><trkpt lat="45.369075" lon="10.7328683"><ele>107.0</ele><time>2026-04-02T09:26:42.192Z</time></trkpt><trkpt lat="45.3689533" lon="10.7329433"><ele>107.0</ele><time>2026-04-02T09:26:43.188Z</time></trkpt><trkpt lat="45.368845" lon="10.7330017"><ele>106.6</ele><time>2026-04-02T09:26:44.19Z</time></trkpt><trkpt lat="45.3687383" lon="10.7330483"><ele>106.19999999999999</ele><time>2026-04-02T09:26:45.192Z</time></trkpt><trkpt lat="45.3686117" lon="10.733105"><ele>105.8</ele><time>2026-04-02T09:26:46.196Z</time></trkpt><trkpt lat="45.3685333" lon="10.7331283"><ele>105.4</ele><time>2026-04-02T09:26:47.185Z</time></trkpt><trkpt lat="45.3684333" lon="10.7331617"><ele>105.0</ele><time>2026-04-02T09:26:48.195Z</time></trkpt><trkpt lat="45.3683333" lon="10.733215"><ele>105.0</ele><time>2026-04-02T09:26:49.188Z</time></trkpt><trkpt lat="45.3682283" lon="10.73327"><ele>105.0</ele><time>2026-04-02T09:26:50.188Z</time></trkpt><trkpt lat="45.368125" lon="10.7333467"><ele>105.0</ele><time>2026-04-02T09:26:51.19Z</time></trkpt><trkpt lat="45.3680167" lon="10.7334267"><ele>105.0</ele><time>2026-04-02T09:26:52.186Z</time></trkpt><trkpt lat="45.3679383" lon="10.7334933"><ele>105.0</ele><time>2026-04-02T09:26:53.195Z</time></trkpt><trkpt lat="45.36784" lon="10.7335767"><ele>104.8</ele><time>2026-04-02T09:26:54.194Z</time></trkpt><trkpt lat="45.36775" lon="10.73365"><ele>104.6</ele><time>2026-04-02T09:26:55.194Z</time></trkpt><trkpt lat="45.3676667" lon="10.7337033"><ele>104.4</ele><time>2026-04-02T09:26:56.189Z</time></trkpt><trkpt lat="45.3675667" lon="10.7337733"><ele>104.2</ele><time>2026-04-02T09:26:57.193Z</time></trkpt><trkpt lat="45.36745" lon="10.7338483"><ele>104.0</ele><time>2026-04-02T09:26:58.192Z</time></trkpt><trkpt lat="45.3673483" lon="10.7339167"><ele>104.0</ele><time>2026-04-02T09:26:59.202Z</time></trkpt><trkpt lat="45.3672383" lon="10.7339867"><ele>104.0</ele><time>2026-04-02T09:27:00.202Z</time></trkpt><trkpt lat="45.3671483" lon="10.7340467"><ele>104.0</ele><time>2026-04-02T09:27:01.2Z</time></trkpt><trkpt lat="45.3670533" lon="10.7340833"><ele>104.0</ele><time>2026-04-02T09:27:02.186Z</time></trkpt><trkpt lat="45.3669617" lon="10.7341333"><ele>104.0</ele><time>2026-04-02T09:27:03.195Z</time></trkpt><trkpt lat="45.3668783" lon="10.73416"><ele>104.2</ele><time>2026-04-02T09:27:04.189Z</time></trkpt><trkpt lat="45.36676" lon="10.7341583"><ele>104.4</ele><time>2026-04-02T09:27:06.197Z</time></trkpt><trkpt lat="45.3667325" lon="10.7340251"><ele>104.6</ele><time>2026-04-02T09:27:08.186Z</time></trkpt><trkpt lat="45.3668367" lon="10.7339284"><ele>104.8</ele><time>2026-04-02T09:27:10.206Z</time></trkpt><trkpt lat="45.3669093" lon="10.733903"><ele>105.0</ele><time>2026-04-02T09:27:11.19Z</time></trkpt><trkpt lat="45.3670121" lon="10.7338851"><ele>105.0</ele><time>2026-04-02T09:27:12.193Z</time></trkpt><trkpt lat="45.3671162" lon="10.7338463"><ele>105.0</ele><time>2026-04-02T09:27:13.194Z</time></trkpt><trkpt lat="45.3672364" lon="10.7337815"><ele>105.0</ele><time>2026-04-02T09:27:14.194Z</time></trkpt><trkpt lat="45.3673479" lon="10.7337182"><ele>105.0</ele><time>2026-04-02T09:27:15.195Z</time></trkpt><trkpt lat="45.3674756" lon="10.7336623"><ele>105.0</ele><time>2026-04-02T09:27:16.209Z</time></trkpt><trkpt lat="45.3675833" lon="10.7335838"><ele>105.0</ele><time>2026-04-02T09:27:17.197Z</time></trkpt><trkpt lat="45.3676917" lon="10.73351"><ele>105.0</ele><time>2026-04-02T09:27:18.189Z</time></trkpt><trkpt lat="45.3678" lon="10.7334483"><ele>105.0</ele><time>2026-04-02T09:27:19.199Z</time></trkpt><trkpt lat="45.3678983" lon="10.7333633"><ele>105.0</ele><time>2026-04-02T09:27:20.193Z</time></trkpt><trkpt lat="45.367945" lon="10.7332783"><ele>105.0</ele><time>2026-04-02T09:27:21.192Z</time></trkpt><trkpt lat="45.3680117" lon="10.7331917"><ele>105.0</ele><time>2026-04-02T09:27:22.186Z</time></trkpt><trkpt lat="45.36807" lon="10.7330667"><ele>105.0</ele><time>2026-04-02T09:27:23.199Z</time></trkpt><trkpt lat="45.3681133" lon="10.73293"><ele>105.0</ele><time>2026-04-02T09:27:24.186Z</time></trkpt><trkpt lat="45.3681167" lon="10.732735"><ele>105.0</ele><time>2026-04-02T09:27:25.194Z</time></trkpt><trkpt lat="45.368135" lon="10.73255"><ele>105.0</ele><time>2026-04-02T09:27:26.193Z</time></trkpt><trkpt lat="45.368155" lon="10.7323567"><ele>105.0</ele><time>2026-04-02T09:27:27.192Z</time></trkpt><trkpt lat="45.3681733" lon="10.732155"><ele>105.0</ele><time>2026-04-02T09:27:28.187Z</time></trkpt><trkpt lat="45.3682" lon="10.7319683"><ele>105.0</ele><time>2026-04-02T09:27:29.197Z</time></trkpt><trkpt lat="45.368215" lon="10.7318283"><ele>105.0</ele><time>2026-04-02T09:27:30.19Z</time></trkpt><trkpt lat="45.3682133" lon="10.7316267"><ele>105.0</ele><time>2026-04-02T09:27:31.195Z</time></trkpt><trkpt lat="45.3681967" lon="10.7314217"><ele>105.0</ele><time>2026-04-02T09:27:32.2Z</time></trkpt><trkpt lat="45.3681567" lon="10.731225"><ele>105.25</ele><time>2026-04-02T09:27:33.193Z</time></trkpt><trkpt lat="45.368115" lon="10.7310567"><ele>105.5</ele><time>2026-04-02T09:27:34.19Z</time></trkpt><trkpt lat="45.3680783" lon="10.7308683"><ele>105.75</ele><time>2026-04-02T09:27:35.194Z</time></trkpt><trkpt lat="45.3680083" lon="10.73068"><ele>106.0</ele><time>2026-04-02T09:27:36.192Z</time></trkpt><trkpt lat="45.367955" lon="10.73044"><ele>107.5</ele><time>2026-04-02T09:27:37.187Z</time></trkpt><trkpt lat="45.3679" lon="10.7302717"><ele>109.0</ele><time>2026-04-02T09:27:38.191Z</time></trkpt><trkpt lat="45.367855" lon="10.7300633"><ele>110.5</ele><time>2026-04-02T09:27:39.191Z</time></trkpt><trkpt lat="45.36782" lon="10.7298667"><ele>112.0</ele><time>2026-04-02T09:27:40.19Z</time></trkpt><trkpt lat="45.3677767" lon="10.7297"><ele>112.0</ele><time>2026-04-02T09:27:41.185Z</time></trkpt><trkpt lat="45.3677617" lon="10.7295583"><ele>111.99999999999999</ele><time>2026-04-02T09:27:42.197Z</time></trkpt><trkpt lat="45.367745" lon="10.7294183"><ele>111.99999999999999</ele><time>2026-04-02T09:27:43.183Z</time></trkpt><trkpt lat="45.3677767" lon="10.7292533"><ele>112.0</ele><time>2026-04-02T09:27:44.187Z</time></trkpt><trkpt lat="45.367825" lon="10.7290833"><ele>112.0</ele><time>2026-04-02T09:27:45.189Z</time></trkpt><trkpt lat="45.3679167" lon="10.7289817"><ele>111.75</ele><time>2026-04-02T09:27:46.191Z</time></trkpt><trkpt lat="45.3679833" lon="10.728815"><ele>111.5</ele><time>2026-04-02T09:27:47.188Z</time></trkpt><trkpt lat="45.3680783" lon="10.7286533"><ele>111.25</ele><time>2026-04-02T09:27:48.195Z</time></trkpt><trkpt lat="45.3681783" lon="10.72853"><ele>111.0</ele><time>2026-04-02T09:27:49.189Z</time></trkpt><trkpt lat="45.36826" lon="10.7283783"><ele>111.5</ele><time>2026-04-02T09:27:50.196Z</time></trkpt><trkpt lat="45.3683283" lon="10.72822"><ele>112.0</ele><time>2026-04-02T09:27:51.196Z</time></trkpt><trkpt lat="45.3684167" lon="10.7280467"><ele>112.5</ele><time>2026-04-02T09:27:52.19Z</time></trkpt><trkpt lat="45.3684633" lon="10.727875"><ele>113.0</ele><time>2026-04-02T09:27:53.194Z</time></trkpt><trkpt lat="45.3685067" lon="10.7277133"><ele>113.5</ele><time>2026-04-02T09:27:54.188Z</time></trkpt><trkpt lat="45.3685283" lon="10.727535"><ele>114.0</ele><time>2026-04-02T09:27:55.192Z</time></trkpt><trkpt lat="45.368545" lon="10.727375"><ele>114.5</ele><time>2026-04-02T09:27:56.184Z</time></trkpt><trkpt lat="45.36856" lon="10.7272117"><ele>115.0</ele><time>2026-04-02T09:27:57.198Z</time></trkpt><trkpt lat="45.3685833" lon="10.727075"><ele>115.00000000000001</ele><time>2026-04-02T09:27:58.192Z</time></trkpt><trkpt lat="45.368605" lon="10.7269667"><ele>115.0</ele><time>2026-04-02T09:27:59.197Z</time></trkpt><trkpt lat="45.3686133" lon="10.7268717"><ele>115.0</ele><time>2026-04-02T09:28:00.197Z</time></trkpt><trkpt lat="45.36857" lon="10.7267633"><ele>115.0</ele><time>2026-04-02T09:28:03.191Z</time></trkpt><trkpt lat="45.3684783" lon="10.7267483"><ele>115.00000000000001</ele><time>2026-04-02T09:28:14.189Z</time></trkpt><trkpt lat="45.3685533" lon="10.726765"><ele>115.0</ele><time>2026-04-02T09:28:17.193Z</time></trkpt><trkpt lat="45.3686083" lon="10.7266417"><ele>116.2</ele><time>2026-04-02T09:28:20.194Z</time></trkpt><trkpt lat="45.3686267" lon="10.7264733"><ele>117.4</ele><time>2026-04-02T09:28:22.186Z</time></trkpt><trkpt lat="45.3686233" lon="10.7263417"><ele>118.6</ele><time>2026-04-02T09:28:23.197Z</time></trkpt><trkpt lat="45.3686167" lon="10.7262067"><ele>119.8</ele><time>2026-04-02T09:28:24.19Z</time></trkpt><trkpt lat="45.3685967" lon="10.7260367"><ele>121.0</ele><time>2026-04-02T09:28:25.186Z</time></trkpt><trkpt lat="45.3685933" lon="10.7258833"><ele>121.6</ele><time>2026-04-02T09:28:26.191Z</time></trkpt><trkpt lat="45.3686" lon="10.7257783"><ele>122.19999999999999</ele><time>2026-04-02T09:28:27.192Z</time></trkpt><trkpt lat="45.3686067" lon="10.725605"><ele>122.80000000000001</ele><time>2026-04-02T09:28:29.196Z</time></trkpt><trkpt lat="45.36857" lon="10.7254883"><ele>123.4</ele><time>2026-04-02T09:28:31.192Z</time></trkpt><trkpt lat="45.3684833" lon="10.7254117"><ele>124.0</ele><time>2026-04-02T09:28:33.201Z</time></trkpt><trkpt lat="45.36842" lon="10.7253967"><ele>124.00000000000001</ele><time>2026-04-02T09:28:34.224Z</time></trkpt><trkpt lat="45.3682867" lon="10.72538"><ele>124.0</ele><time>2026-04-02T09:28:36.192Z</time></trkpt><trkpt lat="45.3682183" lon="10.7253783"><ele>124.0</ele><time>2026-04-02T09:28:37.197Z</time></trkpt><trkpt lat="45.36815" lon="10.7253833"><ele>124.0</ele><time>2026-04-02T09:28:38.187Z</time></trkpt><trkpt lat="45.3680867" lon="10.7253867"><ele>124.00000000000001</ele><time>2026-04-02T09:28:39.195Z</time></trkpt><trkpt lat="45.3679917" lon="10.7253833"><ele>124.0</ele><time>2026-04-02T09:28:41.182Z</time></trkpt><trkpt lat="45.3679267" lon="10.7253967"><ele>123.00000000000001</ele><time>2026-04-02T09:28:43.192Z</time></trkpt><trkpt lat="45.3678717" lon="10.72531"><ele>122.0</ele><time>2026-04-02T09:28:46.19Z</time></trkpt><trkpt lat="45.367835" lon="10.7251983"><ele>121.0</ele><time>2026-04-02T09:28:49.189Z</time></trkpt><trkpt lat="45.3678367" lon="10.7250767"><ele>120.0</ele><time>2026-04-02T09:28:52.187Z</time></trkpt><trkpt lat="45.3678417" lon="10.7249767"><ele>119.00000000000001</ele><time>2026-04-02T09:28:54.186Z</time></trkpt><trkpt lat="45.3678433" lon="10.724885"><ele>118.0</ele><time>2026-04-02T09:28:56.191Z</time></trkpt><trkpt lat="45.36787" lon="10.724995"><ele>118.0</ele><time>2026-04-02T09:29:18.195Z</time></trkpt><trkpt lat="45.3678683" lon="10.7251517"><ele>118.00000000000001</ele><time>2026-04-02T09:29:20.202Z</time></trkpt><trkpt lat="45.367855" lon="10.7252983"><ele>118.00000000000001</ele><time>2026-04-02T09:29:22.196Z</time></trkpt><trkpt lat="45.36785" lon="10.72543"><ele>118.0</ele><time>2026-04-02T09:29:24.191Z</time></trkpt><trkpt lat="45.36791" lon="10.72551"><ele>118.0</ele><time>2026-04-02T09:29:27.19Z</time></trkpt><trkpt lat="45.3680117" lon="10.7255283"><ele>119.2</ele><time>2026-04-02T09:29:29.188Z</time></trkpt><trkpt lat="45.3680783" lon="10.7255133"><ele>120.4</ele><time>2026-04-02T09:29:30.189Z</time></trkpt><trkpt lat="45.368195" lon="10.72549"><ele>121.60000000000001</ele><time>2026-04-02T09:29:32.192Z</time></trkpt><trkpt lat="45.368295" lon="10.72549"><ele>122.80000000000001</ele><time>2026-04-02T09:29:34.192Z</time></trkpt><trkpt lat="45.3683983" lon="10.7255017"><ele>124.0</ele><time>2026-04-02T09:29:36.19Z</time></trkpt><trkpt lat="45.3684883" lon="10.7255417"><ele>124.00000000000001</ele><time>2026-04-02T09:29:38.187Z</time></trkpt><trkpt lat="45.3685567" lon="10.7255883"><ele>124.0</ele><time>2026-04-02T09:29:40.189Z</time></trkpt><trkpt lat="45.3686233" lon="10.725605"><ele>124.0</ele><time>2026-04-02T09:29:44.194Z</time></trkpt><trkpt lat="45.36867" lon="10.72553"><ele>124.0</ele><time>2026-04-02T09:29:46.192Z</time></trkpt><trkpt lat="45.3687333" lon="10.725385"><ele>124.00000000000001</ele><time>2026-04-02T09:29:48.195Z</time></trkpt><trkpt lat="45.3687633" lon="10.725305"><ele>124.0</ele><time>2026-04-02T09:29:49.197Z</time></trkpt><trkpt lat="45.3688283" lon="10.7251667"><ele>122.75</ele><time>2026-04-02T09:29:51.191Z</time></trkpt><trkpt lat="45.3688683" lon="10.725015"><ele>121.5</ele><time>2026-04-02T09:29:53.192Z</time></trkpt><trkpt lat="45.36891" lon="10.724855"><ele>120.25</ele><time>2026-04-02T09:29:55.192Z</time></trkpt><trkpt lat="45.36893" lon="10.7246967"><ele>119.0</ele><time>2026-04-02T09:29:57.191Z</time></trkpt><trkpt lat="45.3689567" lon="10.724535"><ele>118.99999999999999</ele><time>2026-04-02T09:29:59.193Z</time></trkpt><trkpt lat="45.3689683" lon="10.7244467"><ele>119.0</ele><time>2026-04-02T09:30:00.193Z</time></trkpt><trkpt lat="45.3689783" lon="10.724345"><ele>119.0</ele><time>2026-04-02T09:30:01.19Z</time></trkpt><trkpt lat="45.3689933" lon="10.7242367"><ele>119.0</ele><time>2026-04-02T09:30:02.189Z</time></trkpt><trkpt lat="45.3690133" lon="10.724125"><ele>118.99999999999999</ele><time>2026-04-02T09:30:03.195Z</time></trkpt><trkpt lat="45.369035" lon="10.7240117"><ele>119.0</ele><time>2026-04-02T09:30:04.188Z</time></trkpt><trkpt lat="45.36906" lon="10.7239"><ele>119.0</ele><time>2026-04-02T09:30:05.198Z</time></trkpt><trkpt lat="45.3690867" lon="10.723785"><ele>119.0</ele><time>2026-04-02T09:30:06.191Z</time></trkpt><trkpt lat="45.369125" lon="10.723665"><ele>119.0</ele><time>2026-04-02T09:30:07.188Z</time></trkpt><trkpt lat="45.3691767" lon="10.7235133"><ele>119.0</ele><time>2026-04-02T09:30:08.186Z</time></trkpt><trkpt lat="45.369225" lon="10.72337"><ele>119.0</ele><time>2026-04-02T09:30:09.195Z</time></trkpt><trkpt lat="45.3692767" lon="10.7232467"><ele>118.99999999999999</ele><time>2026-04-02T09:30:10.191Z</time></trkpt><trkpt lat="45.369315" lon="10.7231367"><ele>119.0</ele><time>2026-04-02T09:30:11.199Z</time></trkpt><trkpt lat="45.3693617" lon="10.7230567"><ele>119.0</ele><time>2026-04-02T09:30:12.193Z</time></trkpt><trkpt lat="45.36941" lon="10.7229733"><ele>119.0</ele><time>2026-04-02T09:30:13.193Z</time></trkpt><trkpt lat="45.36946" lon="10.7228933"><ele>118.99999999999999</ele><time>2026-04-02T09:30:14.19Z</time></trkpt><trkpt lat="45.3695217" lon="10.7228117"><ele>119.0</ele><time>2026-04-02T09:30:15.189Z</time></trkpt><trkpt lat="45.3695917" lon="10.72273"><ele>119.2</ele><time>2026-04-02T09:30:16.194Z</time></trkpt><trkpt lat="45.3696633" lon="10.72264"><ele>119.4</ele><time>2026-04-02T09:30:17.191Z</time></trkpt><trkpt lat="45.3697383" lon="10.7225583"><ele>119.6</ele><time>2026-04-02T09:30:18.197Z</time></trkpt><trkpt lat="45.3698167" lon="10.7224467"><ele>119.8</ele><time>2026-04-02T09:30:19.192Z</time></trkpt><trkpt lat="45.36987" lon="10.7223383"><ele>120.0</ele><time>2026-04-02T09:30:20.192Z</time></trkpt><trkpt lat="45.3699333" lon="10.7222017"><ele>120.0</ele><time>2026-04-02T09:30:21.189Z</time></trkpt><trkpt lat="45.3699917" lon="10.7220867"><ele>120.0</ele><time>2026-04-02T09:30:22.193Z</time></trkpt><trkpt lat="45.3700517" lon="10.721985"><ele>120.0</ele><time>2026-04-02T09:30:23.188Z</time></trkpt><trkpt lat="45.3701167" lon="10.7218583"><ele>120.0</ele><time>2026-04-02T09:30:24.2Z</time></trkpt><trkpt lat="45.37019" lon="10.721735"><ele>120.0</ele><time>2026-04-02T09:30:25.195Z</time></trkpt><trkpt lat="45.3702683" lon="10.7216183"><ele>119.8</ele><time>2026-04-02T09:30:26.191Z</time></trkpt><trkpt lat="45.3703367" lon="10.72153"><ele>119.6</ele><time>2026-04-02T09:30:27.186Z</time></trkpt><trkpt lat="45.3703817" lon="10.7214317"><ele>119.4</ele><time>2026-04-02T09:30:28.193Z</time></trkpt><trkpt lat="45.37043" lon="10.7213683"><ele>119.2</ele><time>2026-04-02T09:30:29.191Z</time></trkpt><trkpt lat="45.3705267" lon="10.721265"><ele>119.0</ele><time>2026-04-02T09:30:31.194Z</time></trkpt><trkpt lat="45.3706333" lon="10.7211933"><ele>118.83333333333333</ele><time>2026-04-02T09:30:33.188Z</time></trkpt><trkpt lat="45.3707517" lon="10.7211133"><ele>118.66666666666666</ele><time>2026-04-02T09:30:35.192Z</time></trkpt><trkpt lat="45.3708183" lon="10.72106"><ele>118.5</ele><time>2026-04-02T09:30:36.184Z</time></trkpt><trkpt lat="45.370885" lon="10.7210017"><ele>118.33333333333334</ele><time>2026-04-02T09:30:37.194Z</time></trkpt><trkpt lat="45.3709467" lon="10.7209467"><ele>118.16666666666667</ele><time>2026-04-02T09:30:38.193Z</time></trkpt><trkpt lat="45.3710017" lon="10.7209017"><ele>118.0</ele><time>2026-04-02T09:30:39.194Z</time></trkpt><trkpt lat="45.3711183" lon="10.7208183"><ele>118.00000000000001</ele><time>2026-04-02T09:30:41.187Z</time></trkpt><trkpt lat="45.3711833" lon="10.7207717"><ele>118.0</ele><time>2026-04-02T09:30:42.188Z</time></trkpt><trkpt lat="45.371255" lon="10.7207233"><ele>118.0</ele><time>2026-04-02T09:30:43.19Z</time></trkpt><trkpt lat="45.3713233" lon="10.7206983"><ele>118.0</ele><time>2026-04-02T09:30:44.19Z</time></trkpt><trkpt lat="45.3714217" lon="10.720685"><ele>118.00000000000001</ele><time>2026-04-02T09:30:46.201Z</time></trkpt><trkpt lat="45.3714917" lon="10.720705"><ele>118.0</ele><time>2026-04-02T09:30:48.189Z</time></trkpt><trkpt lat="45.3716" lon="10.720715"><ele>118.4</ele><time>2026-04-02T09:30:51.192Z</time></trkpt><trkpt lat="45.3717267" lon="10.720665"><ele>118.80000000000001</ele><time>2026-04-02T09:30:53.19Z</time></trkpt><trkpt lat="45.3718017" lon="10.720615"><ele>119.2</ele><time>2026-04-02T09:30:54.191Z</time></trkpt><trkpt lat="45.37189" lon="10.7205433"><ele>119.6</ele><time>2026-04-02T09:30:55.193Z</time></trkpt><trkpt lat="45.37199" lon="10.7204717"><ele>120.0</ele><time>2026-04-02T09:30:56.19Z</time></trkpt><trkpt lat="45.3720967" lon="10.7203867"><ele>120.0</ele><time>2026-04-02T09:30:57.195Z</time></trkpt><trkpt lat="45.3721783" lon="10.7202933"><ele>120.0</ele><time>2026-04-02T09:30:58.196Z</time></trkpt><trkpt lat="45.372255" lon="10.7202283"><ele>120.0</ele><time>2026-04-02T09:30:59.192Z</time></trkpt><trkpt lat="45.3723317" lon="10.72017"><ele>120.0</ele><time>2026-04-02T09:31:00.193Z</time></trkpt><trkpt lat="45.3724167" lon="10.7201067"><ele>120.0</ele><time>2026-04-02T09:31:01.185Z</time></trkpt><trkpt lat="45.3724933" lon="10.7200483"><ele>120.0</ele><time>2026-04-02T09:31:02.184Z</time></trkpt><trkpt lat="45.3725583" lon="10.71999"><ele>120.0</ele><time>2026-04-02T09:31:03.193Z</time></trkpt><trkpt lat="45.3726033" lon="10.7199267"><ele>120.0</ele><time>2026-04-02T09:31:04.193Z</time></trkpt><trkpt lat="45.3726383" lon="10.719815"><ele>120.0</ele><time>2026-04-02T09:31:06.185Z</time></trkpt><trkpt lat="45.3726133" lon="10.7196117"><ele>120.0</ele><time>2026-04-02T09:31:08.19Z</time></trkpt><trkpt lat="45.3725767" lon="10.7194933"><ele>120.2</ele><time>2026-04-02T09:31:09.189Z</time></trkpt><trkpt lat="45.3725317" lon="10.7193617"><ele>120.4</ele><time>2026-04-02T09:31:10.189Z</time></trkpt><trkpt lat="45.3724917" lon="10.719225"><ele>120.6</ele><time>2026-04-02T09:31:11.187Z</time></trkpt><trkpt lat="45.3724317" lon="10.7190883"><ele>120.8</ele><time>2026-04-02T09:31:12.184Z</time></trkpt><trkpt lat="45.3724033" lon="10.7189367"><ele>121.0</ele><time>2026-04-02T09:31:13.197Z</time></trkpt><trkpt lat="45.37234" lon="10.71879"><ele>121.0</ele><time>2026-04-02T09:31:14.187Z</time></trkpt><trkpt lat="45.3723117" lon="10.718645"><ele>121.0</ele><time>2026-04-02T09:31:15.188Z</time></trkpt><trkpt lat="45.3722817" lon="10.7185233"><ele>121.0</ele><time>2026-04-02T09:31:16.193Z</time></trkpt><trkpt lat="45.372275" lon="10.718335"><ele>121.0</ele><time>2026-04-02T09:31:17.193Z</time></trkpt><trkpt lat="45.3722483" lon="10.7182233"><ele>121.0</ele><time>2026-04-02T09:31:18.193Z</time></trkpt><trkpt lat="45.3722417" lon="10.7181083"><ele>121.19999999999999</ele><time>2026-04-02T09:31:19.191Z</time></trkpt><trkpt lat="45.3722433" lon="10.7179467"><ele>121.39999999999999</ele><time>2026-04-02T09:31:20.186Z</time></trkpt><trkpt lat="45.3722283" lon="10.7177867"><ele>121.6</ele><time>2026-04-02T09:31:21.188Z</time></trkpt><trkpt lat="45.3722283" lon="10.7176267"><ele>121.8</ele><time>2026-04-02T09:31:22.19Z</time></trkpt><trkpt lat="45.3721983" lon="10.717495"><ele>122.0</ele><time>2026-04-02T09:31:23.193Z</time></trkpt><trkpt lat="45.3721883" lon="10.7173817"><ele>121.39999999999999</ele><time>2026-04-02T09:31:24.191Z</time></trkpt><trkpt lat="45.3721817" lon="10.7172617"><ele>120.79999999999998</ele><time>2026-04-02T09:31:26.189Z</time></trkpt><trkpt lat="45.3721517" lon="10.7171367"><ele>120.2</ele><time>2026-04-02T09:31:28.19Z</time></trkpt><trkpt lat="45.3721183" lon="10.7169983"><ele>119.6</ele><time>2026-04-02T09:31:30.195Z</time></trkpt><trkpt lat="45.37211" lon="10.7169033"><ele>119.0</ele><time>2026-04-02T09:31:32.202Z</time></trkpt><trkpt lat="45.372085" lon="10.7167483"><ele>118.49999999999999</ele><time>2026-04-02T09:31:44.19Z</time></trkpt><trkpt lat="45.3720233" lon="10.7166383"><ele>118.0</ele><time>2026-04-02T09:31:46.19Z</time></trkpt><trkpt lat="45.37196" lon="10.7165467"><ele>117.5</ele><time>2026-04-02T09:31:48.199Z</time></trkpt><trkpt lat="45.371895" lon="10.7164867"><ele>117.0</ele><time>2026-04-02T09:31:51.189Z</time></trkpt><trkpt lat="45.371835" lon="10.7164217"><ele>116.49999999999999</ele><time>2026-04-02T09:31:54.198Z</time></trkpt><trkpt lat="45.3717833" lon="10.716365"><ele>116.0</ele><time>2026-04-02T09:31:57.189Z</time></trkpt><trkpt lat="45.3717067" lon="10.7163267"><ele>116.0</ele><time>2026-04-02T09:32:02.194Z</time></trkpt><trkpt lat="45.3716083" lon="10.7163217"><ele>116.0</ele><time>2026-04-02T09:32:04.186Z</time></trkpt><trkpt lat="45.3714883" lon="10.716315"><ele>116.0</ele><time>2026-04-02T09:32:06.19Z</time></trkpt><trkpt lat="45.371425" lon="10.7163067"><ele>116.0</ele><time>2026-04-02T09:32:07.189Z</time></trkpt><trkpt lat="45.3713267" lon="10.7163117"><ele>116.0</ele><time>2026-04-02T09:32:09.186Z</time></trkpt><trkpt lat="45.3712233" lon="10.71632"><ele>114.33333333333333</ele><time>2026-04-02T09:32:11.193Z</time></trkpt><trkpt lat="45.3711467" lon="10.716315"><ele>112.66666666666666</ele><time>2026-04-02T09:32:13.185Z</time></trkpt><trkpt lat="45.3710467" lon="10.716295"><ele>111.0</ele><time>2026-04-02T09:32:15.189Z</time></trkpt><trkpt lat="45.3709483" lon="10.7162833"><ele>109.33333333333334</ele><time>2026-04-02T09:32:17.189Z</time></trkpt><trkpt lat="45.3708683" lon="10.7162917"><ele>107.66666666666667</ele><time>2026-04-02T09:32:19.19Z</time></trkpt><trkpt lat="45.37079" lon="10.7162333"><ele>106.0</ele><time>2026-04-02T09:32:22.193Z</time></trkpt><trkpt lat="45.3707767" lon="10.7161283"><ele>103.8</ele><time>2026-04-02T09:32:25.184Z</time></trkpt><trkpt lat="45.370835" lon="10.7160283"><ele>101.6</ele><time>2026-04-02T09:32:27.191Z</time></trkpt><trkpt lat="45.370915" lon="10.7159667"><ele>99.4</ele><time>2026-04-02T09:32:29.185Z</time></trkpt><trkpt lat="45.3709683" lon="10.715845"><ele>97.2</ele><time>2026-04-02T09:32:31.189Z</time></trkpt><trkpt lat="45.3710233" lon="10.7156933"><ele>95.0</ele><time>2026-04-02T09:32:33.192Z</time></trkpt><trkpt lat="45.37105" lon="10.71561"><ele>95.0</ele><time>2026-04-02T09:32:34.19Z</time></trkpt><trkpt lat="45.37109" lon="10.71546"><ele>95.0</ele><time>2026-04-02T09:32:36.198Z</time></trkpt><trkpt lat="45.3711067" lon="10.7153667"><ele>95.0</ele><time>2026-04-02T09:32:38.19Z</time></trkpt><trkpt lat="45.371155" lon="10.7152883"><ele>95.0</ele><time>2026-04-02T09:32:41.186Z</time></trkpt><trkpt lat="45.37123" lon="10.715255"><ele>95.0</ele><time>2026-04-02T09:32:43.194Z</time></trkpt><trkpt lat="45.37132" lon="10.7152083"><ele>95.0</ele><time>2026-04-02T09:32:45.19Z</time></trkpt><trkpt lat="45.371435" lon="10.7151533"><ele>94.5</ele><time>2026-04-02T09:32:47.187Z</time></trkpt><trkpt lat="45.3715" lon="10.7151283"><ele>94.0</ele><time>2026-04-02T09:32:48.192Z</time></trkpt><trkpt lat="45.3715733" lon="10.715105"><ele>93.5</ele><time>2026-04-02T09:32:49.192Z</time></trkpt><trkpt lat="45.3716567" lon="10.7150867"><ele>93.0</ele><time>2026-04-02T09:32:50.189Z</time></trkpt><trkpt lat="45.37175" lon="10.715065"><ele>92.5</ele><time>2026-04-02T09:32:51.196Z</time></trkpt><trkpt lat="45.3718567" lon="10.7150467"><ele>92.0</ele><time>2026-04-02T09:32:52.19Z</time></trkpt><trkpt lat="45.3719617" lon="10.7150133"><ele>92.0</ele><time>2026-04-02T09:32:53.189Z</time></trkpt><trkpt lat="45.3720767" lon="10.7149983"><ele>92.0</ele><time>2026-04-02T09:32:54.189Z</time></trkpt><trkpt lat="45.372185" lon="10.7149983"><ele>92.0</ele><time>2026-04-02T09:32:55.196Z</time></trkpt><trkpt lat="45.372275" lon="10.71497"><ele>92.0</ele><time>2026-04-02T09:32:56.194Z</time></trkpt><trkpt lat="45.372375" lon="10.714905"><ele>92.0</ele><time>2026-04-02T09:32:57.186Z</time></trkpt><trkpt lat="45.372465" lon="10.714855"><ele>92.8</ele><time>2026-04-02T09:32:58.192Z</time></trkpt><trkpt lat="45.372565" lon="10.7147583"><ele>93.6</ele><time>2026-04-02T09:32:59.192Z</time></trkpt><trkpt lat="45.3726567" lon="10.7146967"><ele>94.39999999999999</ele><time>2026-04-02T09:33:00.191Z</time></trkpt><trkpt lat="45.3727467" lon="10.7146667"><ele>95.19999999999999</ele><time>2026-04-02T09:33:01.187Z</time></trkpt><trkpt lat="45.3728517" lon="10.7146367"><ele>96.0</ele><time>2026-04-02T09:33:02.194Z</time></trkpt><trkpt lat="45.37294" lon="10.714635"><ele>96.25</ele><time>2026-04-02T09:33:03.192Z</time></trkpt><trkpt lat="45.3730667" lon="10.7146333"><ele>96.5</ele><time>2026-04-02T09:33:04.193Z</time></trkpt><trkpt lat="45.3731717" lon="10.714615"><ele>96.75</ele><time>2026-04-02T09:33:05.192Z</time></trkpt><trkpt lat="45.373285" lon="10.71459"><ele>97.0</ele><time>2026-04-02T09:33:06.193Z</time></trkpt><trkpt lat="45.3733967" lon="10.7145767"><ele>97.0</ele><time>2026-04-02T09:33:07.187Z</time></trkpt><trkpt lat="45.3735033" lon="10.7145567"><ele>97.0</ele><time>2026-04-02T09:33:08.193Z</time></trkpt><trkpt lat="45.3736133" lon="10.714515"><ele>97.0</ele><time>2026-04-02T09:33:09.186Z</time></trkpt><trkpt lat="45.3737183" lon="10.7145017"><ele>97.0</ele><time>2026-04-02T09:33:10.191Z</time></trkpt><trkpt lat="45.37386" lon="10.714455"><ele>97.19999999999999</ele><time>2026-04-02T09:33:11.192Z</time></trkpt><trkpt lat="45.3739717" lon="10.7144333"><ele>97.4</ele><time>2026-04-02T09:33:12.193Z</time></trkpt><trkpt lat="45.3740667" lon="10.7144033"><ele>97.6</ele><time>2026-04-02T09:33:13.185Z</time></trkpt><trkpt lat="45.3741483" lon="10.7143617"><ele>97.80000000000001</ele><time>2026-04-02T09:33:14.187Z</time></trkpt><trkpt lat="45.3742283" lon="10.7143233"><ele>98.0</ele><time>2026-04-02T09:33:15.196Z</time></trkpt><trkpt lat="45.374315" lon="10.7142483"><ele>97.49999999999999</ele><time>2026-04-02T09:33:16.185Z</time></trkpt><trkpt lat="45.3743933" lon="10.71421"><ele>97.0</ele><time>2026-04-02T09:33:17.192Z</time></trkpt><trkpt lat="45.37447" lon="10.71415"><ele>96.5</ele><time>2026-04-02T09:33:18.192Z</time></trkpt><trkpt lat="45.374545" lon="10.714095"><ele>96.0</ele><time>2026-04-02T09:33:19.192Z</time></trkpt><trkpt lat="45.3746133" lon="10.7140417"><ele>95.5</ele><time>2026-04-02T09:33:20.189Z</time></trkpt><trkpt lat="45.3746833" lon="10.7139767"><ele>95.0</ele><time>2026-04-02T09:33:21.191Z</time></trkpt><trkpt lat="45.3747433" lon="10.713915"><ele>94.4</ele><time>2026-04-02T09:33:22.253Z</time></trkpt><trkpt lat="45.3747983" lon="10.7138617"><ele>93.8</ele><time>2026-04-02T09:33:23.193Z</time></trkpt><trkpt lat="45.3748883" lon="10.7137933"><ele>93.19999999999999</ele><time>2026-04-02T09:33:25.194Z</time></trkpt><trkpt lat="45.3749617" lon="10.713745"><ele>92.6</ele><time>2026-04-02T09:33:27.186Z</time></trkpt><trkpt lat="45.3750467" lon="10.713735"><ele>92.0</ele><time>2026-04-02T09:33:38.191Z</time></trkpt><trkpt lat="45.3751617" lon="10.7137383"><ele>92.0</ele><time>2026-04-02T09:33:40.199Z</time></trkpt><trkpt lat="45.3752567" lon="10.7137417"><ele>92.0</ele><time>2026-04-02T09:33:41.187Z</time></trkpt><trkpt lat="45.3753583" lon="10.7137483"><ele>92.0</ele><time>2026-04-02T09:33:42.196Z</time></trkpt><trkpt lat="45.37546" lon="10.7137483"><ele>92.0</ele><time>2026-04-02T09:33:43.196Z</time></trkpt><trkpt lat="45.3755967" lon="10.7137733"><ele>92.0</ele><time>2026-04-02T09:33:44.192Z</time></trkpt><trkpt lat="45.375725" lon="10.7137633"><ele>92.5</ele><time>2026-04-02T09:33:45.189Z</time></trkpt><trkpt lat="45.3758283" lon="10.7137767"><ele>93.0</ele><time>2026-04-02T09:33:46.188Z</time></trkpt><trkpt lat="45.375965" lon="10.7137817"><ele>93.5</ele><time>2026-04-02T09:33:47.19Z</time></trkpt><trkpt lat="45.3760767" lon="10.7137817"><ele>94.0</ele><time>2026-04-02T09:33:48.186Z</time></trkpt><trkpt lat="45.376185" lon="10.7137717"><ele>94.0</ele><time>2026-04-02T09:33:49.192Z</time></trkpt><trkpt lat="45.3762967" lon="10.7137733"><ele>94.0</ele><time>2026-04-02T09:33:50.192Z</time></trkpt><trkpt lat="45.376395" lon="10.7137783"><ele>94.0</ele><time>2026-04-02T09:33:51.192Z</time></trkpt><trkpt lat="45.376495" lon="10.71378"><ele>94.0</ele><time>2026-04-02T09:33:52.189Z</time></trkpt><trkpt lat="45.3766" lon="10.7137917"><ele>94.0</ele><time>2026-04-02T09:33:53.191Z</time></trkpt><trkpt lat="45.3767217" lon="10.7138117"><ele>93.66666666666666</ele><time>2026-04-02T09:33:54.186Z</time></trkpt><trkpt lat="45.376815" lon="10.71381"><ele>93.33333333333333</ele><time>2026-04-02T09:33:55.188Z</time></trkpt><trkpt lat="45.376895" lon="10.7137883"><ele>93.0</ele><time>2026-04-02T09:33:56.193Z</time></trkpt><trkpt lat="45.3769817" lon="10.7137817"><ele>92.66666666666667</ele><time>2026-04-02T09:33:57.191Z</time></trkpt><trkpt lat="45.3770617" lon="10.7137783"><ele>92.33333333333334</ele><time>2026-04-02T09:33:58.191Z</time></trkpt><trkpt lat="45.3771517" lon="10.713775"><ele>92.0</ele><time>2026-04-02T09:33:59.188Z</time></trkpt><trkpt lat="45.37724" lon="10.7137683"><ele>91.8</ele><time>2026-04-02T09:34:00.193Z</time></trkpt><trkpt lat="45.3773383" lon="10.7137633"><ele>91.6</ele><time>2026-04-02T09:34:01.186Z</time></trkpt><trkpt lat="45.3774417" lon="10.7137533"><ele>91.39999999999999</ele><time>2026-04-02T09:34:02.194Z</time></trkpt><trkpt lat="45.3775517" lon="10.7137117"><ele>91.19999999999999</ele><time>2026-04-02T09:34:03.193Z</time></trkpt><trkpt lat="45.377635" lon="10.713705"><ele>91.0</ele><time>2026-04-02T09:34:04.186Z</time></trkpt><trkpt lat="45.3777267" lon="10.7136917"><ele>91.0</ele><time>2026-04-02T09:34:05.185Z</time></trkpt><trkpt lat="45.377815" lon="10.7136933"><ele>91.0</ele><time>2026-04-02T09:34:06.198Z</time></trkpt><trkpt lat="45.3778983" lon="10.7136817"><ele>91.0</ele><time>2026-04-02T09:34:07.187Z</time></trkpt><trkpt lat="45.37797" lon="10.7136683"><ele>91.0</ele><time>2026-04-02T09:34:08.195Z</time></trkpt><trkpt lat="45.3780767" lon="10.7136383"><ele>91.0</ele><time>2026-04-02T09:34:10.19Z</time></trkpt><trkpt lat="45.3781583" lon="10.7136033"><ele>91.0</ele><time>2026-04-02T09:34:12.19Z</time></trkpt><trkpt lat="45.3781967" lon="10.7135133"><ele>90.4</ele><time>2026-04-02T09:34:14.188Z</time></trkpt><trkpt lat="45.3782117" lon="10.71335"><ele>89.8</ele><time>2026-04-02T09:34:16.2Z</time></trkpt><trkpt lat="45.3782067" lon="10.71324"><ele>89.2</ele><time>2026-04-02T09:34:17.187Z</time></trkpt><trkpt lat="45.3782017" lon="10.7131183"><ele>88.60000000000001</ele><time>2026-04-02T09:34:18.187Z</time></trkpt><trkpt lat="45.378195" lon="10.712995"><ele>88.0</ele><time>2026-04-02T09:34:19.19Z</time></trkpt><trkpt lat="45.37818" lon="10.71287"><ele>88.0</ele><time>2026-04-02T09:34:20.197Z</time></trkpt><trkpt lat="45.3781667" lon="10.7127467"><ele>88.0</ele><time>2026-04-02T09:34:21.193Z</time></trkpt><trkpt lat="45.3781517" lon="10.7126367"><ele>88.0</ele><time>2026-04-02T09:34:22.192Z</time></trkpt><trkpt lat="45.3781467" lon="10.71254"><ele>88.0</ele><time>2026-04-02T09:34:23.194Z</time></trkpt><trkpt lat="45.3781417" lon="10.71238"><ele>88.0</ele><time>2026-04-02T09:34:25.195Z</time></trkpt><trkpt lat="45.3780983" lon="10.7122117"><ele>87.2</ele><time>2026-04-02T09:34:27.199Z</time></trkpt><trkpt lat="45.37807" lon="10.712125"><ele>86.4</ele><time>2026-04-02T09:34:28.195Z</time></trkpt><trkpt lat="45.3780233" lon="10.7119617"><ele>85.60000000000001</ele><time>2026-04-02T09:34:30.19Z</time></trkpt><trkpt lat="45.3779867" lon="10.7118067"><ele>84.80000000000001</ele><time>2026-04-02T09:34:32.19Z</time></trkpt><trkpt lat="45.3779817" lon="10.7116417"><ele>84.0</ele><time>2026-04-02T09:34:34.194Z</time></trkpt><trkpt lat="45.3779883" lon="10.711455"><ele>82.2</ele><time>2026-04-02T09:34:36.183Z</time></trkpt><trkpt lat="45.3779817" lon="10.7113417"><ele>80.4</ele><time>2026-04-02T09:34:37.191Z</time></trkpt><trkpt lat="45.3779567" lon="10.7112083"><ele>78.6</ele><time>2026-04-02T09:34:38.192Z</time></trkpt><trkpt lat="45.377925" lon="10.7110633"><ele>76.8</ele><time>2026-04-02T09:34:39.189Z</time></trkpt><trkpt lat="45.3778917" lon="10.71091"><ele>75.0</ele><time>2026-04-02T09:34:40.189Z</time></trkpt><trkpt lat="45.3778333" lon="10.710775"><ele>73.2</ele><time>2026-04-02T09:34:41.189Z</time></trkpt><trkpt lat="45.3777983" lon="10.7106317"><ele>71.4</ele><time>2026-04-02T09:34:42.188Z</time></trkpt><trkpt lat="45.37776" lon="10.71049"><ele>69.6</ele><time>2026-04-02T09:34:43.192Z</time></trkpt><trkpt lat="45.3777317" lon="10.7103617"><ele>67.8</ele><time>2026-04-02T09:34:44.187Z</time></trkpt><trkpt lat="45.3777233" lon="10.7102283"><ele>66.0</ele><time>2026-04-02T09:34:45.184Z</time></trkpt><trkpt lat="45.3777183" lon="10.7101"><ele>65.8</ele><time>2026-04-02T09:34:46.189Z</time></trkpt><trkpt lat="45.377705" lon="10.7099683"><ele>65.6</ele><time>2026-04-02T09:34:47.187Z</time></trkpt><trkpt lat="45.3776817" lon="10.7098367"><ele>65.4</ele><time>2026-04-02T09:34:48.192Z</time></trkpt><trkpt lat="45.377665" lon="10.70971"><ele>65.2</ele><time>2026-04-02T09:34:49.185Z</time></trkpt><trkpt lat="45.3776517" lon="10.7096117"><ele>65.0</ele><time>2026-04-02T09:34:50.186Z</time></trkpt><trkpt lat="45.377625" lon="10.7094517"><ele>64.66666666666667</ele><time>2026-04-02T09:34:52.186Z</time></trkpt><trkpt lat="45.3776117" lon="10.7093417"><ele>64.33333333333334</ele><time>2026-04-02T09:34:54.193Z</time></trkpt><trkpt lat="45.3775917" lon="10.7092467"><ele>64.0</ele><time>2026-04-02T09:34:57.193Z</time></trkpt><trkpt lat="45.3775183" lon="10.70922"><ele>63.66666666666667</ele><time>2026-04-02T09:34:59.195Z</time></trkpt><trkpt lat="45.3773883" lon="10.70924"><ele>63.333333333333336</ele><time>2026-04-02T09:35:01.194Z</time></trkpt><trkpt lat="45.377295" lon="10.7092567"><ele>63.0</ele><time>2026-04-02T09:35:02.183Z</time></trkpt><trkpt lat="45.3772083" lon="10.70926"><ele>63.0</ele><time>2026-04-02T09:35:03.191Z</time></trkpt><trkpt lat="45.377125" lon="10.70927"><ele>63.0</ele><time>2026-04-02T09:35:04.189Z</time></trkpt><trkpt lat="45.3770517" lon="10.7092783"><ele>63.0</ele><time>2026-04-02T09:35:05.191Z</time></trkpt><trkpt lat="45.3769383" lon="10.709295"><ele>63.0</ele><time>2026-04-02T09:35:07.189Z</time></trkpt><trkpt lat="45.3768433" lon="10.70926"><ele>63.0</ele><time>2026-04-02T09:35:09.19Z</time></trkpt><trkpt lat="45.3767967" lon="10.70909"><ele>63.0</ele><time>2026-04-02T09:35:11.185Z</time></trkpt><trkpt lat="45.37678" lon="10.7089717"><ele>63.0</ele><time>2026-04-02T09:35:12.193Z</time></trkpt><trkpt lat="45.3767567" lon="10.7088517"><ele>63.0</ele><time>2026-04-02T09:35:13.193Z</time></trkpt><trkpt lat="45.3767333" lon="10.7087217"><ele>63.0</ele><time>2026-04-02T09:35:14.183Z</time></trkpt><trkpt lat="45.376695" lon="10.708585"><ele>63.0</ele><time>2026-04-02T09:35:15.187Z</time></trkpt><trkpt lat="45.3766733" lon="10.7084283"><ele>63.4</ele><time>2026-04-02T09:35:16.19Z</time></trkpt><trkpt lat="45.3766367" lon="10.7083"><ele>63.8</ele><time>2026-04-02T09:35:17.184Z</time></trkpt><trkpt lat="45.3766067" lon="10.7081683"><ele>64.2</ele><time>2026-04-02T09:35:18.191Z</time></trkpt><trkpt lat="45.3765767" lon="10.708055"><ele>64.6</ele><time>2026-04-02T09:35:19.194Z</time></trkpt><trkpt lat="45.3765433" lon="10.70792"><ele>65.0</ele><time>2026-04-02T09:35:20.199Z</time></trkpt><trkpt lat="45.376515" lon="10.7077983"><ele>64.8</ele><time>2026-04-02T09:35:21.185Z</time></trkpt><trkpt lat="45.376495" lon="10.70767"><ele>64.6</ele><time>2026-04-02T09:35:22.184Z</time></trkpt><trkpt lat="45.3764767" lon="10.7075283"><ele>64.4</ele><time>2026-04-02T09:35:23.193Z</time></trkpt><trkpt lat="45.3764517" lon="10.7073867"><ele>64.2</ele><time>2026-04-02T09:35:24.187Z</time></trkpt><trkpt lat="45.3764267" lon="10.7072283"><ele>64.0</ele><time>2026-04-02T09:35:25.192Z</time></trkpt><trkpt lat="45.37639" lon="10.707095"><ele>64.0</ele><time>2026-04-02T09:35:26.191Z</time></trkpt><trkpt lat="45.3763683" lon="10.7069633"><ele>64.0</ele><time>2026-04-02T09:35:27.19Z</time></trkpt><trkpt lat="45.3763533" lon="10.706785"><ele>64.0</ele><time>2026-04-02T09:35:28.196Z</time></trkpt><trkpt lat="45.3763283" lon="10.7066367"><ele>64.0</ele><time>2026-04-02T09:35:29.19Z</time></trkpt><trkpt lat="45.3763033" lon="10.7064717"><ele>64.0</ele><time>2026-04-02T09:35:30.186Z</time></trkpt><trkpt lat="45.37627" lon="10.7062967"><ele>63.75</ele><time>2026-04-02T09:35:31.19Z</time></trkpt><trkpt lat="45.3762233" lon="10.7060983"><ele>63.5</ele><time>2026-04-02T09:35:32.192Z</time></trkpt><trkpt lat="45.376185" lon="10.70594"><ele>63.25</ele><time>2026-04-02T09:35:33.194Z</time></trkpt><trkpt lat="45.3761467" lon="10.705765"><ele>63.0</ele><time>2026-04-02T09:35:34.183Z</time></trkpt><trkpt lat="45.376105" lon="10.7055967"><ele>63.0</ele><time>2026-04-02T09:35:35.19Z</time></trkpt><trkpt lat="45.3760533" lon="10.70544"><ele>63.0</ele><time>2026-04-02T09:35:36.192Z</time></trkpt><trkpt lat="45.376015" lon="10.70532"><ele>63.0</ele><time>2026-04-02T09:35:37.187Z</time></trkpt><trkpt lat="45.3759783" lon="10.705195"><ele>63.0</ele><time>2026-04-02T09:35:38.193Z</time></trkpt><trkpt lat="45.3759167" lon="10.705055"><ele>63.0</ele><time>2026-04-02T09:35:39.187Z</time></trkpt><trkpt lat="45.37585" lon="10.7049467"><ele>62.833333333333336</ele><time>2026-04-02T09:35:40.188Z</time></trkpt><trkpt lat="45.3758017" lon="10.704825"><ele>62.66666666666667</ele><time>2026-04-02T09:35:41.184Z</time></trkpt><trkpt lat="45.3757667" lon="10.70474"><ele>62.5</ele><time>2026-04-02T09:35:42.192Z</time></trkpt><trkpt lat="45.375695" lon="10.704655"><ele>62.333333333333336</ele><time>2026-04-02T09:35:44.188Z</time></trkpt><trkpt lat="45.37565" lon="10.7045867"><ele>62.16666666666667</ele><time>2026-04-02T09:35:47.185Z</time></trkpt><trkpt lat="45.375705" lon="10.70446"><ele>62.0</ele><time>2026-04-02T09:35:49.182Z</time></trkpt><trkpt lat="45.37576" lon="10.70437"><ele>62.0</ele><time>2026-04-02T09:35:50.19Z</time></trkpt><trkpt lat="45.3758283" lon="10.7042583"><ele>62.0</ele><time>2026-04-02T09:35:51.183Z</time></trkpt><trkpt lat="45.3759083" lon="10.7041317"><ele>62.0</ele><time>2026-04-02T09:35:52.186Z</time></trkpt><trkpt lat="45.3760017" lon="10.703975"><ele>62.0</ele><time>2026-04-02T09:35:53.192Z</time></trkpt><trkpt lat="45.3761" lon="10.70386"><ele>62.0</ele><time>2026-04-02T09:35:54.185Z</time></trkpt><trkpt lat="45.3762" lon="10.703705"><ele>62.0</ele><time>2026-04-02T09:35:55.185Z</time></trkpt><trkpt lat="45.3763067" lon="10.703535"><ele>62.0</ele><time>2026-04-02T09:35:56.188Z</time></trkpt><trkpt lat="45.3763867" lon="10.7033817"><ele>62.0</ele><time>2026-04-02T09:35:57.198Z</time></trkpt><trkpt lat="45.3765" lon="10.7031967"><ele>62.333333333333336</ele><time>2026-04-02T09:35:58.19Z</time></trkpt><trkpt lat="45.37661" lon="10.70302"><ele>62.66666666666667</ele><time>2026-04-02T09:35:59.193Z</time></trkpt><trkpt lat="45.3767183" lon="10.7028383"><ele>63.0</ele><time>2026-04-02T09:36:00.188Z</time></trkpt><trkpt lat="45.3768417" lon="10.7026633"><ele>62.66666666666667</ele><time>2026-04-02T09:36:01.196Z</time></trkpt><trkpt lat="45.3769517" lon="10.702475"><ele>62.333333333333336</ele><time>2026-04-02T09:36:02.19Z</time></trkpt><trkpt lat="45.3770567" lon="10.7023117"><ele>62.0</ele><time>2026-04-02T09:36:03.191Z</time></trkpt><trkpt lat="45.3772" lon="10.7021533"><ele>62.0</ele><time>2026-04-02T09:36:04.197Z</time></trkpt><trkpt lat="45.37734" lon="10.70202"><ele>62.0</ele><time>2026-04-02T09:36:05.19Z</time></trkpt><trkpt lat="45.3774717" lon="10.7018917"><ele>62.0</ele><time>2026-04-02T09:36:06.184Z</time></trkpt><trkpt lat="45.3776033" lon="10.7017767"><ele>61.333333333333336</ele><time>2026-04-02T09:36:07.193Z</time></trkpt><trkpt lat="45.377755" lon="10.70167"><ele>60.66666666666667</ele><time>2026-04-02T09:36:08.195Z</time></trkpt><trkpt lat="45.3779417" lon="10.70158"><ele>60.0</ele><time>2026-04-02T09:36:09.186Z</time></trkpt><trkpt lat="45.37809" lon="10.7014517"><ele>60.33333333333333</ele><time>2026-04-02T09:36:10.188Z</time></trkpt><trkpt lat="45.3782383" lon="10.70133"><ele>60.666666666666664</ele><time>2026-04-02T09:36:11.19Z</time></trkpt><trkpt lat="45.3784017" lon="10.7011917"><ele>61.0</ele><time>2026-04-02T09:36:12.185Z</time></trkpt><trkpt lat="45.3785617" lon="10.701055"><ele>61.0</ele><time>2026-04-02T09:36:13.197Z</time></trkpt><trkpt lat="45.37872" lon="10.700935"><ele>61.0</ele><time>2026-04-02T09:36:14.188Z</time></trkpt><trkpt lat="45.3788683" lon="10.7008283"><ele>61.0</ele><time>2026-04-02T09:36:15.186Z</time></trkpt><trkpt lat="45.3790033" lon="10.7006983"><ele>61.666666666666664</ele><time>2026-04-02T09:36:16.19Z</time></trkpt><trkpt lat="45.37913" lon="10.7005867"><ele>62.33333333333333</ele><time>2026-04-02T09:36:17.195Z</time></trkpt><trkpt lat="45.37926" lon="10.7004733"><ele>63.0</ele><time>2026-04-02T09:36:18.191Z</time></trkpt><trkpt lat="45.3793933" lon="10.7003483"><ele>62.5</ele><time>2026-04-02T09:36:19.189Z</time></trkpt><trkpt lat="45.3795033" lon="10.7002183"><ele>62.0</ele><time>2026-04-02T09:36:20.193Z</time></trkpt><trkpt lat="45.379625" lon="10.700095"><ele>61.5</ele><time>2026-04-02T09:36:21.2Z</time></trkpt><trkpt lat="45.379735" lon="10.6999817"><ele>61.0</ele><time>2026-04-02T09:36:22.2Z</time></trkpt><trkpt lat="45.3798583" lon="10.6998383"><ele>61.0</ele><time>2026-04-02T09:36:23.195Z</time></trkpt><trkpt lat="45.3799783" lon="10.699705"><ele>61.0</ele><time>2026-04-02T09:36:24.192Z</time></trkpt><trkpt lat="45.380095" lon="10.69959"><ele>61.0</ele><time>2026-04-02T09:36:25.187Z</time></trkpt><trkpt lat="45.3802117" lon="10.6994483"><ele>61.0</ele><time>2026-04-02T09:36:26.187Z</time></trkpt><trkpt lat="45.38034" lon="10.6993083"><ele>61.0</ele><time>2026-04-02T09:36:27.199Z</time></trkpt><trkpt lat="45.3804617" lon="10.6991967"><ele>61.0</ele><time>2026-04-02T09:36:28.189Z</time></trkpt><trkpt lat="45.38057" lon="10.6990967"><ele>61.0</ele><time>2026-04-02T09:36:29.194Z</time></trkpt><trkpt lat="45.3806783" lon="10.6989917"><ele>61.0</ele><time>2026-04-02T09:36:30.191Z</time></trkpt><trkpt lat="45.3807917" lon="10.6989067"><ele>61.5</ele><time>2026-04-02T09:36:31.192Z</time></trkpt><trkpt lat="45.3809017" lon="10.69881"><ele>62.0</ele><time>2026-04-02T09:36:32.186Z</time></trkpt><trkpt lat="45.3810067" lon="10.698735"><ele>62.5</ele><time>2026-04-02T09:36:33.19Z</time></trkpt><trkpt lat="45.3811183" lon="10.6986533"><ele>63.0</ele><time>2026-04-02T09:36:34.188Z</time></trkpt><trkpt lat="45.3812383" lon="10.6985567"><ele>63.0</ele><time>2026-04-02T09:36:35.19Z</time></trkpt><trkpt lat="45.38136" lon="10.6984617"><ele>63.0</ele><time>2026-04-02T09:36:36.185Z</time></trkpt><trkpt lat="45.3815" lon="10.6983733"><ele>63.0</ele><time>2026-04-02T09:36:37.183Z</time></trkpt><trkpt lat="45.3816317" lon="10.6982867"><ele>63.0</ele><time>2026-04-02T09:36:38.188Z</time></trkpt><trkpt lat="45.3817667" lon="10.69818"><ele>63.0</ele><time>2026-04-02T09:36:39.192Z</time></trkpt><trkpt lat="45.38192" lon="10.6980767"><ele>63.0</ele><time>2026-04-02T09:36:40.188Z</time></trkpt><trkpt lat="45.3820533" lon="10.69798"><ele>63.0</ele><time>2026-04-02T09:36:41.183Z</time></trkpt><trkpt lat="45.3821967" lon="10.69788"><ele>63.0</ele><time>2026-04-02T09:36:42.189Z</time></trkpt><trkpt lat="45.3823483" lon="10.6977683"><ele>63.0</ele><time>2026-04-02T09:36:43.188Z</time></trkpt><trkpt lat="45.3825183" lon="10.69765"><ele>63.0</ele><time>2026-04-02T09:36:44.195Z</time></trkpt><trkpt lat="45.38267" lon="10.69754"><ele>63.0</ele><time>2026-04-02T09:36:45.185Z</time></trkpt><trkpt lat="45.3828183" lon="10.6974333"><ele>63.0</ele><time>2026-04-02T09:36:46.195Z</time></trkpt><trkpt lat="45.3829733" lon="10.6973467"><ele>63.0</ele><time>2026-04-02T09:36:47.182Z</time></trkpt><trkpt lat="45.38316" lon="10.69724"><ele>63.33333333333333</ele><time>2026-04-02T09:36:48.191Z</time></trkpt><trkpt lat="45.383335" lon="10.6972217"><ele>63.666666666666664</ele><time>2026-04-02T09:36:49.191Z</time></trkpt><trkpt lat="45.383525" lon="10.6971733"><ele>64.0</ele><time>2026-04-02T09:36:50.191Z</time></trkpt><trkpt lat="45.3836967" lon="10.6971533"><ele>64.33333333333333</ele><time>2026-04-02T09:36:51.191Z</time></trkpt><trkpt lat="45.3838817" lon="10.6971033"><ele>64.66666666666667</ele><time>2026-04-02T09:36:52.202Z</time></trkpt><trkpt lat="45.38402" lon="10.6970617"><ele>65.0</ele><time>2026-04-02T09:36:53.189Z</time></trkpt><trkpt lat="45.384145" lon="10.6970267"><ele>65.0</ele><time>2026-04-02T09:36:54.188Z</time></trkpt><trkpt lat="45.3842517" lon="10.6969767"><ele>65.0</ele><time>2026-04-02T09:36:55.184Z</time></trkpt><trkpt lat="45.3843283" lon="10.6969317"><ele>65.0</ele><time>2026-04-02T09:36:56.184Z</time></trkpt><trkpt lat="45.3843717" lon="10.6968433"><ele>65.0</ele><time>2026-04-02T09:36:57.185Z</time></trkpt><trkpt lat="45.3844217" lon="10.69665"><ele>65.0</ele><time>2026-04-02T09:36:59.191Z</time></trkpt><trkpt lat="45.38444" lon="10.696495"><ele>64.5</ele><time>2026-04-02T09:37:00.186Z</time></trkpt><trkpt lat="45.3844717" lon="10.6963583"><ele>64.0</ele><time>2026-04-02T09:37:01.191Z</time></trkpt><trkpt lat="45.3844933" lon="10.696155"><ele>63.5</ele><time>2026-04-02T09:37:02.185Z</time></trkpt><trkpt lat="45.38452" lon="10.6959483"><ele>63.0</ele><time>2026-04-02T09:37:03.183Z</time></trkpt><trkpt lat="45.3845567" lon="10.69577"><ele>62.25</ele><time>2026-04-02T09:37:04.189Z</time></trkpt><trkpt lat="45.3845733" lon="10.6955567"><ele>61.5</ele><time>2026-04-02T09:37:05.184Z</time></trkpt><trkpt lat="45.38459" lon="10.6953767"><ele>60.75</ele><time>2026-04-02T09:37:06.187Z</time></trkpt><trkpt lat="45.38463" lon="10.695185"><ele>60.0</ele><time>2026-04-02T09:37:07.188Z</time></trkpt><trkpt lat="45.3846683" lon="10.694995"><ele>60.5</ele><time>2026-04-02T09:37:08.191Z</time></trkpt><trkpt lat="45.3847033" lon="10.6948017"><ele>61.0</ele><time>2026-04-02T09:37:09.19Z</time></trkpt><trkpt lat="45.3847333" lon="10.6946233"><ele>61.5</ele><time>2026-04-02T09:37:10.185Z</time></trkpt><trkpt lat="45.384755" lon="10.6944583"><ele>62.0</ele><time>2026-04-02T09:37:11.189Z</time></trkpt><trkpt lat="45.3847667" lon="10.69431"><ele>63.400000000000006</ele><time>2026-04-02T09:37:12.184Z</time></trkpt><trkpt lat="45.3847967" lon="10.69416"><ele>64.80000000000001</ele><time>2026-04-02T09:37:13.195Z</time></trkpt><trkpt lat="45.3848267" lon="10.6939833"><ele>66.2</ele><time>2026-04-02T09:37:14.185Z</time></trkpt><trkpt lat="45.3848433" lon="10.6938533"><ele>67.60000000000001</ele><time>2026-04-02T09:37:15.192Z</time></trkpt><trkpt lat="45.384845" lon="10.6937333"><ele>69.0</ele><time>2026-04-02T09:37:16.194Z</time></trkpt><trkpt lat="45.3848183" lon="10.6936317"><ele>69.4</ele><time>2026-04-02T09:37:17.187Z</time></trkpt><trkpt lat="45.384785" lon="10.69355"><ele>69.80000000000001</ele><time>2026-04-02T09:37:18.189Z</time></trkpt><trkpt lat="45.3846933" lon="10.6935017"><ele>70.19999999999999</ele><time>2026-04-02T09:37:19.19Z</time></trkpt><trkpt lat="45.3845667" lon="10.69354"><ele>70.6</ele><time>2026-04-02T09:37:20.187Z</time></trkpt><trkpt lat="45.3844267" lon="10.6935483"><ele>71.0</ele><time>2026-04-02T09:37:21.182Z</time></trkpt><trkpt lat="45.3842667" lon="10.6935733"><ele>70.75</ele><time>2026-04-02T09:37:22.193Z</time></trkpt><trkpt lat="45.3840883" lon="10.6936233"><ele>70.5</ele><time>2026-04-02T09:37:23.184Z</time></trkpt><trkpt lat="45.3839633" lon="10.69361"><ele>70.25</ele><time>2026-04-02T09:37:24.187Z</time></trkpt><trkpt lat="45.3838433" lon="10.6935967"><ele>70.0</ele><time>2026-04-02T09:37:25.187Z</time></trkpt><trkpt lat="45.3837533" lon="10.69354"><ele>70.0</ele><time>2026-04-02T09:37:26.186Z</time></trkpt><trkpt lat="45.3836917" lon="10.6933533"><ele>70.0</ele><time>2026-04-02T09:37:27.187Z</time></trkpt><trkpt lat="45.38358" lon="10.6931833"><ele>70.0</ele><time>2026-04-02T09:37:28.192Z</time></trkpt><trkpt lat="45.3834367" lon="10.692985"><ele>70.0</ele><time>2026-04-02T09:37:29.195Z</time></trkpt><trkpt lat="45.383285" lon="10.6927933"><ele>70.0</ele><time>2026-04-02T09:37:30.186Z</time></trkpt><trkpt lat="45.383145" lon="10.6926033"><ele>70.0</ele><time>2026-04-02T09:37:31.198Z</time></trkpt><trkpt lat="45.3830483" lon="10.6924467"><ele>70.0</ele><time>2026-04-02T09:37:32.19Z</time></trkpt><trkpt lat="45.3829483" lon="10.6922683"><ele>70.0</ele><time>2026-04-02T09:37:33.202Z</time></trkpt><trkpt lat="45.3828633" lon="10.692065"><ele>70.0</ele><time>2026-04-02T09:37:34.188Z</time></trkpt><trkpt lat="45.3828533" lon="10.691795"><ele>73.0</ele><time>2026-04-02T09:37:35.19Z</time></trkpt><trkpt lat="45.382815" lon="10.6915533"><ele>76.0</ele><time>2026-04-02T09:37:36.195Z</time></trkpt><trkpt lat="45.3828417" lon="10.691285"><ele>79.0</ele><time>2026-04-02T09:37:37.187Z</time></trkpt><trkpt lat="45.3828817" lon="10.69105"><ele>81.0</ele><time>2026-04-02T09:37:38.186Z</time></trkpt><trkpt lat="45.3829767" lon="10.69085"><ele>83.0</ele><time>2026-04-02T09:37:39.188Z</time></trkpt><trkpt lat="45.3830717" lon="10.690685"><ele>85.0</ele><time>2026-04-02T09:37:40.195Z</time></trkpt><trkpt lat="45.38318" lon="10.6905483"><ele>85.0</ele><time>2026-04-02T09:37:41.194Z</time></trkpt><trkpt lat="45.3833283" lon="10.69043"><ele>85.0</ele><time>2026-04-02T09:37:42.187Z</time></trkpt><trkpt lat="45.3834867" lon="10.6903433"><ele>85.0</ele><time>2026-04-02T09:37:43.189Z</time></trkpt><trkpt lat="45.38364" lon="10.69025"><ele>85.25</ele><time>2026-04-02T09:37:44.189Z</time></trkpt><trkpt lat="45.3837667" lon="10.6901633"><ele>85.5</ele><time>2026-04-02T09:37:45.186Z</time></trkpt><trkpt lat="45.3838717" lon="10.6900533"><ele>85.75</ele><time>2026-04-02T09:37:46.197Z</time></trkpt><trkpt lat="45.3839433" lon="10.6899283"><ele>86.0</ele><time>2026-04-02T09:37:47.19Z</time></trkpt><trkpt lat="45.3840333" lon="10.689745"><ele>86.4</ele><time>2026-04-02T09:37:48.186Z</time></trkpt><trkpt lat="45.38409" lon="10.6895933"><ele>86.8</ele><time>2026-04-02T09:37:49.184Z</time></trkpt><trkpt lat="45.3841283" lon="10.6894583"><ele>87.2</ele><time>2026-04-02T09:37:50.195Z</time></trkpt><trkpt lat="45.3841517" lon="10.6893117"><ele>87.60000000000001</ele><time>2026-04-02T09:37:51.187Z</time></trkpt><trkpt lat="45.3841883" lon="10.6891833"><ele>88.0</ele><time>2026-04-02T09:37:52.19Z</time></trkpt><trkpt lat="45.3842317" lon="10.68907"><ele>88.2</ele><time>2026-04-02T09:37:53.191Z</time></trkpt><trkpt lat="45.3842783" lon="10.6889783"><ele>88.4</ele><time>2026-04-02T09:37:54.196Z</time></trkpt><trkpt lat="45.3843117" lon="10.6888933"><ele>88.60000000000001</ele><time>2026-04-02T09:37:55.181Z</time></trkpt><trkpt lat="45.3843683" lon="10.6887467"><ele>88.80000000000001</ele><time>2026-04-02T09:37:57.19Z</time></trkpt><trkpt lat="45.3844233" lon="10.6885967"><ele>89.0</ele><time>2026-04-02T09:37:59.198Z</time></trkpt><trkpt lat="45.3844067" lon="10.68847"><ele>88.66666666666667</ele><time>2026-04-02T09:40:43.191Z</time></trkpt><trkpt lat="45.3844117" lon="10.6883317"><ele>88.33333333333334</ele><time>2026-04-02T09:40:45.198Z</time></trkpt><trkpt lat="45.384425" lon="10.6882333"><ele>88.0</ele><time>2026-04-02T09:40:46.189Z</time></trkpt><trkpt lat="45.3844467" lon="10.6881317"><ele>87.66666666666667</ele><time>2026-04-02T09:40:47.188Z</time></trkpt><trkpt lat="45.3844667" lon="10.6880333"><ele>87.33333333333333</ele><time>2026-04-02T09:40:48.183Z</time></trkpt><trkpt lat="45.384525" lon="10.687875"><ele>87.0</ele><time>2026-04-02T09:40:50.186Z</time></trkpt><trkpt lat="45.3845633" lon="10.6877983"><ele>86.66666666666667</ele><time>2026-04-02T09:40:51.191Z</time></trkpt><trkpt lat="45.3846083" lon="10.6877217"><ele>86.33333333333333</ele><time>2026-04-02T09:40:52.192Z</time></trkpt><trkpt lat="45.384665" lon="10.6876517"><ele>86.0</ele><time>2026-04-02T09:40:53.187Z</time></trkpt><trkpt lat="45.384735" lon="10.687585"><ele>85.66666666666666</ele><time>2026-04-02T09:40:54.186Z</time></trkpt><trkpt lat="45.3848167" lon="10.6875383"><ele>85.33333333333333</ele><time>2026-04-02T09:40:55.188Z</time></trkpt><trkpt lat="45.384915" lon="10.6875117"><ele>85.0</ele><time>2026-04-02T09:40:56.19Z</time></trkpt><trkpt lat="45.385055" lon="10.68754"><ele>84.75</ele><time>2026-04-02T09:40:57.185Z</time></trkpt><trkpt lat="45.3851917" lon="10.68753"><ele>84.5</ele><time>2026-04-02T09:40:58.189Z</time></trkpt><trkpt lat="45.3853233" lon="10.687505"><ele>84.25</ele><time>2026-04-02T09:40:59.197Z</time></trkpt><trkpt lat="45.3854533" lon="10.6874883"><ele>84.0</ele><time>2026-04-02T09:41:00.185Z</time></trkpt><trkpt lat="45.385565" lon="10.687485"><ele>84.0</ele><time>2026-04-02T09:41:01.187Z</time></trkpt><trkpt lat="45.3856583" lon="10.68748"><ele>84.0</ele><time>2026-04-02T09:41:02.187Z</time></trkpt><trkpt lat="45.3857567" lon="10.6874683"><ele>84.0</ele><time>2026-04-02T09:41:03.191Z</time></trkpt><trkpt lat="45.3858533" lon="10.687445"><ele>84.0</ele><time>2026-04-02T09:41:04.191Z</time></trkpt><trkpt lat="45.3859233" lon="10.6874417"><ele>84.0</ele><time>2026-04-02T09:41:05.188Z</time></trkpt><trkpt lat="45.3860017" lon="10.6874517"><ele>84.0</ele><time>2026-04-02T09:41:06.195Z</time></trkpt><trkpt lat="45.3860767" lon="10.6874467"><ele>84.0</ele><time>2026-04-02T09:41:07.183Z</time></trkpt><trkpt lat="45.386165" lon="10.6874367"><ele>84.0</ele><time>2026-04-02T09:41:08.194Z</time></trkpt><trkpt lat="45.38625" lon="10.6874417"><ele>84.0</ele><time>2026-04-02T09:41:09.188Z</time></trkpt><trkpt lat="45.386345" lon="10.6874433"><ele>84.0</ele><time>2026-04-02T09:41:10.184Z</time></trkpt><trkpt lat="45.3864383" lon="10.6874667"><ele>84.0</ele><time>2026-04-02T09:41:11.189Z</time></trkpt><trkpt lat="45.38653" lon="10.68746"><ele>84.5</ele><time>2026-04-02T09:41:12.19Z</time></trkpt><trkpt lat="45.3866183" lon="10.68746"><ele>85.0</ele><time>2026-04-02T09:41:13.195Z</time></trkpt><trkpt lat="45.3867017" lon="10.68748"><ele>85.5</ele><time>2026-04-02T09:41:14.186Z</time></trkpt><trkpt lat="45.3867717" lon="10.6875"><ele>86.0</ele><time>2026-04-02T09:41:15.195Z</time></trkpt><trkpt lat="45.3868633" lon="10.6875417"><ele>86.5</ele><time>2026-04-02T09:41:17.191Z</time></trkpt><trkpt lat="45.3869367" lon="10.6875367"><ele>87.0</ele><time>2026-04-02T09:42:24.194Z</time></trkpt><trkpt lat="45.3869867" lon="10.687425"><ele>87.0</ele><time>2026-04-02T09:42:26.19Z</time></trkpt><trkpt lat="45.38702" lon="10.68732"><ele>87.0</ele><time>2026-04-02T09:42:27.219Z</time></trkpt><trkpt lat="45.387055" lon="10.687195"><ele>87.0</ele><time>2026-04-02T09:42:28.192Z</time></trkpt><trkpt lat="45.3870967" lon="10.687065"><ele>87.0</ele><time>2026-04-02T09:42:29.191Z</time></trkpt><trkpt lat="45.387135" lon="10.6869"><ele>87.0</ele><time>2026-04-02T09:42:30.19Z</time></trkpt><trkpt lat="45.38718" lon="10.6867867"><ele>86.0</ele><time>2026-04-02T09:42:31.191Z</time></trkpt><trkpt lat="45.3872483" lon="10.6866417"><ele>85.0</ele><time>2026-04-02T09:42:32.204Z</time></trkpt><trkpt lat="45.3873083" lon="10.6864783"><ele>84.0</ele><time>2026-04-02T09:42:33.186Z</time></trkpt><trkpt lat="45.3873717" lon="10.6863367"><ele>83.0</ele><time>2026-04-02T09:42:34.188Z</time></trkpt><trkpt lat="45.387445" lon="10.6861817"><ele>83.4</ele><time>2026-04-02T09:42:35.193Z</time></trkpt><trkpt lat="45.3875117" lon="10.6860467"><ele>83.80000000000001</ele><time>2026-04-02T09:42:36.191Z</time></trkpt><trkpt lat="45.387565" lon="10.68594"><ele>84.2</ele><time>2026-04-02T09:42:37.186Z</time></trkpt><trkpt lat="45.387615" lon="10.6858567"><ele>84.6</ele><time>2026-04-02T09:42:38.192Z</time></trkpt><trkpt lat="45.3876483" lon="10.6857617"><ele>85.0</ele><time>2026-04-02T09:42:39.188Z</time></trkpt><trkpt lat="45.3876867" lon="10.685585"><ele>85.0</ele><time>2026-04-02T09:42:41.201Z</time></trkpt><trkpt lat="45.38769" lon="10.68547"><ele>85.0</ele><time>2026-04-02T09:42:42.204Z</time></trkpt><trkpt lat="45.3876933" lon="10.6853317"><ele>85.0</ele><time>2026-04-02T09:42:43.191Z</time></trkpt><trkpt lat="45.387695" lon="10.6851883"><ele>85.0</ele><time>2026-04-02T09:42:44.191Z</time></trkpt><trkpt lat="45.387705" lon="10.6850133"><ele>85.0</ele><time>2026-04-02T09:42:45.198Z</time></trkpt><trkpt lat="45.3877083" lon="10.6848333"><ele>86.0</ele><time>2026-04-02T09:42:46.185Z</time></trkpt><trkpt lat="45.3877367" lon="10.68462"><ele>87.0</ele><time>2026-04-02T09:42:47.192Z</time></trkpt><trkpt lat="45.38775" lon="10.6843983"><ele>88.0</ele><time>2026-04-02T09:42:48.195Z</time></trkpt><trkpt lat="45.3877667" lon="10.68415"><ele>88.0</ele><time>2026-04-02T09:42:49.184Z</time></trkpt><trkpt lat="45.387785" lon="10.6839083"><ele>88.0</ele><time>2026-04-02T09:42:50.183Z</time></trkpt><trkpt lat="45.38782" lon="10.683665"><ele>88.0</ele><time>2026-04-02T09:42:51.189Z</time></trkpt><trkpt lat="45.38785" lon="10.6834517"><ele>87.75</ele><time>2026-04-02T09:42:52.182Z</time></trkpt><trkpt lat="45.3878817" lon="10.6832583"><ele>87.5</ele><time>2026-04-02T09:42:53.19Z</time></trkpt><trkpt lat="45.3879033" lon="10.6830667"><ele>87.25</ele><time>2026-04-02T09:42:54.192Z</time></trkpt><trkpt lat="45.3879233" lon="10.68288"><ele>87.0</ele><time>2026-04-02T09:42:55.193Z</time></trkpt><trkpt lat="45.3879533" lon="10.6826833"><ele>87.0</ele><time>2026-04-02T09:42:56.184Z</time></trkpt><trkpt lat="45.388" lon="10.6824683"><ele>87.0</ele><time>2026-04-02T09:42:57.19Z</time></trkpt><trkpt lat="45.3880467" lon="10.6822283"><ele>87.0</ele><time>2026-04-02T09:42:58.187Z</time></trkpt><trkpt lat="45.3880817" lon="10.6819817"><ele>89.33333333333333</ele><time>2026-04-02T09:42:59.187Z</time></trkpt><trkpt lat="45.3881" lon="10.681745"><ele>91.66666666666666</ele><time>2026-04-02T09:43:00.189Z</time></trkpt><trkpt lat="45.3881217" lon="10.6815233"><ele>94.0</ele><time>2026-04-02T09:43:01.189Z</time></trkpt><trkpt lat="45.3881033" lon="10.681305"><ele>92.33333333333333</ele><time>2026-04-02T09:43:02.185Z</time></trkpt><trkpt lat="45.3881017" lon="10.68109"><ele>90.66666666666667</ele><time>2026-04-02T09:43:03.193Z</time></trkpt><trkpt lat="45.3880783" lon="10.6808783"><ele>89.0</ele><time>2026-04-02T09:43:04.216Z</time></trkpt><trkpt lat="45.3880533" lon="10.6806533"><ele>89.0</ele><time>2026-04-02T09:43:05.207Z</time></trkpt><trkpt lat="45.38803" lon="10.6804333"><ele>89.0</ele><time>2026-04-02T09:43:06.193Z</time></trkpt><trkpt lat="45.388" lon="10.6802517"><ele>89.0</ele><time>2026-04-02T09:43:07.197Z</time></trkpt><trkpt lat="45.3879883" lon="10.6800483"><ele>89.0</ele><time>2026-04-02T09:43:08.187Z</time></trkpt><trkpt lat="45.3879583" lon="10.67991"><ele>88.2</ele><time>2026-04-02T09:43:09.191Z</time></trkpt><trkpt lat="45.3879533" lon="10.679735"><ele>87.4</ele><time>2026-04-02T09:43:10.191Z</time></trkpt><trkpt lat="45.3879533" lon="10.679595"><ele>86.6</ele><time>2026-04-02T09:43:11.188Z</time></trkpt><trkpt lat="45.3879633" lon="10.6794933"><ele>85.8</ele><time>2026-04-02T09:43:12.192Z</time></trkpt><trkpt lat="45.3879583" lon="10.6793717"><ele>85.0</ele><time>2026-04-02T09:43:13.191Z</time></trkpt><trkpt lat="45.38797" lon="10.679215"><ele>85.0</ele><time>2026-04-02T09:43:14.2Z</time></trkpt><trkpt lat="45.3880033" lon="10.679105"><ele>85.0</ele><time>2026-04-02T09:43:15.186Z</time></trkpt><trkpt lat="45.3880567" lon="10.6789667"><ele>85.0</ele><time>2026-04-02T09:43:16.194Z</time></trkpt><trkpt lat="45.38813" lon="10.678825"><ele>85.0</ele><time>2026-04-02T09:43:17.193Z</time></trkpt><trkpt lat="45.38821" lon="10.67868"><ele>85.0</ele><time>2026-04-02T09:43:18.192Z</time></trkpt><trkpt lat="45.3883117" lon="10.67854"><ele>86.0</ele><time>2026-04-02T09:43:19.194Z</time></trkpt><trkpt lat="45.388425" lon="10.67841"><ele>87.0</ele><time>2026-04-02T09:43:20.19Z</time></trkpt><trkpt lat="45.3885333" lon="10.678295"><ele>88.0</ele><time>2026-04-02T09:43:21.187Z</time></trkpt><trkpt lat="45.388645" lon="10.67815"><ele>89.0</ele><time>2026-04-02T09:43:22.183Z</time></trkpt><trkpt lat="45.3887817" lon="10.6780217"><ele>89.33333333333334</ele><time>2026-04-02T09:43:23.192Z</time></trkpt><trkpt lat="45.3889117" lon="10.6778917"><ele>89.66666666666667</ele><time>2026-04-02T09:43:24.189Z</time></trkpt><trkpt lat="45.3890367" lon="10.6777667"><ele>90.0</ele><time>2026-04-02T09:43:25.194Z</time></trkpt><trkpt lat="45.3891683" lon="10.677635"><ele>90.0</ele><time>2026-04-02T09:43:26.185Z</time></trkpt><trkpt lat="45.3893" lon="10.677505"><ele>90.0</ele><time>2026-04-02T09:43:27.219Z</time></trkpt><trkpt lat="45.38943" lon="10.67737"><ele>90.0</ele><time>2026-04-02T09:43:28.249Z</time></trkpt><trkpt lat="45.3895683" lon="10.6772267"><ele>91.0</ele><time>2026-04-02T09:43:29.193Z</time></trkpt><trkpt lat="45.3897183" lon="10.6770967"><ele>92.0</ele><time>2026-04-02T09:43:30.189Z</time></trkpt><trkpt lat="45.38986" lon="10.6769633"><ele>93.0</ele><time>2026-04-02T09:43:31.194Z</time></trkpt><trkpt lat="45.3900083" lon="10.676815"><ele>91.0</ele><time>2026-04-02T09:43:32.191Z</time></trkpt><trkpt lat="45.390185" lon="10.6767167"><ele>89.0</ele><time>2026-04-02T09:43:33.197Z</time></trkpt><trkpt lat="45.3903617" lon="10.676585"><ele>87.0</ele><time>2026-04-02T09:43:34.186Z</time></trkpt><trkpt lat="45.3905033" lon="10.6765"><ele>89.33333333333333</ele><time>2026-04-02T09:43:35.198Z</time></trkpt><trkpt lat="45.3906483" lon="10.6764133"><ele>91.66666666666666</ele><time>2026-04-02T09:43:36.198Z</time></trkpt><trkpt lat="45.3907733" lon="10.6763017"><ele>94.0</ele><time>2026-04-02T09:43:37.192Z</time></trkpt><trkpt lat="45.390895" lon="10.6761483"><ele>92.66666666666666</ele><time>2026-04-02T09:43:38.19Z</time></trkpt><trkpt lat="45.3910117" lon="10.67597"><ele>91.33333333333333</ele><time>2026-04-02T09:43:39.193Z</time></trkpt><trkpt lat="45.3911217" lon="10.675755"><ele>90.0</ele><time>2026-04-02T09:43:40.203Z</time></trkpt><trkpt lat="45.39123" lon="10.6755267"><ele>92.66666666666666</ele><time>2026-04-02T09:43:41.192Z</time></trkpt><trkpt lat="45.3913633" lon="10.6753083"><ele>95.33333333333333</ele><time>2026-04-02T09:43:42.192Z</time></trkpt><trkpt lat="45.3914783" lon="10.6750967"><ele>98.0</ele><time>2026-04-02T09:43:43.191Z</time></trkpt><trkpt lat="45.3915983" lon="10.67489"><ele>98.0</ele><time>2026-04-02T09:43:44.193Z</time></trkpt><trkpt lat="45.3916733" lon="10.67466"><ele>98.0</ele><time>2026-04-02T09:43:45.192Z</time></trkpt><trkpt lat="45.3917383" lon="10.6744267"><ele>98.0</ele><time>2026-04-02T09:43:46.196Z</time></trkpt><trkpt lat="45.3917933" lon="10.6741633"><ele>98.0</ele><time>2026-04-02T09:43:47.194Z</time></trkpt><trkpt lat="45.3918467" lon="10.6739433"><ele>98.0</ele><time>2026-04-02T09:43:48.195Z</time></trkpt><trkpt lat="45.3919233" lon="10.6737617"><ele>98.0</ele><time>2026-04-02T09:43:49.19Z</time></trkpt><trkpt lat="45.3919683" lon="10.67354"><ele>97.66666666666666</ele><time>2026-04-02T09:43:50.187Z</time></trkpt><trkpt lat="45.3919867" lon="10.6733217"><ele>97.33333333333334</ele><time>2026-04-02T09:43:51.255Z</time></trkpt><trkpt lat="45.3919683" lon="10.6730933"><ele>97.0</ele><time>2026-04-02T09:43:52.201Z</time></trkpt><trkpt lat="45.3919483" lon="10.6728767"><ele>98.0</ele><time>2026-04-02T09:43:53.196Z</time></trkpt><trkpt lat="45.3919" lon="10.6726233"><ele>99.0</ele><time>2026-04-02T09:43:54.186Z</time></trkpt><trkpt lat="45.3918383" lon="10.672415"><ele>100.0</ele><time>2026-04-02T09:43:55.198Z</time></trkpt><trkpt lat="45.3917733" lon="10.6722367"><ele>100.0</ele><time>2026-04-02T09:43:56.187Z</time></trkpt><trkpt lat="45.3917583" lon="10.672035"><ele>100.0</ele><time>2026-04-02T09:43:57.2Z</time></trkpt><trkpt lat="45.3917183" lon="10.6718333"><ele>100.0</ele><time>2026-04-02T09:43:58.197Z</time></trkpt><trkpt lat="45.391715" lon="10.6716167"><ele>100.0</ele><time>2026-04-02T09:43:59.197Z</time></trkpt><trkpt lat="45.39174" lon="10.6713667"><ele>101.0</ele><time>2026-04-02T09:44:00.198Z</time></trkpt><trkpt lat="45.3917883" lon="10.6711967"><ele>102.0</ele><time>2026-04-02T09:44:01.194Z</time></trkpt><trkpt lat="45.3918733" lon="10.67101"><ele>103.0</ele><time>2026-04-02T09:44:02.185Z</time></trkpt><trkpt lat="45.3919533" lon="10.6708017"><ele>103.0</ele><time>2026-04-02T09:44:03.192Z</time></trkpt><trkpt lat="45.392" lon="10.67058"><ele>103.0</ele><time>2026-04-02T09:44:04.195Z</time></trkpt><trkpt lat="45.3920333" lon="10.67041"><ele>103.0</ele><time>2026-04-02T09:44:05.197Z</time></trkpt><trkpt lat="45.392" lon="10.6702133"><ele>103.0</ele><time>2026-04-02T09:44:06.185Z</time></trkpt><trkpt lat="45.3919767" lon="10.6700017"><ele>102.66666666666667</ele><time>2026-04-02T09:44:07.198Z</time></trkpt><trkpt lat="45.39192" lon="10.6698017"><ele>102.33333333333334</ele><time>2026-04-02T09:44:08.192Z</time></trkpt><trkpt lat="45.3918517" lon="10.6696033"><ele>102.0</ele><time>2026-04-02T09:44:09.199Z</time></trkpt><trkpt lat="45.3917717" lon="10.6694117"><ele>101.5</ele><time>2026-04-02T09:44:10.195Z</time></trkpt><trkpt lat="45.3916933" lon="10.6692367"><ele>101.0</ele><time>2026-04-02T09:44:11.202Z</time></trkpt><trkpt lat="45.39162" lon="10.6690617"><ele>100.5</ele><time>2026-04-02T09:44:12.191Z</time></trkpt><trkpt lat="45.39154" lon="10.6688867"><ele>100.0</ele><time>2026-04-02T09:44:13.189Z</time></trkpt><trkpt lat="45.3914167" lon="10.6686967"><ele>97.66666666666667</ele><time>2026-04-02T09:44:14.194Z</time></trkpt><trkpt lat="45.3913383" lon="10.66851"><ele>95.33333333333334</ele><time>2026-04-02T09:44:15.19Z</time></trkpt><trkpt lat="45.3912467" lon="10.668325"><ele>93.0</ele><time>2026-04-02T09:44:16.19Z</time></trkpt><trkpt lat="45.391155" lon="10.668135"><ele>93.0</ele><time>2026-04-02T09:44:17.194Z</time></trkpt><trkpt lat="45.3910683" lon="10.6679383"><ele>93.0</ele><time>2026-04-02T09:44:18.193Z</time></trkpt><trkpt lat="45.390975" lon="10.667735"><ele>93.0</ele><time>2026-04-02T09:44:19.186Z</time></trkpt><trkpt lat="45.3908933" lon="10.66754"><ele>93.5</ele><time>2026-04-02T09:44:20.193Z</time></trkpt><trkpt lat="45.3908383" lon="10.6673433"><ele>94.0</ele><time>2026-04-02T09:44:21.189Z</time></trkpt><trkpt lat="45.3907683" lon="10.6671533"><ele>94.5</ele><time>2026-04-02T09:44:22.189Z</time></trkpt><trkpt lat="45.3907217" lon="10.6669917"><ele>95.0</ele><time>2026-04-02T09:44:23.189Z</time></trkpt><trkpt lat="45.3906533" lon="10.6668583"><ele>95.0</ele><time>2026-04-02T09:44:24.195Z</time></trkpt><trkpt lat="45.390625" lon="10.66673"><ele>95.0</ele><time>2026-04-02T09:44:25.199Z</time></trkpt><trkpt lat="45.3906017" lon="10.666565"><ele>95.0</ele><time>2026-04-02T09:44:27.194Z</time></trkpt><trkpt lat="45.3905633" lon="10.6664133"><ele>95.0</ele><time>2026-04-02T09:44:29.197Z</time></trkpt><trkpt lat="45.3905317" lon="10.66626"><ele>95.0</ele><time>2026-04-02T09:44:31.201Z</time></trkpt><trkpt lat="45.39051" lon="10.6661667"><ele>94.16666666666667</ele><time>2026-04-02T09:44:32.188Z</time></trkpt><trkpt lat="45.3904883" lon="10.666055"><ele>93.33333333333334</ele><time>2026-04-02T09:44:33.199Z</time></trkpt><trkpt lat="45.3904667" lon="10.6659283"><ele>92.5</ele><time>2026-04-02T09:44:34.186Z</time></trkpt><trkpt lat="45.390445" lon="10.6658017"><ele>91.66666666666667</ele><time>2026-04-02T09:44:35.193Z</time></trkpt><trkpt lat="45.39043" lon="10.665685"><ele>90.83333333333333</ele><time>2026-04-02T09:44:36.202Z</time></trkpt><trkpt lat="45.3904167" lon="10.6655733"><ele>90.0</ele><time>2026-04-02T09:44:38.194Z</time></trkpt><trkpt lat="45.390425" lon="10.6654717"><ele>90.0</ele><time>2026-04-02T09:44:41.189Z</time></trkpt><trkpt lat="45.3903617" lon="10.66543"><ele>90.0</ele><time>2026-04-02T09:44:46.193Z</time></trkpt><trkpt lat="45.39035" lon="10.665525"><ele>90.0</ele><time>2026-04-02T09:44:49.192Z</time></trkpt><trkpt lat="45.3903883" lon="10.6656833"><ele>90.0</ele><time>2026-04-02T09:44:51.194Z</time></trkpt><trkpt lat="45.3904133" lon="10.665785"><ele>90.0</ele><time>2026-04-02T09:44:52.192Z</time></trkpt><trkpt lat="45.3904417" lon="10.6658967"><ele>90.0</ele><time>2026-04-02T09:44:53.192Z</time></trkpt><trkpt lat="45.3904667" lon="10.666025"><ele>90.2</ele><time>2026-04-02T09:44:54.186Z</time></trkpt><trkpt lat="45.39049" lon="10.6661783"><ele>90.4</ele><time>2026-04-02T09:44:55.192Z</time></trkpt><trkpt lat="45.3905067" lon="10.66634"><ele>90.6</ele><time>2026-04-02T09:44:56.199Z</time></trkpt><trkpt lat="45.3905433" lon="10.6664783"><ele>90.8</ele><time>2026-04-02T09:44:57.189Z</time></trkpt><trkpt lat="45.390565" lon="10.6665933"><ele>91.0</ele><time>2026-04-02T09:44:58.188Z</time></trkpt><trkpt lat="45.39058" lon="10.6667033"><ele>91.0</ele><time>2026-04-02T09:44:59.19Z</time></trkpt><trkpt lat="45.3905767" lon="10.66682"><ele>91.0</ele><time>2026-04-02T09:45:01.193Z</time></trkpt><trkpt lat="45.3904667" lon="10.6668617"><ele>91.0</ele><time>2026-04-02T09:45:04.185Z</time></trkpt><trkpt lat="45.3903867" lon="10.6668617"><ele>91.0</ele><time>2026-04-02T09:45:05.192Z</time></trkpt><trkpt lat="45.3903017" lon="10.6668633"><ele>91.0</ele><time>2026-04-02T09:45:06.095Z</time></trkpt><trkpt lat="45.3902033" lon="10.6668833"><ele>91.0</ele><time>2026-04-02T09:45:07.063Z</time></trkpt><trkpt lat="45.3900983" lon="10.6669067"><ele>91.0</ele><time>2026-04-02T09:45:08.059Z</time></trkpt><trkpt lat="45.3899883" lon="10.666995"><ele>91.0</ele><time>2026-04-02T09:45:09.06Z</time></trkpt><trkpt lat="45.3899017" lon="10.6670767"><ele>91.0</ele><time>2026-04-02T09:45:10.059Z</time></trkpt><trkpt lat="45.3898183" lon="10.667115"><ele>91.0</ele><time>2026-04-02T09:45:11.063Z</time></trkpt><trkpt lat="45.38972" lon="10.6671817"><ele>90.19999999999999</ele><time>2026-04-02T09:45:12.06Z</time></trkpt><trkpt lat="45.38963" lon="10.6672417"><ele>89.39999999999999</ele><time>2026-04-02T09:45:13.438Z</time></trkpt><trkpt lat="45.3895883" lon="10.66731"><ele>88.6</ele><time>2026-04-02T09:45:14.441Z</time></trkpt><trkpt lat="45.3895317" lon="10.66741"><ele>87.8</ele><time>2026-04-02T09:45:15.437Z</time></trkpt><trkpt lat="45.3894867" lon="10.66753"><ele>87.0</ele><time>2026-04-02T09:45:16.426Z</time></trkpt><trkpt lat="45.3894683" lon="10.667675"><ele>86.6</ele><time>2026-04-02T09:45:17.429Z</time></trkpt><trkpt lat="45.3894733" lon="10.6678317"><ele>86.19999999999999</ele><time>2026-04-02T09:45:18.433Z</time></trkpt><trkpt lat="45.3894" lon="10.6679533"><ele>85.8</ele><time>2026-04-02T09:45:19.432Z</time></trkpt><trkpt lat="45.3893467" lon="10.66804"><ele>85.4</ele><time>2026-04-02T09:45:20.431Z</time></trkpt><trkpt lat="45.389265" lon="10.6681183"><ele>85.0</ele><time>2026-04-02T09:45:21.435Z</time></trkpt><trkpt lat="45.389185" lon="10.668175"><ele>85.0</ele><time>2026-04-02T09:45:22.44Z</time></trkpt><trkpt lat="45.3891217" lon="10.6681883"><ele>85.0</ele><time>2026-04-02T09:45:23.429Z</time></trkpt><trkpt lat="45.3890467" lon="10.66819"><ele>85.0</ele><time>2026-04-02T09:45:24.436Z</time></trkpt><trkpt lat="45.38898" lon="10.6681333"><ele>85.0</ele><time>2026-04-02T09:45:25.43Z</time></trkpt><trkpt lat="45.3889167" lon="10.6680633"><ele>85.0</ele><time>2026-04-02T09:45:26.431Z</time></trkpt><trkpt lat="45.3888417" lon="10.6679983"><ele>85.0</ele><time>2026-04-02T09:45:27.436Z</time></trkpt><trkpt lat="45.3887667" lon="10.6679483"><ele>86.0</ele><time>2026-04-02T09:45:28.44Z</time></trkpt><trkpt lat="45.388685" lon="10.66791"><ele>87.0</ele><time>2026-04-02T09:45:29.437Z</time></trkpt><trkpt lat="45.3886" lon="10.6678933"><ele>88.0</ele><time>2026-04-02T09:45:30.43Z</time></trkpt><trkpt lat="45.3885133" lon="10.6679"><ele>89.0</ele><time>2026-04-02T09:45:31.437Z</time></trkpt><trkpt lat="45.3884433" lon="10.6679167"><ele>90.0</ele><time>2026-04-02T09:45:32.431Z</time></trkpt><trkpt lat="45.3883667" lon="10.6679583"><ele>91.0</ele><time>2026-04-02T09:45:33.439Z</time></trkpt><trkpt lat="45.3883033" lon="10.6679733"><ele>91.0</ele><time>2026-04-02T09:45:34.436Z</time></trkpt><trkpt lat="45.3882317" lon="10.66796"><ele>91.0</ele><time>2026-04-02T09:45:35.439Z</time></trkpt><trkpt lat="45.3881467" lon="10.6679133"><ele>91.0</ele><time>2026-04-02T09:45:36.433Z</time></trkpt><trkpt lat="45.388065" lon="10.6678833"><ele>91.0</ele><time>2026-04-02T09:45:37.434Z</time></trkpt><trkpt lat="45.3879733" lon="10.667855"><ele>91.0</ele><time>2026-04-02T09:45:38.429Z</time></trkpt><trkpt lat="45.3878767" lon="10.6678217"><ele>91.0</ele><time>2026-04-02T09:45:39.434Z</time></trkpt><trkpt lat="45.38778" lon="10.6677967"><ele>90.5</ele><time>2026-04-02T09:45:40.439Z</time></trkpt><trkpt lat="45.3876767" lon="10.6677567"><ele>90.0</ele><time>2026-04-02T09:45:41.446Z</time></trkpt><trkpt lat="45.3875733" lon="10.6677267"><ele>89.5</ele><time>2026-04-02T09:45:42.435Z</time></trkpt><trkpt lat="45.387485" lon="10.6676833"><ele>89.0</ele><time>2026-04-02T09:45:43.437Z</time></trkpt><trkpt lat="45.38742" lon="10.6676483"><ele>88.5</ele><time>2026-04-02T09:45:44.436Z</time></trkpt><trkpt lat="45.3873567" lon="10.66761"><ele>88.0</ele><time>2026-04-02T09:45:45.429Z</time></trkpt><trkpt lat="45.3873" lon="10.6675067"><ele>88.0</ele><time>2026-04-02T09:45:47.433Z</time></trkpt><trkpt lat="45.3873117" lon="10.6673483"><ele>88.0</ele><time>2026-04-02T09:45:49.439Z</time></trkpt><trkpt lat="45.38734" lon="10.6672617"><ele>88.0</ele><time>2026-04-02T09:45:50.435Z</time></trkpt><trkpt lat="45.3873733" lon="10.667165"><ele>88.0</ele><time>2026-04-02T09:45:51.433Z</time></trkpt><trkpt lat="45.3874" lon="10.6670617"><ele>88.0</ele><time>2026-04-02T09:45:52.433Z</time></trkpt><trkpt lat="45.3874233" lon="10.6669533"><ele>88.0</ele><time>2026-04-02T09:45:53.433Z</time></trkpt><trkpt lat="45.3874383" lon="10.666845"><ele>88.5</ele><time>2026-04-02T09:45:54.436Z</time></trkpt><trkpt lat="45.387445" lon="10.666735"><ele>89.0</ele><time>2026-04-02T09:45:55.431Z</time></trkpt><trkpt lat="45.3874533" lon="10.6666233"><ele>89.5</ele><time>2026-04-02T09:45:56.436Z</time></trkpt><trkpt lat="45.387455" lon="10.6665067"><ele>90.0</ele><time>2026-04-02T09:45:57.435Z</time></trkpt><trkpt lat="45.3874633" lon="10.6663783"><ele>90.5</ele><time>2026-04-02T09:45:58.426Z</time></trkpt><trkpt lat="45.387475" lon="10.666265"><ele>91.0</ele><time>2026-04-02T09:45:59.436Z</time></trkpt><trkpt lat="45.3874833" lon="10.666165"><ele>92.16666666666666</ele><time>2026-04-02T09:46:00.447Z</time></trkpt><trkpt lat="45.3874933" lon="10.6660733"><ele>93.33333333333333</ele><time>2026-04-02T09:46:01.431Z</time></trkpt><trkpt lat="45.3874917" lon="10.665915"><ele>94.5</ele><time>2026-04-02T09:46:03.43Z</time></trkpt><trkpt lat="45.3874467" lon="10.665765"><ele>95.66666666666666</ele><time>2026-04-02T09:46:05.432Z</time></trkpt><trkpt lat="45.3874083" lon="10.66569"><ele>96.83333333333333</ele><time>2026-04-02T09:46:06.434Z</time></trkpt><trkpt lat="45.387355" lon="10.6656167"><ele>98.0</ele><time>2026-04-02T09:46:07.442Z</time></trkpt><trkpt lat="45.3873083" lon="10.6655283"><ele>97.99999999999999</ele><time>2026-04-02T09:46:08.436Z</time></trkpt><trkpt lat="45.3872617" lon="10.6654383"><ele>98.0</ele><time>2026-04-02T09:46:09.437Z</time></trkpt><trkpt lat="45.387225" lon="10.6653517"><ele>98.0</ele><time>2026-04-02T09:46:10.434Z</time></trkpt><trkpt lat="45.38719" lon="10.66527"><ele>98.0</ele><time>2026-04-02T09:46:11.433Z</time></trkpt><trkpt lat="45.38714" lon="10.665145"><ele>97.99999999999999</ele><time>2026-04-02T09:46:13.436Z</time></trkpt><trkpt lat="45.38713" lon="10.6650483"><ele>98.0</ele><time>2026-04-02T09:46:16.43Z</time></trkpt><trkpt lat="45.3871967" lon="10.66502"><ele>98.2</ele><time>2026-04-02T09:46:41.443Z</time></trkpt><trkpt lat="45.3872617" lon="10.6650217"><ele>98.4</ele><time>2026-04-02T09:46:43.447Z</time></trkpt><trkpt lat="45.387365" lon="10.6650183"><ele>98.60000000000001</ele><time>2026-04-02T09:46:45.447Z</time></trkpt><trkpt lat="45.3874817" lon="10.6650033"><ele>98.80000000000001</ele><time>2026-04-02T09:46:47.432Z</time></trkpt><trkpt lat="45.3875883" lon="10.6649983"><ele>99.0</ele><time>2026-04-02T09:46:49.435Z</time></trkpt><trkpt lat="45.387695" lon="10.6649917"><ele>99.0</ele><time>2026-04-02T09:46:51.426Z</time></trkpt><trkpt lat="45.3877833" lon="10.6650017"><ele>99.0</ele><time>2026-04-02T09:46:53.43Z</time></trkpt><trkpt lat="45.3878667" lon="10.6649933"><ele>99.0</ele><time>2026-04-02T09:46:56.444Z</time></trkpt><trkpt lat="45.3878983" lon="10.6648783"><ele>99.0</ele><time>2026-04-02T09:46:59.432Z</time></trkpt><trkpt lat="45.38781" lon="10.6649083"><ele>99.0</ele><time>2026-04-02T09:47:06.432Z</time></trkpt><trkpt lat="45.3877283" lon="10.6649267"><ele>99.0</ele><time>2026-04-02T09:47:08.438Z</time></trkpt><trkpt lat="45.38761" lon="10.6649267"><ele>99.0</ele><time>2026-04-02T09:47:10.428Z</time></trkpt><trkpt lat="45.3875433" lon="10.6649317"><ele>99.0</ele><time>2026-04-02T09:47:11.427Z</time></trkpt><trkpt lat="45.3874767" lon="10.6649433"><ele>99.0</ele><time>2026-04-02T09:47:12.439Z</time></trkpt><trkpt lat="45.3874067" lon="10.6649633"><ele>99.0</ele><time>2026-04-02T09:47:13.435Z</time></trkpt><trkpt lat="45.38734" lon="10.6649817"><ele>99.0</ele><time>2026-04-02T09:47:14.43Z</time></trkpt><trkpt lat="45.3872767" lon="10.6649983"><ele>99.0</ele><time>2026-04-02T09:47:15.438Z</time></trkpt><trkpt lat="45.3871683" lon="10.6650117"><ele>99.0</ele><time>2026-04-02T09:47:17.435Z</time></trkpt><trkpt lat="45.3871033" lon="10.6650417"><ele>98.80000000000001</ele><time>2026-04-02T09:47:19.432Z</time></trkpt><trkpt lat="45.3870933" lon="10.665175"><ele>98.60000000000001</ele><time>2026-04-02T09:47:22.432Z</time></trkpt><trkpt lat="45.3871433" lon="10.6652833"><ele>98.4</ele><time>2026-04-02T09:47:24.43Z</time></trkpt><trkpt lat="45.38721" lon="10.6654117"><ele>98.2</ele><time>2026-04-02T09:47:26.426Z</time></trkpt><trkpt lat="45.3872767" lon="10.6655583"><ele>98.0</ele><time>2026-04-02T09:47:28.427Z</time></trkpt><trkpt lat="45.3873083" lon="10.66564"><ele>98.0</ele><time>2026-04-02T09:47:29.434Z</time></trkpt><trkpt lat="45.3873667" lon="10.6657883"><ele>98.0</ele><time>2026-04-02T09:47:31.433Z</time></trkpt><trkpt lat="45.387405" lon="10.6659667"><ele>98.0</ele><time>2026-04-02T09:47:33.437Z</time></trkpt><trkpt lat="45.3874233" lon="10.6660533"><ele>98.0</ele><time>2026-04-02T09:47:34.427Z</time></trkpt><trkpt lat="45.3874217" lon="10.6661617"><ele>98.0</ele><time>2026-04-02T09:47:35.437Z</time></trkpt><trkpt lat="45.387415" lon="10.6662867"><ele>97.0</ele><time>2026-04-02T09:47:36.436Z</time></trkpt><trkpt lat="45.3874083" lon="10.6664117"><ele>96.0</ele><time>2026-04-02T09:47:37.426Z</time></trkpt><trkpt lat="45.387405" lon="10.666525"><ele>95.0</ele><time>2026-04-02T09:47:38.431Z</time></trkpt><trkpt lat="45.3874017" lon="10.6666267"><ele>94.0</ele><time>2026-04-02T09:47:39.436Z</time></trkpt><trkpt lat="45.3874033" lon="10.666725"><ele>93.0</ele><time>2026-04-02T09:47:40.428Z</time></trkpt><trkpt lat="45.3873983" lon="10.6668233"><ele>92.0</ele><time>2026-04-02T09:47:41.438Z</time></trkpt><trkpt lat="45.3873883" lon="10.6669167"><ele>91.0</ele><time>2026-04-02T09:47:42.437Z</time></trkpt><trkpt lat="45.3873533" lon="10.667075"><ele>90.4</ele><time>2026-04-02T09:47:44.428Z</time></trkpt><trkpt lat="45.387315" lon="10.6672083"><ele>89.8</ele><time>2026-04-02T09:47:46.428Z</time></trkpt><trkpt lat="45.3872767" lon="10.667315"><ele>89.2</ele><time>2026-04-02T09:47:48.428Z</time></trkpt><trkpt lat="45.38727" lon="10.6674433"><ele>88.60000000000001</ele><time>2026-04-02T09:47:50.432Z</time></trkpt><trkpt lat="45.38731" lon="10.66757"><ele>88.0</ele><time>2026-04-02T09:47:52.432Z</time></trkpt><trkpt lat="45.3874" lon="10.6676533"><ele>88.0</ele><time>2026-04-02T09:47:54.435Z</time></trkpt><trkpt lat="45.387525" lon="10.6677067"><ele>88.0</ele><time>2026-04-02T09:47:56.427Z</time></trkpt><trkpt lat="45.3876" lon="10.66773"><ele>88.0</ele><time>2026-04-02T09:47:57.431Z</time></trkpt><trkpt lat="45.3876783" lon="10.66775"><ele>88.0</ele><time>2026-04-02T09:47:58.434Z</time></trkpt><trkpt lat="45.38776" lon="10.6677733"><ele>88.0</ele><time>2026-04-02T09:47:59.432Z</time></trkpt><trkpt lat="45.3878433" lon="10.6678"><ele>88.0</ele><time>2026-04-02T09:48:00.435Z</time></trkpt><trkpt lat="45.38793" lon="10.6678267"><ele>88.0</ele><time>2026-04-02T09:48:01.438Z</time></trkpt><trkpt lat="45.3880317" lon="10.6679"><ele>88.0</ele><time>2026-04-02T09:48:02.436Z</time></trkpt><trkpt lat="45.38811" lon="10.6679317"><ele>88.0</ele><time>2026-04-02T09:48:03.429Z</time></trkpt><trkpt lat="45.3881917" lon="10.667965"><ele>88.0</ele><time>2026-04-02T09:48:04.433Z</time></trkpt><trkpt lat="45.3882717" lon="10.667995"><ele>88.5</ele><time>2026-04-02T09:48:05.43Z</time></trkpt><trkpt lat="45.388355" lon="10.6679967"><ele>89.0</ele><time>2026-04-02T09:48:06.431Z</time></trkpt><trkpt lat="45.3884283" lon="10.6679983"><ele>89.5</ele><time>2026-04-02T09:48:07.439Z</time></trkpt><trkpt lat="45.3885033" lon="10.6680067"><ele>90.0</ele><time>2026-04-02T09:48:08.43Z</time></trkpt><trkpt lat="45.38857" lon="10.668005"><ele>90.5</ele><time>2026-04-02T09:48:09.426Z</time></trkpt><trkpt lat="45.388645" lon="10.6680183"><ele>91.0</ele><time>2026-04-02T09:48:10.433Z</time></trkpt><trkpt lat="45.3887283" lon="10.66804"><ele>91.0</ele><time>2026-04-02T09:48:11.434Z</time></trkpt><trkpt lat="45.3888333" lon="10.66806"><ele>91.0</ele><time>2026-04-02T09:48:12.431Z</time></trkpt><trkpt lat="45.3889133" lon="10.6681017"><ele>91.0</ele><time>2026-04-02T09:48:13.431Z</time></trkpt><trkpt lat="45.38898" lon="10.66814"><ele>91.0</ele><time>2026-04-02T09:48:14.433Z</time></trkpt><trkpt lat="45.38907" lon="10.6681667"><ele>91.0</ele><time>2026-04-02T09:48:15.438Z</time></trkpt><trkpt lat="45.3891383" lon="10.6681867"><ele>91.0</ele><time>2026-04-02T09:48:16.433Z</time></trkpt><trkpt lat="45.3892083" lon="10.66818"><ele>90.33333333333333</ele><time>2026-04-02T09:48:17.434Z</time></trkpt><trkpt lat="45.38928" lon="10.6681483"><ele>89.66666666666666</ele><time>2026-04-02T09:48:18.433Z</time></trkpt><trkpt lat="45.3893483" lon="10.668095"><ele>89.0</ele><time>2026-04-02T09:48:19.433Z</time></trkpt><trkpt lat="45.3894067" lon="10.6680083"><ele>88.33333333333333</ele><time>2026-04-02T09:48:20.432Z</time></trkpt><trkpt lat="45.3894617" lon="10.6679133"><ele>87.66666666666667</ele><time>2026-04-02T09:48:21.437Z</time></trkpt><trkpt lat="45.3895" lon="10.6678033"><ele>87.0</ele><time>2026-04-02T09:48:22.427Z</time></trkpt><trkpt lat="45.3895333" lon="10.66768"><ele>87.0</ele><time>2026-04-02T09:48:23.437Z</time></trkpt><trkpt lat="45.3895567" lon="10.6675517"><ele>87.0</ele><time>2026-04-02T09:48:24.435Z</time></trkpt><trkpt lat="45.3895617" lon="10.6674017"><ele>87.0</ele><time>2026-04-02T09:48:25.427Z</time></trkpt><trkpt lat="45.3895817" lon="10.6673133"><ele>87.0</ele><time>2026-04-02T09:48:26.432Z</time></trkpt><trkpt lat="45.3896333" lon="10.667235"><ele>87.0</ele><time>2026-04-02T09:48:27.435Z</time></trkpt><trkpt lat="45.3897133" lon="10.66718"><ele>87.0</ele><time>2026-04-02T09:48:28.427Z</time></trkpt><trkpt lat="45.389795" lon="10.6671333"><ele>87.0</ele><time>2026-04-02T09:48:29.435Z</time></trkpt><trkpt lat="45.3898783" lon="10.667085"><ele>87.0</ele><time>2026-04-02T09:48:30.434Z</time></trkpt><trkpt lat="45.3899583" lon="10.6670217"><ele>87.0</ele><time>2026-04-02T09:48:31.434Z</time></trkpt><trkpt lat="45.39004" lon="10.6669583"><ele>87.0</ele><time>2026-04-02T09:48:32.431Z</time></trkpt><trkpt lat="45.39012" lon="10.6668967"><ele>87.0</ele><time>2026-04-02T09:48:33.437Z</time></trkpt><trkpt lat="45.3902067" lon="10.66685"><ele>87.66666666666667</ele><time>2026-04-02T09:48:34.435Z</time></trkpt><trkpt lat="45.390295" lon="10.6668183"><ele>88.33333333333333</ele><time>2026-04-02T09:48:35.43Z</time></trkpt><trkpt lat="45.3903917" lon="10.6667867"><ele>89.0</ele><time>2026-04-02T09:48:36.435Z</time></trkpt><trkpt lat="45.3904767" lon="10.6668133"><ele>89.66666666666666</ele><time>2026-04-02T09:48:37.435Z</time></trkpt><trkpt lat="45.3905433" lon="10.6668383"><ele>90.33333333333333</ele><time>2026-04-02T09:48:38.432Z</time></trkpt><trkpt lat="45.3905817" lon="10.666765"><ele>91.0</ele><time>2026-04-02T09:48:41.428Z</time></trkpt><trkpt lat="45.3906017" lon="10.6666017"><ele>90.75</ele><time>2026-04-02T09:48:43.437Z</time></trkpt><trkpt lat="45.3905717" lon="10.6664017"><ele>90.5</ele><time>2026-04-02T09:48:45.434Z</time></trkpt><trkpt lat="45.39055" lon="10.6662683"><ele>90.25</ele><time>2026-04-02T09:48:46.443Z</time></trkpt><trkpt lat="45.3905217" lon="10.6660933"><ele>90.0</ele><time>2026-04-02T09:48:47.435Z</time></trkpt><trkpt lat="45.3904783" lon="10.6659183"><ele>90.0</ele><time>2026-04-02T09:48:48.43Z</time></trkpt><trkpt lat="45.3904567" lon="10.6657433"><ele>90.0</ele><time>2026-04-02T09:48:49.437Z</time></trkpt><trkpt lat="45.3904167" lon="10.6655483"><ele>90.0</ele><time>2026-04-02T09:48:50.426Z</time></trkpt><trkpt lat="45.39037" lon="10.66531"><ele>90.0</ele><time>2026-04-02T09:48:51.433Z</time></trkpt><trkpt lat="45.3903" lon="10.665035"><ele>90.0</ele><time>2026-04-02T09:48:52.43Z</time></trkpt><trkpt lat="45.390205" lon="10.6647467"><ele>90.0</ele><time>2026-04-02T09:48:53.437Z</time></trkpt><trkpt lat="45.39012" lon="10.6644217"><ele>90.0</ele><time>2026-04-02T09:48:54.431Z</time></trkpt><trkpt lat="45.3900133" lon="10.664075"><ele>90.0</ele><time>2026-04-02T09:48:55.436Z</time></trkpt><trkpt lat="45.3899317" lon="10.6637233"><ele>90.5</ele><time>2026-04-02T09:48:56.438Z</time></trkpt><trkpt lat="45.38985" lon="10.6633967"><ele>91.0</ele><time>2026-04-02T09:48:57.436Z</time></trkpt><trkpt lat="45.38977" lon="10.6630967"><ele>91.0</ele><time>2026-04-02T09:48:58.439Z</time></trkpt><trkpt lat="45.3897267" lon="10.662815"><ele>91.0</ele><time>2026-04-02T09:48:59.448Z</time></trkpt><trkpt lat="45.3896817" lon="10.6625533"><ele>91.0</ele><time>2026-04-02T09:49:00.435Z</time></trkpt><trkpt lat="45.3896533" lon="10.662315"><ele>91.25</ele><time>2026-04-02T09:49:01.437Z</time></trkpt><trkpt lat="45.3896317" lon="10.662095"><ele>91.5</ele><time>2026-04-02T09:49:02.437Z</time></trkpt><trkpt lat="45.3896033" lon="10.6618867"><ele>91.75</ele><time>2026-04-02T09:49:03.431Z</time></trkpt><trkpt lat="45.3895633" lon="10.6617017"><ele>92.0</ele><time>2026-04-02T09:49:04.441Z</time></trkpt><trkpt lat="45.3895567" lon="10.66147"><ele>92.0</ele><time>2026-04-02T09:49:05.436Z</time></trkpt><trkpt lat="45.389535" lon="10.6612683"><ele>92.0</ele><time>2026-04-02T09:49:06.433Z</time></trkpt><trkpt lat="45.3895267" lon="10.6610467"><ele>92.0</ele><time>2026-04-02T09:49:07.438Z</time></trkpt><trkpt lat="45.389515" lon="10.66082"><ele>91.75</ele><time>2026-04-02T09:49:08.436Z</time></trkpt><trkpt lat="45.3895183" lon="10.6605967"><ele>91.5</ele><time>2026-04-02T09:49:09.436Z</time></trkpt><trkpt lat="45.3895117" lon="10.6604"><ele>91.25</ele><time>2026-04-02T09:49:10.431Z</time></trkpt><trkpt lat="45.3895033" lon="10.6602083"><ele>91.0</ele><time>2026-04-02T09:49:11.432Z</time></trkpt><trkpt lat="45.3895" lon="10.6600183"><ele>91.0</ele><time>2026-04-02T09:49:12.432Z</time></trkpt><trkpt lat="45.389485" lon="10.6598317"><ele>91.0</ele><time>2026-04-02T09:49:13.45Z</time></trkpt><trkpt lat="45.3894783" lon="10.6596367"><ele>91.0</ele><time>2026-04-02T09:49:14.428Z</time></trkpt><trkpt lat="45.3894533" lon="10.6594433"><ele>91.0</ele><time>2026-04-02T09:49:15.445Z</time></trkpt><trkpt lat="45.3894217" lon="10.6592467"><ele>91.25</ele><time>2026-04-02T09:49:16.43Z</time></trkpt><trkpt lat="45.3893617" lon="10.6590617"><ele>91.5</ele><time>2026-04-02T09:49:17.431Z</time></trkpt><trkpt lat="45.3892833" lon="10.6588933"><ele>91.75</ele><time>2026-04-02T09:49:18.432Z</time></trkpt><trkpt lat="45.389225" lon="10.6587283"><ele>92.0</ele><time>2026-04-02T09:49:19.433Z</time></trkpt><trkpt lat="45.3891517" lon="10.6585717"><ele>92.0</ele><time>2026-04-02T09:49:20.431Z</time></trkpt><trkpt lat="45.3891083" lon="10.6584133"><ele>92.0</ele><time>2026-04-02T09:49:21.435Z</time></trkpt><trkpt lat="45.3890633" lon="10.6582583"><ele>92.0</ele><time>2026-04-02T09:49:22.433Z</time></trkpt><trkpt lat="45.3890483" lon="10.6581067"><ele>92.0</ele><time>2026-04-02T09:49:23.433Z</time></trkpt><trkpt lat="45.389015" lon="10.6579117"><ele>93.0</ele><time>2026-04-02T09:49:24.434Z</time></trkpt><trkpt lat="45.3889867" lon="10.6576967"><ele>94.0</ele><time>2026-04-02T09:49:25.436Z</time></trkpt><trkpt lat="45.3889667" lon="10.6574917"><ele>95.0</ele><time>2026-04-02T09:49:26.426Z</time></trkpt><trkpt lat="45.38894" lon="10.657305"><ele>96.0</ele><time>2026-04-02T09:49:27.437Z</time></trkpt><trkpt lat="45.3889083" lon="10.65709"><ele>95.25</ele><time>2026-04-02T09:49:28.436Z</time></trkpt><trkpt lat="45.3888933" lon="10.6568883"><ele>94.5</ele><time>2026-04-02T09:49:29.432Z</time></trkpt><trkpt lat="45.3888683" lon="10.6566667"><ele>93.75</ele><time>2026-04-02T09:49:30.437Z</time></trkpt><trkpt lat="45.388845" lon="10.6564683"><ele>93.0</ele><time>2026-04-02T09:49:31.434Z</time></trkpt><trkpt lat="45.3888133" lon="10.656265"><ele>93.75</ele><time>2026-04-02T09:49:32.427Z</time></trkpt><trkpt lat="45.3887917" lon="10.6560633"><ele>94.5</ele><time>2026-04-02T09:49:33.427Z</time></trkpt><trkpt lat="45.3887733" lon="10.65587"><ele>95.25</ele><time>2026-04-02T09:49:34.461Z</time></trkpt><trkpt lat="45.388755" lon="10.6556783"><ele>96.0</ele><time>2026-04-02T09:49:35.437Z</time></trkpt><trkpt lat="45.388745" lon="10.6554983"><ele>96.0</ele><time>2026-04-02T09:49:36.438Z</time></trkpt><trkpt lat="45.3887167" lon="10.655305"><ele>96.0</ele><time>2026-04-02T09:49:37.432Z</time></trkpt><trkpt lat="45.388685" lon="10.6551117"><ele>96.0</ele><time>2026-04-02T09:49:38.433Z</time></trkpt><trkpt lat="45.3886533" lon="10.6549167"><ele>96.0</ele><time>2026-04-02T09:49:39.429Z</time></trkpt><trkpt lat="45.388625" lon="10.65473"><ele>96.19999999999999</ele><time>2026-04-02T09:49:40.433Z</time></trkpt><trkpt lat="45.3886033" lon="10.654555"><ele>96.39999999999999</ele><time>2026-04-02T09:49:41.428Z</time></trkpt><trkpt lat="45.38859" lon="10.6544033"><ele>96.6</ele><time>2026-04-02T09:49:42.428Z</time></trkpt><trkpt lat="45.3885867" lon="10.6542633"><ele>96.8</ele><time>2026-04-02T09:49:43.439Z</time></trkpt><trkpt lat="45.3885967" lon="10.654125"><ele>97.0</ele><time>2026-04-02T09:49:44.438Z</time></trkpt><trkpt lat="45.3886283" lon="10.6539933"><ele>97.0</ele><time>2026-04-02T09:49:45.437Z</time></trkpt><trkpt lat="45.3886767" lon="10.6538667"><ele>97.0</ele><time>2026-04-02T09:49:46.429Z</time></trkpt><trkpt lat="45.3887417" lon="10.6537667"><ele>97.0</ele><time>2026-04-02T09:49:47.44Z</time></trkpt><trkpt lat="45.3888283" lon="10.65361"><ele>97.0</ele><time>2026-04-02T09:49:48.434Z</time></trkpt><trkpt lat="45.388895" lon="10.6534683"><ele>98.5</ele><time>2026-04-02T09:49:49.433Z</time></trkpt><trkpt lat="45.388965" lon="10.6533167"><ele>100.0</ele><time>2026-04-02T09:49:50.43Z</time></trkpt><trkpt lat="45.3890517" lon="10.6531617"><ele>101.5</ele><time>2026-04-02T09:49:51.431Z</time></trkpt><trkpt lat="45.38912" lon="10.652985"><ele>103.0</ele><time>2026-04-02T09:49:52.43Z</time></trkpt><trkpt lat="45.389205" lon="10.6528033"><ele>102.5</ele><time>2026-04-02T09:49:53.443Z</time></trkpt><trkpt lat="45.389265" lon="10.6526317"><ele>102.0</ele><time>2026-04-02T09:49:54.444Z</time></trkpt><trkpt lat="45.3893233" lon="10.6524333"><ele>101.5</ele><time>2026-04-02T09:49:55.438Z</time></trkpt><trkpt lat="45.3893783" lon="10.652245"><ele>101.0</ele><time>2026-04-02T09:49:56.434Z</time></trkpt><trkpt lat="45.3894333" lon="10.6520433"><ele>100.33333333333333</ele><time>2026-04-02T09:49:57.438Z</time></trkpt><trkpt lat="45.3894933" lon="10.6518317"><ele>99.66666666666666</ele><time>2026-04-02T09:49:58.43Z</time></trkpt><trkpt lat="45.3895183" lon="10.6516183"><ele>99.0</ele><time>2026-04-02T09:49:59.435Z</time></trkpt><trkpt lat="45.3895567" lon="10.65141"><ele>99.0</ele><time>2026-04-02T09:50:00.434Z</time></trkpt><trkpt lat="45.3895717" lon="10.651175"><ele>99.0</ele><time>2026-04-02T09:50:01.428Z</time></trkpt><trkpt lat="45.3895767" lon="10.6509817"><ele>99.0</ele><time>2026-04-02T09:50:02.432Z</time></trkpt><trkpt lat="45.3895717" lon="10.6508067"><ele>99.0</ele><time>2026-04-02T09:50:03.441Z</time></trkpt><trkpt lat="45.38958" lon="10.6506133"><ele>99.0</ele><time>2026-04-02T09:50:04.43Z</time></trkpt><trkpt lat="45.3896133" lon="10.6504"><ele>99.0</ele><time>2026-04-02T09:50:05.429Z</time></trkpt><trkpt lat="45.3896533" lon="10.6501883"><ele>99.0</ele><time>2026-04-02T09:50:06.438Z</time></trkpt><trkpt lat="45.3896867" lon="10.6499867"><ele>99.0</ele><time>2026-04-02T09:50:07.428Z</time></trkpt><trkpt lat="45.389735" lon="10.6497783"><ele>99.0</ele><time>2026-04-02T09:50:08.432Z</time></trkpt><trkpt lat="45.389755" lon="10.6495417"><ele>99.0</ele><time>2026-04-02T09:50:09.44Z</time></trkpt><trkpt lat="45.3897967" lon="10.64934"><ele>98.66666666666666</ele><time>2026-04-02T09:50:10.433Z</time></trkpt><trkpt lat="45.3898483" lon="10.64913"><ele>98.33333333333333</ele><time>2026-04-02T09:50:11.435Z</time></trkpt><trkpt lat="45.3899167" lon="10.64895"><ele>98.0</ele><time>2026-04-02T09:50:12.428Z</time></trkpt><trkpt lat="45.38999" lon="10.648755"><ele>97.33333333333333</ele><time>2026-04-02T09:50:13.442Z</time></trkpt><trkpt lat="45.3900617" lon="10.6485567"><ele>96.66666666666666</ele><time>2026-04-02T09:50:14.428Z</time></trkpt><trkpt lat="45.390135" lon="10.6483633"><ele>96.0</ele><time>2026-04-02T09:50:15.426Z</time></trkpt><trkpt lat="45.3901583" lon="10.6480783"><ele>96.0</ele><time>2026-04-02T09:50:16.435Z</time></trkpt><trkpt lat="45.39021" lon="10.6479017"><ele>96.0</ele><time>2026-04-02T09:50:17.434Z</time></trkpt><trkpt lat="45.3902517" lon="10.6476917"><ele>96.0</ele><time>2026-04-02T09:50:18.428Z</time></trkpt><trkpt lat="45.3903117" lon="10.64752"><ele>96.0</ele><time>2026-04-02T09:50:19.433Z</time></trkpt><trkpt lat="45.39035" lon="10.6473367"><ele>96.0</ele><time>2026-04-02T09:50:20.426Z</time></trkpt><trkpt lat="45.39039" lon="10.6471783"><ele>96.0</ele><time>2026-04-02T09:50:21.442Z</time></trkpt><trkpt lat="45.39044" lon="10.6469967"><ele>96.0</ele><time>2026-04-02T09:50:22.458Z</time></trkpt><trkpt lat="45.3904867" lon="10.6468217"><ele>96.0</ele><time>2026-04-02T09:50:23.436Z</time></trkpt><trkpt lat="45.3905367" lon="10.6466467"><ele>97.25</ele><time>2026-04-02T09:50:24.431Z</time></trkpt><trkpt lat="45.390585" lon="10.6464633"><ele>98.5</ele><time>2026-04-02T09:50:25.434Z</time></trkpt><trkpt lat="45.3906267" lon="10.6462883"><ele>99.75</ele><time>2026-04-02T09:50:26.427Z</time></trkpt><trkpt lat="45.3906767" lon="10.6460717"><ele>101.0</ele><time>2026-04-02T09:50:27.427Z</time></trkpt><trkpt lat="45.39073" lon="10.6459017"><ele>101.0</ele><time>2026-04-02T09:50:28.436Z</time></trkpt><trkpt lat="45.390785" lon="10.6457567"><ele>101.0</ele><time>2026-04-02T09:50:29.441Z</time></trkpt><trkpt lat="45.390835" lon="10.6456"><ele>101.0</ele><time>2026-04-02T09:50:30.434Z</time></trkpt><trkpt lat="45.3908967" lon="10.6454"><ele>101.0</ele><time>2026-04-02T09:50:31.434Z</time></trkpt><trkpt lat="45.390915" lon="10.6452217"><ele>101.5</ele><time>2026-04-02T09:50:32.43Z</time></trkpt><trkpt lat="45.3909067" lon="10.6450483"><ele>102.0</ele><time>2026-04-02T09:50:33.43Z</time></trkpt><trkpt lat="45.3908867" lon="10.64484"><ele>102.5</ele><time>2026-04-02T09:50:34.431Z</time></trkpt><trkpt lat="45.3908717" lon="10.644625"><ele>103.0</ele><time>2026-04-02T09:50:35.434Z</time></trkpt><trkpt lat="45.390835" lon="10.6444733"><ele>103.25</ele><time>2026-04-02T09:50:36.428Z</time></trkpt><trkpt lat="45.39077" lon="10.644295"><ele>103.5</ele><time>2026-04-02T09:50:37.429Z</time></trkpt><trkpt lat="45.3906533" lon="10.64417"><ele>103.75</ele><time>2026-04-02T09:50:38.433Z</time></trkpt><trkpt lat="45.3905533" lon="10.6440867"><ele>104.0</ele><time>2026-04-02T09:50:39.424Z</time></trkpt><trkpt lat="45.3904717" lon="10.64407"><ele>103.99999999999999</ele><time>2026-04-02T09:50:40.431Z</time></trkpt><trkpt lat="45.39039" lon="10.6440467"><ele>104.0</ele><time>2026-04-02T09:50:41.434Z</time></trkpt><trkpt lat="45.39033" lon="10.6439983"><ele>104.0</ele><time>2026-04-02T09:50:42.438Z</time></trkpt><trkpt lat="45.390245" lon="10.6439367"><ele>104.0</ele><time>2026-04-02T09:50:44.441Z</time></trkpt><trkpt lat="45.3901583" lon="10.6439133"><ele>103.99999999999999</ele><time>2026-04-02T09:50:46.427Z</time></trkpt><trkpt lat="45.3900833" lon="10.643915"><ele>104.0</ele><time>2026-04-02T09:50:47.441Z</time></trkpt><trkpt lat="45.389985" lon="10.6439167"><ele>104.0</ele><time>2026-04-02T09:50:48.436Z</time></trkpt><trkpt lat="45.3898767" lon="10.643905"><ele>104.0</ele><time>2026-04-02T09:50:49.433Z</time></trkpt><trkpt lat="45.389745" lon="10.6438883"><ele>104.0</ele><time>2026-04-02T09:50:50.432Z</time></trkpt><trkpt lat="45.3896317" lon="10.6438383"><ele>104.0</ele><time>2026-04-02T09:50:51.434Z</time></trkpt><trkpt lat="45.3895133" lon="10.64378"><ele>103.99999999999999</ele><time>2026-04-02T09:50:52.431Z</time></trkpt><trkpt lat="45.3894217" lon="10.6437333"><ele>104.0</ele><time>2026-04-02T09:50:53.443Z</time></trkpt><trkpt lat="45.38933" lon="10.6437017"><ele>104.0</ele><time>2026-04-02T09:50:54.437Z</time></trkpt><trkpt lat="45.38927" lon="10.6436667"><ele>104.0</ele><time>2026-04-02T09:50:55.433Z</time></trkpt><trkpt lat="45.3891883" lon="10.64364"><ele>103.99999999999999</ele><time>2026-04-02T09:50:56.43Z</time></trkpt><trkpt lat="45.3891183" lon="10.6436133"><ele>104.0</ele><time>2026-04-02T09:50:57.448Z</time></trkpt><trkpt lat="45.3890117" lon="10.6435783"><ele>104.33333333333333</ele><time>2026-04-02T09:50:59.437Z</time></trkpt><trkpt lat="45.3889233" lon="10.643555"><ele>104.66666666666666</ele><time>2026-04-02T09:51:01.44Z</time></trkpt><trkpt lat="45.3888417" lon="10.643545"><ele>105.0</ele><time>2026-04-02T09:51:04.438Z</time></trkpt><trkpt lat="45.388775" lon="10.6435083"><ele>105.33333333333334</ele><time>2026-04-02T09:51:08.429Z</time></trkpt><trkpt lat="45.3887083" lon="10.6434967"><ele>105.66666666666667</ele><time>2026-04-02T09:51:14.436Z</time></trkpt><trkpt lat="45.3886433" lon="10.6434717"><ele>106.0</ele><time>2026-04-02T09:51:16.434Z</time></trkpt><trkpt lat="45.3885417" lon="10.643435"><ele>106.0</ele><time>2026-04-02T09:51:18.429Z</time></trkpt><trkpt lat="45.388465" lon="10.6434"><ele>106.0</ele><time>2026-04-02T09:51:19.429Z</time></trkpt><trkpt lat="45.3883667" lon="10.6433417"><ele>106.0</ele><time>2026-04-02T09:51:20.432Z</time></trkpt><trkpt lat="45.388235" lon="10.6432367"><ele>106.0</ele><time>2026-04-02T09:51:21.429Z</time></trkpt><trkpt lat="45.3881117" lon="10.64318"><ele>105.0</ele><time>2026-04-02T09:51:22.43Z</time></trkpt><trkpt lat="45.3879733" lon="10.64309"><ele>104.0</ele><time>2026-04-02T09:51:23.438Z</time></trkpt><trkpt lat="45.38782" lon="10.6430217"><ele>103.0</ele><time>2026-04-02T09:51:24.428Z</time></trkpt><trkpt lat="45.3876767" lon="10.6429367"><ele>103.0</ele><time>2026-04-02T09:51:25.435Z</time></trkpt><trkpt lat="45.387545" lon="10.6428717"><ele>103.0</ele><time>2026-04-02T09:51:26.433Z</time></trkpt><trkpt lat="45.3873817" lon="10.642805"><ele>103.0</ele><time>2026-04-02T09:51:27.431Z</time></trkpt><trkpt lat="45.387225" lon="10.6427433"><ele>104.0</ele><time>2026-04-02T09:51:28.427Z</time></trkpt><trkpt lat="45.387075" lon="10.64268"><ele>105.0</ele><time>2026-04-02T09:51:29.434Z</time></trkpt><trkpt lat="45.386915" lon="10.642585"><ele>106.0</ele><time>2026-04-02T09:51:30.429Z</time></trkpt><trkpt lat="45.3867667" lon="10.6424517"><ele>106.0</ele><time>2026-04-02T09:51:31.436Z</time></trkpt><trkpt lat="45.3865483" lon="10.6423867"><ele>106.0</ele><time>2026-04-02T09:51:32.44Z</time></trkpt><trkpt lat="45.3863267" lon="10.6422783"><ele>105.5</ele><time>2026-04-02T09:51:33.453Z</time></trkpt><trkpt lat="45.3860717" lon="10.642175"><ele>105.0</ele><time>2026-04-02T09:51:34.426Z</time></trkpt><trkpt lat="45.3858283" lon="10.642035"><ele>106.0</ele><time>2026-04-02T09:51:35.438Z</time></trkpt><trkpt lat="45.38557" lon="10.6418983"><ele>107.0</ele><time>2026-04-02T09:51:36.437Z</time></trkpt><trkpt lat="45.3853" lon="10.6417633"><ele>107.5</ele><time>2026-04-02T09:51:37.425Z</time></trkpt><trkpt lat="45.3850683" lon="10.6416333"><ele>108.0</ele><time>2026-04-02T09:51:38.431Z</time></trkpt><trkpt lat="45.3848517" lon="10.64151"><ele>107.0</ele><time>2026-04-02T09:51:39.434Z</time></trkpt><trkpt lat="45.3846583" lon="10.64138"><ele>106.0</ele><time>2026-04-02T09:51:40.437Z</time></trkpt><trkpt lat="45.3844733" lon="10.641275"><ele>105.0</ele><time>2026-04-02T09:51:41.436Z</time></trkpt><trkpt lat="45.384295" lon="10.6411967"><ele>105.66666666666666</ele><time>2026-04-02T09:51:42.439Z</time></trkpt><trkpt lat="45.3841367" lon="10.6411067"><ele>106.33333333333333</ele><time>2026-04-02T09:51:43.433Z</time></trkpt><trkpt lat="45.38396" lon="10.64103"><ele>107.0</ele><time>2026-04-02T09:51:44.427Z</time></trkpt><trkpt lat="45.3838167" lon="10.640915"><ele>107.0</ele><time>2026-04-02T09:51:45.435Z</time></trkpt><trkpt lat="45.3836533" lon="10.6407917"><ele>107.0</ele><time>2026-04-02T09:51:46.43Z</time></trkpt><trkpt lat="45.383475" lon="10.6406583"><ele>107.0</ele><time>2026-04-02T09:51:47.429Z</time></trkpt><trkpt lat="45.3832967" lon="10.6405133"><ele>107.0</ele><time>2026-04-02T09:51:48.44Z</time></trkpt><trkpt lat="45.3831267" lon="10.6403483"><ele>107.0</ele><time>2026-04-02T09:51:49.427Z</time></trkpt><trkpt lat="45.3829433" lon="10.6402083"><ele>107.0</ele><time>2026-04-02T09:51:50.429Z</time></trkpt><trkpt lat="45.3827583" lon="10.6400917"><ele>106.33333333333333</ele><time>2026-04-02T09:51:51.429Z</time></trkpt><trkpt lat="45.3825867" lon="10.6399317"><ele>105.66666666666666</ele><time>2026-04-02T09:51:52.431Z</time></trkpt><trkpt lat="45.38243" lon="10.6397717"><ele>105.0</ele><time>2026-04-02T09:51:53.428Z</time></trkpt><trkpt lat="45.3822783" lon="10.6395817"><ele>104.0</ele><time>2026-04-02T09:51:54.427Z</time></trkpt><trkpt lat="45.38213" lon="10.6393567"><ele>103.0</ele><time>2026-04-02T09:51:55.433Z</time></trkpt><trkpt lat="45.3819717" lon="10.6391183"><ele>102.0</ele><time>2026-04-02T09:51:56.428Z</time></trkpt><trkpt lat="45.3818133" lon="10.6388683"><ele>102.66666666666666</ele><time>2026-04-02T09:51:57.435Z</time></trkpt><trkpt lat="45.381665" lon="10.6386317"><ele>103.33333333333333</ele><time>2026-04-02T09:51:58.428Z</time></trkpt><trkpt lat="45.38152" lon="10.638415"><ele>104.0</ele><time>2026-04-02T09:51:59.432Z</time></trkpt><trkpt lat="45.381365" lon="10.6382083"><ele>103.66666666666666</ele><time>2026-04-02T09:52:00.43Z</time></trkpt><trkpt lat="45.3812217" lon="10.6380567"><ele>103.33333333333334</ele><time>2026-04-02T09:52:01.435Z</time></trkpt><trkpt lat="45.3811067" lon="10.6379167"><ele>103.0</ele><time>2026-04-02T09:52:02.424Z</time></trkpt><trkpt lat="45.3810183" lon="10.6377567"><ele>103.0</ele><time>2026-04-02T09:52:03.429Z</time></trkpt><trkpt lat="45.3809533" lon="10.637655"><ele>103.0</ele><time>2026-04-02T09:52:04.436Z</time></trkpt><trkpt lat="45.38087" lon="10.63761"><ele>103.0</ele><time>2026-04-02T09:52:05.432Z</time></trkpt><trkpt lat="45.3807917" lon="10.6375567"><ele>103.0</ele><time>2026-04-02T09:52:06.428Z</time></trkpt><trkpt lat="45.3806983" lon="10.6375317"><ele>103.0</ele><time>2026-04-02T09:52:08.435Z</time></trkpt><trkpt lat="45.38066" lon="10.6373983"><ele>103.0</ele><time>2026-04-02T09:52:11.433Z</time></trkpt><trkpt lat="45.3806483" lon="10.6373083"><ele>103.0</ele><time>2026-04-02T09:52:12.427Z</time></trkpt><trkpt lat="45.38063" lon="10.6371783"><ele>103.0</ele><time>2026-04-02T09:52:13.429Z</time></trkpt><trkpt lat="45.3806033" lon="10.637035"><ele>103.0</ele><time>2026-04-02T09:52:14.434Z</time></trkpt><trkpt lat="45.38058" lon="10.6368883"><ele>103.0</ele><time>2026-04-02T09:52:15.43Z</time></trkpt><trkpt lat="45.38054" lon="10.636755"><ele>103.00000000000001</ele><time>2026-04-02T09:52:16.433Z</time></trkpt><trkpt lat="45.3804917" lon="10.6366717"><ele>103.0</ele><time>2026-04-02T09:52:17.435Z</time></trkpt><trkpt lat="45.380485" lon="10.6365583"><ele>103.0</ele><time>2026-04-02T09:52:18.435Z</time></trkpt><trkpt lat="45.38049" lon="10.6364517"><ele>103.0</ele><time>2026-04-02T09:52:19.43Z</time></trkpt><trkpt lat="45.3804883" lon="10.636305"><ele>103.00000000000001</ele><time>2026-04-02T09:52:20.436Z</time></trkpt><trkpt lat="45.380495" lon="10.6361517"><ele>103.0</ele><time>2026-04-02T09:52:21.426Z</time></trkpt><trkpt lat="45.3805217" lon="10.636"><ele>103.66666666666667</ele><time>2026-04-02T09:52:22.425Z</time></trkpt><trkpt lat="45.3805533" lon="10.6358467"><ele>104.33333333333334</ele><time>2026-04-02T09:52:23.435Z</time></trkpt><trkpt lat="45.3807" lon="10.6356"><ele>105.0</ele><time>2026-04-02T09:52:24.436Z</time></trkpt><trkpt lat="45.3807633" lon="10.6354217"><ele>103.75</ele><time>2026-04-02T09:52:25.431Z</time></trkpt><trkpt lat="45.380775" lon="10.6352767"><ele>102.5</ele><time>2026-04-02T09:52:26.427Z</time></trkpt><trkpt lat="45.3808617" lon="10.6350583"><ele>101.25</ele><time>2026-04-02T09:52:28.426Z</time></trkpt><trkpt lat="45.38095" lon="10.6349433"><ele>100.0</ele><time>2026-04-02T09:52:29.439Z</time></trkpt><trkpt lat="45.3809767" lon="10.6348517"><ele>100.0</ele><time>2026-04-02T09:52:30.439Z</time></trkpt><trkpt lat="45.381065" lon="10.634735"><ele>100.0</ele><time>2026-04-02T09:52:31.435Z</time></trkpt><trkpt lat="45.3811483" lon="10.634625"><ele>100.0</ele><time>2026-04-02T09:52:32.432Z</time></trkpt><trkpt lat="45.3812233" lon="10.6345133"><ele>100.0</ele><time>2026-04-02T09:52:33.431Z</time></trkpt><trkpt lat="45.3813083" lon="10.6343817"><ele>100.75</ele><time>2026-04-02T09:52:34.427Z</time></trkpt><trkpt lat="45.381375" lon="10.6342533"><ele>101.5</ele><time>2026-04-02T09:52:35.428Z</time></trkpt><trkpt lat="45.3813917" lon="10.6341233"><ele>102.25</ele><time>2026-04-02T09:52:36.433Z</time></trkpt><trkpt lat="45.3814633" lon="10.63397"><ele>103.0</ele><time>2026-04-02T09:52:37.441Z</time></trkpt><trkpt lat="45.3815767" lon="10.6337483"><ele>102.0</ele><time>2026-04-02T09:52:38.429Z</time></trkpt><trkpt lat="45.381605" lon="10.63358"><ele>101.0</ele><time>2026-04-02T09:52:39.432Z</time></trkpt><trkpt lat="45.3816683" lon="10.6334017"><ele>100.0</ele><time>2026-04-02T09:52:40.445Z</time></trkpt><trkpt lat="45.381735" lon="10.63327"><ele>99.0</ele><time>2026-04-02T09:52:41.435Z</time></trkpt><trkpt lat="45.3817733" lon="10.6331217"><ele>99.0</ele><time>2026-04-02T09:52:42.437Z</time></trkpt><trkpt lat="45.3818317" lon="10.6329433"><ele>99.0</ele><time>2026-04-02T09:52:43.433Z</time></trkpt><trkpt lat="45.3819033" lon="10.6327683"><ele>99.0</ele><time>2026-04-02T09:52:44.427Z</time></trkpt><trkpt lat="45.3819633" lon="10.6326533"><ele>99.0</ele><time>2026-04-02T09:52:45.43Z</time></trkpt><trkpt lat="45.3820017" lon="10.6325183"><ele>98.75</ele><time>2026-04-02T09:52:46.439Z</time></trkpt><trkpt lat="45.3820683" lon="10.6323567"><ele>98.5</ele><time>2026-04-02T09:52:47.429Z</time></trkpt><trkpt lat="45.382105" lon="10.6322067"><ele>98.25</ele><time>2026-04-02T09:52:48.438Z</time></trkpt><trkpt lat="45.3821417" lon="10.6320217"><ele>98.0</ele><time>2026-04-02T09:52:49.434Z</time></trkpt><trkpt lat="45.3821917" lon="10.6318667"><ele>99.5</ele><time>2026-04-02T09:52:50.437Z</time></trkpt><trkpt lat="45.3822583" lon="10.6316933"><ele>101.0</ele><time>2026-04-02T09:52:51.43Z</time></trkpt><trkpt lat="45.3823067" lon="10.63151"><ele>102.5</ele><time>2026-04-02T09:52:52.431Z</time></trkpt><trkpt lat="45.3823783" lon="10.6313217"><ele>104.0</ele><time>2026-04-02T09:52:53.429Z</time></trkpt><trkpt lat="45.3824317" lon="10.6311767"><ele>104.4</ele><time>2026-04-02T09:52:54.427Z</time></trkpt><trkpt lat="45.382515" lon="10.63102"><ele>104.80000000000001</ele><time>2026-04-02T09:52:55.464Z</time></trkpt><trkpt lat="45.3825417" lon="10.63093"><ele>105.19999999999999</ele><time>2026-04-02T09:52:56.433Z</time></trkpt><trkpt lat="45.3825633" lon="10.6307967"><ele>105.6</ele><time>2026-04-02T09:52:58.427Z</time></trkpt><trkpt lat="45.3824867" lon="10.63068"><ele>106.0</ele><time>2026-04-02T09:53:00.427Z</time></trkpt><trkpt lat="45.3823967" lon="10.6306167"><ele>106.0</ele><time>2026-04-02T09:53:01.426Z</time></trkpt><trkpt lat="45.3822817" lon="10.6305667"><ele>106.0</ele><time>2026-04-02T09:53:02.427Z</time></trkpt><trkpt lat="45.3821433" lon="10.6304717"><ele>106.0</ele><time>2026-04-02T09:53:03.435Z</time></trkpt><trkpt lat="45.382025" lon="10.6303467"><ele>106.0</ele><time>2026-04-02T09:53:04.435Z</time></trkpt><trkpt lat="45.3818783" lon="10.63023"><ele>104.33333333333334</ele><time>2026-04-02T09:53:05.433Z</time></trkpt><trkpt lat="45.3817483" lon="10.6301083"><ele>102.66666666666666</ele><time>2026-04-02T09:53:06.427Z</time></trkpt><trkpt lat="45.381595" lon="10.6299633"><ele>101.0</ele><time>2026-04-02T09:53:07.426Z</time></trkpt><trkpt lat="45.3814683" lon="10.6298433"><ele>99.66666666666666</ele><time>2026-04-02T09:53:08.433Z</time></trkpt><trkpt lat="45.3813383" lon="10.629725"><ele>98.33333333333334</ele><time>2026-04-02T09:53:09.435Z</time></trkpt><trkpt lat="45.3812083" lon="10.629595"><ele>97.0</ele><time>2026-04-02T09:53:10.429Z</time></trkpt><trkpt lat="45.3810617" lon="10.6294783"><ele>97.25</ele><time>2026-04-02T09:53:11.438Z</time></trkpt><trkpt lat="45.3809567" lon="10.62935"><ele>97.5</ele><time>2026-04-02T09:53:12.444Z</time></trkpt><trkpt lat="45.3808367" lon="10.62924"><ele>97.75</ele><time>2026-04-02T09:53:13.428Z</time></trkpt><trkpt lat="45.3806917" lon="10.6291367"><ele>98.0</ele><time>2026-04-02T09:53:14.432Z</time></trkpt><trkpt lat="45.3805483" lon="10.6290383"><ele>98.25</ele><time>2026-04-02T09:53:15.434Z</time></trkpt><trkpt lat="45.3804233" lon="10.6289167"><ele>98.5</ele><time>2026-04-02T09:53:16.429Z</time></trkpt><trkpt lat="45.380325" lon="10.6287883"><ele>98.75</ele><time>2026-04-02T09:53:17.435Z</time></trkpt><trkpt lat="45.3802383" lon="10.628695"><ele>99.0</ele><time>2026-04-02T09:53:18.437Z</time></trkpt><trkpt lat="45.38013" lon="10.6286367"><ele>100.80000000000001</ele><time>2026-04-02T09:53:19.429Z</time></trkpt><trkpt lat="45.3800483" lon="10.6285883"><ele>102.60000000000001</ele><time>2026-04-02T09:53:20.433Z</time></trkpt><trkpt lat="45.3799883" lon="10.6284933"><ele>104.4</ele><time>2026-04-02T09:53:22.432Z</time></trkpt><trkpt lat="45.3800283" lon="10.628415"><ele>106.2</ele><time>2026-04-02T09:53:25.428Z</time></trkpt><trkpt lat="45.3801267" lon="10.6283233"><ele>108.0</ele><time>2026-04-02T09:53:27.435Z</time></trkpt><trkpt lat="45.3802467" lon="10.6282333"><ele>108.0</ele><time>2026-04-02T09:53:28.43Z</time></trkpt><trkpt lat="45.3803867" lon="10.628145"><ele>108.0</ele><time>2026-04-02T09:53:29.427Z</time></trkpt><trkpt lat="45.380545" lon="10.6280283"><ele>108.0</ele><time>2026-04-02T09:53:30.428Z</time></trkpt><trkpt lat="45.3806483" lon="10.6280017"><ele>108.0</ele><time>2026-04-02T09:53:31.439Z</time></trkpt><trkpt lat="45.3807667" lon="10.62795"><ele>107.80000000000001</ele><time>2026-04-02T09:53:32.43Z</time></trkpt><trkpt lat="45.3808817" lon="10.6278967"><ele>107.60000000000001</ele><time>2026-04-02T09:53:33.434Z</time></trkpt><trkpt lat="45.38098" lon="10.6278617"><ele>107.39999999999999</ele><time>2026-04-02T09:53:34.429Z</time></trkpt><trkpt lat="45.3810633" lon="10.6278233"><ele>107.19999999999999</ele><time>2026-04-02T09:53:35.433Z</time></trkpt><trkpt lat="45.3811333" lon="10.6277817"><ele>107.0</ele><time>2026-04-02T09:53:36.427Z</time></trkpt><trkpt lat="45.381195" lon="10.627725"><ele>107.0</ele><time>2026-04-02T09:53:37.433Z</time></trkpt><trkpt lat="45.3812533" lon="10.6275717"><ele>106.99999999999999</ele><time>2026-04-02T09:53:39.432Z</time></trkpt><trkpt lat="45.3812717" lon="10.6274583"><ele>106.99999999999999</ele><time>2026-04-02T09:53:40.428Z</time></trkpt><trkpt lat="45.3812867" lon="10.6273167"><ele>107.0</ele><time>2026-04-02T09:53:41.438Z</time></trkpt><trkpt lat="45.3812917" lon="10.627125"><ele>107.0</ele><time>2026-04-02T09:53:42.428Z</time></trkpt><trkpt lat="45.3812983" lon="10.6269467"><ele>107.25</ele><time>2026-04-02T09:53:43.432Z</time></trkpt><trkpt lat="45.381335" lon="10.6267583"><ele>107.5</ele><time>2026-04-02T09:53:44.43Z</time></trkpt><trkpt lat="45.3813867" lon="10.6265517"><ele>107.75</ele><time>2026-04-02T09:53:45.43Z</time></trkpt><trkpt lat="45.3814067" lon="10.626335"><ele>108.0</ele><time>2026-04-02T09:53:46.431Z</time></trkpt><trkpt lat="45.3814383" lon="10.6261217"><ele>105.33333333333334</ele><time>2026-04-02T09:53:47.437Z</time></trkpt><trkpt lat="45.3814783" lon="10.6258833"><ele>102.66666666666667</ele><time>2026-04-02T09:53:48.438Z</time></trkpt><trkpt lat="45.381515" lon="10.62567"><ele>100.0</ele><time>2026-04-02T09:53:49.423Z</time></trkpt><trkpt lat="45.3815383" lon="10.62542"><ele>99.66666666666667</ele><time>2026-04-02T09:53:50.431Z</time></trkpt><trkpt lat="45.3815717" lon="10.62519"><ele>99.33333333333334</ele><time>2026-04-02T09:53:51.428Z</time></trkpt><trkpt lat="45.3815933" lon="10.62499"><ele>99.0</ele><time>2026-04-02T09:53:52.432Z</time></trkpt><trkpt lat="45.3816" lon="10.6247867"><ele>99.0</ele><time>2026-04-02T09:53:53.443Z</time></trkpt><trkpt lat="45.381605" lon="10.624575"><ele>99.0</ele><time>2026-04-02T09:53:54.449Z</time></trkpt><trkpt lat="45.3816017" lon="10.62437"><ele>99.0</ele><time>2026-04-02T09:53:55.426Z</time></trkpt><trkpt lat="45.3816067" lon="10.6241617"><ele>99.0</ele><time>2026-04-02T09:53:56.432Z</time></trkpt><trkpt lat="45.3816283" lon="10.6239867"><ele>99.2</ele><time>2026-04-02T09:53:57.437Z</time></trkpt><trkpt lat="45.38165" lon="10.6237933"><ele>99.4</ele><time>2026-04-02T09:53:58.43Z</time></trkpt><trkpt lat="45.38165" lon="10.6236583"><ele>99.6</ele><time>2026-04-02T09:53:59.439Z</time></trkpt><trkpt lat="45.3816683" lon="10.623505"><ele>99.8</ele><time>2026-04-02T09:54:00.432Z</time></trkpt><trkpt lat="45.3816733" lon="10.623385"><ele>100.0</ele><time>2026-04-02T09:54:01.436Z</time></trkpt><trkpt lat="45.38167" lon="10.6232233"><ele>100.0</ele><time>2026-04-02T09:54:03.436Z</time></trkpt><trkpt lat="45.3817367" lon="10.62315"><ele>100.0</ele><time>2026-04-02T09:54:06.427Z</time></trkpt><trkpt lat="45.3818133" lon="10.6231633"><ele>100.0</ele><time>2026-04-02T09:54:07.436Z</time></trkpt><trkpt lat="45.38191" lon="10.6231767"><ele>100.0</ele><time>2026-04-02T09:54:08.43Z</time></trkpt><trkpt lat="45.3820433" lon="10.6231833"><ele>100.0</ele><time>2026-04-02T09:54:09.434Z</time></trkpt><trkpt lat="45.382135" lon="10.623185"><ele>100.00000000000001</ele><time>2026-04-02T09:54:10.437Z</time></trkpt><trkpt lat="45.382215" lon="10.623205"><ele>100.0</ele><time>2026-04-02T09:54:11.439Z</time></trkpt><trkpt lat="45.3822883" lon="10.623225"><ele>100.0</ele><time>2026-04-02T09:54:12.44Z</time></trkpt><trkpt lat="45.3823733" lon="10.6232283"><ele>100.0</ele><time>2026-04-02T09:54:13.436Z</time></trkpt><trkpt lat="45.3824633" lon="10.6232367"><ele>100.00000000000001</ele><time>2026-04-02T09:54:14.43Z</time></trkpt><trkpt lat="45.382545" lon="10.62326"><ele>100.0</ele><time>2026-04-02T09:54:15.434Z</time></trkpt><trkpt lat="45.3826267" lon="10.6232933"><ele>100.0</ele><time>2026-04-02T09:54:16.433Z</time></trkpt><trkpt lat="45.3827117" lon="10.62334"><ele>100.0</ele><time>2026-04-02T09:54:17.429Z</time></trkpt><trkpt lat="45.3828183" lon="10.62342"><ele>100.0</ele><time>2026-04-02T09:54:18.433Z</time></trkpt><trkpt lat="45.3829017" lon="10.623515"><ele>100.0</ele><time>2026-04-02T09:54:19.431Z</time></trkpt><trkpt lat="45.3829967" lon="10.6236017"><ele>100.0</ele><time>2026-04-02T09:54:20.428Z</time></trkpt><trkpt lat="45.3830883" lon="10.62364"><ele>100.16666666666667</ele><time>2026-04-02T09:54:21.437Z</time></trkpt><trkpt lat="45.3831567" lon="10.6236933"><ele>100.33333333333334</ele><time>2026-04-02T09:54:22.432Z</time></trkpt><trkpt lat="45.3832517" lon="10.6237267"><ele>100.5</ele><time>2026-04-02T09:54:24.433Z</time></trkpt><trkpt lat="45.3833067" lon="10.6236767"><ele>100.66666666666666</ele><time>2026-04-02T09:54:25.443Z</time></trkpt><trkpt lat="45.3833633" lon="10.6235917"><ele>100.83333333333333</ele><time>2026-04-02T09:54:27.426Z</time></trkpt><trkpt lat="45.3834233" lon="10.6234533"><ele>101.0</ele><time>2026-04-02T09:54:29.443Z</time></trkpt><trkpt lat="45.383515" lon="10.62336"><ele>101.0</ele><time>2026-04-02T09:54:31.434Z</time></trkpt><trkpt lat="45.383635" lon="10.6233417"><ele>101.0</ele><time>2026-04-02T09:54:33.429Z</time></trkpt><trkpt lat="45.383715" lon="10.6233417"><ele>101.0</ele><time>2026-04-02T09:54:35.438Z</time></trkpt><trkpt lat="45.3837883" lon="10.62324"><ele>101.0</ele><time>2026-04-02T09:54:38.432Z</time></trkpt><trkpt lat="45.383875" lon="10.623065"><ele>101.0</ele><time>2026-04-02T09:54:40.425Z</time></trkpt><trkpt lat="45.3839417" lon="10.6229433"><ele>101.0</ele><time>2026-04-02T09:54:41.431Z</time></trkpt><trkpt lat="45.384" lon="10.6227733"><ele>101.0</ele><time>2026-04-02T09:54:42.429Z</time></trkpt><trkpt lat="45.3840433" lon="10.6226383"><ele>101.0</ele><time>2026-04-02T09:54:43.434Z</time></trkpt><trkpt lat="45.3840917" lon="10.6225017"><ele>101.16666666666666</ele><time>2026-04-02T09:54:44.43Z</time></trkpt><trkpt lat="45.3841283" lon="10.6223817"><ele>101.33333333333333</ele><time>2026-04-02T09:54:45.432Z</time></trkpt><trkpt lat="45.3841617" lon="10.622285"><ele>101.5</ele><time>2026-04-02T09:54:46.428Z</time></trkpt><trkpt lat="45.384195" lon="10.6221833"><ele>101.66666666666666</ele><time>2026-04-02T09:54:47.442Z</time></trkpt><trkpt lat="45.38423" lon="10.6220717"><ele>101.83333333333333</ele><time>2026-04-02T09:54:49.43Z</time></trkpt><trkpt lat="45.3842867" lon="10.6220033"><ele>102.0</ele><time>2026-04-02T09:54:52.431Z</time></trkpt><trkpt lat="45.3843233" lon="10.6219033"><ele>102.0</ele><time>2026-04-02T09:54:54.436Z</time></trkpt><trkpt lat="45.3843333" lon="10.6218067"><ele>102.0</ele><time>2026-04-02T09:54:55.432Z</time></trkpt><trkpt lat="45.3843467" lon="10.6216817"><ele>102.0</ele><time>2026-04-02T09:54:56.454Z</time></trkpt><trkpt lat="45.38437" lon="10.6215417"><ele>102.0</ele><time>2026-04-02T09:54:57.436Z</time></trkpt><trkpt lat="45.3844033" lon="10.6214033"><ele>102.0</ele><time>2026-04-02T09:54:58.433Z</time></trkpt><trkpt lat="45.3844367" lon="10.621255"><ele>102.0</ele><time>2026-04-02T09:54:59.448Z</time></trkpt><trkpt lat="45.3844683" lon="10.6211"><ele>102.0</ele><time>2026-04-02T09:55:00.432Z</time></trkpt><trkpt lat="45.3845233" lon="10.620965"><ele>102.0</ele><time>2026-04-02T09:55:01.427Z</time></trkpt><trkpt lat="45.3845583" lon="10.6208433"><ele>102.0</ele><time>2026-04-02T09:55:02.439Z</time></trkpt><trkpt lat="45.384575" lon="10.6206717"><ele>102.0</ele><time>2026-04-02T09:55:03.436Z</time></trkpt><trkpt lat="45.3846567" lon="10.6205333"><ele>101.5</ele><time>2026-04-02T09:55:04.435Z</time></trkpt><trkpt lat="45.3846933" lon="10.6203933"><ele>101.0</ele><time>2026-04-02T09:55:05.434Z</time></trkpt><trkpt lat="45.3847567" lon="10.6202267"><ele>100.5</ele><time>2026-04-02T09:55:06.431Z</time></trkpt><trkpt lat="45.3848017" lon="10.6200817"><ele>100.0</ele><time>2026-04-02T09:55:07.436Z</time></trkpt><trkpt lat="45.384855" lon="10.6199517"><ele>100.0</ele><time>2026-04-02T09:55:08.44Z</time></trkpt><trkpt lat="45.3849417" lon="10.6198583"><ele>100.0</ele><time>2026-04-02T09:55:09.436Z</time></trkpt><trkpt lat="45.384955" lon="10.6197633"><ele>100.0</ele><time>2026-04-02T09:55:10.431Z</time></trkpt><trkpt lat="45.3850167" lon="10.6196333"><ele>100.0</ele><time>2026-04-02T09:55:12.43Z</time></trkpt><trkpt lat="45.385115" lon="10.6196133"><ele>100.0</ele><time>2026-04-02T09:55:14.427Z</time></trkpt><trkpt lat="45.3851783" lon="10.6196533"><ele>100.00000000000001</ele><time>2026-04-02T09:55:15.428Z</time></trkpt><trkpt lat="45.3852567" lon="10.6197"><ele>100.0</ele><time>2026-04-02T09:55:16.432Z</time></trkpt><trkpt lat="45.385345" lon="10.6197783"><ele>100.0</ele><time>2026-04-02T09:55:17.436Z</time></trkpt><trkpt lat="45.3854033" lon="10.6198733"><ele>100.0</ele><time>2026-04-02T09:55:18.43Z</time></trkpt><trkpt lat="45.3854567" lon="10.619965"><ele>100.00000000000001</ele><time>2026-04-02T09:55:19.435Z</time></trkpt><trkpt lat="45.38552" lon="10.620025"><ele>100.0</ele><time>2026-04-02T09:55:20.44Z</time></trkpt><trkpt lat="45.38563" lon="10.6200433"><ele>99.0</ele><time>2026-04-02T09:55:22.435Z</time></trkpt><trkpt lat="45.3857183" lon="10.6198633"><ele>98.0</ele><time>2026-04-02T09:55:24.431Z</time></trkpt><trkpt lat="45.3857533" lon="10.6197367"><ele>97.0</ele><time>2026-04-02T09:55:25.431Z</time></trkpt><trkpt lat="45.3857817" lon="10.619605"><ele>96.0</ele><time>2026-04-02T09:55:26.43Z</time></trkpt><trkpt lat="45.385815" lon="10.6194917"><ele>95.0</ele><time>2026-04-02T09:55:27.434Z</time></trkpt><trkpt lat="45.38584" lon="10.6194067"><ele>95.0</ele><time>2026-04-02T09:55:28.427Z</time></trkpt><trkpt lat="45.3858917" lon="10.6193083"><ele>95.0</ele><time>2026-04-02T09:55:30.428Z</time></trkpt><trkpt lat="45.38601" lon="10.619345"><ele>95.0</ele><time>2026-04-02T09:55:32.427Z</time></trkpt><trkpt lat="45.386085" lon="10.6193833"><ele>95.0</ele><time>2026-04-02T09:55:33.429Z</time></trkpt><trkpt lat="45.3861833" lon="10.6194383"><ele>95.0</ele><time>2026-04-02T09:55:34.431Z</time></trkpt><trkpt lat="45.3863083" lon="10.6195133"><ele>93.25</ele><time>2026-04-02T09:55:35.436Z</time></trkpt><trkpt lat="45.3864533" lon="10.619675"><ele>91.5</ele><time>2026-04-02T09:55:36.432Z</time></trkpt><trkpt lat="45.386545" lon="10.61966"><ele>89.75</ele><time>2026-04-02T09:55:37.433Z</time></trkpt><trkpt lat="45.386665" lon="10.619695"><ele>88.0</ele><time>2026-04-02T09:55:38.427Z</time></trkpt><trkpt lat="45.386785" lon="10.6197383"><ele>88.0</ele><time>2026-04-02T09:55:39.434Z</time></trkpt><trkpt lat="45.386865" lon="10.6197867"><ele>88.0</ele><time>2026-04-02T09:55:40.427Z</time></trkpt><trkpt lat="45.3869383" lon="10.6198317"><ele>88.0</ele><time>2026-04-02T09:55:41.435Z</time></trkpt><trkpt lat="45.387" lon="10.6198517"><ele>88.0</ele><time>2026-04-02T09:55:42.431Z</time></trkpt><trkpt lat="45.3870933" lon="10.619815"><ele>88.0</ele><time>2026-04-02T09:55:44.429Z</time></trkpt><trkpt lat="45.3871283" lon="10.6197317"><ele>88.0</ele><time>2026-04-02T09:55:45.43Z</time></trkpt><trkpt lat="45.38716" lon="10.6196183"><ele>88.0</ele><time>2026-04-02T09:55:46.426Z</time></trkpt><trkpt lat="45.3872033" lon="10.619485"><ele>88.0</ele><time>2026-04-02T09:55:47.431Z</time></trkpt><trkpt lat="45.3872667" lon="10.6193383"><ele>88.0</ele><time>2026-04-02T09:55:48.434Z</time></trkpt><trkpt lat="45.3873167" lon="10.619185"><ele>88.0</ele><time>2026-04-02T09:55:49.435Z</time></trkpt><trkpt lat="45.38736" lon="10.6190067"><ele>88.0</ele><time>2026-04-02T09:55:50.426Z</time></trkpt><trkpt lat="45.3874317" lon="10.61885"><ele>88.0</ele><time>2026-04-02T09:55:51.431Z</time></trkpt><trkpt lat="45.387485" lon="10.6187"><ele>88.0</ele><time>2026-04-02T09:55:52.432Z</time></trkpt><trkpt lat="45.3875367" lon="10.61855"><ele>88.0</ele><time>2026-04-02T09:55:53.435Z</time></trkpt><trkpt lat="45.38759" lon="10.6184"><ele>88.5</ele><time>2026-04-02T09:55:54.43Z</time></trkpt><trkpt lat="45.38765" lon="10.6182433"><ele>89.0</ele><time>2026-04-02T09:55:55.43Z</time></trkpt><trkpt lat="45.3877183" lon="10.6180883"><ele>89.5</ele><time>2026-04-02T09:55:56.427Z</time></trkpt><trkpt lat="45.3877867" lon="10.61795"><ele>90.0</ele><time>2026-04-02T09:55:57.431Z</time></trkpt><trkpt lat="45.38785" lon="10.6178317"><ele>90.2</ele><time>2026-04-02T09:55:58.431Z</time></trkpt><trkpt lat="45.38792" lon="10.6177017"><ele>90.4</ele><time>2026-04-02T09:55:59.43Z</time></trkpt><trkpt lat="45.38798" lon="10.6175833"><ele>90.6</ele><time>2026-04-02T09:56:00.429Z</time></trkpt><trkpt lat="45.388045" lon="10.6174683"><ele>90.8</ele><time>2026-04-02T09:56:01.452Z</time></trkpt><trkpt lat="45.3881283" lon="10.6173767"><ele>91.0</ele><time>2026-04-02T09:56:02.434Z</time></trkpt><trkpt lat="45.3882117" lon="10.6172683"><ele>90.75</ele><time>2026-04-02T09:56:03.431Z</time></trkpt><trkpt lat="45.388285" lon="10.6171783"><ele>90.5</ele><time>2026-04-02T09:56:04.431Z</time></trkpt><trkpt lat="45.388395" lon="10.6171"><ele>90.25</ele><time>2026-04-02T09:56:05.434Z</time></trkpt><trkpt lat="45.3885033" lon="10.61702"><ele>90.0</ele><time>2026-04-02T09:56:06.427Z</time></trkpt><trkpt lat="45.3885833" lon="10.6169167"><ele>90.0</ele><time>2026-04-02T09:56:07.435Z</time></trkpt><trkpt lat="45.3886533" lon="10.61685"><ele>90.0</ele><time>2026-04-02T09:56:08.432Z</time></trkpt><trkpt lat="45.3887133" lon="10.61681"><ele>90.0</ele><time>2026-04-02T09:56:09.432Z</time></trkpt><trkpt lat="45.38878" lon="10.6167967"><ele>90.0</ele><time>2026-04-02T09:56:10.428Z</time></trkpt><trkpt lat="45.388845" lon="10.6167983"><ele>90.0</ele><time>2026-04-02T09:56:11.432Z</time></trkpt><trkpt lat="45.3889033" lon="10.6168583"><ele>90.0</ele><time>2026-04-02T09:56:12.433Z</time></trkpt><trkpt lat="45.3889567" lon="10.6169283"><ele>90.0</ele><time>2026-04-02T09:56:13.435Z</time></trkpt><trkpt lat="45.389015" lon="10.6169833"><ele>90.2</ele><time>2026-04-02T09:56:14.432Z</time></trkpt><trkpt lat="45.3890733" lon="10.6170217"><ele>90.4</ele><time>2026-04-02T09:56:15.435Z</time></trkpt><trkpt lat="45.38913" lon="10.617065"><ele>90.6</ele><time>2026-04-02T09:56:16.426Z</time></trkpt><trkpt lat="45.38924" lon="10.61714"><ele>90.8</ele><time>2026-04-02T09:56:18.429Z</time></trkpt><trkpt lat="45.3893483" lon="10.6172233"><ele>91.0</ele><time>2026-04-02T09:56:20.431Z</time></trkpt><trkpt lat="45.3894317" lon="10.6172867"><ele>91.0</ele><time>2026-04-02T09:56:22.425Z</time></trkpt><trkpt lat="45.38953" lon="10.6173267"><ele>91.0</ele><time>2026-04-02T09:56:24.436Z</time></trkpt><trkpt lat="45.3896017" lon="10.6173617"><ele>91.0</ele><time>2026-04-02T09:56:26.429Z</time></trkpt><trkpt lat="45.3896117" lon="10.6174733"><ele>91.0</ele><time>2026-04-02T09:56:29.443Z</time></trkpt><trkpt lat="45.389575" lon="10.6175783"><ele>91.0</ele><time>2026-04-02T09:56:31.436Z</time></trkpt><trkpt lat="45.3895" lon="10.61772"><ele>91.0</ele><time>2026-04-02T09:56:33.445Z</time></trkpt><trkpt lat="45.38946" lon="10.6178067"><ele>91.0</ele><time>2026-04-02T09:56:34.442Z</time></trkpt><trkpt lat="45.3894167" lon="10.6179033"><ele>91.0</ele><time>2026-04-02T09:56:35.434Z</time></trkpt><trkpt lat="45.3893717" lon="10.618025"><ele>91.0</ele><time>2026-04-02T09:56:36.436Z</time></trkpt><trkpt lat="45.3893033" lon="10.6181967"><ele>91.0</ele><time>2026-04-02T09:56:37.433Z</time></trkpt><trkpt lat="45.3892233" lon="10.618365"><ele>90.5</ele><time>2026-04-02T09:56:38.434Z</time></trkpt><trkpt lat="45.3891933" lon="10.6184983"><ele>90.0</ele><time>2026-04-02T09:56:39.435Z</time></trkpt><trkpt lat="45.3891217" lon="10.618695"><ele>89.5</ele><time>2026-04-02T09:56:40.435Z</time></trkpt><trkpt lat="45.3890717" lon="10.618825"><ele>89.0</ele><time>2026-04-02T09:56:41.436Z</time></trkpt><trkpt lat="45.389035" lon="10.6189667"><ele>89.0</ele><time>2026-04-02T09:56:42.432Z</time></trkpt><trkpt lat="45.3889883" lon="10.619095"><ele>89.0</ele><time>2026-04-02T09:56:43.434Z</time></trkpt><trkpt lat="45.38895" lon="10.6192183"><ele>89.0</ele><time>2026-04-02T09:56:44.432Z</time></trkpt><trkpt lat="45.3889067" lon="10.6192983"><ele>89.0</ele><time>2026-04-02T09:56:45.44Z</time></trkpt><trkpt lat="45.3888583" lon="10.6193783"><ele>89.0</ele><time>2026-04-02T09:56:46.435Z</time></trkpt><trkpt lat="45.3887867" lon="10.6194633"><ele>89.0</ele><time>2026-04-02T09:56:48.431Z</time></trkpt><trkpt lat="45.3887583" lon="10.6195733"><ele>89.0</ele><time>2026-04-02T09:56:51.432Z</time></trkpt><trkpt lat="45.3888317" lon="10.619695"><ele>89.0</ele><time>2026-04-02T09:56:53.437Z</time></trkpt><trkpt lat="45.388905" lon="10.6197483"><ele>89.0</ele><time>2026-04-02T09:56:54.439Z</time></trkpt><trkpt lat="45.3889783" lon="10.6198117"><ele>89.0</ele><time>2026-04-02T09:56:55.438Z</time></trkpt><trkpt lat="45.3890383" lon="10.6198633"><ele>89.0</ele><time>2026-04-02T09:56:56.442Z</time></trkpt><trkpt lat="45.3890983" lon="10.6199833"><ele>89.25</ele><time>2026-04-02T09:56:58.432Z</time></trkpt><trkpt lat="45.3890567" lon="10.6201533"><ele>89.5</ele><time>2026-04-02T09:57:00.436Z</time></trkpt><trkpt lat="45.3889683" lon="10.6202467"><ele>89.75</ele><time>2026-04-02T09:57:01.428Z</time></trkpt><trkpt lat="45.3888533" lon="10.6203483"><ele>90.0</ele><time>2026-04-02T09:57:02.433Z</time></trkpt><trkpt lat="45.388795" lon="10.6204667"><ele>89.6</ele><time>2026-04-02T09:57:03.434Z</time></trkpt><trkpt lat="45.388675" lon="10.62053"><ele>89.2</ele><time>2026-04-02T09:57:04.432Z</time></trkpt><trkpt lat="45.3885867" lon="10.6206683"><ele>88.80000000000001</ele><time>2026-04-02T09:57:05.436Z</time></trkpt><trkpt lat="45.388505" lon="10.6207633"><ele>88.4</ele><time>2026-04-02T09:57:06.435Z</time></trkpt><trkpt lat="45.3884733" lon="10.6208517"><ele>88.0</ele><time>2026-04-02T09:57:07.431Z</time></trkpt><trkpt lat="45.3884217" lon="10.62092"><ele>88.0</ele><time>2026-04-02T09:57:09.43Z</time></trkpt><trkpt lat="45.38844" lon="10.6210333"><ele>88.0</ele><time>2026-04-02T09:57:11.435Z</time></trkpt><trkpt lat="45.3885567" lon="10.6210667"><ele>88.0</ele><time>2026-04-02T09:57:13.431Z</time></trkpt><trkpt lat="45.3886467" lon="10.6210667"><ele>88.0</ele><time>2026-04-02T09:57:14.44Z</time></trkpt><trkpt lat="45.388745" lon="10.6210633"><ele>88.0</ele><time>2026-04-02T09:57:15.44Z</time></trkpt><trkpt lat="45.388865" lon="10.621055"><ele>88.5</ele><time>2026-04-02T09:57:16.429Z</time></trkpt><trkpt lat="45.3890067" lon="10.6210533"><ele>89.0</ele><time>2026-04-02T09:57:17.443Z</time></trkpt><trkpt lat="45.3891467" lon="10.6210533"><ele>89.5</ele><time>2026-04-02T09:57:18.434Z</time></trkpt><trkpt lat="45.3893083" lon="10.62107"><ele>90.0</ele><time>2026-04-02T09:57:19.43Z</time></trkpt><trkpt lat="45.389485" lon="10.621045"><ele>90.0</ele><time>2026-04-02T09:57:20.427Z</time></trkpt><trkpt lat="45.3896117" lon="10.6210583"><ele>90.0</ele><time>2026-04-02T09:57:21.437Z</time></trkpt><trkpt lat="45.3897533" lon="10.6211"><ele>90.0</ele><time>2026-04-02T09:57:22.428Z</time></trkpt><trkpt lat="45.3898917" lon="10.6210917"><ele>90.0</ele><time>2026-04-02T09:57:23.429Z</time></trkpt><trkpt lat="45.39004" lon="10.6210917"><ele>90.4</ele><time>2026-04-02T09:57:24.435Z</time></trkpt><trkpt lat="45.3901767" lon="10.6210617"><ele>90.8</ele><time>2026-04-02T09:57:25.433Z</time></trkpt><trkpt lat="45.3902733" lon="10.6210383"><ele>91.19999999999999</ele><time>2026-04-02T09:57:26.43Z</time></trkpt><trkpt lat="45.39036" lon="10.6210117"><ele>91.6</ele><time>2026-04-02T09:57:27.44Z</time></trkpt><trkpt lat="45.39043" lon="10.6210033"><ele>92.0</ele><time>2026-04-02T09:57:28.431Z</time></trkpt><trkpt lat="45.390505" lon="10.6210367"><ele>91.8</ele><time>2026-04-02T09:57:29.437Z</time></trkpt><trkpt lat="45.39059" lon="10.6210967"><ele>91.6</ele><time>2026-04-02T09:57:30.436Z</time></trkpt><trkpt lat="45.3907017" lon="10.6211667"><ele>91.39999999999999</ele><time>2026-04-02T09:57:31.446Z</time></trkpt><trkpt lat="45.390775" lon="10.6212367"><ele>91.19999999999999</ele><time>2026-04-02T09:57:32.432Z</time></trkpt><trkpt lat="45.39087" lon="10.6213133"><ele>91.0</ele><time>2026-04-02T09:57:33.432Z</time></trkpt><trkpt lat="45.39094" lon="10.621375"><ele>91.14285714285714</ele><time>2026-04-02T09:57:34.438Z</time></trkpt><trkpt lat="45.3909917" lon="10.6214333"><ele>91.28571428571428</ele><time>2026-04-02T09:57:35.433Z</time></trkpt><trkpt lat="45.3910567" lon="10.62148"><ele>91.42857142857143</ele><time>2026-04-02T09:57:38.427Z</time></trkpt><trkpt lat="45.391135" lon="10.62153"><ele>91.57142857142857</ele><time>2026-04-02T09:57:40.432Z</time></trkpt><trkpt lat="45.39119" lon="10.6215767"><ele>91.71428571428571</ele><time>2026-04-02T09:57:41.428Z</time></trkpt><trkpt lat="45.3912533" lon="10.621625"><ele>91.85714285714286</ele><time>2026-04-02T09:57:42.429Z</time></trkpt><trkpt lat="45.3913217" lon="10.621675"><ele>92.0</ele><time>2026-04-02T09:57:43.464Z</time></trkpt><trkpt lat="45.3913867" lon="10.6217283"><ele>92.0</ele><time>2026-04-02T09:57:44.454Z</time></trkpt><trkpt lat="45.3914467" lon="10.6217733"><ele>92.0</ele><time>2026-04-02T09:57:45.432Z</time></trkpt><trkpt lat="45.3915067" lon="10.6218133"><ele>92.0</ele><time>2026-04-02T09:57:46.429Z</time></trkpt><trkpt lat="45.39161" lon="10.6219"><ele>92.0</ele><time>2026-04-02T09:57:48.426Z</time></trkpt><trkpt lat="45.391705" lon="10.6219667"><ele>92.0</ele><time>2026-04-02T09:57:50.434Z</time></trkpt><trkpt lat="45.3917967" lon="10.62203"><ele>92.19999999999999</ele><time>2026-04-02T09:57:52.428Z</time></trkpt><trkpt lat="45.391865" lon="10.6220883"><ele>92.4</ele><time>2026-04-02T09:57:54.435Z</time></trkpt><trkpt lat="45.3919333" lon="10.6221467"><ele>92.6</ele><time>2026-04-02T09:57:56.426Z</time></trkpt><trkpt lat="45.3920267" lon="10.622195"><ele>92.80000000000001</ele><time>2026-04-02T09:57:58.426Z</time></trkpt><trkpt lat="45.39212" lon="10.62225"><ele>93.0</ele><time>2026-04-02T09:58:00.431Z</time></trkpt><trkpt lat="45.3922083" lon="10.622315"><ele>92.60000000000001</ele><time>2026-04-02T09:58:02.435Z</time></trkpt><trkpt lat="45.3923" lon="10.6223817"><ele>92.2</ele><time>2026-04-02T09:58:04.426Z</time></trkpt><trkpt lat="45.392395" lon="10.6224433"><ele>91.8</ele><time>2026-04-02T09:58:06.435Z</time></trkpt><trkpt lat="45.3925033" lon="10.6224867"><ele>91.4</ele><time>2026-04-02T09:58:08.434Z</time></trkpt><trkpt lat="45.392615" lon="10.6225417"><ele>91.0</ele><time>2026-04-02T09:58:10.43Z</time></trkpt><trkpt lat="45.3926733" lon="10.6225767"><ele>91.0</ele><time>2026-04-02T09:58:11.423Z</time></trkpt><trkpt lat="45.3927333" lon="10.622615"><ele>91.0</ele><time>2026-04-02T09:58:12.429Z</time></trkpt><trkpt lat="45.3928" lon="10.6226517"><ele>91.0</ele><time>2026-04-02T09:58:13.427Z</time></trkpt><trkpt lat="45.3928667" lon="10.6226967"><ele>91.0</ele><time>2026-04-02T09:58:14.43Z</time></trkpt><trkpt lat="45.392935" lon="10.62274"><ele>91.0</ele><time>2026-04-02T09:58:15.432Z</time></trkpt><trkpt lat="45.39301" lon="10.62278"><ele>91.0</ele><time>2026-04-02T09:58:16.423Z</time></trkpt><trkpt lat="45.39309" lon="10.6228167"><ele>91.75</ele><time>2026-04-02T09:58:17.435Z</time></trkpt><trkpt lat="45.393185" lon="10.6228433"><ele>92.5</ele><time>2026-04-02T09:58:18.424Z</time></trkpt><trkpt lat="45.3932933" lon="10.622915"><ele>93.25</ele><time>2026-04-02T09:58:19.429Z</time></trkpt><trkpt lat="45.3934233" lon="10.6229583"><ele>94.0</ele><time>2026-04-02T09:58:20.429Z</time></trkpt><trkpt lat="45.3935883" lon="10.6229917"><ele>94.0</ele><time>2026-04-02T09:58:21.433Z</time></trkpt><trkpt lat="45.3937167" lon="10.6230383"><ele>94.0</ele><time>2026-04-02T09:58:22.438Z</time></trkpt><trkpt lat="45.3938483" lon="10.6230833"><ele>94.0</ele><time>2026-04-02T09:58:23.431Z</time></trkpt><trkpt lat="45.3939617" lon="10.6231083"><ele>94.0</ele><time>2026-04-02T09:58:24.424Z</time></trkpt><trkpt lat="45.3940517" lon="10.623145"><ele>94.66666666666666</ele><time>2026-04-02T09:58:25.438Z</time></trkpt><trkpt lat="45.3941167" lon="10.6231717"><ele>95.33333333333333</ele><time>2026-04-02T09:58:26.428Z</time></trkpt><trkpt lat="45.3941967" lon="10.6232083"><ele>96.0</ele><time>2026-04-02T09:58:28.431Z</time></trkpt><trkpt lat="45.39426" lon="10.623225"><ele>96.66666666666666</ele><time>2026-04-02T09:58:30.43Z</time></trkpt><trkpt lat="45.3943583" lon="10.623175"><ele>97.33333333333333</ele><time>2026-04-02T09:58:32.431Z</time></trkpt><trkpt lat="45.3944333" lon="10.6231017"><ele>98.0</ele><time>2026-04-02T09:58:33.425Z</time></trkpt><trkpt lat="45.3945217" lon="10.6230233"><ele>98.0</ele><time>2026-04-02T09:58:34.433Z</time></trkpt><trkpt lat="45.394645" lon="10.6229267"><ele>98.0</ele><time>2026-04-02T09:58:35.436Z</time></trkpt><trkpt lat="45.3947933" lon="10.6228183"><ele>98.0</ele><time>2026-04-02T09:58:36.427Z</time></trkpt><trkpt lat="45.39493" lon="10.6227717"><ele>98.0</ele><time>2026-04-02T09:58:37.428Z</time></trkpt><trkpt lat="45.3950683" lon="10.6227283"><ele>96.4</ele><time>2026-04-02T09:58:38.432Z</time></trkpt><trkpt lat="45.3951733" lon="10.622715"><ele>94.80000000000001</ele><time>2026-04-02T09:58:39.429Z</time></trkpt><trkpt lat="45.3952867" lon="10.6227083"><ele>93.2</ele><time>2026-04-02T09:58:40.426Z</time></trkpt><trkpt lat="45.39539" lon="10.6227183"><ele>91.6</ele><time>2026-04-02T09:58:41.429Z</time></trkpt><trkpt lat="45.3954917" lon="10.6227433"><ele>90.0</ele><time>2026-04-02T09:58:42.429Z</time></trkpt><trkpt lat="45.395615" lon="10.622775"><ele>90.0</ele><time>2026-04-02T09:58:43.426Z</time></trkpt><trkpt lat="45.3956917" lon="10.62278"><ele>90.0</ele><time>2026-04-02T09:58:44.427Z</time></trkpt><trkpt lat="45.3957667" lon="10.6227433"><ele>90.0</ele><time>2026-04-02T09:58:45.423Z</time></trkpt><trkpt lat="45.3958167" lon="10.6226683"><ele>90.0</ele><time>2026-04-02T09:58:46.425Z</time></trkpt><trkpt lat="45.3958433" lon="10.6225467"><ele>90.0</ele><time>2026-04-02T09:58:47.433Z</time></trkpt><trkpt lat="45.3958567" lon="10.6224417"><ele>90.0</ele><time>2026-04-02T09:58:48.431Z</time></trkpt><trkpt lat="45.3958083" lon="10.6223117"><ele>90.0</ele><time>2026-04-02T09:58:49.434Z</time></trkpt><trkpt lat="45.39576" lon="10.622205"><ele>90.0</ele><time>2026-04-02T09:58:50.43Z</time></trkpt><trkpt lat="45.3957283" lon="10.6220367"><ele>90.0</ele><time>2026-04-02T09:58:51.429Z</time></trkpt><trkpt lat="45.3957167" lon="10.6218433"><ele>90.0</ele><time>2026-04-02T09:58:52.43Z</time></trkpt><trkpt lat="45.3957283" lon="10.6216267"><ele>90.33333333333333</ele><time>2026-04-02T09:58:53.439Z</time></trkpt><trkpt lat="45.3957233" lon="10.6213817"><ele>90.66666666666666</ele><time>2026-04-02T09:58:54.438Z</time></trkpt><trkpt lat="45.3957167" lon="10.6211033"><ele>91.0</ele><time>2026-04-02T09:58:55.434Z</time></trkpt><trkpt lat="45.3956867" lon="10.620825"><ele>91.66666666666666</ele><time>2026-04-02T09:58:56.43Z</time></trkpt><trkpt lat="45.3957167" lon="10.6204883"><ele>92.33333333333333</ele><time>2026-04-02T09:58:57.433Z</time></trkpt><trkpt lat="45.3956883" lon="10.6202317"><ele>93.0</ele><time>2026-04-02T09:58:58.428Z</time></trkpt><trkpt lat="45.395665" lon="10.6200167"><ele>93.33333333333333</ele><time>2026-04-02T09:58:59.427Z</time></trkpt><trkpt lat="45.3955717" lon="10.619755"><ele>93.66666666666666</ele><time>2026-04-02T09:59:00.434Z</time></trkpt><trkpt lat="45.3955017" lon="10.619465"><ele>94.0</ele><time>2026-04-02T09:59:01.43Z</time></trkpt><trkpt lat="45.3953617" lon="10.6192517"><ele>94.0</ele><time>2026-04-02T09:59:02.448Z</time></trkpt><trkpt lat="45.3952467" lon="10.6189883"><ele>94.0</ele><time>2026-04-02T09:59:03.434Z</time></trkpt><trkpt lat="45.3951483" lon="10.6186783"><ele>95.5</ele><time>2026-04-02T09:59:04.431Z</time></trkpt><trkpt lat="45.395065" lon="10.618345"><ele>97.0</ele><time>2026-04-02T09:59:05.428Z</time></trkpt><trkpt lat="45.3949417" lon="10.6180467"><ele>99.5</ele><time>2026-04-02T09:59:06.43Z</time></trkpt><trkpt lat="45.3948483" lon="10.6177067"><ele>102.0</ele><time>2026-04-02T09:59:07.435Z</time></trkpt><trkpt lat="45.39469" lon="10.6174367"><ele>101.0</ele><time>2026-04-02T09:59:08.424Z</time></trkpt><trkpt lat="45.39455" lon="10.6171583"><ele>100.0</ele><time>2026-04-02T09:59:09.424Z</time></trkpt><trkpt lat="45.3944283" lon="10.6168933"><ele>100.0</ele><time>2026-04-02T09:59:10.435Z</time></trkpt><trkpt lat="45.394315" lon="10.6166367"><ele>100.0</ele><time>2026-04-02T09:59:11.43Z</time></trkpt><trkpt lat="45.394225" lon="10.616385"><ele>100.0</ele><time>2026-04-02T09:59:12.429Z</time></trkpt><trkpt lat="45.3941167" lon="10.6161733"><ele>100.5</ele><time>2026-04-02T09:59:13.432Z</time></trkpt><trkpt lat="45.39403" lon="10.6159967"><ele>101.0</ele><time>2026-04-02T09:59:14.433Z</time></trkpt><trkpt lat="45.39398" lon="10.6158517"><ele>101.5</ele><time>2026-04-02T09:59:15.427Z</time></trkpt><trkpt lat="45.3939333" lon="10.6157017"><ele>102.0</ele><time>2026-04-02T09:59:16.432Z</time></trkpt><trkpt lat="45.393895" lon="10.6155633"><ele>102.0</ele><time>2026-04-02T09:59:17.431Z</time></trkpt><trkpt lat="45.393845" lon="10.615415"><ele>102.0</ele><time>2026-04-02T09:59:18.432Z</time></trkpt><trkpt lat="45.3937867" lon="10.6152733"><ele>102.0</ele><time>2026-04-02T09:59:19.43Z</time></trkpt><trkpt lat="45.3937317" lon="10.6151633"><ele>102.0</ele><time>2026-04-02T09:59:20.429Z</time></trkpt><trkpt lat="45.39369" lon="10.6150683"><ele>102.0</ele><time>2026-04-02T09:59:21.431Z</time></trkpt><trkpt lat="45.393675" lon="10.614975"><ele>101.39999999999999</ele><time>2026-04-02T09:59:22.426Z</time></trkpt><trkpt lat="45.3936533" lon="10.6148867"><ele>100.8</ele><time>2026-04-02T09:59:23.431Z</time></trkpt><trkpt lat="45.3936217" lon="10.6147783"><ele>100.2</ele><time>2026-04-02T09:59:24.425Z</time></trkpt><trkpt lat="45.3935833" lon="10.6146667"><ele>99.6</ele><time>2026-04-02T09:59:25.432Z</time></trkpt><trkpt lat="45.3935517" lon="10.6145333"><ele>99.0</ele><time>2026-04-02T09:59:26.434Z</time></trkpt><trkpt lat="45.3935433" lon="10.6143617"><ele>99.0</ele><time>2026-04-02T09:59:27.433Z</time></trkpt><trkpt lat="45.3935417" lon="10.6142383"><ele>99.0</ele><time>2026-04-02T09:59:28.426Z</time></trkpt><trkpt lat="45.3935383" lon="10.6140983"><ele>99.0</ele><time>2026-04-02T09:59:29.436Z</time></trkpt><trkpt lat="45.3935467" lon="10.61399"><ele>99.0</ele><time>2026-04-02T09:59:30.426Z</time></trkpt><trkpt lat="45.393565" lon="10.6138833"><ele>99.0</ele><time>2026-04-02T09:59:31.426Z</time></trkpt><trkpt lat="45.393615" lon="10.6137183"><ele>99.0</ele><time>2026-04-02T09:59:33.433Z</time></trkpt><trkpt lat="45.393685" lon="10.6135983"><ele>99.0</ele><time>2026-04-02T09:59:35.43Z</time></trkpt><trkpt lat="45.3937667" lon="10.6135483"><ele>99.0</ele><time>2026-04-02T09:59:37.438Z</time></trkpt><trkpt lat="45.3938417" lon="10.6135367"><ele>99.0</ele><time>2026-04-02T09:59:39.432Z</time></trkpt><trkpt lat="45.3938733" lon="10.6134333"><ele>99.0</ele><time>2026-04-02T09:59:41.427Z</time></trkpt><trkpt lat="45.3938767" lon="10.613245"><ele>99.85714285714286</ele><time>2026-04-02T09:59:43.432Z</time></trkpt><trkpt lat="45.3938833" lon="10.6131483"><ele>100.71428571428571</ele><time>2026-04-02T09:59:44.433Z</time></trkpt><trkpt lat="45.3938983" lon="10.61306"><ele>101.57142857142857</ele><time>2026-04-02T09:59:45.431Z</time></trkpt><trkpt lat="45.39391" lon="10.6129567"><ele>102.42857142857143</ele><time>2026-04-02T09:59:46.431Z</time></trkpt><trkpt lat="45.3939267" lon="10.6128467"><ele>103.28571428571428</ele><time>2026-04-02T09:59:47.425Z</time></trkpt><trkpt lat="45.393935" lon="10.612735"><ele>104.14285714285714</ele><time>2026-04-02T09:59:48.432Z</time></trkpt><trkpt lat="45.393935" lon="10.6126183"><ele>105.0</ele><time>2026-04-02T09:59:49.423Z</time></trkpt><trkpt lat="45.39394" lon="10.6125033"><ele>105.0</ele><time>2026-04-02T09:59:50.432Z</time></trkpt><trkpt lat="45.3939517" lon="10.6123833"><ele>105.0</ele><time>2026-04-02T09:59:51.432Z</time></trkpt><trkpt lat="45.39397" lon="10.6122683"><ele>105.0</ele><time>2026-04-02T09:59:52.432Z</time></trkpt><trkpt lat="45.3939833" lon="10.61215"><ele>105.0</ele><time>2026-04-02T09:59:53.427Z</time></trkpt><trkpt lat="45.3939733" lon="10.6120267"><ele>105.0</ele><time>2026-04-02T09:59:54.425Z</time></trkpt><trkpt lat="45.393985" lon="10.6119217"><ele>105.0</ele><time>2026-04-02T09:59:55.435Z</time></trkpt><trkpt lat="45.3940133" lon="10.6118083"><ele>104.66666666666667</ele><time>2026-04-02T09:59:56.426Z</time></trkpt><trkpt lat="45.3940533" lon="10.6116967"><ele>104.33333333333334</ele><time>2026-04-02T09:59:57.432Z</time></trkpt><trkpt lat="45.3941" lon="10.61159"><ele>104.0</ele><time>2026-04-02T09:59:58.429Z</time></trkpt><trkpt lat="45.3941483" lon="10.6114867"><ele>103.66666666666667</ele><time>2026-04-02T09:59:59.431Z</time></trkpt><trkpt lat="45.3941883" lon="10.6113817"><ele>103.33333333333334</ele><time>2026-04-02T10:00:00.447Z</time></trkpt><trkpt lat="45.394215" lon="10.6112983"><ele>103.0</ele><time>2026-04-02T10:00:01.434Z</time></trkpt><trkpt lat="45.3942283" lon="10.6111933"><ele>102.4</ele><time>2026-04-02T10:00:02.426Z</time></trkpt><trkpt lat="45.3942333" lon="10.61108"><ele>101.80000000000001</ele><time>2026-04-02T10:00:03.432Z</time></trkpt><trkpt lat="45.3942367" lon="10.610955"><ele>101.2</ele><time>2026-04-02T10:00:04.425Z</time></trkpt><trkpt lat="45.3942417" lon="10.6108183"><ele>100.6</ele><time>2026-04-02T10:00:05.43Z</time></trkpt><trkpt lat="45.39423" lon="10.610675"><ele>100.0</ele><time>2026-04-02T10:00:06.424Z</time></trkpt><trkpt lat="45.39423" lon="10.6105483"><ele>100.0</ele><time>2026-04-02T10:00:07.423Z</time></trkpt><trkpt lat="45.3942267" lon="10.6104183"><ele>100.0</ele><time>2026-04-02T10:00:08.43Z</time></trkpt><trkpt lat="45.3942467" lon="10.6102967"><ele>100.0</ele><time>2026-04-02T10:00:09.431Z</time></trkpt><trkpt lat="45.394245" lon="10.61015"><ele>100.0</ele><time>2026-04-02T10:00:10.432Z</time></trkpt><trkpt lat="45.394335" lon="10.6100583"><ele>100.0</ele><time>2026-04-02T10:00:11.432Z</time></trkpt><trkpt lat="45.3943983" lon="10.60994"><ele>99.5</ele><time>2026-04-02T10:00:12.434Z</time></trkpt><trkpt lat="45.3944533" lon="10.609805"><ele>99.0</ele><time>2026-04-02T10:00:13.431Z</time></trkpt><trkpt lat="45.3945067" lon="10.6096567"><ele>98.5</ele><time>2026-04-02T10:00:14.44Z</time></trkpt><trkpt lat="45.3945583" lon="10.6094933"><ele>98.0</ele><time>2026-04-02T10:00:15.424Z</time></trkpt><trkpt lat="45.394585" lon="10.6093033"><ele>97.5</ele><time>2026-04-02T10:00:16.434Z</time></trkpt><trkpt lat="45.3946383" lon="10.6091"><ele>97.0</ele><time>2026-04-02T10:00:17.436Z</time></trkpt><trkpt lat="45.3946717" lon="10.6089317"><ele>96.5</ele><time>2026-04-02T10:00:18.433Z</time></trkpt><trkpt lat="45.3947217" lon="10.608705"><ele>96.0</ele><time>2026-04-02T10:00:19.432Z</time></trkpt><trkpt lat="45.394755" lon="10.6084783"><ele>98.66666666666666</ele><time>2026-04-02T10:00:20.429Z</time></trkpt><trkpt lat="45.3947517" lon="10.6082483"><ele>101.33333333333333</ele><time>2026-04-02T10:00:21.429Z</time></trkpt><trkpt lat="45.3947333" lon="10.608005"><ele>104.0</ele><time>2026-04-02T10:00:22.427Z</time></trkpt><trkpt lat="45.39473" lon="10.6077483"><ele>104.0</ele><time>2026-04-02T10:00:23.436Z</time></trkpt><trkpt lat="45.39476" lon="10.6075267"><ele>104.0</ele><time>2026-04-02T10:00:24.433Z</time></trkpt><trkpt lat="45.3947767" lon="10.6073"><ele>104.0</ele><time>2026-04-02T10:00:25.433Z</time></trkpt><trkpt lat="45.39479" lon="10.6071183"><ele>104.0</ele><time>2026-04-02T10:00:26.428Z</time></trkpt><trkpt lat="45.39478" lon="10.6069283"><ele>103.5</ele><time>2026-04-02T10:00:27.433Z</time></trkpt><trkpt lat="45.3947733" lon="10.60675"><ele>103.0</ele><time>2026-04-02T10:00:28.424Z</time></trkpt><trkpt lat="45.3947883" lon="10.6065633"><ele>102.5</ele><time>2026-04-02T10:00:29.438Z</time></trkpt><trkpt lat="45.3948217" lon="10.6063633"><ele>102.0</ele><time>2026-04-02T10:00:30.432Z</time></trkpt><trkpt lat="45.394835" lon="10.6062117"><ele>102.19999999999999</ele><time>2026-04-02T10:00:31.432Z</time></trkpt><trkpt lat="45.3948767" lon="10.6060383"><ele>102.4</ele><time>2026-04-02T10:00:32.438Z</time></trkpt><trkpt lat="45.39489" lon="10.60589"><ele>102.6</ele><time>2026-04-02T10:00:33.435Z</time></trkpt><trkpt lat="45.3949033" lon="10.6057767"><ele>102.80000000000001</ele><time>2026-04-02T10:00:34.424Z</time></trkpt><trkpt lat="45.3949267" lon="10.605625"><ele>103.0</ele><time>2026-04-02T10:00:36.434Z</time></trkpt><trkpt lat="45.39494" lon="10.60552"><ele>103.0</ele><time>2026-04-02T10:00:37.433Z</time></trkpt><trkpt lat="45.3949617" lon="10.6054067"><ele>103.0</ele><time>2026-04-02T10:00:38.428Z</time></trkpt><trkpt lat="45.3949833" lon="10.6052783"><ele>103.0</ele><time>2026-04-02T10:00:39.432Z</time></trkpt><trkpt lat="45.395005" lon="10.6051433"><ele>103.0</ele><time>2026-04-02T10:00:40.426Z</time></trkpt><trkpt lat="45.3950417" lon="10.6050067"><ele>103.0</ele><time>2026-04-02T10:00:41.426Z</time></trkpt><trkpt lat="45.3950967" lon="10.60488"><ele>102.4</ele><time>2026-04-02T10:00:42.432Z</time></trkpt><trkpt lat="45.3951383" lon="10.6047367"><ele>101.80000000000001</ele><time>2026-04-02T10:00:43.441Z</time></trkpt><trkpt lat="45.3951633" lon="10.6046033"><ele>101.2</ele><time>2026-04-02T10:00:44.425Z</time></trkpt><trkpt lat="45.3951917" lon="10.6044967"><ele>100.6</ele><time>2026-04-02T10:00:45.428Z</time></trkpt><trkpt lat="45.3952367" lon="10.6043983"><ele>100.0</ele><time>2026-04-02T10:00:46.429Z</time></trkpt><trkpt lat="45.3952767" lon="10.6042867"><ele>100.0</ele><time>2026-04-02T10:00:47.426Z</time></trkpt><trkpt lat="45.3953133" lon="10.6041733"><ele>100.0</ele><time>2026-04-02T10:00:48.436Z</time></trkpt><trkpt lat="45.3953433" lon="10.6040617"><ele>100.0</ele><time>2026-04-02T10:00:49.434Z</time></trkpt><trkpt lat="45.3953817" lon="10.6039217"><ele>100.0</ele><time>2026-04-02T10:00:50.433Z</time></trkpt><trkpt lat="45.395415" lon="10.6038183"><ele>100.0</ele><time>2026-04-02T10:00:51.429Z</time></trkpt><trkpt lat="45.3954783" lon="10.6036683"><ele>99.6</ele><time>2026-04-02T10:00:52.43Z</time></trkpt><trkpt lat="45.3954933" lon="10.6035417"><ele>99.2</ele><time>2026-04-02T10:00:53.429Z</time></trkpt><trkpt lat="45.3955367" lon="10.603435"><ele>98.80000000000001</ele><time>2026-04-02T10:00:54.426Z</time></trkpt><trkpt lat="45.39559" lon="10.6032683"><ele>98.4</ele><time>2026-04-02T10:00:55.433Z</time></trkpt><trkpt lat="45.395625" lon="10.60313"><ele>98.0</ele><time>2026-04-02T10:00:56.43Z</time></trkpt><trkpt lat="45.395685" lon="10.6029967"><ele>99.0</ele><time>2026-04-02T10:00:57.431Z</time></trkpt><trkpt lat="45.3956967" lon="10.6028217"><ele>100.0</ele><time>2026-04-02T10:00:58.424Z</time></trkpt><trkpt lat="45.3957417" lon="10.6026683"><ele>101.0</ele><time>2026-04-02T10:00:59.433Z</time></trkpt><trkpt lat="45.3957917" lon="10.6025367"><ele>102.0</ele><time>2026-04-02T10:01:00.426Z</time></trkpt><trkpt lat="45.3958467" lon="10.6023983"><ele>102.0</ele><time>2026-04-02T10:01:01.432Z</time></trkpt><trkpt lat="45.3958933" lon="10.602255"><ele>102.0</ele><time>2026-04-02T10:01:02.431Z</time></trkpt><trkpt lat="45.3959567" lon="10.6020817"><ele>102.0</ele><time>2026-04-02T10:01:03.437Z</time></trkpt><trkpt lat="45.3960083" lon="10.6019367"><ele>102.0</ele><time>2026-04-02T10:01:04.428Z</time></trkpt><trkpt lat="45.3960517" lon="10.6018133"><ele>101.8</ele><time>2026-04-02T10:01:05.432Z</time></trkpt><trkpt lat="45.3960983" lon="10.6016433"><ele>101.6</ele><time>2026-04-02T10:01:06.426Z</time></trkpt><trkpt lat="45.3961167" lon="10.6015233"><ele>101.39999999999999</ele><time>2026-04-02T10:01:07.425Z</time></trkpt><trkpt lat="45.3961583" lon="10.6013917"><ele>101.19999999999999</ele><time>2026-04-02T10:01:08.431Z</time></trkpt><trkpt lat="45.3962" lon="10.601235"><ele>101.0</ele><time>2026-04-02T10:01:09.43Z</time></trkpt><trkpt lat="45.3962783" lon="10.60111"><ele>100.8</ele><time>2026-04-02T10:01:10.427Z</time></trkpt><trkpt lat="45.3963083" lon="10.6009667"><ele>100.6</ele><time>2026-04-02T10:01:11.433Z</time></trkpt><trkpt lat="45.39635" lon="10.6008183"><ele>100.4</ele><time>2026-04-02T10:01:12.431Z</time></trkpt><trkpt lat="45.396395" lon="10.6006717"><ele>100.2</ele><time>2026-04-02T10:01:13.435Z</time></trkpt><trkpt lat="45.3964433" lon="10.600525"><ele>100.0</ele><time>2026-04-02T10:01:14.428Z</time></trkpt><trkpt lat="45.396485" lon="10.60039"><ele>100.6</ele><time>2026-04-02T10:01:15.437Z</time></trkpt><trkpt lat="45.39651" lon="10.600255"><ele>101.2</ele><time>2026-04-02T10:01:16.422Z</time></trkpt><trkpt lat="45.396555" lon="10.6001333"><ele>101.80000000000001</ele><time>2026-04-02T10:01:17.426Z</time></trkpt><trkpt lat="45.3965983" lon="10.6000133"><ele>102.4</ele><time>2026-04-02T10:01:18.43Z</time></trkpt><trkpt lat="45.39666" lon="10.599895"><ele>103.0</ele><time>2026-04-02T10:01:19.424Z</time></trkpt><trkpt lat="45.39672" lon="10.599775"><ele>103.0</ele><time>2026-04-02T10:01:20.429Z</time></trkpt><trkpt lat="45.39676" lon="10.5996167"><ele>103.0</ele><time>2026-04-02T10:01:21.434Z</time></trkpt><trkpt lat="45.3968083" lon="10.5994567"><ele>103.0</ele><time>2026-04-02T10:01:22.431Z</time></trkpt><trkpt lat="45.3968267" lon="10.5992917"><ele>103.0</ele><time>2026-04-02T10:01:23.431Z</time></trkpt><trkpt lat="45.396865" lon="10.5991483"><ele>103.0</ele><time>2026-04-02T10:01:24.446Z</time></trkpt><trkpt lat="45.39689" lon="10.5990033"><ele>103.0</ele><time>2026-04-02T10:01:25.429Z</time></trkpt><trkpt lat="45.3969533" lon="10.5988217"><ele>103.0</ele><time>2026-04-02T10:01:26.424Z</time></trkpt><trkpt lat="45.3970017" lon="10.5986433"><ele>103.0</ele><time>2026-04-02T10:01:27.433Z</time></trkpt><trkpt lat="45.3970367" lon="10.5984767"><ele>103.0</ele><time>2026-04-02T10:01:28.434Z</time></trkpt><trkpt lat="45.397115" lon="10.598265"><ele>103.0</ele><time>2026-04-02T10:01:29.429Z</time></trkpt><trkpt lat="45.397165" lon="10.59812"><ele>103.0</ele><time>2026-04-02T10:01:30.426Z</time></trkpt><trkpt lat="45.3971817" lon="10.597875"><ele>103.2</ele><time>2026-04-02T10:01:31.439Z</time></trkpt><trkpt lat="45.3972433" lon="10.5977117"><ele>103.4</ele><time>2026-04-02T10:01:32.425Z</time></trkpt><trkpt lat="45.397255" lon="10.5975383"><ele>103.60000000000001</ele><time>2026-04-02T10:01:33.432Z</time></trkpt><trkpt lat="45.39727" lon="10.5974133"><ele>103.80000000000001</ele><time>2026-04-02T10:01:34.428Z</time></trkpt><trkpt lat="45.397285" lon="10.5973133"><ele>104.0</ele><time>2026-04-02T10:01:35.437Z</time></trkpt><trkpt lat="45.3973067" lon="10.5971617"><ele>103.99999999999999</ele><time>2026-04-02T10:01:37.429Z</time></trkpt><trkpt lat="45.3972683" lon="10.5970667"><ele>104.0</ele><time>2026-04-02T10:01:39.431Z</time></trkpt><trkpt lat="45.397205" lon="10.5970433"><ele>104.0</ele><time>2026-04-02T10:01:40.425Z</time></trkpt><trkpt lat="45.3971267" lon="10.5970283"><ele>104.0</ele><time>2026-04-02T10:01:41.426Z</time></trkpt><trkpt lat="45.3970267" lon="10.5970317"><ele>103.99999999999999</ele><time>2026-04-02T10:01:42.429Z</time></trkpt><trkpt lat="45.39692" lon="10.5970583"><ele>104.0</ele><time>2026-04-02T10:01:43.431Z</time></trkpt><trkpt lat="45.3968117" lon="10.5971017"><ele>103.75</ele><time>2026-04-02T10:01:44.432Z</time></trkpt><trkpt lat="45.3966883" lon="10.5971583"><ele>103.5</ele><time>2026-04-02T10:01:45.427Z</time></trkpt><trkpt lat="45.396565" lon="10.5972183"><ele>103.25</ele><time>2026-04-02T10:01:46.429Z</time></trkpt><trkpt lat="45.3964783" lon="10.597215"><ele>103.0</ele><time>2026-04-02T10:01:47.428Z</time></trkpt><trkpt lat="45.39637" lon="10.59723"><ele>104.25</ele><time>2026-04-02T10:01:48.427Z</time></trkpt><trkpt lat="45.3962433" lon="10.5972033"><ele>105.5</ele><time>2026-04-02T10:01:49.428Z</time></trkpt><trkpt lat="45.3961383" lon="10.5971417"><ele>106.75</ele><time>2026-04-02T10:01:50.43Z</time></trkpt><trkpt lat="45.3960017" lon="10.5971117"><ele>108.0</ele><time>2026-04-02T10:01:51.441Z</time></trkpt><trkpt lat="45.3958533" lon="10.5970783"><ele>108.0</ele><time>2026-04-02T10:01:52.43Z</time></trkpt><trkpt lat="45.3957333" lon="10.5970233"><ele>108.00000000000001</ele><time>2026-04-02T10:01:53.433Z</time></trkpt><trkpt lat="45.39564" lon="10.5969717"><ele>108.00000000000001</ele><time>2026-04-02T10:01:54.438Z</time></trkpt><trkpt lat="45.395555" lon="10.5969083"><ele>108.0</ele><time>2026-04-02T10:01:55.432Z</time></trkpt><trkpt lat="45.3955167" lon="10.5967717"><ele>108.0</ele><time>2026-04-02T10:01:56.429Z</time></trkpt><trkpt lat="45.3954367" lon="10.596645"><ele>109.0</ele><time>2026-04-02T10:01:57.452Z</time></trkpt><trkpt lat="45.3953617" lon="10.596485"><ele>110.0</ele><time>2026-04-02T10:01:58.429Z</time></trkpt><trkpt lat="45.3952633" lon="10.59636"><ele>111.0</ele><time>2026-04-02T10:01:59.43Z</time></trkpt><trkpt lat="45.395155" lon="10.5962483"><ele>112.0</ele><time>2026-04-02T10:02:00.434Z</time></trkpt><trkpt lat="45.3950083" lon="10.59622"><ele>112.0</ele><time>2026-04-02T10:02:01.425Z</time></trkpt><trkpt lat="45.3948733" lon="10.5961717"><ele>112.0</ele><time>2026-04-02T10:02:02.425Z</time></trkpt><trkpt lat="45.394705" lon="10.596165"><ele>112.0</ele><time>2026-04-02T10:02:03.438Z</time></trkpt><trkpt lat="45.39458" lon="10.59613"><ele>112.0</ele><time>2026-04-02T10:02:04.424Z</time></trkpt><trkpt lat="45.3945" lon="10.596065"><ele>112.8</ele><time>2026-04-02T10:02:05.429Z</time></trkpt><trkpt lat="45.3943767" lon="10.59606"><ele>113.6</ele><time>2026-04-02T10:02:06.431Z</time></trkpt><trkpt lat="45.3942767" lon="10.5960183"><ele>114.39999999999999</ele><time>2026-04-02T10:02:07.434Z</time></trkpt><trkpt lat="45.3941817" lon="10.5959767"><ele>115.19999999999999</ele><time>2026-04-02T10:02:08.424Z</time></trkpt><trkpt lat="45.3940833" lon="10.5959217"><ele>116.0</ele><time>2026-04-02T10:02:09.432Z</time></trkpt><trkpt lat="45.393975" lon="10.59588"><ele>115.99999999999999</ele><time>2026-04-02T10:02:10.424Z</time></trkpt><trkpt lat="45.3939083" lon="10.5958283"><ele>116.0</ele><time>2026-04-02T10:02:11.427Z</time></trkpt><trkpt lat="45.3938567" lon="10.595775"><ele>116.0</ele><time>2026-04-02T10:02:12.436Z</time></trkpt><trkpt lat="45.393825" lon="10.5956767"><ele>116.0</ele><time>2026-04-02T10:02:13.437Z</time></trkpt><trkpt lat="45.393795" lon="10.595565"><ele>115.99999999999999</ele><time>2026-04-02T10:02:14.425Z</time></trkpt><trkpt lat="45.393795" lon="10.5954183"><ele>116.0</ele><time>2026-04-02T10:02:15.435Z</time></trkpt><trkpt lat="45.3938067" lon="10.5952417"><ele>115.5</ele><time>2026-04-02T10:02:16.43Z</time></trkpt><trkpt lat="45.39385" lon="10.5950583"><ele>115.0</ele><time>2026-04-02T10:02:17.428Z</time></trkpt><trkpt lat="45.3939017" lon="10.5948367"><ele>114.5</ele><time>2026-04-02T10:02:18.433Z</time></trkpt><trkpt lat="45.3939217" lon="10.5946367"><ele>114.0</ele><time>2026-04-02T10:02:19.434Z</time></trkpt><trkpt lat="45.3939383" lon="10.5944117"><ele>114.0</ele><time>2026-04-02T10:02:20.44Z</time></trkpt><trkpt lat="45.3939317" lon="10.5942217"><ele>114.0</ele><time>2026-04-02T10:02:21.425Z</time></trkpt><trkpt lat="45.39391" lon="10.5940983"><ele>114.0</ele><time>2026-04-02T10:02:22.432Z</time></trkpt><trkpt lat="45.393925" lon="10.593955"><ele>114.0</ele><time>2026-04-02T10:02:23.43Z</time></trkpt><trkpt lat="45.393905" lon="10.5938467"><ele>114.0</ele><time>2026-04-02T10:02:24.43Z</time></trkpt><trkpt lat="45.393865" lon="10.5937617"><ele>114.5</ele><time>2026-04-02T10:02:25.429Z</time></trkpt><trkpt lat="45.3937967" lon="10.5936833"><ele>115.0</ele><time>2026-04-02T10:02:26.432Z</time></trkpt><trkpt lat="45.39371" lon="10.59361"><ele>115.5</ele><time>2026-04-02T10:02:27.426Z</time></trkpt><trkpt lat="45.3936" lon="10.593555"><ele>116.0</ele><time>2026-04-02T10:02:28.43Z</time></trkpt><trkpt lat="45.3934467" lon="10.5935217"><ele>116.0</ele><time>2026-04-02T10:02:29.433Z</time></trkpt><trkpt lat="45.3933183" lon="10.5934383"><ele>116.0</ele><time>2026-04-02T10:02:30.427Z</time></trkpt><trkpt lat="45.3931767" lon="10.593335"><ele>116.0</ele><time>2026-04-02T10:02:31.431Z</time></trkpt><trkpt lat="45.3930583" lon="10.5932233"><ele>116.0</ele><time>2026-04-02T10:02:32.443Z</time></trkpt><trkpt lat="45.39293" lon="10.59314"><ele>116.6</ele><time>2026-04-02T10:02:33.425Z</time></trkpt><trkpt lat="45.392815" lon="10.5931"><ele>117.19999999999999</ele><time>2026-04-02T10:02:34.427Z</time></trkpt><trkpt lat="45.39271" lon="10.59307"><ele>117.80000000000001</ele><time>2026-04-02T10:02:35.432Z</time></trkpt><trkpt lat="45.3926183" lon="10.5930233"><ele>118.4</ele><time>2026-04-02T10:02:36.428Z</time></trkpt><trkpt lat="45.3925517" lon="10.5929517"><ele>119.0</ele><time>2026-04-02T10:02:37.435Z</time></trkpt><trkpt lat="45.3924983" lon="10.5928633"><ele>119.2</ele><time>2026-04-02T10:02:38.429Z</time></trkpt><trkpt lat="45.392475" lon="10.5927517"><ele>119.4</ele><time>2026-04-02T10:02:39.429Z</time></trkpt><trkpt lat="45.3924667" lon="10.59264"><ele>119.6</ele><time>2026-04-02T10:02:40.426Z</time></trkpt><trkpt lat="45.392475" lon="10.59252"><ele>119.8</ele><time>2026-04-02T10:02:41.434Z</time></trkpt><trkpt lat="45.3925117" lon="10.5923683"><ele>120.0</ele><time>2026-04-02T10:02:42.426Z</time></trkpt><trkpt lat="45.3925517" lon="10.592205"><ele>120.0</ele><time>2026-04-02T10:02:43.427Z</time></trkpt><trkpt lat="45.3925783" lon="10.5920117"><ele>120.0</ele><time>2026-04-02T10:02:44.429Z</time></trkpt><trkpt lat="45.3925083" lon="10.59183"><ele>120.0</ele><time>2026-04-02T10:02:45.43Z</time></trkpt><trkpt lat="45.3924667" lon="10.5915983"><ele>120.33333333333334</ele><time>2026-04-02T10:02:46.426Z</time></trkpt><trkpt lat="45.392375" lon="10.5914083"><ele>120.66666666666667</ele><time>2026-04-02T10:02:47.435Z</time></trkpt><trkpt lat="45.392285" lon="10.5912267"><ele>121.0</ele><time>2026-04-02T10:02:48.444Z</time></trkpt><trkpt lat="45.392185" lon="10.5910633"><ele>120.0</ele><time>2026-04-02T10:02:49.428Z</time></trkpt><trkpt lat="45.3920983" lon="10.5909133"><ele>119.0</ele><time>2026-04-02T10:02:50.435Z</time></trkpt><trkpt lat="45.3920683" lon="10.5907417"><ele>118.0</ele><time>2026-04-02T10:02:51.433Z</time></trkpt><trkpt lat="45.3920267" lon="10.5905467"><ele>117.0</ele><time>2026-04-02T10:02:52.428Z</time></trkpt><trkpt lat="45.39201" lon="10.590335"><ele>117.0</ele><time>2026-04-02T10:02:53.461Z</time></trkpt><trkpt lat="45.3920233" lon="10.5900617"><ele>117.0</ele><time>2026-04-02T10:02:54.431Z</time></trkpt><trkpt lat="45.3920017" lon="10.589885"><ele>117.0</ele><time>2026-04-02T10:02:55.425Z</time></trkpt><trkpt lat="45.39202" lon="10.5896217"><ele>117.33333333333334</ele><time>2026-04-02T10:02:56.432Z</time></trkpt><trkpt lat="45.3920317" lon="10.5893567"><ele>117.66666666666667</ele><time>2026-04-02T10:02:57.434Z</time></trkpt><trkpt lat="45.3920183" lon="10.5891183"><ele>118.0</ele><time>2026-04-02T10:02:58.43Z</time></trkpt><trkpt lat="45.391985" lon="10.5888833"><ele>118.0</ele><time>2026-04-02T10:02:59.426Z</time></trkpt><trkpt lat="45.39196" lon="10.5886967"><ele>118.0</ele><time>2026-04-02T10:03:00.434Z</time></trkpt><trkpt lat="45.3919333" lon="10.5885217"><ele>118.0</ele><time>2026-04-02T10:03:01.432Z</time></trkpt><trkpt lat="45.3918917" lon="10.588355"><ele>118.0</ele><time>2026-04-02T10:03:02.422Z</time></trkpt><trkpt lat="45.3918117" lon="10.588135"><ele>118.0</ele><time>2026-04-02T10:03:03.456Z</time></trkpt><trkpt lat="45.391735" lon="10.5879433"><ele>118.0</ele><time>2026-04-02T10:03:04.462Z</time></trkpt><trkpt lat="45.39165" lon="10.5878033"><ele>118.0</ele><time>2026-04-02T10:03:05.428Z</time></trkpt><trkpt lat="45.39155" lon="10.5876933"><ele>118.0</ele><time>2026-04-02T10:03:06.427Z</time></trkpt><trkpt lat="45.39144" lon="10.587605"><ele>117.4</ele><time>2026-04-02T10:03:07.434Z</time></trkpt><trkpt lat="45.3913667" lon="10.58752"><ele>116.80000000000001</ele><time>2026-04-02T10:03:08.424Z</time></trkpt><trkpt lat="45.391335" lon="10.5873767"><ele>116.2</ele><time>2026-04-02T10:03:09.437Z</time></trkpt><trkpt lat="45.39128" lon="10.5872483"><ele>115.6</ele><time>2026-04-02T10:03:10.432Z</time></trkpt><trkpt lat="45.39126" lon="10.5870983"><ele>115.0</ele><time>2026-04-02T10:03:11.441Z</time></trkpt><trkpt lat="45.3912767" lon="10.5869083"><ele>114.66666666666667</ele><time>2026-04-02T10:03:12.427Z</time></trkpt><trkpt lat="45.391365" lon="10.5866783"><ele>114.33333333333334</ele><time>2026-04-02T10:03:13.428Z</time></trkpt><trkpt lat="45.3914367" lon="10.5865033"><ele>114.0</ele><time>2026-04-02T10:03:14.427Z</time></trkpt><trkpt lat="45.3915083" lon="10.586315"><ele>114.33333333333334</ele><time>2026-04-02T10:03:15.429Z</time></trkpt><trkpt lat="45.391605" lon="10.5860933"><ele>114.66666666666667</ele><time>2026-04-02T10:03:16.431Z</time></trkpt><trkpt lat="45.3916333" lon="10.5858983"><ele>115.0</ele><time>2026-04-02T10:03:17.428Z</time></trkpt><trkpt lat="45.3916583" lon="10.58569"><ele>115.0</ele><time>2026-04-02T10:03:18.431Z</time></trkpt><trkpt lat="45.3916733" lon="10.5854883"><ele>115.0</ele><time>2026-04-02T10:03:19.428Z</time></trkpt><trkpt lat="45.3917067" lon="10.5852983"><ele>115.0</ele><time>2026-04-02T10:03:20.431Z</time></trkpt><trkpt lat="45.3917533" lon="10.585125"><ele>115.0</ele><time>2026-04-02T10:03:21.429Z</time></trkpt><trkpt lat="45.39179" lon="10.5849667"><ele>115.00000000000001</ele><time>2026-04-02T10:03:22.423Z</time></trkpt><trkpt lat="45.39182" lon="10.5848383"><ele>115.0</ele><time>2026-04-02T10:03:23.431Z</time></trkpt><trkpt lat="45.3918017" lon="10.5847367"><ele>115.0</ele><time>2026-04-02T10:03:24.426Z</time></trkpt><trkpt lat="45.3917717" lon="10.5846317"><ele>115.0</ele><time>2026-04-02T10:03:25.424Z</time></trkpt><trkpt lat="45.39172" lon="10.5845383"><ele>115.00000000000001</ele><time>2026-04-02T10:03:26.43Z</time></trkpt><trkpt lat="45.3916517" lon="10.5844617"><ele>115.0</ele><time>2026-04-02T10:03:27.427Z</time></trkpt><trkpt lat="45.3915733" lon="10.5843933"><ele>115.0</ele><time>2026-04-02T10:03:28.431Z</time></trkpt><trkpt lat="45.3914967" lon="10.5843267"><ele>115.0</ele><time>2026-04-02T10:03:29.432Z</time></trkpt><trkpt lat="45.3914183" lon="10.5842533"><ele>115.0</ele><time>2026-04-02T10:03:30.435Z</time></trkpt><trkpt lat="45.3913333" lon="10.5841967"><ele>115.0</ele><time>2026-04-02T10:03:31.431Z</time></trkpt><trkpt lat="45.39126" lon="10.5841217"><ele>115.0</ele><time>2026-04-02T10:03:32.442Z</time></trkpt><trkpt lat="45.3911917" lon="10.58405"><ele>115.8</ele><time>2026-04-02T10:03:33.438Z</time></trkpt><trkpt lat="45.391125" lon="10.58398"><ele>116.6</ele><time>2026-04-02T10:03:34.425Z</time></trkpt><trkpt lat="45.3910717" lon="10.5839217"><ele>117.4</ele><time>2026-04-02T10:03:35.434Z</time></trkpt><trkpt lat="45.3909683" lon="10.5838767"><ele>118.2</ele><time>2026-04-02T10:03:37.427Z</time></trkpt><trkpt lat="45.39086" lon="10.5838817"><ele>119.0</ele><time>2026-04-02T10:03:39.431Z</time></trkpt><trkpt lat="45.39073" lon="10.5838883"><ele>119.0</ele><time>2026-04-02T10:03:41.434Z</time></trkpt><trkpt lat="45.3906617" lon="10.5838917"><ele>119.0</ele><time>2026-04-02T10:03:42.432Z</time></trkpt><trkpt lat="45.3905833" lon="10.5838967"><ele>119.0</ele><time>2026-04-02T10:03:43.436Z</time></trkpt><trkpt lat="45.39051" lon="10.5839033"><ele>119.0</ele><time>2026-04-02T10:03:44.425Z</time></trkpt><trkpt lat="45.3904367" lon="10.5839083"><ele>119.0</ele><time>2026-04-02T10:03:45.429Z</time></trkpt><trkpt lat="45.39036" lon="10.5839133"><ele>119.0</ele><time>2026-04-02T10:03:46.424Z</time></trkpt><trkpt lat="45.3902867" lon="10.5839167"><ele>119.0</ele><time>2026-04-02T10:03:47.43Z</time></trkpt><trkpt lat="45.390215" lon="10.58391"><ele>118.99999999999999</ele><time>2026-04-02T10:03:48.435Z</time></trkpt><trkpt lat="45.390145" lon="10.5838983"><ele>119.0</ele><time>2026-04-02T10:03:49.433Z</time></trkpt><trkpt lat="45.3900767" lon="10.5838817"><ele>119.0</ele><time>2026-04-02T10:03:50.427Z</time></trkpt><trkpt lat="45.390015" lon="10.583845"><ele>119.0</ele><time>2026-04-02T10:03:51.435Z</time></trkpt><trkpt lat="45.3899567" lon="10.5838017"><ele>118.99999999999999</ele><time>2026-04-02T10:03:52.431Z</time></trkpt><trkpt lat="45.3898883" lon="10.583665"><ele>119.0</ele><time>2026-04-02T10:03:54.431Z</time></trkpt><trkpt lat="45.3898767" lon="10.5835117"><ele>119.16666666666666</ele><time>2026-04-02T10:03:56.425Z</time></trkpt><trkpt lat="45.3899067" lon="10.5833533"><ele>119.33333333333333</ele><time>2026-04-02T10:03:58.43Z</time></trkpt><trkpt lat="45.3899417" lon="10.583265"><ele>119.5</ele><time>2026-04-02T10:03:59.427Z</time></trkpt><trkpt lat="45.3899783" lon="10.5831783"><ele>119.66666666666666</ele><time>2026-04-02T10:04:00.428Z</time></trkpt><trkpt lat="45.390015" lon="10.583095"><ele>119.83333333333333</ele><time>2026-04-02T10:04:01.432Z</time></trkpt><trkpt lat="45.3899933" lon="10.58301"><ele>120.0</ele><time>2026-04-02T10:04:03.427Z</time></trkpt><trkpt lat="45.3898583" lon="10.5829633"><ele>120.0</ele><time>2026-04-02T10:04:05.427Z</time></trkpt><trkpt lat="45.3897667" lon="10.582945"><ele>120.0</ele><time>2026-04-02T10:04:06.426Z</time></trkpt><trkpt lat="45.3896733" lon="10.5829283"><ele>120.0</ele><time>2026-04-02T10:04:07.435Z</time></trkpt><trkpt lat="45.3895783" lon="10.5829317"><ele>120.0</ele><time>2026-04-02T10:04:08.431Z</time></trkpt><trkpt lat="45.389485" lon="10.5829433"><ele>120.0</ele><time>2026-04-02T10:04:09.432Z</time></trkpt><trkpt lat="45.3893933" lon="10.5829583"><ele>118.0</ele><time>2026-04-02T10:04:10.427Z</time></trkpt><trkpt lat="45.389305" lon="10.5829533"><ele>116.0</ele><time>2026-04-02T10:04:11.432Z</time></trkpt><trkpt lat="45.3892067" lon="10.5829367"><ele>114.0</ele><time>2026-04-02T10:04:12.425Z</time></trkpt><trkpt lat="45.3891" lon="10.58292"><ele>112.0</ele><time>2026-04-02T10:04:13.435Z</time></trkpt><trkpt lat="45.3889833" lon="10.5829133"><ele>110.0</ele><time>2026-04-02T10:04:14.429Z</time></trkpt><trkpt lat="45.3888517" lon="10.5829083"><ele>108.8</ele><time>2026-04-02T10:04:15.437Z</time></trkpt><trkpt lat="45.3887583" lon="10.5828867"><ele>107.6</ele><time>2026-04-02T10:04:16.424Z</time></trkpt><trkpt lat="45.3886767" lon="10.5828733"><ele>106.4</ele><time>2026-04-02T10:04:17.432Z</time></trkpt><trkpt lat="45.388595" lon="10.582805"><ele>105.2</ele><time>2026-04-02T10:04:19.424Z</time></trkpt><trkpt lat="45.38859" lon="10.582655"><ele>104.0</ele><time>2026-04-02T10:04:21.425Z</time></trkpt><trkpt lat="45.3886083" lon="10.5825333"><ele>103.66666666666666</ele><time>2026-04-02T10:04:22.424Z</time></trkpt><trkpt lat="45.38866" lon="10.582355"><ele>103.33333333333334</ele><time>2026-04-02T10:04:23.432Z</time></trkpt><trkpt lat="45.3887367" lon="10.582135"><ele>103.0</ele><time>2026-04-02T10:04:24.429Z</time></trkpt><trkpt lat="45.3887567" lon="10.58193"><ele>102.66666666666667</ele><time>2026-04-02T10:04:25.427Z</time></trkpt><trkpt lat="45.38879" lon="10.581705"><ele>102.33333333333334</ele><time>2026-04-02T10:04:26.43Z</time></trkpt><trkpt lat="45.3888317" lon="10.5814717"><ele>102.0</ele><time>2026-04-02T10:04:27.439Z</time></trkpt><trkpt lat="45.3888833" lon="10.5812467"><ele>103.66666666666666</ele><time>2026-04-02T10:04:28.425Z</time></trkpt><trkpt lat="45.3889317" lon="10.5810317"><ele>105.33333333333333</ele><time>2026-04-02T10:04:29.425Z</time></trkpt><trkpt lat="45.38898" lon="10.5808183"><ele>107.0</ele><time>2026-04-02T10:04:30.431Z</time></trkpt><trkpt lat="45.3890333" lon="10.5806133"><ele>107.0</ele><time>2026-04-02T10:04:31.433Z</time></trkpt><trkpt lat="45.3890733" lon="10.58043"><ele>107.0</ele><time>2026-04-02T10:04:32.427Z</time></trkpt><trkpt lat="45.3891067" lon="10.5802633"><ele>107.0</ele><time>2026-04-02T10:04:33.442Z</time></trkpt><trkpt lat="45.3891433" lon="10.5801167"><ele>107.0</ele><time>2026-04-02T10:04:34.433Z</time></trkpt><trkpt lat="45.389165" lon="10.58"><ele>106.99999999999999</ele><time>2026-04-02T10:04:35.43Z</time></trkpt><trkpt lat="45.3891917" lon="10.5799133"><ele>107.0</ele><time>2026-04-02T10:04:36.438Z</time></trkpt><trkpt lat="45.389185" lon="10.5797683"><ele>107.0</ele><time>2026-04-02T10:04:38.427Z</time></trkpt><trkpt lat="45.3891317" lon="10.5797183"><ele>107.0</ele><time>2026-04-02T10:04:39.431Z</time></trkpt><trkpt lat="45.3890467" lon="10.57969"><ele>106.99999999999999</ele><time>2026-04-02T10:04:40.429Z</time></trkpt><trkpt lat="45.3889333" lon="10.5796717"><ele>107.0</ele><time>2026-04-02T10:04:41.424Z</time></trkpt><trkpt lat="45.3887767" lon="10.5796533"><ele>105.66666666666666</ele><time>2026-04-02T10:04:42.424Z</time></trkpt><trkpt lat="45.38861" lon="10.5795983"><ele>104.33333333333334</ele><time>2026-04-02T10:04:43.432Z</time></trkpt><trkpt lat="45.3884383" lon="10.5795317"><ele>103.0</ele><time>2026-04-02T10:04:44.424Z</time></trkpt><trkpt lat="45.3882517" lon="10.5794583"><ele>103.0</ele><time>2026-04-02T10:04:45.435Z</time></trkpt><trkpt lat="45.3880367" lon="10.5793733"><ele>103.0</ele><time>2026-04-02T10:04:46.427Z</time></trkpt><trkpt lat="45.3878017" lon="10.5793067"><ele>101.5</ele><time>2026-04-02T10:04:47.433Z</time></trkpt><trkpt lat="45.3875583" lon="10.57921"><ele>100.0</ele><time>2026-04-02T10:04:48.423Z</time></trkpt><trkpt lat="45.3873417" lon="10.579115"><ele>100.33333333333334</ele><time>2026-04-02T10:04:49.432Z</time></trkpt><trkpt lat="45.3871417" lon="10.5790467"><ele>100.66666666666666</ele><time>2026-04-02T10:04:50.43Z</time></trkpt><trkpt lat="45.3869567" lon="10.57897"><ele>101.0</ele><time>2026-04-02T10:04:51.425Z</time></trkpt><trkpt lat="45.3867733" lon="10.5789167"><ele>101.0</ele><time>2026-04-02T10:04:52.429Z</time></trkpt><trkpt lat="45.3865883" lon="10.578885"><ele>101.0</ele><time>2026-04-02T10:04:53.433Z</time></trkpt><trkpt lat="45.38639" lon="10.57883"><ele>101.0</ele><time>2026-04-02T10:04:54.439Z</time></trkpt><trkpt lat="45.386195" lon="10.5787883"><ele>100.66666666666666</ele><time>2026-04-02T10:04:55.434Z</time></trkpt><trkpt lat="45.3860083" lon="10.5787617"><ele>100.33333333333334</ele><time>2026-04-02T10:04:56.43Z</time></trkpt><trkpt lat="45.3858567" lon="10.5787217"><ele>100.0</ele><time>2026-04-02T10:04:57.426Z</time></trkpt><trkpt lat="45.3857167" lon="10.5787117"><ele>100.0</ele><time>2026-04-02T10:04:58.429Z</time></trkpt><trkpt lat="45.385605" lon="10.5786867"><ele>100.0</ele><time>2026-04-02T10:04:59.428Z</time></trkpt><trkpt lat="45.3855083" lon="10.5786867"><ele>100.0</ele><time>2026-04-02T10:05:00.423Z</time></trkpt><trkpt lat="45.3854167" lon="10.5786133"><ele>100.0</ele><time>2026-04-02T10:05:02.427Z</time></trkpt><trkpt lat="45.385385" lon="10.5784617"><ele>100.0</ele><time>2026-04-02T10:05:04.429Z</time></trkpt><trkpt lat="45.3854033" lon="10.57835"><ele>102.0</ele><time>2026-04-02T10:05:05.429Z</time></trkpt><trkpt lat="45.3854367" lon="10.57819"><ele>104.0</ele><time>2026-04-02T10:05:06.436Z</time></trkpt><trkpt lat="45.38548" lon="10.5779617"><ele>106.0</ele><time>2026-04-02T10:05:07.426Z</time></trkpt><trkpt lat="45.3855283" lon="10.5777117"><ele>106.33333333333334</ele><time>2026-04-02T10:05:08.432Z</time></trkpt><trkpt lat="45.38555" lon="10.5774733"><ele>106.66666666666666</ele><time>2026-04-02T10:05:09.427Z</time></trkpt><trkpt lat="45.3855833" lon="10.5772217"><ele>107.0</ele><time>2026-04-02T10:05:10.426Z</time></trkpt><trkpt lat="45.3856117" lon="10.5770117"><ele>107.0</ele><time>2026-04-02T10:05:11.426Z</time></trkpt><trkpt lat="45.3856517" lon="10.5768333"><ele>107.0</ele><time>2026-04-02T10:05:12.429Z</time></trkpt><trkpt lat="45.3856667" lon="10.576605"><ele>107.0</ele><time>2026-04-02T10:05:13.426Z</time></trkpt><trkpt lat="45.3857083" lon="10.5764067"><ele>107.0</ele><time>2026-04-02T10:05:14.424Z</time></trkpt><trkpt lat="45.385775" lon="10.5761917"><ele>106.33333333333333</ele><time>2026-04-02T10:05:15.424Z</time></trkpt><trkpt lat="45.3858333" lon="10.5759567"><ele>105.66666666666666</ele><time>2026-04-02T10:05:16.442Z</time></trkpt><trkpt lat="45.3859117" lon="10.5757333"><ele>105.0</ele><time>2026-04-02T10:05:17.432Z</time></trkpt><trkpt lat="45.3859867" lon="10.5755517"><ele>105.0</ele><time>2026-04-02T10:05:18.43Z</time></trkpt><trkpt lat="45.3860683" lon="10.5753733"><ele>105.0</ele><time>2026-04-02T10:05:19.432Z</time></trkpt><trkpt lat="45.38614" lon="10.5752183"><ele>105.0</ele><time>2026-04-02T10:05:20.422Z</time></trkpt><trkpt lat="45.3862317" lon="10.57507"><ele>105.0</ele><time>2026-04-02T10:05:21.428Z</time></trkpt><trkpt lat="45.3863617" lon="10.5749717"><ele>104.4</ele><time>2026-04-02T10:05:22.422Z</time></trkpt><trkpt lat="45.3864683" lon="10.5748383"><ele>103.8</ele><time>2026-04-02T10:05:23.424Z</time></trkpt><trkpt lat="45.3865383" lon="10.5747233"><ele>103.19999999999999</ele><time>2026-04-02T10:05:24.428Z</time></trkpt><trkpt lat="45.38659" lon="10.5745983"><ele>102.6</ele><time>2026-04-02T10:05:25.428Z</time></trkpt><trkpt lat="45.3866167" lon="10.5744633"><ele>102.0</ele><time>2026-04-02T10:05:26.423Z</time></trkpt><trkpt lat="45.386615" lon="10.574285"><ele>102.0</ele><time>2026-04-02T10:05:27.426Z</time></trkpt><trkpt lat="45.3865983" lon="10.5740967"><ele>102.0</ele><time>2026-04-02T10:05:28.43Z</time></trkpt><trkpt lat="45.3865633" lon="10.5739117"><ele>102.0</ele><time>2026-04-02T10:05:29.427Z</time></trkpt><trkpt lat="45.38654" lon="10.57374"><ele>102.0</ele><time>2026-04-02T10:05:30.431Z</time></trkpt><trkpt lat="45.3864867" lon="10.5735133"><ele>102.25</ele><time>2026-04-02T10:05:31.43Z</time></trkpt><trkpt lat="45.3864533" lon="10.5733033"><ele>102.5</ele><time>2026-04-02T10:05:32.424Z</time></trkpt><trkpt lat="45.3864367" lon="10.5731467"><ele>102.75</ele><time>2026-04-02T10:05:33.428Z</time></trkpt><trkpt lat="45.3864067" lon="10.5729967"><ele>103.0</ele><time>2026-04-02T10:05:34.424Z</time></trkpt><trkpt lat="45.3864033" lon="10.5728783"><ele>103.00000000000001</ele><time>2026-04-02T10:05:35.425Z</time></trkpt><trkpt lat="45.386425" lon="10.57277"><ele>103.0</ele><time>2026-04-02T10:05:36.427Z</time></trkpt><trkpt lat="45.38646" lon="10.5726667"><ele>103.0</ele><time>2026-04-02T10:05:37.431Z</time></trkpt><trkpt lat="45.38652" lon="10.57257"><ele>103.0</ele><time>2026-04-02T10:05:38.427Z</time></trkpt><trkpt lat="45.38661" lon="10.572495"><ele>103.00000000000001</ele><time>2026-04-02T10:05:39.425Z</time></trkpt><trkpt lat="45.3866633" lon="10.5724167"><ele>103.0</ele><time>2026-04-02T10:05:40.427Z</time></trkpt><trkpt lat="45.3866983" lon="10.57226"><ele>103.00000000000001</ele><time>2026-04-02T10:05:42.432Z</time></trkpt><trkpt lat="45.3866733" lon="10.57217"><ele>103.0</ele><time>2026-04-02T10:05:43.437Z</time></trkpt><trkpt lat="45.38663" lon="10.5720883"><ele>103.0</ele><time>2026-04-02T10:05:44.43Z</time></trkpt><trkpt lat="45.38656" lon="10.5720367"><ele>103.0</ele><time>2026-04-02T10:05:45.426Z</time></trkpt><trkpt lat="45.3864733" lon="10.5719967"><ele>103.00000000000001</ele><time>2026-04-02T10:05:46.423Z</time></trkpt><trkpt lat="45.3863967" lon="10.5719467"><ele>103.0</ele><time>2026-04-02T10:05:47.431Z</time></trkpt><trkpt lat="45.386325" lon="10.5719033"><ele>103.83333333333334</ele><time>2026-04-02T10:05:48.424Z</time></trkpt><trkpt lat="45.3862733" lon="10.571845"><ele>104.66666666666667</ele><time>2026-04-02T10:05:49.43Z</time></trkpt><trkpt lat="45.3862283" lon="10.5717183"><ele>105.5</ele><time>2026-04-02T10:05:51.433Z</time></trkpt><trkpt lat="45.38622" lon="10.571605"><ele>106.33333333333334</ele><time>2026-04-02T10:05:53.425Z</time></trkpt><trkpt lat="45.386215" lon="10.5715017"><ele>107.16666666666667</ele><time>2026-04-02T10:05:55.432Z</time></trkpt><trkpt lat="45.3862267" lon="10.57135"><ele>108.0</ele><time>2026-04-02T10:05:57.431Z</time></trkpt><trkpt lat="45.3862483" lon="10.57118"><ele>108.2</ele><time>2026-04-02T10:05:59.43Z</time></trkpt><trkpt lat="45.3862717" lon="10.571075"><ele>108.4</ele><time>2026-04-02T10:06:00.438Z</time></trkpt><trkpt lat="45.3862883" lon="10.57096"><ele>108.60000000000001</ele><time>2026-04-02T10:06:01.423Z</time></trkpt><trkpt lat="45.3863117" lon="10.5708217"><ele>108.80000000000001</ele><time>2026-04-02T10:06:02.428Z</time></trkpt><trkpt lat="45.38633" lon="10.5706467"><ele>109.0</ele><time>2026-04-02T10:06:03.432Z</time></trkpt><trkpt lat="45.386365" lon="10.5705017"><ele>108.5</ele><time>2026-04-02T10:06:04.423Z</time></trkpt><trkpt lat="45.3863783" lon="10.570365"><ele>108.0</ele><time>2026-04-02T10:06:05.428Z</time></trkpt><trkpt lat="45.38643" lon="10.57021"><ele>107.5</ele><time>2026-04-02T10:06:06.426Z</time></trkpt><trkpt lat="45.3864917" lon="10.5700333"><ele>107.0</ele><time>2026-04-02T10:06:07.424Z</time></trkpt><trkpt lat="45.38657" lon="10.5698733"><ele>108.5</ele><time>2026-04-02T10:06:08.429Z</time></trkpt><trkpt lat="45.3866567" lon="10.5697133"><ele>110.0</ele><time>2026-04-02T10:06:09.434Z</time></trkpt><trkpt lat="45.3867667" lon="10.56957"><ele>111.5</ele><time>2026-04-02T10:06:10.431Z</time></trkpt><trkpt lat="45.3868667" lon="10.56941"><ele>113.0</ele><time>2026-04-02T10:06:11.426Z</time></trkpt><trkpt lat="45.3869617" lon="10.5692817"><ele>113.0</ele><time>2026-04-02T10:06:12.43Z</time></trkpt><trkpt lat="45.38702" lon="10.5691567"><ele>113.0</ele><time>2026-04-02T10:06:13.429Z</time></trkpt><trkpt lat="45.3871133" lon="10.5690567"><ele>113.0</ele><time>2026-04-02T10:06:14.424Z</time></trkpt><trkpt lat="45.3872217" lon="10.5689533"><ele>113.0</ele><time>2026-04-02T10:06:15.43Z</time></trkpt><trkpt lat="45.3873533" lon="10.568865"><ele>113.0</ele><time>2026-04-02T10:06:16.428Z</time></trkpt><trkpt lat="45.3874783" lon="10.5687733"><ele>113.0</ele><time>2026-04-02T10:06:17.425Z</time></trkpt><trkpt lat="45.3876017" lon="10.5686583"><ele>113.0</ele><time>2026-04-02T10:06:18.422Z</time></trkpt><trkpt lat="45.3877267" lon="10.5685483"><ele>113.0</ele><time>2026-04-02T10:06:19.433Z</time></trkpt><trkpt lat="45.3878767" lon="10.5684317"><ele>112.75</ele><time>2026-04-02T10:06:20.426Z</time></trkpt><trkpt lat="45.3880167" lon="10.5683467"><ele>112.5</ele><time>2026-04-02T10:06:21.43Z</time></trkpt><trkpt lat="45.3881317" lon="10.568225"><ele>112.25</ele><time>2026-04-02T10:06:22.431Z</time></trkpt><trkpt lat="45.3882617" lon="10.56811"><ele>112.0</ele><time>2026-04-02T10:06:23.431Z</time></trkpt><trkpt lat="45.3883833" lon="10.5679717"><ele>112.0</ele><time>2026-04-02T10:06:24.425Z</time></trkpt><trkpt lat="45.3884717" lon="10.5678817"><ele>111.99999999999999</ele><time>2026-04-02T10:06:25.435Z</time></trkpt><trkpt lat="45.3885483" lon="10.5678183"><ele>111.99999999999999</ele><time>2026-04-02T10:06:26.422Z</time></trkpt><trkpt lat="45.3886183" lon="10.5677533"><ele>112.0</ele><time>2026-04-02T10:06:27.428Z</time></trkpt><trkpt lat="45.3886733" lon="10.5676933"><ele>112.0</ele><time>2026-04-02T10:06:28.43Z</time></trkpt><trkpt lat="45.38875" lon="10.5675967"><ele>112.00000000000001</ele><time>2026-04-02T10:06:30.423Z</time></trkpt><trkpt lat="45.3888017" lon="10.5675283"><ele>112.0</ele><time>2026-04-02T10:06:32.428Z</time></trkpt><trkpt lat="45.3888867" lon="10.567435"><ele>112.0</ele><time>2026-04-02T10:06:34.425Z</time></trkpt><trkpt lat="45.3889383" lon="10.56737"><ele>112.0</ele><time>2026-04-02T10:06:35.432Z</time></trkpt><trkpt lat="45.3890017" lon="10.5672967"><ele>112.00000000000001</ele><time>2026-04-02T10:06:36.424Z</time></trkpt><trkpt lat="45.38908" lon="10.5672233"><ele>112.0</ele><time>2026-04-02T10:06:37.427Z</time></trkpt><trkpt lat="45.3891833" lon="10.567145"><ele>112.0</ele><time>2026-04-02T10:06:38.427Z</time></trkpt><trkpt lat="45.38927" lon="10.5670683"><ele>112.0</ele><time>2026-04-02T10:06:39.426Z</time></trkpt><trkpt lat="45.38937" lon="10.566995"><ele>112.0</ele><time>2026-04-02T10:06:40.43Z</time></trkpt><trkpt lat="45.38949" lon="10.5669133"><ele>112.0</ele><time>2026-04-02T10:06:41.435Z</time></trkpt><trkpt lat="45.389605" lon="10.5668383"><ele>112.25</ele><time>2026-04-02T10:06:42.429Z</time></trkpt><trkpt lat="45.3897417" lon="10.56674"><ele>112.5</ele><time>2026-04-02T10:06:43.425Z</time></trkpt><trkpt lat="45.3898517" lon="10.5666917"><ele>112.75</ele><time>2026-04-02T10:06:44.423Z</time></trkpt><trkpt lat="45.3899467" lon="10.566645"><ele>113.0</ele><time>2026-04-02T10:06:45.427Z</time></trkpt><trkpt lat="45.3900267" lon="10.56656"><ele>113.0</ele><time>2026-04-02T10:06:46.425Z</time></trkpt><trkpt lat="45.39009" lon="10.5664933"><ele>113.0</ele><time>2026-04-02T10:06:47.424Z</time></trkpt><trkpt lat="45.390155" lon="10.5664067"><ele>113.0</ele><time>2026-04-02T10:06:48.427Z</time></trkpt><trkpt lat="45.39021" lon="10.5663367"><ele>113.0</ele><time>2026-04-02T10:06:49.426Z</time></trkpt><trkpt lat="45.3902583" lon="10.566275"><ele>113.0</ele><time>2026-04-02T10:06:51.427Z</time></trkpt><trkpt lat="45.3902917" lon="10.5661933"><ele>113.0</ele><time>2026-04-02T10:07:05.429Z</time></trkpt><trkpt lat="45.390335" lon="10.5661117"><ele>113.0</ele><time>2026-04-02T10:07:06.439Z</time></trkpt><trkpt lat="45.3903933" lon="10.5660183"><ele>113.5</ele><time>2026-04-02T10:07:07.427Z</time></trkpt><trkpt lat="45.3904567" lon="10.5659033"><ele>114.0</ele><time>2026-04-02T10:07:08.436Z</time></trkpt><trkpt lat="45.3905167" lon="10.5656783"><ele>114.5</ele><time>2026-04-02T10:07:09.427Z</time></trkpt><trkpt lat="45.3905833" lon="10.5655933"><ele>115.0</ele><time>2026-04-02T10:07:10.438Z</time></trkpt><trkpt lat="45.390625" lon="10.5654767"><ele>115.5</ele><time>2026-04-02T10:07:11.423Z</time></trkpt><trkpt lat="45.3906767" lon="10.565375"><ele>116.0</ele><time>2026-04-02T10:07:12.432Z</time></trkpt><trkpt lat="45.390775" lon="10.565175"><ele>116.5</ele><time>2026-04-02T10:07:14.427Z</time></trkpt><trkpt lat="45.39082" lon="10.5650233"><ele>117.0</ele><time>2026-04-02T10:07:15.423Z</time></trkpt><trkpt lat="45.390895" lon="10.5649033"><ele>117.0</ele><time>2026-04-02T10:07:16.443Z</time></trkpt><trkpt lat="45.3909533" lon="10.5647817"><ele>117.0</ele><time>2026-04-02T10:07:17.43Z</time></trkpt><trkpt lat="45.3909533" lon="10.5646017"><ele>117.0</ele><time>2026-04-02T10:07:18.456Z</time></trkpt><trkpt lat="45.3910083" lon="10.56444"><ele>117.0</ele><time>2026-04-02T10:07:19.422Z</time></trkpt><trkpt lat="45.391025" lon="10.5642933"><ele>117.0</ele><time>2026-04-02T10:07:20.423Z</time></trkpt><trkpt lat="45.3910417" lon="10.564135"><ele>117.0</ele><time>2026-04-02T10:07:21.422Z</time></trkpt><trkpt lat="45.39107" lon="10.5639783"><ele>117.0</ele><time>2026-04-02T10:07:22.422Z</time></trkpt><trkpt lat="45.3911283" lon="10.5638117"><ele>117.0</ele><time>2026-04-02T10:07:23.436Z</time></trkpt><trkpt lat="45.3911533" lon="10.5636317"><ele>117.0</ele><time>2026-04-02T10:07:24.429Z</time></trkpt><trkpt lat="45.3911717" lon="10.5634567"><ele>117.0</ele><time>2026-04-02T10:07:25.431Z</time></trkpt><trkpt lat="45.3912" lon="10.5632767"><ele>117.0</ele><time>2026-04-02T10:07:26.426Z</time></trkpt><trkpt lat="45.3912083" lon="10.5630833"><ele>117.0</ele><time>2026-04-02T10:07:27.431Z</time></trkpt><trkpt lat="45.3911967" lon="10.5629283"><ele>116.8</ele><time>2026-04-02T10:07:28.421Z</time></trkpt><trkpt lat="45.391185" lon="10.56279"><ele>116.6</ele><time>2026-04-02T10:07:29.434Z</time></trkpt><trkpt lat="45.3912033" lon="10.562685"><ele>116.39999999999999</ele><time>2026-04-02T10:07:30.426Z</time></trkpt><trkpt lat="45.3912267" lon="10.56256"><ele>116.19999999999999</ele><time>2026-04-02T10:07:31.423Z</time></trkpt><trkpt lat="45.3912967" lon="10.5624033"><ele>116.0</ele><time>2026-04-02T10:07:32.428Z</time></trkpt><trkpt lat="45.3913733" lon="10.5622183"><ele>115.75</ele><time>2026-04-02T10:07:33.427Z</time></trkpt><trkpt lat="45.3914533" lon="10.5620283"><ele>115.5</ele><time>2026-04-02T10:07:34.433Z</time></trkpt><trkpt lat="45.3915167" lon="10.5618367"><ele>115.25</ele><time>2026-04-02T10:07:35.43Z</time></trkpt><trkpt lat="45.39156" lon="10.561725"><ele>115.0</ele><time>2026-04-02T10:07:36.429Z</time></trkpt><trkpt lat="45.3915983" lon="10.561635"><ele>115.0</ele><time>2026-04-02T10:07:37.423Z</time></trkpt><trkpt lat="45.3916467" lon="10.5615167"><ele>115.0</ele><time>2026-04-02T10:07:39.427Z</time></trkpt><trkpt lat="45.3915517" lon="10.5614517"><ele>115.0</ele><time>2026-04-02T10:07:46.437Z</time></trkpt><trkpt lat="45.391425" lon="10.5614367"><ele>115.0</ele><time>2026-04-02T10:07:48.451Z</time></trkpt><trkpt lat="45.3913433" lon="10.561435"><ele>115.0</ele><time>2026-04-02T10:07:49.424Z</time></trkpt><trkpt lat="45.3912533" lon="10.5614317"><ele>115.25</ele><time>2026-04-02T10:07:50.424Z</time></trkpt><trkpt lat="45.3911583" lon="10.56142"><ele>115.5</ele><time>2026-04-02T10:07:51.431Z</time></trkpt><trkpt lat="45.3910483" lon="10.5614117"><ele>115.75</ele><time>2026-04-02T10:07:52.432Z</time></trkpt><trkpt lat="45.390915" lon="10.5613717"><ele>116.0</ele><time>2026-04-02T10:07:53.427Z</time></trkpt><trkpt lat="45.3907767" lon="10.5613383"><ele>116.0</ele><time>2026-04-02T10:07:54.424Z</time></trkpt><trkpt lat="45.3906283" lon="10.5613083"><ele>116.0</ele><time>2026-04-02T10:07:55.43Z</time></trkpt><trkpt lat="45.3905117" lon="10.5612733"><ele>116.0</ele><time>2026-04-02T10:07:56.434Z</time></trkpt><trkpt lat="45.390385" lon="10.5612417"><ele>116.0</ele><time>2026-04-02T10:07:57.433Z</time></trkpt><trkpt lat="45.3902683" lon="10.5611833"><ele>116.5</ele><time>2026-04-02T10:07:58.427Z</time></trkpt><trkpt lat="45.390135" lon="10.561125"><ele>117.0</ele><time>2026-04-02T10:07:59.428Z</time></trkpt><trkpt lat="45.390035" lon="10.561075"><ele>117.5</ele><time>2026-04-02T10:08:00.425Z</time></trkpt><trkpt lat="45.3899267" lon="10.5610633"><ele>118.0</ele><time>2026-04-02T10:08:01.434Z</time></trkpt><trkpt lat="45.38983" lon="10.56104"><ele>118.0</ele><time>2026-04-02T10:08:02.42Z</time></trkpt><trkpt lat="45.38973" lon="10.5610167"><ele>118.00000000000001</ele><time>2026-04-02T10:08:03.423Z</time></trkpt><trkpt lat="45.389645" lon="10.5609933"><ele>118.00000000000001</ele><time>2026-04-02T10:08:04.428Z</time></trkpt><trkpt lat="45.389565" lon="10.5609483"><ele>118.0</ele><time>2026-04-02T10:08:05.431Z</time></trkpt><trkpt lat="45.3894617" lon="10.56091"><ele>118.0</ele><time>2026-04-02T10:08:06.426Z</time></trkpt><trkpt lat="45.38934" lon="10.56088"><ele>118.25</ele><time>2026-04-02T10:08:07.432Z</time></trkpt><trkpt lat="45.389195" lon="10.5608517"><ele>118.5</ele><time>2026-04-02T10:08:08.429Z</time></trkpt><trkpt lat="45.389055" lon="10.5608033"><ele>118.75</ele><time>2026-04-02T10:08:09.421Z</time></trkpt><trkpt lat="45.3889183" lon="10.5607533"><ele>119.0</ele><time>2026-04-02T10:08:10.428Z</time></trkpt><trkpt lat="45.3888" lon="10.56071"><ele>119.0</ele><time>2026-04-02T10:08:11.432Z</time></trkpt><trkpt lat="45.388685" lon="10.5606633"><ele>119.0</ele><time>2026-04-02T10:08:12.425Z</time></trkpt><trkpt lat="45.388555" lon="10.5606517"><ele>119.0</ele><time>2026-04-02T10:08:13.426Z</time></trkpt><trkpt lat="45.3884317" lon="10.5607"><ele>119.0</ele><time>2026-04-02T10:08:14.428Z</time></trkpt><trkpt lat="45.3882967" lon="10.5608067"><ele>119.0</ele><time>2026-04-02T10:08:15.422Z</time></trkpt><trkpt lat="45.3881867" lon="10.5609317"><ele>119.0</ele><time>2026-04-02T10:08:16.431Z</time></trkpt><trkpt lat="45.38805" lon="10.56102"><ele>119.0</ele><time>2026-04-02T10:08:17.43Z</time></trkpt><trkpt lat="45.3879217" lon="10.56114"><ele>119.0</ele><time>2026-04-02T10:08:18.428Z</time></trkpt><trkpt lat="45.387805" lon="10.5613"><ele>116.0</ele><time>2026-04-02T10:08:19.427Z</time></trkpt><trkpt lat="45.387655" lon="10.5613433"><ele>113.0</ele><time>2026-04-02T10:08:20.426Z</time></trkpt><trkpt lat="45.38752" lon="10.5613967"><ele>110.0</ele><time>2026-04-02T10:08:21.423Z</time></trkpt><trkpt lat="45.3873517" lon="10.56143"><ele>110.0</ele><time>2026-04-02T10:08:22.427Z</time></trkpt><trkpt lat="45.3871917" lon="10.5614633"><ele>110.0</ele><time>2026-04-02T10:08:23.431Z</time></trkpt><trkpt lat="45.3870217" lon="10.5614517"><ele>110.0</ele><time>2026-04-02T10:08:24.429Z</time></trkpt><trkpt lat="45.3868467" lon="10.5613867"><ele>108.66666666666666</ele><time>2026-04-02T10:08:25.427Z</time></trkpt><trkpt lat="45.3866367" lon="10.5613183"><ele>107.33333333333334</ele><time>2026-04-02T10:08:26.424Z</time></trkpt><trkpt lat="45.3864417" lon="10.5612567"><ele>106.0</ele><time>2026-04-02T10:08:27.453Z</time></trkpt><trkpt lat="45.3862233" lon="10.5611683"><ele>105.0</ele><time>2026-04-02T10:08:28.423Z</time></trkpt><trkpt lat="45.3860083" lon="10.5610933"><ele>104.0</ele><time>2026-04-02T10:08:29.43Z</time></trkpt><trkpt lat="45.3857883" lon="10.5609883"><ele>104.0</ele><time>2026-04-02T10:08:30.431Z</time></trkpt><trkpt lat="45.3855567" lon="10.5608983"><ele>104.0</ele><time>2026-04-02T10:08:31.429Z</time></trkpt><trkpt lat="45.385305" lon="10.5608267"><ele>105.0</ele><time>2026-04-02T10:08:32.422Z</time></trkpt><trkpt lat="45.3850433" lon="10.56075"><ele>106.0</ele><time>2026-04-02T10:08:33.429Z</time></trkpt><trkpt lat="45.384795" lon="10.5606517"><ele>107.0</ele><time>2026-04-02T10:08:34.423Z</time></trkpt><trkpt lat="45.3845317" lon="10.5605667"><ele>108.0</ele><time>2026-04-02T10:08:35.435Z</time></trkpt><trkpt lat="45.3842833" lon="10.5604717"><ele>108.0</ele><time>2026-04-02T10:08:36.431Z</time></trkpt><trkpt lat="45.3840617" lon="10.560395"><ele>108.0</ele><time>2026-04-02T10:08:37.429Z</time></trkpt><trkpt lat="45.3838683" lon="10.56033"><ele>108.0</ele><time>2026-04-02T10:08:38.426Z</time></trkpt><trkpt lat="45.383695" lon="10.5602617"><ele>109.5</ele><time>2026-04-02T10:08:39.461Z</time></trkpt><trkpt lat="45.383555" lon="10.5602167"><ele>111.0</ele><time>2026-04-02T10:08:40.427Z</time></trkpt><trkpt lat="45.383405" lon="10.5601833"><ele>112.5</ele><time>2026-04-02T10:08:41.423Z</time></trkpt><trkpt lat="45.3833" lon="10.5601883"><ele>114.0</ele><time>2026-04-02T10:08:42.429Z</time></trkpt><trkpt lat="45.38317" lon="10.5602433"><ele>114.0</ele><time>2026-04-02T10:08:43.426Z</time></trkpt><trkpt lat="45.3830383" lon="10.5603317"><ele>114.0</ele><time>2026-04-02T10:08:44.43Z</time></trkpt><trkpt lat="45.382895" lon="10.560465"><ele>114.0</ele><time>2026-04-02T10:08:45.421Z</time></trkpt><trkpt lat="45.3827717" lon="10.5606333"><ele>113.33333333333334</ele><time>2026-04-02T10:08:46.426Z</time></trkpt><trkpt lat="45.3826283" lon="10.5608083"><ele>112.66666666666667</ele><time>2026-04-02T10:08:47.43Z</time></trkpt><trkpt lat="45.38249" lon="10.56097"><ele>112.0</ele><time>2026-04-02T10:08:48.429Z</time></trkpt><trkpt lat="45.382355" lon="10.5610783"><ele>112.0</ele><time>2026-04-02T10:08:49.432Z</time></trkpt><trkpt lat="45.3822133" lon="10.561165"><ele>112.0</ele><time>2026-04-02T10:08:50.428Z</time></trkpt><trkpt lat="45.3820817" lon="10.5611967"><ele>112.0</ele><time>2026-04-02T10:08:51.429Z</time></trkpt><trkpt lat="45.3819433" lon="10.5611667"><ele>112.0</ele><time>2026-04-02T10:08:52.427Z</time></trkpt><trkpt lat="45.3817833" lon="10.56112"><ele>112.66666666666667</ele><time>2026-04-02T10:08:53.423Z</time></trkpt><trkpt lat="45.3816117" lon="10.5610683"><ele>113.33333333333334</ele><time>2026-04-02T10:08:54.424Z</time></trkpt><trkpt lat="45.3814317" lon="10.56099"><ele>114.0</ele><time>2026-04-02T10:08:55.426Z</time></trkpt><trkpt lat="45.3812167" lon="10.5609467"><ele>115.33333333333334</ele><time>2026-04-02T10:08:56.433Z</time></trkpt><trkpt lat="45.3810267" lon="10.5609217"><ele>116.66666666666667</ele><time>2026-04-02T10:08:57.425Z</time></trkpt><trkpt lat="45.380875" lon="10.5608567"><ele>118.0</ele><time>2026-04-02T10:08:58.423Z</time></trkpt><trkpt lat="45.3807283" lon="10.5608117"><ele>118.0</ele><time>2026-04-02T10:08:59.426Z</time></trkpt><trkpt lat="45.3806083" lon="10.5607467"><ele>118.0</ele><time>2026-04-02T10:09:00.426Z</time></trkpt><trkpt lat="45.3804933" lon="10.560695"><ele>118.0</ele><time>2026-04-02T10:09:01.431Z</time></trkpt><trkpt lat="45.3803783" lon="10.560645"><ele>118.0</ele><time>2026-04-02T10:09:02.438Z</time></trkpt><trkpt lat="45.3802867" lon="10.5606"><ele>118.75</ele><time>2026-04-02T10:09:03.428Z</time></trkpt><trkpt lat="45.3801767" lon="10.56058"><ele>119.5</ele><time>2026-04-02T10:09:04.424Z</time></trkpt><trkpt lat="45.3800683" lon="10.5605017"><ele>120.25</ele><time>2026-04-02T10:09:05.435Z</time></trkpt><trkpt lat="45.3799433" lon="10.5604083"><ele>121.0</ele><time>2026-04-02T10:09:06.423Z</time></trkpt><trkpt lat="45.379835" lon="10.56029"><ele>121.0</ele><time>2026-04-02T10:09:07.423Z</time></trkpt><trkpt lat="45.37974" lon="10.56013"><ele>121.0</ele><time>2026-04-02T10:09:08.427Z</time></trkpt><trkpt lat="45.3796683" lon="10.5599617"><ele>121.0</ele><time>2026-04-02T10:09:09.429Z</time></trkpt><trkpt lat="45.379585" lon="10.559785"><ele>121.0</ele><time>2026-04-02T10:09:10.422Z</time></trkpt><trkpt lat="45.379505" lon="10.5596183"><ele>123.0</ele><time>2026-04-02T10:09:11.442Z</time></trkpt><trkpt lat="45.3794317" lon="10.5594367"><ele>125.0</ele><time>2026-04-02T10:09:12.432Z</time></trkpt><trkpt lat="45.3793483" lon="10.559255"><ele>127.0</ele><time>2026-04-02T10:09:13.431Z</time></trkpt><trkpt lat="45.3792817" lon="10.5591017"><ele>129.0</ele><time>2026-04-02T10:09:14.442Z</time></trkpt><trkpt lat="45.379245" lon="10.559015"><ele>129.0</ele><time>2026-04-02T10:09:15.437Z</time></trkpt><trkpt lat="45.3791433" lon="10.5589267"><ele>129.0</ele><time>2026-04-02T10:09:16.423Z</time></trkpt><trkpt lat="45.37902" lon="10.5588217"><ele>129.0</ele><time>2026-04-02T10:09:17.428Z</time></trkpt><trkpt lat="45.37894" lon="10.5586517"><ele>129.0</ele><time>2026-04-02T10:09:18.431Z</time></trkpt><trkpt lat="45.3788317" lon="10.5585767"><ele>129.4</ele><time>2026-04-02T10:09:19.425Z</time></trkpt><trkpt lat="45.3787183" lon="10.5585217"><ele>129.8</ele><time>2026-04-02T10:09:20.425Z</time></trkpt><trkpt lat="45.37862" lon="10.5584883"><ele>130.2</ele><time>2026-04-02T10:09:21.421Z</time></trkpt><trkpt lat="45.37856" lon="10.5584567"><ele>130.6</ele><time>2026-04-02T10:09:22.423Z</time></trkpt><trkpt lat="45.378505" lon="10.5583483"><ele>131.0</ele><time>2026-04-02T10:09:24.425Z</time></trkpt><trkpt lat="45.3785617" lon="10.5581733"><ele>131.0</ele><time>2026-04-02T10:09:26.421Z</time></trkpt><trkpt lat="45.3786133" lon="10.5580533"><ele>131.0</ele><time>2026-04-02T10:09:27.427Z</time></trkpt><trkpt lat="45.3786867" lon="10.5579067"><ele>131.0</ele><time>2026-04-02T10:09:28.433Z</time></trkpt><trkpt lat="45.3787717" lon="10.557755"><ele>131.0</ele><time>2026-04-02T10:09:29.425Z</time></trkpt><trkpt lat="45.3788567" lon="10.5575683"><ele>130.5</ele><time>2026-04-02T10:09:30.424Z</time></trkpt><trkpt lat="45.3789367" lon="10.5573833"><ele>130.0</ele><time>2026-04-02T10:09:31.432Z</time></trkpt><trkpt lat="45.379015" lon="10.5572167"><ele>129.5</ele><time>2026-04-02T10:09:32.421Z</time></trkpt><trkpt lat="45.379115" lon="10.557055"><ele>129.0</ele><time>2026-04-02T10:09:33.432Z</time></trkpt><trkpt lat="45.3792133" lon="10.5568867"><ele>128.75</ele><time>2026-04-02T10:09:34.428Z</time></trkpt><trkpt lat="45.3793067" lon="10.5567267"><ele>128.5</ele><time>2026-04-02T10:09:35.424Z</time></trkpt><trkpt lat="45.3794217" lon="10.5565967"><ele>128.25</ele><time>2026-04-02T10:09:36.43Z</time></trkpt><trkpt lat="45.3795383" lon="10.556465"><ele>128.0</ele><time>2026-04-02T10:09:37.429Z</time></trkpt><trkpt lat="45.3796633" lon="10.5563833"><ele>128.0</ele><time>2026-04-02T10:09:38.506Z</time></trkpt><trkpt lat="45.3798133" lon="10.5563017"><ele>128.0</ele><time>2026-04-02T10:09:39.429Z</time></trkpt><trkpt lat="45.3799017" lon="10.5561817"><ele>128.0</ele><time>2026-04-02T10:09:40.425Z</time></trkpt><trkpt lat="45.380005" lon="10.556085"><ele>128.0</ele><time>2026-04-02T10:09:41.428Z</time></trkpt><trkpt lat="45.3800767" lon="10.5559717"><ele>128.0</ele><time>2026-04-02T10:09:42.426Z</time></trkpt><trkpt lat="45.3801567" lon="10.5558633"><ele>128.0</ele><time>2026-04-02T10:09:43.431Z</time></trkpt><trkpt lat="45.38017" lon="10.55576"><ele>128.0</ele><time>2026-04-02T10:09:44.428Z</time></trkpt><trkpt lat="45.3802017" lon="10.555635"><ele>128.0</ele><time>2026-04-02T10:09:45.426Z</time></trkpt><trkpt lat="45.3802633" lon="10.55548"><ele>128.0</ele><time>2026-04-02T10:09:46.426Z</time></trkpt><trkpt lat="45.3803383" lon="10.555325"><ele>127.5</ele><time>2026-04-02T10:09:47.424Z</time></trkpt><trkpt lat="45.3804017" lon="10.5551683"><ele>127.0</ele><time>2026-04-02T10:09:48.423Z</time></trkpt><trkpt lat="45.3804483" lon="10.554995"><ele>126.5</ele><time>2026-04-02T10:09:49.423Z</time></trkpt><trkpt lat="45.3805133" lon="10.5548633"><ele>126.0</ele><time>2026-04-02T10:09:50.429Z</time></trkpt><trkpt lat="45.3805933" lon="10.554725"><ele>126.0</ele><time>2026-04-02T10:09:51.424Z</time></trkpt><trkpt lat="45.3806517" lon="10.5546233"><ele>126.0</ele><time>2026-04-02T10:09:52.427Z</time></trkpt><trkpt lat="45.3807017" lon="10.554495"><ele>126.0</ele><time>2026-04-02T10:09:53.426Z</time></trkpt><trkpt lat="45.380755" lon="10.5543283"><ele>126.0</ele><time>2026-04-02T10:09:54.429Z</time></trkpt><trkpt lat="45.3807967" lon="10.55422"><ele>126.0</ele><time>2026-04-02T10:09:55.425Z</time></trkpt><trkpt lat="45.380805" lon="10.5540667"><ele>125.8</ele><time>2026-04-02T10:09:56.427Z</time></trkpt><trkpt lat="45.3808083" lon="10.5539283"><ele>125.6</ele><time>2026-04-02T10:09:57.424Z</time></trkpt><trkpt lat="45.38077" lon="10.5538017"><ele>125.4</ele><time>2026-04-02T10:09:58.425Z</time></trkpt><trkpt lat="45.3806983" lon="10.5536733"><ele>125.2</ele><time>2026-04-02T10:09:59.434Z</time></trkpt><trkpt lat="45.3806167" lon="10.55357"><ele>125.0</ele><time>2026-04-02T10:10:00.431Z</time></trkpt><trkpt lat="45.38054" lon="10.5535083"><ele>124.66666666666666</ele><time>2026-04-02T10:10:01.421Z</time></trkpt><trkpt lat="45.3804833" lon="10.5534433"><ele>124.33333333333333</ele><time>2026-04-02T10:10:02.435Z</time></trkpt><trkpt lat="45.3804217" lon="10.553355"><ele>124.0</ele><time>2026-04-02T10:10:03.431Z</time></trkpt><trkpt lat="45.3803767" lon="10.55322"><ele>123.66666666666666</ele><time>2026-04-02T10:10:05.43Z</time></trkpt><trkpt lat="45.3803667" lon="10.5531283"><ele>123.33333333333333</ele><time>2026-04-02T10:10:06.428Z</time></trkpt><trkpt lat="45.3803733" lon="10.55303"><ele>123.0</ele><time>2026-04-02T10:10:07.427Z</time></trkpt><trkpt lat="45.3803867" lon="10.5529133"><ele>123.16666666666667</ele><time>2026-04-02T10:10:08.424Z</time></trkpt><trkpt lat="45.3803967" lon="10.5528083"><ele>123.33333333333334</ele><time>2026-04-02T10:10:09.436Z</time></trkpt><trkpt lat="45.380415" lon="10.552715"><ele>123.5</ele><time>2026-04-02T10:10:10.422Z</time></trkpt><trkpt lat="45.3804567" lon="10.5525883"><ele>123.66666666666667</ele><time>2026-04-02T10:10:12.435Z</time></trkpt><trkpt lat="45.3805283" lon="10.5524683"><ele>123.83333333333334</ele><time>2026-04-02T10:10:14.424Z</time></trkpt><trkpt lat="45.380575" lon="10.5524067"><ele>124.0</ele><time>2026-04-02T10:10:15.431Z</time></trkpt><trkpt lat="45.3806417" lon="10.55235"><ele>124.0</ele><time>2026-04-02T10:10:16.426Z</time></trkpt><trkpt lat="45.3807183" lon="10.5522833"><ele>124.0</ele><time>2026-04-02T10:10:17.425Z</time></trkpt><trkpt lat="45.3807967" lon="10.5522367"><ele>124.0</ele><time>2026-04-02T10:10:18.428Z</time></trkpt><trkpt lat="45.3808933" lon="10.552165"><ele>124.0</ele><time>2026-04-02T10:10:19.428Z</time></trkpt><trkpt lat="45.3809867" lon="10.5520933"><ele>124.0</ele><time>2026-04-02T10:10:20.424Z</time></trkpt><trkpt lat="45.3810683" lon="10.5520233"><ele>124.25</ele><time>2026-04-02T10:10:21.422Z</time></trkpt><trkpt lat="45.381165" lon="10.5519367"><ele>124.5</ele><time>2026-04-02T10:10:22.429Z</time></trkpt><trkpt lat="45.38128" lon="10.5518567"><ele>124.75</ele><time>2026-04-02T10:10:23.421Z</time></trkpt><trkpt lat="45.3814017" lon="10.5517633"><ele>125.0</ele><time>2026-04-02T10:10:24.431Z</time></trkpt><trkpt lat="45.3815267" lon="10.55169"><ele>125.0</ele><time>2026-04-02T10:10:25.429Z</time></trkpt><trkpt lat="45.38166" lon="10.55162"><ele>125.0</ele><time>2026-04-02T10:10:26.426Z</time></trkpt><trkpt lat="45.3817867" lon="10.5515167"><ele>125.0</ele><time>2026-04-02T10:10:27.424Z</time></trkpt><trkpt lat="45.3819217" lon="10.55142"><ele>125.0</ele><time>2026-04-02T10:10:28.429Z</time></trkpt><trkpt lat="45.3820717" lon="10.551335"><ele>125.0</ele><time>2026-04-02T10:10:29.419Z</time></trkpt><trkpt lat="45.382215" lon="10.5512733"><ele>125.0</ele><time>2026-04-02T10:10:30.423Z</time></trkpt><trkpt lat="45.3823517" lon="10.5512033"><ele>125.0</ele><time>2026-04-02T10:10:31.427Z</time></trkpt><trkpt lat="45.3824917" lon="10.5511317"><ele>125.0</ele><time>2026-04-02T10:10:32.43Z</time></trkpt><trkpt lat="45.3826367" lon="10.551055"><ele>125.5</ele><time>2026-04-02T10:10:33.427Z</time></trkpt><trkpt lat="45.3827767" lon="10.550985"><ele>126.0</ele><time>2026-04-02T10:10:34.455Z</time></trkpt><trkpt lat="45.3828817" lon="10.5508983"><ele>126.5</ele><time>2026-04-02T10:10:35.428Z</time></trkpt><trkpt lat="45.3829817" lon="10.55083"><ele>127.0</ele><time>2026-04-02T10:10:36.426Z</time></trkpt><trkpt lat="45.3830717" lon="10.550765"><ele>127.39999999999999</ele><time>2026-04-02T10:10:37.424Z</time></trkpt><trkpt lat="45.3831583" lon="10.5506867"><ele>127.79999999999998</ele><time>2026-04-02T10:10:38.426Z</time></trkpt><trkpt lat="45.3832417" lon="10.5506033"><ele>128.2</ele><time>2026-04-02T10:10:39.429Z</time></trkpt><trkpt lat="45.3833283" lon="10.550535"><ele>128.6</ele><time>2026-04-02T10:10:40.423Z</time></trkpt><trkpt lat="45.3834067" lon="10.5504517"><ele>129.0</ele><time>2026-04-02T10:10:41.432Z</time></trkpt><trkpt lat="45.3834967" lon="10.5503967"><ele>128.8</ele><time>2026-04-02T10:10:42.426Z</time></trkpt><trkpt lat="45.383595" lon="10.5503517"><ele>128.60000000000002</ele><time>2026-04-02T10:10:43.432Z</time></trkpt><trkpt lat="45.3836967" lon="10.5502733"><ele>128.4</ele><time>2026-04-02T10:10:44.434Z</time></trkpt><trkpt lat="45.383795" lon="10.5502083"><ele>128.20000000000002</ele><time>2026-04-02T10:10:45.429Z</time></trkpt><trkpt lat="45.3838783" lon="10.550125"><ele>128.0</ele><time>2026-04-02T10:10:46.423Z</time></trkpt><trkpt lat="45.383975" lon="10.5500417"><ele>129.5</ele><time>2026-04-02T10:10:47.428Z</time></trkpt><trkpt lat="45.38407" lon="10.549975"><ele>131.0</ele><time>2026-04-02T10:10:48.428Z</time></trkpt><trkpt lat="45.3842" lon="10.549915"><ele>132.5</ele><time>2026-04-02T10:10:49.426Z</time></trkpt><trkpt lat="45.3843417" lon="10.5498683"><ele>134.0</ele><time>2026-04-02T10:10:50.43Z</time></trkpt><trkpt lat="45.3844417" lon="10.549825"><ele>134.0</ele><time>2026-04-02T10:10:51.429Z</time></trkpt><trkpt lat="45.3845633" lon="10.5497717"><ele>134.0</ele><time>2026-04-02T10:10:52.422Z</time></trkpt><trkpt lat="45.384655" lon="10.5497233"><ele>134.0</ele><time>2026-04-02T10:10:53.423Z</time></trkpt><trkpt lat="45.3847417" lon="10.5496617"><ele>134.0</ele><time>2026-04-02T10:10:54.431Z</time></trkpt><trkpt lat="45.3848233" lon="10.5496033"><ele>134.0</ele><time>2026-04-02T10:10:55.423Z</time></trkpt><trkpt lat="45.384895" lon="10.54954"><ele>133.0</ele><time>2026-04-02T10:10:56.426Z</time></trkpt><trkpt lat="45.384965" lon="10.5494817"><ele>132.0</ele><time>2026-04-02T10:10:57.43Z</time></trkpt><trkpt lat="45.38504" lon="10.5494067"><ele>131.0</ele><time>2026-04-02T10:10:58.429Z</time></trkpt><trkpt lat="45.3851033" lon="10.54935"><ele>130.0</ele><time>2026-04-02T10:10:59.429Z</time></trkpt><trkpt lat="45.3852" lon="10.54925"><ele>129.0</ele><time>2026-04-02T10:11:00.444Z</time></trkpt><trkpt lat="45.3852983" lon="10.549105"><ele>129.0</ele><time>2026-04-02T10:11:01.424Z</time></trkpt><trkpt lat="45.3853783" lon="10.5489567"><ele>129.0</ele><time>2026-04-02T10:11:02.421Z</time></trkpt><trkpt lat="45.3854917" lon="10.548805"><ele>129.0</ele><time>2026-04-02T10:11:03.432Z</time></trkpt><trkpt lat="45.3855817" lon="10.5486467"><ele>129.0</ele><time>2026-04-02T10:11:04.427Z</time></trkpt><trkpt lat="45.3856533" lon="10.5485433"><ele>128.2</ele><time>2026-04-02T10:11:05.425Z</time></trkpt><trkpt lat="45.385735" lon="10.54844"><ele>127.4</ele><time>2026-04-02T10:11:06.425Z</time></trkpt><trkpt lat="45.3858167" lon="10.5483533"><ele>126.6</ele><time>2026-04-02T10:11:07.426Z</time></trkpt><trkpt lat="45.385905" lon="10.5482717"><ele>125.8</ele><time>2026-04-02T10:11:08.42Z</time></trkpt><trkpt lat="45.3860133" lon="10.5482217"><ele>125.0</ele><time>2026-04-02T10:11:09.431Z</time></trkpt><trkpt lat="45.3861417" lon="10.5481167"><ele>125.0</ele><time>2026-04-02T10:11:10.429Z</time></trkpt><trkpt lat="45.3862533" lon="10.5480167"><ele>125.0</ele><time>2026-04-02T10:11:11.427Z</time></trkpt><trkpt lat="45.3863683" lon="10.5479217"><ele>125.0</ele><time>2026-04-02T10:11:12.424Z</time></trkpt><trkpt lat="45.3864817" lon="10.547805"><ele>125.0</ele><time>2026-04-02T10:11:13.425Z</time></trkpt><trkpt lat="45.3866" lon="10.547685"><ele>125.0</ele><time>2026-04-02T10:11:14.421Z</time></trkpt><trkpt lat="45.38672" lon="10.5475317"><ele>125.0</ele><time>2026-04-02T10:11:15.428Z</time></trkpt><trkpt lat="45.386855" lon="10.5474083"><ele>125.0</ele><time>2026-04-02T10:11:16.427Z</time></trkpt><trkpt lat="45.386995" lon="10.5472717"><ele>125.0</ele><time>2026-04-02T10:11:17.431Z</time></trkpt><trkpt lat="45.38712" lon="10.5471083"><ele>125.0</ele><time>2026-04-02T10:11:18.424Z</time></trkpt><trkpt lat="45.38725" lon="10.5469933"><ele>125.0</ele><time>2026-04-02T10:11:19.429Z</time></trkpt><trkpt lat="45.3873667" lon="10.546885"><ele>124.75</ele><time>2026-04-02T10:11:20.428Z</time></trkpt><trkpt lat="45.3874917" lon="10.546775"><ele>124.5</ele><time>2026-04-02T10:11:21.422Z</time></trkpt><trkpt lat="45.3875933" lon="10.546655"><ele>124.25</ele><time>2026-04-02T10:11:22.431Z</time></trkpt><trkpt lat="45.3876983" lon="10.5465267"><ele>124.0</ele><time>2026-04-02T10:11:23.431Z</time></trkpt><trkpt lat="45.3878183" lon="10.5463817"><ele>124.0</ele><time>2026-04-02T10:11:24.427Z</time></trkpt><trkpt lat="45.3879783" lon="10.5462633"><ele>124.0</ele><time>2026-04-02T10:11:25.423Z</time></trkpt><trkpt lat="45.3881367" lon="10.546105"><ele>124.0</ele><time>2026-04-02T10:11:26.427Z</time></trkpt><trkpt lat="45.388275" lon="10.54595"><ele>123.75</ele><time>2026-04-02T10:11:27.423Z</time></trkpt><trkpt lat="45.38839" lon="10.545795"><ele>123.5</ele><time>2026-04-02T10:11:28.43Z</time></trkpt><trkpt lat="45.3884883" lon="10.5456633"><ele>123.25</ele><time>2026-04-02T10:11:29.432Z</time></trkpt><trkpt lat="45.3885817" lon="10.545515"><ele>123.0</ele><time>2026-04-02T10:11:30.426Z</time></trkpt><trkpt lat="45.3886633" lon="10.54536"><ele>124.0</ele><time>2026-04-02T10:11:31.424Z</time></trkpt><trkpt lat="45.38877" lon="10.5452383"><ele>125.0</ele><time>2026-04-02T10:11:32.427Z</time></trkpt><trkpt lat="45.3888517" lon="10.54509"><ele>126.0</ele><time>2026-04-02T10:11:33.424Z</time></trkpt><trkpt lat="45.388955" lon="10.545015"><ele>127.0</ele><time>2026-04-02T10:11:34.424Z</time></trkpt><trkpt lat="45.388995" lon="10.544855"><ele>127.50000000000001</ele><time>2026-04-02T10:11:35.43Z</time></trkpt><trkpt lat="45.3890633" lon="10.5447583"><ele>128.0</ele><time>2026-04-02T10:11:36.426Z</time></trkpt><trkpt lat="45.3891233" lon="10.5446517"><ele>128.5</ele><time>2026-04-02T10:11:37.427Z</time></trkpt><trkpt lat="45.3891533" lon="10.5445717"><ele>129.0</ele><time>2026-04-02T10:11:38.426Z</time></trkpt><trkpt lat="45.3891967" lon="10.5444567"><ele>129.5</ele><time>2026-04-02T10:11:40.425Z</time></trkpt><trkpt lat="45.3892333" lon="10.5443733"><ele>130.0</ele><time>2026-04-02T10:11:41.428Z</time></trkpt><trkpt lat="45.3892683" lon="10.5442933"><ele>130.0</ele><time>2026-04-02T10:11:42.431Z</time></trkpt><trkpt lat="45.3893233" lon="10.5442117"><ele>130.0</ele><time>2026-04-02T10:11:43.429Z</time></trkpt><trkpt lat="45.3894" lon="10.5441317"><ele>130.0</ele><time>2026-04-02T10:11:44.425Z</time></trkpt><trkpt lat="45.389515" lon="10.544075"><ele>130.0</ele><time>2026-04-02T10:11:45.43Z</time></trkpt><trkpt lat="45.38964" lon="10.5439867"><ele>130.0</ele><time>2026-04-02T10:11:46.422Z</time></trkpt><trkpt lat="45.3897433" lon="10.5439017"><ele>130.0</ele><time>2026-04-02T10:11:47.42Z</time></trkpt><trkpt lat="45.3898417" lon="10.54378"><ele>130.0</ele><time>2026-04-02T10:11:48.43Z</time></trkpt><trkpt lat="45.3898733" lon="10.54369"><ele>130.0</ele><time>2026-04-02T10:11:49.434Z</time></trkpt><trkpt lat="45.389945" lon="10.5436517"><ele>130.0</ele><time>2026-04-02T10:11:50.422Z</time></trkpt><trkpt lat="45.3900083" lon="10.543605"><ele>130.0</ele><time>2026-04-02T10:11:51.427Z</time></trkpt><trkpt lat="45.390085" lon="10.5435633"><ele>130.0</ele><time>2026-04-02T10:11:52.43Z</time></trkpt><trkpt lat="45.390185" lon="10.54355"><ele>130.0</ele><time>2026-04-02T10:11:53.425Z</time></trkpt><trkpt lat="45.3902833" lon="10.5435667"><ele>130.0</ele><time>2026-04-02T10:11:54.43Z</time></trkpt><trkpt lat="45.3904517" lon="10.543595"><ele>130.0</ele><time>2026-04-02T10:11:55.43Z</time></trkpt><trkpt lat="45.3906117" lon="10.5436533"><ele>130.0</ele><time>2026-04-02T10:11:56.434Z</time></trkpt><trkpt lat="45.390785" lon="10.543705"><ele>129.5</ele><time>2026-04-02T10:11:57.422Z</time></trkpt><trkpt lat="45.3909333" lon="10.5437783"><ele>129.0</ele><time>2026-04-02T10:11:58.427Z</time></trkpt><trkpt lat="45.3910617" lon="10.5438267"><ele>128.5</ele><time>2026-04-02T10:11:59.421Z</time></trkpt><trkpt lat="45.3911667" lon="10.5438667"><ele>128.0</ele><time>2026-04-02T10:12:00.435Z</time></trkpt><trkpt lat="45.3912983" lon="10.543865"><ele>128.0</ele><time>2026-04-02T10:12:01.429Z</time></trkpt><trkpt lat="45.3914133" lon="10.5438417"><ele>128.0</ele><time>2026-04-02T10:12:02.429Z</time></trkpt><trkpt lat="45.391535" lon="10.5437683"><ele>128.0</ele><time>2026-04-02T10:12:03.432Z</time></trkpt><trkpt lat="45.3916617" lon="10.543665"><ele>128.0</ele><time>2026-04-02T10:12:04.43Z</time></trkpt><trkpt lat="45.3917933" lon="10.5435283"><ele>128.0</ele><time>2026-04-02T10:12:05.423Z</time></trkpt><trkpt lat="45.3919383" lon="10.54339"><ele>128.0</ele><time>2026-04-02T10:12:06.425Z</time></trkpt><trkpt lat="45.3920817" lon="10.54325"><ele>128.0</ele><time>2026-04-02T10:12:07.426Z</time></trkpt><trkpt lat="45.3922417" lon="10.5431233"><ele>128.33333333333331</ele><time>2026-04-02T10:12:08.425Z</time></trkpt><trkpt lat="45.3923883" lon="10.543"><ele>128.66666666666666</ele><time>2026-04-02T10:12:09.422Z</time></trkpt><trkpt lat="45.3925217" lon="10.5428483"><ele>129.0</ele><time>2026-04-02T10:12:10.42Z</time></trkpt><trkpt lat="45.3926317" lon="10.5426983"><ele>129.25</ele><time>2026-04-02T10:12:11.427Z</time></trkpt><trkpt lat="45.39274" lon="10.5425267"><ele>129.5</ele><time>2026-04-02T10:12:12.423Z</time></trkpt><trkpt lat="45.3928083" lon="10.5423667"><ele>129.75</ele><time>2026-04-02T10:12:13.428Z</time></trkpt><trkpt lat="45.3928533" lon="10.5421633"><ele>130.0</ele><time>2026-04-02T10:12:14.432Z</time></trkpt><trkpt lat="45.3928967" lon="10.541955"><ele>130.33333333333334</ele><time>2026-04-02T10:12:15.432Z</time></trkpt><trkpt lat="45.392935" lon="10.5417467"><ele>130.66666666666666</ele><time>2026-04-02T10:12:16.425Z</time></trkpt><trkpt lat="45.3930067" lon="10.5415217"><ele>131.0</ele><time>2026-04-02T10:12:17.431Z</time></trkpt><trkpt lat="45.3930967" lon="10.5413167"><ele>132.33333333333331</ele><time>2026-04-02T10:12:18.427Z</time></trkpt><trkpt lat="45.3932183" lon="10.5411117"><ele>133.66666666666666</ele><time>2026-04-02T10:12:19.422Z</time></trkpt><trkpt lat="45.3933117" lon="10.5409167"><ele>135.0</ele><time>2026-04-02T10:12:20.426Z</time></trkpt><trkpt lat="45.3934017" lon="10.54074"><ele>135.0</ele><time>2026-04-02T10:12:21.429Z</time></trkpt><trkpt lat="45.3934817" lon="10.5406133"><ele>135.0</ele><time>2026-04-02T10:12:22.422Z</time></trkpt><trkpt lat="45.393555" lon="10.5405167"><ele>135.0</ele><time>2026-04-02T10:12:23.431Z</time></trkpt><trkpt lat="45.3936083" lon="10.5404267"><ele>135.0</ele><time>2026-04-02T10:12:24.428Z</time></trkpt><trkpt lat="45.3936417" lon="10.5403317"><ele>135.0</ele><time>2026-04-02T10:12:25.425Z</time></trkpt><trkpt lat="45.3936183" lon="10.54016"><ele>134.6</ele><time>2026-04-02T10:12:27.424Z</time></trkpt><trkpt lat="45.3935583" lon="10.5400667"><ele>134.2</ele><time>2026-04-02T10:12:28.424Z</time></trkpt><trkpt lat="45.393485" lon="10.5399817"><ele>133.8</ele><time>2026-04-02T10:12:29.418Z</time></trkpt><trkpt lat="45.3933767" lon="10.5399033"><ele>133.4</ele><time>2026-04-02T10:12:30.429Z</time></trkpt><trkpt lat="45.39326" lon="10.5398367"><ele>133.0</ele><time>2026-04-02T10:12:31.419Z</time></trkpt><trkpt lat="45.39312" lon="10.5397567"><ele>132.66666666666669</ele><time>2026-04-02T10:12:32.426Z</time></trkpt><trkpt lat="45.3929583" lon="10.539625"><ele>132.33333333333334</ele><time>2026-04-02T10:12:33.426Z</time></trkpt><trkpt lat="45.3928217" lon="10.53953"><ele>132.0</ele><time>2026-04-02T10:12:34.426Z</time></trkpt><trkpt lat="45.392705" lon="10.539455"><ele>132.0</ele><time>2026-04-02T10:12:35.42Z</time></trkpt><trkpt lat="45.3926117" lon="10.53938"><ele>132.0</ele><time>2026-04-02T10:12:36.429Z</time></trkpt><trkpt lat="45.3925467" lon="10.5393167"><ele>132.0</ele><time>2026-04-02T10:12:37.423Z</time></trkpt><trkpt lat="45.3924817" lon="10.5392417"><ele>132.0</ele><time>2026-04-02T10:12:38.424Z</time></trkpt><trkpt lat="45.3924567" lon="10.5391517"><ele>132.0</ele><time>2026-04-02T10:12:39.428Z</time></trkpt><trkpt lat="45.3924717" lon="10.5390067"><ele>132.0</ele><time>2026-04-02T10:12:41.422Z</time></trkpt><trkpt lat="45.39252" lon="10.5389283"><ele>132.0</ele><time>2026-04-02T10:12:42.433Z</time></trkpt><trkpt lat="45.3926033" lon="10.53883"><ele>132.0</ele><time>2026-04-02T10:12:43.428Z</time></trkpt><trkpt lat="45.39269" lon="10.5387133"><ele>132.0</ele><time>2026-04-02T10:12:44.42Z</time></trkpt><trkpt lat="45.3927817" lon="10.538615"><ele>132.0</ele><time>2026-04-02T10:12:45.431Z</time></trkpt><trkpt lat="45.392885" lon="10.5384567"><ele>132.66666666666666</ele><time>2026-04-02T10:12:46.428Z</time></trkpt><trkpt lat="45.392995" lon="10.538305"><ele>133.33333333333331</ele><time>2026-04-02T10:12:47.424Z</time></trkpt><trkpt lat="45.393115" lon="10.538165"><ele>134.0</ele><time>2026-04-02T10:12:48.425Z</time></trkpt><trkpt lat="45.39325" lon="10.5379767"><ele>133.66666666666666</ele><time>2026-04-02T10:12:49.431Z</time></trkpt><trkpt lat="45.3933917" lon="10.5378117"><ele>133.33333333333334</ele><time>2026-04-02T10:12:50.421Z</time></trkpt><trkpt lat="45.3935083" lon="10.5376483"><ele>133.0</ele><time>2026-04-02T10:12:51.425Z</time></trkpt><trkpt lat="45.3936317" lon="10.537515"><ele>133.0</ele><time>2026-04-02T10:12:52.427Z</time></trkpt><trkpt lat="45.393755" lon="10.537375"><ele>133.0</ele><time>2026-04-02T10:12:53.425Z</time></trkpt><trkpt lat="45.3938817" lon="10.53724"><ele>133.0</ele><time>2026-04-02T10:12:54.425Z</time></trkpt><trkpt lat="45.3939933" lon="10.5371083"><ele>132.66666666666669</ele><time>2026-04-02T10:12:55.439Z</time></trkpt><trkpt lat="45.3941283" lon="10.536995"><ele>132.33333333333334</ele><time>2026-04-02T10:12:56.429Z</time></trkpt><trkpt lat="45.3942583" lon="10.536895"><ele>132.0</ele><time>2026-04-02T10:12:57.428Z</time></trkpt><trkpt lat="45.39442" lon="10.5368117"><ele>132.0</ele><time>2026-04-02T10:12:58.433Z</time></trkpt><trkpt lat="45.3945617" lon="10.5367183"><ele>132.0</ele><time>2026-04-02T10:12:59.43Z</time></trkpt><trkpt lat="45.3947183" lon="10.536655"><ele>132.0</ele><time>2026-04-02T10:13:00.423Z</time></trkpt><trkpt lat="45.3948783" lon="10.536565"><ele>132.25</ele><time>2026-04-02T10:13:01.422Z</time></trkpt><trkpt lat="45.3950217" lon="10.53646"><ele>132.5</ele><time>2026-04-02T10:13:02.431Z</time></trkpt><trkpt lat="45.3951467" lon="10.5363883"><ele>132.75</ele><time>2026-04-02T10:13:03.425Z</time></trkpt><trkpt lat="45.395235" lon="10.5363367"><ele>133.0</ele><time>2026-04-02T10:13:04.426Z</time></trkpt><trkpt lat="45.3953133" lon="10.5363017"><ele>133.0</ele><time>2026-04-02T10:13:05.428Z</time></trkpt><trkpt lat="45.3953917" lon="10.5362817"><ele>133.0</ele><time>2026-04-02T10:13:06.429Z</time></trkpt><trkpt lat="45.39548" lon="10.53629"><ele>133.0</ele><time>2026-04-02T10:13:07.421Z</time></trkpt><trkpt lat="45.3955717" lon="10.536315"><ele>133.0</ele><time>2026-04-02T10:13:08.427Z</time></trkpt><trkpt lat="45.3956717" lon="10.5363967"><ele>133.0</ele><time>2026-04-02T10:13:09.422Z</time></trkpt><trkpt lat="45.395795" lon="10.5365033"><ele>132.0</ele><time>2026-04-02T10:13:10.421Z</time></trkpt><trkpt lat="45.3959133" lon="10.5366483"><ele>131.0</ele><time>2026-04-02T10:13:11.426Z</time></trkpt><trkpt lat="45.3960583" lon="10.5367683"><ele>130.0</ele><time>2026-04-02T10:13:12.427Z</time></trkpt><trkpt lat="45.3962" lon="10.5368883"><ele>130.0</ele><time>2026-04-02T10:13:13.419Z</time></trkpt><trkpt lat="45.3962967" lon="10.5369883"><ele>130.0</ele><time>2026-04-02T10:13:14.423Z</time></trkpt><trkpt lat="45.3964033" lon="10.537055"><ele>130.0</ele><time>2026-04-02T10:13:15.431Z</time></trkpt><trkpt lat="45.396515" lon="10.53711"><ele>130.0</ele><time>2026-04-02T10:13:16.424Z</time></trkpt><trkpt lat="45.3966217" lon="10.53709"><ele>130.0</ele><time>2026-04-02T10:13:17.43Z</time></trkpt><trkpt lat="45.3967483" lon="10.5370633"><ele>130.0</ele><time>2026-04-02T10:13:18.428Z</time></trkpt><trkpt lat="45.3968817" lon="10.537015"><ele>130.0</ele><time>2026-04-02T10:13:19.429Z</time></trkpt><trkpt lat="45.39702" lon="10.536975"><ele>130.0</ele><time>2026-04-02T10:13:20.422Z</time></trkpt><trkpt lat="45.39715" lon="10.5369117"><ele>132.0</ele><time>2026-04-02T10:13:21.427Z</time></trkpt><trkpt lat="45.39724" lon="10.5368383"><ele>134.0</ele><time>2026-04-02T10:13:22.425Z</time></trkpt><trkpt lat="45.3973067" lon="10.53678"><ele>136.0</ele><time>2026-04-02T10:13:23.425Z</time></trkpt><trkpt lat="45.3974" lon="10.5366833"><ele>138.0</ele><time>2026-04-02T10:13:24.427Z</time></trkpt><trkpt lat="45.3974617" lon="10.5366"><ele>140.0</ele><time>2026-04-02T10:13:25.43Z</time></trkpt><trkpt lat="45.3975233" lon="10.5365133"><ele>140.0</ele><time>2026-04-02T10:13:26.422Z</time></trkpt><trkpt lat="45.3975833" lon="10.5364317"><ele>140.0</ele><time>2026-04-02T10:13:27.424Z</time></trkpt><trkpt lat="45.3976433" lon="10.53635"><ele>140.0</ele><time>2026-04-02T10:13:28.425Z</time></trkpt><trkpt lat="45.3977017" lon="10.5362617"><ele>140.0</ele><time>2026-04-02T10:13:29.422Z</time></trkpt><trkpt lat="45.3977567" lon="10.5361767"><ele>140.0</ele><time>2026-04-02T10:13:30.428Z</time></trkpt><trkpt lat="45.3978117" lon="10.536105"><ele>140.0</ele><time>2026-04-02T10:13:31.427Z</time></trkpt><trkpt lat="45.3978567" lon="10.5360333"><ele>139.6</ele><time>2026-04-02T10:13:32.422Z</time></trkpt><trkpt lat="45.3979083" lon="10.5359717"><ele>139.2</ele><time>2026-04-02T10:13:33.418Z</time></trkpt><trkpt lat="45.3979983" lon="10.5358717"><ele>138.8</ele><time>2026-04-02T10:13:35.425Z</time></trkpt><trkpt lat="45.3980783" lon="10.5357967"><ele>138.4</ele><time>2026-04-02T10:13:37.43Z</time></trkpt><trkpt lat="45.3981267" lon="10.53564"><ele>138.0</ele><time>2026-04-02T10:13:39.423Z</time></trkpt><trkpt lat="45.3981517" lon="10.5355483"><ele>138.0</ele><time>2026-04-02T10:13:40.427Z</time></trkpt><trkpt lat="45.3981733" lon="10.53544"><ele>138.0</ele><time>2026-04-02T10:13:41.42Z</time></trkpt><trkpt lat="45.39819" lon="10.5353167"><ele>138.0</ele><time>2026-04-02T10:13:42.422Z</time></trkpt><trkpt lat="45.3982083" lon="10.5351583"><ele>138.0</ele><time>2026-04-02T10:13:43.43Z</time></trkpt><trkpt lat="45.398225" lon="10.53502"><ele>138.0</ele><time>2026-04-02T10:13:44.428Z</time></trkpt><trkpt lat="45.398265" lon="10.5348567"><ele>137.25</ele><time>2026-04-02T10:13:45.425Z</time></trkpt><trkpt lat="45.3982767" lon="10.53469"><ele>136.5</ele><time>2026-04-02T10:13:46.423Z</time></trkpt><trkpt lat="45.39831" lon="10.5345183"><ele>135.75</ele><time>2026-04-02T10:13:47.424Z</time></trkpt><trkpt lat="45.398345" lon="10.5343233"><ele>135.0</ele><time>2026-04-02T10:13:48.42Z</time></trkpt><trkpt lat="45.3983717" lon="10.5341317"><ele>134.0</ele><time>2026-04-02T10:13:49.427Z</time></trkpt><trkpt lat="45.39841" lon="10.53393"><ele>133.0</ele><time>2026-04-02T10:13:50.425Z</time></trkpt><trkpt lat="45.3984333" lon="10.5337483"><ele>132.0</ele><time>2026-04-02T10:13:51.425Z</time></trkpt><trkpt lat="45.3984567" lon="10.5335783"><ele>131.0</ele><time>2026-04-02T10:13:52.422Z</time></trkpt><trkpt lat="45.3984767" lon="10.5334167"><ele>130.4</ele><time>2026-04-02T10:13:53.422Z</time></trkpt><trkpt lat="45.3985083" lon="10.53327"><ele>129.8</ele><time>2026-04-02T10:13:54.422Z</time></trkpt><trkpt lat="45.39849" lon="10.5331033"><ele>129.20000000000002</ele><time>2026-04-02T10:13:55.434Z</time></trkpt><trkpt lat="45.3984967" lon="10.53297"><ele>128.6</ele><time>2026-04-02T10:13:56.427Z</time></trkpt><trkpt lat="45.3984533" lon="10.5328317"><ele>128.0</ele><time>2026-04-02T10:13:57.428Z</time></trkpt><trkpt lat="45.3984133" lon="10.5327233"><ele>128.0</ele><time>2026-04-02T10:13:58.429Z</time></trkpt><trkpt lat="45.39839" lon="10.532615"><ele>128.0</ele><time>2026-04-02T10:13:59.43Z</time></trkpt><trkpt lat="45.398385" lon="10.5324667"><ele>128.0</ele><time>2026-04-02T10:14:01.421Z</time></trkpt><trkpt lat="45.3984633" lon="10.53235"><ele>128.0</ele><time>2026-04-02T10:14:03.43Z</time></trkpt><trkpt lat="45.3985383" lon="10.53228"><ele>128.0</ele><time>2026-04-02T10:14:04.427Z</time></trkpt><trkpt lat="45.3986367" lon="10.5321767"><ele>127.75</ele><time>2026-04-02T10:14:05.423Z</time></trkpt><trkpt lat="45.3987517" lon="10.5320517"><ele>127.5</ele><time>2026-04-02T10:14:06.428Z</time></trkpt><trkpt lat="45.39887" lon="10.5319433"><ele>127.25</ele><time>2026-04-02T10:14:07.426Z</time></trkpt><trkpt lat="45.39897" lon="10.5318233"><ele>127.0</ele><time>2026-04-02T10:14:08.424Z</time></trkpt><trkpt lat="45.39906" lon="10.5316933"><ele>127.6</ele><time>2026-04-02T10:14:09.429Z</time></trkpt><trkpt lat="45.3991217" lon="10.5315933"><ele>128.2</ele><time>2026-04-02T10:14:10.425Z</time></trkpt><trkpt lat="45.3991833" lon="10.5314567"><ele>128.8</ele><time>2026-04-02T10:14:11.468Z</time></trkpt><trkpt lat="45.3992433" lon="10.5313167"><ele>129.4</ele><time>2026-04-02T10:14:12.43Z</time></trkpt><trkpt lat="45.399315" lon="10.5311817"><ele>130.0</ele><time>2026-04-02T10:14:13.43Z</time></trkpt><trkpt lat="45.3993817" lon="10.5310683"><ele>130.0</ele><time>2026-04-02T10:14:14.425Z</time></trkpt><trkpt lat="45.39946" lon="10.5309483"><ele>130.0</ele><time>2026-04-02T10:14:15.431Z</time></trkpt><trkpt lat="45.3995467" lon="10.5308233"><ele>130.0</ele><time>2026-04-02T10:14:16.426Z</time></trkpt><trkpt lat="45.3996633" lon="10.53071"><ele>130.0</ele><time>2026-04-02T10:14:17.424Z</time></trkpt><trkpt lat="45.39977" lon="10.530575"><ele>131.5</ele><time>2026-04-02T10:14:18.425Z</time></trkpt><trkpt lat="45.39989" lon="10.5304467"><ele>133.0</ele><time>2026-04-02T10:14:19.428Z</time></trkpt><trkpt lat="45.4000083" lon="10.5303167"><ele>134.5</ele><time>2026-04-02T10:14:20.429Z</time></trkpt><trkpt lat="45.40012" lon="10.5301983"><ele>136.0</ele><time>2026-04-02T10:14:21.426Z</time></trkpt><trkpt lat="45.4002367" lon="10.5300867"><ele>136.2</ele><time>2026-04-02T10:14:22.426Z</time></trkpt><trkpt lat="45.4003417" lon="10.52999"><ele>136.39999999999998</ele><time>2026-04-02T10:14:23.427Z</time></trkpt><trkpt lat="45.4004433" lon="10.5298917"><ele>136.6</ele><time>2026-04-02T10:14:24.423Z</time></trkpt><trkpt lat="45.4005317" lon="10.5298083"><ele>136.79999999999998</ele><time>2026-04-02T10:14:25.427Z</time></trkpt><trkpt lat="45.4006067" lon="10.5297417"><ele>137.0</ele><time>2026-04-02T10:14:26.441Z</time></trkpt><trkpt lat="45.40067" lon="10.5296983"><ele>136.6</ele><time>2026-04-02T10:14:27.429Z</time></trkpt><trkpt lat="45.40077" lon="10.5297067"><ele>136.2</ele><time>2026-04-02T10:14:29.425Z</time></trkpt><trkpt lat="45.4008233" lon="10.529865"><ele>135.8</ele><time>2026-04-02T10:14:31.427Z</time></trkpt><trkpt lat="45.4008567" lon="10.52999"><ele>135.4</ele><time>2026-04-02T10:14:32.427Z</time></trkpt><trkpt lat="45.4008817" lon="10.5301267"><ele>135.0</ele><time>2026-04-02T10:14:33.427Z</time></trkpt><trkpt lat="45.4009033" lon="10.5302517"><ele>135.0</ele><time>2026-04-02T10:14:34.432Z</time></trkpt><trkpt lat="45.4009217" lon="10.5303533"><ele>135.0</ele><time>2026-04-02T10:14:35.429Z</time></trkpt><trkpt lat="45.400945" lon="10.530445"><ele>135.0</ele><time>2026-04-02T10:14:36.426Z</time></trkpt><trkpt lat="45.400985" lon="10.5306083"><ele>135.0</ele><time>2026-04-02T10:14:38.426Z</time></trkpt><trkpt lat="45.4010283" lon="10.5307767"><ele>135.0</ele><time>2026-04-02T10:14:40.423Z</time></trkpt><trkpt lat="45.4010483" lon="10.5308733"><ele>134.83333333333334</ele><time>2026-04-02T10:14:41.421Z</time></trkpt><trkpt lat="45.4010717" lon="10.5309733"><ele>134.66666666666666</ele><time>2026-04-02T10:14:42.429Z</time></trkpt><trkpt lat="45.4010917" lon="10.5310783"><ele>134.5</ele><time>2026-04-02T10:14:43.421Z</time></trkpt><trkpt lat="45.4011067" lon="10.5311817"><ele>134.33333333333331</ele><time>2026-04-02T10:14:44.429Z</time></trkpt><trkpt lat="45.40112" lon="10.531275"><ele>134.16666666666666</ele><time>2026-04-02T10:14:45.425Z</time></trkpt><trkpt lat="45.4011233" lon="10.53144"><ele>134.0</ele><time>2026-04-02T10:14:47.423Z</time></trkpt><trkpt lat="45.40112" lon="10.5316"><ele>133.4</ele><time>2026-04-02T10:14:49.424Z</time></trkpt><trkpt lat="45.4011167" lon="10.53175"><ele>132.8</ele><time>2026-04-02T10:14:51.428Z</time></trkpt><trkpt lat="45.4011417" lon="10.5318983"><ele>132.2</ele><time>2026-04-02T10:14:53.427Z</time></trkpt><trkpt lat="45.4012233" lon="10.5320233"><ele>131.6</ele><time>2026-04-02T10:14:55.431Z</time></trkpt><trkpt lat="45.4012767" lon="10.532085"><ele>131.0</ele><time>2026-04-02T10:14:56.421Z</time></trkpt><trkpt lat="45.401345" lon="10.532145"><ele>130.2</ele><time>2026-04-02T10:14:57.425Z</time></trkpt><trkpt lat="45.4014133" lon="10.5321983"><ele>129.39999999999998</ele><time>2026-04-02T10:14:58.424Z</time></trkpt><trkpt lat="45.4015" lon="10.532255"><ele>128.6</ele><time>2026-04-02T10:14:59.427Z</time></trkpt><trkpt lat="45.4015817" lon="10.532315"><ele>127.8</ele><time>2026-04-02T10:15:00.431Z</time></trkpt><trkpt lat="45.4016767" lon="10.5323733"><ele>127.0</ele><time>2026-04-02T10:15:01.429Z</time></trkpt><trkpt lat="45.40178" lon="10.5324017"><ele>127.0</ele><time>2026-04-02T10:15:02.428Z</time></trkpt><trkpt lat="45.4018717" lon="10.532455"><ele>126.99999999999999</ele><time>2026-04-02T10:15:03.427Z</time></trkpt><trkpt lat="45.4019417" lon="10.5325317"><ele>126.99999999999999</ele><time>2026-04-02T10:15:04.431Z</time></trkpt><trkpt lat="45.4020467" lon="10.5325533"><ele>127.0</ele><time>2026-04-02T10:15:05.424Z</time></trkpt><trkpt lat="45.4021183" lon="10.5326267"><ele>127.0</ele><time>2026-04-02T10:15:06.426Z</time></trkpt><trkpt lat="45.4022133" lon="10.5326267"><ele>126.8</ele><time>2026-04-02T10:15:07.425Z</time></trkpt><trkpt lat="45.402305" lon="10.532655"><ele>126.6</ele><time>2026-04-02T10:15:08.43Z</time></trkpt><trkpt lat="45.402385" lon="10.53266"><ele>126.39999999999999</ele><time>2026-04-02T10:15:09.426Z</time></trkpt><trkpt lat="45.4024883" lon="10.532675"><ele>126.19999999999999</ele><time>2026-04-02T10:15:11.426Z</time></trkpt><trkpt lat="45.40256" lon="10.5326983"><ele>126.0</ele><time>2026-04-02T10:15:13.426Z</time></trkpt><trkpt lat="45.4026367" lon="10.5328017"><ele>125.66666666666667</ele><time>2026-04-02T10:15:15.422Z</time></trkpt><trkpt lat="45.4026783" lon="10.5328917"><ele>125.33333333333334</ele><time>2026-04-02T10:15:16.441Z</time></trkpt><trkpt lat="45.40272" lon="10.5329933"><ele>125.0</ele><time>2026-04-02T10:15:17.421Z</time></trkpt><trkpt lat="45.4027583" lon="10.5331033"><ele>124.66666666666667</ele><time>2026-04-02T10:15:18.421Z</time></trkpt><trkpt lat="45.4027967" lon="10.5332067"><ele>124.33333333333334</ele><time>2026-04-02T10:15:19.425Z</time></trkpt><trkpt lat="45.40284" lon="10.5333017"><ele>124.0</ele><time>2026-04-02T10:15:20.428Z</time></trkpt><trkpt lat="45.40289" lon="10.5333933"><ele>124.0</ele><time>2026-04-02T10:15:21.423Z</time></trkpt><trkpt lat="45.4029633" lon="10.5334717"><ele>124.0</ele><time>2026-04-02T10:15:22.42Z</time></trkpt><trkpt lat="45.4030667" lon="10.5335517"><ele>124.0</ele><time>2026-04-02T10:15:23.43Z</time></trkpt><trkpt lat="45.403145" lon="10.53369"><ele>124.0</ele><time>2026-04-02T10:15:24.424Z</time></trkpt><trkpt lat="45.4032517" lon="10.5337917"><ele>123.4</ele><time>2026-04-02T10:15:25.427Z</time></trkpt><trkpt lat="45.4033383" lon="10.5338833"><ele>122.80000000000001</ele><time>2026-04-02T10:15:26.427Z</time></trkpt><trkpt lat="45.4034117" lon="10.5339433"><ele>122.19999999999999</ele><time>2026-04-02T10:15:27.429Z</time></trkpt><trkpt lat="45.4034817" lon="10.53402"><ele>121.6</ele><time>2026-04-02T10:15:28.423Z</time></trkpt><trkpt lat="45.4035733" lon="10.53406"><ele>121.0</ele><time>2026-04-02T10:15:29.427Z</time></trkpt><trkpt lat="45.40368" lon="10.53409"><ele>121.0</ele><time>2026-04-02T10:15:30.426Z</time></trkpt><trkpt lat="45.40378" lon="10.5341233"><ele>121.0</ele><time>2026-04-02T10:15:31.425Z</time></trkpt><trkpt lat="45.40387" lon="10.5341733"><ele>121.0</ele><time>2026-04-02T10:15:32.426Z</time></trkpt><trkpt lat="45.40395" lon="10.534215"><ele>121.0</ele><time>2026-04-02T10:15:33.425Z</time></trkpt><trkpt lat="45.4040533" lon="10.53425"><ele>121.0</ele><time>2026-04-02T10:15:34.422Z</time></trkpt><trkpt lat="45.404165" lon="10.5342767"><ele>120.4</ele><time>2026-04-02T10:15:35.433Z</time></trkpt><trkpt lat="45.404265" lon="10.534335"><ele>119.8</ele><time>2026-04-02T10:15:36.428Z</time></trkpt><trkpt lat="45.4043833" lon="10.534375"><ele>119.20000000000002</ele><time>2026-04-02T10:15:37.427Z</time></trkpt><trkpt lat="45.4044717" lon="10.5344317"><ele>118.60000000000001</ele><time>2026-04-02T10:15:38.425Z</time></trkpt><trkpt lat="45.4045583" lon="10.5344767"><ele>118.0</ele><time>2026-04-02T10:15:39.435Z</time></trkpt><trkpt lat="45.4046483" lon="10.53452"><ele>116.75</ele><time>2026-04-02T10:15:40.427Z</time></trkpt><trkpt lat="45.40478" lon="10.5346017"><ele>115.5</ele><time>2026-04-02T10:15:41.42Z</time></trkpt><trkpt lat="45.40493" lon="10.5346133"><ele>114.25</ele><time>2026-04-02T10:15:42.433Z</time></trkpt><trkpt lat="45.4050683" lon="10.5346733"><ele>113.0</ele><time>2026-04-02T10:15:43.422Z</time></trkpt><trkpt lat="45.4051983" lon="10.53474"><ele>113.0</ele><time>2026-04-02T10:15:44.427Z</time></trkpt><trkpt lat="45.4053067" lon="10.5348117"><ele>113.00000000000001</ele><time>2026-04-02T10:15:45.427Z</time></trkpt><trkpt lat="45.4054017" lon="10.534845"><ele>113.00000000000001</ele><time>2026-04-02T10:15:46.424Z</time></trkpt><trkpt lat="45.4054917" lon="10.5348767"><ele>113.0</ele><time>2026-04-02T10:15:47.428Z</time></trkpt><trkpt lat="45.4055933" lon="10.5349083"><ele>113.0</ele><time>2026-04-02T10:15:48.44Z</time></trkpt><trkpt lat="45.4056783" lon="10.534915"><ele>112.80000000000001</ele><time>2026-04-02T10:15:49.424Z</time></trkpt><trkpt lat="45.40575" lon="10.534925"><ele>112.60000000000001</ele><time>2026-04-02T10:15:50.429Z</time></trkpt><trkpt lat="45.4058283" lon="10.5349333"><ele>112.39999999999999</ele><time>2026-04-02T10:15:51.43Z</time></trkpt><trkpt lat="45.405975" lon="10.5350233"><ele>112.19999999999999</ele><time>2026-04-02T10:15:53.422Z</time></trkpt><trkpt lat="45.4060617" lon="10.5351217"><ele>112.0</ele><time>2026-04-02T10:15:54.424Z</time></trkpt><trkpt lat="45.4061533" lon="10.5352117"><ele>112.0</ele><time>2026-04-02T10:15:55.427Z</time></trkpt><trkpt lat="45.4062317" lon="10.5352517"><ele>111.99999999999999</ele><time>2026-04-02T10:15:56.423Z</time></trkpt><trkpt lat="45.406315" lon="10.5352683"><ele>111.99999999999999</ele><time>2026-04-02T10:15:57.431Z</time></trkpt><trkpt lat="45.4064283" lon="10.53524"><ele>112.0</ele><time>2026-04-02T10:15:59.426Z</time></trkpt><trkpt lat="45.4064917" lon="10.5351617"><ele>112.0</ele><time>2026-04-02T10:16:00.428Z</time></trkpt><trkpt lat="45.4065583" lon="10.5350483"><ele>111.6</ele><time>2026-04-02T10:16:01.425Z</time></trkpt><trkpt lat="45.4066217" lon="10.5349567"><ele>111.19999999999999</ele><time>2026-04-02T10:16:02.427Z</time></trkpt><trkpt lat="45.4066733" lon="10.53489"><ele>110.8</ele><time>2026-04-02T10:16:03.426Z</time></trkpt><trkpt lat="45.4067683" lon="10.5348317"><ele>110.4</ele><time>2026-04-02T10:16:05.425Z</time></trkpt><trkpt lat="45.4068117" lon="10.5349817"><ele>110.0</ele><time>2026-04-02T10:16:07.424Z</time></trkpt><trkpt lat="45.4068383" lon="10.5350933"><ele>110.0</ele><time>2026-04-02T10:16:08.432Z</time></trkpt><trkpt lat="45.4068933" lon="10.53524"><ele>110.0</ele><time>2026-04-02T10:16:09.421Z</time></trkpt><trkpt lat="45.4069567" lon="10.5353917"><ele>110.0</ele><time>2026-04-02T10:16:10.431Z</time></trkpt><trkpt lat="45.406995" lon="10.5355733"><ele>110.0</ele><time>2026-04-02T10:16:11.432Z</time></trkpt><trkpt lat="45.4070533" lon="10.535775"><ele>110.0</ele><time>2026-04-02T10:16:12.424Z</time></trkpt><trkpt lat="45.407095" lon="10.5360033"><ele>110.0</ele><time>2026-04-02T10:16:13.428Z</time></trkpt><trkpt lat="45.4071667" lon="10.5362383"><ele>110.0</ele><time>2026-04-02T10:16:14.432Z</time></trkpt><trkpt lat="45.40723" lon="10.5364967"><ele>110.33333333333333</ele><time>2026-04-02T10:16:15.42Z</time></trkpt><trkpt lat="45.40729" lon="10.536725"><ele>110.66666666666666</ele><time>2026-04-02T10:16:16.423Z</time></trkpt><trkpt lat="45.40736" lon="10.5369367"><ele>111.0</ele><time>2026-04-02T10:16:17.432Z</time></trkpt><trkpt lat="45.4074017" lon="10.5371533"><ele>111.6</ele><time>2026-04-02T10:16:18.424Z</time></trkpt><trkpt lat="45.4074433" lon="10.5373367"><ele>112.19999999999999</ele><time>2026-04-02T10:16:19.421Z</time></trkpt><trkpt lat="45.4074733" lon="10.5375083"><ele>112.80000000000001</ele><time>2026-04-02T10:16:20.429Z</time></trkpt><trkpt lat="45.4074967" lon="10.5376083"><ele>113.4</ele><time>2026-04-02T10:16:21.422Z</time></trkpt><trkpt lat="45.4075333" lon="10.5377083"><ele>114.0</ele><time>2026-04-02T10:16:22.423Z</time></trkpt><trkpt lat="45.40759" lon="10.5377683"><ele>114.0</ele><time>2026-04-02T10:16:23.432Z</time></trkpt><trkpt lat="45.40772" lon="10.5377817"><ele>114.0</ele><time>2026-04-02T10:16:25.424Z</time></trkpt><trkpt lat="45.4078267" lon="10.5377083"><ele>114.0</ele><time>2026-04-02T10:16:26.424Z</time></trkpt><trkpt lat="45.40795" lon="10.5376033"><ele>114.0</ele><time>2026-04-02T10:16:27.426Z</time></trkpt><trkpt lat="45.4080867" lon="10.5375017"><ele>114.5</ele><time>2026-04-02T10:16:28.423Z</time></trkpt><trkpt lat="45.408215" lon="10.5374217"><ele>115.0</ele><time>2026-04-02T10:16:29.426Z</time></trkpt><trkpt lat="45.4083667" lon="10.5373283"><ele>115.5</ele><time>2026-04-02T10:16:30.431Z</time></trkpt><trkpt lat="45.408465" lon="10.537265"><ele>116.0</ele><time>2026-04-02T10:16:31.425Z</time></trkpt><trkpt lat="45.40857" lon="10.5372033"><ele>116.0</ele><time>2026-04-02T10:16:32.422Z</time></trkpt><trkpt lat="45.40864" lon="10.5371733"><ele>116.0</ele><time>2026-04-02T10:16:33.425Z</time></trkpt><trkpt lat="45.4087383" lon="10.5371417"><ele>116.0</ele><time>2026-04-02T10:16:35.421Z</time></trkpt><trkpt lat="45.4087867" lon="10.5372083"><ele>116.0</ele><time>2026-04-02T10:16:37.449Z</time></trkpt><trkpt lat="45.4087883" lon="10.5373783"><ele>116.0</ele><time>2026-04-02T10:16:39.428Z</time></trkpt><trkpt lat="45.4087733" lon="10.5375133"><ele>116.0</ele><time>2026-04-02T10:16:40.433Z</time></trkpt><trkpt lat="45.408755" lon="10.5376733"><ele>116.0</ele><time>2026-04-02T10:16:41.42Z</time></trkpt><trkpt lat="45.4087617" lon="10.5378633"><ele>116.0</ele><time>2026-04-02T10:16:42.428Z</time></trkpt><trkpt lat="45.408755" lon="10.5380783"><ele>116.0</ele><time>2026-04-02T10:16:43.43Z</time></trkpt><trkpt lat="45.4087567" lon="10.5382917"><ele>116.6</ele><time>2026-04-02T10:16:44.421Z</time></trkpt><trkpt lat="45.4087567" lon="10.538475"><ele>117.19999999999999</ele><time>2026-04-02T10:16:45.429Z</time></trkpt><trkpt lat="45.40878" lon="10.5386167"><ele>117.80000000000001</ele><time>2026-04-02T10:16:46.435Z</time></trkpt><trkpt lat="45.4087733" lon="10.5387133"><ele>118.4</ele><time>2026-04-02T10:16:47.426Z</time></trkpt><trkpt lat="45.4088017" lon="10.5388233"><ele>119.0</ele><time>2026-04-02T10:16:48.427Z</time></trkpt><trkpt lat="45.4088333" lon="10.53898"><ele>129.0</ele><time>2026-04-02T10:16:50.425Z</time></trkpt><trkpt lat="45.40883" lon="10.5390833"><ele>129.0</ele><time>2026-04-02T10:16:53.424Z</time></trkpt></trkseg></trk></gpx>